<?xml version='1.0' encoding='UTF-8'?><gpx version="1.1" creator="JPX - https://github.com/jenetics/jpx" xmlns="http://www.topografix.com/GPX/1/1"><trk><trkseg><trkpt lat="43.58267337910794" lon="10.305956476458341"><ele>-5.0</ele><time>2026-05-02T06:13:26.999Z</time></trkpt><trkpt lat="43.58268629100771" lon="10.306047457592047"><ele>-5.0</ele><time>2026-05-02T06:13:27.999Z</time></trkpt><trkpt lat="43.58270590346262" lon="10.306136103639265"><ele>-5.0</ele><time>2026-05-02T06:13:28.999Z</time></trkpt><trkpt lat="43.58274301363396" lon="10.306234913888519"><ele>-5.0</ele><time>2026-05-02T06:13:29.999Z</time></trkpt><trkpt lat="43.582794758855336" lon="10.306333707123711"><ele>-5.0</ele><time>2026-05-02T06:13:30.999Z</time></trkpt><trkpt lat="43.582862084919604" lon="10.30644926663284"><ele>-5.0</ele><time>2026-05-02T06:13:31.999Z</time></trkpt><trkpt lat="43.58294215848163" lon="10.306572925936905"><ele>-4.0</ele><time>2026-05-02T06:13:32.999Z</time></trkpt><trkpt lat="43.583027630712294" lon="10.306703794623791"><ele>-3.0</ele><time>2026-05-02T06:13:33.999Z</time></trkpt><trkpt lat="43.58311644391199" lon="10.306833170292553"><ele>-2.0</ele><time>2026-05-02T06:13:34.999Z</time></trkpt><trkpt lat="43.58321885717789" lon="10.30697714747382"><ele>-1.0</ele><time>2026-05-02T06:13:35.999Z</time></trkpt><trkpt lat="43.58332070867908" lon="10.307125731133016"><ele>-0.3333333333333333</ele><time>2026-05-02T06:13:36.999Z</time></trkpt><trkpt lat="43.583430937917626" lon="10.30727931517209"><ele>0.3333333333333333</ele><time>2026-05-02T06:13:37.999Z</time></trkpt><trkpt lat="43.58355001599955" lon="10.307420467733422"><ele>1.0</ele><time>2026-05-02T06:13:38.999Z</time></trkpt><trkpt lat="43.583690534116265" lon="10.30754603120922"><ele>1.0</ele><time>2026-05-02T06:13:39.999Z</time></trkpt><trkpt lat="43.583832727455835" lon="10.307676251097737"><ele>1.0</ele><time>2026-05-02T06:13:40.999Z</time></trkpt><trkpt lat="43.58396479994034" lon="10.307842184004024"><ele>1.0</ele><time>2026-05-02T06:13:41.999Z</time></trkpt><trkpt lat="43.58408269879231" lon="10.308038581035376"><ele>0.6666666666666666</ele><time>2026-05-02T06:13:42.999Z</time></trkpt><trkpt lat="43.58419051809039" lon="10.308260806200558"><ele>0.3333333333333333</ele><time>2026-05-02T06:13:43.999Z</time></trkpt><trkpt lat="43.584292682898095" lon="10.308501885243825"><ele>0.0</ele><time>2026-05-02T06:13:44.999Z</time></trkpt><trkpt lat="43.584386386617176" lon="10.30876720604386"><ele>0.0</ele><time>2026-05-02T06:13:45.999Z</time></trkpt><trkpt lat="43.58445923700787" lon="10.309075251479301"><ele>0.0</ele><time>2026-05-02T06:13:46.999Z</time></trkpt><trkpt lat="43.58452451799808" lon="10.309356369898943"><ele>0.0</ele><time>2026-05-02T06:13:47.999Z</time></trkpt><trkpt lat="43.584577437809614" lon="10.309652386684522"><ele>0.0</ele><time>2026-05-02T06:13:48.999Z</time></trkpt><trkpt lat="43.58463015288535" lon="10.309950159663773"><ele>0.0</ele><time>2026-05-02T06:13:49.999Z</time></trkpt><trkpt lat="43.58468671726085" lon="10.310252927415025"><ele>0.0</ele><time>2026-05-02T06:13:50.999Z</time></trkpt><trkpt lat="43.584742371455775" lon="10.310556369110971"><ele>0.0</ele><time>2026-05-02T06:13:51.999Z</time></trkpt><trkpt lat="43.58480639101644" lon="10.310863385620307"><ele>0.0</ele><time>2026-05-02T06:13:52.999Z</time></trkpt><trkpt lat="43.58486306956725" lon="10.311177233513527"><ele>0.0</ele><time>2026-05-02T06:13:53.999Z</time></trkpt><trkpt lat="43.58492299861867" lon="10.311494766951983"><ele>0.0</ele><time>2026-05-02T06:13:54.999Z</time></trkpt><trkpt lat="43.58498723965112" lon="10.311812615692023"><ele>0.0</ele><time>2026-05-02T06:13:55.999Z</time></trkpt><trkpt lat="43.5850539538147" lon="10.312127355662787"><ele>0.0</ele><time>2026-05-02T06:13:56.999Z</time></trkpt><trkpt lat="43.58511795761355" lon="10.312438532611633"><ele>0.0</ele><time>2026-05-02T06:13:57.999Z</time></trkpt><trkpt lat="43.58518174594745" lon="10.312739246417108"><ele>0.0</ele><time>2026-05-02T06:13:58.999Z</time></trkpt><trkpt lat="43.58524168185246" lon="10.313039809821518"><ele>0.0</ele><time>2026-05-02T06:13:59.999Z</time></trkpt><trkpt lat="43.585295592708135" lon="10.313338764046716"><ele>0.0</ele><time>2026-05-02T06:14:00.999Z</time></trkpt><trkpt lat="43.58535109127869" lon="10.313636116656863"><ele>0.0</ele><time>2026-05-02T06:14:01.999Z</time></trkpt><trkpt lat="43.585407555556635" lon="10.313931410021981"><ele>0.0</ele><time>2026-05-02T06:14:02.999Z</time></trkpt><trkpt lat="43.58546358568318" lon="10.314228786689577"><ele>0.0</ele><time>2026-05-02T06:14:03.999Z</time></trkpt><trkpt lat="43.58552102479682" lon="10.314518503801278"><ele>0.0</ele><time>2026-05-02T06:14:04.999Z</time></trkpt><trkpt lat="43.58558017910041" lon="10.314807112093485"><ele>-0.3333333333333333</ele><time>2026-05-02T06:14:05.999Z</time></trkpt><trkpt lat="43.585654220516226" lon="10.315088957672051"><ele>-0.6666666666666666</ele><time>2026-05-02T06:14:06.999Z</time></trkpt><trkpt lat="43.58572887683994" lon="10.315378066731913"><ele>-1.0</ele><time>2026-05-02T06:14:07.999Z</time></trkpt><trkpt lat="43.58581411309021" lon="10.315660900330938"><ele>-1.0</ele><time>2026-05-02T06:14:08.999Z</time></trkpt><trkpt lat="43.585906444355906" lon="10.315941621633174"><ele>-1.0</ele><time>2026-05-02T06:14:09.999Z</time></trkpt><trkpt lat="43.58600615217971" lon="10.316220038646284"><ele>-1.0</ele><time>2026-05-02T06:14:10.999Z</time></trkpt><trkpt lat="43.58610827330481" lon="10.316499520459802"><ele>-1.0</ele><time>2026-05-02T06:14:11.999Z</time></trkpt><trkpt lat="43.58631867964119" lon="10.317069879636168"><ele>-0.5</ele><time>2026-05-02T06:14:13.999Z</time></trkpt><trkpt lat="43.58642427040186" lon="10.317365890607237"><ele>0.0</ele><time>2026-05-02T06:14:14.998Z</time></trkpt><trkpt lat="43.58653337108862" lon="10.317655212520823"><ele>0.0</ele><time>2026-05-02T06:14:15.998Z</time></trkpt><trkpt lat="43.586641259592426" lon="10.317949224799708"><ele>0.0</ele><time>2026-05-02T06:14:16.998Z</time></trkpt><trkpt lat="43.586745643583896" lon="10.318240206438892"><ele>0.0</ele><time>2026-05-02T06:14:17.998Z</time></trkpt><trkpt lat="43.586852139925085" lon="10.318527471454308"><ele>0.0</ele><time>2026-05-02T06:14:18.998Z</time></trkpt><trkpt lat="43.58695472260757" lon="10.318823204449247"><ele>0.5</ele><time>2026-05-02T06:14:19.998Z</time></trkpt><trkpt lat="43.58703432372751" lon="10.319114665866254"><ele>1.0</ele><time>2026-05-02T06:14:20.998Z</time></trkpt><trkpt lat="43.58712120671415" lon="10.319405580857284"><ele>1.0</ele><time>2026-05-02T06:14:21.998Z</time></trkpt><trkpt lat="43.587201385198114" lon="10.319696923954952"><ele>1.0</ele><time>2026-05-02T06:14:22.998Z</time></trkpt><trkpt lat="43.58727723375282" lon="10.319991287432691"><ele>1.0</ele><time>2026-05-02T06:14:23.998Z</time></trkpt><trkpt lat="43.58734808051628" lon="10.320288597049112"><ele>1.0</ele><time>2026-05-02T06:14:24.998Z</time></trkpt><trkpt lat="43.58742958651837" lon="10.320573581719968"><ele>1.0</ele><time>2026-05-02T06:14:25.998Z</time></trkpt><trkpt lat="43.587512504940406" lon="10.320876922367448"><ele>1.5</ele><time>2026-05-02T06:14:26.998Z</time></trkpt><trkpt lat="43.58760401240042" lon="10.321170805863932"><ele>2.0</ele><time>2026-05-02T06:14:27.998Z</time></trkpt><trkpt lat="43.587694684750566" lon="10.3214653158445"><ele>2.0</ele><time>2026-05-02T06:14:28.998Z</time></trkpt><trkpt lat="43.5877829309475" lon="10.321769083078904"><ele>2.0</ele><time>2026-05-02T06:14:29.998Z</time></trkpt><trkpt lat="43.58786876495432" lon="10.322071752705947"><ele>1.0</ele><time>2026-05-02T06:14:30.998Z</time></trkpt><trkpt lat="43.58795755611134" lon="10.322371982931697"><ele>0.0</ele><time>2026-05-02T06:14:31.998Z</time></trkpt><trkpt lat="43.58803795906461" lon="10.322678716347868"><ele>0.0</ele><time>2026-05-02T06:14:32.998Z</time></trkpt><trkpt lat="43.58812456422693" lon="10.322984293853015"><ele>0.0</ele><time>2026-05-02T06:14:33.998Z</time></trkpt><trkpt lat="43.588209229067886" lon="10.323289893688933"><ele>0.0</ele><time>2026-05-02T06:14:34.998Z</time></trkpt><trkpt lat="43.588297613884116" lon="10.323588438108864"><ele>0.0</ele><time>2026-05-02T06:14:35.998Z</time></trkpt><trkpt lat="43.58838359372924" lon="10.323889880712162"><ele>0.5</ele><time>2026-05-02T06:14:36.998Z</time></trkpt><trkpt lat="43.588467233036596" lon="10.324191559853976"><ele>1.0</ele><time>2026-05-02T06:14:37.998Z</time></trkpt><trkpt lat="43.58855444436686" lon="10.324487771485398"><ele>0.0</ele><time>2026-05-02T06:14:38.998Z</time></trkpt><trkpt lat="43.58863752001964" lon="10.324779781695055"><ele>-1.0</ele><time>2026-05-02T06:14:39.998Z</time></trkpt><trkpt lat="43.58872278220922" lon="10.325064081076835"><ele>-1.0</ele><time>2026-05-02T06:14:40.998Z</time></trkpt><trkpt lat="43.588805965210916" lon="10.32535375432265"><ele>-1.0</ele><time>2026-05-02T06:14:41.998Z</time></trkpt><trkpt lat="43.58888620800251" lon="10.325637391856946"><ele>-1.0</ele><time>2026-05-02T06:14:42.998Z</time></trkpt><trkpt lat="43.58896702869555" lon="10.325918748307977"><ele>-0.6666666666666666</ele><time>2026-05-02T06:14:43.998Z</time></trkpt><trkpt lat="43.5890499880573" lon="10.326197959663828"><ele>-0.3333333333333333</ele><time>2026-05-02T06:14:44.998Z</time></trkpt><trkpt lat="43.589136978388545" lon="10.326462775638696"><ele>0.0</ele><time>2026-05-02T06:14:45.998Z</time></trkpt><trkpt lat="43.589225226237176" lon="10.32672363886047"><ele>-0.3333333333333333</ele><time>2026-05-02T06:14:46.998Z</time></trkpt><trkpt lat="43.589309286111586" lon="10.326999440863657"><ele>-0.6666666666666666</ele><time>2026-05-02T06:14:47.998Z</time></trkpt><trkpt lat="43.58939281484454" lon="10.327273765657647"><ele>-1.0</ele><time>2026-05-02T06:14:48.998Z</time></trkpt><trkpt lat="43.58947604028868" lon="10.327553799537162"><ele>-1.6666666666666665</ele><time>2026-05-02T06:14:49.998Z</time></trkpt><trkpt lat="43.589556613380964" lon="10.3278368786091"><ele>-2.3333333333333335</ele><time>2026-05-02T06:14:50.998Z</time></trkpt><trkpt lat="43.589636213419524" lon="10.328132549801964"><ele>-3.0</ele><time>2026-05-02T06:14:51.998Z</time></trkpt><trkpt lat="43.58971585282432" lon="10.328426626042404"><ele>-3.0</ele><time>2026-05-02T06:14:52.998Z</time></trkpt><trkpt lat="43.58979697359747" lon="10.328719628130095"><ele>-3.0</ele><time>2026-05-02T06:14:53.998Z</time></trkpt><trkpt lat="43.58987756679242" lon="10.3290140759125"><ele>0.5</ele><time>2026-05-02T06:14:54.998Z</time></trkpt><trkpt lat="43.58996691706555" lon="10.32931158064328"><ele>4.0</ele><time>2026-05-02T06:14:55.998Z</time></trkpt><trkpt lat="43.59005786078165" lon="10.329610196657692"><ele>1.0</ele><time>2026-05-02T06:14:56.998Z</time></trkpt><trkpt lat="43.5901524658262" lon="10.329904124495112"><ele>-2.0</ele><time>2026-05-02T06:14:57.998Z</time></trkpt><trkpt lat="43.59024487287606" lon="10.33020626060402"><ele>-2.0</ele><time>2026-05-02T06:14:58.998Z</time></trkpt><trkpt lat="43.59033646269835" lon="10.330514123224757"><ele>-2.0</ele><time>2026-05-02T06:14:59.998Z</time></trkpt><trkpt lat="43.59042816942031" lon="10.330824439616086"><ele>-1.5</ele><time>2026-05-02T06:15:00.998Z</time></trkpt><trkpt lat="43.59051958152456" lon="10.33113524234572"><ele>-1.0</ele><time>2026-05-02T06:15:01.998Z</time></trkpt><trkpt lat="43.5906097236854" lon="10.331452578418721"><ele>-2.0</ele><time>2026-05-02T06:15:02.998Z</time></trkpt><trkpt lat="43.59070470211556" lon="10.331762778740654"><ele>-3.0</ele><time>2026-05-02T06:15:03.998Z</time></trkpt><trkpt lat="43.59079805642211" lon="10.332071317136544"><ele>-4.0</ele><time>2026-05-02T06:15:04.998Z</time></trkpt><trkpt lat="43.5908913276686" lon="10.33238571412226"><ele>-5.0</ele><time>2026-05-02T06:15:05.998Z</time></trkpt><trkpt lat="43.59098648355047" lon="10.332699539161078"><ele>-5.0</ele><time>2026-05-02T06:15:06.998Z</time></trkpt><trkpt lat="43.59108329579083" lon="10.333010363736843"><ele>-5.0</ele><time>2026-05-02T06:15:07.998Z</time></trkpt><trkpt lat="43.59118547663631" lon="10.333322463255826"><ele>-4.5</ele><time>2026-05-02T06:15:08.998Z</time></trkpt><trkpt lat="43.59128316972766" lon="10.333632913605161"><ele>-4.0</ele><time>2026-05-02T06:15:09.998Z</time></trkpt><trkpt lat="43.59137573479103" lon="10.333946582812018"><ele>-4.0</ele><time>2026-05-02T06:15:10.998Z</time></trkpt><trkpt lat="43.591466698255076" lon="10.33425575052959"><ele>-4.0</ele><time>2026-05-02T06:15:11.998Z</time></trkpt><trkpt lat="43.59155927689368" lon="10.334570743909591"><ele>-3.5</ele><time>2026-05-02T06:15:12.998Z</time></trkpt><trkpt lat="43.591654308754975" lon="10.334884455109027"><ele>-3.0</ele><time>2026-05-02T06:15:13.998Z</time></trkpt><trkpt lat="43.59175012501841" lon="10.335200984503013"><ele>-3.0</ele><time>2026-05-02T06:15:14.998Z</time></trkpt><trkpt lat="43.5918448609206" lon="10.33551636751103"><ele>-3.0</ele><time>2026-05-02T06:15:15.998Z</time></trkpt><trkpt lat="43.59193798150085" lon="10.335832914720397"><ele>-2.0</ele><time>2026-05-02T06:15:16.998Z</time></trkpt><trkpt lat="43.59203148851148" lon="10.33615564722768"><ele>-1.0</ele><time>2026-05-02T06:15:17.998Z</time></trkpt><trkpt lat="43.59212535412792" lon="10.33647202181828"><ele>0.0</ele><time>2026-05-02T06:15:18.998Z</time></trkpt><trkpt lat="43.592221445978936" lon="10.336786964756051"><ele>1.0</ele><time>2026-05-02T06:15:19.997Z</time></trkpt><trkpt lat="43.59231682355832" lon="10.337099959506673"><ele>0.5</ele><time>2026-05-02T06:15:20.997Z</time></trkpt><trkpt lat="43.59241018146052" lon="10.337407447431973"><ele>0.0</ele><time>2026-05-02T06:15:21.997Z</time></trkpt><trkpt lat="43.5924996461014" lon="10.33771396720974"><ele>0.0</ele><time>2026-05-02T06:15:22.997Z</time></trkpt><trkpt lat="43.59259027722691" lon="10.338022653693463"><ele>0.0</ele><time>2026-05-02T06:15:23.997Z</time></trkpt><trkpt lat="43.59268275295418" lon="10.338332956920345"><ele>0.5</ele><time>2026-05-02T06:15:24.997Z</time></trkpt><trkpt lat="43.59277449538865" lon="10.338646870723524"><ele>1.0</ele><time>2026-05-02T06:15:25.997Z</time></trkpt><trkpt lat="43.592866802289535" lon="10.33896409344559"><ele>3.5</ele><time>2026-05-02T06:15:26.997Z</time></trkpt><trkpt lat="43.59296341305052" lon="10.339286513573748"><ele>6.0</ele><time>2026-05-02T06:15:27.997Z</time></trkpt><trkpt lat="43.59306211272959" lon="10.33960963529559"><ele>5.0</ele><time>2026-05-02T06:15:28.997Z</time></trkpt><trkpt lat="43.59316236459877" lon="10.339937119438215"><ele>4.0</ele><time>2026-05-02T06:15:29.997Z</time></trkpt><trkpt lat="43.593257463873385" lon="10.340262764835321"><ele>4.5</ele><time>2026-05-02T06:15:30.997Z</time></trkpt><trkpt lat="43.59335152287381" lon="10.340575545167493"><ele>5.0</ele><time>2026-05-02T06:15:31.997Z</time></trkpt><trkpt lat="43.593433254585975" lon="10.340864583235954"><ele>5.0</ele><time>2026-05-02T06:15:32.997Z</time></trkpt><trkpt lat="43.59350743569824" lon="10.341122338987692"><ele>5.0</ele><time>2026-05-02T06:15:33.997Z</time></trkpt><trkpt lat="43.5935673429914" lon="10.34131569203248"><ele>5.0</ele><time>2026-05-02T06:15:34.997Z</time></trkpt><trkpt lat="43.593627044409935" lon="10.341510716058883"><ele>4.333333333333334</ele><time>2026-05-02T06:15:35.997Z</time></trkpt><trkpt lat="43.59368089288036" lon="10.34170176644148"><ele>3.666666666666667</ele><time>2026-05-02T06:15:36.997Z</time></trkpt><trkpt lat="43.593735267663014" lon="10.34189519505936"><ele>3.0</ele><time>2026-05-02T06:15:37.997Z</time></trkpt><trkpt lat="43.59379307354097" lon="10.342089252059088"><ele>3.0</ele><time>2026-05-02T06:15:38.997Z</time></trkpt><trkpt lat="43.593850559271445" lon="10.342281154839778"><ele>3.0</ele><time>2026-05-02T06:15:39.997Z</time></trkpt><trkpt lat="43.593908434301504" lon="10.34247612057139"><ele>3.0</ele><time>2026-05-02T06:15:40.997Z</time></trkpt><trkpt lat="43.59396812140592" lon="10.342676712842533"><ele>3.0</ele><time>2026-05-02T06:15:41.997Z</time></trkpt><trkpt lat="43.59402614315797" lon="10.342872425246632"><ele>3.0</ele><time>2026-05-02T06:15:42.997Z</time></trkpt><trkpt lat="43.594082720202344" lon="10.343069612119601"><ele>3.0</ele><time>2026-05-02T06:15:43.997Z</time></trkpt><trkpt lat="43.594141019813165" lon="10.343270779875564"><ele>2.6666666666666665</ele><time>2026-05-02T06:15:44.997Z</time></trkpt><trkpt lat="43.5942034765989" lon="10.343477209877504"><ele>2.333333333333333</ele><time>2026-05-02T06:15:45.997Z</time></trkpt><trkpt lat="43.594271335336906" lon="10.343693526862685"><ele>2.0</ele><time>2026-05-02T06:15:46.997Z</time></trkpt><trkpt lat="43.59434077680742" lon="10.343915935941265"><ele>2.0</ele><time>2026-05-02T06:15:47.997Z</time></trkpt><trkpt lat="43.59440569860125" lon="10.344146719742783"><ele>2.0</ele><time>2026-05-02T06:15:48.997Z</time></trkpt><trkpt lat="43.59447766040393" lon="10.344382356559079"><ele>2.0</ele><time>2026-05-02T06:15:49.997Z</time></trkpt><trkpt lat="43.59454990424017" lon="10.344626085633546"><ele>2.333333333333333</ele><time>2026-05-02T06:15:50.997Z</time></trkpt><trkpt lat="43.59462474707754" lon="10.344874584663945"><ele>2.6666666666666665</ele><time>2026-05-02T06:15:51.997Z</time></trkpt><trkpt lat="43.594703933925985" lon="10.345126020784104"><ele>3.0</ele><time>2026-05-02T06:15:52.997Z</time></trkpt><trkpt lat="43.594784960538185" lon="10.345383238429926"><ele>3.0</ele><time>2026-05-02T06:15:53.997Z</time></trkpt><trkpt lat="43.59486618030839" lon="10.345647826893865"><ele>3.0</ele><time>2026-05-02T06:15:54.997Z</time></trkpt><trkpt lat="43.59494515205383" lon="10.345913935128898"><ele>3.0</ele><time>2026-05-02T06:15:55.997Z</time></trkpt><trkpt lat="43.59501922005238" lon="10.346189283524746"><ele>2.0</ele><time>2026-05-02T06:15:56.997Z</time></trkpt><trkpt lat="43.59509913791415" lon="10.346464831894327"><ele>1.0</ele><time>2026-05-02T06:15:57.997Z</time></trkpt><trkpt lat="43.59517893177835" lon="10.346741414907408"><ele>0.0</ele><time>2026-05-02T06:15:58.997Z</time></trkpt><trkpt lat="43.595262080089825" lon="10.347026680502431"><ele>2.5</ele><time>2026-05-02T06:15:59.997Z</time></trkpt><trkpt lat="43.59534971326513" lon="10.3473096600859"><ele>5.0</ele><time>2026-05-02T06:16:00.997Z</time></trkpt><trkpt lat="43.59543797931801" lon="10.347601859374834"><ele>5.0</ele><time>2026-05-02T06:16:01.997Z</time></trkpt><trkpt lat="43.59553817239629" lon="10.347889953538086"><ele>5.0</ele><time>2026-05-02T06:16:02.997Z</time></trkpt><trkpt lat="43.595628122027975" lon="10.348183493696933"><ele>3.0</ele><time>2026-05-02T06:16:03.997Z</time></trkpt><trkpt lat="43.59571432453638" lon="10.348479058518661"><ele>1.0</ele><time>2026-05-02T06:16:04.997Z</time></trkpt><trkpt lat="43.59580013581192" lon="10.348774417786231"><ele>1.0</ele><time>2026-05-02T06:16:05.997Z</time></trkpt><trkpt lat="43.59588158529822" lon="10.349076176613824"><ele>1.0</ele><time>2026-05-02T06:16:06.997Z</time></trkpt><trkpt lat="43.595961489504084" lon="10.34938048502565"><ele>1.0</ele><time>2026-05-02T06:16:07.997Z</time></trkpt><trkpt lat="43.59603700516839" lon="10.349694682091734"><ele>1.0</ele><time>2026-05-02T06:16:08.997Z</time></trkpt><trkpt lat="43.59610590366347" lon="10.350010694207683"><ele>3.0</ele><time>2026-05-02T06:16:09.997Z</time></trkpt><trkpt lat="43.596165234903694" lon="10.350335941862108"><ele>5.0</ele><time>2026-05-02T06:16:10.997Z</time></trkpt><trkpt lat="43.5962077100582" lon="10.350652433816773"><ele>6.5</ele><time>2026-05-02T06:16:11.997Z</time></trkpt><trkpt lat="43.59626110250614" lon="10.350970449399032"><ele>8.0</ele><time>2026-05-02T06:16:12.997Z</time></trkpt><trkpt lat="43.59632770284578" lon="10.351289861291697"><ele>6.0</ele><time>2026-05-02T06:16:13.997Z</time></trkpt><trkpt lat="43.59641919959724" lon="10.351628543520599"><ele>4.0</ele><time>2026-05-02T06:16:14.997Z</time></trkpt><trkpt lat="43.596466610751364" lon="10.35195383610264"><ele>2.5</ele><time>2026-05-02T06:16:15.997Z</time></trkpt><trkpt lat="43.596515487606105" lon="10.352276887406363"><ele>1.0</ele><time>2026-05-02T06:16:16.997Z</time></trkpt><trkpt lat="43.59656268398431" lon="10.352597583348475"><ele>1.0</ele><time>2026-05-02T06:16:17.997Z</time></trkpt><trkpt lat="43.596610766587425" lon="10.352918847488446"><ele>1.0</ele><time>2026-05-02T06:16:18.997Z</time></trkpt><trkpt lat="43.596663626770585" lon="10.353245066528727"><ele>0.5</ele><time>2026-05-02T06:16:19.997Z</time></trkpt><trkpt lat="43.596721764185894" lon="10.35357207481385"><ele>0.0</ele><time>2026-05-02T06:16:20.997Z</time></trkpt><trkpt lat="43.59678034035832" lon="10.353906948587232"><ele>1.0</ele><time>2026-05-02T06:16:21.997Z</time></trkpt><trkpt lat="43.59684026959115" lon="10.354235942421269"><ele>2.0</ele><time>2026-05-02T06:16:22.997Z</time></trkpt><trkpt lat="43.59690896381633" lon="10.354554612295386"><ele>1.5</ele><time>2026-05-02T06:16:23.997Z</time></trkpt><trkpt lat="43.59697098674439" lon="10.35488450255898"><ele>1.0</ele><time>2026-05-02T06:16:24.997Z</time></trkpt><trkpt lat="43.59703523200837" lon="10.35521499928451"><ele>0.5</ele><time>2026-05-02T06:16:25.996Z</time></trkpt><trkpt lat="43.59708690102122" lon="10.355541993030847"><ele>0.0</ele><time>2026-05-02T06:16:26.996Z</time></trkpt><trkpt lat="43.59713836434162" lon="10.355858867230623"><ele>0.0</ele><time>2026-05-02T06:16:27.996Z</time></trkpt><trkpt lat="43.59719326484782" lon="10.356178412541455"><ele>0.0</ele><time>2026-05-02T06:16:28.996Z</time></trkpt><trkpt lat="43.59724504825492" lon="10.3565027654624"><ele>1.5</ele><time>2026-05-02T06:16:29.996Z</time></trkpt><trkpt lat="43.5972956159531" lon="10.356820697918554"><ele>3.0</ele><time>2026-05-02T06:16:30.996Z</time></trkpt><trkpt lat="43.5973460744894" lon="10.357145437815312"><ele>3.0</ele><time>2026-05-02T06:16:31.996Z</time></trkpt><trkpt lat="43.59739916387664" lon="10.357469021462874"><ele>3.0</ele><time>2026-05-02T06:16:32.996Z</time></trkpt><trkpt lat="43.59745505768866" lon="10.357792506205078"><ele>2.0</ele><time>2026-05-02T06:16:33.996Z</time></trkpt><trkpt lat="43.59751167834756" lon="10.358118182964132"><ele>1.0</ele><time>2026-05-02T06:16:34.996Z</time></trkpt><trkpt lat="43.597566419207865" lon="10.358441035526512"><ele>1.0</ele><time>2026-05-02T06:16:35.996Z</time></trkpt><trkpt lat="43.597622203301555" lon="10.35877114761661"><ele>1.0</ele><time>2026-05-02T06:16:36.996Z</time></trkpt><trkpt lat="43.5976861090869" lon="10.359099888910249"><ele>0.5</ele><time>2026-05-02T06:16:37.996Z</time></trkpt><trkpt lat="43.597741645368416" lon="10.359431035013431"><ele>0.0</ele><time>2026-05-02T06:16:38.996Z</time></trkpt><trkpt lat="43.597789389548566" lon="10.359761401468907"><ele>0.0</ele><time>2026-05-02T06:16:39.996Z</time></trkpt><trkpt lat="43.59783865727967" lon="10.360086226977582"><ele>0.0</ele><time>2026-05-02T06:16:40.996Z</time></trkpt><trkpt lat="43.59789409499578" lon="10.360411754381403"><ele>0.0</ele><time>2026-05-02T06:16:41.996Z</time></trkpt><trkpt lat="43.59795415769344" lon="10.360752072353511"><ele>0.0</ele><time>2026-05-02T06:16:42.996Z</time></trkpt><trkpt lat="43.598012630205766" lon="10.361091816491543"><ele>1.5</ele><time>2026-05-02T06:16:43.996Z</time></trkpt><trkpt lat="43.59807091193085" lon="10.361429785561802"><ele>3.0</ele><time>2026-05-02T06:16:44.996Z</time></trkpt><trkpt lat="43.59812947159941" lon="10.361764879778779"><ele>3.0</ele><time>2026-05-02T06:16:45.996Z</time></trkpt><trkpt lat="43.598186225028186" lon="10.36209331515504"><ele>3.0</ele><time>2026-05-02T06:16:46.996Z</time></trkpt><trkpt lat="43.598239430374846" lon="10.36243217428862"><ele>2.5</ele><time>2026-05-02T06:16:47.996Z</time></trkpt><trkpt lat="43.5982948804823" lon="10.362764496469477"><ele>2.0</ele><time>2026-05-02T06:16:48.996Z</time></trkpt><trkpt lat="43.5983477608475" lon="10.363099527861044"><ele>3.5</ele><time>2026-05-02T06:16:49.996Z</time></trkpt><trkpt lat="43.598401829033634" lon="10.363436205389302"><ele>5.0</ele><time>2026-05-02T06:16:50.996Z</time></trkpt><trkpt lat="43.59845897179287" lon="10.363762734173148"><ele>3.0</ele><time>2026-05-02T06:16:51.996Z</time></trkpt><trkpt lat="43.598515475539735" lon="10.36409947064381"><ele>1.0</ele><time>2026-05-02T06:16:52.996Z</time></trkpt><trkpt lat="43.59857023593923" lon="10.364430820839798"><ele>0.0</ele><time>2026-05-02T06:16:53.996Z</time></trkpt><trkpt lat="43.59862358049174" lon="10.364758233234188"><ele>-1.0</ele><time>2026-05-02T06:16:54.996Z</time></trkpt><trkpt lat="43.598682811971294" lon="10.365087690358214"><ele>-1.0</ele><time>2026-05-02T06:16:55.996Z</time></trkpt><trkpt lat="43.598742534187" lon="10.36542040599248"><ele>-1.0</ele><time>2026-05-02T06:16:56.996Z</time></trkpt><trkpt lat="43.59880414611344" lon="10.365750051918926"><ele>0.0</ele><time>2026-05-02T06:16:57.996Z</time></trkpt><trkpt lat="43.59886751399569" lon="10.366076386519175"><ele>1.0</ele><time>2026-05-02T06:16:58.996Z</time></trkpt><trkpt lat="43.5989391572377" lon="10.36639881907267"><ele>2.5</ele><time>2026-05-02T06:16:59.996Z</time></trkpt><trkpt lat="43.59901182728292" lon="10.366724867841224"><ele>4.0</ele><time>2026-05-02T06:17:00.996Z</time></trkpt><trkpt lat="43.599089077525036" lon="10.367052602557168"><ele>2.0</ele><time>2026-05-02T06:17:01.996Z</time></trkpt><trkpt lat="43.59918104584816" lon="10.367362848050025"><ele>0.0</ele><time>2026-05-02T06:17:02.996Z</time></trkpt><trkpt lat="43.59926898335034" lon="10.367688098058998"><ele>0.0</ele><time>2026-05-02T06:17:03.996Z</time></trkpt><trkpt lat="43.59937405156625" lon="10.368001720382384"><ele>0.0</ele><time>2026-05-02T06:17:04.996Z</time></trkpt><trkpt lat="43.59947593190233" lon="10.368310771517391"><ele>0.5</ele><time>2026-05-02T06:17:05.996Z</time></trkpt><trkpt lat="43.59959477693024" lon="10.368624414359502"><ele>1.0</ele><time>2026-05-02T06:17:06.996Z</time></trkpt><trkpt lat="43.59971634557631" lon="10.368936201958832"><ele>1.0</ele><time>2026-05-02T06:17:07.996Z</time></trkpt><trkpt lat="43.599849208919586" lon="10.369239956348839"><ele>1.0</ele><time>2026-05-02T06:17:08.996Z</time></trkpt><trkpt lat="43.59998340449062" lon="10.369538254040933"><ele>0.5</ele><time>2026-05-02T06:17:09.996Z</time></trkpt><trkpt lat="43.600116783930666" lon="10.369842061977774"><ele>0.0</ele><time>2026-05-02T06:17:10.996Z</time></trkpt><trkpt lat="43.6002580004333" lon="10.370132432811658"><ele>-2.0</ele><time>2026-05-02T06:17:11.996Z</time></trkpt><trkpt lat="43.60040033902121" lon="10.3704180316562"><ele>-4.0</ele><time>2026-05-02T06:17:12.996Z</time></trkpt><trkpt lat="43.600539418770644" lon="10.370705287489711"><ele>-5.0</ele><time>2026-05-02T06:17:13.996Z</time></trkpt><trkpt lat="43.60067812550484" lon="10.370989293011542"><ele>-6.0</ele><time>2026-05-02T06:17:14.996Z</time></trkpt><trkpt lat="43.600821648380915" lon="10.371283454526528"><ele>-4.0</ele><time>2026-05-02T06:17:15.996Z</time></trkpt><trkpt lat="43.600965114307286" lon="10.37157012829622"><ele>-2.0</ele><time>2026-05-02T06:17:16.996Z</time></trkpt><trkpt lat="43.601108745828384" lon="10.371863884003368"><ele>-2.0</ele><time>2026-05-02T06:17:17.996Z</time></trkpt><trkpt lat="43.60125530201186" lon="10.37216029606649"><ele>-2.0</ele><time>2026-05-02T06:17:18.996Z</time></trkpt><trkpt lat="43.601402853836866" lon="10.372450187530276"><ele>-0.5</ele><time>2026-05-02T06:17:19.996Z</time></trkpt><trkpt lat="43.60154547724287" lon="10.372751605824082"><ele>1.0</ele><time>2026-05-02T06:17:20.996Z</time></trkpt><trkpt lat="43.60168880536009" lon="10.373043978649507"><ele>3.0</ele><time>2026-05-02T06:17:21.996Z</time></trkpt><trkpt lat="43.60183593252261" lon="10.373348315646739"><ele>5.0</ele><time>2026-05-02T06:17:22.996Z</time></trkpt><trkpt lat="43.601980211676754" lon="10.373653675893145"><ele>2.0</ele><time>2026-05-02T06:17:23.996Z</time></trkpt><trkpt lat="43.60213086082138" lon="10.373961562122748"><ele>-1.0</ele><time>2026-05-02T06:17:24.996Z</time></trkpt><trkpt lat="43.60228139235464" lon="10.37426111134498"><ele>-1.0</ele><time>2026-05-02T06:17:25.996Z</time></trkpt><trkpt lat="43.60242862450384" lon="10.374565483333162"><ele>-1.0</ele><time>2026-05-02T06:17:26.996Z</time></trkpt><trkpt lat="43.6025742240083" lon="10.37486555520025"><ele>-1.0</ele><time>2026-05-02T06:17:27.996Z</time></trkpt><trkpt lat="43.60271580141101" lon="10.375165237651672"><ele>-1.0</ele><time>2026-05-02T06:17:28.996Z</time></trkpt><trkpt lat="43.60285999463591" lon="10.375461400882969"><ele>-2.0</ele><time>2026-05-02T06:17:29.996Z</time></trkpt><trkpt lat="43.60299888579678" lon="10.375760458686237"><ele>-3.0</ele><time>2026-05-02T06:17:30.996Z</time></trkpt><trkpt lat="43.6031353095908" lon="10.37606090639841"><ele>-1.5</ele><time>2026-05-02T06:17:31.996Z</time></trkpt><trkpt lat="43.60326641940701" lon="10.376356234970764"><ele>0.0</ele><time>2026-05-02T06:17:32.995Z</time></trkpt><trkpt lat="43.60339394596276" lon="10.376667273866255"><ele>0.0</ele><time>2026-05-02T06:17:33.995Z</time></trkpt><trkpt lat="43.60351329780524" lon="10.376978256831297"><ele>0.0</ele><time>2026-05-02T06:17:34.995Z</time></trkpt><trkpt lat="43.60362767769001" lon="10.377288558741897"><ele>0.0</ele><time>2026-05-02T06:17:35.995Z</time></trkpt><trkpt lat="43.603733015520866" lon="10.377612614772605"><ele>0.0</ele><time>2026-05-02T06:17:36.995Z</time></trkpt><trkpt lat="43.60383589369545" lon="10.377941501755267"><ele>-1.0</ele><time>2026-05-02T06:17:37.995Z</time></trkpt><trkpt lat="43.60392928243826" lon="10.378265904087447"><ele>-2.0</ele><time>2026-05-02T06:17:38.995Z</time></trkpt><trkpt lat="43.60401684143507" lon="10.378596824391066"><ele>-2.5</ele><time>2026-05-02T06:17:39.995Z</time></trkpt><trkpt lat="43.60409767253911" lon="10.378925887959017"><ele>-3.0</ele><time>2026-05-02T06:17:40.995Z</time></trkpt><trkpt lat="43.60417272815769" lon="10.379259807042255"><ele>-3.0</ele><time>2026-05-02T06:17:41.995Z</time></trkpt><trkpt lat="43.60424889888824" lon="10.379595334289252"><ele>-3.0</ele><time>2026-05-02T06:17:42.995Z</time></trkpt><trkpt lat="43.60432399471578" lon="10.379934396959097"><ele>-3.0</ele><time>2026-05-02T06:17:43.995Z</time></trkpt><trkpt lat="43.60440140766522" lon="10.380273244999586"><ele>-3.0</ele><time>2026-05-02T06:17:44.995Z</time></trkpt><trkpt lat="43.60447427999736" lon="10.380610660623258"><ele>-2.0</ele><time>2026-05-02T06:17:45.995Z</time></trkpt><trkpt lat="43.60455077159223" lon="10.380949971517493"><ele>-1.0</ele><time>2026-05-02T06:17:46.995Z</time></trkpt><trkpt lat="43.60462192405057" lon="10.381291789947937"><ele>-1.0</ele><time>2026-05-02T06:17:47.995Z</time></trkpt><trkpt lat="43.60469088567789" lon="10.381637587373579"><ele>-1.0</ele><time>2026-05-02T06:17:48.995Z</time></trkpt><trkpt lat="43.604761166938246" lon="10.38198405574419"><ele>-1.0</ele><time>2026-05-02T06:17:49.995Z</time></trkpt><trkpt lat="43.60483221722001" lon="10.382323694568381"><ele>-1.0</ele><time>2026-05-02T06:17:50.995Z</time></trkpt><trkpt lat="43.60490559268838" lon="10.382664485297356"><ele>-1.0</ele><time>2026-05-02T06:17:51.995Z</time></trkpt><trkpt lat="43.60498074805709" lon="10.383006380897681"><ele>-1.0</ele><time>2026-05-02T06:17:52.995Z</time></trkpt><trkpt lat="43.60505633637831" lon="10.383337498573153"><ele>-0.5</ele><time>2026-05-02T06:17:53.995Z</time></trkpt><trkpt lat="43.60513139489815" lon="10.383676725299615"><ele>0.0</ele><time>2026-05-02T06:17:54.995Z</time></trkpt><trkpt lat="43.60520275081742" lon="10.38400924026747"><ele>0.0</ele><time>2026-05-02T06:17:55.995Z</time></trkpt><trkpt lat="43.60527948165445" lon="10.384341307238154"><ele>0.0</ele><time>2026-05-02T06:17:56.995Z</time></trkpt><trkpt lat="43.605351918386674" lon="10.384686882552026"><ele>0.0</ele><time>2026-05-02T06:17:57.995Z</time></trkpt><trkpt lat="43.60542488179525" lon="10.385025163469262"><ele>0.0</ele><time>2026-05-02T06:17:58.995Z</time></trkpt><trkpt lat="43.60550321847308" lon="10.38536518084428"><ele>-1.0</ele><time>2026-05-02T06:17:59.995Z</time></trkpt><trkpt lat="43.605582490706986" lon="10.385699773540118"><ele>-2.0</ele><time>2026-05-02T06:18:00.995Z</time></trkpt><trkpt lat="43.60566036931718" lon="10.386037468761938"><ele>-2.0</ele><time>2026-05-02T06:18:01.995Z</time></trkpt><trkpt lat="43.60573938018378" lon="10.386377401024893"><ele>-2.0</ele><time>2026-05-02T06:18:02.995Z</time></trkpt><trkpt lat="43.60581443865138" lon="10.386719907651495"><ele>-2.0</ele><time>2026-05-02T06:18:03.995Z</time></trkpt><trkpt lat="43.605893945916165" lon="10.387054892998846"><ele>-2.0</ele><time>2026-05-02T06:18:04.995Z</time></trkpt><trkpt lat="43.60596887637375" lon="10.387393826224038"><ele>-1.5</ele><time>2026-05-02T06:18:05.995Z</time></trkpt><trkpt lat="43.606041138132845" lon="10.387730483736382"><ele>-1.0</ele><time>2026-05-02T06:18:06.995Z</time></trkpt><trkpt lat="43.606118035447295" lon="10.388067063778617"><ele>0.5</ele><time>2026-05-02T06:18:07.995Z</time></trkpt><trkpt lat="43.606192212684334" lon="10.388402276330583"><ele>2.0</ele><time>2026-05-02T06:18:08.995Z</time></trkpt><trkpt lat="43.60626983929302" lon="10.388738020534968"><ele>0.5</ele><time>2026-05-02T06:18:09.995Z</time></trkpt><trkpt lat="43.606343526406164" lon="10.389068897111327"><ele>-1.0</ele><time>2026-05-02T06:18:10.995Z</time></trkpt><trkpt lat="43.60641932290835" lon="10.389401200088676"><ele>-1.0</ele><time>2026-05-02T06:18:11.995Z</time></trkpt><trkpt lat="43.6064908273915" lon="10.389732116033192"><ele>-1.0</ele><time>2026-05-02T06:18:12.995Z</time></trkpt><trkpt lat="43.60656674896617" lon="10.390064320938952"><ele>-1.0</ele><time>2026-05-02T06:18:13.995Z</time></trkpt><trkpt lat="43.60664059737158" lon="10.390394402228127"><ele>-1.0</ele><time>2026-05-02T06:18:14.995Z</time></trkpt><trkpt lat="43.606714633218594" lon="10.390727502541683"><ele>-1.0</ele><time>2026-05-02T06:18:15.995Z</time></trkpt><trkpt lat="43.60678998760909" lon="10.391052073663726"><ele>-1.0</ele><time>2026-05-02T06:18:16.995Z</time></trkpt><trkpt lat="43.60686477219205" lon="10.391382687203894"><ele>-1.0</ele><time>2026-05-02T06:18:17.995Z</time></trkpt><trkpt lat="43.60693981683837" lon="10.39170886546152"><ele>-1.0</ele><time>2026-05-02T06:18:18.995Z</time></trkpt><trkpt lat="43.607016186661426" lon="10.39204075157281"><ele>-1.0</ele><time>2026-05-02T06:18:19.995Z</time></trkpt><trkpt lat="43.607091141946576" lon="10.392371188277119"><ele>-1.0</ele><time>2026-05-02T06:18:20.995Z</time></trkpt><trkpt lat="43.60716414342922" lon="10.392702339478971"><ele>-1.5</ele><time>2026-05-02T06:18:21.995Z</time></trkpt><trkpt lat="43.60723853364302" lon="10.393032712318842"><ele>-2.0</ele><time>2026-05-02T06:18:22.995Z</time></trkpt><trkpt lat="43.60730890807302" lon="10.3933591448222"><ele>-2.0</ele><time>2026-05-02T06:18:23.995Z</time></trkpt><trkpt lat="43.607379963438454" lon="10.393687904493866"><ele>-2.0</ele><time>2026-05-02T06:18:24.995Z</time></trkpt><trkpt lat="43.60745341629555" lon="10.394012485868146"><ele>-2.0</ele><time>2026-05-02T06:18:25.995Z</time></trkpt><trkpt lat="43.60752604918322" lon="10.394345103542285"><ele>-2.0</ele><time>2026-05-02T06:18:26.995Z</time></trkpt><trkpt lat="43.60759721999845" lon="10.394674528767096"><ele>-2.0</ele><time>2026-05-02T06:18:27.995Z</time></trkpt><trkpt lat="43.607669402029394" lon="10.395009250955225"><ele>-2.0</ele><time>2026-05-02T06:18:28.995Z</time></trkpt><trkpt lat="43.6077418175261" lon="10.395342642403618"><ele>-1.5</ele><time>2026-05-02T06:18:29.995Z</time></trkpt><trkpt lat="43.60781122683366" lon="10.395681015691403"><ele>-1.0</ele><time>2026-05-02T06:18:30.995Z</time></trkpt><trkpt lat="43.60788990147276" lon="10.396018567360771"><ele>-1.5</ele><time>2026-05-02T06:18:31.995Z</time></trkpt><trkpt lat="43.607964177091446" lon="10.39635319488272"><ele>-2.0</ele><time>2026-05-02T06:18:32.995Z</time></trkpt><trkpt lat="43.608037887447026" lon="10.396686728387637"><ele>-2.0</ele><time>2026-05-02T06:18:33.995Z</time></trkpt><trkpt lat="43.6081116482176" lon="10.397023879996308"><ele>-2.0</ele><time>2026-05-02T06:18:34.995Z</time></trkpt><trkpt lat="43.608182577120424" lon="10.39735750034628"><ele>-1.5</ele><time>2026-05-02T06:18:35.995Z</time></trkpt><trkpt lat="43.60825337534405" lon="10.397691881944146"><ele>-1.0</ele><time>2026-05-02T06:18:36.995Z</time></trkpt><trkpt lat="43.608324558628475" lon="10.398026262558554"><ele>-1.0</ele><time>2026-05-02T06:18:37.995Z</time></trkpt><trkpt lat="43.608395877374754" lon="10.398356580158795"><ele>-1.0</ele><time>2026-05-02T06:18:38.994Z</time></trkpt><trkpt lat="43.6084621444317" lon="10.398687796048318"><ele>-0.5</ele><time>2026-05-02T06:18:39.994Z</time></trkpt><trkpt lat="43.60853674247757" lon="10.399018870321752"><ele>0.0</ele><time>2026-05-02T06:18:40.994Z</time></trkpt><trkpt lat="43.60860883997786" lon="10.399341786726275"><ele>0.5</ele><time>2026-05-02T06:18:41.994Z</time></trkpt><trkpt lat="43.608680808188595" lon="10.39966834288949"><ele>1.0</ele><time>2026-05-02T06:18:42.994Z</time></trkpt><trkpt lat="43.6087544267479" lon="10.399997008430958"><ele>1.0</ele><time>2026-05-02T06:18:43.994Z</time></trkpt><trkpt lat="43.60882665599863" lon="10.400321885365361"><ele>1.0</ele><time>2026-05-02T06:18:44.994Z</time></trkpt><trkpt lat="43.608898715770394" lon="10.400649443996508"><ele>0.5</ele><time>2026-05-02T06:18:45.994Z</time></trkpt><trkpt lat="43.608966402604565" lon="10.40096598511887"><ele>0.0</ele><time>2026-05-02T06:18:46.994Z</time></trkpt><trkpt lat="43.60903349895282" lon="10.40129114672242"><ele>-0.5</ele><time>2026-05-02T06:18:47.994Z</time></trkpt><trkpt lat="43.60909756047769" lon="10.401616936573653"><ele>-1.0</ele><time>2026-05-02T06:18:48.994Z</time></trkpt><trkpt lat="43.60915652345716" lon="10.401944595059327"><ele>-1.0</ele><time>2026-05-02T06:18:49.994Z</time></trkpt><trkpt lat="43.60921163188013" lon="10.40227211476955"><ele>-1.0</ele><time>2026-05-02T06:18:50.994Z</time></trkpt><trkpt lat="43.60926625209889" lon="10.402598119054307"><ele>-1.0</ele><time>2026-05-02T06:18:51.994Z</time></trkpt><trkpt lat="43.60931666153064" lon="10.402929578450042"><ele>-1.0</ele><time>2026-05-02T06:18:52.994Z</time></trkpt><trkpt lat="43.60935808244703" lon="10.403260023550777"><ele>-1.0</ele><time>2026-05-02T06:18:53.994Z</time></trkpt><trkpt lat="43.60939291736642" lon="10.40359194982721"><ele>-1.0</ele><time>2026-05-02T06:18:54.994Z</time></trkpt><trkpt lat="43.609428459796014" lon="10.403925371517326"><ele>-1.5</ele><time>2026-05-02T06:18:55.994Z</time></trkpt><trkpt lat="43.609453907599836" lon="10.404259271255745"><ele>-2.0</ele><time>2026-05-02T06:18:56.994Z</time></trkpt><trkpt lat="43.60948082204911" lon="10.404598833813706"><ele>-1.5</ele><time>2026-05-02T06:18:57.994Z</time></trkpt><trkpt lat="43.60950658595982" lon="10.404945896489714"><ele>-1.0</ele><time>2026-05-02T06:18:58.994Z</time></trkpt><trkpt lat="43.6095235362652" lon="10.405291122882497"><ele>-1.0</ele><time>2026-05-02T06:18:59.994Z</time></trkpt><trkpt lat="43.60953779453079" lon="10.405631889657403"><ele>-1.0</ele><time>2026-05-02T06:19:00.994Z</time></trkpt><trkpt lat="43.609548288668876" lon="10.405973493189359"><ele>-1.0</ele><time>2026-05-02T06:19:01.994Z</time></trkpt><trkpt lat="43.60955862398955" lon="10.406316356713583"><ele>-1.0</ele><time>2026-05-02T06:19:02.994Z</time></trkpt><trkpt lat="43.609566164900066" lon="10.406655681309262"><ele>-1.0</ele><time>2026-05-02T06:19:03.994Z</time></trkpt><trkpt lat="43.609571825027516" lon="10.406987502483775"><ele>-1.0</ele><time>2026-05-02T06:19:04.994Z</time></trkpt><trkpt lat="43.60958522273427" lon="10.407320593446576"><ele>-1.0</ele><time>2026-05-02T06:19:05.994Z</time></trkpt><trkpt lat="43.609596067760585" lon="10.407655678981289"><ele>-1.0</ele><time>2026-05-02T06:19:06.994Z</time></trkpt><trkpt lat="43.609604325332185" lon="10.40799314189641"><ele>-0.5</ele><time>2026-05-02T06:19:07.994Z</time></trkpt><trkpt lat="43.609613220490566" lon="10.408329914169903"><ele>0.0</ele><time>2026-05-02T06:19:08.994Z</time></trkpt><trkpt lat="43.60962293097235" lon="10.408673357165442"><ele>-0.5</ele><time>2026-05-02T06:19:09.994Z</time></trkpt><trkpt lat="43.609633135118116" lon="10.409019582995791"><ele>-1.0</ele><time>2026-05-02T06:19:10.994Z</time></trkpt><trkpt lat="43.60964129206757" lon="10.409362411970905"><ele>-1.5</ele><time>2026-05-02T06:19:11.994Z</time></trkpt><trkpt lat="43.60964947056733" lon="10.409707838534409"><ele>-2.0</ele><time>2026-05-02T06:19:12.994Z</time></trkpt><trkpt lat="43.60965865560638" lon="10.410058035510781"><ele>-2.0</ele><time>2026-05-02T06:19:13.994Z</time></trkpt><trkpt lat="43.60967002937532" lon="10.4104025561565"><ele>-2.0</ele><time>2026-05-02T06:19:14.994Z</time></trkpt><trkpt lat="43.60967980601567" lon="10.410753005277478"><ele>-0.5</ele><time>2026-05-02T06:19:15.994Z</time></trkpt><trkpt lat="43.609689561498385" lon="10.411101855788502"><ele>1.0</ele><time>2026-05-02T06:19:16.994Z</time></trkpt><trkpt lat="43.60970140644645" lon="10.41145547879276"><ele>1.0</ele><time>2026-05-02T06:19:17.994Z</time></trkpt><trkpt lat="43.609713735005954" lon="10.41180927667986"><ele>1.0</ele><time>2026-05-02T06:19:18.994Z</time></trkpt><trkpt lat="43.60972251997639" lon="10.412152047546044"><ele>0.5</ele><time>2026-05-02T06:19:19.994Z</time></trkpt><trkpt lat="43.609731693769184" lon="10.412486924727054"><ele>0.0</ele><time>2026-05-02T06:19:20.994Z</time></trkpt><trkpt lat="43.60974166582246" lon="10.412823132544235"><ele>-1.0</ele><time>2026-05-02T06:19:21.994Z</time></trkpt><trkpt lat="43.60975109844903" lon="10.413159411139098"><ele>-2.0</ele><time>2026-05-02T06:19:22.994Z</time></trkpt><trkpt lat="43.609763587336225" lon="10.413490274040173"><ele>-1.5</ele><time>2026-05-02T06:19:23.994Z</time></trkpt><trkpt lat="43.609776758421084" lon="10.413824805260212"><ele>-1.0</ele><time>2026-05-02T06:19:24.994Z</time></trkpt><trkpt lat="43.609787450751604" lon="10.414161734711687"><ele>-1.0</ele><time>2026-05-02T06:19:25.994Z</time></trkpt><trkpt lat="43.609800968000194" lon="10.41450090247492"><ele>-1.0</ele><time>2026-05-02T06:19:26.994Z</time></trkpt><trkpt lat="43.609818744669134" lon="10.414844331655239"><ele>-1.0</ele><time>2026-05-02T06:19:27.994Z</time></trkpt><trkpt lat="43.609840150872095" lon="10.415184747619893"><ele>-1.0</ele><time>2026-05-02T06:19:28.994Z</time></trkpt><trkpt lat="43.6098700576742" lon="10.415523427510172"><ele>-2.0</ele><time>2026-05-02T06:19:29.994Z</time></trkpt><trkpt lat="43.60990250263521" lon="10.415866497525574"><ele>-3.0</ele><time>2026-05-02T06:19:30.994Z</time></trkpt><trkpt lat="43.609938465753046" lon="10.416209283581741"><ele>-2.5</ele><time>2026-05-02T06:19:31.994Z</time></trkpt><trkpt lat="43.60998017580086" lon="10.416551512838124"><ele>-2.0</ele><time>2026-05-02T06:19:32.994Z</time></trkpt><trkpt lat="43.610027697108826" lon="10.416895160025037"><ele>-1.5</ele><time>2026-05-02T06:19:33.994Z</time></trkpt><trkpt lat="43.61007717081785" lon="10.417235536418925"><ele>-1.0</ele><time>2026-05-02T06:19:34.994Z</time></trkpt><trkpt lat="43.61012960681853" lon="10.417571420796424"><ele>-1.0</ele><time>2026-05-02T06:19:35.994Z</time></trkpt><trkpt lat="43.610186478285144" lon="10.417902947923654"><ele>-1.0</ele><time>2026-05-02T06:19:36.994Z</time></trkpt><trkpt lat="43.61024371471315" lon="10.418234541799887"><ele>-1.5</ele><time>2026-05-02T06:19:37.994Z</time></trkpt><trkpt lat="43.6103061908738" lon="10.418562227398109"><ele>-2.0</ele><time>2026-05-02T06:19:38.994Z</time></trkpt><trkpt lat="43.61037077940783" lon="10.418892303799982"><ele>-2.0</ele><time>2026-05-02T06:19:39.994Z</time></trkpt><trkpt lat="43.61043919716827" lon="10.419219446290928"><ele>-2.0</ele><time>2026-05-02T06:19:40.994Z</time></trkpt><trkpt lat="43.61051727347818" lon="10.419545856705628"><ele>-1.5</ele><time>2026-05-02T06:19:41.994Z</time></trkpt><trkpt lat="43.61058928784047" lon="10.4198594084152"><ele>-1.0</ele><time>2026-05-02T06:19:42.993Z</time></trkpt><trkpt lat="43.61066706590976" lon="10.4201780039843"><ele>-0.5</ele><time>2026-05-02T06:19:43.993Z</time></trkpt><trkpt lat="43.61075079244343" lon="10.420498567701658"><ele>0.0</ele><time>2026-05-02T06:19:44.993Z</time></trkpt><trkpt lat="43.6108391788534" lon="10.420816054333407"><ele>0.0</ele><time>2026-05-02T06:19:45.993Z</time></trkpt><trkpt lat="43.610932093246696" lon="10.421134287951276"><ele>0.0</ele><time>2026-05-02T06:19:46.993Z</time></trkpt><trkpt lat="43.611028606214035" lon="10.42145002636408"><ele>0.0</ele><time>2026-05-02T06:19:47.993Z</time></trkpt><trkpt lat="43.61112592697739" lon="10.421761387145583"><ele>0.0</ele><time>2026-05-02T06:19:48.993Z</time></trkpt><trkpt lat="43.61122693280928" lon="10.42207447425244"><ele>0.0</ele><time>2026-05-02T06:19:49.993Z</time></trkpt><trkpt lat="43.611330056199996" lon="10.422383770787262"><ele>0.0</ele><time>2026-05-02T06:19:50.993Z</time></trkpt><trkpt lat="43.61143606888823" lon="10.42268369337774"><ele>0.0</ele><time>2026-05-02T06:19:51.993Z</time></trkpt><trkpt lat="43.611543851704155" lon="10.422984505839203"><ele>0.0</ele><time>2026-05-02T06:19:52.993Z</time></trkpt><trkpt lat="43.61165105972163" lon="10.423271436695536"><ele>0.0</ele><time>2026-05-02T06:19:53.993Z</time></trkpt><trkpt lat="43.611757316550495" lon="10.423538086613132"><ele>0.0</ele><time>2026-05-02T06:19:54.993Z</time></trkpt><trkpt lat="43.61186201548967" lon="10.423777709894681"><ele>0.0</ele><time>2026-05-02T06:19:55.993Z</time></trkpt><trkpt lat="43.6119460295712" lon="10.424008556194782"><ele>0.0</ele><time>2026-05-02T06:19:56.993Z</time></trkpt><trkpt lat="43.61202174979604" lon="10.42420760125986"><ele>0.0</ele><time>2026-05-02T06:19:57.993Z</time></trkpt><trkpt lat="43.61209422025869" lon="10.42437079947943"><ele>0.0</ele><time>2026-05-02T06:19:58.993Z</time></trkpt><trkpt lat="43.6121568555614" lon="10.424508916695947"><ele>0.0</ele><time>2026-05-02T06:19:59.993Z</time></trkpt><trkpt lat="43.61220262017245" lon="10.424623724296973"><ele>0.16666666666666666</ele><time>2026-05-02T06:20:00.993Z</time></trkpt><trkpt lat="43.61223579872554" lon="10.424731106685782"><ele>0.3333333333333333</ele><time>2026-05-02T06:20:01.993Z</time></trkpt><trkpt lat="43.61225453915898" lon="10.424840284134497"><ele>0.5</ele><time>2026-05-02T06:20:02.993Z</time></trkpt><trkpt lat="43.612252441487975" lon="10.424934876209772"><ele>0.6666666666666666</ele><time>2026-05-02T06:20:03.993Z</time></trkpt><trkpt lat="43.61223862631239" lon="10.425024118192345"><ele>0.8333333333333333</ele><time>2026-05-02T06:20:04.993Z</time></trkpt><trkpt lat="43.61220052527953" lon="10.425157601964255"><ele>1.0</ele><time>2026-05-02T06:20:06.993Z</time></trkpt><trkpt lat="43.61212774714452" lon="10.425184478373215"><ele>1.0</ele><time>2026-05-02T06:20:12.993Z</time></trkpt><trkpt lat="43.61207083956737" lon="10.425225373561602"><ele>1.0</ele><time>2026-05-02T06:20:19.993Z</time></trkpt></trkseg><trkseg><trkpt lat="43.612505685881274" lon="10.425441710144597"><ele>1.0</ele><time>2026-05-02T06:33:22.999Z</time></trkpt><trkpt lat="43.61258470370063" lon="10.425491864486302"><ele>1.0</ele><time>2026-05-02T06:33:25Z</time></trkpt><trkpt lat="43.61266900439929" lon="10.425630935160301"><ele>1.0</ele><time>2026-05-02T06:33:26.999Z</time></trkpt><trkpt lat="43.61271968331984" lon="10.42571888614434"><ele>1.0</ele><time>2026-05-02T06:33:28Z</time></trkpt><trkpt lat="43.61277565896" lon="10.42581674012465"><ele>1.0</ele><time>2026-05-02T06:33:28.999Z</time></trkpt><trkpt lat="43.61284224586863" lon="10.42592650804483"><ele>0.75</ele><time>2026-05-02T06:33:29.999Z</time></trkpt><trkpt lat="43.61291589514931" lon="10.426049072347645"><ele>0.5</ele><time>2026-05-02T06:33:30.999Z</time></trkpt><trkpt lat="43.612989789607845" lon="10.426183324497362"><ele>0.25</ele><time>2026-05-02T06:33:31.999Z</time></trkpt><trkpt lat="43.613066622641426" lon="10.426330431443292"><ele>0.0</ele><time>2026-05-02T06:33:32.999Z</time></trkpt><trkpt lat="43.61314874989337" lon="10.42649073470864"><ele>0.0</ele><time>2026-05-02T06:33:33.999Z</time></trkpt><trkpt lat="43.61323924228226" lon="10.426657584592071"><ele>0.0</ele><time>2026-05-02T06:33:34.999Z</time></trkpt><trkpt lat="43.613326884317566" lon="10.426831214853697"><ele>0.0</ele><time>2026-05-02T06:33:35.999Z</time></trkpt><trkpt lat="43.61342524759058" lon="10.427029176861211"><ele>-0.6666666666666666</ele><time>2026-05-02T06:33:36.999Z</time></trkpt><trkpt lat="43.6135194169143" lon="10.427225775899021"><ele>-1.3333333333333333</ele><time>2026-05-02T06:33:37.999Z</time></trkpt><trkpt lat="43.6136137909285" lon="10.427432035151675"><ele>-2.0</ele><time>2026-05-02T06:33:38.999Z</time></trkpt><trkpt lat="43.61371331973724" lon="10.427645314415912"><ele>-2.0</ele><time>2026-05-02T06:33:39.999Z</time></trkpt><trkpt lat="43.61381340940984" lon="10.42787185173102"><ele>-2.0</ele><time>2026-05-02T06:33:40.999Z</time></trkpt><trkpt lat="43.61392205380952" lon="10.428105353039175"><ele>-2.0</ele><time>2026-05-02T06:33:41.999Z</time></trkpt><trkpt lat="43.61402876632073" lon="10.428345463089295"><ele>-2.0</ele><time>2026-05-02T06:33:42.999Z</time></trkpt><trkpt lat="43.61413414245769" lon="10.428591422857492"><ele>-2.0</ele><time>2026-05-02T06:33:43.999Z</time></trkpt><trkpt lat="43.61423770864543" lon="10.428844834425224"><ele>-2.0</ele><time>2026-05-02T06:33:44.999Z</time></trkpt><trkpt lat="43.61433566343622" lon="10.42911455264742"><ele>-2.0</ele><time>2026-05-02T06:33:45.999Z</time></trkpt><trkpt lat="43.61443327561636" lon="10.429381846102563"><ele>-2.0</ele><time>2026-05-02T06:33:46.999Z</time></trkpt><trkpt lat="43.614534423115224" lon="10.42965162888643"><ele>-2.0</ele><time>2026-05-02T06:33:47.999Z</time></trkpt><trkpt lat="43.614633838168885" lon="10.429925272540899"><ele>-1.0</ele><time>2026-05-02T06:33:48.999Z</time></trkpt><trkpt lat="43.614731001988815" lon="10.430206458008273"><ele>0.0</ele><time>2026-05-02T06:33:49.999Z</time></trkpt><trkpt lat="43.61482319128417" lon="10.43050065089157"><ele>0.0</ele><time>2026-05-02T06:33:50.999Z</time></trkpt><trkpt lat="43.6149166456059" lon="10.430803099564688"><ele>0.0</ele><time>2026-05-02T06:33:51.999Z</time></trkpt><trkpt lat="43.615007936259076" lon="10.431109535029709"><ele>-0.5</ele><time>2026-05-02T06:33:52.999Z</time></trkpt><trkpt lat="43.61509489685502" lon="10.431416819127683"><ele>-1.0</ele><time>2026-05-02T06:33:53.999Z</time></trkpt><trkpt lat="43.61517578756156" lon="10.431722422895438"><ele>-1.0</ele><time>2026-05-02T06:33:54.999Z</time></trkpt><trkpt lat="43.61525069334865" lon="10.432026652843744"><ele>-1.0</ele><time>2026-05-02T06:33:55.999Z</time></trkpt><trkpt lat="43.61532714949444" lon="10.432333340129015"><ele>-1.0</ele><time>2026-05-02T06:33:56.999Z</time></trkpt><trkpt lat="43.615406017648134" lon="10.432636629427824"><ele>-1.0</ele><time>2026-05-02T06:33:57.999Z</time></trkpt><trkpt lat="43.61547463998331" lon="10.432940727081792"><ele>-1.0</ele><time>2026-05-02T06:33:58.999Z</time></trkpt><trkpt lat="43.6155394024259" lon="10.433249825821894"><ele>-1.0</ele><time>2026-05-02T06:33:59.999Z</time></trkpt><trkpt lat="43.6156024055155" lon="10.433557780628725"><ele>0.0</ele><time>2026-05-02T06:34:00.999Z</time></trkpt><trkpt lat="43.61566060064812" lon="10.43387566653342"><ele>1.0</ele><time>2026-05-02T06:34:01.999Z</time></trkpt><trkpt lat="43.615712048853766" lon="10.434190145607868"><ele>1.0</ele><time>2026-05-02T06:34:02.999Z</time></trkpt><trkpt lat="43.61576913853633" lon="10.43450488533782"><ele>1.0</ele><time>2026-05-02T06:34:03.999Z</time></trkpt><trkpt lat="43.615815572480244" lon="10.434818319112841"><ele>2.5</ele><time>2026-05-02T06:34:04.999Z</time></trkpt><trkpt lat="43.61586686504931" lon="10.435137477132791"><ele>4.0</ele><time>2026-05-02T06:34:05.999Z</time></trkpt><trkpt lat="43.615920513150414" lon="10.43544962651253"><ele>4.5</ele><time>2026-05-02T06:34:06.999Z</time></trkpt><trkpt lat="43.615975411378024" lon="10.435759795825296"><ele>5.0</ele><time>2026-05-02T06:34:07.999Z</time></trkpt><trkpt lat="43.616021173682924" lon="10.43607416311656"><ele>5.666666666666667</ele><time>2026-05-02T06:34:08.999Z</time></trkpt><trkpt lat="43.616055477367375" lon="10.436370936372652"><ele>6.333333333333334</ele><time>2026-05-02T06:34:09.999Z</time></trkpt><trkpt lat="43.616099780480134" lon="10.436646042371919"><ele>7.0</ele><time>2026-05-02T06:34:10.999Z</time></trkpt><trkpt lat="43.61616270470477" lon="10.436915076294474"><ele>5.0</ele><time>2026-05-02T06:34:11.999Z</time></trkpt><trkpt lat="43.616203432523825" lon="10.437211793709608"><ele>3.0</ele><time>2026-05-02T06:34:12.999Z</time></trkpt><trkpt lat="43.616266705229776" lon="10.437483269264376"><ele>1.0</ele><time>2026-05-02T06:34:13.999Z</time></trkpt><trkpt lat="43.616318108797465" lon="10.437772327051228"><ele>1.6666666666666665</ele><time>2026-05-02T06:34:14.999Z</time></trkpt><trkpt lat="43.61636530707116" lon="10.438053489282552"><ele>2.3333333333333335</ele><time>2026-05-02T06:34:15.999Z</time></trkpt><trkpt lat="43.61638687705566" lon="10.43837496163064"><ele>3.0</ele><time>2026-05-02T06:34:16.998Z</time></trkpt><trkpt lat="43.61638882020544" lon="10.438779922132998"><ele>2.6666666666666665</ele><time>2026-05-02T06:34:17.998Z</time></trkpt><trkpt lat="43.616432353312476" lon="10.439078212895454"><ele>2.333333333333333</ele><time>2026-05-02T06:34:18.998Z</time></trkpt><trkpt lat="43.61647610884427" lon="10.439374892090756"><ele>2.0</ele><time>2026-05-02T06:34:19.998Z</time></trkpt><trkpt lat="43.61651694048006" lon="10.439671418563941"><ele>1.6666666666666665</ele><time>2026-05-02T06:34:20.998Z</time></trkpt><trkpt lat="43.61655692799704" lon="10.43997017343935"><ele>1.3333333333333333</ele><time>2026-05-02T06:34:21.998Z</time></trkpt><trkpt lat="43.61660266835617" lon="10.44026435523232"><ele>1.0</ele><time>2026-05-02T06:34:22.998Z</time></trkpt><trkpt lat="43.6166490520469" lon="10.44056563568019"><ele>0.6666666666666666</ele><time>2026-05-02T06:34:23.998Z</time></trkpt><trkpt lat="43.61669500637864" lon="10.44086343153895"><ele>0.3333333333333333</ele><time>2026-05-02T06:34:24.998Z</time></trkpt><trkpt lat="43.61674351760411" lon="10.441162910662724"><ele>0.0</ele><time>2026-05-02T06:34:25.998Z</time></trkpt><trkpt lat="43.616791076145034" lon="10.441461439326456"><ele>0.0</ele><time>2026-05-02T06:34:26.998Z</time></trkpt><trkpt lat="43.61684364534087" lon="10.441757491029035"><ele>0.0</ele><time>2026-05-02T06:34:27.998Z</time></trkpt><trkpt lat="43.61690434108687" lon="10.44205172843864"><ele>0.0</ele><time>2026-05-02T06:34:28.998Z</time></trkpt><trkpt lat="43.616971088161016" lon="10.442342202647003"><ele>0.0</ele><time>2026-05-02T06:34:29.998Z</time></trkpt><trkpt lat="43.61704081557799" lon="10.442637027405285"><ele>0.0</ele><time>2026-05-02T06:34:30.998Z</time></trkpt><trkpt lat="43.61711930007846" lon="10.442922463031765"><ele>0.0</ele><time>2026-05-02T06:34:31.998Z</time></trkpt><trkpt lat="43.61720533624555" lon="10.44321677166163"><ele>0.0</ele><time>2026-05-02T06:34:32.998Z</time></trkpt><trkpt lat="43.61729374834642" lon="10.443504956095929"><ele>0.0</ele><time>2026-05-02T06:34:33.998Z</time></trkpt><trkpt lat="43.617389243815005" lon="10.443789578072307"><ele>0.5</ele><time>2026-05-02T06:34:34.998Z</time></trkpt><trkpt lat="43.617486180854506" lon="10.444077016041623"><ele>1.0</ele><time>2026-05-02T06:34:35.998Z</time></trkpt><trkpt lat="43.617587466131546" lon="10.44436315890293"><ele>1.0</ele><time>2026-05-02T06:34:36.998Z</time></trkpt><trkpt lat="43.61769884614555" lon="10.444636314213017"><ele>1.0</ele><time>2026-05-02T06:34:37.998Z</time></trkpt><trkpt lat="43.617817422409765" lon="10.44490677497926"><ele>0.5</ele><time>2026-05-02T06:34:38.998Z</time></trkpt><trkpt lat="43.61793640398537" lon="10.445177857726884"><ele>0.0</ele><time>2026-05-02T06:34:39.998Z</time></trkpt><trkpt lat="43.618071586977464" lon="10.445432258354076"><ele>0.5</ele><time>2026-05-02T06:34:40.998Z</time></trkpt><trkpt lat="43.618205626001675" lon="10.445686599691374"><ele>1.0</ele><time>2026-05-02T06:34:41.998Z</time></trkpt><trkpt lat="43.61834438331031" lon="10.445936382531114"><ele>1.0</ele><time>2026-05-02T06:34:42.998Z</time></trkpt><trkpt lat="43.61848931824326" lon="10.446185600081206"><ele>1.0</ele><time>2026-05-02T06:34:43.998Z</time></trkpt><trkpt lat="43.61862873767207" lon="10.446421473867138"><ele>1.3333333333333333</ele><time>2026-05-02T06:34:44.998Z</time></trkpt><trkpt lat="43.6187675201017" lon="10.446660870169282"><ele>1.6666666666666665</ele><time>2026-05-02T06:34:45.998Z</time></trkpt><trkpt lat="43.61890951573903" lon="10.446900159578771"><ele>2.0</ele><time>2026-05-02T06:34:46.998Z</time></trkpt><trkpt lat="43.61905603689307" lon="10.447130866090715"><ele>2.0</ele><time>2026-05-02T06:34:47.998Z</time></trkpt><trkpt lat="43.61920655854027" lon="10.447355682535337"><ele>2.0</ele><time>2026-05-02T06:34:48.998Z</time></trkpt><trkpt lat="43.61935954172533" lon="10.447578433654725"><ele>2.0</ele><time>2026-05-02T06:34:49.998Z</time></trkpt><trkpt lat="43.61950713160163" lon="10.447794819551188"><ele>2.0</ele><time>2026-05-02T06:34:50.998Z</time></trkpt><trkpt lat="43.619651100275796" lon="10.448010380645304"><ele>2.0</ele><time>2026-05-02T06:34:51.998Z</time></trkpt><trkpt lat="43.619792683180194" lon="10.448227258712086"><ele>2.0</ele><time>2026-05-02T06:34:52.998Z</time></trkpt><trkpt lat="43.61993291208827" lon="10.448446681404098"><ele>2.0</ele><time>2026-05-02T06:34:53.998Z</time></trkpt><trkpt lat="43.6200742379359" lon="10.448663141520951"><ele>2.0</ele><time>2026-05-02T06:34:54.998Z</time></trkpt><trkpt lat="43.62021035448914" lon="10.448880182331534"><ele>2.0</ele><time>2026-05-02T06:34:55.998Z</time></trkpt><trkpt lat="43.620346541591076" lon="10.449097175424157"><ele>2.333333333333333</ele><time>2026-05-02T06:34:56.998Z</time></trkpt><trkpt lat="43.62047820047144" lon="10.449328044746569"><ele>2.6666666666666665</ele><time>2026-05-02T06:34:57.998Z</time></trkpt><trkpt lat="43.620601257255444" lon="10.44956354791289"><ele>3.0</ele><time>2026-05-02T06:34:58.998Z</time></trkpt><trkpt lat="43.62072227347688" lon="10.449800260037495"><ele>3.0</ele><time>2026-05-02T06:34:59.998Z</time></trkpt><trkpt lat="43.620837462099736" lon="10.450044687218192"><ele>3.0</ele><time>2026-05-02T06:35:00.998Z</time></trkpt><trkpt lat="43.620942512198184" lon="10.45029396473491"><ele>3.0</ele><time>2026-05-02T06:35:01.998Z</time></trkpt><trkpt lat="43.62104204967346" lon="10.450552870038333"><ele>3.0</ele><time>2026-05-02T06:35:02.998Z</time></trkpt><trkpt lat="43.62113651462216" lon="10.450818251166574"><ele>3.0</ele><time>2026-05-02T06:35:03.998Z</time></trkpt><trkpt lat="43.62122268921533" lon="10.451084434314428"><ele>3.0</ele><time>2026-05-02T06:35:04.998Z</time></trkpt><trkpt lat="43.62129752723801" lon="10.451328463414598"><ele>3.666666666666667</ele><time>2026-05-02T06:35:05.998Z</time></trkpt><trkpt lat="43.62135974555619" lon="10.451559697993055"><ele>4.333333333333334</ele><time>2026-05-02T06:35:06.998Z</time></trkpt><trkpt lat="43.621417148974366" lon="10.451781605475379"><ele>5.0</ele><time>2026-05-02T06:35:07.998Z</time></trkpt><trkpt lat="43.62146577420141" lon="10.451999774512274"><ele>5.0</ele><time>2026-05-02T06:35:08.998Z</time></trkpt><trkpt lat="43.62151243805041" lon="10.452207253334466"><ele>5.0</ele><time>2026-05-02T06:35:09.998Z</time></trkpt><trkpt lat="43.62155919928518" lon="10.452409458133404"><ele>5.0</ele><time>2026-05-02T06:35:10.998Z</time></trkpt><trkpt lat="43.62160437055773" lon="10.452597844524957"><ele>5.0</ele><time>2026-05-02T06:35:11.998Z</time></trkpt><trkpt lat="43.62165035940742" lon="10.452779597349883"><ele>5.0</ele><time>2026-05-02T06:35:12.998Z</time></trkpt><trkpt lat="43.621694579204394" lon="10.452967379272005"><ele>5.0</ele><time>2026-05-02T06:35:13.998Z</time></trkpt><trkpt lat="43.62173444653646" lon="10.45314470476006"><ele>5.0</ele><time>2026-05-02T06:35:14.998Z</time></trkpt><trkpt lat="43.62178045936822" lon="10.453331297214799"><ele>5.0</ele><time>2026-05-02T06:35:15.998Z</time></trkpt><trkpt lat="43.62182210703895" lon="10.453524294545304"><ele>5.0</ele><time>2026-05-02T06:35:16.998Z</time></trkpt><trkpt lat="43.62186993313438" lon="10.453723757565045"><ele>5.0</ele><time>2026-05-02T06:35:17.998Z</time></trkpt><trkpt lat="43.62192087364645" lon="10.453932057962756"><ele>5.0</ele><time>2026-05-02T06:35:18.998Z</time></trkpt><trkpt lat="43.62196852942375" lon="10.454145883749515"><ele>5.0</ele><time>2026-05-02T06:35:19.998Z</time></trkpt><trkpt lat="43.622016787660684" lon="10.454356567715612"><ele>5.0</ele><time>2026-05-02T06:35:20.998Z</time></trkpt><trkpt lat="43.622065461774554" lon="10.454566338500417"><ele>4.666666666666667</ele><time>2026-05-02T06:35:22Z</time></trkpt><trkpt lat="43.622112728903694" lon="10.454773491264966"><ele>4.333333333333333</ele><time>2026-05-02T06:35:22.999Z</time></trkpt><trkpt lat="43.62216040641828" lon="10.454984619007414"><ele>4.0</ele><time>2026-05-02T06:35:23.999Z</time></trkpt><trkpt lat="43.622209813506316" lon="10.455199560431149"><ele>4.0</ele><time>2026-05-02T06:35:25Z</time></trkpt><trkpt lat="43.62226128334605" lon="10.455406198440205"><ele>4.0</ele><time>2026-05-02T06:35:25.999Z</time></trkpt><trkpt lat="43.62231244190312" lon="10.455619245679841"><ele>4.0</ele><time>2026-05-02T06:35:26.999Z</time></trkpt><trkpt lat="43.62236621377872" lon="10.455836236282869"><ele>3.6666666666666665</ele><time>2026-05-02T06:35:28Z</time></trkpt><trkpt lat="43.622417272819405" lon="10.45605085161084"><ele>3.333333333333333</ele><time>2026-05-02T06:35:28.999Z</time></trkpt><trkpt lat="43.62246674295885" lon="10.456273951868043"><ele>3.0</ele><time>2026-05-02T06:35:29.999Z</time></trkpt><trkpt lat="43.622514607149164" lon="10.456498163509359"><ele>3.0</ele><time>2026-05-02T06:35:30.999Z</time></trkpt><trkpt lat="43.62256070512969" lon="10.456726105906249"><ele>3.0</ele><time>2026-05-02T06:35:31.999Z</time></trkpt><trkpt lat="43.62260580724899" lon="10.456954170341403"><ele>3.0</ele><time>2026-05-02T06:35:32.999Z</time></trkpt><trkpt lat="43.62265169684171" lon="10.45717757196692"><ele>3.0</ele><time>2026-05-02T06:35:33.999Z</time></trkpt><trkpt lat="43.62269208074102" lon="10.45740791381997"><ele>3.0</ele><time>2026-05-02T06:35:34.999Z</time></trkpt><trkpt lat="43.622728350557054" lon="10.457648666757379"><ele>3.0</ele><time>2026-05-02T06:35:35.999Z</time></trkpt><trkpt lat="43.62275967752165" lon="10.457882071426644"><ele>3.0</ele><time>2026-05-02T06:35:36.999Z</time></trkpt><trkpt lat="43.622788461457084" lon="10.458116442502117"><ele>3.0</ele><time>2026-05-02T06:35:37.999Z</time></trkpt><trkpt lat="43.62281484910458" lon="10.458358549040822"><ele>3.0</ele><time>2026-05-02T06:35:38.999Z</time></trkpt><trkpt lat="43.622839009404494" lon="10.458593128479842"><ele>4.0</ele><time>2026-05-02T06:35:39.999Z</time></trkpt><trkpt lat="43.62286051322995" lon="10.458829177359416"><ele>5.0</ele><time>2026-05-02T06:35:40.999Z</time></trkpt><trkpt lat="43.62287791045145" lon="10.459070081059467"><ele>6.0</ele><time>2026-05-02T06:35:41.999Z</time></trkpt><trkpt lat="43.622896914005935" lon="10.459310181060381"><ele>6.0</ele><time>2026-05-02T06:35:42.999Z</time></trkpt><trkpt lat="43.62291396863227" lon="10.459553084711969"><ele>6.0</ele><time>2026-05-02T06:35:43.999Z</time></trkpt><trkpt lat="43.62291957162114" lon="10.459796118673783"><ele>6.0</ele><time>2026-05-02T06:35:44.999Z</time></trkpt><trkpt lat="43.6229235718642" lon="10.460041607015496"><ele>6.0</ele><time>2026-05-02T06:35:45.999Z</time></trkpt><trkpt lat="43.622933528968886" lon="10.460280776258381"><ele>6.0</ele><time>2026-05-02T06:35:46.999Z</time></trkpt><trkpt lat="43.622947316514846" lon="10.460522745312902"><ele>6.0</ele><time>2026-05-02T06:35:47.999Z</time></trkpt><trkpt lat="43.62295135518886" lon="10.460764791530563"><ele>5.666666666666667</ele><time>2026-05-02T06:35:48.999Z</time></trkpt><trkpt lat="43.62295638338923" lon="10.460995485691237"><ele>5.333333333333334</ele><time>2026-05-02T06:35:49.999Z</time></trkpt><trkpt lat="43.62295576614341" lon="10.461223936990043"><ele>5.0</ele><time>2026-05-02T06:35:50.999Z</time></trkpt><trkpt lat="43.622959524783994" lon="10.461453682008074"><ele>4.666666666666667</ele><time>2026-05-02T06:35:51.999Z</time></trkpt><trkpt lat="43.622965000298855" lon="10.461688844846517"><ele>4.333333333333333</ele><time>2026-05-02T06:35:52.999Z</time></trkpt><trkpt lat="43.62297597966181" lon="10.461919570014295"><ele>4.0</ele><time>2026-05-02T06:35:53.999Z</time></trkpt><trkpt lat="43.62298201502748" lon="10.462162604707286"><ele>4.666666666666666</ele><time>2026-05-02T06:35:54.998Z</time></trkpt><trkpt lat="43.62299453654301" lon="10.462398521698532"><ele>5.333333333333333</ele><time>2026-05-02T06:35:55.998Z</time></trkpt><trkpt lat="43.62300239509614" lon="10.462638213553618"><ele>6.0</ele><time>2026-05-02T06:35:56.998Z</time></trkpt><trkpt lat="43.62300769445614" lon="10.46287432632557"><ele>5.666666666666667</ele><time>2026-05-02T06:35:57.998Z</time></trkpt><trkpt lat="43.62301673839072" lon="10.463098126955849"><ele>5.333333333333334</ele><time>2026-05-02T06:35:58.998Z</time></trkpt><trkpt lat="43.62302004578339" lon="10.46334113794018"><ele>5.0</ele><time>2026-05-02T06:35:59.998Z</time></trkpt><trkpt lat="43.6230276961119" lon="10.463580318373321"><ele>4.666666666666667</ele><time>2026-05-02T06:36:00.998Z</time></trkpt><trkpt lat="43.6230246071688" lon="10.463822541878862"><ele>4.333333333333333</ele><time>2026-05-02T06:36:01.998Z</time></trkpt><trkpt lat="43.62303012857527" lon="10.46406038347758"><ele>4.0</ele><time>2026-05-02T06:36:02.998Z</time></trkpt><trkpt lat="43.6230286589818" lon="10.464296202056738"><ele>4.0</ele><time>2026-05-02T06:36:03.998Z</time></trkpt><trkpt lat="43.62302796788404" lon="10.464544832645574"><ele>4.0</ele><time>2026-05-02T06:36:04.998Z</time></trkpt><trkpt lat="43.623033374290934" lon="10.464801486586955"><ele>4.0</ele><time>2026-05-02T06:36:05.998Z</time></trkpt><trkpt lat="43.62304056871055" lon="10.465068822960177"><ele>3.6666666666666665</ele><time>2026-05-02T06:36:06.998Z</time></trkpt><trkpt lat="43.62304946777733" lon="10.465336513054211"><ele>3.333333333333333</ele><time>2026-05-02T06:36:07.998Z</time></trkpt><trkpt lat="43.623057398611614" lon="10.465605529614237"><ele>3.0</ele><time>2026-05-02T06:36:08.998Z</time></trkpt><trkpt lat="43.62306450530102" lon="10.465863684915318"><ele>3.666666666666667</ele><time>2026-05-02T06:36:09.998Z</time></trkpt><trkpt lat="43.62307004008747" lon="10.466133469146069"><ele>4.333333333333334</ele><time>2026-05-02T06:36:10.998Z</time></trkpt><trkpt lat="43.623072353507546" lon="10.466407454654416"><ele>5.0</ele><time>2026-05-02T06:36:11.998Z</time></trkpt><trkpt lat="43.62307522444005" lon="10.466687782208407"><ele>5.0</ele><time>2026-05-02T06:36:12.998Z</time></trkpt><trkpt lat="43.62308567088408" lon="10.46696773984598"><ele>5.0</ele><time>2026-05-02T06:36:13.998Z</time></trkpt><trkpt lat="43.623091033669105" lon="10.46726072064118"><ele>5.0</ele><time>2026-05-02T06:36:14.998Z</time></trkpt><trkpt lat="43.62309348989281" lon="10.467556585211042"><ele>5.0</ele><time>2026-05-02T06:36:15.998Z</time></trkpt><trkpt lat="43.62309851171301" lon="10.467849376403702"><ele>5.0</ele><time>2026-05-02T06:36:16.998Z</time></trkpt><trkpt lat="43.62310338970868" lon="10.468143845219"><ele>5.0</ele><time>2026-05-02T06:36:17.998Z</time></trkpt><trkpt lat="43.62311217869532" lon="10.46843732289884"><ele>5.0</ele><time>2026-05-02T06:36:18.998Z</time></trkpt><trkpt lat="43.62311922859643" lon="10.46872639112283"><ele>5.0</ele><time>2026-05-02T06:36:19.998Z</time></trkpt><trkpt lat="43.62312558521637" lon="10.469017255685255"><ele>5.0</ele><time>2026-05-02T06:36:20.998Z</time></trkpt><trkpt lat="43.6231330187174" lon="10.469310127017268"><ele>5.0</ele><time>2026-05-02T06:36:21.998Z</time></trkpt><trkpt lat="43.623136686909646" lon="10.469595845799596"><ele>5.0</ele><time>2026-05-02T06:36:22.998Z</time></trkpt><trkpt lat="43.62314144370996" lon="10.469884206093306"><ele>5.0</ele><time>2026-05-02T06:36:23.998Z</time></trkpt><trkpt lat="43.623148314273685" lon="10.470177240378096"><ele>4.666666666666667</ele><time>2026-05-02T06:36:24.998Z</time></trkpt><trkpt lat="43.62315585835441" lon="10.47046658568643"><ele>4.333333333333333</ele><time>2026-05-02T06:36:25.998Z</time></trkpt><trkpt lat="43.623161490406964" lon="10.470756889795213"><ele>4.0</ele><time>2026-05-02T06:36:26.998Z</time></trkpt><trkpt lat="43.62316158843236" lon="10.471053801317582"><ele>4.333333333333333</ele><time>2026-05-02T06:36:27.998Z</time></trkpt><trkpt lat="43.62317215798764" lon="10.47134423078104"><ele>4.666666666666667</ele><time>2026-05-02T06:36:28.998Z</time></trkpt><trkpt lat="43.623179337612044" lon="10.471642497316425"><ele>5.0</ele><time>2026-05-02T06:36:29.998Z</time></trkpt><trkpt lat="43.62318243047681" lon="10.47194337894078"><ele>5.666666666666667</ele><time>2026-05-02T06:36:30.998Z</time></trkpt><trkpt lat="43.62318903838358" lon="10.472238627188942"><ele>6.333333333333334</ele><time>2026-05-02T06:36:31.998Z</time></trkpt><trkpt lat="43.62319616645903" lon="10.472537985630723"><ele>7.0</ele><time>2026-05-02T06:36:32.998Z</time></trkpt><trkpt lat="43.62320343038988" lon="10.472842895004408"><ele>6.666666666666667</ele><time>2026-05-02T06:36:33.998Z</time></trkpt><trkpt lat="43.62320822308855" lon="10.473144702362339"><ele>6.333333333333334</ele><time>2026-05-02T06:36:34.998Z</time></trkpt><trkpt lat="43.623216777602764" lon="10.473453970028174"><ele>6.0</ele><time>2026-05-02T06:36:35.998Z</time></trkpt><trkpt lat="43.62322417155367" lon="10.473765570444558"><ele>5.0</ele><time>2026-05-02T06:36:36.998Z</time></trkpt><trkpt lat="43.623230366536156" lon="10.474073645940432"><ele>4.0</ele><time>2026-05-02T06:36:37.998Z</time></trkpt><trkpt lat="43.62323828100668" lon="10.474390469399813"><ele>4.0</ele><time>2026-05-02T06:36:38.998Z</time></trkpt><trkpt lat="43.62324686416265" lon="10.474704095249049"><ele>4.0</ele><time>2026-05-02T06:36:39.998Z</time></trkpt><trkpt lat="43.62325401146207" lon="10.475021309835954"><ele>4.0</ele><time>2026-05-02T06:36:40.998Z</time></trkpt><trkpt lat="43.623260450853174" lon="10.475332881203451"><ele>4.0</ele><time>2026-05-02T06:36:41.998Z</time></trkpt><trkpt lat="43.6232648465453" lon="10.475645425065567"><ele>4.0</ele><time>2026-05-02T06:36:42.998Z</time></trkpt><trkpt lat="43.62326092811171" lon="10.4759589521423"><ele>4.0</ele><time>2026-05-02T06:36:43.998Z</time></trkpt><trkpt lat="43.623260115027016" lon="10.476268837992498"><ele>4.0</ele><time>2026-05-02T06:36:44.998Z</time></trkpt><trkpt lat="43.62324887950927" lon="10.476583330377077"><ele>4.0</ele><time>2026-05-02T06:36:45.998Z</time></trkpt><trkpt lat="43.6232845423576" lon="10.476896784744982"><ele>3.0</ele><time>2026-05-02T06:36:46.998Z</time></trkpt><trkpt lat="43.623298521426264" lon="10.477219458410294"><ele>2.0</ele><time>2026-05-02T06:36:47.998Z</time></trkpt><trkpt lat="43.62330835336458" lon="10.477538126163333"><ele>2.0</ele><time>2026-05-02T06:36:48.998Z</time></trkpt><trkpt lat="43.62331357447235" lon="10.47786282169909"><ele>2.0</ele><time>2026-05-02T06:36:49.998Z</time></trkpt><trkpt lat="43.62331949324298" lon="10.478182946777073"><ele>2.0</ele><time>2026-05-02T06:36:50.998Z</time></trkpt><trkpt lat="43.623324523149265" lon="10.478499257006257"><ele>2.0</ele><time>2026-05-02T06:36:51.998Z</time></trkpt><trkpt lat="43.62333299790367" lon="10.478815109695118"><ele>2.0</ele><time>2026-05-02T06:36:52.998Z</time></trkpt><trkpt lat="43.62334093560201" lon="10.479129667999084"><ele>2.0</ele><time>2026-05-02T06:36:53.998Z</time></trkpt><trkpt lat="43.62334590577038" lon="10.479443126677877"><ele>2.0</ele><time>2026-05-02T06:36:54.998Z</time></trkpt><trkpt lat="43.623359156424144" lon="10.479747175784345"><ele>2.0</ele><time>2026-05-02T06:36:55.998Z</time></trkpt><trkpt lat="43.62336326490882" lon="10.480053488536658"><ele>2.0</ele><time>2026-05-02T06:36:56.998Z</time></trkpt><trkpt lat="43.62336644983118" lon="10.48036294131353"><ele>2.5</ele><time>2026-05-02T06:36:57.998Z</time></trkpt><trkpt lat="43.6233734168456" lon="10.48067431658938"><ele>3.0</ele><time>2026-05-02T06:36:58.998Z</time></trkpt><trkpt lat="43.623382444234494" lon="10.480990928617796"><ele>3.0</ele><time>2026-05-02T06:36:59.997Z</time></trkpt><trkpt lat="43.62340163994527" lon="10.48131196941229"><ele>3.0</ele><time>2026-05-02T06:37:00.997Z</time></trkpt><trkpt lat="43.623413498207896" lon="10.481631894645748"><ele>3.0</ele><time>2026-05-02T06:37:01.997Z</time></trkpt><trkpt lat="43.623412258745596" lon="10.481951759061298"><ele>3.0</ele><time>2026-05-02T06:37:02.997Z</time></trkpt><trkpt lat="43.623410789212535" lon="10.48226554313117"><ele>3.0</ele><time>2026-05-02T06:37:03.997Z</time></trkpt><trkpt lat="43.623410719108065" lon="10.482583469690722"><ele>3.0</ele><time>2026-05-02T06:37:04.997Z</time></trkpt><trkpt lat="43.623405791178705" lon="10.482900590604126"><ele>3.5</ele><time>2026-05-02T06:37:05.997Z</time></trkpt><trkpt lat="43.62340295976576" lon="10.483222819090722"><ele>4.0</ele><time>2026-05-02T06:37:06.997Z</time></trkpt><trkpt lat="43.623396868200174" lon="10.483545540930432"><ele>4.5</ele><time>2026-05-02T06:37:07.997Z</time></trkpt><trkpt lat="43.623380684144976" lon="10.483867716708746"><ele>5.0</ele><time>2026-05-02T06:37:08.997Z</time></trkpt><trkpt lat="43.62335176920489" lon="10.48419107090739"><ele>5.0</ele><time>2026-05-02T06:37:09.997Z</time></trkpt><trkpt lat="43.623326301010025" lon="10.48451392786258"><ele>5.0</ele><time>2026-05-02T06:37:10.997Z</time></trkpt><trkpt lat="43.62329244317526" lon="10.484835856132396"><ele>4.5</ele><time>2026-05-02T06:37:11.997Z</time></trkpt><trkpt lat="43.62322570471608" lon="10.485149252409581"><ele>4.0</ele><time>2026-05-02T06:37:12.997Z</time></trkpt><trkpt lat="43.62336480217512" lon="10.48548310537625"><ele>4.0</ele><time>2026-05-02T06:37:13.997Z</time></trkpt><trkpt lat="43.62334670447611" lon="10.485802552021822"><ele>4.0</ele><time>2026-05-02T06:37:14.997Z</time></trkpt><trkpt lat="43.623328724049266" lon="10.486121543355504"><ele>4.0</ele><time>2026-05-02T06:37:15.997Z</time></trkpt><trkpt lat="43.62330667244491" lon="10.486436666846883"><ele>4.0</ele><time>2026-05-02T06:37:16.997Z</time></trkpt><trkpt lat="43.62328805367451" lon="10.486740633545839"><ele>4.0</ele><time>2026-05-02T06:37:17.997Z</time></trkpt><trkpt lat="43.62326293146868" lon="10.487043619538928"><ele>4.0</ele><time>2026-05-02T06:37:18.997Z</time></trkpt><trkpt lat="43.623236728559654" lon="10.487346018888797"><ele>4.0</ele><time>2026-05-02T06:37:19.997Z</time></trkpt><trkpt lat="43.62320382990303" lon="10.487645427956187"><ele>3.6666666666666665</ele><time>2026-05-02T06:37:20.997Z</time></trkpt><trkpt lat="43.62316832182751" lon="10.487945632936672"><ele>3.333333333333333</ele><time>2026-05-02T06:37:21.997Z</time></trkpt><trkpt lat="43.623134001802754" lon="10.48825034304569"><ele>3.0</ele><time>2026-05-02T06:37:22.997Z</time></trkpt><trkpt lat="43.62309916129156" lon="10.488555020301517"><ele>3.5</ele><time>2026-05-02T06:37:23.997Z</time></trkpt><trkpt lat="43.62306289622665" lon="10.488863153446424"><ele>4.0</ele><time>2026-05-02T06:37:24.997Z</time></trkpt><trkpt lat="43.62302302883586" lon="10.48917439373475"><ele>4.0</ele><time>2026-05-02T06:37:25.997Z</time></trkpt><trkpt lat="43.622980676569945" lon="10.489481683422994"><ele>4.0</ele><time>2026-05-02T06:37:26.997Z</time></trkpt><trkpt lat="43.62293790277834" lon="10.489795230564043"><ele>4.0</ele><time>2026-05-02T06:37:27.999Z</time></trkpt><trkpt lat="43.6228866828546" lon="10.490112149400895"><ele>4.0</ele><time>2026-05-02T06:37:29Z</time></trkpt><trkpt lat="43.622833998562214" lon="10.490425610216601"><ele>4.5</ele><time>2026-05-02T06:37:30Z</time></trkpt><trkpt lat="43.622777757758435" lon="10.490739357105928"><ele>5.0</ele><time>2026-05-02T06:37:31Z</time></trkpt><trkpt lat="43.6227183011384" lon="10.491051873928102"><ele>4.0</ele><time>2026-05-02T06:37:31.999Z</time></trkpt><trkpt lat="43.622655749320145" lon="10.491363277124126"><ele>3.0</ele><time>2026-05-02T06:37:32.999Z</time></trkpt><trkpt lat="43.62258894819525" lon="10.491673992516493"><ele>3.0</ele><time>2026-05-02T06:37:34Z</time></trkpt><trkpt lat="43.622524247715866" lon="10.491982260595003"><ele>3.0</ele><time>2026-05-02T06:37:34.999Z</time></trkpt><trkpt lat="43.6224551034758" lon="10.492282119908904"><ele>3.0</ele><time>2026-05-02T06:37:35.999Z</time></trkpt><trkpt lat="43.622388734661" lon="10.492587237524058"><ele>3.0</ele><time>2026-05-02T06:37:36.999Z</time></trkpt><trkpt lat="43.62232330569985" lon="10.49289080669034"><ele>3.5</ele><time>2026-05-02T06:37:37.999Z</time></trkpt><trkpt lat="43.62226120300751" lon="10.493193699055166"><ele>4.0</ele><time>2026-05-02T06:37:38.999Z</time></trkpt><trkpt lat="43.62219413184002" lon="10.493499343811322"><ele>4.0</ele><time>2026-05-02T06:37:39.999Z</time></trkpt><trkpt lat="43.6221293592125" lon="10.49380649513689"><ele>4.0</ele><time>2026-05-02T06:37:40.999Z</time></trkpt><trkpt lat="43.622063679234266" lon="10.494116969284745"><ele>4.0</ele><time>2026-05-02T06:37:41.999Z</time></trkpt><trkpt lat="43.62199530084519" lon="10.49443161731374"><ele>4.0</ele><time>2026-05-02T06:37:42.999Z</time></trkpt><trkpt lat="43.62193052192874" lon="10.49473999728294"><ele>4.0</ele><time>2026-05-02T06:37:43.999Z</time></trkpt><trkpt lat="43.62186297549984" lon="10.495048889302511"><ele>4.0</ele><time>2026-05-02T06:37:44.999Z</time></trkpt><trkpt lat="43.621796405564965" lon="10.495353620981009"><ele>4.0</ele><time>2026-05-02T06:37:45.999Z</time></trkpt><trkpt lat="43.62172854492272" lon="10.495662758660645"><ele>4.0</ele><time>2026-05-02T06:37:46.999Z</time></trkpt><trkpt lat="43.621663068728616" lon="10.495969913371855"><ele>5.5</ele><time>2026-05-02T06:37:47.999Z</time></trkpt><trkpt lat="43.62159826388373" lon="10.496274650275195"><ele>7.0</ele><time>2026-05-02T06:37:48.999Z</time></trkpt><trkpt lat="43.62153033795268" lon="10.49658750922422"><ele>7.0</ele><time>2026-05-02T06:37:49.999Z</time></trkpt><trkpt lat="43.6214657344241" lon="10.496896849663136"><ele>7.0</ele><time>2026-05-02T06:37:50.999Z</time></trkpt><trkpt lat="43.62139899594832" lon="10.497207561107098"><ele>6.5</ele><time>2026-05-02T06:37:51.999Z</time></trkpt><trkpt lat="43.62133086470445" lon="10.497517743960218"><ele>6.0</ele><time>2026-05-02T06:37:52.999Z</time></trkpt><trkpt lat="43.6212638942494" lon="10.497825284655903"><ele>6.0</ele><time>2026-05-02T06:37:53.999Z</time></trkpt><trkpt lat="43.621197689318734" lon="10.49813279157877"><ele>6.0</ele><time>2026-05-02T06:37:54.999Z</time></trkpt><trkpt lat="43.62113300765558" lon="10.498434685521913"><ele>6.5</ele><time>2026-05-02T06:37:55.999Z</time></trkpt><trkpt lat="43.62106520424557" lon="10.498743158592895"><ele>7.0</ele><time>2026-05-02T06:37:56.999Z</time></trkpt><trkpt lat="43.621000806488716" lon="10.499052433917218"><ele>6.0</ele><time>2026-05-02T06:37:57.999Z</time></trkpt><trkpt lat="43.620936655493416" lon="10.499363465806994"><ele>5.0</ele><time>2026-05-02T06:37:58.999Z</time></trkpt><trkpt lat="43.62086471467093" lon="10.499669032116536"><ele>4.5</ele><time>2026-05-02T06:37:59.999Z</time></trkpt><trkpt lat="43.62080268490778" lon="10.499980449695185"><ele>4.0</ele><time>2026-05-02T06:38:00.999Z</time></trkpt><trkpt lat="43.620736309808265" lon="10.500293852433199"><ele>4.0</ele><time>2026-05-02T06:38:01.999Z</time></trkpt><trkpt lat="43.62066847142107" lon="10.500597839226256"><ele>4.0</ele><time>2026-05-02T06:38:02.999Z</time></trkpt><trkpt lat="43.62060493522022" lon="10.50090440472263"><ele>4.0</ele><time>2026-05-02T06:38:03.999Z</time></trkpt><trkpt lat="43.62054059170821" lon="10.501214713876898"><ele>4.0</ele><time>2026-05-02T06:38:04.999Z</time></trkpt><trkpt lat="43.62047954793128" lon="10.501521243431512"><ele>4.0</ele><time>2026-05-02T06:38:05.999Z</time></trkpt><trkpt lat="43.62042315104344" lon="10.50182922975943"><ele>4.0</ele><time>2026-05-02T06:38:06.998Z</time></trkpt><trkpt lat="43.62036800331688" lon="10.50213999451813"><ele>4.0</ele><time>2026-05-02T06:38:07.998Z</time></trkpt><trkpt lat="43.62031933797311" lon="10.50244778697192"><ele>4.0</ele><time>2026-05-02T06:38:08.998Z</time></trkpt><trkpt lat="43.6202722056766" lon="10.502763037287762"><ele>5.0</ele><time>2026-05-02T06:38:09.998Z</time></trkpt><trkpt lat="43.62022700998079" lon="10.503075360346688"><ele>6.0</ele><time>2026-05-02T06:38:10.998Z</time></trkpt><trkpt lat="43.620191494180474" lon="10.503385154567608"><ele>6.0</ele><time>2026-05-02T06:38:11.998Z</time></trkpt><trkpt lat="43.620153340047665" lon="10.503692356245963"><ele>6.0</ele><time>2026-05-02T06:38:12.998Z</time></trkpt><trkpt lat="43.62012524769423" lon="10.5040137608567"><ele>6.5</ele><time>2026-05-02T06:38:13.998Z</time></trkpt><trkpt lat="43.62010315967913" lon="10.504329880710124"><ele>7.0</ele><time>2026-05-02T06:38:14.998Z</time></trkpt><trkpt lat="43.62008596850075" lon="10.504645215139151"><ele>7.5</ele><time>2026-05-02T06:38:15.998Z</time></trkpt><trkpt lat="43.62007048870292" lon="10.504967563951745"><ele>8.0</ele><time>2026-05-02T06:38:16.998Z</time></trkpt><trkpt lat="43.62005474191508" lon="10.505291044924977"><ele>8.0</ele><time>2026-05-02T06:38:17.998Z</time></trkpt><trkpt lat="43.62004085241171" lon="10.505617705094275"><ele>8.0</ele><time>2026-05-02T06:38:18.998Z</time></trkpt><trkpt lat="43.62003287698933" lon="10.505944635779436"><ele>7.5</ele><time>2026-05-02T06:38:19.998Z</time></trkpt><trkpt lat="43.62002897817595" lon="10.506269942251722"><ele>7.0</ele><time>2026-05-02T06:38:20.998Z</time></trkpt><trkpt lat="43.62003121947407" lon="10.506595337950953"><ele>7.0</ele><time>2026-05-02T06:38:21.998Z</time></trkpt><trkpt lat="43.6200376683039" lon="10.506924076469927"><ele>7.0</ele><time>2026-05-02T06:38:22.998Z</time></trkpt><trkpt lat="43.620048089347506" lon="10.507245484010722"><ele>7.0</ele><time>2026-05-02T06:38:23.998Z</time></trkpt><trkpt lat="43.62006322999646" lon="10.507567532116974"><ele>7.0</ele><time>2026-05-02T06:38:24.998Z</time></trkpt><trkpt lat="43.620085692321595" lon="10.50788898612921"><ele>6.5</ele><time>2026-05-02T06:38:25.998Z</time></trkpt><trkpt lat="43.620106718939795" lon="10.508207218494597"><ele>6.0</ele><time>2026-05-02T06:38:26.998Z</time></trkpt><trkpt lat="43.62013578614719" lon="10.508528286458084"><ele>5.5</ele><time>2026-05-02T06:38:27.998Z</time></trkpt><trkpt lat="43.62016788113084" lon="10.50884716101345"><ele>5.0</ele><time>2026-05-02T06:38:28.998Z</time></trkpt><trkpt lat="43.620203162643996" lon="10.509166938473316"><ele>5.0</ele><time>2026-05-02T06:38:29.998Z</time></trkpt><trkpt lat="43.62023992784892" lon="10.509487378065545"><ele>5.0</ele><time>2026-05-02T06:38:30.998Z</time></trkpt><trkpt lat="43.620279654589396" lon="10.5098051488143"><ele>5.5</ele><time>2026-05-02T06:38:31.998Z</time></trkpt><trkpt lat="43.620325964276276" lon="10.510123241432401"><ele>6.0</ele><time>2026-05-02T06:38:32.998Z</time></trkpt><trkpt lat="43.620375750632675" lon="10.510439936175793"><ele>6.0</ele><time>2026-05-02T06:38:33.998Z</time></trkpt><trkpt lat="43.62043241480272" lon="10.51075398066235"><ele>6.0</ele><time>2026-05-02T06:38:34.998Z</time></trkpt><trkpt lat="43.620489415407775" lon="10.511067843881152"><ele>6.5</ele><time>2026-05-02T06:38:35.998Z</time></trkpt><trkpt lat="43.62055642768397" lon="10.511384267268173"><ele>7.0</ele><time>2026-05-02T06:38:36.998Z</time></trkpt><trkpt lat="43.620625745795635" lon="10.5116980517168"><ele>7.0</ele><time>2026-05-02T06:38:37.998Z</time></trkpt><trkpt lat="43.62069823568423" lon="10.512008134310426"><ele>7.0</ele><time>2026-05-02T06:38:38.998Z</time></trkpt><trkpt lat="43.62077191654245" lon="10.512315586966983"><ele>7.0</ele><time>2026-05-02T06:38:39.998Z</time></trkpt><trkpt lat="43.620847363625224" lon="10.512621069447576"><ele>7.0</ele><time>2026-05-02T06:38:40.998Z</time></trkpt><trkpt lat="43.620928814695766" lon="10.512923661446395"><ele>7.0</ele><time>2026-05-02T06:38:41.998Z</time></trkpt><trkpt lat="43.62101290220934" lon="10.513220113089213"><ele>7.0</ele><time>2026-05-02T06:38:42.998Z</time></trkpt><trkpt lat="43.62109940083858" lon="10.51351128559"><ele>6.5</ele><time>2026-05-02T06:38:43.998Z</time></trkpt><trkpt lat="43.6211865728474" lon="10.51380147501856"><ele>6.0</ele><time>2026-05-02T06:38:44.998Z</time></trkpt><trkpt lat="43.621268663960755" lon="10.514091009708997"><ele>6.0</ele><time>2026-05-02T06:38:45.998Z</time></trkpt><trkpt lat="43.621355556914295" lon="10.514372007304264"><ele>6.0</ele><time>2026-05-02T06:38:46.998Z</time></trkpt><trkpt lat="43.62144819272606" lon="10.514656113530318"><ele>6.0</ele><time>2026-05-02T06:38:47.998Z</time></trkpt><trkpt lat="43.621536533425044" lon="10.51494737647039"><ele>6.0</ele><time>2026-05-02T06:38:48.998Z</time></trkpt><trkpt lat="43.6216275115508" lon="10.51523094882763"><ele>6.0</ele><time>2026-05-02T06:38:49.998Z</time></trkpt><trkpt lat="43.62171510655971" lon="10.515525035546663"><ele>6.0</ele><time>2026-05-02T06:38:50.998Z</time></trkpt><trkpt lat="43.621802299583145" lon="10.515819887283541"><ele>6.0</ele><time>2026-05-02T06:38:51.998Z</time></trkpt><trkpt lat="43.62189546456936" lon="10.516111551620561"><ele>5.5</ele><time>2026-05-02T06:38:52.998Z</time></trkpt><trkpt lat="43.621987748732266" lon="10.516405031493512"><ele>5.0</ele><time>2026-05-02T06:38:53.998Z</time></trkpt><trkpt lat="43.62207787912166" lon="10.516701923357404"><ele>5.0</ele><time>2026-05-02T06:38:54.998Z</time></trkpt><trkpt lat="43.62216697178089" lon="10.517004022074834"><ele>5.0</ele><time>2026-05-02T06:38:55.998Z</time></trkpt><trkpt lat="43.622259456098014" lon="10.517304765015234"><ele>5.5</ele><time>2026-05-02T06:38:56.998Z</time></trkpt><trkpt lat="43.622352090312326" lon="10.517605568236275"><ele>6.0</ele><time>2026-05-02T06:38:57.998Z</time></trkpt><trkpt lat="43.62244451430107" lon="10.517910260303632"><ele>6.5</ele><time>2026-05-02T06:38:58.998Z</time></trkpt><trkpt lat="43.622532876017964" lon="10.518215230898312"><ele>7.0</ele><time>2026-05-02T06:38:59.998Z</time></trkpt><trkpt lat="43.622626300591264" lon="10.518517104543486"><ele>6.0</ele><time>2026-05-02T06:39:00.998Z</time></trkpt><trkpt lat="43.62271680741383" lon="10.51881850775579"><ele>5.0</ele><time>2026-05-02T06:39:01.998Z</time></trkpt><trkpt lat="43.62280885091184" lon="10.519119922308713"><ele>5.5</ele><time>2026-05-02T06:39:02.998Z</time></trkpt><trkpt lat="43.62289965188463" lon="10.51941775308189"><ele>6.0</ele><time>2026-05-02T06:39:03.998Z</time></trkpt><trkpt lat="43.622990693231074" lon="10.51971346011325"><ele>6.5</ele><time>2026-05-02T06:39:04.998Z</time></trkpt><trkpt lat="43.62308007403304" lon="10.520003893663862"><ele>7.0</ele><time>2026-05-02T06:39:05.998Z</time></trkpt><trkpt lat="43.623174645913544" lon="10.520292125303262"><ele>8.0</ele><time>2026-05-02T06:39:06.998Z</time></trkpt><trkpt lat="43.623263424549876" lon="10.52058446901396"><ele>9.0</ele><time>2026-05-02T06:39:07.998Z</time></trkpt><trkpt lat="43.62334978655405" lon="10.520877705429161"><ele>9.0</ele><time>2026-05-02T06:39:08.998Z</time></trkpt><trkpt lat="43.623440226677594" lon="10.52116410010111"><ele>9.0</ele><time>2026-05-02T06:39:09.998Z</time></trkpt><trkpt lat="43.623528982199915" lon="10.521452928954048"><ele>8.666666666666666</ele><time>2026-05-02T06:39:10.998Z</time></trkpt><trkpt lat="43.62362228661578" lon="10.521735023918641"><ele>8.333333333333332</ele><time>2026-05-02T06:39:11.998Z</time></trkpt><trkpt lat="43.62370963136209" lon="10.522020754341963"><ele>8.0</ele><time>2026-05-02T06:39:12.997Z</time></trkpt><trkpt lat="43.623799001355955" lon="10.522308048371434"><ele>6.5</ele><time>2026-05-02T06:39:13.997Z</time></trkpt><trkpt lat="43.62388282964914" lon="10.522596220532114"><ele>5.0</ele><time>2026-05-02T06:39:14.997Z</time></trkpt><trkpt lat="43.62396924544232" lon="10.522883339627258"><ele>6.0</ele><time>2026-05-02T06:39:15.997Z</time></trkpt><trkpt lat="43.624055775633074" lon="10.523168385169484"><ele>7.0</ele><time>2026-05-02T06:39:16.997Z</time></trkpt><trkpt lat="43.624140628715374" lon="10.523459927361078"><ele>6.333333333333334</ele><time>2026-05-02T06:39:17.997Z</time></trkpt><trkpt lat="43.62423150415618" lon="10.523742788616607"><ele>5.666666666666667</ele><time>2026-05-02T06:39:18.997Z</time></trkpt><trkpt lat="43.62431406360646" lon="10.524028451441286"><ele>5.0</ele><time>2026-05-02T06:39:19.997Z</time></trkpt><trkpt lat="43.62440047909265" lon="10.524313988836628"><ele>6.5</ele><time>2026-05-02T06:39:20.997Z</time></trkpt><trkpt lat="43.62449401001183" lon="10.524599573554744"><ele>8.0</ele><time>2026-05-02T06:39:21.997Z</time></trkpt><trkpt lat="43.62458422078292" lon="10.524894403541273"><ele>8.0</ele><time>2026-05-02T06:39:22.997Z</time></trkpt><trkpt lat="43.62467146941056" lon="10.525195128357728"><ele>8.0</ele><time>2026-05-02T06:39:23.997Z</time></trkpt><trkpt lat="43.624759819252695" lon="10.525495348591406"><ele>9.0</ele><time>2026-05-02T06:39:24.997Z</time></trkpt><trkpt lat="43.62485004942508" lon="10.525798379341957"><ele>10.0</ele><time>2026-05-02T06:39:25.997Z</time></trkpt><trkpt lat="43.624942768703306" lon="10.526097230551049"><ele>9.0</ele><time>2026-05-02T06:39:26.997Z</time></trkpt><trkpt lat="43.62503698001776" lon="10.5263929067549"><ele>8.0</ele><time>2026-05-02T06:39:27.997Z</time></trkpt><trkpt lat="43.62513189465054" lon="10.526696823418867"><ele>8.0</ele><time>2026-05-02T06:39:28.997Z</time></trkpt><trkpt lat="43.62523881361225" lon="10.527007788052062"><ele>8.0</ele><time>2026-05-02T06:39:29.997Z</time></trkpt><trkpt lat="43.62532962458093" lon="10.527308954018064"><ele>7.5</ele><time>2026-05-02T06:39:30.997Z</time></trkpt><trkpt lat="43.6254173265033" lon="10.527614232888842"><ele>7.0</ele><time>2026-05-02T06:39:31.997Z</time></trkpt><trkpt lat="43.625507298862196" lon="10.527915615467647"><ele>7.0</ele><time>2026-05-02T06:39:32.999Z</time></trkpt><trkpt lat="43.62559790761555" lon="10.52821790596195"><ele>7.0</ele><time>2026-05-02T06:39:33.999Z</time></trkpt><trkpt lat="43.6256928579671" lon="10.5285233100488"><ele>8.0</ele><time>2026-05-02T06:39:34.999Z</time></trkpt><trkpt lat="43.62578461966965" lon="10.528832550900653"><ele>9.0</ele><time>2026-05-02T06:39:36Z</time></trkpt><trkpt lat="43.62587984801911" lon="10.52913236031467"><ele>9.0</ele><time>2026-05-02T06:39:36.999Z</time></trkpt><trkpt lat="43.62597142057912" lon="10.529438146562974"><ele>9.0</ele><time>2026-05-02T06:39:37.999Z</time></trkpt><trkpt lat="43.626061597446494" lon="10.529743955886849"><ele>8.5</ele><time>2026-05-02T06:39:38.999Z</time></trkpt><trkpt lat="43.626150415097975" lon="10.53004142535753"><ele>8.0</ele><time>2026-05-02T06:39:39.999Z</time></trkpt><trkpt lat="43.62623824127165" lon="10.530343578553046"><ele>7.5</ele><time>2026-05-02T06:39:40.999Z</time></trkpt><trkpt lat="43.62632251111574" lon="10.530644396956507"><ele>7.0</ele><time>2026-05-02T06:39:42Z</time></trkpt><trkpt lat="43.626404575214075" lon="10.530939275216012"><ele>6.5</ele><time>2026-05-02T06:39:42.999Z</time></trkpt><trkpt lat="43.62648711633802" lon="10.531234201667008"><ele>6.0</ele><time>2026-05-02T06:39:43.999Z</time></trkpt><trkpt lat="43.6265729497032" lon="10.53152907301712"><ele>6.0</ele><time>2026-05-02T06:39:45Z</time></trkpt><trkpt lat="43.626662230012585" lon="10.531831209873912"><ele>6.0</ele><time>2026-05-02T06:39:45.999Z</time></trkpt><trkpt lat="43.626742221264905" lon="10.532131158957453"><ele>5.0</ele><time>2026-05-02T06:39:46.999Z</time></trkpt><trkpt lat="43.626824040998436" lon="10.532430667308509"><ele>4.0</ele><time>2026-05-02T06:39:47.999Z</time></trkpt><trkpt lat="43.62690834851225" lon="10.53273545408058"><ele>5.0</ele><time>2026-05-02T06:39:48.999Z</time></trkpt><trkpt lat="43.62699028481591" lon="10.533045174555102"><ele>6.0</ele><time>2026-05-02T06:39:49.999Z</time></trkpt><trkpt lat="43.627069602910176" lon="10.533356421490268"><ele>6.0</ele><time>2026-05-02T06:39:50.999Z</time></trkpt><trkpt lat="43.62714690839355" lon="10.533663515431433"><ele>6.0</ele><time>2026-05-02T06:39:51.999Z</time></trkpt><trkpt lat="43.627223078415675" lon="10.53397128477571"><ele>6.5</ele><time>2026-05-02T06:39:52.999Z</time></trkpt><trkpt lat="43.6272990445706" lon="10.5342818004546"><ele>7.0</ele><time>2026-05-02T06:39:53.999Z</time></trkpt><trkpt lat="43.62737110143786" lon="10.534591502695474"><ele>7.0</ele><time>2026-05-02T06:39:54.999Z</time></trkpt><trkpt lat="43.62744160324912" lon="10.534902309176"><ele>7.0</ele><time>2026-05-02T06:39:55.999Z</time></trkpt><trkpt lat="43.6275099753403" lon="10.535209867176773"><ele>7.5</ele><time>2026-05-02T06:39:56.999Z</time></trkpt><trkpt lat="43.62757982659366" lon="10.535522730418524"><ele>8.0</ele><time>2026-05-02T06:39:57.999Z</time></trkpt><trkpt lat="43.62764782883936" lon="10.535838373186737"><ele>8.0</ele><time>2026-05-02T06:39:58.999Z</time></trkpt><trkpt lat="43.62771617309857" lon="10.536157851529072"><ele>8.0</ele><time>2026-05-02T06:39:59.999Z</time></trkpt><trkpt lat="43.627783355997586" lon="10.536482811202307"><ele>8.0</ele><time>2026-05-02T06:40:00.999Z</time></trkpt><trkpt lat="43.62784826068683" lon="10.5368088098571"><ele>8.0</ele><time>2026-05-02T06:40:01.999Z</time></trkpt><trkpt lat="43.627912542141296" lon="10.537137568268541"><ele>8.0</ele><time>2026-05-02T06:40:02.999Z</time></trkpt><trkpt lat="43.62797455090674" lon="10.537468430455371"><ele>8.0</ele><time>2026-05-02T06:40:03.999Z</time></trkpt><trkpt lat="43.62803440485781" lon="10.537795948991421"><ele>8.0</ele><time>2026-05-02T06:40:04.999Z</time></trkpt><trkpt lat="43.62808937527102" lon="10.538128921350927"><ele>8.0</ele><time>2026-05-02T06:40:05.999Z</time></trkpt><trkpt lat="43.62814641855918" lon="10.538462473301925"><ele>8.0</ele><time>2026-05-02T06:40:06.999Z</time></trkpt><trkpt lat="43.628204354032555" lon="10.538796366799401"><ele>8.0</ele><time>2026-05-02T06:40:07.999Z</time></trkpt><trkpt lat="43.62825883575994" lon="10.539125663876257"><ele>8.0</ele><time>2026-05-02T06:40:08.998Z</time></trkpt><trkpt lat="43.62831275637247" lon="10.539456874085797"><ele>8.0</ele><time>2026-05-02T06:40:09.998Z</time></trkpt><trkpt lat="43.62836980704344" lon="10.53977992465156"><ele>8.0</ele><time>2026-05-02T06:40:10.998Z</time></trkpt><trkpt lat="43.62842574788818" lon="10.540101009678429"><ele>8.0</ele><time>2026-05-02T06:40:11.998Z</time></trkpt><trkpt lat="43.62847825611444" lon="10.540421980846416"><ele>7.5</ele><time>2026-05-02T06:40:12.998Z</time></trkpt><trkpt lat="43.628531282986785" lon="10.54073933014613"><ele>7.0</ele><time>2026-05-02T06:40:13.998Z</time></trkpt><trkpt lat="43.62858477241896" lon="10.541056082846003"><ele>7.0</ele><time>2026-05-02T06:40:14.998Z</time></trkpt><trkpt lat="43.628635659858375" lon="10.541370019480693"><ele>7.0</ele><time>2026-05-02T06:40:15.998Z</time></trkpt><trkpt lat="43.628683563149764" lon="10.541683444868207"><ele>7.0</ele><time>2026-05-02T06:40:16.998Z</time></trkpt><trkpt lat="43.628730706782584" lon="10.541994356031042"><ele>7.0</ele><time>2026-05-02T06:40:17.998Z</time></trkpt><trkpt lat="43.628780753132496" lon="10.542303026523133"><ele>7.0</ele><time>2026-05-02T06:40:18.998Z</time></trkpt><trkpt lat="43.62882963706604" lon="10.542616452125706"><ele>7.0</ele><time>2026-05-02T06:40:19.998Z</time></trkpt><trkpt lat="43.62888377107768" lon="10.542931778212392"><ele>7.5</ele><time>2026-05-02T06:40:20.998Z</time></trkpt><trkpt lat="43.62893587950547" lon="10.543249546046603"><ele>8.0</ele><time>2026-05-02T06:40:21.998Z</time></trkpt><trkpt lat="43.62898833188513" lon="10.543565267180782"><ele>7.5</ele><time>2026-05-02T06:40:22.998Z</time></trkpt><trkpt lat="43.62904237264192" lon="10.54388426964769"><ele>7.0</ele><time>2026-05-02T06:40:23.998Z</time></trkpt><trkpt lat="43.62909602106165" lon="10.544204568538987"><ele>7.0</ele><time>2026-05-02T06:40:24.998Z</time></trkpt><trkpt lat="43.629152017205634" lon="10.544527403216946"><ele>7.0</ele><time>2026-05-02T06:40:25.998Z</time></trkpt><trkpt lat="43.62920591962721" lon="10.544848864937713"><ele>7.5</ele><time>2026-05-02T06:40:26.998Z</time></trkpt><trkpt lat="43.62925989682085" lon="10.545169515506341"><ele>8.0</ele><time>2026-05-02T06:40:27.998Z</time></trkpt><trkpt lat="43.62931407178744" lon="10.545494839926363"><ele>7.0</ele><time>2026-05-02T06:40:28.998Z</time></trkpt><trkpt lat="43.62936726346901" lon="10.545818729473972"><ele>6.0</ele><time>2026-05-02T06:40:29.998Z</time></trkpt><trkpt lat="43.62941894480608" lon="10.546145679005482"><ele>5.5</ele><time>2026-05-02T06:40:30.998Z</time></trkpt><trkpt lat="43.62947096270572" lon="10.546469155721613"><ele>5.0</ele><time>2026-05-02T06:40:31.998Z</time></trkpt><trkpt lat="43.629522634846445" lon="10.54679406735699"><ele>6.5</ele><time>2026-05-02T06:40:32.998Z</time></trkpt><trkpt lat="43.629575349939806" lon="10.54711707737346"><ele>8.0</ele><time>2026-05-02T06:40:33.998Z</time></trkpt><trkpt lat="43.62962604786457" lon="10.547435312668192"><ele>8.0</ele><time>2026-05-02T06:40:34.998Z</time></trkpt><trkpt lat="43.629679157179076" lon="10.547750418362286"><ele>8.0</ele><time>2026-05-02T06:40:35.998Z</time></trkpt><trkpt lat="43.62973138351472" lon="10.548066876586498"><ele>8.0</ele><time>2026-05-02T06:40:36.998Z</time></trkpt><trkpt lat="43.62978463703481" lon="10.548383480403212"><ele>8.0</ele><time>2026-05-02T06:40:37.998Z</time></trkpt><trkpt lat="43.62983629789657" lon="10.548696975143654"><ele>8.0</ele><time>2026-05-02T06:40:38.998Z</time></trkpt><trkpt lat="43.62988829936555" lon="10.5490154540321"><ele>8.0</ele><time>2026-05-02T06:40:39.998Z</time></trkpt><trkpt lat="43.62994136844927" lon="10.549334319532486"><ele>7.5</ele><time>2026-05-02T06:40:40.998Z</time></trkpt><trkpt lat="43.62999615060814" lon="10.549649698505135"><ele>7.0</ele><time>2026-05-02T06:40:41.998Z</time></trkpt><trkpt lat="43.630048085927214" lon="10.549965775477277"><ele>7.0</ele><time>2026-05-02T06:40:42.998Z</time></trkpt><trkpt lat="43.630102996425045" lon="10.550280405876338"><ele>7.0</ele><time>2026-05-02T06:40:43.998Z</time></trkpt><trkpt lat="43.63015903539781" lon="10.550595609515119"><ele>7.0</ele><time>2026-05-02T06:40:44.998Z</time></trkpt><trkpt lat="43.630214484209716" lon="10.550914173054121"><ele>7.0</ele><time>2026-05-02T06:40:45.998Z</time></trkpt><trkpt lat="43.63026963415346" lon="10.55123357330088"><ele>7.0</ele><time>2026-05-02T06:40:46.998Z</time></trkpt><trkpt lat="43.630323263334" lon="10.551554508857972"><ele>7.0</ele><time>2026-05-02T06:40:47.998Z</time></trkpt><trkpt lat="43.630379418558206" lon="10.551873163623165"><ele>8.0</ele><time>2026-05-02T06:40:48.998Z</time></trkpt><trkpt lat="43.630438070861786" lon="10.552192600680067"><ele>9.0</ele><time>2026-05-02T06:40:49.998Z</time></trkpt><trkpt lat="43.63050435510103" lon="10.552513535997164"><ele>9.0</ele><time>2026-05-02T06:40:50.998Z</time></trkpt><trkpt lat="43.63056899138073" lon="10.552830218990167"><ele>9.0</ele><time>2026-05-02T06:40:51.998Z</time></trkpt><trkpt lat="43.6306318357609" lon="10.55315409208377"><ele>8.0</ele><time>2026-05-02T06:40:52.998Z</time></trkpt><trkpt lat="43.63069048592319" lon="10.553475991296986"><ele>7.0</ele><time>2026-05-02T06:40:53.998Z</time></trkpt><trkpt lat="43.630743687773354" lon="10.553798006176631"><ele>6.0</ele><time>2026-05-02T06:40:54.998Z</time></trkpt><trkpt lat="43.630799187976585" lon="10.55411920241149"><ele>5.0</ele><time>2026-05-02T06:40:55.998Z</time></trkpt><trkpt lat="43.63085784717492" lon="10.554441397384982"><ele>5.5</ele><time>2026-05-02T06:40:56.998Z</time></trkpt><trkpt lat="43.63091592022891" lon="10.55476277331747"><ele>6.0</ele><time>2026-05-02T06:40:57.998Z</time></trkpt><trkpt lat="43.63097270146872" lon="10.555079798851626"><ele>7.5</ele><time>2026-05-02T06:40:58.998Z</time></trkpt><trkpt lat="43.631022857887295" lon="10.55539988071755"><ele>9.0</ele><time>2026-05-02T06:40:59.998Z</time></trkpt><trkpt lat="43.63106909710263" lon="10.555723001089529"><ele>9.0</ele><time>2026-05-02T06:41:00.998Z</time></trkpt><trkpt lat="43.63111569171063" lon="10.55604476799851"><ele>9.0</ele><time>2026-05-02T06:41:01.998Z</time></trkpt><trkpt lat="43.63116550967586" lon="10.556365096987022"><ele>8.5</ele><time>2026-05-02T06:41:02.998Z</time></trkpt><trkpt lat="43.631216075617836" lon="10.55669403455833"><ele>8.0</ele><time>2026-05-02T06:41:03.998Z</time></trkpt><trkpt lat="43.631272701843315" lon="10.55700842998867"><ele>8.0</ele><time>2026-05-02T06:41:04.998Z</time></trkpt><trkpt lat="43.63132952543894" lon="10.557321431669319"><ele>8.0</ele><time>2026-05-02T06:41:05.998Z</time></trkpt><trkpt lat="43.63138513425275" lon="10.557637810077978"><ele>7.5</ele><time>2026-05-02T06:41:06.998Z</time></trkpt><trkpt lat="43.631444142697035" lon="10.557953242523121"><ele>7.0</ele><time>2026-05-02T06:41:07.998Z</time></trkpt><trkpt lat="43.63150079648286" lon="10.558270962319407"><ele>7.0</ele><time>2026-05-02T06:41:08.998Z</time></trkpt><trkpt lat="43.63156169017104" lon="10.55859233114405"><ele>7.0</ele><time>2026-05-02T06:41:09.997Z</time></trkpt><trkpt lat="43.63162247203223" lon="10.558914773113072"><ele>7.0</ele><time>2026-05-02T06:41:10.997Z</time></trkpt><trkpt lat="43.63167937714612" lon="10.559231437153565"><ele>7.0</ele><time>2026-05-02T06:41:11.997Z</time></trkpt><trkpt lat="43.63173422575966" lon="10.559549895442693"><ele>8.0</ele><time>2026-05-02T06:41:12.997Z</time></trkpt><trkpt lat="43.63178966297752" lon="10.559866790139019"><ele>9.0</ele><time>2026-05-02T06:41:13.997Z</time></trkpt><trkpt lat="43.631847861163465" lon="10.560184120087438"><ele>8.5</ele><time>2026-05-02T06:41:14.997Z</time></trkpt><trkpt lat="43.631907056758905" lon="10.56050209693708"><ele>8.0</ele><time>2026-05-02T06:41:15.997Z</time></trkpt><trkpt lat="43.63196525451418" lon="10.560816135399778"><ele>8.0</ele><time>2026-05-02T06:41:16.997Z</time></trkpt><trkpt lat="43.63202202335161" lon="10.5611391492008"><ele>8.0</ele><time>2026-05-02T06:41:17.997Z</time></trkpt><trkpt lat="43.63207542781354" lon="10.561462324576807"><ele>8.0</ele><time>2026-05-02T06:41:18.997Z</time></trkpt><trkpt lat="43.63212723630736" lon="10.561791874577983"><ele>8.0</ele><time>2026-05-02T06:41:19.997Z</time></trkpt><trkpt lat="43.63218111169862" lon="10.562129863335583"><ele>8.0</ele><time>2026-05-02T06:41:20.997Z</time></trkpt><trkpt lat="43.63223926507767" lon="10.562466842785785"><ele>8.0</ele><time>2026-05-02T06:41:21.997Z</time></trkpt><trkpt lat="43.632298413260045" lon="10.562805835630023"><ele>7.0</ele><time>2026-05-02T06:41:22.997Z</time></trkpt><trkpt lat="43.632366102510574" lon="10.56313922855548"><ele>6.0</ele><time>2026-05-02T06:41:23.997Z</time></trkpt><trkpt lat="43.63243144105446" lon="10.563471707028642"><ele>7.0</ele><time>2026-05-02T06:41:24.997Z</time></trkpt><trkpt lat="43.63249983366066" lon="10.563805547058601"><ele>8.0</ele><time>2026-05-02T06:41:25.997Z</time></trkpt><trkpt lat="43.63256364794524" lon="10.564141041388583"><ele>8.0</ele><time>2026-05-02T06:41:26.997Z</time></trkpt><trkpt lat="43.63262250375821" lon="10.564475225993807"><ele>8.0</ele><time>2026-05-02T06:41:27.997Z</time></trkpt><trkpt lat="43.63268642752047" lon="10.564808217208254"><ele>7.5</ele><time>2026-05-02T06:41:28.997Z</time></trkpt><trkpt lat="43.63274993810463" lon="10.565138864746936"><ele>7.0</ele><time>2026-05-02T06:41:29.997Z</time></trkpt><trkpt lat="43.63281245426147" lon="10.565473988489021"><ele>8.0</ele><time>2026-05-02T06:41:30.997Z</time></trkpt><trkpt lat="43.632875892242524" lon="10.56580866571141"><ele>9.0</ele><time>2026-05-02T06:41:31.997Z</time></trkpt><trkpt lat="43.63293671961987" lon="10.56614075433313"><ele>10.0</ele><time>2026-05-02T06:41:32.997Z</time></trkpt><trkpt lat="43.63299430525061" lon="10.566470581568586"><ele>11.0</ele><time>2026-05-02T06:41:33.997Z</time></trkpt><trkpt lat="43.63305449684248" lon="10.56680049612251"><ele>10.0</ele><time>2026-05-02T06:41:34.997Z</time></trkpt><trkpt lat="43.633115015622046" lon="10.567126445987306"><ele>9.0</ele><time>2026-05-02T06:41:35.997Z</time></trkpt><trkpt lat="43.63317545217292" lon="10.567448325256219"><ele>9.0</ele><time>2026-05-02T06:41:36.997Z</time></trkpt><trkpt lat="43.63323575594717" lon="10.567774790152283"><ele>9.0</ele><time>2026-05-02T06:41:37.997Z</time></trkpt><trkpt lat="43.633299560974116" lon="10.568090254364476"><ele>9.0</ele><time>2026-05-02T06:41:39Z</time></trkpt><trkpt lat="43.63336294323939" lon="10.568403118595818"><ele>9.0</ele><time>2026-05-02T06:41:39.999Z</time></trkpt><trkpt lat="43.63342205857566" lon="10.56871972972628"><ele>9.0</ele><time>2026-05-02T06:41:40.999Z</time></trkpt><trkpt lat="43.63347244618914" lon="10.56904269006834"><ele>9.0</ele><time>2026-05-02T06:41:42Z</time></trkpt><trkpt lat="43.63351888703872" lon="10.569362430590902"><ele>9.0</ele><time>2026-05-02T06:41:42.999Z</time></trkpt><trkpt lat="43.63356484227466" lon="10.569690989917556"><ele>9.0</ele><time>2026-05-02T06:41:43.999Z</time></trkpt><trkpt lat="43.63362249898867" lon="10.570011979862468"><ele>9.0</ele><time>2026-05-02T06:41:44.999Z</time></trkpt><trkpt lat="43.633678567399265" lon="10.570331267604992"><ele>9.0</ele><time>2026-05-02T06:41:45.999Z</time></trkpt><trkpt lat="43.63373444504344" lon="10.570655195090197"><ele>9.0</ele><time>2026-05-02T06:41:46.999Z</time></trkpt><trkpt lat="43.63378873734329" lon="10.570984201307324"><ele>9.0</ele><time>2026-05-02T06:41:47.999Z</time></trkpt><trkpt lat="43.633846536838384" lon="10.571306913941578"><ele>8.5</ele><time>2026-05-02T06:41:48.999Z</time></trkpt><trkpt lat="43.63389643974722" lon="10.571629909152621"><ele>8.0</ele><time>2026-05-02T06:41:49.999Z</time></trkpt><trkpt lat="43.63393882822761" lon="10.571951446770354"><ele>7.5</ele><time>2026-05-02T06:41:50.999Z</time></trkpt><trkpt lat="43.633978634682556" lon="10.572271606971508"><ele>7.0</ele><time>2026-05-02T06:41:51.999Z</time></trkpt><trkpt lat="43.63401102202948" lon="10.572587266673757"><ele>7.5</ele><time>2026-05-02T06:41:52.999Z</time></trkpt><trkpt lat="43.63403825917833" lon="10.572904616278509"><ele>8.0</ele><time>2026-05-02T06:41:53.999Z</time></trkpt><trkpt lat="43.63406091461764" lon="10.573223862922024"><ele>8.0</ele><time>2026-05-02T06:41:54.999Z</time></trkpt><trkpt lat="43.63408043981123" lon="10.573551544731476"><ele>8.0</ele><time>2026-05-02T06:41:55.999Z</time></trkpt><trkpt lat="43.63409964481191" lon="10.573877018922579"><ele>9.0</ele><time>2026-05-02T06:41:56.999Z</time></trkpt><trkpt lat="43.63411906131237" lon="10.574207684923019"><ele>10.0</ele><time>2026-05-02T06:41:57.999Z</time></trkpt><trkpt lat="43.63413501695936" lon="10.57453649390859"><ele>10.0</ele><time>2026-05-02T06:41:58.999Z</time></trkpt><trkpt lat="43.63415161851629" lon="10.574865369440337"><ele>10.0</ele><time>2026-05-02T06:41:59.999Z</time></trkpt><trkpt lat="43.634160872193604" lon="10.57519267418611"><ele>9.0</ele><time>2026-05-02T06:42:00.999Z</time></trkpt><trkpt lat="43.63416722588431" lon="10.575522403998074"><ele>8.0</ele><time>2026-05-02T06:42:01.999Z</time></trkpt><trkpt lat="43.63417026567593" lon="10.57585173029975"><ele>8.0</ele><time>2026-05-02T06:42:02.999Z</time></trkpt><trkpt lat="43.63417121790251" lon="10.576180881962253"><ele>8.0</ele><time>2026-05-02T06:42:03.999Z</time></trkpt><trkpt lat="43.63417097306387" lon="10.57650608712331"><ele>8.0</ele><time>2026-05-02T06:42:04.999Z</time></trkpt><trkpt lat="43.63417073291923" lon="10.576832161504907"><ele>8.0</ele><time>2026-05-02T06:42:05.999Z</time></trkpt><trkpt lat="43.63417136395965" lon="10.577159170446023"><ele>8.5</ele><time>2026-05-02T06:42:06.999Z</time></trkpt><trkpt lat="43.63417693610493" lon="10.577489641531871"><ele>9.0</ele><time>2026-05-02T06:42:07.999Z</time></trkpt><trkpt lat="43.63418613240636" lon="10.577817225118968"><ele>9.5</ele><time>2026-05-02T06:42:08.999Z</time></trkpt><trkpt lat="43.634192587954544" lon="10.578141536700695"><ele>10.0</ele><time>2026-05-02T06:42:09.999Z</time></trkpt><trkpt lat="43.634196635704214" lon="10.578465183641622"><ele>9.5</ele><time>2026-05-02T06:42:10.999Z</time></trkpt><trkpt lat="43.634197763046274" lon="10.578790510910673"><ele>9.0</ele><time>2026-05-02T06:42:11.999Z</time></trkpt><trkpt lat="43.634196926060106" lon="10.579127840777609"><ele>9.0</ele><time>2026-05-02T06:42:12.999Z</time></trkpt><trkpt lat="43.63419679060707" lon="10.579463721148576"><ele>9.0</ele><time>2026-05-02T06:42:13.999Z</time></trkpt><trkpt lat="43.634203267179025" lon="10.579787224765376"><ele>9.0</ele><time>2026-05-02T06:42:14.999Z</time></trkpt><trkpt lat="43.63421314697667" lon="10.58010867474449"><ele>9.0</ele><time>2026-05-02T06:42:15.999Z</time></trkpt><trkpt lat="43.63422618084233" lon="10.580429380559934"><ele>10.0</ele><time>2026-05-02T06:42:16.999Z</time></trkpt><trkpt lat="43.634234799424384" lon="10.580752432156856"><ele>11.0</ele><time>2026-05-02T06:42:17.999Z</time></trkpt><trkpt lat="43.63424103653004" lon="10.581076687798822"><ele>11.0</ele><time>2026-05-02T06:42:18.999Z</time></trkpt><trkpt lat="43.63424556898213" lon="10.58139196396671"><ele>11.0</ele><time>2026-05-02T06:42:19.999Z</time></trkpt><trkpt lat="43.63425013312627" lon="10.581713228431374"><ele>11.5</ele><time>2026-05-02T06:42:20.999Z</time></trkpt><trkpt lat="43.63425531919818" lon="10.58203624679451"><ele>12.0</ele><time>2026-05-02T06:42:21.999Z</time></trkpt><trkpt lat="43.63425930197937" lon="10.582355255321568"><ele>12.0</ele><time>2026-05-02T06:42:22.999Z</time></trkpt><trkpt lat="43.634261620621466" lon="10.582674854139347"><ele>12.0</ele><time>2026-05-02T06:42:23.999Z</time></trkpt><trkpt lat="43.634264458495984" lon="10.583000570060054"><ele>11.0</ele><time>2026-05-02T06:42:24.999Z</time></trkpt><trkpt lat="43.634268390881935" lon="10.583326951581968"><ele>10.0</ele><time>2026-05-02T06:42:25.999Z</time></trkpt><trkpt lat="43.63427538498106" lon="10.583653995183376"><ele>9.5</ele><time>2026-05-02T06:42:26.999Z</time></trkpt><trkpt lat="43.63428426278786" lon="10.583975993918152"><ele>9.0</ele><time>2026-05-02T06:42:27.999Z</time></trkpt><trkpt lat="43.63428779764505" lon="10.584298328036288"><ele>11.0</ele><time>2026-05-02T06:42:28.999Z</time></trkpt><trkpt lat="43.634293185467605" lon="10.584627554623367"><ele>13.0</ele><time>2026-05-02T06:42:29.999Z</time></trkpt><trkpt lat="43.63428931663431" lon="10.5849554672873"><ele>13.0</ele><time>2026-05-02T06:42:30.999Z</time></trkpt><trkpt lat="43.634287636083535" lon="10.585280846761865"><ele>13.0</ele><time>2026-05-02T06:42:31.999Z</time></trkpt><trkpt lat="43.634280380808896" lon="10.585606636046297"><ele>13.0</ele><time>2026-05-02T06:42:32.999Z</time></trkpt><trkpt lat="43.634265123394854" lon="10.585934069762475"><ele>13.0</ele><time>2026-05-02T06:42:33.999Z</time></trkpt><trkpt lat="43.63424945578603" lon="10.586256796125507"><ele>12.0</ele><time>2026-05-02T06:42:34.999Z</time></trkpt><trkpt lat="43.6342260650203" lon="10.586587760186775"><ele>11.0</ele><time>2026-05-02T06:42:35.999Z</time></trkpt><trkpt lat="43.63419860833759" lon="10.586917576725009"><ele>9.5</ele><time>2026-05-02T06:42:36.999Z</time></trkpt><trkpt lat="43.634171187615365" lon="10.587227386632529"><ele>8.0</ele><time>2026-05-02T06:42:37.999Z</time></trkpt><trkpt lat="43.63413871200878" lon="10.587538620175868"><ele>9.5</ele><time>2026-05-02T06:42:38.999Z</time></trkpt><trkpt lat="43.6340994847886" lon="10.587851816296615"><ele>11.0</ele><time>2026-05-02T06:42:39.999Z</time></trkpt><trkpt lat="43.63406338286023" lon="10.588164143657782"><ele>11.0</ele><time>2026-05-02T06:42:40.999Z</time></trkpt><trkpt lat="43.63402264180009" lon="10.588468209268893"><ele>11.0</ele><time>2026-05-02T06:42:41.999Z</time></trkpt><trkpt lat="43.633975603043304" lon="10.588763437185024"><ele>11.0</ele><time>2026-05-02T06:42:42.999Z</time></trkpt><trkpt lat="43.63393030426397" lon="10.589062956111144"><ele>12.0</ele><time>2026-05-02T06:42:43.999Z</time></trkpt><trkpt lat="43.6338901421321" lon="10.589365337340602"><ele>13.0</ele><time>2026-05-02T06:42:44.999Z</time></trkpt><trkpt lat="43.63385345860452" lon="10.589667385670117"><ele>14.0</ele><time>2026-05-02T06:42:45.999Z</time></trkpt><trkpt lat="43.633820311669446" lon="10.589967984434375"><ele>14.0</ele><time>2026-05-02T06:42:46.998Z</time></trkpt><trkpt lat="43.63379909733467" lon="10.590285808732538"><ele>14.0</ele><time>2026-05-02T06:42:47.998Z</time></trkpt><trkpt lat="43.63376047870785" lon="10.590588997398756"><ele>13.666666666666668</ele><time>2026-05-02T06:42:48.998Z</time></trkpt><trkpt lat="43.6337231680617" lon="10.59088824068898"><ele>13.333333333333332</ele><time>2026-05-02T06:42:49.998Z</time></trkpt><trkpt lat="43.633683869633636" lon="10.591183816967309"><ele>13.0</ele><time>2026-05-02T06:42:50.998Z</time></trkpt><trkpt lat="43.633645156219195" lon="10.591475926624447"><ele>13.0</ele><time>2026-05-02T06:42:51.998Z</time></trkpt><trkpt lat="43.633606102067034" lon="10.591767362980194"><ele>13.0</ele><time>2026-05-02T06:42:52.998Z</time></trkpt><trkpt lat="43.63356857375528" lon="10.592052594084876"><ele>13.0</ele><time>2026-05-02T06:42:53.998Z</time></trkpt><trkpt lat="43.6335309748423" lon="10.59233659876944"><ele>13.0</ele><time>2026-05-02T06:42:54.998Z</time></trkpt><trkpt lat="43.63349716906475" lon="10.592619773111323"><ele>13.0</ele><time>2026-05-02T06:42:55.998Z</time></trkpt><trkpt lat="43.63345793248143" lon="10.592903031202777"><ele>13.0</ele><time>2026-05-02T06:42:56.998Z</time></trkpt><trkpt lat="43.633424177690166" lon="10.593176221656439"><ele>13.333333333333332</ele><time>2026-05-02T06:42:57.998Z</time></trkpt><trkpt lat="43.63338975868792" lon="10.593442510350895"><ele>13.666666666666668</ele><time>2026-05-02T06:42:58.998Z</time></trkpt><trkpt lat="43.63335400737121" lon="10.59370389057612"><ele>14.0</ele><time>2026-05-02T06:42:59.998Z</time></trkpt><trkpt lat="43.63332211238161" lon="10.593955110555203"><ele>14.333333333333334</ele><time>2026-05-02T06:43:00.998Z</time></trkpt><trkpt lat="43.633300727509415" lon="10.594201837862556"><ele>14.666666666666668</ele><time>2026-05-02T06:43:01.998Z</time></trkpt><trkpt lat="43.633277639694654" lon="10.594457368349206"><ele>15.0</ele><time>2026-05-02T06:43:02.998Z</time></trkpt><trkpt lat="43.633250703798595" lon="10.594725766957497"><ele>14.333333333333332</ele><time>2026-05-02T06:43:03.998Z</time></trkpt><trkpt lat="43.63321528801897" lon="10.595003212976533"><ele>13.666666666666666</ele><time>2026-05-02T06:43:04.998Z</time></trkpt><trkpt lat="43.63318055664111" lon="10.59529008761462"><ele>13.0</ele><time>2026-05-02T06:43:05.998Z</time></trkpt><trkpt lat="43.63314338320036" lon="10.595576072245153"><ele>12.666666666666666</ele><time>2026-05-02T06:43:06.998Z</time></trkpt><trkpt lat="43.63309905433068" lon="10.595873822837348"><ele>12.333333333333332</ele><time>2026-05-02T06:43:07.998Z</time></trkpt><trkpt lat="43.63305500559148" lon="10.59617237389669"><ele>12.0</ele><time>2026-05-02T06:43:08.998Z</time></trkpt><trkpt lat="43.6330143920803" lon="10.596471595741356"><ele>12.0</ele><time>2026-05-02T06:43:09.998Z</time></trkpt><trkpt lat="43.63296822118357" lon="10.596770465163978"><ele>12.0</ele><time>2026-05-02T06:43:10.998Z</time></trkpt><trkpt lat="43.63292914756624" lon="10.5970677833135"><ele>12.0</ele><time>2026-05-02T06:43:11.998Z</time></trkpt><trkpt lat="43.6328956149464" lon="10.597370486660992"><ele>12.0</ele><time>2026-05-02T06:43:12.998Z</time></trkpt><trkpt lat="43.63286377205071" lon="10.597676174117014"><ele>12.0</ele><time>2026-05-02T06:43:13.998Z</time></trkpt><trkpt lat="43.63283354960901" lon="10.597986491265987"><ele>12.5</ele><time>2026-05-02T06:43:14.998Z</time></trkpt><trkpt lat="43.63280186553493" lon="10.598302850223654"><ele>13.0</ele><time>2026-05-02T06:43:15.998Z</time></trkpt><trkpt lat="43.632777314401515" lon="10.598616651626937"><ele>13.0</ele><time>2026-05-02T06:43:16.998Z</time></trkpt><trkpt lat="43.63275755690117" lon="10.598931898188031"><ele>13.0</ele><time>2026-05-02T06:43:17.998Z</time></trkpt><trkpt lat="43.632745538386565" lon="10.599251875287784"><ele>13.0</ele><time>2026-05-02T06:43:18.998Z</time></trkpt><trkpt lat="43.632736927296314" lon="10.599570147489894"><ele>13.0</ele><time>2026-05-02T06:43:19.998Z</time></trkpt><trkpt lat="43.63273107893898" lon="10.599890160175887"><ele>13.0</ele><time>2026-05-02T06:43:20.998Z</time></trkpt><trkpt lat="43.632732950360385" lon="10.600207947438143"><ele>13.0</ele><time>2026-05-02T06:43:21.998Z</time></trkpt><trkpt lat="43.63274230424753" lon="10.600524521109545"><ele>13.333333333333332</ele><time>2026-05-02T06:43:22.998Z</time></trkpt><trkpt lat="43.63275810901148" lon="10.600836608857843"><ele>13.666666666666668</ele><time>2026-05-02T06:43:23.998Z</time></trkpt><trkpt lat="43.63278104018543" lon="10.60114302276448"><ele>14.0</ele><time>2026-05-02T06:43:24.998Z</time></trkpt><trkpt lat="43.63280129717269" lon="10.601450665031967"><ele>14.666666666666668</ele><time>2026-05-02T06:43:25.998Z</time></trkpt><trkpt lat="43.63282105033511" lon="10.601754862471719"><ele>15.333333333333332</ele><time>2026-05-02T06:43:26.998Z</time></trkpt><trkpt lat="43.63284669476735" lon="10.602052335841202"><ele>16.0</ele><time>2026-05-02T06:43:27.998Z</time></trkpt><trkpt lat="43.632887079476376" lon="10.602346905312045"><ele>16.0</ele><time>2026-05-02T06:43:28.998Z</time></trkpt><trkpt lat="43.632931235175434" lon="10.602646566587495"><ele>16.0</ele><time>2026-05-02T06:43:29.998Z</time></trkpt><trkpt lat="43.63297740813307" lon="10.60294525469817"><ele>16.0</ele><time>2026-05-02T06:43:30.998Z</time></trkpt><trkpt lat="43.63303499759981" lon="10.603248179105817"><ele>15.666666666666666</ele><time>2026-05-02T06:43:31.998Z</time></trkpt><trkpt lat="43.63309353269913" lon="10.603543740219745"><ele>15.333333333333332</ele><time>2026-05-02T06:43:32.998Z</time></trkpt><trkpt lat="43.63315993816725" lon="10.603842141095864"><ele>15.0</ele><time>2026-05-02T06:43:33.998Z</time></trkpt><trkpt lat="43.63323151850119" lon="10.604142284028983"><ele>16.0</ele><time>2026-05-02T06:43:34.998Z</time></trkpt><trkpt lat="43.633307027186056" lon="10.604436132873627"><ele>17.0</ele><time>2026-05-02T06:43:35.998Z</time></trkpt><trkpt lat="43.63339190854619" lon="10.604726876679516"><ele>17.0</ele><time>2026-05-02T06:43:36.998Z</time></trkpt><trkpt lat="43.63347616145025" lon="10.605019500012876"><ele>17.0</ele><time>2026-05-02T06:43:37.998Z</time></trkpt><trkpt lat="43.63356402098939" lon="10.60531298813404"><ele>15.5</ele><time>2026-05-02T06:43:38.998Z</time></trkpt><trkpt lat="43.633659388768734" lon="10.605601022390264"><ele>14.0</ele><time>2026-05-02T06:43:39.998Z</time></trkpt><trkpt lat="43.63376802479466" lon="10.605887241828047"><ele>15.0</ele><time>2026-05-02T06:43:40.998Z</time></trkpt><trkpt lat="43.633880905147024" lon="10.606168638675266"><ele>16.0</ele><time>2026-05-02T06:43:41.998Z</time></trkpt><trkpt lat="43.63400066304729" lon="10.606441018120295"><ele>16.0</ele><time>2026-05-02T06:43:42.998Z</time></trkpt><trkpt lat="43.6341251232584" lon="10.606712370437805"><ele>16.0</ele><time>2026-05-02T06:43:43.998Z</time></trkpt><trkpt lat="43.63425717860279" lon="10.606986536675706"><ele>15.5</ele><time>2026-05-02T06:43:44.999Z</time></trkpt><trkpt lat="43.63439328896239" lon="10.607253017704833"><ele>15.0</ele><time>2026-05-02T06:43:45.998Z</time></trkpt><trkpt lat="43.63453181977785" lon="10.607514235531676"><ele>15.0</ele><time>2026-05-02T06:43:46.998Z</time></trkpt><trkpt lat="43.63467243819372" lon="10.607768373086753"><ele>15.0</ele><time>2026-05-02T06:43:48Z</time></trkpt><trkpt lat="43.634813437146626" lon="10.60802240996929"><ele>14.5</ele><time>2026-05-02T06:43:48.999Z</time></trkpt><trkpt lat="43.6349616612573" lon="10.608269142697905"><ele>14.0</ele><time>2026-05-02T06:43:49.999Z</time></trkpt><trkpt lat="43.63511625454724" lon="10.60850922820498"><ele>14.0</ele><time>2026-05-02T06:43:50.999Z</time></trkpt><trkpt lat="43.63527044199294" lon="10.608743928381195"><ele>14.0</ele><time>2026-05-02T06:43:51.999Z</time></trkpt><trkpt lat="43.635427138140024" lon="10.608973789673595"><ele>14.5</ele><time>2026-05-02T06:43:52.999Z</time></trkpt><trkpt lat="43.63558201387374" lon="10.609202378469922"><ele>15.0</ele><time>2026-05-02T06:43:54Z</time></trkpt><trkpt lat="43.63573724311428" lon="10.609425501184587"><ele>16.0</ele><time>2026-05-02T06:43:55Z</time></trkpt><trkpt lat="43.63590273063137" lon="10.609644042818"><ele>17.0</ele><time>2026-05-02T06:43:55.999Z</time></trkpt><trkpt lat="43.63607336126238" lon="10.609872280020488"><ele>16.333333333333336</ele><time>2026-05-02T06:43:56.999Z</time></trkpt><trkpt lat="43.636228131810896" lon="10.610077462155184"><ele>15.666666666666668</ele><time>2026-05-02T06:43:57.999Z</time></trkpt><trkpt lat="43.63639023433684" lon="10.61028396733079"><ele>15.0</ele><time>2026-05-02T06:43:58.999Z</time></trkpt><trkpt lat="43.63655445318856" lon="10.610495957243607"><ele>15.0</ele><time>2026-05-02T06:43:59.999Z</time></trkpt><trkpt lat="43.636715890288315" lon="10.610716842967973"><ele>15.0</ele><time>2026-05-02T06:44:00.999Z</time></trkpt><trkpt lat="43.63688567369705" lon="10.610942913767095"><ele>15.5</ele><time>2026-05-02T06:44:01.999Z</time></trkpt><trkpt lat="43.63705337956788" lon="10.611160376028554"><ele>16.0</ele><time>2026-05-02T06:44:02.999Z</time></trkpt><trkpt lat="43.63721936115649" lon="10.61138153515008"><ele>16.0</ele><time>2026-05-02T06:44:03.999Z</time></trkpt><trkpt lat="43.63738273892559" lon="10.611601477429938"><ele>16.0</ele><time>2026-05-02T06:44:04.999Z</time></trkpt><trkpt lat="43.637545369958595" lon="10.611820434624923"><ele>16.0</ele><time>2026-05-02T06:44:05.999Z</time></trkpt><trkpt lat="43.63772223606155" lon="10.612028727333277"><ele>16.0</ele><time>2026-05-02T06:44:06.999Z</time></trkpt><trkpt lat="43.637901642957765" lon="10.612234532416991"><ele>16.0</ele><time>2026-05-02T06:44:07.999Z</time></trkpt><trkpt lat="43.63807729800166" lon="10.612446706333825"><ele>16.0</ele><time>2026-05-02T06:44:08.999Z</time></trkpt><trkpt lat="43.638243782054126" lon="10.612666925710295"><ele>16.0</ele><time>2026-05-02T06:44:09.999Z</time></trkpt><trkpt lat="43.63841555454331" lon="10.612895440664849"><ele>16.0</ele><time>2026-05-02T06:44:10.999Z</time></trkpt><trkpt lat="43.638582523632834" lon="10.613120305568843"><ele>15.5</ele><time>2026-05-02T06:44:11.999Z</time></trkpt><trkpt lat="43.63876056776121" lon="10.613354328775758"><ele>15.0</ele><time>2026-05-02T06:44:12.999Z</time></trkpt><trkpt lat="43.63893658984302" lon="10.613579267522677"><ele>15.0</ele><time>2026-05-02T06:44:13.999Z</time></trkpt><trkpt lat="43.63911049673357" lon="10.613803868643652"><ele>15.0</ele><time>2026-05-02T06:44:14.999Z</time></trkpt><trkpt lat="43.63927933269033" lon="10.614026898881738"><ele>15.0</ele><time>2026-05-02T06:44:15.999Z</time></trkpt><trkpt lat="43.6394507217393" lon="10.614257986243297"><ele>15.0</ele><time>2026-05-02T06:44:16.999Z</time></trkpt><trkpt lat="43.639621716381185" lon="10.614482240079276"><ele>15.5</ele><time>2026-05-02T06:44:17.999Z</time></trkpt><trkpt lat="43.639790793600824" lon="10.614707480041615"><ele>16.0</ele><time>2026-05-02T06:44:18.999Z</time></trkpt><trkpt lat="43.63996195839679" lon="10.614936498359368"><ele>16.0</ele><time>2026-05-02T06:44:19.999Z</time></trkpt><trkpt lat="43.64013176322965" lon="10.615170778769379"><ele>16.0</ele><time>2026-05-02T06:44:20.999Z</time></trkpt><trkpt lat="43.6402944066892" lon="10.61541066466156"><ele>16.0</ele><time>2026-05-02T06:44:21.999Z</time></trkpt><trkpt lat="43.640458019090346" lon="10.615644835948721"><ele>16.0</ele><time>2026-05-02T06:44:22.999Z</time></trkpt><trkpt lat="43.64063216504767" lon="10.61587825300024"><ele>16.0</ele><time>2026-05-02T06:44:23.999Z</time></trkpt><trkpt lat="43.64080432652054" lon="10.616111011142689"><ele>16.0</ele><time>2026-05-02T06:44:24.999Z</time></trkpt><trkpt lat="43.640986193655166" lon="10.616336951605126"><ele>15.5</ele><time>2026-05-02T06:44:25.999Z</time></trkpt><trkpt lat="43.64115605484695" lon="10.616561481226126"><ele>15.0</ele><time>2026-05-02T06:44:26.999Z</time></trkpt><trkpt lat="43.64132661617776" lon="10.61679133564023"><ele>15.0</ele><time>2026-05-02T06:44:27.999Z</time></trkpt><trkpt lat="43.641503865620415" lon="10.617010341377265"><ele>15.0</ele><time>2026-05-02T06:44:28.999Z</time></trkpt><trkpt lat="43.641675902184396" lon="10.617234296349983"><ele>15.0</ele><time>2026-05-02T06:44:29.999Z</time></trkpt><trkpt lat="43.64184997375859" lon="10.617459503109231"><ele>15.0</ele><time>2026-05-02T06:44:30.999Z</time></trkpt><trkpt lat="43.642019377149865" lon="10.617688900430199"><ele>15.0</ele><time>2026-05-02T06:44:31.999Z</time></trkpt><trkpt lat="43.64218402597141" lon="10.617918504288633"><ele>15.0</ele><time>2026-05-02T06:44:32.999Z</time></trkpt><trkpt lat="43.64235556133035" lon="10.618146122752762"><ele>15.0</ele><time>2026-05-02T06:44:33.999Z</time></trkpt><trkpt lat="43.64253236381207" lon="10.618373244403463"><ele>15.0</ele><time>2026-05-02T06:44:34.999Z</time></trkpt><trkpt lat="43.64271034574233" lon="10.618600975898712"><ele>14.5</ele><time>2026-05-02T06:44:35.999Z</time></trkpt><trkpt lat="43.64288954823122" lon="10.618835098322348"><ele>14.0</ele><time>2026-05-02T06:44:36.999Z</time></trkpt><trkpt lat="43.64307091524392" lon="10.619070986124155"><ele>14.0</ele><time>2026-05-02T06:44:37.998Z</time></trkpt><trkpt lat="43.64325047927213" lon="10.619312804897476"><ele>14.0</ele><time>2026-05-02T06:44:38.998Z</time></trkpt><trkpt lat="43.64342854140614" lon="10.619548217355957"><ele>15.0</ele><time>2026-05-02T06:44:39.998Z</time></trkpt><trkpt lat="43.64360452640621" lon="10.619781536524732"><ele>16.0</ele><time>2026-05-02T06:44:40.998Z</time></trkpt><trkpt lat="43.64378141925627" lon="10.620011320831821"><ele>16.0</ele><time>2026-05-02T06:44:41.998Z</time></trkpt><trkpt lat="43.643954447270424" lon="10.62023982882492"><ele>16.0</ele><time>2026-05-02T06:44:42.998Z</time></trkpt><trkpt lat="43.64412391303927" lon="10.620470292661642"><ele>15.5</ele><time>2026-05-02T06:44:43.998Z</time></trkpt><trkpt lat="43.64429271186461" lon="10.620697857790748"><ele>15.0</ele><time>2026-05-02T06:44:44.998Z</time></trkpt><trkpt lat="43.64446271142744" lon="10.620923350466065"><ele>14.5</ele><time>2026-05-02T06:44:45.998Z</time></trkpt><trkpt lat="43.64463064681251" lon="10.621148738154284"><ele>14.0</ele><time>2026-05-02T06:44:46.998Z</time></trkpt><trkpt lat="43.64480574102292" lon="10.621378061989224"><ele>15.0</ele><time>2026-05-02T06:44:47.998Z</time></trkpt><trkpt lat="43.644982817102374" lon="10.621610396813425"><ele>16.0</ele><time>2026-05-02T06:44:48.998Z</time></trkpt><trkpt lat="43.64515887694031" lon="10.621855764232514"><ele>16.5</ele><time>2026-05-02T06:44:49.998Z</time></trkpt><trkpt lat="43.64532665053923" lon="10.622106983326272"><ele>17.0</ele><time>2026-05-02T06:44:50.998Z</time></trkpt><trkpt lat="43.6454885507022" lon="10.622361531675605"><ele>17.0</ele><time>2026-05-02T06:44:51.998Z</time></trkpt><trkpt lat="43.64564866068321" lon="10.62262498338252"><ele>17.0</ele><time>2026-05-02T06:44:52.998Z</time></trkpt><trkpt lat="43.64580044835365" lon="10.622894692723767"><ele>16.0</ele><time>2026-05-02T06:44:53.998Z</time></trkpt><trkpt lat="43.645945576077736" lon="10.623177014900572"><ele>15.0</ele><time>2026-05-02T06:44:54.998Z</time></trkpt><trkpt lat="43.64608021823242" lon="10.623458435882654"><ele>16.0</ele><time>2026-05-02T06:44:55.998Z</time></trkpt><trkpt lat="43.646210022690944" lon="10.62375489597903"><ele>17.0</ele><time>2026-05-02T06:44:56.998Z</time></trkpt><trkpt lat="43.64632371905937" lon="10.624050655452894"><ele>17.0</ele><time>2026-05-02T06:44:57.998Z</time></trkpt><trkpt lat="43.64643230856444" lon="10.624357283043457"><ele>17.0</ele><time>2026-05-02T06:44:58.998Z</time></trkpt><trkpt lat="43.64652877255768" lon="10.62466368366011"><ele>16.0</ele><time>2026-05-02T06:44:59.998Z</time></trkpt><trkpt lat="43.646616205594185" lon="10.62496942195977"><ele>15.0</ele><time>2026-05-02T06:45:00.998Z</time></trkpt><trkpt lat="43.646695205351605" lon="10.625280552101634"><ele>15.0</ele><time>2026-05-02T06:45:01.998Z</time></trkpt><trkpt lat="43.64676744189741" lon="10.62559496798129"><ele>15.0</ele><time>2026-05-02T06:45:02.998Z</time></trkpt><trkpt lat="43.64683328069344" lon="10.625912070304159"><ele>16.0</ele><time>2026-05-02T06:45:03.998Z</time></trkpt><trkpt lat="43.64688698812417" lon="10.626232219250843"><ele>17.0</ele><time>2026-05-02T06:45:04.998Z</time></trkpt><trkpt lat="43.646934764128225" lon="10.626554873887843"><ele>17.0</ele><time>2026-05-02T06:45:05.998Z</time></trkpt><trkpt lat="43.6469703737199" lon="10.62687601548584"><ele>17.0</ele><time>2026-05-02T06:45:06.998Z</time></trkpt><trkpt lat="43.646996896562044" lon="10.62719687120353"><ele>16.5</ele><time>2026-05-02T06:45:07.998Z</time></trkpt><trkpt lat="43.64701440063251" lon="10.6275223954711"><ele>16.0</ele><time>2026-05-02T06:45:08.998Z</time></trkpt><trkpt lat="43.64702689519483" lon="10.62785114980851"><ele>16.0</ele><time>2026-05-02T06:45:09.998Z</time></trkpt><trkpt lat="43.64703120410689" lon="10.628175361917393"><ele>16.0</ele><time>2026-05-02T06:45:10.998Z</time></trkpt><trkpt lat="43.64703177672086" lon="10.628497505125322"><ele>16.5</ele><time>2026-05-02T06:45:11.998Z</time></trkpt><trkpt lat="43.64703356105313" lon="10.628818608387379"><ele>17.0</ele><time>2026-05-02T06:45:12.998Z</time></trkpt><trkpt lat="43.6470299905529" lon="10.6291456870974"><ele>17.0</ele><time>2026-05-02T06:45:13.998Z</time></trkpt><trkpt lat="43.64702590198792" lon="10.629468522134404"><ele>17.0</ele><time>2026-05-02T06:45:14.998Z</time></trkpt><trkpt lat="43.64701747060766" lon="10.629791410423394"><ele>17.0</ele><time>2026-05-02T06:45:15.998Z</time></trkpt><trkpt lat="43.64700970537368" lon="10.630118103386877"><ele>17.0</ele><time>2026-05-02T06:45:16.998Z</time></trkpt><trkpt lat="43.64700305407926" lon="10.630444623036908"><ele>17.5</ele><time>2026-05-02T06:45:17.998Z</time></trkpt><trkpt lat="43.64699774297189" lon="10.630772446518682"><ele>18.0</ele><time>2026-05-02T06:45:18.998Z</time></trkpt><trkpt lat="43.646994369512875" lon="10.631092091188918"><ele>18.0</ele><time>2026-05-02T06:45:19.998Z</time></trkpt><trkpt lat="43.64698911740263" lon="10.63141828401365"><ele>18.0</ele><time>2026-05-02T06:45:20.998Z</time></trkpt><trkpt lat="43.6469819161085" lon="10.631740700931752"><ele>16.5</ele><time>2026-05-02T06:45:21.998Z</time></trkpt><trkpt lat="43.64697666695826" lon="10.632064905409514"><ele>15.0</ele><time>2026-05-02T06:45:22.998Z</time></trkpt><trkpt lat="43.64696985440606" lon="10.632388321743909"><ele>15.0</ele><time>2026-05-02T06:45:23.998Z</time></trkpt><trkpt lat="43.64696261682199" lon="10.632715303234336"><ele>15.0</ele><time>2026-05-02T06:45:24.998Z</time></trkpt><trkpt lat="43.64695462830532" lon="10.633046744603247"><ele>14.5</ele><time>2026-05-02T06:45:25.998Z</time></trkpt><trkpt lat="43.64694733265854" lon="10.633382015415412"><ele>14.0</ele><time>2026-05-02T06:45:26.998Z</time></trkpt><trkpt lat="43.64694419795958" lon="10.633715490432133"><ele>16.0</ele><time>2026-05-02T06:45:27.998Z</time></trkpt><trkpt lat="43.64694666186775" lon="10.634043599141567"><ele>18.0</ele><time>2026-05-02T06:45:28.998Z</time></trkpt><trkpt lat="43.64694287558212" lon="10.634374149764344"><ele>18.0</ele><time>2026-05-02T06:45:29.998Z</time></trkpt><trkpt lat="43.64694382938448" lon="10.63470534423189"><ele>18.0</ele><time>2026-05-02T06:45:30.998Z</time></trkpt><trkpt lat="43.64694488648139" lon="10.635036138335568"><ele>17.0</ele><time>2026-05-02T06:45:31.998Z</time></trkpt><trkpt lat="43.64694375372196" lon="10.635367431877746"><ele>16.0</ele><time>2026-05-02T06:45:32.998Z</time></trkpt><trkpt lat="43.64694293030636" lon="10.63570110165614"><ele>16.0</ele><time>2026-05-02T06:45:33.998Z</time></trkpt><trkpt lat="43.64693296679419" lon="10.636035289844575"><ele>16.0</ele><time>2026-05-02T06:45:34.998Z</time></trkpt><trkpt lat="43.64692536500955" lon="10.636368969089856"><ele>16.0</ele><time>2026-05-02T06:45:35.998Z</time></trkpt><trkpt lat="43.646922379701785" lon="10.636697829999624"><ele>16.0</ele><time>2026-05-02T06:45:36.998Z</time></trkpt><trkpt lat="43.64691401630909" lon="10.637027155373138"><ele>15.5</ele><time>2026-05-02T06:45:37.998Z</time></trkpt><trkpt lat="43.64689881761155" lon="10.637355752654996"><ele>15.0</ele><time>2026-05-02T06:45:38.998Z</time></trkpt><trkpt lat="43.64688444366422" lon="10.637684854676532"><ele>16.0</ele><time>2026-05-02T06:45:39.998Z</time></trkpt><trkpt lat="43.64687057085924" lon="10.638007407652887"><ele>17.0</ele><time>2026-05-02T06:45:40.998Z</time></trkpt><trkpt lat="43.64686346236791" lon="10.638333601431231"><ele>17.0</ele><time>2026-05-02T06:45:41.998Z</time></trkpt><trkpt lat="43.64685283540835" lon="10.638658846897865"><ele>17.0</ele><time>2026-05-02T06:45:42.998Z</time></trkpt><trkpt lat="43.64685295904203" lon="10.638996621254375"><ele>17.0</ele><time>2026-05-02T06:45:43.997Z</time></trkpt><trkpt lat="43.64685569696516" lon="10.639320775127837"><ele>17.0</ele><time>2026-05-02T06:45:44.997Z</time></trkpt><trkpt lat="43.64684716320374" lon="10.639647868268243"><ele>16.5</ele><time>2026-05-02T06:45:45.997Z</time></trkpt><trkpt lat="43.64684525809265" lon="10.639974809417417"><ele>16.0</ele><time>2026-05-02T06:45:46.997Z</time></trkpt><trkpt lat="43.646833789834155" lon="10.640295709935339"><ele>16.0</ele><time>2026-05-02T06:45:47.997Z</time></trkpt><trkpt lat="43.646824230577856" lon="10.64062264158124"><ele>16.0</ele><time>2026-05-02T06:45:48.997Z</time></trkpt><trkpt lat="43.64681561279091" lon="10.640947292790566"><ele>17.0</ele><time>2026-05-02T06:45:49.997Z</time></trkpt><trkpt lat="43.64681067195144" lon="10.641284178189736"><ele>18.0</ele><time>2026-05-02T06:45:50.999Z</time></trkpt><trkpt lat="43.64679899950064" lon="10.641615097593606"><ele>18.0</ele><time>2026-05-02T06:45:51.999Z</time></trkpt><trkpt lat="43.6467901284601" lon="10.64193949160453"><ele>18.0</ele><time>2026-05-02T06:45:52.999Z</time></trkpt><trkpt lat="43.64678118576346" lon="10.642264924756729"><ele>18.5</ele><time>2026-05-02T06:45:53.999Z</time></trkpt><trkpt lat="43.64677382570006" lon="10.642589251513023"><ele>19.0</ele><time>2026-05-02T06:45:54.999Z</time></trkpt><trkpt lat="43.64676466579802" lon="10.642919442541888"><ele>19.5</ele><time>2026-05-02T06:45:55.999Z</time></trkpt><trkpt lat="43.64675846776629" lon="10.64325276040529"><ele>20.0</ele><time>2026-05-02T06:45:56.999Z</time></trkpt><trkpt lat="43.64675095347464" lon="10.643583700135329"><ele>21.0</ele><time>2026-05-02T06:45:57.999Z</time></trkpt><trkpt lat="43.646743265875486" lon="10.643912476503667"><ele>22.0</ele><time>2026-05-02T06:45:58.999Z</time></trkpt><trkpt lat="43.64673383915262" lon="10.64424497188474"><ele>22.0</ele><time>2026-05-02T06:45:59.999Z</time></trkpt><trkpt lat="43.646727170424946" lon="10.644574297729203"><ele>22.0</ele><time>2026-05-02T06:46:00.999Z</time></trkpt><trkpt lat="43.64672441764977" lon="10.644907149775042"><ele>22.0</ele><time>2026-05-02T06:46:01.999Z</time></trkpt><trkpt lat="43.64672214706696" lon="10.645241976913246"><ele>22.0</ele><time>2026-05-02T06:46:02.999Z</time></trkpt><trkpt lat="43.646721515466375" lon="10.64557724210517"><ele>22.0</ele><time>2026-05-02T06:46:03.998Z</time></trkpt><trkpt lat="43.6467231461171" lon="10.64592452067499"><ele>22.0</ele><time>2026-05-02T06:46:04.998Z</time></trkpt><trkpt lat="43.64672981182987" lon="10.646274397104467"><ele>22.0</ele><time>2026-05-02T06:46:05.998Z</time></trkpt><trkpt lat="43.64677460664179" lon="10.646628373127648"><ele>22.0</ele><time>2026-05-02T06:46:06.998Z</time></trkpt><trkpt lat="43.64682228832921" lon="10.646966267005855"><ele>21.5</ele><time>2026-05-02T06:46:07.998Z</time></trkpt><trkpt lat="43.646879832821156" lon="10.647304073326026"><ele>21.0</ele><time>2026-05-02T06:46:08.998Z</time></trkpt><trkpt lat="43.646945139758785" lon="10.647619951167858"><ele>19.666666666666668</ele><time>2026-05-02T06:46:09.998Z</time></trkpt><trkpt lat="43.64702187861274" lon="10.647930590867212"><ele>18.333333333333336</ele><time>2026-05-02T06:46:10.998Z</time></trkpt><trkpt lat="43.64708456425337" lon="10.648169748586202"><ele>17.0</ele><time>2026-05-02T06:46:11.998Z</time></trkpt><trkpt lat="43.6471772661298" lon="10.648457610089588"><ele>15.0</ele><time>2026-05-02T06:46:12.998Z</time></trkpt><trkpt lat="43.64731222727893" lon="10.64874198451142"><ele>13.0</ele><time>2026-05-02T06:46:13.998Z</time></trkpt><trkpt lat="43.647411368812115" lon="10.649029699168894"><ele>13.0</ele><time>2026-05-02T06:46:14.998Z</time></trkpt><trkpt lat="43.64751043323724" lon="10.649318080688694"><ele>13.0</ele><time>2026-05-02T06:46:15.998Z</time></trkpt><trkpt lat="43.64761686650837" lon="10.649603954485707"><ele>13.5</ele><time>2026-05-02T06:46:16.998Z</time></trkpt><trkpt lat="43.64774583542648" lon="10.649881741460403"><ele>14.0</ele><time>2026-05-02T06:46:17.998Z</time></trkpt><trkpt lat="43.647876061523434" lon="10.650152183541136"><ele>14.5</ele><time>2026-05-02T06:46:18.998Z</time></trkpt><trkpt lat="43.64800966278749" lon="10.650422207068779"><ele>15.0</ele><time>2026-05-02T06:46:19.998Z</time></trkpt><trkpt lat="43.64814962865851" lon="10.650687457245516"><ele>15.0</ele><time>2026-05-02T06:46:20.998Z</time></trkpt><trkpt lat="43.648297718636265" lon="10.650954829207798"><ele>15.0</ele><time>2026-05-02T06:46:21.998Z</time></trkpt><trkpt lat="43.648448500162274" lon="10.651217494727929"><ele>15.5</ele><time>2026-05-02T06:46:22.998Z</time></trkpt><trkpt lat="43.64859768218836" lon="10.65147767075393"><ele>16.0</ele><time>2026-05-02T06:46:23.998Z</time></trkpt><trkpt lat="43.64874789613085" lon="10.651746107846524"><ele>17.5</ele><time>2026-05-02T06:46:24.998Z</time></trkpt><trkpt lat="43.648901973528886" lon="10.651997294565035"><ele>19.0</ele><time>2026-05-02T06:46:25.998Z</time></trkpt><trkpt lat="43.6490422543734" lon="10.652259602401607"><ele>19.0</ele><time>2026-05-02T06:46:26.998Z</time></trkpt><trkpt lat="43.649192047007055" lon="10.652514786698429"><ele>19.0</ele><time>2026-05-02T06:46:27.998Z</time></trkpt><trkpt lat="43.64933525582831" lon="10.652768153542402"><ele>20.0</ele><time>2026-05-02T06:46:28.998Z</time></trkpt><trkpt lat="43.64947959856656" lon="10.653025029447672"><ele>21.0</ele><time>2026-05-02T06:46:29.998Z</time></trkpt><trkpt lat="43.649622462408146" lon="10.65327951722298"><ele>21.0</ele><time>2026-05-02T06:46:30.998Z</time></trkpt><trkpt lat="43.6497662419727" lon="10.653527268278191"><ele>21.0</ele><time>2026-05-02T06:46:31.998Z</time></trkpt><trkpt lat="43.64991342290603" lon="10.653782673081604"><ele>21.5</ele><time>2026-05-02T06:46:32.998Z</time></trkpt><trkpt lat="43.65005823247018" lon="10.654035649350869"><ele>22.0</ele><time>2026-05-02T06:46:33.998Z</time></trkpt><trkpt lat="43.650207160275706" lon="10.654292030948033"><ele>23.0</ele><time>2026-05-02T06:46:34.998Z</time></trkpt><trkpt lat="43.65035491471618" lon="10.654547620293329"><ele>24.0</ele><time>2026-05-02T06:46:35.998Z</time></trkpt><trkpt lat="43.65050113432334" lon="10.654802719372677"><ele>24.0</ele><time>2026-05-02T06:46:36.998Z</time></trkpt><trkpt lat="43.65064560940968" lon="10.655061408047457"><ele>24.0</ele><time>2026-05-02T06:46:37.998Z</time></trkpt><trkpt lat="43.65079278458285" lon="10.655318001535262"><ele>26.0</ele><time>2026-05-02T06:46:38.998Z</time></trkpt><trkpt lat="43.65093840732283" lon="10.655573842696082"><ele>28.0</ele><time>2026-05-02T06:46:39.998Z</time></trkpt><trkpt lat="43.65108738828763" lon="10.655834615511363"><ele>27.0</ele><time>2026-05-02T06:46:40.998Z</time></trkpt><trkpt lat="43.65123625674046" lon="10.656098383750427"><ele>26.0</ele><time>2026-05-02T06:46:41.998Z</time></trkpt><trkpt lat="43.651387882243014" lon="10.656363048731725"><ele>25.0</ele><time>2026-05-02T06:46:42.998Z</time></trkpt><trkpt lat="43.651541429808" lon="10.65662694673779"><ele>24.0</ele><time>2026-05-02T06:46:43.998Z</time></trkpt><trkpt lat="43.65169163696399" lon="10.656883105996554"><ele>24.5</ele><time>2026-05-02T06:46:44.998Z</time></trkpt><trkpt lat="43.651836637672936" lon="10.657139462330464"><ele>25.0</ele><time>2026-05-02T06:46:45.998Z</time></trkpt><trkpt lat="43.65198644127543" lon="10.657395955768546"><ele>25.0</ele><time>2026-05-02T06:46:46.998Z</time></trkpt><trkpt lat="43.6521369095464" lon="10.657651616531991"><ele>25.0</ele><time>2026-05-02T06:46:47.998Z</time></trkpt><trkpt lat="43.6522865666304" lon="10.657912840396921"><ele>24.0</ele><time>2026-05-02T06:46:48.998Z</time></trkpt><trkpt lat="43.652433343518425" lon="10.658167354541172"><ele>23.0</ele><time>2026-05-02T06:46:49.998Z</time></trkpt><trkpt lat="43.65257858361467" lon="10.658425945360946"><ele>22.0</ele><time>2026-05-02T06:46:50.998Z</time></trkpt><trkpt lat="43.65272373803207" lon="10.658688172292978"><ele>21.0</ele><time>2026-05-02T06:46:51.998Z</time></trkpt><trkpt lat="43.65286827278085" lon="10.658950523903526"><ele>21.0</ele><time>2026-05-02T06:46:52.998Z</time></trkpt><trkpt lat="43.65301383884851" lon="10.65921226363349"><ele>21.0</ele><time>2026-05-02T06:46:53.998Z</time></trkpt><trkpt lat="43.653165169865254" lon="10.659471585944145"><ele>19.0</ele><time>2026-05-02T06:46:54.998Z</time></trkpt><trkpt lat="43.653315584525565" lon="10.659736897146567"><ele>17.0</ele><time>2026-05-02T06:46:55.998Z</time></trkpt><trkpt lat="43.653460605099085" lon="10.66000388904937"><ele>17.0</ele><time>2026-05-02T06:46:56.998Z</time></trkpt><trkpt lat="43.653600868889086" lon="10.660274553695583"><ele>17.0</ele><time>2026-05-02T06:46:57.998Z</time></trkpt><trkpt lat="43.65373896838773" lon="10.660544123684899"><ele>17.0</ele><time>2026-05-02T06:46:58.998Z</time></trkpt><trkpt lat="43.6538749111884" lon="10.660825564496784"><ele>17.0</ele><time>2026-05-02T06:46:59.998Z</time></trkpt><trkpt lat="43.654004384824056" lon="10.661099344441666"><ele>18.0</ele><time>2026-05-02T06:47:00.998Z</time></trkpt><trkpt lat="43.65412982855264" lon="10.661388324184111"><ele>19.0</ele><time>2026-05-02T06:47:01.998Z</time></trkpt><trkpt lat="43.65425026481636" lon="10.66167880394694"><ele>19.0</ele><time>2026-05-02T06:47:02.998Z</time></trkpt><trkpt lat="43.654362330141474" lon="10.661963877816452"><ele>19.0</ele><time>2026-05-02T06:47:03.998Z</time></trkpt><trkpt lat="43.654478083610236" lon="10.662263037351421"><ele>17.0</ele><time>2026-05-02T06:47:04.998Z</time></trkpt><trkpt lat="43.65458588697508" lon="10.662566818337394"><ele>15.0</ele><time>2026-05-02T06:47:05.998Z</time></trkpt><trkpt lat="43.65468610266353" lon="10.662874212979988"><ele>14.5</ele><time>2026-05-02T06:47:06.998Z</time></trkpt><trkpt lat="43.65477353152885" lon="10.663187516864117"><ele>14.0</ele><time>2026-05-02T06:47:07.998Z</time></trkpt><trkpt lat="43.65485328851549" lon="10.66350732749561"><ele>13.5</ele><time>2026-05-02T06:47:08.998Z</time></trkpt><trkpt lat="43.654927909465364" lon="10.663825446952377"><ele>13.0</ele><time>2026-05-02T06:47:09.998Z</time></trkpt><trkpt lat="43.65499429165688" lon="10.664142797538211"><ele>13.0</ele><time>2026-05-02T06:47:10.998Z</time></trkpt><trkpt lat="43.655053314542" lon="10.664469674823087"><ele>13.0</ele><time>2026-05-02T06:47:11.998Z</time></trkpt><trkpt lat="43.655104411423295" lon="10.664795729369454"><ele>13.0</ele><time>2026-05-02T06:47:12.997Z</time></trkpt><trkpt lat="43.65515039025579" lon="10.665120386480654"><ele>13.0</ele><time>2026-05-02T06:47:13.997Z</time></trkpt><trkpt lat="43.655190530336654" lon="10.665447759582474"><ele>14.0</ele><time>2026-05-02T06:47:14.997Z</time></trkpt><trkpt lat="43.655220077717715" lon="10.665776644131652"><ele>15.0</ele><time>2026-05-02T06:47:15.997Z</time></trkpt><trkpt lat="43.65524562589848" lon="10.66610332619485"><ele>15.0</ele><time>2026-05-02T06:47:16.997Z</time></trkpt><trkpt lat="43.655262680246196" lon="10.666434451198764"><ele>15.0</ele><time>2026-05-02T06:47:17.997Z</time></trkpt><trkpt lat="43.65527441352816" lon="10.666764277588646"><ele>17.0</ele><time>2026-05-02T06:47:18.997Z</time></trkpt><trkpt lat="43.65528010350582" lon="10.66709623527659"><ele>19.0</ele><time>2026-05-02T06:47:19.997Z</time></trkpt><trkpt lat="43.65527956435315" lon="10.667430303858866"><ele>19.0</ele><time>2026-05-02T06:47:20.997Z</time></trkpt><trkpt lat="43.65527284465827" lon="10.667756891739845"><ele>19.0</ele><time>2026-05-02T06:47:21.997Z</time></trkpt><trkpt lat="43.655249770476566" lon="10.668085649254088"><ele>18.5</ele><time>2026-05-02T06:47:22.997Z</time></trkpt><trkpt lat="43.65522452663801" lon="10.668415278471837"><ele>18.0</ele><time>2026-05-02T06:47:23.997Z</time></trkpt><trkpt lat="43.655196038535045" lon="10.668745757323581"><ele>17.0</ele><time>2026-05-02T06:47:24.997Z</time></trkpt><trkpt lat="43.655161572198395" lon="10.669071920345754"><ele>16.0</ele><time>2026-05-02T06:47:25.997Z</time></trkpt><trkpt lat="43.655118122201635" lon="10.669396515887113"><ele>17.0</ele><time>2026-05-02T06:47:26.997Z</time></trkpt><trkpt lat="43.65506913209805" lon="10.66972360602357"><ele>18.0</ele><time>2026-05-02T06:47:27.997Z</time></trkpt><trkpt lat="43.65501725373588" lon="10.670043854348354"><ele>19.0</ele><time>2026-05-02T06:47:28.997Z</time></trkpt><trkpt lat="43.654958895420734" lon="10.670364021223412"><ele>20.0</ele><time>2026-05-02T06:47:29.997Z</time></trkpt><trkpt lat="43.65489425697708" lon="10.670686400033116"><ele>20.0</ele><time>2026-05-02T06:47:30.997Z</time></trkpt><trkpt lat="43.65482931137995" lon="10.67100820695172"><ele>20.0</ele><time>2026-05-02T06:47:31.997Z</time></trkpt><trkpt lat="43.65475976268814" lon="10.6713278119333"><ele>19.5</ele><time>2026-05-02T06:47:32.997Z</time></trkpt><trkpt lat="43.65469250455564" lon="10.67164350105749"><ele>19.0</ele><time>2026-05-02T06:47:33.997Z</time></trkpt><trkpt lat="43.65460755822723" lon="10.671956758750133"><ele>18.0</ele><time>2026-05-02T06:47:34.997Z</time></trkpt><trkpt lat="43.654518424590115" lon="10.672266299438723"><ele>17.0</ele><time>2026-05-02T06:47:35.997Z</time></trkpt><trkpt lat="43.65442967963608" lon="10.672584710987378"><ele>17.0</ele><time>2026-05-02T06:47:36.997Z</time></trkpt><trkpt lat="43.654342322454205" lon="10.672904357622826"><ele>17.0</ele><time>2026-05-02T06:47:37.997Z</time></trkpt><trkpt lat="43.654258908846835" lon="10.673226098461548"><ele>17.0</ele><time>2026-05-02T06:47:38.997Z</time></trkpt><trkpt lat="43.65418709980063" lon="10.67353937529328"><ele>17.0</ele><time>2026-05-02T06:47:39.997Z</time></trkpt><trkpt lat="43.65412026651546" lon="10.673847702358625"><ele>18.0</ele><time>2026-05-02T06:47:40.997Z</time></trkpt><trkpt lat="43.65405494043009" lon="10.674159657404166"><ele>19.0</ele><time>2026-05-02T06:47:41.997Z</time></trkpt><trkpt lat="43.65399720125165" lon="10.674477753995179"><ele>19.5</ele><time>2026-05-02T06:47:42.997Z</time></trkpt><trkpt lat="43.653941862953964" lon="10.674795464918878"><ele>20.0</ele><time>2026-05-02T06:47:43.997Z</time></trkpt><trkpt lat="43.65389211463185" lon="10.67511663708968"><ele>20.0</ele><time>2026-05-02T06:47:44.997Z</time></trkpt><trkpt lat="43.65384593372876" lon="10.67543389579161"><ele>20.0</ele><time>2026-05-02T06:47:45.997Z</time></trkpt><trkpt lat="43.65380919773629" lon="10.67575387167551"><ele>20.0</ele><time>2026-05-02T06:47:46.997Z</time></trkpt><trkpt lat="43.65378563724699" lon="10.676075773261388"><ele>20.0</ele><time>2026-05-02T06:47:47.997Z</time></trkpt><trkpt lat="43.653762451081825" lon="10.676396980670852"><ele>20.0</ele><time>2026-05-02T06:47:48.997Z</time></trkpt><trkpt lat="43.65374845364503" lon="10.676715490231366"><ele>20.0</ele><time>2026-05-02T06:47:49.997Z</time></trkpt><trkpt lat="43.65373731963654" lon="10.677022714383813"><ele>20.0</ele><time>2026-05-02T06:47:50.997Z</time></trkpt><trkpt lat="43.65373282282461" lon="10.677312943426356"><ele>20.0</ele><time>2026-05-02T06:47:51.997Z</time></trkpt><trkpt lat="43.653741591563445" lon="10.677608678869882"><ele>20.0</ele><time>2026-05-02T06:47:52.997Z</time></trkpt><trkpt lat="43.65376046249742" lon="10.677883995922238"><ele>20.666666666666668</ele><time>2026-05-02T06:47:53.997Z</time></trkpt><trkpt lat="43.65378920798498" lon="10.678167340579671"><ele>21.333333333333332</ele><time>2026-05-02T06:47:54.997Z</time></trkpt><trkpt lat="43.65381836134391" lon="10.678449245115104"><ele>22.0</ele><time>2026-05-02T06:47:55.997Z</time></trkpt><trkpt lat="43.65385501674418" lon="10.678725258618584"><ele>22.0</ele><time>2026-05-02T06:47:56.999Z</time></trkpt><trkpt lat="43.65389160025702" lon="10.679003655333569"><ele>22.0</ele><time>2026-05-02T06:47:57.999Z</time></trkpt><trkpt lat="43.653940082872566" lon="10.679277566056427"><ele>22.0</ele><time>2026-05-02T06:47:58.999Z</time></trkpt><trkpt lat="43.65399455421282" lon="10.679548372957457"><ele>22.666666666666664</ele><time>2026-05-02T06:47:59.999Z</time></trkpt><trkpt lat="43.65405781122678" lon="10.679812504704596"><ele>23.333333333333332</ele><time>2026-05-02T06:48:00.999Z</time></trkpt><trkpt lat="43.654121420353384" lon="10.680081689369219"><ele>24.0</ele><time>2026-05-02T06:48:01.999Z</time></trkpt><trkpt lat="43.65419499760707" lon="10.680353999627368"><ele>24.666666666666664</ele><time>2026-05-02T06:48:02.999Z</time></trkpt><trkpt lat="43.654274364016295" lon="10.680623002634903"><ele>25.333333333333332</ele><time>2026-05-02T06:48:03.999Z</time></trkpt><trkpt lat="43.654365832577454" lon="10.680886311477101"><ele>26.0</ele><time>2026-05-02T06:48:04.999Z</time></trkpt><trkpt lat="43.654460442976585" lon="10.681141760791114"><ele>31.333333333333332</ele><time>2026-05-02T06:48:06Z</time></trkpt><trkpt lat="43.65455902629241" lon="10.681392053514223"><ele>36.666666666666664</ele><time>2026-05-02T06:48:06.999Z</time></trkpt><trkpt lat="43.65466373582729" lon="10.681644145079352"><ele>42.0</ele><time>2026-05-02T06:48:07.999Z</time></trkpt><trkpt lat="43.65477525100861" lon="10.6818949529332"><ele>41.666666666666664</ele><time>2026-05-02T06:48:08.999Z</time></trkpt><trkpt lat="43.65489597256448" lon="10.682137309905071"><ele>41.33333333333333</ele><time>2026-05-02T06:48:09.999Z</time></trkpt><trkpt lat="43.655029235166126" lon="10.682372973453198"><ele>41.0</ele><time>2026-05-02T06:48:10.999Z</time></trkpt><trkpt lat="43.65515814470444" lon="10.682593796651421"><ele>40.666666666666664</ele><time>2026-05-02T06:48:11.999Z</time></trkpt><trkpt lat="43.65529596734852" lon="10.68280620974542"><ele>40.333333333333336</ele><time>2026-05-02T06:48:12.999Z</time></trkpt><trkpt lat="43.655435541625614" lon="10.68302081181734"><ele>40.0</ele><time>2026-05-02T06:48:13.999Z</time></trkpt><trkpt lat="43.65557376103746" lon="10.68324134388841"><ele>40.0</ele><time>2026-05-02T06:48:14.999Z</time></trkpt><trkpt lat="43.655713857924766" lon="10.68345583982038"><ele>40.0</ele><time>2026-05-02T06:48:15.999Z</time></trkpt><trkpt lat="43.65585403753118" lon="10.683668773409586"><ele>40.0</ele><time>2026-05-02T06:48:16.999Z</time></trkpt><trkpt lat="43.65599723581046" lon="10.683881174050473"><ele>39.333333333333336</ele><time>2026-05-02T06:48:17.999Z</time></trkpt><trkpt lat="43.656145474946854" lon="10.684095879568499"><ele>38.666666666666664</ele><time>2026-05-02T06:48:18.999Z</time></trkpt><trkpt lat="43.65630326609686" lon="10.684314770375432"><ele>38.0</ele><time>2026-05-02T06:48:19.999Z</time></trkpt><trkpt lat="43.656460374125935" lon="10.684539373481886"><ele>38.0</ele><time>2026-05-02T06:48:20.999Z</time></trkpt><trkpt lat="43.656622216104395" lon="10.6847720707447"><ele>38.0</ele><time>2026-05-02T06:48:21.999Z</time></trkpt><trkpt lat="43.65677784467946" lon="10.68501381118376"><ele>38.0</ele><time>2026-05-02T06:48:22.999Z</time></trkpt><trkpt lat="43.656924685957435" lon="10.685253505949852"><ele>38.0</ele><time>2026-05-02T06:48:23.999Z</time></trkpt><trkpt lat="43.657062555121406" lon="10.685511806126485"><ele>32.5</ele><time>2026-05-02T06:48:24.999Z</time></trkpt><trkpt lat="43.657191002430125" lon="10.685767574822318"><ele>27.0</ele><time>2026-05-02T06:48:25.999Z</time></trkpt><trkpt lat="43.65731253970402" lon="10.6860445391796"><ele>28.5</ele><time>2026-05-02T06:48:26.999Z</time></trkpt><trkpt lat="43.65742317883378" lon="10.686321032052843"><ele>30.0</ele><time>2026-05-02T06:48:27.999Z</time></trkpt><trkpt lat="43.657522863465005" lon="10.686614300499595"><ele>30.0</ele><time>2026-05-02T06:48:28.999Z</time></trkpt><trkpt lat="43.657605225474754" lon="10.68691497633463"><ele>30.0</ele><time>2026-05-02T06:48:29.999Z</time></trkpt><trkpt lat="43.6576742085838" lon="10.68722384815776"><ele>26.0</ele><time>2026-05-02T06:48:30.999Z</time></trkpt><trkpt lat="43.65773985341196" lon="10.687527509411431"><ele>22.0</ele><time>2026-05-02T06:48:31.999Z</time></trkpt><trkpt lat="43.657807036360346" lon="10.687834293964304"><ele>19.5</ele><time>2026-05-02T06:48:32.999Z</time></trkpt><trkpt lat="43.65788007902722" lon="10.68814180675826"><ele>17.0</ele><time>2026-05-02T06:48:33.999Z</time></trkpt><trkpt lat="43.65794781347052" lon="10.68844851741911"><ele>18.0</ele><time>2026-05-02T06:48:34.999Z</time></trkpt><trkpt lat="43.6580162546689" lon="10.688755079239195"><ele>19.0</ele><time>2026-05-02T06:48:35.999Z</time></trkpt><trkpt lat="43.65808615688798" lon="10.689058209205557"><ele>19.0</ele><time>2026-05-02T06:48:36.999Z</time></trkpt><trkpt lat="43.658157484062166" lon="10.689362448202717"><ele>19.0</ele><time>2026-05-02T06:48:37.999Z</time></trkpt><trkpt lat="43.658222865395466" lon="10.689667391481944"><ele>18.5</ele><time>2026-05-02T06:48:38.999Z</time></trkpt><trkpt lat="43.65829282780478" lon="10.68997435508957"><ele>18.0</ele><time>2026-05-02T06:48:39.999Z</time></trkpt><trkpt lat="43.65836686829107" lon="10.690280131325899"><ele>19.5</ele><time>2026-05-02T06:48:40.999Z</time></trkpt><trkpt lat="43.658438681109565" lon="10.690586027702787"><ele>21.0</ele><time>2026-05-02T06:48:41.999Z</time></trkpt><trkpt lat="43.65851052206345" lon="10.690897550082417"><ele>23.0</ele><time>2026-05-02T06:48:42.999Z</time></trkpt><trkpt lat="43.658585382982864" lon="10.691207349404133"><ele>25.0</ele><time>2026-05-02T06:48:43.999Z</time></trkpt><trkpt lat="43.6586596665951" lon="10.691517029558202"><ele>25.0</ele><time>2026-05-02T06:48:44.998Z</time></trkpt><trkpt lat="43.65873067993321" lon="10.691825053429264"><ele>25.0</ele><time>2026-05-02T06:48:45.998Z</time></trkpt><trkpt lat="43.65879726427269" lon="10.692135230665833"><ele>29.5</ele><time>2026-05-02T06:48:46.998Z</time></trkpt><trkpt lat="43.65886608367121" lon="10.692434909324778"><ele>34.0</ele><time>2026-05-02T06:48:47.998Z</time></trkpt><trkpt lat="43.6589349819676" lon="10.6927369033942"><ele>35.0</ele><time>2026-05-02T06:48:48.998Z</time></trkpt><trkpt lat="43.65900726274891" lon="10.693039785720897"><ele>36.0</ele><time>2026-05-02T06:48:49.998Z</time></trkpt><trkpt lat="43.6590741975536" lon="10.693340907720449"><ele>38.0</ele><time>2026-05-02T06:48:50.998Z</time></trkpt><trkpt lat="43.659142768947966" lon="10.693644980539624"><ele>40.0</ele><time>2026-05-02T06:48:51.998Z</time></trkpt><trkpt lat="43.65920763046226" lon="10.693945399062189"><ele>40.0</ele><time>2026-05-02T06:48:52.998Z</time></trkpt><trkpt lat="43.659274829206204" lon="10.694248889409304"><ele>40.0</ele><time>2026-05-02T06:48:53.998Z</time></trkpt><trkpt lat="43.65934368948185" lon="10.694554452196137"><ele>42.5</ele><time>2026-05-02T06:48:54.998Z</time></trkpt><trkpt lat="43.65941927830822" lon="10.694861057004426"><ele>45.0</ele><time>2026-05-02T06:48:55.998Z</time></trkpt><trkpt lat="43.65949155136773" lon="10.695170447994876"><ele>44.0</ele><time>2026-05-02T06:48:56.998Z</time></trkpt><trkpt lat="43.65956940249493" lon="10.695474820032755"><ele>43.0</ele><time>2026-05-02T06:48:57.998Z</time></trkpt><trkpt lat="43.65964332410328" lon="10.69577962313682"><ele>43.0</ele><time>2026-05-02T06:48:58.998Z</time></trkpt><trkpt lat="43.65971302724657" lon="10.696085599717785"><ele>43.0</ele><time>2026-05-02T06:48:59.998Z</time></trkpt><trkpt lat="43.65978506713969" lon="10.696386034986485"><ele>45.0</ele><time>2026-05-02T06:49:00.998Z</time></trkpt><trkpt lat="43.659853348965164" lon="10.696692065287186"><ele>47.0</ele><time>2026-05-02T06:49:01.998Z</time></trkpt><trkpt lat="43.65992317342703" lon="10.697000334204002"><ele>49.5</ele><time>2026-05-02T06:49:02.998Z</time></trkpt><trkpt lat="43.65999696880084" lon="10.697306518480714"><ele>52.0</ele><time>2026-05-02T06:49:03.998Z</time></trkpt><trkpt lat="43.660070241483716" lon="10.697616438621784"><ele>52.5</ele><time>2026-05-02T06:49:04.998Z</time></trkpt><trkpt lat="43.66013949854343" lon="10.697923800749292"><ele>53.0</ele><time>2026-05-02T06:49:05.998Z</time></trkpt><trkpt lat="43.66021453112264" lon="10.698228827491743"><ele>52.5</ele><time>2026-05-02T06:49:06.998Z</time></trkpt><trkpt lat="43.660287166130715" lon="10.69853652151299"><ele>52.0</ele><time>2026-05-02T06:49:07.998Z</time></trkpt><trkpt lat="43.6603595112339" lon="10.69884285885935"><ele>47.5</ele><time>2026-05-02T06:49:08.998Z</time></trkpt><trkpt lat="43.660432648573256" lon="10.699156937666704"><ele>43.0</ele><time>2026-05-02T06:49:09.998Z</time></trkpt><trkpt lat="43.66052763325839" lon="10.699467899120101"><ele>41.0</ele><time>2026-05-02T06:49:10.998Z</time></trkpt><trkpt lat="43.66059560322435" lon="10.699767117739587"><ele>39.0</ele><time>2026-05-02T06:49:11.998Z</time></trkpt><trkpt lat="43.66068607191833" lon="10.700075158263619"><ele>41.0</ele><time>2026-05-02T06:49:12.998Z</time></trkpt><trkpt lat="43.660769362985064" lon="10.700373816097898"><ele>43.0</ele><time>2026-05-02T06:49:13.998Z</time></trkpt><trkpt lat="43.66086223216377" lon="10.700666548206856"><ele>43.0</ele><time>2026-05-02T06:49:14.998Z</time></trkpt><trkpt lat="43.66095791856602" lon="10.700955188419814"><ele>43.0</ele><time>2026-05-02T06:49:15.998Z</time></trkpt><trkpt lat="43.66106303360128" lon="10.701239109033098"><ele>43.0</ele><time>2026-05-02T06:49:16.998Z</time></trkpt><trkpt lat="43.66117162900273" lon="10.701520845035487"><ele>43.0</ele><time>2026-05-02T06:49:17.998Z</time></trkpt><trkpt lat="43.661278327385546" lon="10.701807018190271"><ele>40.5</ele><time>2026-05-02T06:49:18.998Z</time></trkpt><trkpt lat="43.66138277643608" lon="10.702094236865184"><ele>38.0</ele><time>2026-05-02T06:49:19.998Z</time></trkpt><trkpt lat="43.66148612633834" lon="10.702379851376326"><ele>38.0</ele><time>2026-05-02T06:49:20.998Z</time></trkpt><trkpt lat="43.66160736702673" lon="10.702655349122976"><ele>38.0</ele><time>2026-05-02T06:49:21.998Z</time></trkpt><trkpt lat="43.661760738604805" lon="10.70289907343826"><ele>40.0</ele><time>2026-05-02T06:49:22.998Z</time></trkpt><trkpt lat="43.661897127105135" lon="10.703163062689178"><ele>42.0</ele><time>2026-05-02T06:49:23.998Z</time></trkpt><trkpt lat="43.6620163098737" lon="10.703426766296975"><ele>35.5</ele><time>2026-05-02T06:49:24.998Z</time></trkpt><trkpt lat="43.662159456797184" lon="10.70368073987856"><ele>29.0</ele><time>2026-05-02T06:49:25.998Z</time></trkpt><trkpt lat="43.66228498044648" lon="10.703956043196223"><ele>29.0</ele><time>2026-05-02T06:49:26.998Z</time></trkpt><trkpt lat="43.66241471417768" lon="10.704225215286492"><ele>29.0</ele><time>2026-05-02T06:49:27.998Z</time></trkpt><trkpt lat="43.66253676169028" lon="10.704491113994182"><ele>28.0</ele><time>2026-05-02T06:49:28.998Z</time></trkpt><trkpt lat="43.66265967497289" lon="10.70475859858854"><ele>27.0</ele><time>2026-05-02T06:49:29.998Z</time></trkpt><trkpt lat="43.6627627323697" lon="10.70501517318982"><ele>26.0</ele><time>2026-05-02T06:49:30.998Z</time></trkpt><trkpt lat="43.66286633996498" lon="10.705273571544513"><ele>26.0</ele><time>2026-05-02T06:49:31.998Z</time></trkpt><trkpt lat="43.662965625545894" lon="10.705541291051327"><ele>26.0</ele><time>2026-05-02T06:49:32.998Z</time></trkpt><trkpt lat="43.663081126358115" lon="10.705807373347419"><ele>26.0</ele><time>2026-05-02T06:49:33.998Z</time></trkpt><trkpt lat="43.66319160178986" lon="10.706088959020002"><ele>25.5</ele><time>2026-05-02T06:49:34.998Z</time></trkpt><trkpt lat="43.663300966607764" lon="10.706376576555856"><ele>25.0</ele><time>2026-05-02T06:49:35.998Z</time></trkpt><trkpt lat="43.66340930926452" lon="10.706659543388348"><ele>25.0</ele><time>2026-05-02T06:49:36.998Z</time></trkpt><trkpt lat="43.66351603690344" lon="10.706944790656467"><ele>25.0</ele><time>2026-05-02T06:49:37.998Z</time></trkpt><trkpt lat="43.663626245381465" lon="10.707231560992993"><ele>25.0</ele><time>2026-05-02T06:49:38.998Z</time></trkpt><trkpt lat="43.663739981119235" lon="10.707505631935343"><ele>25.0</ele><time>2026-05-02T06:49:39.998Z</time></trkpt><trkpt lat="43.66385971162056" lon="10.707777920553772"><ele>25.0</ele><time>2026-05-02T06:49:40.998Z</time></trkpt><trkpt lat="43.663985958883586" lon="10.708038291539149"><ele>25.0</ele><time>2026-05-02T06:49:41.998Z</time></trkpt><trkpt lat="43.664121870603346" lon="10.70829504164611"><ele>25.0</ele><time>2026-05-02T06:49:42.998Z</time></trkpt><trkpt lat="43.66427027026189" lon="10.708542741102098"><ele>25.0</ele><time>2026-05-02T06:49:43.998Z</time></trkpt><trkpt lat="43.6644273626927" lon="10.708781230096472"><ele>24.5</ele><time>2026-05-02T06:49:44.998Z</time></trkpt><trkpt lat="43.66459159713406" lon="10.709014235823076"><ele>24.0</ele><time>2026-05-02T06:49:45.998Z</time></trkpt><trkpt lat="43.66475725253194" lon="10.70924166430325"><ele>24.5</ele><time>2026-05-02T06:49:46.998Z</time></trkpt><trkpt lat="43.66492559063736" lon="10.709462811744054"><ele>25.0</ele><time>2026-05-02T06:49:47.998Z</time></trkpt><trkpt lat="43.665108909070774" lon="10.709667010843312"><ele>23.0</ele><time>2026-05-02T06:49:48.998Z</time></trkpt><trkpt lat="43.66529094983584" lon="10.70985303116471"><ele>21.0</ele><time>2026-05-02T06:49:49.998Z</time></trkpt><trkpt lat="43.665484907412804" lon="10.710030955513453"><ele>21.0</ele><time>2026-05-02T06:49:50.997Z</time></trkpt><trkpt lat="43.66567825065083" lon="10.710181942350504"><ele>21.0</ele><time>2026-05-02T06:49:51.997Z</time></trkpt><trkpt lat="43.66587542031599" lon="10.710344190380079"><ele>21.0</ele><time>2026-05-02T06:49:52.997Z</time></trkpt><trkpt lat="43.66607239124929" lon="10.71050443073606"><ele>21.0</ele><time>2026-05-02T06:49:53.997Z</time></trkpt><trkpt lat="43.666271476193984" lon="10.710663419632331"><ele>21.0</ele><time>2026-05-02T06:49:54.997Z</time></trkpt><trkpt lat="43.66648206163329" lon="10.710815843825612"><ele>21.0</ele><time>2026-05-02T06:49:55.997Z</time></trkpt><trkpt lat="43.666684545313885" lon="10.710984334031883"><ele>20.5</ele><time>2026-05-02T06:49:56.997Z</time></trkpt><trkpt lat="43.66688291580303" lon="10.711146852677903"><ele>20.0</ele><time>2026-05-02T06:49:57.997Z</time></trkpt><trkpt lat="43.66708116124503" lon="10.711316861147015"><ele>19.5</ele><time>2026-05-02T06:49:58.997Z</time></trkpt><trkpt lat="43.66727490208173" lon="10.711496040366306"><ele>19.0</ele><time>2026-05-02T06:49:59.997Z</time></trkpt><trkpt lat="43.66746725099836" lon="10.711683426124964"><ele>19.0</ele><time>2026-05-02T06:50:00.997Z</time></trkpt><trkpt lat="43.667642210860045" lon="10.711891059820129"><ele>19.0</ele><time>2026-05-02T06:50:01.997Z</time></trkpt><trkpt lat="43.66781973631805" lon="10.712109100772496"><ele>20.0</ele><time>2026-05-02T06:50:02.999Z</time></trkpt><trkpt lat="43.667997876005444" lon="10.712340331651982"><ele>21.0</ele><time>2026-05-02T06:50:03.999Z</time></trkpt><trkpt lat="43.66816896991918" lon="10.712573640967433"><ele>20.5</ele><time>2026-05-02T06:50:04.999Z</time></trkpt><trkpt lat="43.668334533284124" lon="10.712809268578933"><ele>20.0</ele><time>2026-05-02T06:50:05.999Z</time></trkpt><trkpt lat="43.66849590087616" lon="10.713045163090262"><ele>19.5</ele><time>2026-05-02T06:50:06.999Z</time></trkpt><trkpt lat="43.66864619114234" lon="10.71329776428846"><ele>19.0</ele><time>2026-05-02T06:50:07.999Z</time></trkpt><trkpt lat="43.66878879840661" lon="10.713557504471662"><ele>19.0</ele><time>2026-05-02T06:50:08.999Z</time></trkpt><trkpt lat="43.66892107691363" lon="10.713821231962399"><ele>19.0</ele><time>2026-05-02T06:50:09.999Z</time></trkpt><trkpt lat="43.669046374327685" lon="10.714092787305077"><ele>19.0</ele><time>2026-05-02T06:50:10.999Z</time></trkpt><trkpt lat="43.66917119454338" lon="10.714373173835833"><ele>19.0</ele><time>2026-05-02T06:50:11.999Z</time></trkpt><trkpt lat="43.66928144813841" lon="10.714653413423385"><ele>19.0</ele><time>2026-05-02T06:50:12.999Z</time></trkpt><trkpt lat="43.66938713730762" lon="10.714940383284262"><ele>19.0</ele><time>2026-05-02T06:50:13.999Z</time></trkpt><trkpt lat="43.66948314859958" lon="10.71523306257479"><ele>19.5</ele><time>2026-05-02T06:50:14.999Z</time></trkpt><trkpt lat="43.669572791796924" lon="10.715527626416172"><ele>20.0</ele><time>2026-05-02T06:50:15.998Z</time></trkpt><trkpt lat="43.66965569064645" lon="10.715829819205636"><ele>20.0</ele><time>2026-05-02T06:50:16.998Z</time></trkpt><trkpt lat="43.66973724726811" lon="10.71612857695746"><ele>20.0</ele><time>2026-05-02T06:50:17.998Z</time></trkpt><trkpt lat="43.66981550144706" lon="10.716427214583893"><ele>20.0</ele><time>2026-05-02T06:50:18.998Z</time></trkpt><trkpt lat="43.66989440045413" lon="10.7167223960847"><ele>20.0</ele><time>2026-05-02T06:50:19.998Z</time></trkpt><trkpt lat="43.669965213827716" lon="10.717014367839298"><ele>20.0</ele><time>2026-05-02T06:50:20.998Z</time></trkpt><trkpt lat="43.670027064549146" lon="10.717284830670593"><ele>20.0</ele><time>2026-05-02T06:50:21.998Z</time></trkpt><trkpt lat="43.6700896952342" lon="10.717536828221633"><ele>20.0</ele><time>2026-05-02T06:50:22.998Z</time></trkpt><trkpt lat="43.670149685528614" lon="10.717779615302911"><ele>20.0</ele><time>2026-05-02T06:50:23.998Z</time></trkpt><trkpt lat="43.67020786301484" lon="10.718024725405181"><ele>20.0</ele><time>2026-05-02T06:50:24.998Z</time></trkpt><trkpt lat="43.67027173419994" lon="10.718273067695678"><ele>20.0</ele><time>2026-05-02T06:50:25.998Z</time></trkpt><trkpt lat="43.6703385530404" lon="10.718524916420126"><ele>20.0</ele><time>2026-05-02T06:50:26.998Z</time></trkpt><trkpt lat="43.6704024541969" lon="10.718782815776631"><ele>20.0</ele><time>2026-05-02T06:50:27.998Z</time></trkpt><trkpt lat="43.67046947033351" lon="10.719045337712071"><ele>20.0</ele><time>2026-05-02T06:50:28.998Z</time></trkpt><trkpt lat="43.67053580920809" lon="10.71931825535034"><ele>20.666666666666668</ele><time>2026-05-02T06:50:29.998Z</time></trkpt><trkpt lat="43.67060421490467" lon="10.719597723831214"><ele>21.333333333333332</ele><time>2026-05-02T06:50:30.998Z</time></trkpt><trkpt lat="43.670674740987536" lon="10.719882200483337"><ele>22.0</ele><time>2026-05-02T06:50:31.998Z</time></trkpt><trkpt lat="43.670745790554136" lon="10.720172477202498"><ele>22.333333333333332</ele><time>2026-05-02T06:50:32.998Z</time></trkpt><trkpt lat="43.670817167575734" lon="10.72046674079032"><ele>22.666666666666668</ele><time>2026-05-02T06:50:33.998Z</time></trkpt><trkpt lat="43.670892020200434" lon="10.720757370398667"><ele>23.0</ele><time>2026-05-02T06:50:34.998Z</time></trkpt><trkpt lat="43.67096514795338" lon="10.721052236380661"><ele>22.5</ele><time>2026-05-02T06:50:35.998Z</time></trkpt><trkpt lat="43.67103488349293" lon="10.721353201325178"><ele>22.0</ele><time>2026-05-02T06:50:36.998Z</time></trkpt><trkpt lat="43.67109254909612" lon="10.721663147882904"><ele>21.666666666666664</ele><time>2026-05-02T06:50:37.998Z</time></trkpt><trkpt lat="43.671139375054274" lon="10.721963612772356"><ele>21.333333333333332</ele><time>2026-05-02T06:50:38.998Z</time></trkpt><trkpt lat="43.67119400454827" lon="10.722252226512571"><ele>21.0</ele><time>2026-05-02T06:50:39.998Z</time></trkpt><trkpt lat="43.67126580171132" lon="10.722542467009657"><ele>21.0</ele><time>2026-05-02T06:50:40.998Z</time></trkpt><trkpt lat="43.67133549238455" lon="10.722824190111576"><ele>21.0</ele><time>2026-05-02T06:50:41.998Z</time></trkpt><trkpt lat="43.671408883266764" lon="10.72312086910477"><ele>21.0</ele><time>2026-05-02T06:50:42.998Z</time></trkpt><trkpt lat="43.671472291751186" lon="10.723415193603131"><ele>21.5</ele><time>2026-05-02T06:50:43.998Z</time></trkpt><trkpt lat="43.67152696128135" lon="10.723704460021494"><ele>22.0</ele><time>2026-05-02T06:50:44.998Z</time></trkpt><trkpt lat="43.67131714977664" lon="10.724104825891724"><ele>22.5</ele><time>2026-05-02T06:50:45.998Z</time></trkpt><trkpt lat="43.67132673769438" lon="10.724410475237963"><ele>23.0</ele><time>2026-05-02T06:50:46.998Z</time></trkpt><trkpt lat="43.671277804726394" lon="10.72473031785784"><ele>23.0</ele><time>2026-05-02T06:50:47.998Z</time></trkpt><trkpt lat="43.671784387194585" lon="10.725039508951115"><ele>22.0</ele><time>2026-05-02T06:50:48.998Z</time></trkpt><trkpt lat="43.67180610903728" lon="10.72535874388669"><ele>21.0</ele><time>2026-05-02T06:50:49.998Z</time></trkpt><trkpt lat="43.67181410787626" lon="10.725680713041992"><ele>21.0</ele><time>2026-05-02T06:50:50.998Z</time></trkpt><trkpt lat="43.67181948417869" lon="10.725993032679892"><ele>21.0</ele><time>2026-05-02T06:50:51.998Z</time></trkpt><trkpt lat="43.67182192188266" lon="10.726308083577974"><ele>21.0</ele><time>2026-05-02T06:50:52.998Z</time></trkpt><trkpt lat="43.67181496783558" lon="10.726624679861498"><ele>21.0</ele><time>2026-05-02T06:50:53.998Z</time></trkpt><trkpt lat="43.671802353296115" lon="10.72694233812858"><ele>23.5</ele><time>2026-05-02T06:50:54.998Z</time></trkpt><trkpt lat="43.67178200961927" lon="10.727263374822146"><ele>26.0</ele><time>2026-05-02T06:50:55.998Z</time></trkpt><trkpt lat="43.67175716197319" lon="10.727582938249531"><ele>26.5</ele><time>2026-05-02T06:50:56.998Z</time></trkpt><trkpt lat="43.67173349854373" lon="10.727903497923117"><ele>27.0</ele><time>2026-05-02T06:50:57.998Z</time></trkpt><trkpt lat="43.671702723434834" lon="10.728226842487235"><ele>27.0</ele><time>2026-05-02T06:50:58.998Z</time></trkpt><trkpt lat="43.67167158782977" lon="10.72855273886906"><ele>27.0</ele><time>2026-05-02T06:50:59.998Z</time></trkpt><trkpt lat="43.67164120938155" lon="10.728878206037086"><ele>26.0</ele><time>2026-05-02T06:51:00.998Z</time></trkpt><trkpt lat="43.67160656455729" lon="10.729200259867792"><ele>25.0</ele><time>2026-05-02T06:51:01.998Z</time></trkpt><trkpt lat="43.67156911103053" lon="10.729525402359036"><ele>25.0</ele><time>2026-05-02T06:51:02.998Z</time></trkpt><trkpt lat="43.67152846757733" lon="10.729847878842614"><ele>25.0</ele><time>2026-05-02T06:51:03.998Z</time></trkpt><trkpt lat="43.67149025315244" lon="10.730171004780765"><ele>24.5</ele><time>2026-05-02T06:51:04.998Z</time></trkpt><trkpt lat="43.67145891481624" lon="10.730494490914863"><ele>24.0</ele><time>2026-05-02T06:51:05.998Z</time></trkpt><trkpt lat="43.67143065201475" lon="10.730813364884959"><ele>23.0</ele><time>2026-05-02T06:51:06.998Z</time></trkpt><trkpt lat="43.671401432310695" lon="10.731130388455256"><ele>22.0</ele><time>2026-05-02T06:51:07.998Z</time></trkpt><trkpt lat="43.67137575130997" lon="10.731442815785288"><ele>22.0</ele><time>2026-05-02T06:51:08.998Z</time></trkpt><trkpt lat="43.67134460939843" lon="10.73175988712132"><ele>22.0</ele><time>2026-05-02T06:51:09.998Z</time></trkpt><trkpt lat="43.67131649894457" lon="10.732071145808673"><ele>22.666666666666664</ele><time>2026-05-02T06:51:10.997Z</time></trkpt><trkpt lat="43.67128642480991" lon="10.732379907017526"><ele>23.333333333333332</ele><time>2026-05-02T06:51:11.997Z</time></trkpt><trkpt lat="43.671259952852395" lon="10.732685742689107"><ele>24.0</ele><time>2026-05-02T06:51:12.997Z</time></trkpt><trkpt lat="43.67123479280848" lon="10.7330012269441"><ele>24.5</ele><time>2026-05-02T06:51:13.997Z</time></trkpt><trkpt lat="43.671208567010744" lon="10.733324866594534"><ele>25.0</ele><time>2026-05-02T06:51:14.997Z</time></trkpt><trkpt lat="43.67117945886796" lon="10.733649543670424"><ele>25.0</ele><time>2026-05-02T06:51:15.997Z</time></trkpt><trkpt lat="43.67114987832978" lon="10.733972361147647"><ele>25.0</ele><time>2026-05-02T06:51:16.997Z</time></trkpt><trkpt lat="43.671122877265034" lon="10.734291887503929"><ele>25.5</ele><time>2026-05-02T06:51:17.997Z</time></trkpt><trkpt lat="43.67109270938002" lon="10.734619442725158"><ele>26.0</ele><time>2026-05-02T06:51:18.997Z</time></trkpt><trkpt lat="43.67105911294728" lon="10.73494242833466"><ele>25.5</ele><time>2026-05-02T06:51:19.997Z</time></trkpt><trkpt lat="43.671034634425666" lon="10.735260859241976"><ele>25.0</ele><time>2026-05-02T06:51:20.997Z</time></trkpt><trkpt lat="43.67101255575582" lon="10.735587739642689"><ele>25.0</ele><time>2026-05-02T06:51:21.997Z</time></trkpt><trkpt lat="43.67099554268947" lon="10.735901675363191"><ele>25.0</ele><time>2026-05-02T06:51:22.997Z</time></trkpt><trkpt lat="43.67098671450333" lon="10.736220063211718"><ele>25.0</ele><time>2026-05-02T06:51:23.997Z</time></trkpt><trkpt lat="43.67097623270782" lon="10.73653458869591"><ele>25.0</ele><time>2026-05-02T06:51:24.997Z</time></trkpt><trkpt lat="43.67097614573213" lon="10.736851947103133"><ele>25.5</ele><time>2026-05-02T06:51:25.997Z</time></trkpt><trkpt lat="43.670990724936615" lon="10.737171502864339"><ele>26.0</ele><time>2026-05-02T06:51:26.997Z</time></trkpt><trkpt lat="43.67101034729941" lon="10.737485960179155"><ele>26.5</ele><time>2026-05-02T06:51:27.997Z</time></trkpt><trkpt lat="43.671041318117396" lon="10.73779573986576"><ele>27.0</ele><time>2026-05-02T06:51:28.997Z</time></trkpt><trkpt lat="43.67108168657774" lon="10.738103375734136"><ele>28.5</ele><time>2026-05-02T06:51:29.997Z</time></trkpt><trkpt lat="43.67113914117797" lon="10.738415395537498"><ele>30.0</ele><time>2026-05-02T06:51:30.997Z</time></trkpt><trkpt lat="43.671198363659165" lon="10.738720166093314"><ele>30.0</ele><time>2026-05-02T06:51:31.997Z</time></trkpt><trkpt lat="43.67126877874212" lon="10.739021839019884"><ele>30.0</ele><time>2026-05-02T06:51:32.997Z</time></trkpt><trkpt lat="43.67134794629677" lon="10.739316611412534"><ele>30.0</ele><time>2026-05-02T06:51:33.997Z</time></trkpt><trkpt lat="43.671427898232615" lon="10.73960651134273"><ele>30.0</ele><time>2026-05-02T06:51:34.997Z</time></trkpt><trkpt lat="43.6715215332391" lon="10.739888262642525"><ele>30.0</ele><time>2026-05-02T06:51:35.997Z</time></trkpt><trkpt lat="43.67162159865083" lon="10.740162404325295"><ele>30.333333333333336</ele><time>2026-05-02T06:51:36.997Z</time></trkpt><trkpt lat="43.67172849328748" lon="10.740425338077925"><ele>30.666666666666668</ele><time>2026-05-02T06:51:37.997Z</time></trkpt><trkpt lat="43.67183965381645" lon="10.740675695587031"><ele>31.0</ele><time>2026-05-02T06:51:38.997Z</time></trkpt><trkpt lat="43.67196811001161" lon="10.740931826784793"><ele>31.0</ele><time>2026-05-02T06:51:39.997Z</time></trkpt><trkpt lat="43.67209718431271" lon="10.741169514665732"><ele>31.0</ele><time>2026-05-02T06:51:40.997Z</time></trkpt><trkpt lat="43.67223114420378" lon="10.74140471931926"><ele>31.0</ele><time>2026-05-02T06:51:41.997Z</time></trkpt><trkpt lat="43.672369239440194" lon="10.741632342641111"><ele>31.0</ele><time>2026-05-02T06:51:42.997Z</time></trkpt><trkpt lat="43.67251386925145" lon="10.741858421647661"><ele>31.0</ele><time>2026-05-02T06:51:43.997Z</time></trkpt><trkpt lat="43.67266591314304" lon="10.742069281508579"><ele>31.0</ele><time>2026-05-02T06:51:44.997Z</time></trkpt><trkpt lat="43.6728267194963" lon="10.742274894952747"><ele>31.666666666666668</ele><time>2026-05-02T06:51:45.997Z</time></trkpt><trkpt lat="43.6729895641487" lon="10.74247311704903"><ele>32.333333333333336</ele><time>2026-05-02T06:51:46.997Z</time></trkpt><trkpt lat="43.67315241420821" lon="10.74267699019073"><ele>33.0</ele><time>2026-05-02T06:51:47.997Z</time></trkpt><trkpt lat="43.67331571527998" lon="10.742874410735864"><ele>33.0</ele><time>2026-05-02T06:51:48.997Z</time></trkpt><trkpt lat="43.673480980346845" lon="10.743076043926989"><ele>33.0</ele><time>2026-05-02T06:51:49.997Z</time></trkpt><trkpt lat="43.67365031563399" lon="10.74326931950067"><ele>33.0</ele><time>2026-05-02T06:51:50.997Z</time></trkpt><trkpt lat="43.673820086071764" lon="10.74345779675708"><ele>36.333333333333336</ele><time>2026-05-02T06:51:51.997Z</time></trkpt><trkpt lat="43.67399225119127" lon="10.74365368578678"><ele>39.66666666666667</ele><time>2026-05-02T06:51:52.997Z</time></trkpt><trkpt lat="43.674165293947844" lon="10.743853497115968"><ele>43.0</ele><time>2026-05-02T06:51:53.997Z</time></trkpt><trkpt lat="43.67433385340147" lon="10.744045017489459"><ele>44.0</ele><time>2026-05-02T06:51:54.997Z</time></trkpt><trkpt lat="43.67450423768359" lon="10.744243693395584"><ele>45.0</ele><time>2026-05-02T06:51:55.997Z</time></trkpt><trkpt lat="43.67466993871905" lon="10.744431771669438"><ele>46.0</ele><time>2026-05-02T06:51:56.997Z</time></trkpt><trkpt lat="43.674838798863604" lon="10.744625530236656"><ele>46.0</ele><time>2026-05-02T06:51:57.997Z</time></trkpt><trkpt lat="43.67500779554945" lon="10.744812199492427"><ele>46.0</ele><time>2026-05-02T06:51:58.997Z</time></trkpt><trkpt lat="43.67517335098468" lon="10.74499459662589"><ele>46.0</ele><time>2026-05-02T06:51:59.997Z</time></trkpt><trkpt lat="43.67534596263154" lon="10.745187344817618"><ele>47.0</ele><time>2026-05-02T06:52:00.997Z</time></trkpt><trkpt lat="43.67552201382621" lon="10.745391198142352"><ele>48.0</ele><time>2026-05-02T06:52:01.997Z</time></trkpt><trkpt lat="43.675696884436626" lon="10.745588487560719"><ele>48.0</ele><time>2026-05-02T06:52:02.997Z</time></trkpt><trkpt lat="43.67587621147998" lon="10.745800150392638"><ele>48.0</ele><time>2026-05-02T06:52:03.997Z</time></trkpt><trkpt lat="43.67604942562629" lon="10.746013362711578"><ele>43.5</ele><time>2026-05-02T06:52:04.997Z</time></trkpt><trkpt lat="43.67623733035837" lon="10.746217577615706"><ele>39.0</ele><time>2026-05-02T06:52:05.997Z</time></trkpt><trkpt lat="43.67642375060144" lon="10.746428105044243"><ele>39.0</ele><time>2026-05-02T06:52:06.997Z</time></trkpt><trkpt lat="43.67660674178061" lon="10.746637201245967"><ele>39.0</ele><time>2026-05-02T06:52:07.997Z</time></trkpt><trkpt lat="43.67677892411702" lon="10.746834555562632"><ele>41.0</ele><time>2026-05-02T06:52:08.999Z</time></trkpt><trkpt lat="43.676947940496724" lon="10.747026696448117"><ele>43.0</ele><time>2026-05-02T06:52:09.999Z</time></trkpt><trkpt lat="43.67711080107349" lon="10.747222088563907"><ele>45.0</ele><time>2026-05-02T06:52:10.999Z</time></trkpt><trkpt lat="43.677265335526066" lon="10.747424935859264"><ele>45.0</ele><time>2026-05-02T06:52:11.999Z</time></trkpt><trkpt lat="43.67741806944034" lon="10.74763322321519"><ele>45.0</ele><time>2026-05-02T06:52:12.999Z</time></trkpt><trkpt lat="43.67757027415097" lon="10.74784497695127"><ele>45.0</ele><time>2026-05-02T06:52:13.999Z</time></trkpt><trkpt lat="43.677722695385725" lon="10.74806811549575"><ele>44.666666666666664</ele><time>2026-05-02T06:52:14.999Z</time></trkpt><trkpt lat="43.677871704646954" lon="10.748296687672841"><ele>44.33333333333333</ele><time>2026-05-02T06:52:15.999Z</time></trkpt><trkpt lat="43.67801548865709" lon="10.74853034388698"><ele>44.0</ele><time>2026-05-02T06:52:16.999Z</time></trkpt><trkpt lat="43.67815839282836" lon="10.748767590830129"><ele>44.0</ele><time>2026-05-02T06:52:17.998Z</time></trkpt><trkpt lat="43.67829334503885" lon="10.749011850031897"><ele>44.0</ele><time>2026-05-02T06:52:18.998Z</time></trkpt><trkpt lat="43.67842314872154" lon="10.749268482037976"><ele>44.0</ele><time>2026-05-02T06:52:19.998Z</time></trkpt><trkpt lat="43.67855063186985" lon="10.749528298270038"><ele>41.666666666666664</ele><time>2026-05-02T06:52:20.999Z</time></trkpt><trkpt lat="43.67867726094601" lon="10.7497806823938"><ele>39.333333333333336</ele><time>2026-05-02T06:52:21.999Z</time></trkpt><trkpt lat="43.67880491754193" lon="10.750031095293545"><ele>37.0</ele><time>2026-05-02T06:52:22.999Z</time></trkpt><trkpt lat="43.67893412151091" lon="10.750281145696086"><ele>37.0</ele><time>2026-05-02T06:52:23.999Z</time></trkpt><trkpt lat="43.679065589375405" lon="10.750532970640513"><ele>37.0</ele><time>2026-05-02T06:52:24.999Z</time></trkpt><trkpt lat="43.679194489259125" lon="10.750782708749119"><ele>37.0</ele><time>2026-05-02T06:52:25.999Z</time></trkpt><trkpt lat="43.67932060208473" lon="10.75103724448776"><ele>39.0</ele><time>2026-05-02T06:52:26.999Z</time></trkpt><trkpt lat="43.67944478685733" lon="10.751285746803505"><ele>41.0</ele><time>2026-05-02T06:52:27.999Z</time></trkpt><trkpt lat="43.67957417673704" lon="10.751533451864251"><ele>43.0</ele><time>2026-05-02T06:52:28.999Z</time></trkpt><trkpt lat="43.67969659818298" lon="10.751791313241045"><ele>41.333333333333336</ele><time>2026-05-02T06:52:29.999Z</time></trkpt><trkpt lat="43.67981798589903" lon="10.75203581917381"><ele>39.666666666666664</ele><time>2026-05-02T06:52:30.999Z</time></trkpt><trkpt lat="43.67995049382375" lon="10.752289876616798"><ele>38.0</ele><time>2026-05-02T06:52:31.999Z</time></trkpt><trkpt lat="43.68008323353316" lon="10.75254674167558"><ele>36.33333333333333</ele><time>2026-05-02T06:52:32.999Z</time></trkpt><trkpt lat="43.68020729478577" lon="10.75279687293495"><ele>34.666666666666664</ele><time>2026-05-02T06:52:33.999Z</time></trkpt><trkpt lat="43.68033585899788" lon="10.753046757118698"><ele>33.0</ele><time>2026-05-02T06:52:34.999Z</time></trkpt><trkpt lat="43.68047163695944" lon="10.753303892611848"><ele>33.0</ele><time>2026-05-02T06:52:35.999Z</time></trkpt><trkpt lat="43.68060723662302" lon="10.753555080728015"><ele>33.0</ele><time>2026-05-02T06:52:36.999Z</time></trkpt><trkpt lat="43.68073920224437" lon="10.753804530959941"><ele>33.0</ele><time>2026-05-02T06:52:37.999Z</time></trkpt><trkpt lat="43.680871196575225" lon="10.75406432837441"><ele>33.0</ele><time>2026-05-02T06:52:38.999Z</time></trkpt><trkpt lat="43.681001595840705" lon="10.754327397932093"><ele>32.5</ele><time>2026-05-02T06:52:39.999Z</time></trkpt><trkpt lat="43.68112922536814" lon="10.754590756728168"><ele>32.0</ele><time>2026-05-02T06:52:40.999Z</time></trkpt><trkpt lat="43.68125591330174" lon="10.754852241233666"><ele>32.0</ele><time>2026-05-02T06:52:41.999Z</time></trkpt><trkpt lat="43.681383874161796" lon="10.755108978151434"><ele>32.0</ele><time>2026-05-02T06:52:42.999Z</time></trkpt><trkpt lat="43.6815125359635" lon="10.755354901310247"><ele>32.0</ele><time>2026-05-02T06:52:43.999Z</time></trkpt><trkpt lat="43.68164536390239" lon="10.7555975067969"><ele>31.666666666666664</ele><time>2026-05-02T06:52:44.999Z</time></trkpt><trkpt lat="43.68177396405388" lon="10.75584985600364"><ele>31.333333333333336</ele><time>2026-05-02T06:52:45.999Z</time></trkpt><trkpt lat="43.68189935962246" lon="10.75610577801616"><ele>31.0</ele><time>2026-05-02T06:52:46.999Z</time></trkpt><trkpt lat="43.682025739596156" lon="10.756356616977264"><ele>31.0</ele><time>2026-05-02T06:52:47.999Z</time></trkpt><trkpt lat="43.68214616580489" lon="10.75660792263901"><ele>31.0</ele><time>2026-05-02T06:52:48.999Z</time></trkpt><trkpt lat="43.68226539384677" lon="10.756866753598564"><ele>31.0</ele><time>2026-05-02T06:52:49.999Z</time></trkpt><trkpt lat="43.682387185699994" lon="10.7571267641006"><ele>31.0</ele><time>2026-05-02T06:52:50.999Z</time></trkpt><trkpt lat="43.6824885909222" lon="10.757390787278293"><ele>31.0</ele><time>2026-05-02T06:52:51.999Z</time></trkpt><trkpt lat="43.6825865366037" lon="10.757659466223918"><ele>31.0</ele><time>2026-05-02T06:52:52.999Z</time></trkpt><trkpt lat="43.682683905068956" lon="10.757935032743902"><ele>31.666666666666668</ele><time>2026-05-02T06:52:53.999Z</time></trkpt><trkpt lat="43.682769948302244" lon="10.758212760350093"><ele>32.333333333333336</ele><time>2026-05-02T06:52:54.999Z</time></trkpt><trkpt lat="43.682855536596705" lon="10.758488366116374"><ele>33.0</ele><time>2026-05-02T06:52:55.999Z</time></trkpt><trkpt lat="43.68293754500472" lon="10.758774701107546"><ele>33.0</ele><time>2026-05-02T06:52:56.999Z</time></trkpt><trkpt lat="43.68300317247869" lon="10.759059746785193"><ele>33.0</ele><time>2026-05-02T06:52:57.999Z</time></trkpt><trkpt lat="43.683065043586446" lon="10.759353369908151"><ele>33.0</ele><time>2026-05-02T06:52:58.999Z</time></trkpt><trkpt lat="43.68312851013406" lon="10.75964473217643"><ele>33.666666666666664</ele><time>2026-05-02T06:52:59.999Z</time></trkpt><trkpt lat="43.683189757958196" lon="10.75993104480701"><ele>34.33333333333333</ele><time>2026-05-02T06:53:00.999Z</time></trkpt><trkpt lat="43.68324843275732" lon="10.76021716842188"><ele>35.0</ele><time>2026-05-02T06:53:01.999Z</time></trkpt><trkpt lat="43.68331147902686" lon="10.76052425386744"><ele>35.33333333333333</ele><time>2026-05-02T06:53:02.999Z</time></trkpt><trkpt lat="43.68337170877545" lon="10.760824487678232"><ele>35.666666666666664</ele><time>2026-05-02T06:53:03.999Z</time></trkpt><trkpt lat="43.68342992380835" lon="10.761119493209726"><ele>36.0</ele><time>2026-05-02T06:53:04.999Z</time></trkpt><trkpt lat="43.683480229517826" lon="10.761416898278968"><ele>34.0</ele><time>2026-05-02T06:53:05.999Z</time></trkpt><trkpt lat="43.68354384325837" lon="10.761718638048176"><ele>32.0</ele><time>2026-05-02T06:53:06.999Z</time></trkpt><trkpt lat="43.68360336580846" lon="10.762017998071416"><ele>32.0</ele><time>2026-05-02T06:53:07.998Z</time></trkpt><trkpt lat="43.68366082803649" lon="10.76231789574728"><ele>32.0</ele><time>2026-05-02T06:53:08.998Z</time></trkpt><trkpt lat="43.68370648472597" lon="10.762622461461293"><ele>32.0</ele><time>2026-05-02T06:53:09.998Z</time></trkpt><trkpt lat="43.683745359664144" lon="10.762925760708887"><ele>32.0</ele><time>2026-05-02T06:53:10.998Z</time></trkpt><trkpt lat="43.683784631451296" lon="10.763230305554012"><ele>32.0</ele><time>2026-05-02T06:53:11.998Z</time></trkpt><trkpt lat="43.68381748253477" lon="10.763537244722444"><ele>32.0</ele><time>2026-05-02T06:53:12.998Z</time></trkpt><trkpt lat="43.68384336862772" lon="10.763845095487918"><ele>32.0</ele><time>2026-05-02T06:53:13.998Z</time></trkpt><trkpt lat="43.68386524850204" lon="10.764149351253765"><ele>32.0</ele><time>2026-05-02T06:53:14.998Z</time></trkpt><trkpt lat="43.683879034822" lon="10.764455586011946"><ele>32.0</ele><time>2026-05-02T06:53:15.998Z</time></trkpt><trkpt lat="43.683896241503916" lon="10.764763860769351"><ele>32.33333333333333</ele><time>2026-05-02T06:53:16.998Z</time></trkpt><trkpt lat="43.683913515182155" lon="10.765063398773796"><ele>32.666666666666664</ele><time>2026-05-02T06:53:17.998Z</time></trkpt><trkpt lat="43.683930326889616" lon="10.765364720721774"><ele>33.0</ele><time>2026-05-02T06:53:18.998Z</time></trkpt><trkpt lat="43.68394587239237" lon="10.76566957116924"><ele>33.0</ele><time>2026-05-02T06:53:19.998Z</time></trkpt><trkpt lat="43.683960591469656" lon="10.765969709838942"><ele>33.0</ele><time>2026-05-02T06:53:20.998Z</time></trkpt><trkpt lat="43.68397748197026" lon="10.766281476663961"><ele>33.0</ele><time>2026-05-02T06:53:21.998Z</time></trkpt><trkpt lat="43.68399623843923" lon="10.766588059881188"><ele>34.333333333333336</ele><time>2026-05-02T06:53:22.998Z</time></trkpt><trkpt lat="43.68401560476976" lon="10.766895074857302"><ele>35.66666666666667</ele><time>2026-05-02T06:53:23.998Z</time></trkpt><trkpt lat="43.6840349737976" lon="10.767202805565027"><ele>37.0</ele><time>2026-05-02T06:53:24.998Z</time></trkpt><trkpt lat="43.684058452426875" lon="10.767512120522438"><ele>36.66666666666667</ele><time>2026-05-02T06:53:25.998Z</time></trkpt><trkpt lat="43.68408530495924" lon="10.767822190006832"><ele>36.333333333333336</ele><time>2026-05-02T06:53:26.998Z</time></trkpt><trkpt lat="43.684124364124784" lon="10.768123142851005"><ele>36.0</ele><time>2026-05-02T06:53:27.998Z</time></trkpt><trkpt lat="43.68416700990215" lon="10.768421637918765"><ele>35.666666666666664</ele><time>2026-05-02T06:53:28.998Z</time></trkpt><trkpt lat="43.68421961208692" lon="10.768721927344396"><ele>35.33333333333333</ele><time>2026-05-02T06:53:29.998Z</time></trkpt><trkpt lat="43.6842737261741" lon="10.769017351580755"><ele>35.0</ele><time>2026-05-02T06:53:30.998Z</time></trkpt><trkpt lat="43.68434113225214" lon="10.769312601825336"><ele>35.33333333333333</ele><time>2026-05-02T06:53:31.998Z</time></trkpt><trkpt lat="43.68440750128715" lon="10.769603441999157"><ele>35.666666666666664</ele><time>2026-05-02T06:53:32.998Z</time></trkpt><trkpt lat="43.6844814331787" lon="10.769894082033579"><ele>36.0</ele><time>2026-05-02T06:53:33.998Z</time></trkpt><trkpt lat="43.68456239438511" lon="10.770178952908159"><ele>37.0</ele><time>2026-05-02T06:53:34.998Z</time></trkpt><trkpt lat="43.68465089040626" lon="10.77046088092332"><ele>38.0</ele><time>2026-05-02T06:53:35.998Z</time></trkpt><trkpt lat="43.68474640127878" lon="10.770737825124298"><ele>39.0</ele><time>2026-05-02T06:53:36.998Z</time></trkpt><trkpt lat="43.68484915214294" lon="10.771016517874637"><ele>39.333333333333336</ele><time>2026-05-02T06:53:37.998Z</time></trkpt><trkpt lat="43.684951251315795" lon="10.771292375524542"><ele>39.66666666666667</ele><time>2026-05-02T06:53:38.998Z</time></trkpt><trkpt lat="43.685052797481745" lon="10.771566728392829"><ele>40.0</ele><time>2026-05-02T06:53:39.998Z</time></trkpt><trkpt lat="43.685155101144595" lon="10.771841291313098"><ele>41.0</ele><time>2026-05-02T06:53:40.998Z</time></trkpt><trkpt lat="43.685254497114805" lon="10.772109375568418"><ele>42.0</ele><time>2026-05-02T06:53:41.998Z</time></trkpt><trkpt lat="43.68535661758194" lon="10.772381899322212"><ele>43.0</ele><time>2026-05-02T06:53:42.998Z</time></trkpt><trkpt lat="43.68545959017339" lon="10.7726544056062"><ele>44.333333333333336</ele><time>2026-05-02T06:53:43.998Z</time></trkpt><trkpt lat="43.685565242594954" lon="10.772924666731715"><ele>45.666666666666664</ele><time>2026-05-02T06:53:44.998Z</time></trkpt><trkpt lat="43.68566891327024" lon="10.77319570035104"><ele>47.0</ele><time>2026-05-02T06:53:45.998Z</time></trkpt><trkpt lat="43.68577109100574" lon="10.77347300977326"><ele>48.5</ele><time>2026-05-02T06:53:46.998Z</time></trkpt><trkpt lat="43.68586911838668" lon="10.77375707988584"><ele>50.0</ele><time>2026-05-02T06:53:47.998Z</time></trkpt><trkpt lat="43.68596136941222" lon="10.774044564554162"><ele>50.0</ele><time>2026-05-02T06:53:48.998Z</time></trkpt><trkpt lat="43.68604184700076" lon="10.774339096001162"><ele>50.0</ele><time>2026-05-02T06:53:49.998Z</time></trkpt><trkpt lat="43.68612223549705" lon="10.774628572660632"><ele>52.0</ele><time>2026-05-02T06:53:50.998Z</time></trkpt><trkpt lat="43.686209272202774" lon="10.774922170505638"><ele>54.0</ele><time>2026-05-02T06:53:51.998Z</time></trkpt><trkpt lat="43.68628216053552" lon="10.77522104384255"><ele>54.33333333333333</ele><time>2026-05-02T06:53:52.998Z</time></trkpt><trkpt lat="43.686335998265356" lon="10.775513665121988"><ele>54.666666666666664</ele><time>2026-05-02T06:53:53.998Z</time></trkpt><trkpt lat="43.68640589026908" lon="10.775790717188917"><ele>55.0</ele><time>2026-05-02T06:53:54.998Z</time></trkpt><trkpt lat="43.686494926078275" lon="10.776044833206544"><ele>52.5</ele><time>2026-05-02T06:53:55.998Z</time></trkpt><trkpt lat="43.68658554846224" lon="10.776288343257114"><ele>50.0</ele><time>2026-05-02T06:53:56.998Z</time></trkpt><trkpt lat="43.68666549757298" lon="10.776499537110784"><ele>47.5</ele><time>2026-05-02T06:53:57.998Z</time></trkpt><trkpt lat="43.68668914165487" lon="10.776590605855542"><ele>45.0</ele><time>2026-05-02T06:53:58.998Z</time></trkpt><trkpt lat="43.68627242298886" lon="10.777060906730759"><ele>42.5</ele><time>2026-05-02T06:53:59.998Z</time></trkpt><trkpt lat="43.68621528631686" lon="10.777284069834693"><ele>40.0</ele><time>2026-05-02T06:54:00.998Z</time></trkpt><trkpt lat="43.68734252012318" lon="10.777616449103794"><ele>40.0</ele><time>2026-05-02T06:54:01.998Z</time></trkpt><trkpt lat="43.68748180955829" lon="10.777863492414095"><ele>40.0</ele><time>2026-05-02T06:54:02.998Z</time></trkpt><trkpt lat="43.68762658750314" lon="10.778120962315837"><ele>35.5</ele><time>2026-05-02T06:54:03.998Z</time></trkpt><trkpt lat="43.68776876495203" lon="10.778373391968131"><ele>31.0</ele><time>2026-05-02T06:54:04.998Z</time></trkpt><trkpt lat="43.68791052761451" lon="10.778623150679412"><ele>31.0</ele><time>2026-05-02T06:54:05.998Z</time></trkpt><trkpt lat="43.68805545401846" lon="10.778866142263377"><ele>31.0</ele><time>2026-05-02T06:54:06.998Z</time></trkpt><trkpt lat="43.68819546088958" lon="10.779110514455216"><ele>31.0</ele><time>2026-05-02T06:54:07.998Z</time></trkpt><trkpt lat="43.688334187238446" lon="10.779349437271755"><ele>31.0</ele><time>2026-05-02T06:54:08.998Z</time></trkpt><trkpt lat="43.68847299468766" lon="10.779588860089246"><ele>31.0</ele><time>2026-05-02T06:54:09.998Z</time></trkpt><trkpt lat="43.68861187091487" lon="10.779832618404933"><ele>28.0</ele><time>2026-05-02T06:54:10.998Z</time></trkpt><trkpt lat="43.68875462249505" lon="10.780074214689204"><ele>25.0</ele><time>2026-05-02T06:54:11.998Z</time></trkpt><trkpt lat="43.68890573185892" lon="10.780318909155563"><ele>25.0</ele><time>2026-05-02T06:54:12.998Z</time></trkpt><trkpt lat="43.68905323834165" lon="10.78056642730562"><ele>25.0</ele><time>2026-05-02T06:54:13.997Z</time></trkpt><trkpt lat="43.68919548570969" lon="10.780810855616695"><ele>24.666666666666668</ele><time>2026-05-02T06:54:14.999Z</time></trkpt><trkpt lat="43.68933725032966" lon="10.78105220648988"><ele>24.333333333333336</ele><time>2026-05-02T06:54:15.999Z</time></trkpt><trkpt lat="43.68947974247774" lon="10.781290891399633"><ele>24.0</ele><time>2026-05-02T06:54:16.999Z</time></trkpt><trkpt lat="43.68961943381766" lon="10.781529176837822"><ele>23.333333333333332</ele><time>2026-05-02T06:54:17.999Z</time></trkpt><trkpt lat="43.68975717028953" lon="10.781768028760592"><ele>22.666666666666664</ele><time>2026-05-02T06:54:18.999Z</time></trkpt><trkpt lat="43.689894524557104" lon="10.782006284033324"><ele>22.0</ele><time>2026-05-02T06:54:19.999Z</time></trkpt><trkpt lat="43.690029573388934" lon="10.782241831750904"><ele>22.0</ele><time>2026-05-02T06:54:20.999Z</time></trkpt><trkpt lat="43.69016450022204" lon="10.78247405534943"><ele>22.0</ele><time>2026-05-02T06:54:21.999Z</time></trkpt><trkpt lat="43.6902981545392" lon="10.782702473125386"><ele>22.0</ele><time>2026-05-02T06:54:22.999Z</time></trkpt><trkpt lat="43.69043395355775" lon="10.782931844614238"><ele>22.333333333333332</ele><time>2026-05-02T06:54:23.999Z</time></trkpt><trkpt lat="43.69056337948106" lon="10.783147209981902"><ele>22.666666666666668</ele><time>2026-05-02T06:54:24.999Z</time></trkpt><trkpt lat="43.69069048318965" lon="10.783357754480354"><ele>23.0</ele><time>2026-05-02T06:54:25.999Z</time></trkpt><trkpt lat="43.69080673058611" lon="10.783561440890171"><ele>23.0</ele><time>2026-05-02T06:54:26.999Z</time></trkpt><trkpt lat="43.69092404046877" lon="10.783768473732414"><ele>23.0</ele><time>2026-05-02T06:54:27.998Z</time></trkpt><trkpt lat="43.691060026149785" lon="10.783975456671024"><ele>23.0</ele><time>2026-05-02T06:54:28.998Z</time></trkpt><trkpt lat="43.6912093031244" lon="10.784197867616943"><ele>22.666666666666668</ele><time>2026-05-02T06:54:29.998Z</time></trkpt><trkpt lat="43.69135450035426" lon="10.784432186329093"><ele>22.333333333333332</ele><time>2026-05-02T06:54:30.998Z</time></trkpt><trkpt lat="43.691492827127405" lon="10.784665910896313"><ele>22.0</ele><time>2026-05-02T06:54:31.998Z</time></trkpt><trkpt lat="43.69163582758961" lon="10.784903211133322"><ele>22.0</ele><time>2026-05-02T06:54:32.998Z</time></trkpt><trkpt lat="43.69177940353685" lon="10.785151512775393"><ele>22.0</ele><time>2026-05-02T06:54:33.998Z</time></trkpt><trkpt lat="43.69191793511383" lon="10.785400171480516"><ele>22.5</ele><time>2026-05-02T06:54:34.998Z</time></trkpt><trkpt lat="43.69206102361185" lon="10.785652548499199"><ele>23.0</ele><time>2026-05-02T06:54:35.998Z</time></trkpt><trkpt lat="43.69220775161924" lon="10.78590305891666"><ele>22.0</ele><time>2026-05-02T06:54:36.998Z</time></trkpt><trkpt lat="43.69234795150543" lon="10.786164757783633"><ele>21.0</ele><time>2026-05-02T06:54:37.998Z</time></trkpt><trkpt lat="43.692486263269295" lon="10.786417108400082"><ele>21.0</ele><time>2026-05-02T06:54:38.998Z</time></trkpt><trkpt lat="43.69262667459921" lon="10.786663508845487"><ele>21.0</ele><time>2026-05-02T06:54:39.998Z</time></trkpt><trkpt lat="43.69276703391463" lon="10.786907714125313"><ele>21.666666666666668</ele><time>2026-05-02T06:54:40.998Z</time></trkpt><trkpt lat="43.69290795916078" lon="10.787156242361837"><ele>22.333333333333336</ele><time>2026-05-02T06:54:41.998Z</time></trkpt><trkpt lat="43.69304777316909" lon="10.787384912868133"><ele>23.0</ele><time>2026-05-02T06:54:42.998Z</time></trkpt><trkpt lat="43.69319049436466" lon="10.787623800724404"><ele>23.0</ele><time>2026-05-02T06:54:43.998Z</time></trkpt><trkpt lat="43.69333345431286" lon="10.787854738007512"><ele>23.0</ele><time>2026-05-02T06:54:44.998Z</time></trkpt><trkpt lat="43.69346821325526" lon="10.788085939389386"><ele>23.0</ele><time>2026-05-02T06:54:45.998Z</time></trkpt><trkpt lat="43.69359910443174" lon="10.788319389106405"><ele>23.0</ele><time>2026-05-02T06:54:46.998Z</time></trkpt><trkpt lat="43.69373273386726" lon="10.788553109230417"><ele>23.0</ele><time>2026-05-02T06:54:47.998Z</time></trkpt><trkpt lat="43.69386875128567" lon="10.788787756068457"><ele>23.0</ele><time>2026-05-02T06:54:48.998Z</time></trkpt><trkpt lat="43.69400296578959" lon="10.789025955040977"><ele>23.0</ele><time>2026-05-02T06:54:49.998Z</time></trkpt><trkpt lat="43.694136616898305" lon="10.789261903465981"><ele>23.0</ele><time>2026-05-02T06:54:50.998Z</time></trkpt><trkpt lat="43.694272860497065" lon="10.789500326292849"><ele>23.0</ele><time>2026-05-02T06:54:51.998Z</time></trkpt><trkpt lat="43.69441431257101" lon="10.789737063460104"><ele>22.0</ele><time>2026-05-02T06:54:52.998Z</time></trkpt><trkpt lat="43.69455869104352" lon="10.789977867748584"><ele>21.0</ele><time>2026-05-02T06:54:53.998Z</time></trkpt><trkpt lat="43.694706414796194" lon="10.79022548268826"><ele>20.5</ele><time>2026-05-02T06:54:54.998Z</time></trkpt><trkpt lat="43.69484558253453" lon="10.790479422652327"><ele>20.0</ele><time>2026-05-02T06:54:55.998Z</time></trkpt><trkpt lat="43.694981512001114" lon="10.790728363518097"><ele>20.0</ele><time>2026-05-02T06:54:56.998Z</time></trkpt><trkpt lat="43.69511674681656" lon="10.790982059613855"><ele>20.0</ele><time>2026-05-02T06:54:57.998Z</time></trkpt><trkpt lat="43.695248815038845" lon="10.791239931734422"><ele>20.0</ele><time>2026-05-02T06:54:58.998Z</time></trkpt><trkpt lat="43.69537677497265" lon="10.791506859790056"><ele>20.0</ele><time>2026-05-02T06:54:59.998Z</time></trkpt><trkpt lat="43.69549611550774" lon="10.791780509665314"><ele>21.0</ele><time>2026-05-02T06:55:00.998Z</time></trkpt><trkpt lat="43.69562118858175" lon="10.792058346603874"><ele>22.0</ele><time>2026-05-02T06:55:01.998Z</time></trkpt><trkpt lat="43.69574631752036" lon="10.792345393584126"><ele>22.0</ele><time>2026-05-02T06:55:02.998Z</time></trkpt><trkpt lat="43.69586247010024" lon="10.792635685130803"><ele>22.0</ele><time>2026-05-02T06:55:03.998Z</time></trkpt><trkpt lat="43.69596782497249" lon="10.792926307455218"><ele>22.5</ele><time>2026-05-02T06:55:04.998Z</time></trkpt><trkpt lat="43.6960623308003" lon="10.79321308541264"><ele>23.0</ele><time>2026-05-02T06:55:05.998Z</time></trkpt><trkpt lat="43.69615184032669" lon="10.793500012605481"><ele>22.333333333333336</ele><time>2026-05-02T06:55:06.998Z</time></trkpt><trkpt lat="43.696236422387074" lon="10.793787072567138"><ele>21.666666666666668</ele><time>2026-05-02T06:55:07.998Z</time></trkpt><trkpt lat="43.69630998153091" lon="10.794080201514562"><ele>21.0</ele><time>2026-05-02T06:55:08.998Z</time></trkpt><trkpt lat="43.696377627058894" lon="10.794377329632322"><ele>21.0</ele><time>2026-05-02T06:55:09.998Z</time></trkpt><trkpt lat="43.696439720432316" lon="10.794678675466358"><ele>21.0</ele><time>2026-05-02T06:55:10.998Z</time></trkpt><trkpt lat="43.69650095883581" lon="10.794978664490635"><ele>21.666666666666668</ele><time>2026-05-02T06:55:11.998Z</time></trkpt><trkpt lat="43.69656046714681" lon="10.795276489693563"><ele>22.333333333333336</ele><time>2026-05-02T06:55:12.998Z</time></trkpt><trkpt lat="43.69661416065664" lon="10.795570559167855"><ele>23.0</ele><time>2026-05-02T06:55:13.998Z</time></trkpt><trkpt lat="43.69666061872703" lon="10.795857860599638"><ele>22.666666666666668</ele><time>2026-05-02T06:55:14.997Z</time></trkpt><trkpt lat="43.69670167135865" lon="10.79614834064801"><ele>22.333333333333332</ele><time>2026-05-02T06:55:15.997Z</time></trkpt><trkpt lat="43.696741898314535" lon="10.796446171673876"><ele>22.0</ele><time>2026-05-02T06:55:16.997Z</time></trkpt><trkpt lat="43.696779365566435" lon="10.796745515250699"><ele>21.666666666666664</ele><time>2026-05-02T06:55:17.997Z</time></trkpt><trkpt lat="43.69681197401834" lon="10.797040486625576"><ele>21.333333333333332</ele><time>2026-05-02T06:55:18.997Z</time></trkpt><trkpt lat="43.696844421085956" lon="10.797328255000174"><ele>21.0</ele><time>2026-05-02T06:55:19.997Z</time></trkpt><trkpt lat="43.69687911827283" lon="10.797614126652782"><ele>21.0</ele><time>2026-05-02T06:55:20.997Z</time></trkpt><trkpt lat="43.69691271327849" lon="10.797899986924973"><ele>21.0</ele><time>2026-05-02T06:55:21.997Z</time></trkpt><trkpt lat="43.69694706166516" lon="10.798184933277394"><ele>21.0</ele><time>2026-05-02T06:55:22.997Z</time></trkpt><trkpt lat="43.69697724317262" lon="10.798472549318308"><ele>21.0</ele><time>2026-05-02T06:55:23.997Z</time></trkpt><trkpt lat="43.697009394445686" lon="10.798757724213749"><ele>21.0</ele><time>2026-05-02T06:55:24.997Z</time></trkpt><trkpt lat="43.69704868198197" lon="10.799047129745052"><ele>21.0</ele><time>2026-05-02T06:55:25.997Z</time></trkpt><trkpt lat="43.69708449340791" lon="10.799342787963676"><ele>21.0</ele><time>2026-05-02T06:55:26.997Z</time></trkpt><trkpt lat="43.69711611275139" lon="10.799639032844576"><ele>21.0</ele><time>2026-05-02T06:55:27.997Z</time></trkpt><trkpt lat="43.69715238457744" lon="10.799931585225982"><ele>21.0</ele><time>2026-05-02T06:55:28.997Z</time></trkpt><trkpt lat="43.69718803374393" lon="10.800226644030968"><ele>21.666666666666668</ele><time>2026-05-02T06:55:29.997Z</time></trkpt><trkpt lat="43.697225035807314" lon="10.800530709664583"><ele>22.333333333333336</ele><time>2026-05-02T06:55:30.997Z</time></trkpt><trkpt lat="43.69726237457578" lon="10.800834009046046"><ele>23.0</ele><time>2026-05-02T06:55:31.997Z</time></trkpt><trkpt lat="43.697299955050916" lon="10.801138477424237"><ele>23.0</ele><time>2026-05-02T06:55:32.997Z</time></trkpt><trkpt lat="43.69733678424367" lon="10.801434163679344"><ele>23.0</ele><time>2026-05-02T06:55:33.997Z</time></trkpt><trkpt lat="43.69737445233221" lon="10.801729789467426"><ele>23.0</ele><time>2026-05-02T06:55:34.997Z</time></trkpt><trkpt lat="43.69740940495007" lon="10.802030168027141"><ele>22.666666666666668</ele><time>2026-05-02T06:55:35.997Z</time></trkpt><trkpt lat="43.69744974637663" lon="10.802334134049824"><ele>22.333333333333332</ele><time>2026-05-02T06:55:36.997Z</time></trkpt><trkpt lat="43.697489055094486" lon="10.80262123505534"><ele>22.0</ele><time>2026-05-02T06:55:37.997Z</time></trkpt><trkpt lat="43.69753412200547" lon="10.802921511641724"><ele>21.666666666666664</ele><time>2026-05-02T06:55:38.997Z</time></trkpt><trkpt lat="43.69758007833535" lon="10.803221837269277"><ele>21.333333333333332</ele><time>2026-05-02T06:55:39.997Z</time></trkpt><trkpt lat="43.69762448286792" lon="10.803527942111112"><ele>21.0</ele><time>2026-05-02T06:55:40.997Z</time></trkpt><trkpt lat="43.697665852263206" lon="10.803844560548095"><ele>21.0</ele><time>2026-05-02T06:55:41.997Z</time></trkpt><trkpt lat="43.6976997624065" lon="10.804161685207486"><ele>21.0</ele><time>2026-05-02T06:55:42.997Z</time></trkpt><trkpt lat="43.69773429457078" lon="10.804484284415812"><ele>21.0</ele><time>2026-05-02T06:55:43.997Z</time></trkpt><trkpt lat="43.69777457854455" lon="10.80480800334252"><ele>21.0</ele><time>2026-05-02T06:55:44.997Z</time></trkpt><trkpt lat="43.69781614110433" lon="10.805128542442356"><ele>21.0</ele><time>2026-05-02T06:55:45.997Z</time></trkpt><trkpt lat="43.69785839036239" lon="10.805456785061818"><ele>21.0</ele><time>2026-05-02T06:55:46.997Z</time></trkpt><trkpt lat="43.697903807242184" lon="10.805783373381468"><ele>21.0</ele><time>2026-05-02T06:55:47.997Z</time></trkpt><trkpt lat="43.69793466217222" lon="10.806113069008951"><ele>21.0</ele><time>2026-05-02T06:55:48.997Z</time></trkpt><trkpt lat="43.697978741479" lon="10.806439618790638"><ele>21.0</ele><time>2026-05-02T06:55:49.997Z</time></trkpt><trkpt lat="43.698009511737816" lon="10.806768698851695"><ele>21.0</ele><time>2026-05-02T06:55:50.997Z</time></trkpt><trkpt lat="43.69804043800898" lon="10.807104257904312"><ele>21.0</ele><time>2026-05-02T06:55:51.997Z</time></trkpt><trkpt lat="43.69806730631304" lon="10.807438451911725"><ele>21.0</ele><time>2026-05-02T06:55:52.997Z</time></trkpt><trkpt lat="43.6981014378906" lon="10.807774974557137"><ele>21.0</ele><time>2026-05-02T06:55:53.997Z</time></trkpt><trkpt lat="43.69813976192983" lon="10.80810944725089"><ele>21.0</ele><time>2026-05-02T06:55:54.997Z</time></trkpt><trkpt lat="43.69818137440087" lon="10.808440967106886"><ele>21.5</ele><time>2026-05-02T06:55:55.997Z</time></trkpt><trkpt lat="43.69822516696458" lon="10.808770221242991"><ele>22.0</ele><time>2026-05-02T06:55:56.997Z</time></trkpt><trkpt lat="43.69826520497989" lon="10.809099600737918"><ele>22.5</ele><time>2026-05-02T06:55:57.997Z</time></trkpt><trkpt lat="43.698303466998574" lon="10.809426950543575"><ele>23.0</ele><time>2026-05-02T06:55:58.997Z</time></trkpt><trkpt lat="43.69834106443581" lon="10.809754622717385"><ele>23.0</ele><time>2026-05-02T06:55:59.997Z</time></trkpt><trkpt lat="43.69837841619664" lon="10.810079800134748"><ele>23.0</ele><time>2026-05-02T06:56:00.997Z</time></trkpt><trkpt lat="43.698418466379664" lon="10.810408238915121"><ele>23.5</ele><time>2026-05-02T06:56:01.997Z</time></trkpt><trkpt lat="43.698460323276656" lon="10.81073775654157"><ele>24.0</ele><time>2026-05-02T06:56:02.997Z</time></trkpt><trkpt lat="43.69849871745965" lon="10.811073080448578"><ele>22.5</ele><time>2026-05-02T06:56:03.997Z</time></trkpt><trkpt lat="43.69853738759416" lon="10.811412242542907"><ele>21.0</ele><time>2026-05-02T06:56:04.997Z</time></trkpt><trkpt lat="43.69857701277846" lon="10.811756180539373"><ele>21.5</ele><time>2026-05-02T06:56:05.997Z</time></trkpt><trkpt lat="43.698615776800814" lon="10.812103953288384"><ele>22.0</ele><time>2026-05-02T06:56:06.997Z</time></trkpt><trkpt lat="43.69865468902094" lon="10.81245670282295"><ele>21.5</ele><time>2026-05-02T06:56:07.997Z</time></trkpt><trkpt lat="43.69868076123588" lon="10.81280989408802"><ele>21.0</ele><time>2026-05-02T06:56:08.997Z</time></trkpt><trkpt lat="43.69870776056985" lon="10.81316779972944"><ele>20.5</ele><time>2026-05-02T06:56:09.997Z</time></trkpt><trkpt lat="43.69872743676871" lon="10.81351023987222"><ele>20.0</ele><time>2026-05-02T06:56:10.997Z</time></trkpt><trkpt lat="43.69873921804016" lon="10.81384742909501"><ele>20.0</ele><time>2026-05-02T06:56:11.997Z</time></trkpt><trkpt lat="43.69875232551556" lon="10.814184906288252"><ele>20.0</ele><time>2026-05-02T06:56:12.997Z</time></trkpt><trkpt lat="43.6987580490741" lon="10.814522583632737"><ele>20.0</ele><time>2026-05-02T06:56:13.997Z</time></trkpt><trkpt lat="43.69875923552907" lon="10.814861819005444"><ele>20.0</ele><time>2026-05-02T06:56:14.997Z</time></trkpt><trkpt lat="43.69875707312689" lon="10.815199083485517"><ele>20.5</ele><time>2026-05-02T06:56:15.997Z</time></trkpt><trkpt lat="43.698749075354456" lon="10.81554209666275"><ele>21.0</ele><time>2026-05-02T06:56:16.997Z</time></trkpt><trkpt lat="43.69873628046831" lon="10.815883998751728"><ele>21.5</ele><time>2026-05-02T06:56:17.997Z</time></trkpt><trkpt lat="43.69872037520706" lon="10.816225820623691"><ele>22.0</ele><time>2026-05-02T06:56:18.997Z</time></trkpt><trkpt lat="43.69869576329648" lon="10.816569173234782"><ele>22.0</ele><time>2026-05-02T06:56:19.997Z</time></trkpt><trkpt lat="43.69867562089642" lon="10.816914523721477"><ele>22.0</ele><time>2026-05-02T06:56:20.999Z</time></trkpt><trkpt lat="43.69864213361065" lon="10.817253407380928"><ele>22.0</ele><time>2026-05-02T06:56:21.999Z</time></trkpt><trkpt lat="43.698602607377914" lon="10.817599823783802"><ele>22.0</ele><time>2026-05-02T06:56:22.999Z</time></trkpt><trkpt lat="43.69856262851907" lon="10.817946173674391"><ele>21.5</ele><time>2026-05-02T06:56:23.998Z</time></trkpt><trkpt lat="43.698515153765086" lon="10.818289676402166"><ele>21.0</ele><time>2026-05-02T06:56:24.999Z</time></trkpt><trkpt lat="43.69846198762925" lon="10.81863659353566"><ele>20.5</ele><time>2026-05-02T06:56:25.999Z</time></trkpt><trkpt lat="43.69841086119578" lon="10.81897048839314"><ele>20.0</ele><time>2026-05-02T06:56:26.999Z</time></trkpt><trkpt lat="43.69835542229414" lon="10.819304282036654"><ele>20.0</ele><time>2026-05-02T06:56:27.999Z</time></trkpt><trkpt lat="43.698294835953156" lon="10.819635067536034"><ele>20.0</ele><time>2026-05-02T06:56:28.999Z</time></trkpt><trkpt lat="43.698228403470154" lon="10.819965901919215"><ele>20.0</ele><time>2026-05-02T06:56:29.999Z</time></trkpt><trkpt lat="43.69816008527532" lon="10.82029294010471"><ele>20.0</ele><time>2026-05-02T06:56:30.999Z</time></trkpt><trkpt lat="43.6980988909404" lon="10.820619529040025"><ele>20.0</ele><time>2026-05-02T06:56:31.999Z</time></trkpt><trkpt lat="43.698036217367196" lon="10.820955254249238"><ele>20.0</ele><time>2026-05-02T06:56:32.998Z</time></trkpt><trkpt lat="43.69796894449484" lon="10.821286769589182"><ele>20.0</ele><time>2026-05-02T06:56:33.999Z</time></trkpt><trkpt lat="43.69790154279518" lon="10.82161825165466"><ele>20.0</ele><time>2026-05-02T06:56:34.999Z</time></trkpt><trkpt lat="43.6978388418787" lon="10.821952185444582"><ele>20.0</ele><time>2026-05-02T06:56:35.999Z</time></trkpt><trkpt lat="43.69777531636918" lon="10.822278159306514"><ele>20.0</ele><time>2026-05-02T06:56:36.999Z</time></trkpt><trkpt lat="43.69771278445849" lon="10.82260005863743"><ele>19.5</ele><time>2026-05-02T06:56:37.999Z</time></trkpt><trkpt lat="43.69765032561011" lon="10.822920874992128"><ele>19.0</ele><time>2026-05-02T06:56:38.999Z</time></trkpt><trkpt lat="43.69758775207615" lon="10.823243943331128"><ele>19.0</ele><time>2026-05-02T06:56:39.999Z</time></trkpt><trkpt lat="43.69752266811689" lon="10.823569534640159"><ele>19.0</ele><time>2026-05-02T06:56:40.998Z</time></trkpt><trkpt lat="43.69745830038868" lon="10.823898080292507"><ele>19.0</ele><time>2026-05-02T06:56:41.998Z</time></trkpt><trkpt lat="43.69739453860811" lon="10.824226496504387"><ele>19.0</ele><time>2026-05-02T06:56:42.998Z</time></trkpt><trkpt lat="43.697333144594666" lon="10.824556810218057"><ele>18.5</ele><time>2026-05-02T06:56:43.998Z</time></trkpt><trkpt lat="43.69726728138162" lon="10.824885021993087"><ele>18.0</ele><time>2026-05-02T06:56:44.998Z</time></trkpt><trkpt lat="43.69720505290666" lon="10.825211778679963"><ele>19.0</ele><time>2026-05-02T06:56:45.998Z</time></trkpt><trkpt lat="43.697138235170456" lon="10.825536062742072"><ele>20.0</ele><time>2026-05-02T06:56:46.998Z</time></trkpt><trkpt lat="43.69707445125735" lon="10.825854962236233"><ele>20.5</ele><time>2026-05-02T06:56:47.998Z</time></trkpt><trkpt lat="43.69701036955203" lon="10.826176540692854"><ele>21.0</ele><time>2026-05-02T06:56:48.998Z</time></trkpt><trkpt lat="43.6969463017922" lon="10.826496459570354"><ele>21.5</ele><time>2026-05-02T06:56:49.998Z</time></trkpt><trkpt lat="43.696884111409105" lon="10.826814667923395"><ele>22.0</ele><time>2026-05-02T06:56:50.998Z</time></trkpt><trkpt lat="43.69682219660435" lon="10.82713703158365"><ele>22.0</ele><time>2026-05-02T06:56:51.998Z</time></trkpt><trkpt lat="43.696765041077796" lon="10.827461399359422"><ele>22.0</ele><time>2026-05-02T06:56:52.998Z</time></trkpt><trkpt lat="43.69671351373533" lon="10.827789031020604"><ele>22.5</ele><time>2026-05-02T06:56:53.998Z</time></trkpt><trkpt lat="43.69667153272497" lon="10.828120893791805"><ele>23.0</ele><time>2026-05-02T06:56:54.998Z</time></trkpt><trkpt lat="43.696637321469744" lon="10.8284522585918"><ele>23.0</ele><time>2026-05-02T06:56:55.998Z</time></trkpt><trkpt lat="43.69661541332626" lon="10.828778452020295"><ele>23.0</ele><time>2026-05-02T06:56:56.998Z</time></trkpt><trkpt lat="43.69660192498004" lon="10.829100797503962"><ele>22.5</ele><time>2026-05-02T06:56:57.998Z</time></trkpt><trkpt lat="43.696601014021184" lon="10.82942972201319"><ele>22.0</ele><time>2026-05-02T06:56:58.998Z</time></trkpt><trkpt lat="43.696602893395784" lon="10.829759980286033"><ele>22.0</ele><time>2026-05-02T06:56:59.998Z</time></trkpt><trkpt lat="43.69661551275776" lon="10.83009246075223"><ele>22.0</ele><time>2026-05-02T06:57:00.998Z</time></trkpt><trkpt lat="43.69664333394408" lon="10.830415182720568"><ele>21.5</ele><time>2026-05-02T06:57:01.998Z</time></trkpt><trkpt lat="43.69667461693847" lon="10.830746304071459"><ele>21.0</ele><time>2026-05-02T06:57:02.998Z</time></trkpt><trkpt lat="43.696709697062765" lon="10.831064055685365"><ele>21.0</ele><time>2026-05-02T06:57:03.998Z</time></trkpt><trkpt lat="43.69675620344018" lon="10.831388364338133"><ele>21.0</ele><time>2026-05-02T06:57:04.998Z</time></trkpt><trkpt lat="43.69681293511407" lon="10.831708439160744"><ele>20.5</ele><time>2026-05-02T06:57:05.998Z</time></trkpt><trkpt lat="43.696883064452976" lon="10.832026612873692"><ele>20.0</ele><time>2026-05-02T06:57:06.998Z</time></trkpt><trkpt lat="43.696961472243345" lon="10.832337636391552"><ele>21.5</ele><time>2026-05-02T06:57:07.998Z</time></trkpt><trkpt lat="43.697048689949" lon="10.832646817595911"><ele>23.0</ele><time>2026-05-02T06:57:08.998Z</time></trkpt><trkpt lat="43.69714032067091" lon="10.832951450469693"><ele>23.0</ele><time>2026-05-02T06:57:09.998Z</time></trkpt><trkpt lat="43.69723572006234" lon="10.833238991831669"><ele>23.0</ele><time>2026-05-02T06:57:10.998Z</time></trkpt><trkpt lat="43.6973369765605" lon="10.83352364397058"><ele>23.0</ele><time>2026-05-02T06:57:11.998Z</time></trkpt><trkpt lat="43.69744418744295" lon="10.833788317361437"><ele>23.0</ele><time>2026-05-02T06:57:12.998Z</time></trkpt><trkpt lat="43.69755756576661" lon="10.83405283865197"><ele>23.0</ele><time>2026-05-02T06:57:13.998Z</time></trkpt><trkpt lat="43.69767636554526" lon="10.83431650507401"><ele>24.0</ele><time>2026-05-02T06:57:14.998Z</time></trkpt><trkpt lat="43.69780339210732" lon="10.834580691460442"><ele>25.0</ele><time>2026-05-02T06:57:15.998Z</time></trkpt><trkpt lat="43.69792785044366" lon="10.83483570551536"><ele>25.0</ele><time>2026-05-02T06:57:16.998Z</time></trkpt><trkpt lat="43.698060859507734" lon="10.835097865709255"><ele>25.0</ele><time>2026-05-02T06:57:17.998Z</time></trkpt><trkpt lat="43.69819204834388" lon="10.835360587883471"><ele>23.5</ele><time>2026-05-02T06:57:18.998Z</time></trkpt><trkpt lat="43.69831831731398" lon="10.83562325200768"><ele>22.0</ele><time>2026-05-02T06:57:19.998Z</time></trkpt><trkpt lat="43.69844992423525" lon="10.835895502277275"><ele>22.0</ele><time>2026-05-02T06:57:20.998Z</time></trkpt><trkpt lat="43.6985842593305" lon="10.83616385816491"><ele>22.0</ele><time>2026-05-02T06:57:21.998Z</time></trkpt><trkpt lat="43.698716879392464" lon="10.836427849835564"><ele>22.0</ele><time>2026-05-02T06:57:22.998Z</time></trkpt><trkpt lat="43.69884922366402" lon="10.836691630451673"><ele>22.0</ele><time>2026-05-02T06:57:23.998Z</time></trkpt><trkpt lat="43.69898243151111" lon="10.836957671729378"><ele>21.0</ele><time>2026-05-02T06:57:24.998Z</time></trkpt><trkpt lat="43.69911108082309" lon="10.83721575404738"><ele>20.0</ele><time>2026-05-02T06:57:25.998Z</time></trkpt><trkpt lat="43.699240027535474" lon="10.837477844613966"><ele>20.5</ele><time>2026-05-02T06:57:26.998Z</time></trkpt><trkpt lat="43.69937650239589" lon="10.83773745364911"><ele>21.0</ele><time>2026-05-02T06:57:27.998Z</time></trkpt><trkpt lat="43.69950506096085" lon="10.837998109741823"><ele>21.5</ele><time>2026-05-02T06:57:28.998Z</time></trkpt><trkpt lat="43.699633296461656" lon="10.838259333463997"><ele>22.0</ele><time>2026-05-02T06:57:29.998Z</time></trkpt><trkpt lat="43.69975301326064" lon="10.838519016820493"><ele>22.0</ele><time>2026-05-02T06:57:30.998Z</time></trkpt><trkpt lat="43.69987881093922" lon="10.83877733336679"><ele>22.0</ele><time>2026-05-02T06:57:31.998Z</time></trkpt><trkpt lat="43.70001269657054" lon="10.839036953980845"><ele>22.0</ele><time>2026-05-02T06:57:32.998Z</time></trkpt><trkpt lat="43.700146938081204" lon="10.839297253862897"><ele>22.0</ele><time>2026-05-02T06:57:33.998Z</time></trkpt><trkpt lat="43.70027731735192" lon="10.839557921915084"><ele>21.666666666666664</ele><time>2026-05-02T06:57:34.998Z</time></trkpt><trkpt lat="43.70040464869798" lon="10.83981890596479"><ele>21.333333333333332</ele><time>2026-05-02T06:57:35.998Z</time></trkpt><trkpt lat="43.70052879367464" lon="10.840072546099071"><ele>21.0</ele><time>2026-05-02T06:57:36.998Z</time></trkpt><trkpt lat="43.70065402167621" lon="10.840321157666102"><ele>21.0</ele><time>2026-05-02T06:57:37.998Z</time></trkpt><trkpt lat="43.70077888636442" lon="10.840573838512746"><ele>21.0</ele><time>2026-05-02T06:57:38.998Z</time></trkpt><trkpt lat="43.70090253002511" lon="10.840829861002366"><ele>21.0</ele><time>2026-05-02T06:57:39.998Z</time></trkpt><trkpt lat="43.70102962462052" lon="10.841086461648725"><ele>21.5</ele><time>2026-05-02T06:57:40.998Z</time></trkpt><trkpt lat="43.7011541446565" lon="10.841343511951266"><ele>22.0</ele><time>2026-05-02T06:57:41.998Z</time></trkpt><trkpt lat="43.70128354670597" lon="10.841606908493226"><ele>22.0</ele><time>2026-05-02T06:57:42.998Z</time></trkpt><trkpt lat="43.70139950129963" lon="10.84188025038434"><ele>22.0</ele><time>2026-05-02T06:57:43.998Z</time></trkpt><trkpt lat="43.7015092577693" lon="10.842156691124071"><ele>22.0</ele><time>2026-05-02T06:57:44.998Z</time></trkpt><trkpt lat="43.70162029382238" lon="10.842428594139923"><ele>22.0</ele><time>2026-05-02T06:57:45.997Z</time></trkpt><trkpt lat="43.701712275368514" lon="10.842704149321113"><ele>22.0</ele><time>2026-05-02T06:57:46.997Z</time></trkpt><trkpt lat="43.70180218248011" lon="10.842999215570604"><ele>21.5</ele><time>2026-05-02T06:57:47.997Z</time></trkpt><trkpt lat="43.701883094625714" lon="10.84329447421398"><ele>21.0</ele><time>2026-05-02T06:57:48.997Z</time></trkpt><trkpt lat="43.70195706670267" lon="10.843593064442123"><ele>20.5</ele><time>2026-05-02T06:57:49.997Z</time></trkpt><trkpt lat="43.702026614444534" lon="10.84389889159813"><ele>20.0</ele><time>2026-05-02T06:57:50.997Z</time></trkpt><trkpt lat="43.702087286833944" lon="10.844207146327681"><ele>21.0</ele><time>2026-05-02T06:57:51.997Z</time></trkpt><trkpt lat="43.702141290910475" lon="10.844515095539167"><ele>22.0</ele><time>2026-05-02T06:57:52.997Z</time></trkpt><trkpt lat="43.70219108875015" lon="10.844822692045748"><ele>22.0</ele><time>2026-05-02T06:57:53.997Z</time></trkpt><trkpt lat="43.702233963165625" lon="10.845135734571505"><ele>22.0</ele><time>2026-05-02T06:57:54.997Z</time></trkpt><trkpt lat="43.70228332299955" lon="10.8454403829026"><ele>22.0</ele><time>2026-05-02T06:57:55.997Z</time></trkpt><trkpt lat="43.702322069338734" lon="10.84575599446524"><ele>22.0</ele><time>2026-05-02T06:57:56.997Z</time></trkpt><trkpt lat="43.70236219669259" lon="10.84607174998435"><ele>22.0</ele><time>2026-05-02T06:57:57.997Z</time></trkpt><trkpt lat="43.702401356764156" lon="10.846381656142254"><ele>22.0</ele><time>2026-05-02T06:57:58.997Z</time></trkpt><trkpt lat="43.702439569615514" lon="10.846695781795178"><ele>22.5</ele><time>2026-05-02T06:57:59.997Z</time></trkpt><trkpt lat="43.70247604013766" lon="10.847009326840508"><ele>23.0</ele><time>2026-05-02T06:58:00.997Z</time></trkpt><trkpt lat="43.70251435746083" lon="10.847322214310998"><ele>21.5</ele><time>2026-05-02T06:58:01.997Z</time></trkpt><trkpt lat="43.70255092593938" lon="10.847632735626433"><ele>20.0</ele><time>2026-05-02T06:58:02.997Z</time></trkpt><trkpt lat="43.70258872860239" lon="10.847936257486777"><ele>20.0</ele><time>2026-05-02T06:58:03.997Z</time></trkpt><trkpt lat="43.70262812876038" lon="10.848252057380527"><ele>20.0</ele><time>2026-05-02T06:58:04.997Z</time></trkpt><trkpt lat="43.702672704724534" lon="10.848564829565557"><ele>19.5</ele><time>2026-05-02T06:58:05.997Z</time></trkpt><trkpt lat="43.70271614105808" lon="10.848878939455721"><ele>19.0</ele><time>2026-05-02T06:58:06.997Z</time></trkpt><trkpt lat="43.702759534631916" lon="10.849192112501012"><ele>20.5</ele><time>2026-05-02T06:58:07.997Z</time></trkpt><trkpt lat="43.70279538919679" lon="10.849506679672455"><ele>22.0</ele><time>2026-05-02T06:58:08.997Z</time></trkpt><trkpt lat="43.70283426072985" lon="10.849815224235105"><ele>21.5</ele><time>2026-05-02T06:58:09.997Z</time></trkpt><trkpt lat="43.70286739318072" lon="10.850127587657887"><ele>21.0</ele><time>2026-05-02T06:58:10.997Z</time></trkpt><trkpt lat="43.70290708472894" lon="10.850437143089938"><ele>21.0</ele><time>2026-05-02T06:58:11.997Z</time></trkpt><trkpt lat="43.702946950665876" lon="10.850746683689918"><ele>21.0</ele><time>2026-05-02T06:58:12.997Z</time></trkpt><trkpt lat="43.70298687895911" lon="10.851056187285902"><ele>22.0</ele><time>2026-05-02T06:58:13.997Z</time></trkpt><trkpt lat="43.70303109820757" lon="10.851366623766646"><ele>23.0</ele><time>2026-05-02T06:58:14.997Z</time></trkpt><trkpt lat="43.703068252985986" lon="10.851678337874171"><ele>22.5</ele><time>2026-05-02T06:58:15.997Z</time></trkpt><trkpt lat="43.70310915408236" lon="10.85198933860895"><ele>22.0</ele><time>2026-05-02T06:58:16.997Z</time></trkpt><trkpt lat="43.70315210284487" lon="10.852293055294421"><ele>22.0</ele><time>2026-05-02T06:58:17.997Z</time></trkpt><trkpt lat="43.703191830928375" lon="10.852601176973954"><ele>22.0</ele><time>2026-05-02T06:58:18.997Z</time></trkpt><trkpt lat="43.70323552798367" lon="10.852916154144868"><ele>22.0</ele><time>2026-05-02T06:58:19.997Z</time></trkpt><trkpt lat="43.70326939276008" lon="10.853234616016818"><ele>22.0</ele><time>2026-05-02T06:58:20.997Z</time></trkpt><trkpt lat="43.7033066577514" lon="10.853549773273105"><ele>22.0</ele><time>2026-05-02T06:58:21.997Z</time></trkpt><trkpt lat="43.70334645437192" lon="10.8538578047148"><ele>22.0</ele><time>2026-05-02T06:58:22.997Z</time></trkpt><trkpt lat="43.703387779455724" lon="10.8541612893657"><ele>22.0</ele><time>2026-05-02T06:58:23.997Z</time></trkpt><trkpt lat="43.703425349675726" lon="10.854465146794531"><ele>22.0</ele><time>2026-05-02T06:58:24.997Z</time></trkpt><trkpt lat="43.703457467736584" lon="10.854767585682412"><ele>22.0</ele><time>2026-05-02T06:58:25.997Z</time></trkpt><trkpt lat="43.70349835462625" lon="10.855072738091742"><ele>22.0</ele><time>2026-05-02T06:58:26.999Z</time></trkpt><trkpt lat="43.70354162511709" lon="10.855377395800984"><ele>22.5</ele><time>2026-05-02T06:58:27.998Z</time></trkpt><trkpt lat="43.70357862306625" lon="10.855684019033719"><ele>23.0</ele><time>2026-05-02T06:58:28.998Z</time></trkpt><trkpt lat="43.70362333506205" lon="10.855997257660368"><ele>22.0</ele><time>2026-05-02T06:58:29.999Z</time></trkpt><trkpt lat="43.70366789034079" lon="10.856309032285964"><ele>21.0</ele><time>2026-05-02T06:58:30.999Z</time></trkpt><trkpt lat="43.70370351209475" lon="10.856623067263024"><ele>21.5</ele><time>2026-05-02T06:58:31.999Z</time></trkpt><trkpt lat="43.70374100560169" lon="10.856935694339835"><ele>22.0</ele><time>2026-05-02T06:58:32.999Z</time></trkpt><trkpt lat="43.70377867361255" lon="10.857244441556043"><ele>22.0</ele><time>2026-05-02T06:58:33.999Z</time></trkpt><trkpt lat="43.70381953187583" lon="10.85755763926896"><ele>22.0</ele><time>2026-05-02T06:58:34.998Z</time></trkpt><trkpt lat="43.70385734232456" lon="10.857857654421329"><ele>22.0</ele><time>2026-05-02T06:58:35.999Z</time></trkpt><trkpt lat="43.703897728356544" lon="10.858159540066113"><ele>22.0</ele><time>2026-05-02T06:58:36.998Z</time></trkpt><trkpt lat="43.703935929252566" lon="10.858465691733269"><ele>22.0</ele><time>2026-05-02T06:58:37.998Z</time></trkpt><trkpt lat="43.70398463383409" lon="10.85878436368052"><ele>22.0</ele><time>2026-05-02T06:58:38.999Z</time></trkpt><trkpt lat="43.70402993554604" lon="10.859099189166281"><ele>22.0</ele><time>2026-05-02T06:58:39.998Z</time></trkpt><trkpt lat="43.70407235414798" lon="10.859418857215092"><ele>21.5</ele><time>2026-05-02T06:58:40.998Z</time></trkpt><trkpt lat="43.70411358702207" lon="10.859734617277637"><ele>21.0</ele><time>2026-05-02T06:58:41.998Z</time></trkpt><trkpt lat="43.70414767535194" lon="10.860038816576303"><ele>21.333333333333332</ele><time>2026-05-02T06:58:42.998Z</time></trkpt><trkpt lat="43.704182091880526" lon="10.860323726636295"><ele>21.666666666666664</ele><time>2026-05-02T06:58:43.998Z</time></trkpt><trkpt lat="43.70420298159695" lon="10.860610720566312"><ele>22.0</ele><time>2026-05-02T06:58:44.998Z</time></trkpt><trkpt lat="43.70421185699958" lon="10.860897799521785"><ele>22.0</ele><time>2026-05-02T06:58:45.998Z</time></trkpt><trkpt lat="43.70421434986648" lon="10.86118040305463"><ele>22.0</ele><time>2026-05-02T06:58:46.998Z</time></trkpt><trkpt lat="43.70421760890912" lon="10.861444279428422"><ele>22.0</ele><time>2026-05-02T06:58:47.998Z</time></trkpt><trkpt lat="43.70422190013102" lon="10.861702550150385"><ele>22.333333333333332</ele><time>2026-05-02T06:58:48.998Z</time></trkpt><trkpt lat="43.70422582215755" lon="10.861963038410925"><ele>22.666666666666668</ele><time>2026-05-02T06:58:49.998Z</time></trkpt><trkpt lat="43.70422609406282" lon="10.862224393295149"><ele>23.0</ele><time>2026-05-02T06:58:50.998Z</time></trkpt><trkpt lat="43.70422483405169" lon="10.862479955060934"><ele>22.333333333333336</ele><time>2026-05-02T06:58:51.998Z</time></trkpt><trkpt lat="43.70421463529373" lon="10.86274189818341"><ele>21.666666666666668</ele><time>2026-05-02T06:58:52.998Z</time></trkpt><trkpt lat="43.704208619117665" lon="10.86300326307585"><ele>21.0</ele><time>2026-05-02T06:58:53.998Z</time></trkpt><trkpt lat="43.704182776061394" lon="10.863271776171128"><ele>21.333333333333332</ele><time>2026-05-02T06:58:54.998Z</time></trkpt><trkpt lat="43.704155151003754" lon="10.863546953278892"><ele>21.666666666666664</ele><time>2026-05-02T06:58:55.998Z</time></trkpt><trkpt lat="43.704126564650736" lon="10.863816414105369"><ele>22.0</ele><time>2026-05-02T06:58:56.998Z</time></trkpt><trkpt lat="43.704099098192785" lon="10.864085318942909"><ele>22.0</ele><time>2026-05-02T06:58:57.998Z</time></trkpt><trkpt lat="43.70406651327665" lon="10.864346175347649"><ele>22.0</ele><time>2026-05-02T06:58:58.998Z</time></trkpt><trkpt lat="43.70403173714753" lon="10.864594773232971"><ele>22.0</ele><time>2026-05-02T06:58:59.998Z</time></trkpt><trkpt lat="43.70399555421106" lon="10.864834108917865"><ele>22.0</ele><time>2026-05-02T06:59:00.998Z</time></trkpt><trkpt lat="43.70396377514757" lon="10.865075128619997"><ele>22.0</ele><time>2026-05-02T06:59:01.998Z</time></trkpt><trkpt lat="43.70393552553303" lon="10.865335560792625"><ele>22.0</ele><time>2026-05-02T06:59:02.998Z</time></trkpt><trkpt lat="43.70389694645381" lon="10.865605742370104"><ele>22.666666666666664</ele><time>2026-05-02T06:59:03.998Z</time></trkpt><trkpt lat="43.70384377032007" lon="10.865882677524272"><ele>23.333333333333332</ele><time>2026-05-02T06:59:04.998Z</time></trkpt><trkpt lat="43.70379156844988" lon="10.866172981301975"><ele>24.0</ele><time>2026-05-02T06:59:05.998Z</time></trkpt><trkpt lat="43.70373932996017" lon="10.866471084783024"><ele>24.0</ele><time>2026-05-02T06:59:06.998Z</time></trkpt><trkpt lat="43.70368535750128" lon="10.866773813786946"><ele>24.0</ele><time>2026-05-02T06:59:07.998Z</time></trkpt><trkpt lat="43.70363428663067" lon="10.867078905721339"><ele>24.5</ele><time>2026-05-02T06:59:08.998Z</time></trkpt><trkpt lat="43.703590455311975" lon="10.867387951369727"><ele>25.0</ele><time>2026-05-02T06:59:09.998Z</time></trkpt><trkpt lat="43.703551414270756" lon="10.867700466669337"><ele>24.0</ele><time>2026-05-02T06:59:10.998Z</time></trkpt><trkpt lat="43.7035182703818" lon="10.868017903824521"><ele>23.0</ele><time>2026-05-02T06:59:11.998Z</time></trkpt><trkpt lat="43.70348286295338" lon="10.868340911843923"><ele>23.5</ele><time>2026-05-02T06:59:12.998Z</time></trkpt><trkpt lat="43.703440890928405" lon="10.868667058999039"><ele>24.0</ele><time>2026-05-02T06:59:13.998Z</time></trkpt><trkpt lat="43.703414082819606" lon="10.868995665438732"><ele>24.5</ele><time>2026-05-02T06:59:14.998Z</time></trkpt><trkpt lat="43.70340273691289" lon="10.869332453364821"><ele>25.0</ele><time>2026-05-02T06:59:15.998Z</time></trkpt><trkpt lat="43.703399180647594" lon="10.869663836703399"><ele>25.0</ele><time>2026-05-02T06:59:16.998Z</time></trkpt><trkpt lat="43.7034065778343" lon="10.869995553274014"><ele>25.0</ele><time>2026-05-02T06:59:17.998Z</time></trkpt><trkpt lat="43.70342342134501" lon="10.87032836399838"><ele>25.5</ele><time>2026-05-02T06:59:18.998Z</time></trkpt><trkpt lat="43.70344558287918" lon="10.870664625865224"><ele>26.0</ele><time>2026-05-02T06:59:19.997Z</time></trkpt><trkpt lat="43.70347887484501" lon="10.87100803700507"><ele>25.0</ele><time>2026-05-02T06:59:20.997Z</time></trkpt><trkpt lat="43.703515008140606" lon="10.871348229800622"><ele>24.0</ele><time>2026-05-02T06:59:21.997Z</time></trkpt><trkpt lat="43.70355696021094" lon="10.871682876032876"><ele>24.5</ele><time>2026-05-02T06:59:22.997Z</time></trkpt><trkpt lat="43.703602606641276" lon="10.872011879901912"><ele>25.0</ele><time>2026-05-02T06:59:23.997Z</time></trkpt><trkpt lat="43.70364570471975" lon="10.872346045278748"><ele>25.0</ele><time>2026-05-02T06:59:24.997Z</time></trkpt><trkpt lat="43.70368819274214" lon="10.872678370235144"><ele>25.0</ele><time>2026-05-02T06:59:25.997Z</time></trkpt><trkpt lat="43.70373373791214" lon="10.873005778422318"><ele>25.0</ele><time>2026-05-02T06:59:26.997Z</time></trkpt><trkpt lat="43.70377908387975" lon="10.87333443634604"><ele>25.0</ele><time>2026-05-02T06:59:27.997Z</time></trkpt><trkpt lat="43.703818422503254" lon="10.873664429768214"><ele>24.0</ele><time>2026-05-02T06:59:28.997Z</time></trkpt><trkpt lat="43.703855309395955" lon="10.87399260889718"><ele>23.0</ele><time>2026-05-02T06:59:29.997Z</time></trkpt><trkpt lat="43.703897972628035" lon="10.874314898658497"><ele>22.5</ele><time>2026-05-02T06:59:30.997Z</time></trkpt><trkpt lat="43.703941791346466" lon="10.87463274832045"><ele>22.0</ele><time>2026-05-02T06:59:31.997Z</time></trkpt><trkpt lat="43.70398361923998" lon="10.874950575104696"><ele>23.0</ele><time>2026-05-02T06:59:32.997Z</time></trkpt><trkpt lat="43.704025921619625" lon="10.875275438726046"><ele>24.0</ele><time>2026-05-02T06:59:33.997Z</time></trkpt><trkpt lat="43.70406876074122" lon="10.875608580124325"><ele>24.0</ele><time>2026-05-02T06:59:34.997Z</time></trkpt><trkpt lat="43.704110573383105" lon="10.87593654344265"><ele>24.0</ele><time>2026-05-02T06:59:35.997Z</time></trkpt><trkpt lat="43.70415504415333" lon="10.876265856466116"><ele>24.0</ele><time>2026-05-02T06:59:36.997Z</time></trkpt><trkpt lat="43.70419989880867" lon="10.876597077514399"><ele>24.0</ele><time>2026-05-02T06:59:37.997Z</time></trkpt><trkpt lat="43.70424415263934" lon="10.876927356694416"><ele>24.0</ele><time>2026-05-02T06:59:38.997Z</time></trkpt><trkpt lat="43.704289211444426" lon="10.877257088454499"><ele>24.0</ele><time>2026-05-02T06:59:39.997Z</time></trkpt><trkpt lat="43.70433078923868" lon="10.877582471644546"><ele>24.5</ele><time>2026-05-02T06:59:40.997Z</time></trkpt><trkpt lat="43.70437272557285" lon="10.877910066591047"><ele>25.0</ele><time>2026-05-02T06:59:41.997Z</time></trkpt><trkpt lat="43.70441340591385" lon="10.878236447609202"><ele>24.5</ele><time>2026-05-02T06:59:42.997Z</time></trkpt><trkpt lat="43.70445362410768" lon="10.878564714170414"><ele>24.0</ele><time>2026-05-02T06:59:43.997Z</time></trkpt><trkpt lat="43.70449759584504" lon="10.878895279082538"><ele>24.0</ele><time>2026-05-02T06:59:44.997Z</time></trkpt><trkpt lat="43.7045438618443" lon="10.87922426028258"><ele>24.0</ele><time>2026-05-02T06:59:45.997Z</time></trkpt><trkpt lat="43.70459018895424" lon="10.879554552766841"><ele>24.0</ele><time>2026-05-02T06:59:46.997Z</time></trkpt><trkpt lat="43.704634687708484" lon="10.879883715134872"><ele>24.0</ele><time>2026-05-02T06:59:47.997Z</time></trkpt><trkpt lat="43.70467649619838" lon="10.880217591046739"><ele>24.5</ele><time>2026-05-02T06:59:48.997Z</time></trkpt><trkpt lat="43.70471793319208" lon="10.880550441709628"><ele>25.0</ele><time>2026-05-02T06:59:49.997Z</time></trkpt><trkpt lat="43.704761803478135" lon="10.880880673554628"><ele>24.0</ele><time>2026-05-02T06:59:50.997Z</time></trkpt><trkpt lat="43.70480538393181" lon="10.881208165004605"><ele>23.0</ele><time>2026-05-02T06:59:51.997Z</time></trkpt><trkpt lat="43.7048526318739" lon="10.88153310077602"><ele>23.5</ele><time>2026-05-02T06:59:52.997Z</time></trkpt><trkpt lat="43.70489558784725" lon="10.881858616183761"><ele>24.0</ele><time>2026-05-02T06:59:53.997Z</time></trkpt><trkpt lat="43.70493926971391" lon="10.882183941191505"><ele>24.0</ele><time>2026-05-02T06:59:54.997Z</time></trkpt><trkpt lat="43.7049828467127" lon="10.8825044795198"><ele>24.0</ele><time>2026-05-02T06:59:55.997Z</time></trkpt><trkpt lat="43.705025992042515" lon="10.882821159844939"><ele>24.5</ele><time>2026-05-02T06:59:56.997Z</time></trkpt><trkpt lat="43.705069016121996" lon="10.88313821822634"><ele>25.0</ele><time>2026-05-02T06:59:57.997Z</time></trkpt><trkpt lat="43.70510895776577" lon="10.883450912667627"><ele>25.0</ele><time>2026-05-02T06:59:58.997Z</time></trkpt><trkpt lat="43.70514943201873" lon="10.883764324903575"><ele>25.0</ele><time>2026-05-02T06:59:59.997Z</time></trkpt><trkpt lat="43.70518917603085" lon="10.884076832352738"><ele>25.0</ele><time>2026-05-02T07:00:00.997Z</time></trkpt><trkpt lat="43.70523011351618" lon="10.88438997148104"><ele>25.0</ele><time>2026-05-02T07:00:01.997Z</time></trkpt><trkpt lat="43.70526887760314" lon="10.88470783050936"><ele>25.0</ele><time>2026-05-02T07:00:02.997Z</time></trkpt><trkpt lat="43.70531172276845" lon="10.885030680878556"><ele>25.0</ele><time>2026-05-02T07:00:03.997Z</time></trkpt><trkpt lat="43.705357898916866" lon="10.885356536122327"><ele>25.5</ele><time>2026-05-02T07:00:04.997Z</time></trkpt><trkpt lat="43.705406120183866" lon="10.88568421206628"><ele>26.0</ele><time>2026-05-02T07:00:05.997Z</time></trkpt><trkpt lat="43.70545670451782" lon="10.886012503343943"><ele>27.0</ele><time>2026-05-02T07:00:06.997Z</time></trkpt><trkpt lat="43.70551336107547" lon="10.886341711310306"><ele>28.0</ele><time>2026-05-02T07:00:07.997Z</time></trkpt><trkpt lat="43.705573328342616" lon="10.886677151501413"><ele>28.0</ele><time>2026-05-02T07:00:08.997Z</time></trkpt><trkpt lat="43.70563717670678" lon="10.887009579066012"><ele>28.0</ele><time>2026-05-02T07:00:09.997Z</time></trkpt><trkpt lat="43.70570037041578" lon="10.887340347811085"><ele>27.5</ele><time>2026-05-02T07:00:10.997Z</time></trkpt><trkpt lat="43.70576477211852" lon="10.887661598096225"><ele>27.0</ele><time>2026-05-02T07:00:11.997Z</time></trkpt><trkpt lat="43.7058335320549" lon="10.887980807983336"><ele>27.0</ele><time>2026-05-02T07:00:12.997Z</time></trkpt><trkpt lat="43.70590120531321" lon="10.888295447039791"><ele>27.0</ele><time>2026-05-02T07:00:13.997Z</time></trkpt><trkpt lat="43.70597166367348" lon="10.888616537657605"><ele>26.5</ele><time>2026-05-02T07:00:14.997Z</time></trkpt><trkpt lat="43.70604432011722" lon="10.888934007611033"><ele>26.0</ele><time>2026-05-02T07:00:15.997Z</time></trkpt><trkpt lat="43.70611770587947" lon="10.889253208011793"><ele>24.0</ele><time>2026-05-02T07:00:16.997Z</time></trkpt><trkpt lat="43.70619435299642" lon="10.889577463370479"><ele>22.0</ele><time>2026-05-02T07:00:17.997Z</time></trkpt><trkpt lat="43.70626710411941" lon="10.889906979690654"><ele>22.0</ele><time>2026-05-02T07:00:18.997Z</time></trkpt><trkpt lat="43.70633897144474" lon="10.890241685956873"><ele>22.0</ele><time>2026-05-02T07:00:19.997Z</time></trkpt><trkpt lat="43.70640815058173" lon="10.890567846242856"><ele>22.0</ele><time>2026-05-02T07:00:20.997Z</time></trkpt><trkpt lat="43.70647719556157" lon="10.890887369624172"><ele>22.0</ele><time>2026-05-02T07:00:21.997Z</time></trkpt><trkpt lat="43.70654639617026" lon="10.891205315115654"><ele>23.5</ele><time>2026-05-02T07:00:22.997Z</time></trkpt><trkpt lat="43.706617026373735" lon="10.891526631094463"><ele>25.0</ele><time>2026-05-02T07:00:23.997Z</time></trkpt><trkpt lat="43.70668753189569" lon="10.891845890567698"><ele>25.5</ele><time>2026-05-02T07:00:24.996Z</time></trkpt><trkpt lat="43.70675979031656" lon="10.892163965866436"><ele>26.0</ele><time>2026-05-02T07:00:25.996Z</time></trkpt><trkpt lat="43.70683236215292" lon="10.8924811228984"><ele>26.0</ele><time>2026-05-02T07:00:26.996Z</time></trkpt><trkpt lat="43.706905468220356" lon="10.892800186949039"><ele>26.0</ele><time>2026-05-02T07:00:27.996Z</time></trkpt><trkpt lat="43.7069776373001" lon="10.893117969974785"><ele>26.0</ele><time>2026-05-02T07:00:28.996Z</time></trkpt><trkpt lat="43.70704628522766" lon="10.89343471204943"><ele>26.0</ele><time>2026-05-02T07:00:29.996Z</time></trkpt><trkpt lat="43.7071145782228" lon="10.893749476274696"><ele>26.0</ele><time>2026-05-02T07:00:30.996Z</time></trkpt><trkpt lat="43.70718388398038" lon="10.894059984472001"><ele>26.0</ele><time>2026-05-02T07:00:31.996Z</time></trkpt><trkpt lat="43.70725161088673" lon="10.894369837711"><ele>26.0</ele><time>2026-05-02T07:00:32.999Z</time></trkpt><trkpt lat="43.70732106460537" lon="10.894683228971045"><ele>26.0</ele><time>2026-05-02T07:00:33.998Z</time></trkpt><trkpt lat="43.70739053671705" lon="10.89499465272995"><ele>25.0</ele><time>2026-05-02T07:00:34.998Z</time></trkpt><trkpt lat="43.70746083510103" lon="10.895305940478833"><ele>24.0</ele><time>2026-05-02T07:00:35.999Z</time></trkpt><trkpt lat="43.707533949396655" lon="10.895624474032864"><ele>23.5</ele><time>2026-05-02T07:00:36.999Z</time></trkpt><trkpt lat="43.70760670309827" lon="10.895935769323014"><ele>23.0</ele><time>2026-05-02T07:00:37.999Z</time></trkpt><trkpt lat="43.707671357629316" lon="10.896233808640654"><ele>23.0</ele><time>2026-05-02T07:00:38.999Z</time></trkpt><trkpt lat="43.707727096514475" lon="10.896518869953207"><ele>23.0</ele><time>2026-05-02T07:00:39.999Z</time></trkpt><trkpt lat="43.707788449752506" lon="10.896788596850735"><ele>23.0</ele><time>2026-05-02T07:00:40.999Z</time></trkpt><trkpt lat="43.70784809519003" lon="10.897037838702701"><ele>23.0</ele><time>2026-05-02T07:00:41.999Z</time></trkpt><trkpt lat="43.707908167245485" lon="10.897289059692902"><ele>23.0</ele><time>2026-05-02T07:00:42.999Z</time></trkpt><trkpt lat="43.70798093162633" lon="10.897562850291557"><ele>23.0</ele><time>2026-05-02T07:00:43.999Z</time></trkpt><trkpt lat="43.708052492341395" lon="10.89785075950986"><ele>23.0</ele><time>2026-05-02T07:00:44.999Z</time></trkpt><trkpt lat="43.70812713061598" lon="10.898148810767614"><ele>23.0</ele><time>2026-05-02T07:00:45.998Z</time></trkpt><trkpt lat="43.70820558134572" lon="10.898451997877787"><ele>23.0</ele><time>2026-05-02T07:00:46.998Z</time></trkpt><trkpt lat="43.708278498196954" lon="10.89876550593322"><ele>23.0</ele><time>2026-05-02T07:00:47.998Z</time></trkpt><trkpt lat="43.70834758745874" lon="10.899083781946816"><ele>23.5</ele><time>2026-05-02T07:00:48.998Z</time></trkpt><trkpt lat="43.708417394029574" lon="10.89939925872595"><ele>24.0</ele><time>2026-05-02T07:00:49.998Z</time></trkpt><trkpt lat="43.708492624571946" lon="10.89970966560945"><ele>24.0</ele><time>2026-05-02T07:00:50.998Z</time></trkpt><trkpt lat="43.70856430352197" lon="10.900018372782737"><ele>24.0</ele><time>2026-05-02T07:00:51.998Z</time></trkpt><trkpt lat="43.70863211258948" lon="10.900329928344958"><ele>24.0</ele><time>2026-05-02T07:00:52.998Z</time></trkpt><trkpt lat="43.70869488801649" lon="10.900640359680759"><ele>24.0</ele><time>2026-05-02T07:00:53.998Z</time></trkpt><trkpt lat="43.70875418234297" lon="10.900949835868847"><ele>24.0</ele><time>2026-05-02T07:00:54.998Z</time></trkpt><trkpt lat="43.70881580546621" lon="10.901261485591009"><ele>24.0</ele><time>2026-05-02T07:00:55.998Z</time></trkpt><trkpt lat="43.70887654215825" lon="10.901565696813668"><ele>23.5</ele><time>2026-05-02T07:00:56.998Z</time></trkpt><trkpt lat="43.70894255557457" lon="10.90187021383285"><ele>23.0</ele><time>2026-05-02T07:00:57.998Z</time></trkpt><trkpt lat="43.70900859516174" lon="10.90218236862862"><ele>23.0</ele><time>2026-05-02T07:00:58.998Z</time></trkpt><trkpt lat="43.70907222108181" lon="10.902500301612843"><ele>23.0</ele><time>2026-05-02T07:00:59.998Z</time></trkpt><trkpt lat="43.70913879170846" lon="10.902815629202966"><ele>23.0</ele><time>2026-05-02T07:01:00.998Z</time></trkpt><trkpt lat="43.70920931825545" lon="10.903132473435624"><ele>23.0</ele><time>2026-05-02T07:01:01.998Z</time></trkpt><trkpt lat="43.70927955052042" lon="10.90345386659559"><ele>23.0</ele><time>2026-05-02T07:01:02.998Z</time></trkpt><trkpt lat="43.709354086361756" lon="10.903774539492726"><ele>23.0</ele><time>2026-05-02T07:01:03.998Z</time></trkpt><trkpt lat="43.70943119163006" lon="10.904106562891236"><ele>23.0</ele><time>2026-05-02T07:01:04.998Z</time></trkpt><trkpt lat="43.70950520947305" lon="10.904434609328256"><ele>23.0</ele><time>2026-05-02T07:01:05.998Z</time></trkpt><trkpt lat="43.709574726542584" lon="10.90475011680604"><ele>23.0</ele><time>2026-05-02T07:01:06.998Z</time></trkpt><trkpt lat="43.70964480289491" lon="10.905066994293216"><ele>23.0</ele><time>2026-05-02T07:01:07.998Z</time></trkpt><trkpt lat="43.709714607670946" lon="10.905385565780918"><ele>24.0</ele><time>2026-05-02T07:01:08.998Z</time></trkpt><trkpt lat="43.709782731729604" lon="10.905704014150842"><ele>25.0</ele><time>2026-05-02T07:01:09.998Z</time></trkpt><trkpt lat="43.7098494436694" lon="10.906020856098966"><ele>25.0</ele><time>2026-05-02T07:01:10.998Z</time></trkpt><trkpt lat="43.70991566022411" lon="10.906335525380793"><ele>25.0</ele><time>2026-05-02T07:01:11.998Z</time></trkpt><trkpt lat="43.70998399037594" lon="10.906642919207025"><ele>24.5</ele><time>2026-05-02T07:01:12.998Z</time></trkpt><trkpt lat="43.71005290178712" lon="10.906952352275217"><ele>24.0</ele><time>2026-05-02T07:01:13.998Z</time></trkpt><trkpt lat="43.71012335834784" lon="10.907261527803415"><ele>24.0</ele><time>2026-05-02T07:01:14.998Z</time></trkpt><trkpt lat="43.71019381424333" lon="10.907563929111221"><ele>24.0</ele><time>2026-05-02T07:01:15.998Z</time></trkpt><trkpt lat="43.71025873357853" lon="10.907881894608211"><ele>23.5</ele><time>2026-05-02T07:01:16.998Z</time></trkpt><trkpt lat="43.71032545087802" lon="10.90819823610899"><ele>23.0</ele><time>2026-05-02T07:01:17.998Z</time></trkpt><trkpt lat="43.71037200634132" lon="10.908516167422063"><ele>23.0</ele><time>2026-05-02T07:01:18.998Z</time></trkpt><trkpt lat="43.71041363647196" lon="10.90883663412107"><ele>23.0</ele><time>2026-05-02T07:01:19.998Z</time></trkpt><trkpt lat="43.710447788303874" lon="10.909164331190865"><ele>24.0</ele><time>2026-05-02T07:01:20.998Z</time></trkpt><trkpt lat="43.71046718046691" lon="10.909495051272465"><ele>25.0</ele><time>2026-05-02T07:01:21.998Z</time></trkpt><trkpt lat="43.710472178589654" lon="10.909814462343833"><ele>25.5</ele><time>2026-05-02T07:01:22.998Z</time></trkpt><trkpt lat="43.710468522043" lon="10.910130722416476"><ele>26.0</ele><time>2026-05-02T07:01:23.998Z</time></trkpt><trkpt lat="43.71045688184311" lon="10.910452162218393"><ele>26.0</ele><time>2026-05-02T07:01:24.998Z</time></trkpt><trkpt lat="43.7104354425977" lon="10.910771293659565"><ele>26.0</ele><time>2026-05-02T07:01:25.998Z</time></trkpt><trkpt lat="43.71040006849087" lon="10.911091055045759"><ele>25.5</ele><time>2026-05-02T07:01:26.998Z</time></trkpt><trkpt lat="43.71035713804929" lon="10.911410014628924"><ele>25.0</ele><time>2026-05-02T07:01:27.998Z</time></trkpt><trkpt lat="43.71030204424196" lon="10.911724847922208"><ele>24.5</ele><time>2026-05-02T07:01:28.998Z</time></trkpt><trkpt lat="43.71024282992749" lon="10.91203490120036"><ele>24.0</ele><time>2026-05-02T07:01:29.998Z</time></trkpt><trkpt lat="43.71017668779734" lon="10.91234063887577"><ele>25.0</ele><time>2026-05-02T07:01:30.998Z</time></trkpt><trkpt lat="43.71010032215944" lon="10.912637723958404"><ele>26.0</ele><time>2026-05-02T07:01:31.998Z</time></trkpt><trkpt lat="43.71001718753126" lon="10.912925999556819"><ele>26.0</ele><time>2026-05-02T07:01:32.998Z</time></trkpt><trkpt lat="43.7099195204576" lon="10.913209294453555"><ele>26.0</ele><time>2026-05-02T07:01:33.998Z</time></trkpt><trkpt lat="43.70980924923309" lon="10.913487862025406"><ele>25.0</ele><time>2026-05-02T07:01:34.998Z</time></trkpt><trkpt lat="43.70969302987841" lon="10.91376401832491"><ele>24.0</ele><time>2026-05-02T07:01:35.998Z</time></trkpt><trkpt lat="43.70956841384588" lon="10.914037307772988"><ele>24.0</ele><time>2026-05-02T07:01:36.998Z</time></trkpt><trkpt lat="43.70944490302855" lon="10.914313699383124"><ele>24.0</ele><time>2026-05-02T07:01:37.998Z</time></trkpt><trkpt lat="43.7093263884027" lon="10.914598146119923"><ele>24.5</ele><time>2026-05-02T07:01:38.998Z</time></trkpt><trkpt lat="43.70921086500434" lon="10.914884872982276"><ele>25.0</ele><time>2026-05-02T07:01:39.997Z</time></trkpt><trkpt lat="43.70909627147787" lon="10.915169089703493"><ele>25.0</ele><time>2026-05-02T07:01:40.997Z</time></trkpt><trkpt lat="43.708979813640624" lon="10.915450785414862"><ele>25.0</ele><time>2026-05-02T07:01:41.997Z</time></trkpt><trkpt lat="43.70885947112836" lon="10.915725513772548"><ele>24.0</ele><time>2026-05-02T07:01:42.997Z</time></trkpt><trkpt lat="43.70873862584674" lon="10.915999534425206"><ele>23.0</ele><time>2026-05-02T07:01:43.997Z</time></trkpt><trkpt lat="43.70862123336888" lon="10.916277995749702"><ele>24.0</ele><time>2026-05-02T07:01:44.997Z</time></trkpt><trkpt lat="43.70850955572572" lon="10.916554279543238"><ele>25.0</ele><time>2026-05-02T07:01:45.997Z</time></trkpt><trkpt lat="43.70841168049579" lon="10.91684080689354"><ele>25.0</ele><time>2026-05-02T07:01:46.997Z</time></trkpt><trkpt lat="43.70832209916328" lon="10.917137489027587"><ele>25.0</ele><time>2026-05-02T07:01:47.997Z</time></trkpt><trkpt lat="43.708244255273684" lon="10.917444008423765"><ele>24.5</ele><time>2026-05-02T07:01:48.997Z</time></trkpt><trkpt lat="43.70818057919253" lon="10.917753152246183"><ele>24.0</ele><time>2026-05-02T07:01:49.997Z</time></trkpt><trkpt lat="43.7081221163014" lon="10.9180697440732"><ele>24.0</ele><time>2026-05-02T07:01:50.997Z</time></trkpt><trkpt lat="43.708082450386705" lon="10.918391462646541"><ele>24.0</ele><time>2026-05-02T07:01:51.997Z</time></trkpt><trkpt lat="43.70805512276913" lon="10.918716191977637"><ele>24.0</ele><time>2026-05-02T07:01:52.997Z</time></trkpt><trkpt lat="43.70804291095497" lon="10.919041539559997"><ele>24.0</ele><time>2026-05-02T07:01:53.997Z</time></trkpt><trkpt lat="43.70804087055791" lon="10.919370693137658"><ele>23.0</ele><time>2026-05-02T07:01:54.997Z</time></trkpt><trkpt lat="43.708056472707526" lon="10.919696062145952"><ele>22.0</ele><time>2026-05-02T07:01:55.997Z</time></trkpt><trkpt lat="43.70807798298952" lon="10.920026734418146"><ele>22.5</ele><time>2026-05-02T07:01:56.997Z</time></trkpt><trkpt lat="43.70810556851201" lon="10.920351400776317"><ele>23.0</ele><time>2026-05-02T07:01:57.997Z</time></trkpt><trkpt lat="43.708135320228806" lon="10.920672203111117"><ele>24.0</ele><time>2026-05-02T07:01:58.997Z</time></trkpt><trkpt lat="43.70816337134982" lon="10.920994268550627"><ele>25.0</ele><time>2026-05-02T07:01:59.997Z</time></trkpt><trkpt lat="43.70818685664992" lon="10.921317750838723"><ele>25.0</ele><time>2026-05-02T07:02:00.997Z</time></trkpt><trkpt lat="43.70820851563233" lon="10.921641814581914"><ele>25.0</ele><time>2026-05-02T07:02:01.997Z</time></trkpt><trkpt lat="43.70823633913067" lon="10.921961098435188"><ele>25.0</ele><time>2026-05-02T07:02:02.997Z</time></trkpt><trkpt lat="43.70826576722713" lon="10.922283150452321"><ele>25.0</ele><time>2026-05-02T07:02:03.997Z</time></trkpt><trkpt lat="43.70829288168762" lon="10.922604107886293"><ele>25.0</ele><time>2026-05-02T07:02:04.997Z</time></trkpt><trkpt lat="43.70832203049708" lon="10.92292008895679"><ele>25.0</ele><time>2026-05-02T07:02:05.997Z</time></trkpt><trkpt lat="43.70835089536016" lon="10.923239302512563"><ele>25.0</ele><time>2026-05-02T07:02:06.997Z</time></trkpt><trkpt lat="43.7083784743301" lon="10.923556993396593"><ele>25.0</ele><time>2026-05-02T07:02:07.997Z</time></trkpt><trkpt lat="43.70840526900758" lon="10.923872983418784"><ele>25.0</ele><time>2026-05-02T07:02:08.997Z</time></trkpt><trkpt lat="43.708428552296695" lon="10.924194227203769"><ele>25.0</ele><time>2026-05-02T07:02:09.997Z</time></trkpt><trkpt lat="43.70844692532464" lon="10.924508962663015"><ele>25.0</ele><time>2026-05-02T07:02:10.997Z</time></trkpt><trkpt lat="43.70846837346003" lon="10.924823919606375"><ele>25.0</ele><time>2026-05-02T07:02:11.997Z</time></trkpt><trkpt lat="43.70848572084048" lon="10.925142398120215"><ele>25.0</ele><time>2026-05-02T07:02:12.997Z</time></trkpt><trkpt lat="43.70849835816044" lon="10.925456369171384"><ele>25.0</ele><time>2026-05-02T07:02:13.997Z</time></trkpt><trkpt lat="43.708512055218044" lon="10.925765710711778"><ele>25.0</ele><time>2026-05-02T07:02:14.997Z</time></trkpt><trkpt lat="43.708534678783565" lon="10.926069911342525"><ele>25.0</ele><time>2026-05-02T07:02:15.997Z</time></trkpt><trkpt lat="43.708570099014345" lon="10.926371265488244"><ele>25.0</ele><time>2026-05-02T07:02:16.997Z</time></trkpt><trkpt lat="43.708608636836345" lon="10.926691636037493"><ele>24.5</ele><time>2026-05-02T07:02:17.997Z</time></trkpt><trkpt lat="43.7086020810147" lon="10.927007777129507"><ele>24.0</ele><time>2026-05-02T07:02:18.997Z</time></trkpt><trkpt lat="43.708612832017295" lon="10.927342397538386"><ele>24.0</ele><time>2026-05-02T07:02:19.997Z</time></trkpt><trkpt lat="43.70862355312473" lon="10.92767608775379"><ele>24.0</ele><time>2026-05-02T07:02:20.997Z</time></trkpt><trkpt lat="43.70856418703029" lon="10.927952296323706"><ele>24.5</ele><time>2026-05-02T07:02:21.997Z</time></trkpt><trkpt lat="43.708558698462895" lon="10.928271110712512"><ele>25.0</ele><time>2026-05-02T07:02:22.997Z</time></trkpt><trkpt lat="43.708557230945395" lon="10.928591486992847"><ele>25.5</ele><time>2026-05-02T07:02:23.997Z</time></trkpt><trkpt lat="43.70856341588699" lon="10.928908673536938"><ele>26.0</ele><time>2026-05-02T07:02:24.997Z</time></trkpt><trkpt lat="43.70858024689582" lon="10.929229554553906"><ele>24.5</ele><time>2026-05-02T07:02:25.997Z</time></trkpt><trkpt lat="43.70859795091907" lon="10.929551405834482"><ele>23.0</ele><time>2026-05-02T07:02:26.997Z</time></trkpt><trkpt lat="43.70860831449991" lon="10.929870835350384"><ele>23.5</ele><time>2026-05-02T07:02:27.997Z</time></trkpt><trkpt lat="43.70861872149341" lon="10.93019018103996"><ele>24.0</ele><time>2026-05-02T07:02:28.997Z</time></trkpt><trkpt lat="43.70862551950226" lon="10.930503634637398"><ele>24.0</ele><time>2026-05-02T07:02:29.997Z</time></trkpt><trkpt lat="43.70863385852292" lon="10.930825494524903"><ele>24.0</ele><time>2026-05-02T07:02:30.997Z</time></trkpt><trkpt lat="43.70864449062699" lon="10.931145348868434"><ele>24.0</ele><time>2026-05-02T07:02:31.997Z</time></trkpt><trkpt lat="43.708658394463896" lon="10.931466519246527"><ele>24.0</ele><time>2026-05-02T07:02:32.997Z</time></trkpt><trkpt lat="43.7086696044016" lon="10.931784143768313"><ele>24.5</ele><time>2026-05-02T07:02:33.997Z</time></trkpt><trkpt lat="43.70868133799423" lon="10.932106455951146"><ele>25.0</ele><time>2026-05-02T07:02:34.997Z</time></trkpt><trkpt lat="43.70869316308099" lon="10.932432775748284"><ele>25.0</ele><time>2026-05-02T07:02:35.997Z</time></trkpt><trkpt lat="43.7087052216584" lon="10.932758805689184"><ele>25.0</ele><time>2026-05-02T07:02:36.997Z</time></trkpt><trkpt lat="43.70871617504168" lon="10.933087016106217"><ele>24.5</ele><time>2026-05-02T07:02:37.997Z</time></trkpt><trkpt lat="43.70872940148626" lon="10.933412042656672"><ele>24.0</ele><time>2026-05-02T07:02:38.999Z</time></trkpt><trkpt lat="43.708741753200044" lon="10.93373942124908"><ele>24.0</ele><time>2026-05-02T07:02:39.999Z</time></trkpt><trkpt lat="43.708752236317615" lon="10.934065987276993"><ele>24.0</ele><time>2026-05-02T07:02:40.999Z</time></trkpt><trkpt lat="43.70876118806102" lon="10.934393730599187"><ele>24.0</ele><time>2026-05-02T07:02:41.998Z</time></trkpt><trkpt lat="43.70877247975524" lon="10.934720315876431"><ele>24.0</ele><time>2026-05-02T07:02:42.998Z</time></trkpt><trkpt lat="43.708784896987495" lon="10.935048814991903"><ele>24.5</ele><time>2026-05-02T07:02:43.998Z</time></trkpt><trkpt lat="43.70879578577655" lon="10.93537122733467"><ele>25.0</ele><time>2026-05-02T07:02:44.999Z</time></trkpt><trkpt lat="43.70880777863257" lon="10.935685620796175"><ele>25.0</ele><time>2026-05-02T07:02:45.999Z</time></trkpt><trkpt lat="43.708807692445255" lon="10.936003703056171"><ele>25.0</ele><time>2026-05-02T07:02:46.999Z</time></trkpt><trkpt lat="43.70881471551337" lon="10.936319020736846"><ele>25.0</ele><time>2026-05-02T07:02:47.998Z</time></trkpt><trkpt lat="43.708828128638885" lon="10.93663317589161"><ele>25.0</ele><time>2026-05-02T07:02:48.998Z</time></trkpt><trkpt lat="43.70883914118675" lon="10.936948753999014"><ele>25.0</ele><time>2026-05-02T07:02:49.998Z</time></trkpt><trkpt lat="43.70884857221811" lon="10.93725658082468"><ele>25.0</ele><time>2026-05-02T07:02:50.999Z</time></trkpt><trkpt lat="43.70886828792112" lon="10.93756489040995"><ele>25.0</ele><time>2026-05-02T07:02:51.999Z</time></trkpt><trkpt lat="43.70888401236316" lon="10.937880148744771"><ele>25.0</ele><time>2026-05-02T07:02:52.999Z</time></trkpt><trkpt lat="43.708891912052" lon="10.938197519038102"><ele>25.0</ele><time>2026-05-02T07:02:53.999Z</time></trkpt><trkpt lat="43.7089031034015" lon="10.93851781904232"><ele>25.0</ele><time>2026-05-02T07:02:54.999Z</time></trkpt><trkpt lat="43.70891483629171" lon="10.93883491519735"><ele>25.0</ele><time>2026-05-02T07:02:55.998Z</time></trkpt><trkpt lat="43.70892813154458" lon="10.939152691826974"><ele>25.0</ele><time>2026-05-02T07:02:56.998Z</time></trkpt><trkpt lat="43.70893715755696" lon="10.939464238720651"><ele>25.0</ele><time>2026-05-02T07:02:57.998Z</time></trkpt><trkpt lat="43.70893614860146" lon="10.93977713569719"><ele>24.333333333333336</ele><time>2026-05-02T07:02:58.998Z</time></trkpt><trkpt lat="43.708940042552484" lon="10.940084943691456"><ele>23.666666666666668</ele><time>2026-05-02T07:02:59.998Z</time></trkpt><trkpt lat="43.70894649034354" lon="10.940394983775205"><ele>23.0</ele><time>2026-05-02T07:03:00.998Z</time></trkpt><trkpt lat="43.70895250650195" lon="10.940709367584454"><ele>23.333333333333336</ele><time>2026-05-02T07:03:01.998Z</time></trkpt><trkpt lat="43.708963995368784" lon="10.941018756923242"><ele>23.666666666666668</ele><time>2026-05-02T07:03:02.998Z</time></trkpt><trkpt lat="43.70897955804708" lon="10.941327370405471"><ele>24.0</ele><time>2026-05-02T07:03:03.998Z</time></trkpt><trkpt lat="43.70899027328848" lon="10.94163579828954"><ele>24.0</ele><time>2026-05-02T07:03:04.998Z</time></trkpt><trkpt lat="43.70900517503453" lon="10.9419521053711"><ele>24.0</ele><time>2026-05-02T07:03:05.998Z</time></trkpt><trkpt lat="43.70901681256374" lon="10.942261365476186"><ele>24.5</ele><time>2026-05-02T07:03:06.998Z</time></trkpt><trkpt lat="43.70902471469176" lon="10.942583406845685"><ele>25.0</ele><time>2026-05-02T07:03:07.998Z</time></trkpt><trkpt lat="43.709035749729104" lon="10.942903032544677"><ele>25.0</ele><time>2026-05-02T07:03:08.998Z</time></trkpt><trkpt lat="43.70904852119742" lon="10.943229391824174"><ele>25.0</ele><time>2026-05-02T07:03:09.998Z</time></trkpt><trkpt lat="43.70906165810189" lon="10.943556615152511"><ele>26.0</ele><time>2026-05-02T07:03:10.998Z</time></trkpt><trkpt lat="43.709062247614185" lon="10.943882372332018"><ele>27.0</ele><time>2026-05-02T07:03:11.998Z</time></trkpt><trkpt lat="43.70907768418309" lon="10.944211753323547"><ele>27.0</ele><time>2026-05-02T07:03:12.998Z</time></trkpt><trkpt lat="43.70909526307708" lon="10.9445426139012"><ele>27.0</ele><time>2026-05-02T07:03:13.998Z</time></trkpt><trkpt lat="43.70911975785717" lon="10.944869343948435"><ele>27.0</ele><time>2026-05-02T07:03:14.998Z</time></trkpt><trkpt lat="43.7091387929535" lon="10.94519336456061"><ele>27.0</ele><time>2026-05-02T07:03:15.998Z</time></trkpt><trkpt lat="43.709157450766746" lon="10.945521631254792"><ele>27.0</ele><time>2026-05-02T07:03:16.998Z</time></trkpt><trkpt lat="43.709173761353924" lon="10.945839124787893"><ele>27.0</ele><time>2026-05-02T07:03:17.998Z</time></trkpt><trkpt lat="43.70919127721414" lon="10.946150851169874"><ele>27.5</ele><time>2026-05-02T07:03:18.998Z</time></trkpt><trkpt lat="43.70920848834896" lon="10.946468739705393"><ele>28.0</ele><time>2026-05-02T07:03:19.998Z</time></trkpt><trkpt lat="43.7092229417463" lon="10.9467797841973"><ele>28.5</ele><time>2026-05-02T07:03:20.998Z</time></trkpt><trkpt lat="43.70924054431817" lon="10.947092553389197"><ele>29.0</ele><time>2026-05-02T07:03:21.998Z</time></trkpt><trkpt lat="43.70925409072382" lon="10.947410978551423"><ele>28.333333333333332</ele><time>2026-05-02T07:03:22.998Z</time></trkpt><trkpt lat="43.709265885289796" lon="10.947713647317071"><ele>27.666666666666664</ele><time>2026-05-02T07:03:23.998Z</time></trkpt><trkpt lat="43.7092902648869" lon="10.948019529833065"><ele>27.0</ele><time>2026-05-02T07:03:24.998Z</time></trkpt><trkpt lat="43.70931966656975" lon="10.948329020983083"><ele>27.0</ele><time>2026-05-02T07:03:25.998Z</time></trkpt><trkpt lat="43.70934163424524" lon="10.948648830236507"><ele>27.0</ele><time>2026-05-02T07:03:26.998Z</time></trkpt><trkpt lat="43.70936009284976" lon="10.948971397600168"><ele>27.0</ele><time>2026-05-02T07:03:27.998Z</time></trkpt><trkpt lat="43.70937919985162" lon="10.949298160325426"><ele>27.0</ele><time>2026-05-02T07:03:28.998Z</time></trkpt><trkpt lat="43.70939790627694" lon="10.949622181129637"><ele>27.0</ele><time>2026-05-02T07:03:29.998Z</time></trkpt><trkpt lat="43.70941765669703" lon="10.949948389932967"><ele>27.0</ele><time>2026-05-02T07:03:30.998Z</time></trkpt><trkpt lat="43.70943518245262" lon="10.95027655570232"><ele>27.0</ele><time>2026-05-02T07:03:31.998Z</time></trkpt><trkpt lat="43.70945212282015" lon="10.950604675729085"><ele>27.0</ele><time>2026-05-02T07:03:32.998Z</time></trkpt><trkpt lat="43.70947169516527" lon="10.950932963434727"><ele>27.0</ele><time>2026-05-02T07:03:33.998Z</time></trkpt><trkpt lat="43.70949296830313" lon="10.951261039032413"><ele>27.0</ele><time>2026-05-02T07:03:34.998Z</time></trkpt><trkpt lat="43.70951212982524" lon="10.951587605434938"><ele>26.5</ele><time>2026-05-02T07:03:35.998Z</time></trkpt><trkpt lat="43.70953048573211" lon="10.951918663095803"><ele>26.0</ele><time>2026-05-02T07:03:36.998Z</time></trkpt><trkpt lat="43.70955272467464" lon="10.952242130062954"><ele>26.5</ele><time>2026-05-02T07:03:37.998Z</time></trkpt><trkpt lat="43.70957173968722" lon="10.952569101620151"><ele>27.0</ele><time>2026-05-02T07:03:38.998Z</time></trkpt><trkpt lat="43.709582168585186" lon="10.952895733470301"><ele>27.0</ele><time>2026-05-02T07:03:39.998Z</time></trkpt><trkpt lat="43.70958787919686" lon="10.95322395637114"><ele>27.0</ele><time>2026-05-02T07:03:40.998Z</time></trkpt><trkpt lat="43.70958403426945" lon="10.953551824446862"><ele>26.5</ele><time>2026-05-02T07:03:41.998Z</time></trkpt><trkpt lat="43.709574585878705" lon="10.953882693121846"><ele>26.0</ele><time>2026-05-02T07:03:42.998Z</time></trkpt><trkpt lat="43.70955315638861" lon="10.954207970394538"><ele>27.0</ele><time>2026-05-02T07:03:43.998Z</time></trkpt><trkpt lat="43.7095283838727" lon="10.954533804460832"><ele>28.0</ele><time>2026-05-02T07:03:44.998Z</time></trkpt><trkpt lat="43.70950152012492" lon="10.954850033902206"><ele>28.0</ele><time>2026-05-02T07:03:45.998Z</time></trkpt><trkpt lat="43.70946905493864" lon="10.955173435762017"><ele>28.0</ele><time>2026-05-02T07:03:46.998Z</time></trkpt><trkpt lat="43.70943946671047" lon="10.955497943979568"><ele>28.0</ele><time>2026-05-02T07:03:47.998Z</time></trkpt><trkpt lat="43.70941409952785" lon="10.955826199111776"><ele>28.0</ele><time>2026-05-02T07:03:48.998Z</time></trkpt><trkpt lat="43.709388188609644" lon="10.956152285941188"><ele>27.5</ele><time>2026-05-02T07:03:49.998Z</time></trkpt><trkpt lat="43.70936018941735" lon="10.95647760110942"><ele>27.0</ele><time>2026-05-02T07:03:50.998Z</time></trkpt><trkpt lat="43.70933229212048" lon="10.956799521543084"><ele>28.0</ele><time>2026-05-02T07:03:51.998Z</time></trkpt><trkpt lat="43.70930615589332" lon="10.957120521190054"><ele>29.0</ele><time>2026-05-02T07:03:52.998Z</time></trkpt><trkpt lat="43.70927789325411" lon="10.957444138599824"><ele>30.0</ele><time>2026-05-02T07:03:53.998Z</time></trkpt><trkpt lat="43.70925152090972" lon="10.957760352726867"><ele>31.0</ele><time>2026-05-02T07:03:54.998Z</time></trkpt><trkpt lat="43.709222473522345" lon="10.958076968637426"><ele>31.0</ele><time>2026-05-02T07:03:55.998Z</time></trkpt><trkpt lat="43.70920274292804" lon="10.958395773361453"><ele>31.0</ele><time>2026-05-02T07:03:56.998Z</time></trkpt><trkpt lat="43.709173095779484" lon="10.95871232149208"><ele>31.0</ele><time>2026-05-02T07:03:57.998Z</time></trkpt><trkpt lat="43.70914493272833" lon="10.959029904738033"><ele>31.0</ele><time>2026-05-02T07:03:58.998Z</time></trkpt><trkpt lat="43.70911768654419" lon="10.95934532710604"><ele>30.5</ele><time>2026-05-02T07:03:59.998Z</time></trkpt><trkpt lat="43.70909245122324" lon="10.959664241242715"><ele>30.0</ele><time>2026-05-02T07:04:00.997Z</time></trkpt><trkpt lat="43.70906644160459" lon="10.959977376119685"><ele>29.5</ele><time>2026-05-02T07:04:01.997Z</time></trkpt><trkpt lat="43.7090450843045" lon="10.96030139314164"><ele>29.0</ele><time>2026-05-02T07:04:02.927Z</time></trkpt><trkpt lat="43.7090183262438" lon="10.960618810763041"><ele>29.0</ele><time>2026-05-02T07:04:03.927Z</time></trkpt><trkpt lat="43.708986907844285" lon="10.960930601081833"><ele>29.0</ele><time>2026-05-02T07:04:04.927Z</time></trkpt><trkpt lat="43.70896317281682" lon="10.961243363732393"><ele>29.0</ele><time>2026-05-02T07:04:05.927Z</time></trkpt><trkpt lat="43.70894200230207" lon="10.961552172097269"><ele>29.0</ele><time>2026-05-02T07:04:06.927Z</time></trkpt><trkpt lat="43.70892523637242" lon="10.96185881049069"><ele>29.0</ele><time>2026-05-02T07:04:07.927Z</time></trkpt><trkpt lat="43.708925244275484" lon="10.96216856312925"><ele>29.0</ele><time>2026-05-02T07:04:08.927Z</time></trkpt><trkpt lat="43.708941314092485" lon="10.962470591114364"><ele>29.0</ele><time>2026-05-02T07:04:09.927Z</time></trkpt><trkpt lat="43.708966762914635" lon="10.962774553037253"><ele>29.0</ele><time>2026-05-02T07:04:10.927Z</time></trkpt><trkpt lat="43.70901141597608" lon="10.96308074504804"><ele>28.333333333333332</ele><time>2026-05-02T07:04:11.927Z</time></trkpt><trkpt lat="43.70906305090946" lon="10.963381465822112"><ele>27.666666666666664</ele><time>2026-05-02T07:04:12.927Z</time></trkpt><trkpt lat="43.709124568094886" lon="10.963675209112903"><ele>27.0</ele><time>2026-05-02T07:04:13.927Z</time></trkpt><trkpt lat="43.70919486714243" lon="10.963962909516686"><ele>27.0</ele><time>2026-05-02T07:04:14.927Z</time></trkpt><trkpt lat="43.709271982407714" lon="10.964245886881878"><ele>27.0</ele><time>2026-05-02T07:04:15.926Z</time></trkpt><trkpt lat="43.70936224519159" lon="10.964520601638469"><ele>27.0</ele><time>2026-05-02T07:04:16.926Z</time></trkpt><trkpt lat="43.70946184084174" lon="10.96479100496819"><ele>27.333333333333336</ele><time>2026-05-02T07:04:17.926Z</time></trkpt><trkpt lat="43.70957279109707" lon="10.965048017868972"><ele>27.666666666666668</ele><time>2026-05-02T07:04:18.926Z</time></trkpt><trkpt lat="43.70969415134933" lon="10.965293103733497"><ele>28.0</ele><time>2026-05-02T07:04:19.926Z</time></trkpt><trkpt lat="43.709822744042874" lon="10.96552604354557"><ele>28.0</ele><time>2026-05-02T07:04:20.926Z</time></trkpt><trkpt lat="43.70995351902128" lon="10.965739337622143"><ele>28.0</ele><time>2026-05-02T07:04:21.926Z</time></trkpt><trkpt lat="43.71008528906202" lon="10.965938098623033"><ele>28.0</ele><time>2026-05-02T07:04:22.926Z</time></trkpt><trkpt lat="43.71021646163327" lon="10.966124726907697"><ele>28.333333333333336</ele><time>2026-05-02T07:04:23.926Z</time></trkpt><trkpt lat="43.71035111950124" lon="10.96629737553465"><ele>28.666666666666664</ele><time>2026-05-02T07:04:24.926Z</time></trkpt><trkpt lat="43.71048647220242" lon="10.966480271681185"><ele>29.0</ele><time>2026-05-02T07:04:25.926Z</time></trkpt><trkpt lat="43.71062109300249" lon="10.966665539528432"><ele>29.0</ele><time>2026-05-02T07:04:26.926Z</time></trkpt><trkpt lat="43.71075041285012" lon="10.966852364992228"><ele>29.0</ele><time>2026-05-02T07:04:27.926Z</time></trkpt><trkpt lat="43.71088667031847" lon="10.967050850465853"><ele>29.0</ele><time>2026-05-02T07:04:28.926Z</time></trkpt><trkpt lat="43.71102522069213" lon="10.967244860439008"><ele>28.666666666666664</ele><time>2026-05-02T07:04:29.926Z</time></trkpt><trkpt lat="43.711164795333175" lon="10.967445146261806"><ele>28.333333333333336</ele><time>2026-05-02T07:04:30.926Z</time></trkpt><trkpt lat="43.711309212911765" lon="10.967641280004267"><ele>28.0</ele><time>2026-05-02T07:04:31.926Z</time></trkpt><trkpt lat="43.711451756563186" lon="10.967844413870834"><ele>28.0</ele><time>2026-05-02T07:04:32.926Z</time></trkpt><trkpt lat="43.71159651087854" lon="10.968051918112266"><ele>28.0</ele><time>2026-05-02T07:04:33.926Z</time></trkpt><trkpt lat="43.71175109515388" lon="10.968260461660952"><ele>28.0</ele><time>2026-05-02T07:04:34.926Z</time></trkpt><trkpt lat="43.71190282754429" lon="10.96847245145349"><ele>28.666666666666668</ele><time>2026-05-02T07:04:35.926Z</time></trkpt><trkpt lat="43.71205937580643" lon="10.968687970712313"><ele>29.333333333333336</ele><time>2026-05-02T07:04:36.926Z</time></trkpt><trkpt lat="43.71221689535959" lon="10.968903558939074"><ele>30.0</ele><time>2026-05-02T07:04:37.926Z</time></trkpt><trkpt lat="43.71237432801691" lon="10.969121731246368"><ele>30.0</ele><time>2026-05-02T07:04:38.926Z</time></trkpt><trkpt lat="43.712529801679494" lon="10.969340603960609"><ele>30.0</ele><time>2026-05-02T07:04:39.926Z</time></trkpt><trkpt lat="43.712684148528076" lon="10.969556085861818"><ele>30.0</ele><time>2026-05-02T07:04:40.926Z</time></trkpt><trkpt lat="43.71283811751247" lon="10.969773671485555"><ele>29.666666666666664</ele><time>2026-05-02T07:04:41.925Z</time></trkpt><trkpt lat="43.71299044114625" lon="10.969993336492081"><ele>29.333333333333332</ele><time>2026-05-02T07:04:42.925Z</time></trkpt><trkpt lat="43.71314862278868" lon="10.97021667179845"><ele>29.0</ele><time>2026-05-02T07:04:43.925Z</time></trkpt><trkpt lat="43.71330672214886" lon="10.97043937961907"><ele>29.0</ele><time>2026-05-02T07:04:44.928Z</time></trkpt><trkpt lat="43.71346654369774" lon="10.970658403226851"><ele>29.0</ele><time>2026-05-02T07:04:45.927Z</time></trkpt><trkpt lat="43.71362158468802" lon="10.970873642158889"><ele>29.0</ele><time>2026-05-02T07:04:46.927Z</time></trkpt><trkpt lat="43.71377626100026" lon="10.971088704582016"><ele>29.0</ele><time>2026-05-02T07:04:47.927Z</time></trkpt><trkpt lat="43.713926369939834" lon="10.97130200629739"><ele>29.0</ele><time>2026-05-02T07:04:48.927Z</time></trkpt><trkpt lat="43.71407889306904" lon="10.97151658681388"><ele>29.0</ele><time>2026-05-02T07:04:49.927Z</time></trkpt><trkpt lat="43.71423817805164" lon="10.971735444017177"><ele>28.333333333333332</ele><time>2026-05-02T07:04:50.927Z</time></trkpt><trkpt lat="43.71439628687473" lon="10.971957946927006"><ele>27.666666666666664</ele><time>2026-05-02T07:04:51.927Z</time></trkpt><trkpt lat="43.71455291240133" lon="10.972174599689083"><ele>27.0</ele><time>2026-05-02T07:04:52.927Z</time></trkpt><trkpt lat="43.71471010790195" lon="10.972393050765769"><ele>27.0</ele><time>2026-05-02T07:04:53.927Z</time></trkpt><trkpt lat="43.71486908387497" lon="10.972618255607427"><ele>27.0</ele><time>2026-05-02T07:04:54.927Z</time></trkpt><trkpt lat="43.71503008722605" lon="10.972854816381838"><ele>27.0</ele><time>2026-05-02T07:04:55.927Z</time></trkpt><trkpt lat="43.71518704772851" lon="10.973068100345465"><ele>27.0</ele><time>2026-05-02T07:04:56.927Z</time></trkpt><trkpt lat="43.715349834577665" lon="10.973296395913383"><ele>27.0</ele><time>2026-05-02T07:04:57.927Z</time></trkpt><trkpt lat="43.71550953303416" lon="10.973526417572309"><ele>27.0</ele><time>2026-05-02T07:04:58.927Z</time></trkpt><trkpt lat="43.7156739438531" lon="10.973755096806062"><ele>27.0</ele><time>2026-05-02T07:04:59.927Z</time></trkpt><trkpt lat="43.7158337170557" lon="10.973984153319604"><ele>27.0</ele><time>2026-05-02T07:05:00.927Z</time></trkpt><trkpt lat="43.715998686188414" lon="10.974211918561732"><ele>26.5</ele><time>2026-05-02T07:05:01.927Z</time></trkpt><trkpt lat="43.71616588667178" lon="10.974440180171616"><ele>26.0</ele><time>2026-05-02T07:05:02.926Z</time></trkpt><trkpt lat="43.71632675610377" lon="10.97467622655499"><ele>26.0</ele><time>2026-05-02T07:05:03.926Z</time></trkpt><trkpt lat="43.71648056437603" lon="10.97491415789794"><ele>26.0</ele><time>2026-05-02T07:05:04.926Z</time></trkpt><trkpt lat="43.71662844889926" lon="10.975165595879552"><ele>26.5</ele><time>2026-05-02T07:05:05.926Z</time></trkpt><trkpt lat="43.71677569126033" lon="10.975413046932047"><ele>27.0</ele><time>2026-05-02T07:05:06.926Z</time></trkpt><trkpt lat="43.71690654305058" lon="10.975685822123943"><ele>26.0</ele><time>2026-05-02T07:05:07.926Z</time></trkpt><trkpt lat="43.7170288150535" lon="10.975963645670719"><ele>25.0</ele><time>2026-05-02T07:05:08.926Z</time></trkpt><trkpt lat="43.717148576796895" lon="10.976246099303106"><ele>25.0</ele><time>2026-05-02T07:05:09.926Z</time></trkpt><trkpt lat="43.717261079658265" lon="10.976537284544172"><ele>25.0</ele><time>2026-05-02T07:05:10.926Z</time></trkpt><trkpt lat="43.717366147008505" lon="10.976833193216015"><ele>25.0</ele><time>2026-05-02T07:05:11.926Z</time></trkpt><trkpt lat="43.71746341052642" lon="10.977134488752377"><ele>25.0</ele><time>2026-05-02T07:05:12.926Z</time></trkpt><trkpt lat="43.71755188285063" lon="10.977443996461451"><ele>25.5</ele><time>2026-05-02T07:05:13.926Z</time></trkpt><trkpt lat="43.71763064447061" lon="10.977756320439758"><ele>26.0</ele><time>2026-05-02T07:05:14.926Z</time></trkpt><trkpt lat="43.71770348740085" lon="10.978074401568438"><ele>25.5</ele><time>2026-05-02T07:05:15.926Z</time></trkpt><trkpt lat="43.71776625800445" lon="10.978393979725231"><ele>25.0</ele><time>2026-05-02T07:05:16.926Z</time></trkpt><trkpt lat="43.71782396720874" lon="10.978718125353634"><ele>25.0</ele><time>2026-05-02T07:05:17.926Z</time></trkpt><trkpt lat="43.71788215243016" lon="10.97903853094204"><ele>25.0</ele><time>2026-05-02T07:05:18.926Z</time></trkpt><trkpt lat="43.71793133274127" lon="10.97935904080951"><ele>25.0</ele><time>2026-05-02T07:05:19.926Z</time></trkpt><trkpt lat="43.71799844615508" lon="10.97968112562663"><ele>25.0</ele><time>2026-05-02T07:05:20.926Z</time></trkpt><trkpt lat="43.718065367804144" lon="10.979999887535717"><ele>25.5</ele><time>2026-05-02T07:05:21.926Z</time></trkpt><trkpt lat="43.718127622888304" lon="10.980312555233622"><ele>26.0</ele><time>2026-05-02T07:05:22.926Z</time></trkpt><trkpt lat="43.718183734697725" lon="10.980622406095671"><ele>26.0</ele><time>2026-05-02T07:05:23.926Z</time></trkpt><trkpt lat="43.71824416874892" lon="10.980928418369002"><ele>26.0</ele><time>2026-05-02T07:05:24.926Z</time></trkpt><trkpt lat="43.71830114566469" lon="10.981227159457667"><ele>26.0</ele><time>2026-05-02T07:05:25.926Z</time></trkpt><trkpt lat="43.718362921069364" lon="10.9815162676517"><ele>26.0</ele><time>2026-05-02T07:05:26.926Z</time></trkpt><trkpt lat="43.718424390601506" lon="10.981804167929397"><ele>26.0</ele><time>2026-05-02T07:05:27.926Z</time></trkpt><trkpt lat="43.71848773525569" lon="10.982098086448383"><ele>25.666666666666664</ele><time>2026-05-02T07:05:28.925Z</time></trkpt><trkpt lat="43.7185475637171" lon="10.982391749362671"><ele>25.333333333333336</ele><time>2026-05-02T07:05:29.925Z</time></trkpt><trkpt lat="43.71859525137152" lon="10.982684204411687"><ele>25.0</ele><time>2026-05-02T07:05:30.925Z</time></trkpt><trkpt lat="43.718645917476664" lon="10.982974845331194"><ele>25.666666666666668</ele><time>2026-05-02T07:05:31.925Z</time></trkpt><trkpt lat="43.71870412432122" lon="10.983274352103859"><ele>26.333333333333336</ele><time>2026-05-02T07:05:32.925Z</time></trkpt><trkpt lat="43.71876708752806" lon="10.983571894131492"><ele>27.0</ele><time>2026-05-02T07:05:33.925Z</time></trkpt><trkpt lat="43.71883178843156" lon="10.983871369629627"><ele>27.0</ele><time>2026-05-02T07:05:34.925Z</time></trkpt><trkpt lat="43.71889344150728" lon="10.984169067532239"><ele>27.0</ele><time>2026-05-02T07:05:35.925Z</time></trkpt><trkpt lat="43.71894920017194" lon="10.984467991199145"><ele>27.0</ele><time>2026-05-02T07:05:36.925Z</time></trkpt><trkpt lat="43.71900609465515" lon="10.984768934336891"><ele>27.0</ele><time>2026-05-02T07:05:37.925Z</time></trkpt><trkpt lat="43.719069954034076" lon="10.985070937253091"><ele>27.0</ele><time>2026-05-02T07:05:38.925Z</time></trkpt><trkpt lat="43.719132917977745" lon="10.985374479561154"><ele>27.0</ele><time>2026-05-02T07:05:39.925Z</time></trkpt><trkpt lat="43.71920021320687" lon="10.985679645904023"><ele>27.0</ele><time>2026-05-02T07:05:40.925Z</time></trkpt><trkpt lat="43.71926570900379" lon="10.985988244267919"><ele>26.5</ele><time>2026-05-02T07:05:41.925Z</time></trkpt><trkpt lat="43.71932270742988" lon="10.986294118297872"><ele>26.0</ele><time>2026-05-02T07:05:42.925Z</time></trkpt><trkpt lat="43.719385041259315" lon="10.986593948040747"><ele>26.666666666666664</ele><time>2026-05-02T07:05:43.925Z</time></trkpt><trkpt lat="43.71944110998975" lon="10.98689501136593"><ele>27.333333333333336</ele><time>2026-05-02T07:05:44.925Z</time></trkpt><trkpt lat="43.71949195902262" lon="10.987187488720991"><ele>28.0</ele><time>2026-05-02T07:05:45.925Z</time></trkpt><trkpt lat="43.719541519260304" lon="10.987481645655256"><ele>28.0</ele><time>2026-05-02T07:05:46.925Z</time></trkpt><trkpt lat="43.719590903291156" lon="10.987786754344125"><ele>28.0</ele><time>2026-05-02T07:05:47.925Z</time></trkpt><trkpt lat="43.71967880383517" lon="10.988095769311814"><ele>27.5</ele><time>2026-05-02T07:05:48.925Z</time></trkpt><trkpt lat="43.71974007044423" lon="10.988400250437666"><ele>27.0</ele><time>2026-05-02T07:05:49.925Z</time></trkpt><trkpt lat="43.71979011622656" lon="10.988705286920565"><ele>27.0</ele><time>2026-05-02T07:05:50.925Z</time></trkpt><trkpt lat="43.71983727570809" lon="10.989005032960366"><ele>27.0</ele><time>2026-05-02T07:05:51.925Z</time></trkpt><trkpt lat="43.71988176200082" lon="10.989308742010527"><ele>27.0</ele><time>2026-05-02T07:05:52.925Z</time></trkpt><trkpt lat="43.71994002986815" lon="10.989630050846893"><ele>27.0</ele><time>2026-05-02T07:05:53.925Z</time></trkpt><trkpt lat="43.719990829608676" lon="10.989949341829291"><ele>27.0</ele><time>2026-05-02T07:05:54.924Z</time></trkpt><trkpt lat="43.72004159141425" lon="10.99026586488907"><ele>27.5</ele><time>2026-05-02T07:05:55.924Z</time></trkpt><trkpt lat="43.72008434596453" lon="10.990588216581923"><ele>28.0</ele><time>2026-05-02T07:05:56.924Z</time></trkpt><trkpt lat="43.72012244565566" lon="10.990912537434138"><ele>28.0</ele><time>2026-05-02T07:05:57.924Z</time></trkpt><trkpt lat="43.7201593844273" lon="10.991237671951712"><ele>28.0</ele><time>2026-05-02T07:05:58.924Z</time></trkpt><trkpt lat="43.720198125827096" lon="10.991559373846407"><ele>29.0</ele><time>2026-05-02T07:05:59.924Z</time></trkpt><trkpt lat="43.7202352816401" lon="10.991876025133415"><ele>30.0</ele><time>2026-05-02T07:06:00.924Z</time></trkpt><trkpt lat="43.720269372555755" lon="10.992195237389396"><ele>30.0</ele><time>2026-05-02T07:06:01.924Z</time></trkpt><trkpt lat="43.720304885069986" lon="10.992510423816684"><ele>30.0</ele><time>2026-05-02T07:06:02.924Z</time></trkpt><trkpt lat="43.720340669463226" lon="10.992833562997049"><ele>30.0</ele><time>2026-05-02T07:06:03.924Z</time></trkpt><trkpt lat="43.720375173217455" lon="10.993147494470875"><ele>30.0</ele><time>2026-05-02T07:06:04.924Z</time></trkpt><trkpt lat="43.720408160339296" lon="10.99346975449773"><ele>29.0</ele><time>2026-05-02T07:06:05.924Z</time></trkpt><trkpt lat="43.720443065712146" lon="10.993793655599635"><ele>28.0</ele><time>2026-05-02T07:06:06.924Z</time></trkpt><trkpt lat="43.7204754529346" lon="10.994117605206988"><ele>28.0</ele><time>2026-05-02T07:06:07.924Z</time></trkpt><trkpt lat="43.720511489327755" lon="10.99444448699319"><ele>28.0</ele><time>2026-05-02T07:06:08.924Z</time></trkpt><trkpt lat="43.720549518912065" lon="10.994778031399484"><ele>28.5</ele><time>2026-05-02T07:06:09.924Z</time></trkpt><trkpt lat="43.72058187712606" lon="10.99510406363728"><ele>29.0</ele><time>2026-05-02T07:06:10.924Z</time></trkpt><trkpt lat="43.720621339938724" lon="10.995423119597145"><ele>29.0</ele><time>2026-05-02T07:06:11.924Z</time></trkpt><trkpt lat="43.72065776823113" lon="10.995746357143616"><ele>29.0</ele><time>2026-05-02T07:06:12.924Z</time></trkpt><trkpt lat="43.720693973075484" lon="10.996066696622425"><ele>29.0</ele><time>2026-05-02T07:06:13.924Z</time></trkpt><trkpt lat="43.7207295706718" lon="10.996391745664452"><ele>29.0</ele><time>2026-05-02T07:06:14.924Z</time></trkpt><trkpt lat="43.720766380470856" lon="10.996714766152238"><ele>28.5</ele><time>2026-05-02T07:06:15.924Z</time></trkpt><trkpt lat="43.720799937795796" lon="10.997042221373233"><ele>28.0</ele><time>2026-05-02T07:06:16.924Z</time></trkpt><trkpt lat="43.72083677902875" lon="10.997372750907388"><ele>29.0</ele><time>2026-05-02T07:06:17.924Z</time></trkpt><trkpt lat="43.72087484842809" lon="10.997697972242605"><ele>30.0</ele><time>2026-05-02T07:06:18.923Z</time></trkpt><trkpt lat="43.72090799508734" lon="10.998020964982008"><ele>30.0</ele><time>2026-05-02T07:06:19.923Z</time></trkpt><trkpt lat="43.720936674626" lon="10.998346657145065"><ele>30.0</ele><time>2026-05-02T07:06:20.923Z</time></trkpt><trkpt lat="43.72097614845562" lon="10.998674052795955"><ele>30.0</ele><time>2026-05-02T07:06:21.923Z</time></trkpt><trkpt lat="43.72101598451402" lon="10.9990000324419"><ele>30.0</ele><time>2026-05-02T07:06:22.923Z</time></trkpt><trkpt lat="43.72105188352704" lon="10.999330546650466"><ele>29.5</ele><time>2026-05-02T07:06:23.923Z</time></trkpt><trkpt lat="43.72108779792553" lon="10.999667255433362"><ele>29.0</ele><time>2026-05-02T07:06:24.923Z</time></trkpt><trkpt lat="43.721121052508856" lon="11.00000183716684"><ele>29.0</ele><time>2026-05-02T07:06:25.923Z</time></trkpt><trkpt lat="43.72116014772807" lon="11.000327523023499"><ele>29.0</ele><time>2026-05-02T07:06:26.923Z</time></trkpt><trkpt lat="43.72119419911988" lon="11.000656382112092"><ele>29.5</ele><time>2026-05-02T07:06:27.923Z</time></trkpt><trkpt lat="43.72123375111412" lon="11.00098113821354"><ele>30.0</ele><time>2026-05-02T07:06:28.923Z</time></trkpt><trkpt lat="43.721273508681264" lon="11.001306992146848"><ele>30.0</ele><time>2026-05-02T07:06:29.923Z</time></trkpt><trkpt lat="43.72131086458417" lon="11.001636509775476"><ele>30.0</ele><time>2026-05-02T07:06:30.923Z</time></trkpt><trkpt lat="43.7213450103823" lon="11.001964119237115"><ele>30.5</ele><time>2026-05-02T07:06:31.923Z</time></trkpt><trkpt lat="43.721381588774236" lon="11.002291926771116"><ele>31.0</ele><time>2026-05-02T07:06:32.923Z</time></trkpt><trkpt lat="43.72141785248034" lon="11.002625000235035"><ele>31.0</ele><time>2026-05-02T07:06:33.923Z</time></trkpt><trkpt lat="43.72145282952309" lon="11.002947716083277"><ele>31.0</ele><time>2026-05-02T07:06:34.923Z</time></trkpt><trkpt lat="43.72148731568797" lon="11.003265548463661"><ele>31.0</ele><time>2026-05-02T07:06:35.923Z</time></trkpt><trkpt lat="43.72152382851363" lon="11.003585495675793"><ele>31.0</ele><time>2026-05-02T07:06:36.923Z</time></trkpt><trkpt lat="43.721557789558425" lon="11.003905056169543"><ele>30.0</ele><time>2026-05-02T07:06:37.923Z</time></trkpt><trkpt lat="43.72159259526772" lon="11.004220402090617"><ele>29.0</ele><time>2026-05-02T07:06:38.923Z</time></trkpt><trkpt lat="43.721626710602195" lon="11.004528086815359"><ele>29.0</ele><time>2026-05-02T07:06:39.923Z</time></trkpt><trkpt lat="43.72166124158736" lon="11.004836599437974"><ele>29.0</ele><time>2026-05-02T07:06:40.923Z</time></trkpt><trkpt lat="43.72169693681752" lon="11.005142446218253"><ele>28.5</ele><time>2026-05-02T07:06:41.923Z</time></trkpt><trkpt lat="43.721729532756584" lon="11.005463315555025"><ele>28.0</ele><time>2026-05-02T07:06:42.923Z</time></trkpt><trkpt lat="43.721761700715724" lon="11.005773083337413"><ele>28.5</ele><time>2026-05-02T07:06:43.922Z</time></trkpt><trkpt lat="43.72179983629404" lon="11.006082778875795"><ele>29.0</ele><time>2026-05-02T07:06:44.922Z</time></trkpt><trkpt lat="43.72183421811497" lon="11.006406316080565"><ele>29.5</ele><time>2026-05-02T07:06:45.922Z</time></trkpt><trkpt lat="43.72186833260952" lon="11.006730248099977"><ele>30.0</ele><time>2026-05-02T07:06:46.922Z</time></trkpt><trkpt lat="43.72190341724166" lon="11.007052743053823"><ele>29.0</ele><time>2026-05-02T07:06:47.922Z</time></trkpt><trkpt lat="43.72193791700699" lon="11.007376966070828"><ele>28.0</ele><time>2026-05-02T07:06:48.922Z</time></trkpt><trkpt lat="43.72197352681774" lon="11.007699589819753"><ele>28.0</ele><time>2026-05-02T07:06:49.922Z</time></trkpt><trkpt lat="43.722010561511944" lon="11.008019392732722"><ele>28.0</ele><time>2026-05-02T07:06:50.924Z</time></trkpt><trkpt lat="43.72205160317591" lon="11.008337060134552"><ele>28.5</ele><time>2026-05-02T07:06:51.924Z</time></trkpt><trkpt lat="43.72210266861779" lon="11.008643690002957"><ele>29.0</ele><time>2026-05-02T07:06:52.924Z</time></trkpt><trkpt lat="43.72215923731292" lon="11.008954956098178"><ele>30.0</ele><time>2026-05-02T07:06:53.924Z</time></trkpt><trkpt lat="43.722219116268086" lon="11.009253988242012"><ele>31.0</ele><time>2026-05-02T07:06:54.924Z</time></trkpt><trkpt lat="43.72229666069277" lon="11.009551657773281"><ele>31.0</ele><time>2026-05-02T07:06:55.924Z</time></trkpt><trkpt lat="43.722377196311925" lon="11.00984783684481"><ele>31.0</ele><time>2026-05-02T07:06:56.924Z</time></trkpt><trkpt lat="43.72247515453669" lon="11.010134904231798"><ele>33.0</ele><time>2026-05-02T07:06:57.924Z</time></trkpt><trkpt lat="43.722577163328374" lon="11.01041768822759"><ele>35.0</ele><time>2026-05-02T07:06:58.924Z</time></trkpt><trkpt lat="43.722692431754155" lon="11.010686328775265"><ele>39.0</ele><time>2026-05-02T07:06:59.924Z</time></trkpt><trkpt lat="43.72281201620315" lon="11.010951633486696"><ele>43.0</ele><time>2026-05-02T07:07:00.924Z</time></trkpt><trkpt lat="43.72293681867963" lon="11.011223674570969"><ele>43.0</ele><time>2026-05-02T07:07:01.924Z</time></trkpt><trkpt lat="43.72307242903656" lon="11.01149202307266"><ele>43.0</ele><time>2026-05-02T07:07:02.924Z</time></trkpt><trkpt lat="43.72320089589276" lon="11.011775967627505"><ele>48.0</ele><time>2026-05-02T07:07:03.923Z</time></trkpt><trkpt lat="43.723331226366284" lon="11.012047846974127"><ele>53.0</ele><time>2026-05-02T07:07:04.923Z</time></trkpt><trkpt lat="43.72345796176764" lon="11.012321453495554"><ele>52.5</ele><time>2026-05-02T07:07:05.923Z</time></trkpt><trkpt lat="43.72359031102105" lon="11.012596482673768"><ele>52.0</ele><time>2026-05-02T07:07:06.923Z</time></trkpt><trkpt lat="43.723722374272604" lon="11.012861316206342"><ele>52.0</ele><time>2026-05-02T07:07:07.923Z</time></trkpt><trkpt lat="43.723854545790466" lon="11.013123807920502"><ele>52.0</ele><time>2026-05-02T07:07:08.923Z</time></trkpt><trkpt lat="43.72398332011984" lon="11.013378925450926"><ele>53.33333333333333</ele><time>2026-05-02T07:07:09.923Z</time></trkpt><trkpt lat="43.724113300713235" lon="11.013635652548652"><ele>54.66666666666667</ele><time>2026-05-02T07:07:10.923Z</time></trkpt><trkpt lat="43.724236970160504" lon="11.013891933864246"><ele>56.0</ele><time>2026-05-02T07:07:11.923Z</time></trkpt><trkpt lat="43.72436168245937" lon="11.014149707198749"><ele>55.5</ele><time>2026-05-02T07:07:12.923Z</time></trkpt><trkpt lat="43.72448864233445" lon="11.014415941976976"><ele>55.0</ele><time>2026-05-02T07:07:13.923Z</time></trkpt><trkpt lat="43.72460531234116" lon="11.014695950027019"><ele>55.0</ele><time>2026-05-02T07:07:14.923Z</time></trkpt><trkpt lat="43.72472018584738" lon="11.014969796004136"><ele>55.0</ele><time>2026-05-02T07:07:15.923Z</time></trkpt><trkpt lat="43.72482757579308" lon="11.015257227909242"><ele>57.0</ele><time>2026-05-02T07:07:16.923Z</time></trkpt><trkpt lat="43.724915094133145" lon="11.015556256068422"><ele>59.0</ele><time>2026-05-02T07:07:17.923Z</time></trkpt><trkpt lat="43.724985859714025" lon="11.015861639753346"><ele>61.5</ele><time>2026-05-02T07:07:18.923Z</time></trkpt><trkpt lat="43.72504782092506" lon="11.016170133787009"><ele>64.0</ele><time>2026-05-02T07:07:19.923Z</time></trkpt><trkpt lat="43.72509545486579" lon="11.016486587113802"><ele>68.5</ele><time>2026-05-02T07:07:20.923Z</time></trkpt><trkpt lat="43.72513486434999" lon="11.01680063778554"><ele>73.0</ele><time>2026-05-02T07:07:21.923Z</time></trkpt><trkpt lat="43.725164031415325" lon="11.017117335505008"><ele>73.0</ele><time>2026-05-02T07:07:22.923Z</time></trkpt><trkpt lat="43.72517832112275" lon="11.017435462914214"><ele>73.0</ele><time>2026-05-02T07:07:23.923Z</time></trkpt><trkpt lat="43.72518083084053" lon="11.017757481691824"><ele>78.5</ele><time>2026-05-02T07:07:24.923Z</time></trkpt><trkpt lat="43.72517474799102" lon="11.01808112753247"><ele>84.0</ele><time>2026-05-02T07:07:25.923Z</time></trkpt><trkpt lat="43.72515887849071" lon="11.018406294411767"><ele>85.0</ele><time>2026-05-02T07:07:26.923Z</time></trkpt><trkpt lat="43.725129543061186" lon="11.01873580291907"><ele>86.0</ele><time>2026-05-02T07:07:27.922Z</time></trkpt><trkpt lat="43.7250855747923" lon="11.019065463467257"><ele>82.0</ele><time>2026-05-02T07:07:28.922Z</time></trkpt><trkpt lat="43.72501173684471" lon="11.019386280947634"><ele>78.0</ele><time>2026-05-02T07:07:29.922Z</time></trkpt><trkpt lat="43.72493652331476" lon="11.019693833554584"><ele>74.0</ele><time>2026-05-02T07:07:30.922Z</time></trkpt><trkpt lat="43.72485275933661" lon="11.020002557570148"><ele>70.0</ele><time>2026-05-02T07:07:31.922Z</time></trkpt><trkpt lat="43.724753705938404" lon="11.020302085962653"><ele>70.0</ele><time>2026-05-02T07:07:32.922Z</time></trkpt><trkpt lat="43.72464184323155" lon="11.020595818544326"><ele>70.0</ele><time>2026-05-02T07:07:33.922Z</time></trkpt><trkpt lat="43.724525410172866" lon="11.020890050333598"><ele>71.0</ele><time>2026-05-02T07:07:34.922Z</time></trkpt><trkpt lat="43.724392287855096" lon="11.021163911824246"><ele>72.0</ele><time>2026-05-02T07:07:35.922Z</time></trkpt><trkpt lat="43.724251932688574" lon="11.021430559592815"><ele>69.5</ele><time>2026-05-02T07:07:36.922Z</time></trkpt><trkpt lat="43.7241006629234" lon="11.021687368803578"><ele>67.0</ele><time>2026-05-02T07:07:37.922Z</time></trkpt><trkpt lat="43.72393623883693" lon="11.021932741471451"><ele>67.0</ele><time>2026-05-02T07:07:38.922Z</time></trkpt><trkpt lat="43.72376849983559" lon="11.022169869430215"><ele>67.0</ele><time>2026-05-02T07:07:39.922Z</time></trkpt><trkpt lat="43.723590550556644" lon="11.022394200097683"><ele>69.0</ele><time>2026-05-02T07:07:40.922Z</time></trkpt><trkpt lat="43.723417660158816" lon="11.02263008478649"><ele>71.0</ele><time>2026-05-02T07:07:41.922Z</time></trkpt><trkpt lat="43.72326478473946" lon="11.022901609367777"><ele>71.0</ele><time>2026-05-02T07:07:42.922Z</time></trkpt><trkpt lat="43.72308230776715" lon="11.023133543140153"><ele>71.0</ele><time>2026-05-02T07:07:43.922Z</time></trkpt><trkpt lat="43.722900714378255" lon="11.02336969642872"><ele>69.0</ele><time>2026-05-02T07:07:44.922Z</time></trkpt><trkpt lat="43.72271785048092" lon="11.023611411515319"><ele>67.0</ele><time>2026-05-02T07:07:45.922Z</time></trkpt><trkpt lat="43.72254403865539" lon="11.023858082394344"><ele>67.0</ele><time>2026-05-02T07:07:46.922Z</time></trkpt><trkpt lat="43.72237361804226" lon="11.024104307791674"><ele>67.0</ele><time>2026-05-02T07:07:47.922Z</time></trkpt><trkpt lat="43.722203393649885" lon="11.024357829496616"><ele>69.0</ele><time>2026-05-02T07:07:48.922Z</time></trkpt><trkpt lat="43.722045182343855" lon="11.024608283741758"><ele>71.0</ele><time>2026-05-02T07:07:49.922Z</time></trkpt><trkpt lat="43.721893934004754" lon="11.024859108548426"><ele>68.5</ele><time>2026-05-02T07:07:50.922Z</time></trkpt><trkpt lat="43.72174922457573" lon="11.025106113520744"><ele>66.0</ele><time>2026-05-02T07:07:51.922Z</time></trkpt><trkpt lat="43.72161466325274" lon="11.025353400032722"><ele>66.0</ele><time>2026-05-02T07:07:52.922Z</time></trkpt><trkpt lat="43.72148032658416" lon="11.025605579456064"><ele>66.0</ele><time>2026-05-02T07:07:53.921Z</time></trkpt><trkpt lat="43.721351665862464" lon="11.02585382883802"><ele>66.0</ele><time>2026-05-02T07:07:54.921Z</time></trkpt><trkpt lat="43.72122756426478" lon="11.02610397823596"><ele>62.5</ele><time>2026-05-02T07:07:55.921Z</time></trkpt><trkpt lat="43.721100552841165" lon="11.026355547827722"><ele>59.0</ele><time>2026-05-02T07:07:56.921Z</time></trkpt><trkpt lat="43.72097060748527" lon="11.026619919960977"><ele>65.5</ele><time>2026-05-02T07:07:57.921Z</time></trkpt><trkpt lat="43.720836270164696" lon="11.026890641884002"><ele>72.0</ele><time>2026-05-02T07:07:58.921Z</time></trkpt><trkpt lat="43.720700801132686" lon="11.02715975894831"><ele>72.0</ele><time>2026-05-02T07:07:59.921Z</time></trkpt><trkpt lat="43.72056888115389" lon="11.02742091824365"><ele>72.0</ele><time>2026-05-02T07:08:00.921Z</time></trkpt><trkpt lat="43.720440703506085" lon="11.027682881774124"><ele>72.33333333333333</ele><time>2026-05-02T07:08:01.921Z</time></trkpt><trkpt lat="43.72031415190668" lon="11.027938675134884"><ele>72.66666666666666</ele><time>2026-05-02T07:08:02.921Z</time></trkpt><trkpt lat="43.720191617172894" lon="11.028178294901203"><ele>73.0</ele><time>2026-05-02T07:08:03.921Z</time></trkpt><trkpt lat="43.72007697051064" lon="11.028407955798254"><ele>73.0</ele><time>2026-05-02T07:08:04.921Z</time></trkpt><trkpt lat="43.719983378221855" lon="11.028615937643051"><ele>73.0</ele><time>2026-05-02T07:08:05.921Z</time></trkpt><trkpt lat="43.71987819415282" lon="11.028823395092125"><ele>73.0</ele><time>2026-05-02T07:08:06.921Z</time></trkpt><trkpt lat="43.71977137747131" lon="11.029030045680022"><ele>70.0</ele><time>2026-05-02T07:08:07.921Z</time></trkpt><trkpt lat="43.71966522741873" lon="11.029254243354961"><ele>67.0</ele><time>2026-05-02T07:08:08.921Z</time></trkpt><trkpt lat="43.71956247283308" lon="11.029493677218385"><ele>64.0</ele><time>2026-05-02T07:08:09.921Z</time></trkpt><trkpt lat="43.71945144905642" lon="11.029737951121675"><ele>65.5</ele><time>2026-05-02T07:08:10.921Z</time></trkpt><trkpt lat="43.719332080847416" lon="11.029994541053268"><ele>67.0</ele><time>2026-05-02T07:08:11.921Z</time></trkpt><trkpt lat="43.71919914304226" lon="11.030259554632755"><ele>67.0</ele><time>2026-05-02T07:08:12.921Z</time></trkpt><trkpt lat="43.71906787077536" lon="11.030530371977338"><ele>67.0</ele><time>2026-05-02T07:08:13.921Z</time></trkpt><trkpt lat="43.71893366556518" lon="11.030814697389934"><ele>65.0</ele><time>2026-05-02T07:08:14.921Z</time></trkpt><trkpt lat="43.71878277768253" lon="11.031088430342395"><ele>63.0</ele><time>2026-05-02T07:08:15.921Z</time></trkpt><trkpt lat="43.71864092831473" lon="11.031366581018224"><ele>65.0</ele><time>2026-05-02T07:08:16.921Z</time></trkpt><trkpt lat="43.71850076647074" lon="11.031641706953994"><ele>67.0</ele><time>2026-05-02T07:08:17.921Z</time></trkpt><trkpt lat="43.71836255409578" lon="11.031914028867588"><ele>67.0</ele><time>2026-05-02T07:08:18.921Z</time></trkpt><trkpt lat="43.71822206058081" lon="11.0321722215398"><ele>67.0</ele><time>2026-05-02T07:08:19.92Z</time></trkpt><trkpt lat="43.71808073271519" lon="11.032418554715473"><ele>64.33333333333333</ele><time>2026-05-02T07:08:20.92Z</time></trkpt><trkpt lat="43.71794636749578" lon="11.032667063376719"><ele>61.66666666666667</ele><time>2026-05-02T07:08:21.92Z</time></trkpt><trkpt lat="43.71782472375626" lon="11.032921015310334"><ele>59.0</ele><time>2026-05-02T07:08:22.92Z</time></trkpt><trkpt lat="43.717698756629" lon="11.033163489251956"><ele>54.333333333333336</ele><time>2026-05-02T07:08:23.92Z</time></trkpt><trkpt lat="43.71757361043331" lon="11.0334148652736"><ele>49.66666666666667</ele><time>2026-05-02T07:08:24.92Z</time></trkpt><trkpt lat="43.717447806895585" lon="11.03366085626478"><ele>45.0</ele><time>2026-05-02T07:08:25.92Z</time></trkpt><trkpt lat="43.71732550459002" lon="11.033916749653976"><ele>45.0</ele><time>2026-05-02T07:08:26.92Z</time></trkpt><trkpt lat="43.717197312914216" lon="11.03416485450429"><ele>45.0</ele><time>2026-05-02T07:08:27.92Z</time></trkpt><trkpt lat="43.717066289170496" lon="11.034416224005941"><ele>45.0</ele><time>2026-05-02T07:08:28.92Z</time></trkpt><trkpt lat="43.716941899261606" lon="11.034675299984881"><ele>46.66666666666667</ele><time>2026-05-02T07:08:29.92Z</time></trkpt><trkpt lat="43.716816513113386" lon="11.034932775049695"><ele>48.333333333333336</ele><time>2026-05-02T07:08:30.92Z</time></trkpt><trkpt lat="43.71670782936962" lon="11.035204597079147"><ele>50.0</ele><time>2026-05-02T07:08:31.92Z</time></trkpt><trkpt lat="43.71661295074905" lon="11.035480287371666"><ele>53.66666666666667</ele><time>2026-05-02T07:08:32.92Z</time></trkpt><trkpt lat="43.71652713846977" lon="11.035760150150365"><ele>57.33333333333333</ele><time>2026-05-02T07:08:33.92Z</time></trkpt><trkpt lat="43.71644712111646" lon="11.036044674578402"><ele>61.0</ele><time>2026-05-02T07:08:34.92Z</time></trkpt><trkpt lat="43.71638021327396" lon="11.03633868123743"><ele>59.0</ele><time>2026-05-02T07:08:35.92Z</time></trkpt><trkpt lat="43.71631988844729" lon="11.036644009502435"><ele>57.0</ele><time>2026-05-02T07:08:36.92Z</time></trkpt><trkpt lat="43.716277223003296" lon="11.036942451516339"><ele>55.0</ele><time>2026-05-02T07:08:37.92Z</time></trkpt><trkpt lat="43.71624308519231" lon="11.037242467413545"><ele>51.0</ele><time>2026-05-02T07:08:38.92Z</time></trkpt><trkpt lat="43.71621518715198" lon="11.037558843075525"><ele>47.0</ele><time>2026-05-02T07:08:39.92Z</time></trkpt><trkpt lat="43.71616779619293" lon="11.037877043133063"><ele>47.0</ele><time>2026-05-02T07:08:40.92Z</time></trkpt><trkpt lat="43.71611250817636" lon="11.038197796170856"><ele>47.0</ele><time>2026-05-02T07:08:41.92Z</time></trkpt><trkpt lat="43.716050897209826" lon="11.038511245806799"><ele>55.5</ele><time>2026-05-02T07:08:42.92Z</time></trkpt><trkpt lat="43.71596618393001" lon="11.038812655993604"><ele>64.0</ele><time>2026-05-02T07:08:43.92Z</time></trkpt><trkpt lat="43.71586427099662" lon="11.039104922067548"><ele>58.5</ele><time>2026-05-02T07:08:44.92Z</time></trkpt><trkpt lat="43.71574129854412" lon="11.039384553377937"><ele>53.0</ele><time>2026-05-02T07:08:45.919Z</time></trkpt><trkpt lat="43.715616681593715" lon="11.03965805783904"><ele>53.0</ele><time>2026-05-02T07:08:46.919Z</time></trkpt><trkpt lat="43.715477105970045" lon="11.03992045539533"><ele>53.0</ele><time>2026-05-02T07:08:47.919Z</time></trkpt><trkpt lat="43.7153360492142" lon="11.040180338586834"><ele>56.0</ele><time>2026-05-02T07:08:48.919Z</time></trkpt><trkpt lat="43.71520678572394" lon="11.040442314308898"><ele>59.0</ele><time>2026-05-02T07:08:49.919Z</time></trkpt><trkpt lat="43.71507770257231" lon="11.040712129181664"><ele>55.5</ele><time>2026-05-02T07:08:50.919Z</time></trkpt><trkpt lat="43.71494859038832" lon="11.04098269989733"><ele>52.0</ele><time>2026-05-02T07:08:51.919Z</time></trkpt><trkpt lat="43.714816083023095" lon="11.041260926991397"><ele>52.0</ele><time>2026-05-02T07:08:52.919Z</time></trkpt><trkpt lat="43.71468438876628" lon="11.041534449896261"><ele>52.0</ele><time>2026-05-02T07:08:53.919Z</time></trkpt><trkpt lat="43.71454700371536" lon="11.041802094542106"><ele>51.0</ele><time>2026-05-02T07:08:54.919Z</time></trkpt><trkpt lat="43.71441809991749" lon="11.042082581901525"><ele>50.0</ele><time>2026-05-02T07:08:55.919Z</time></trkpt><trkpt lat="43.714282601785925" lon="11.042354692580188"><ele>49.5</ele><time>2026-05-02T07:08:56.921Z</time></trkpt><trkpt lat="43.714147853361844" lon="11.042627621798374"><ele>49.0</ele><time>2026-05-02T07:08:57.921Z</time></trkpt><trkpt lat="43.7140137604583" lon="11.042901447129275"><ele>49.0</ele><time>2026-05-02T07:08:58.921Z</time></trkpt><trkpt lat="43.7138810377927" lon="11.043172648271002"><ele>49.0</ele><time>2026-05-02T07:08:59.921Z</time></trkpt><trkpt lat="43.71375220653967" lon="11.04344322614911"><ele>48.0</ele><time>2026-05-02T07:09:00.921Z</time></trkpt><trkpt lat="43.713623795107736" lon="11.043708049559614"><ele>47.0</ele><time>2026-05-02T07:09:01.921Z</time></trkpt><trkpt lat="43.7134912539206" lon="11.043967429644525"><ele>48.5</ele><time>2026-05-02T07:09:02.921Z</time></trkpt><trkpt lat="43.71336066938736" lon="11.044226651826458"><ele>50.0</ele><time>2026-05-02T07:09:03.921Z</time></trkpt><trkpt lat="43.71323276371171" lon="11.04449557002474"><ele>50.0</ele><time>2026-05-02T07:09:04.921Z</time></trkpt><trkpt lat="43.71309943155401" lon="11.044763192170759"><ele>50.0</ele><time>2026-05-02T07:09:05.921Z</time></trkpt><trkpt lat="43.712967707075094" lon="11.0450317659251"><ele>47.5</ele><time>2026-05-02T07:09:06.921Z</time></trkpt><trkpt lat="43.71283230184366" lon="11.045310316693664"><ele>45.0</ele><time>2026-05-02T07:09:07.921Z</time></trkpt><trkpt lat="43.71269743134519" lon="11.04558925961953"><ele>50.0</ele><time>2026-05-02T07:09:08.921Z</time></trkpt><trkpt lat="43.71256256644901" lon="11.045868014674284"><ele>55.0</ele><time>2026-05-02T07:09:09.921Z</time></trkpt><trkpt lat="43.71242900474287" lon="11.046148211095083"><ele>55.0</ele><time>2026-05-02T07:09:10.921Z</time></trkpt><trkpt lat="43.712301997129465" lon="11.046427851689616"><ele>55.0</ele><time>2026-05-02T07:09:11.921Z</time></trkpt><trkpt lat="43.712189460425506" lon="11.046715328275315"><ele>51.5</ele><time>2026-05-02T07:09:12.921Z</time></trkpt><trkpt lat="43.712098667148446" lon="11.04702081113241"><ele>48.0</ele><time>2026-05-02T07:09:13.921Z</time></trkpt><trkpt lat="43.71201522535725" lon="11.047323166357303"><ele>45.5</ele><time>2026-05-02T07:09:14.921Z</time></trkpt><trkpt lat="43.71194081255698" lon="11.047626263179128"><ele>43.0</ele><time>2026-05-02T07:09:15.92Z</time></trkpt><trkpt lat="43.711879523134954" lon="11.047934122736953"><ele>47.5</ele><time>2026-05-02T07:09:16.92Z</time></trkpt><trkpt lat="43.71182905043053" lon="11.048246044339374"><ele>52.0</ele><time>2026-05-02T07:09:17.92Z</time></trkpt><trkpt lat="43.71178838482135" lon="11.048562901280807"><ele>52.0</ele><time>2026-05-02T07:09:18.92Z</time></trkpt><trkpt lat="43.7117455051699" lon="11.04888030229685"><ele>52.0</ele><time>2026-05-02T07:09:19.92Z</time></trkpt><trkpt lat="43.711697359884184" lon="11.049200475003058"><ele>51.5</ele><time>2026-05-02T07:09:20.92Z</time></trkpt><trkpt lat="43.711653286521106" lon="11.049518015832891"><ele>51.0</ele><time>2026-05-02T07:09:21.92Z</time></trkpt><trkpt lat="43.71160736638221" lon="11.049835726797197"><ele>49.0</ele><time>2026-05-02T07:09:22.92Z</time></trkpt><trkpt lat="43.711558954244516" lon="11.050154422822338"><ele>47.0</ele><time>2026-05-02T07:09:23.92Z</time></trkpt><trkpt lat="43.71151081392801" lon="11.050474277602204"><ele>48.0</ele><time>2026-05-02T07:09:24.92Z</time></trkpt><trkpt lat="43.711475076222854" lon="11.050794439192213"><ele>49.0</ele><time>2026-05-02T07:09:25.92Z</time></trkpt><trkpt lat="43.711429738243915" lon="11.05111171869233"><ele>49.0</ele><time>2026-05-02T07:09:26.92Z</time></trkpt><trkpt lat="43.71139494980532" lon="11.051429961576995"><ele>49.0</ele><time>2026-05-02T07:09:27.92Z</time></trkpt><trkpt lat="43.71137594528779" lon="11.051755938616504"><ele>48.5</ele><time>2026-05-02T07:09:28.92Z</time></trkpt><trkpt lat="43.71136483826941" lon="11.052084625287764"><ele>48.0</ele><time>2026-05-02T07:09:29.92Z</time></trkpt><trkpt lat="43.711364767903866" lon="11.052415313493611"><ele>47.5</ele><time>2026-05-02T07:09:30.92Z</time></trkpt><trkpt lat="43.711375131899814" lon="11.0527427466599"><ele>47.0</ele><time>2026-05-02T07:09:31.92Z</time></trkpt><trkpt lat="43.711395336669305" lon="11.053060294399357"><ele>46.0</ele><time>2026-05-02T07:09:32.92Z</time></trkpt><trkpt lat="43.71142380690356" lon="11.053377181430008"><ele>45.0</ele><time>2026-05-02T07:09:33.92Z</time></trkpt><trkpt lat="43.71145520743837" lon="11.053696846818223"><ele>45.0</ele><time>2026-05-02T07:09:34.92Z</time></trkpt><trkpt lat="43.71149664449255" lon="11.054018305927054"><ele>45.0</ele><time>2026-05-02T07:09:35.92Z</time></trkpt><trkpt lat="43.71154872099255" lon="11.054345669650349"><ele>46.0</ele><time>2026-05-02T07:09:36.92Z</time></trkpt><trkpt lat="43.711606037442465" lon="11.054672612371002"><ele>47.0</ele><time>2026-05-02T07:09:37.92Z</time></trkpt><trkpt lat="43.71166106639378" lon="11.054991662709137"><ele>47.5</ele><time>2026-05-02T07:09:38.92Z</time></trkpt><trkpt lat="43.71171378836397" lon="11.055313437446758"><ele>48.0</ele><time>2026-05-02T07:09:39.92Z</time></trkpt><trkpt lat="43.71176419479304" lon="11.055637936231175"><ele>47.5</ele><time>2026-05-02T07:09:40.92Z</time></trkpt><trkpt lat="43.71181456681481" lon="11.055959662595882"><ele>47.0</ele><time>2026-05-02T07:09:41.919Z</time></trkpt><trkpt lat="43.71186539565575" lon="11.056281021456224"><ele>48.0</ele><time>2026-05-02T07:09:42.919Z</time></trkpt><trkpt lat="43.7119181714578" lon="11.056597884035654"><ele>49.0</ele><time>2026-05-02T07:09:43.919Z</time></trkpt><trkpt lat="43.71196716643549" lon="11.05691005670474"><ele>49.0</ele><time>2026-05-02T07:09:44.919Z</time></trkpt><trkpt lat="43.71201831225184" lon="11.057221048607316"><ele>49.0</ele><time>2026-05-02T07:09:45.919Z</time></trkpt><trkpt lat="43.712067954464054" lon="11.057536033642867"><ele>50.0</ele><time>2026-05-02T07:09:46.919Z</time></trkpt><trkpt lat="43.712117366603735" lon="11.057851832709492"><ele>51.0</ele><time>2026-05-02T07:09:47.919Z</time></trkpt><trkpt lat="43.71216815730583" lon="11.058172987555032"><ele>51.0</ele><time>2026-05-02T07:09:48.919Z</time></trkpt><trkpt lat="43.712212172847096" lon="11.058486354283065"><ele>51.0</ele><time>2026-05-02T07:09:49.919Z</time></trkpt><trkpt lat="43.712247246784564" lon="11.058808573592938"><ele>50.0</ele><time>2026-05-02T07:09:50.919Z</time></trkpt><trkpt lat="43.712277005344276" lon="11.059124100046812"><ele>49.0</ele><time>2026-05-02T07:09:51.919Z</time></trkpt><trkpt lat="43.71229946647537" lon="11.059444779471415"><ele>49.0</ele><time>2026-05-02T07:09:52.919Z</time></trkpt><trkpt lat="43.71231663880189" lon="11.059771100812034"><ele>49.0</ele><time>2026-05-02T07:09:53.919Z</time></trkpt><trkpt lat="43.712331698315474" lon="11.060100352965998"><ele>49.5</ele><time>2026-05-02T07:09:54.919Z</time></trkpt><trkpt lat="43.71233928726098" lon="11.06043913648734"><ele>50.0</ele><time>2026-05-02T07:09:55.919Z</time></trkpt><trkpt lat="43.71233905391886" lon="11.060763376625172"><ele>50.5</ele><time>2026-05-02T07:09:56.919Z</time></trkpt><trkpt lat="43.712326891884125" lon="11.061096876715256"><ele>51.0</ele><time>2026-05-02T07:09:57.919Z</time></trkpt><trkpt lat="43.71231310450375" lon="11.061427378391178"><ele>53.0</ele><time>2026-05-02T07:09:58.919Z</time></trkpt><trkpt lat="43.71229419714927" lon="11.061753231999356"><ele>55.0</ele><time>2026-05-02T07:09:59.919Z</time></trkpt><trkpt lat="43.712267332690175" lon="11.062082614678278"><ele>55.0</ele><time>2026-05-02T07:10:00.919Z</time></trkpt><trkpt lat="43.71223519951793" lon="11.062410302892717"><ele>55.0</ele><time>2026-05-02T07:10:01.919Z</time></trkpt><trkpt lat="43.71219882408859" lon="11.062733108696824"><ele>60.5</ele><time>2026-05-02T07:10:02.919Z</time></trkpt><trkpt lat="43.71215498285159" lon="11.06305082103502"><ele>66.0</ele><time>2026-05-02T07:10:03.919Z</time></trkpt><trkpt lat="43.71210549614238" lon="11.063371279538071"><ele>71.0</ele><time>2026-05-02T07:10:04.919Z</time></trkpt><trkpt lat="43.71205030734196" lon="11.06368707003363"><ele>76.0</ele><time>2026-05-02T07:10:05.919Z</time></trkpt><trkpt lat="43.7119952000422" lon="11.064001853641257"><ele>79.0</ele><time>2026-05-02T07:10:06.918Z</time></trkpt><trkpt lat="43.71194739592141" lon="11.064321255508066"><ele>82.0</ele><time>2026-05-02T07:10:07.918Z</time></trkpt><trkpt lat="43.71189645943989" lon="11.064637125574057"><ele>71.5</ele><time>2026-05-02T07:10:08.918Z</time></trkpt><trkpt lat="43.711845770047425" lon="11.064954816691886"><ele>61.0</ele><time>2026-05-02T07:10:09.918Z</time></trkpt><trkpt lat="43.711800244772185" lon="11.065274125384404"><ele>61.0</ele><time>2026-05-02T07:10:10.918Z</time></trkpt><trkpt lat="43.71175034842725" lon="11.065593211015813"><ele>61.0</ele><time>2026-05-02T07:10:11.918Z</time></trkpt><trkpt lat="43.71172928787442" lon="11.06592145972059"><ele>63.0</ele><time>2026-05-02T07:10:12.918Z</time></trkpt><trkpt lat="43.71172125753611" lon="11.066249834772702"><ele>65.0</ele><time>2026-05-02T07:10:13.918Z</time></trkpt><trkpt lat="43.71172781606779" lon="11.066573080392013"><ele>66.5</ele><time>2026-05-02T07:10:14.918Z</time></trkpt><trkpt lat="43.71175102978678" lon="11.066886165310269"><ele>68.0</ele><time>2026-05-02T07:10:15.918Z</time></trkpt><trkpt lat="43.7117862878432" lon="11.067195383474466"><ele>69.0</ele><time>2026-05-02T07:10:16.918Z</time></trkpt><trkpt lat="43.7118292185477" lon="11.067509746021237"><ele>70.0</ele><time>2026-05-02T07:10:17.918Z</time></trkpt><trkpt lat="43.71188345680818" lon="11.06782236797862"><ele>72.0</ele><time>2026-05-02T07:10:18.918Z</time></trkpt><trkpt lat="43.71195207448452" lon="11.0681280369194"><ele>74.0</ele><time>2026-05-02T07:10:19.918Z</time></trkpt><trkpt lat="43.71203819532859" lon="11.068421205235948"><ele>74.0</ele><time>2026-05-02T07:10:20.918Z</time></trkpt><trkpt lat="43.71213563995804" lon="11.068709700977207"><ele>74.0</ele><time>2026-05-02T07:10:21.918Z</time></trkpt><trkpt lat="43.71223926774727" lon="11.069001830182236"><ele>68.0</ele><time>2026-05-02T07:10:22.918Z</time></trkpt><trkpt lat="43.71235752658305" lon="11.06928950692104"><ele>62.0</ele><time>2026-05-02T07:10:23.918Z</time></trkpt><trkpt lat="43.712485740122716" lon="11.069561411331948"><ele>62.0</ele><time>2026-05-02T07:10:24.918Z</time></trkpt><trkpt lat="43.71262188921544" lon="11.069820229984542"><ele>62.0</ele><time>2026-05-02T07:10:25.918Z</time></trkpt><trkpt lat="43.712770043695905" lon="11.070074385699101"><ele>63.0</ele><time>2026-05-02T07:10:26.918Z</time></trkpt><trkpt lat="43.71292929197018" lon="11.070301821796749"><ele>64.0</ele><time>2026-05-02T07:10:27.918Z</time></trkpt><trkpt lat="43.71309399572908" lon="11.070526440154586"><ele>64.0</ele><time>2026-05-02T07:10:28.918Z</time></trkpt><trkpt lat="43.71326601654453" lon="11.07073159136314"><ele>64.0</ele><time>2026-05-02T07:10:29.918Z</time></trkpt><trkpt lat="43.71344357135843" lon="11.070925434121415"><ele>66.5</ele><time>2026-05-02T07:10:30.918Z</time></trkpt><trkpt lat="43.71363151299249" lon="11.071119685388187"><ele>69.0</ele><time>2026-05-02T07:10:31.917Z</time></trkpt><trkpt lat="43.713823821583745" lon="11.071297994210184"><ele>69.0</ele><time>2026-05-02T07:10:32.917Z</time></trkpt><trkpt lat="43.71401838931042" lon="11.07148246543367"><ele>69.0</ele><time>2026-05-02T07:10:33.917Z</time></trkpt><trkpt lat="43.71421001180339" lon="11.071669277341993"><ele>70.5</ele><time>2026-05-02T07:10:34.917Z</time></trkpt><trkpt lat="43.71440251837218" lon="11.07185654914023"><ele>72.0</ele><time>2026-05-02T07:10:35.917Z</time></trkpt><trkpt lat="43.7145922716836" lon="11.07204401260848"><ele>72.0</ele><time>2026-05-02T07:10:36.917Z</time></trkpt><trkpt lat="43.714782585911124" lon="11.072235940299475"><ele>72.0</ele><time>2026-05-02T07:10:37.917Z</time></trkpt><trkpt lat="43.714971454804626" lon="11.072417330622178"><ele>73.0</ele><time>2026-05-02T07:10:38.917Z</time></trkpt><trkpt lat="43.7151618520665" lon="11.07259613875818"><ele>74.0</ele><time>2026-05-02T07:10:39.917Z</time></trkpt><trkpt lat="43.71535075784101" lon="11.072776059846847"><ele>74.0</ele><time>2026-05-02T07:10:40.917Z</time></trkpt><trkpt lat="43.715531214131296" lon="11.072957784151102"><ele>74.0</ele><time>2026-05-02T07:10:41.917Z</time></trkpt><trkpt lat="43.71571125916136" lon="11.073136291907035"><ele>74.0</ele><time>2026-05-02T07:10:42.917Z</time></trkpt><trkpt lat="43.715889686782376" lon="11.073307127871443"><ele>73.0</ele><time>2026-05-02T07:10:43.917Z</time></trkpt><trkpt lat="43.716070246551084" lon="11.073481963468332"><ele>72.0</ele><time>2026-05-02T07:10:44.917Z</time></trkpt><trkpt lat="43.7162519121178" lon="11.073650800156656"><ele>71.0</ele><time>2026-05-02T07:10:45.917Z</time></trkpt><trkpt lat="43.716434721299784" lon="11.073824477934329"><ele>71.0</ele><time>2026-05-02T07:10:46.917Z</time></trkpt><trkpt lat="43.71661664552279" lon="11.073997029229258"><ele>71.0</ele><time>2026-05-02T07:10:47.917Z</time></trkpt><trkpt lat="43.71679999549654" lon="11.074174032481533"><ele>71.0</ele><time>2026-05-02T07:10:48.917Z</time></trkpt><trkpt lat="43.716985409391846" lon="11.074346140238573"><ele>73.0</ele><time>2026-05-02T07:10:49.917Z</time></trkpt><trkpt lat="43.717175164401816" lon="11.07452889718394"><ele>75.0</ele><time>2026-05-02T07:10:50.917Z</time></trkpt><trkpt lat="43.71736358675328" lon="11.074713909750503"><ele>75.0</ele><time>2026-05-02T07:10:51.917Z</time></trkpt><trkpt lat="43.717557630859254" lon="11.07490507255566"><ele>75.0</ele><time>2026-05-02T07:10:52.917Z</time></trkpt><trkpt lat="43.717751706969366" lon="11.075091188722435"><ele>77.0</ele><time>2026-05-02T07:10:53.917Z</time></trkpt><trkpt lat="43.71794840257274" lon="11.075276428019063"><ele>79.0</ele><time>2026-05-02T07:10:54.917Z</time></trkpt><trkpt lat="43.71814603488345" lon="11.075454457040175"><ele>79.0</ele><time>2026-05-02T07:10:55.917Z</time></trkpt><trkpt lat="43.718345686340086" lon="11.075643623833194"><ele>79.0</ele><time>2026-05-02T07:10:56.917Z</time></trkpt><trkpt lat="43.7185395464205" lon="11.075837791226382"><ele>79.5</ele><time>2026-05-02T07:10:57.916Z</time></trkpt><trkpt lat="43.71873023267118" lon="11.076022948207969"><ele>80.0</ele><time>2026-05-02T07:10:58.916Z</time></trkpt><trkpt lat="43.71892685548079" lon="11.076216425124274"><ele>80.0</ele><time>2026-05-02T07:10:59.916Z</time></trkpt><trkpt lat="43.719115211606145" lon="11.07641037070161"><ele>80.0</ele><time>2026-05-02T07:11:00.916Z</time></trkpt><trkpt lat="43.7193032886083" lon="11.076599006195682"><ele>81.5</ele><time>2026-05-02T07:11:01.916Z</time></trkpt><trkpt lat="43.71948454493133" lon="11.076796872371784"><ele>83.0</ele><time>2026-05-02T07:11:02.918Z</time></trkpt><trkpt lat="43.71966154647242" lon="11.077006565741986"><ele>83.0</ele><time>2026-05-02T07:11:03.918Z</time></trkpt><trkpt lat="43.71983861293709" lon="11.07722349012782"><ele>83.0</ele><time>2026-05-02T07:11:04.918Z</time></trkpt><trkpt lat="43.72000536040735" lon="11.077449651478693"><ele>84.5</ele><time>2026-05-02T07:11:05.918Z</time></trkpt><trkpt lat="43.7201633553482" lon="11.077684840637879"><ele>86.0</ele><time>2026-05-02T07:11:06.917Z</time></trkpt><trkpt lat="43.72030882619838" lon="11.077931743937363"><ele>86.0</ele><time>2026-05-02T07:11:07.917Z</time></trkpt><trkpt lat="43.72045862178092" lon="11.078182444190935"><ele>86.0</ele><time>2026-05-02T07:11:08.918Z</time></trkpt><trkpt lat="43.72059452150132" lon="11.078449949484583"><ele>87.5</ele><time>2026-05-02T07:11:09.917Z</time></trkpt><trkpt lat="43.72071896750113" lon="11.078722404770373"><ele>89.0</ele><time>2026-05-02T07:11:10.917Z</time></trkpt><trkpt lat="43.72083761007408" lon="11.079005100717671"><ele>89.0</ele><time>2026-05-02T07:11:11.918Z</time></trkpt><trkpt lat="43.72095786015661" lon="11.079289623857118"><ele>89.0</ele><time>2026-05-02T07:11:12.917Z</time></trkpt><trkpt lat="43.72108098842773" lon="11.079569014309936"><ele>89.0</ele><time>2026-05-02T07:11:13.917Z</time></trkpt><trkpt lat="43.721208656759124" lon="11.079850270141808"><ele>89.0</ele><time>2026-05-02T07:11:14.918Z</time></trkpt><trkpt lat="43.72133378564255" lon="11.080132540191522"><ele>91.0</ele><time>2026-05-02T07:11:15.918Z</time></trkpt><trkpt lat="43.72146206419863" lon="11.080414151431864"><ele>93.0</ele><time>2026-05-02T07:11:16.918Z</time></trkpt><trkpt lat="43.72159492985555" lon="11.08070016258606"><ele>98.0</ele><time>2026-05-02T07:11:17.918Z</time></trkpt><trkpt lat="43.72172795367705" lon="11.0809840638124"><ele>103.0</ele><time>2026-05-02T07:11:18.918Z</time></trkpt><trkpt lat="43.721862634401674" lon="11.081270427933664"><ele>99.0</ele><time>2026-05-02T07:11:19.918Z</time></trkpt><trkpt lat="43.721996943641436" lon="11.081554215833599"><ele>95.0</ele><time>2026-05-02T07:11:20.918Z</time></trkpt><trkpt lat="43.72212733796304" lon="11.081842186214887"><ele>95.0</ele><time>2026-05-02T07:11:21.917Z</time></trkpt><trkpt lat="43.72225007268324" lon="11.082127821193641"><ele>95.0</ele><time>2026-05-02T07:11:22.917Z</time></trkpt><trkpt lat="43.72237231788385" lon="11.082408997505109"><ele>99.0</ele><time>2026-05-02T07:11:23.917Z</time></trkpt><trkpt lat="43.72249207224783" lon="11.082689314060243"><ele>103.0</ele><time>2026-05-02T07:11:24.917Z</time></trkpt><trkpt lat="43.722611286318866" lon="11.082967495706459"><ele>103.0</ele><time>2026-05-02T07:11:25.917Z</time></trkpt><trkpt lat="43.72272937264808" lon="11.083238990519941"><ele>103.0</ele><time>2026-05-02T07:11:26.917Z</time></trkpt><trkpt lat="43.722853792079725" lon="11.08351723355856"><ele>100.5</ele><time>2026-05-02T07:11:27.917Z</time></trkpt><trkpt lat="43.72297768136932" lon="11.083789811493686"><ele>98.0</ele><time>2026-05-02T07:11:28.917Z</time></trkpt><trkpt lat="43.72309676715959" lon="11.084058505089267"><ele>100.0</ele><time>2026-05-02T07:11:29.917Z</time></trkpt><trkpt lat="43.7232166911093" lon="11.084329710855151"><ele>102.0</ele><time>2026-05-02T07:11:30.917Z</time></trkpt><trkpt lat="43.72334028804232" lon="11.084601488387454"><ele>102.0</ele><time>2026-05-02T07:11:31.917Z</time></trkpt><trkpt lat="43.72346514020244" lon="11.084868611036454"><ele>102.0</ele><time>2026-05-02T07:11:32.917Z</time></trkpt><trkpt lat="43.72358793593771" lon="11.08513285263768"><ele>96.0</ele><time>2026-05-02T07:11:33.917Z</time></trkpt><trkpt lat="43.72383420395349" lon="11.08567144284458"><ele>102.5</ele><time>2026-05-02T07:11:35.917Z</time></trkpt><trkpt lat="43.72395500804766" lon="11.085947527719737"><ele>109.0</ele><time>2026-05-02T07:11:36.917Z</time></trkpt><trkpt lat="43.72406521463029" lon="11.086209906355649"><ele>109.0</ele><time>2026-05-02T07:11:37.917Z</time></trkpt><trkpt lat="43.724185658880856" lon="11.086483354068843"><ele>109.0</ele><time>2026-05-02T07:11:38.917Z</time></trkpt><trkpt lat="43.72430788858257" lon="11.086754330129876"><ele>108.0</ele><time>2026-05-02T07:11:39.917Z</time></trkpt><trkpt lat="43.72442402348542" lon="11.087038359592059"><ele>107.0</ele><time>2026-05-02T07:11:40.917Z</time></trkpt><trkpt lat="43.72454166611086" lon="11.087307293534597"><ele>106.5</ele><time>2026-05-02T07:11:41.917Z</time></trkpt><trkpt lat="43.72465991470045" lon="11.087581593022168"><ele>106.0</ele><time>2026-05-02T07:11:42.917Z</time></trkpt><trkpt lat="43.724787651722636" lon="11.087827990451244"><ele>106.0</ele><time>2026-05-02T07:11:43.917Z</time></trkpt><trkpt lat="43.724902452827116" lon="11.088072130037178"><ele>106.0</ele><time>2026-05-02T07:11:44.917Z</time></trkpt><trkpt lat="43.72501651658412" lon="11.08831939082784"><ele>106.0</ele><time>2026-05-02T07:11:45.917Z</time></trkpt><trkpt lat="43.72512931700268" lon="11.08857231007041"><ele>105.66666666666667</ele><time>2026-05-02T07:11:46.917Z</time></trkpt><trkpt lat="43.72524045317319" lon="11.08882702267717"><ele>105.33333333333334</ele><time>2026-05-02T07:11:47.916Z</time></trkpt><trkpt lat="43.72534873749544" lon="11.089071588903987"><ele>105.0</ele><time>2026-05-02T07:11:48.916Z</time></trkpt><trkpt lat="43.72545764297434" lon="11.089312005261464"><ele>107.0</ele><time>2026-05-02T07:11:49.916Z</time></trkpt><trkpt lat="43.7255699015333" lon="11.089558330350627"><ele>109.0</ele><time>2026-05-02T07:11:50.916Z</time></trkpt><trkpt lat="43.7256852444997" lon="11.089803949782183"><ele>111.0</ele><time>2026-05-02T07:11:51.916Z</time></trkpt><trkpt lat="43.72580053712364" lon="11.090056373314912"><ele>111.66666666666666</ele><time>2026-05-02T07:11:52.916Z</time></trkpt><trkpt lat="43.72592314181865" lon="11.090309337870723"><ele>112.33333333333333</ele><time>2026-05-02T07:11:53.916Z</time></trkpt><trkpt lat="43.72604519622432" lon="11.090572866426651"><ele>113.0</ele><time>2026-05-02T07:11:54.916Z</time></trkpt><trkpt lat="43.72616494393687" lon="11.09083412802858"><ele>113.0</ele><time>2026-05-02T07:11:55.916Z</time></trkpt><trkpt lat="43.726286340337616" lon="11.091096093678585"><ele>113.0</ele><time>2026-05-02T07:11:56.916Z</time></trkpt><trkpt lat="43.72640491243931" lon="11.091363006641194"><ele>114.0</ele><time>2026-05-02T07:11:57.916Z</time></trkpt><trkpt lat="43.726509690324804" lon="11.091638163913514"><ele>115.0</ele><time>2026-05-02T07:11:58.916Z</time></trkpt><trkpt lat="43.72661691477434" lon="11.091904760335368"><ele>116.0</ele><time>2026-05-02T07:11:59.916Z</time></trkpt><trkpt lat="43.72672923430035" lon="11.092169475486815"><ele>118.0</ele><time>2026-05-02T07:12:00.916Z</time></trkpt><trkpt lat="43.726841198486945" lon="11.092433082516852"><ele>120.0</ele><time>2026-05-02T07:12:01.916Z</time></trkpt><trkpt lat="43.72695689598812" lon="11.092696857093417"><ele>122.0</ele><time>2026-05-02T07:12:02.916Z</time></trkpt><trkpt lat="43.72707406092819" lon="11.092957066583896"><ele>122.0</ele><time>2026-05-02T07:12:03.916Z</time></trkpt><trkpt lat="43.727194450768586" lon="11.093221886834206"><ele>122.0</ele><time>2026-05-02T07:12:04.916Z</time></trkpt><trkpt lat="43.72731283648365" lon="11.093490959876497"><ele>124.33333333333333</ele><time>2026-05-02T07:12:05.916Z</time></trkpt><trkpt lat="43.727430610043186" lon="11.093753558076038"><ele>126.66666666666666</ele><time>2026-05-02T07:12:06.916Z</time></trkpt><trkpt lat="43.72755020785083" lon="11.09401562173819"><ele>129.0</ele><time>2026-05-02T07:12:07.916Z</time></trkpt><trkpt lat="43.727668291811675" lon="11.094299378947824"><ele>127.0</ele><time>2026-05-02T07:12:08.916Z</time></trkpt><trkpt lat="43.72778624172586" lon="11.094601986825854"><ele>125.0</ele><time>2026-05-02T07:12:09.916Z</time></trkpt><trkpt lat="43.72788311165695" lon="11.094900208523653"><ele>129.0</ele><time>2026-05-02T07:12:10.916Z</time></trkpt><trkpt lat="43.72798530966765" lon="11.095189568401764"><ele>133.0</ele><time>2026-05-02T07:12:11.916Z</time></trkpt><trkpt lat="43.728111968281176" lon="11.095439081236574"><ele>133.0</ele><time>2026-05-02T07:12:12.915Z</time></trkpt><trkpt lat="43.72823657112884" lon="11.095659041485707"><ele>133.0</ele><time>2026-05-02T07:12:13.915Z</time></trkpt><trkpt lat="43.72836983222434" lon="11.095916728016794"><ele>133.0</ele><time>2026-05-02T07:12:14.915Z</time></trkpt><trkpt lat="43.72849615086824" lon="11.096198765018324"><ele>132.5</ele><time>2026-05-02T07:12:15.915Z</time></trkpt><trkpt lat="43.72861626884025" lon="11.096488923247836"><ele>132.0</ele><time>2026-05-02T07:12:16.915Z</time></trkpt><trkpt lat="43.728708335314906" lon="11.096804629131615"><ele>136.0</ele><time>2026-05-02T07:12:17.915Z</time></trkpt><trkpt lat="43.72885229023003" lon="11.097083782880174"><ele>140.0</ele><time>2026-05-02T07:12:18.915Z</time></trkpt><trkpt lat="43.728972146048605" lon="11.097325270890888"><ele>142.33333333333331</ele><time>2026-05-02T07:12:19.915Z</time></trkpt><trkpt lat="43.72909363294778" lon="11.097556399829783"><ele>144.66666666666666</ele><time>2026-05-02T07:12:20.915Z</time></trkpt><trkpt lat="43.72922335048206" lon="11.097795169896736"><ele>147.0</ele><time>2026-05-02T07:12:21.915Z</time></trkpt><trkpt lat="43.72935482217907" lon="11.09802612910099"><ele>146.0</ele><time>2026-05-02T07:12:22.915Z</time></trkpt><trkpt lat="43.72949479959605" lon="11.098252015951914"><ele>145.0</ele><time>2026-05-02T07:12:23.915Z</time></trkpt><trkpt lat="43.729639644799384" lon="11.098479882923034"><ele>144.0</ele><time>2026-05-02T07:12:24.915Z</time></trkpt><trkpt lat="43.72978196376232" lon="11.098700003712318"><ele>144.0</ele><time>2026-05-02T07:12:25.915Z</time></trkpt><trkpt lat="43.729920707815886" lon="11.098914599926102"><ele>144.0</ele><time>2026-05-02T07:12:26.915Z</time></trkpt><trkpt lat="43.73006778946261" lon="11.099142085466347"><ele>144.0</ele><time>2026-05-02T07:12:27.915Z</time></trkpt><trkpt lat="43.730218960528624" lon="11.0993750028659"><ele>145.0</ele><time>2026-05-02T07:12:28.915Z</time></trkpt><trkpt lat="43.73036281600372" lon="11.099613679944545"><ele>146.0</ele><time>2026-05-02T07:12:29.915Z</time></trkpt><trkpt lat="43.73051800316753" lon="11.099831758969966"><ele>147.0</ele><time>2026-05-02T07:12:30.915Z</time></trkpt><trkpt lat="43.73066897344878" lon="11.100026907817792"><ele>147.0</ele><time>2026-05-02T07:12:31.915Z</time></trkpt><trkpt lat="43.730814272856634" lon="11.10015572390721"><ele>147.0</ele><time>2026-05-02T07:12:32.915Z</time></trkpt><trkpt lat="43.73094639358281" lon="11.100220179798088"><ele>147.0</ele><time>2026-05-02T07:12:33.915Z</time></trkpt><trkpt lat="43.73114925567178" lon="11.100740649494984"><ele>150.0</ele><time>2026-05-02T07:12:34.915Z</time></trkpt><trkpt lat="43.73129797624473" lon="11.100976286477769"><ele>153.0</ele><time>2026-05-02T07:12:35.915Z</time></trkpt><trkpt lat="43.73144151351253" lon="11.101221273766283"><ele>153.0</ele><time>2026-05-02T07:12:36.915Z</time></trkpt><trkpt lat="43.73158629104917" lon="11.1014649613865"><ele>153.0</ele><time>2026-05-02T07:12:37.915Z</time></trkpt><trkpt lat="43.73172783406055" lon="11.101705019437988"><ele>153.0</ele><time>2026-05-02T07:12:38.914Z</time></trkpt><trkpt lat="43.73186520552521" lon="11.101956299913146"><ele>153.0</ele><time>2026-05-02T07:12:39.914Z</time></trkpt><trkpt lat="43.73199909792681" lon="11.102202533842235"><ele>157.5</ele><time>2026-05-02T07:12:40.914Z</time></trkpt><trkpt lat="43.732132996456144" lon="11.102459018752832"><ele>162.0</ele><time>2026-05-02T07:12:41.914Z</time></trkpt><trkpt lat="43.73226595038689" lon="11.102717682422094"><ele>162.0</ele><time>2026-05-02T07:12:42.914Z</time></trkpt><trkpt lat="43.732405617666515" lon="11.102975492244022"><ele>162.0</ele><time>2026-05-02T07:12:43.914Z</time></trkpt><trkpt lat="43.73253421482855" lon="11.103239224093102"><ele>161.0</ele><time>2026-05-02T07:12:44.914Z</time></trkpt><trkpt lat="43.732663535486374" lon="11.103506987413702"><ele>160.0</ele><time>2026-05-02T07:12:45.914Z</time></trkpt><trkpt lat="43.732796250707" lon="11.103767673788067"><ele>162.5</ele><time>2026-05-02T07:12:46.914Z</time></trkpt><trkpt lat="43.73292949607739" lon="11.104026432498765"><ele>165.0</ele><time>2026-05-02T07:12:47.914Z</time></trkpt><trkpt lat="43.73306925289637" lon="11.104282801023809"><ele>165.0</ele><time>2026-05-02T07:12:48.914Z</time></trkpt><trkpt lat="43.73321576641331" lon="11.10452871245366"><ele>165.0</ele><time>2026-05-02T07:12:49.914Z</time></trkpt><trkpt lat="43.73337385865774" lon="11.104768630303004"><ele>166.0</ele><time>2026-05-02T07:12:50.914Z</time></trkpt><trkpt lat="43.733537758471584" lon="11.104995014570328"><ele>167.0</ele><time>2026-05-02T07:12:51.914Z</time></trkpt><trkpt lat="43.733714759247995" lon="11.10521012250314"><ele>167.0</ele><time>2026-05-02T07:12:52.914Z</time></trkpt><trkpt lat="43.73389591661691" lon="11.105412392018389"><ele>167.0</ele><time>2026-05-02T07:12:53.914Z</time></trkpt><trkpt lat="43.73408907415727" lon="11.105599449564462"><ele>162.0</ele><time>2026-05-02T07:12:54.914Z</time></trkpt><trkpt lat="43.734283459221395" lon="11.105780681178873"><ele>157.0</ele><time>2026-05-02T07:12:55.914Z</time></trkpt><trkpt lat="43.734482259727855" lon="11.105947087241622"><ele>157.0</ele><time>2026-05-02T07:12:56.914Z</time></trkpt><trkpt lat="43.73468331690257" lon="11.106111761319498"><ele>157.0</ele><time>2026-05-02T07:12:57.914Z</time></trkpt><trkpt lat="43.734910141471126" lon="11.106248693286236"><ele>157.0</ele><time>2026-05-02T07:12:58.914Z</time></trkpt><trkpt lat="43.73511546035266" lon="11.106410564897025"><ele>157.0</ele><time>2026-05-02T07:12:59.914Z</time></trkpt><trkpt lat="43.735317982338" lon="11.106571289228864"><ele>155.0</ele><time>2026-05-02T07:13:00.914Z</time></trkpt><trkpt lat="43.735523809360394" lon="11.106745737592831"><ele>153.0</ele><time>2026-05-02T07:13:01.914Z</time></trkpt><trkpt lat="43.735727091937726" lon="11.106923823311947"><ele>153.0</ele><time>2026-05-02T07:13:02.914Z</time></trkpt><trkpt lat="43.73592427008283" lon="11.107098993863575"><ele>153.0</ele><time>2026-05-02T07:13:03.914Z</time></trkpt><trkpt lat="43.73612147853296" lon="11.107282623502662"><ele>153.0</ele><time>2026-05-02T07:13:04.913Z</time></trkpt><trkpt lat="43.73631327042622" lon="11.10747657193729"><ele>153.0</ele><time>2026-05-02T07:13:05.913Z</time></trkpt><trkpt lat="43.73649602027076" lon="11.107698423367346"><ele>153.0</ele><time>2026-05-02T07:13:06.913Z</time></trkpt><trkpt lat="43.73666547230092" lon="11.107912817203765"><ele>153.0</ele><time>2026-05-02T07:13:07.913Z</time></trkpt><trkpt lat="43.736813755852346" lon="11.10818360910216"><ele>151.0</ele><time>2026-05-02T07:13:08.915Z</time></trkpt><trkpt lat="43.73696598529124" lon="11.108437684780364"><ele>149.0</ele><time>2026-05-02T07:13:09.915Z</time></trkpt><trkpt lat="43.73711386348076" lon="11.10869638404774"><ele>149.0</ele><time>2026-05-02T07:13:10.915Z</time></trkpt><trkpt lat="43.73726061256265" lon="11.108958602160435"><ele>149.0</ele><time>2026-05-02T07:13:11.915Z</time></trkpt><trkpt lat="43.73740588659933" lon="11.109220507499465"><ele>147.0</ele><time>2026-05-02T07:13:12.915Z</time></trkpt><trkpt lat="43.7375528211687" lon="11.109485877830314"><ele>145.0</ele><time>2026-05-02T07:13:13.914Z</time></trkpt><trkpt lat="43.73770374464709" lon="11.109744931160387"><ele>145.0</ele><time>2026-05-02T07:13:14.915Z</time></trkpt><trkpt lat="43.73785221342329" lon="11.110005707235798"><ele>145.0</ele><time>2026-05-02T07:13:15.915Z</time></trkpt><trkpt lat="43.738001165222805" lon="11.110267644791433"><ele>145.0</ele><time>2026-05-02T07:13:16.915Z</time></trkpt><trkpt lat="43.73814835518457" lon="11.1105281035467"><ele>145.0</ele><time>2026-05-02T07:13:17.915Z</time></trkpt><trkpt lat="43.73829608500568" lon="11.110791191699542"><ele>145.5</ele><time>2026-05-02T07:13:18.915Z</time></trkpt><trkpt lat="43.7384409648379" lon="11.111050391065167"><ele>146.0</ele><time>2026-05-02T07:13:19.915Z</time></trkpt><trkpt lat="43.738585267708835" lon="11.111308850199107"><ele>150.0</ele><time>2026-05-02T07:13:20.914Z</time></trkpt><trkpt lat="43.738729418390214" lon="11.111563050656356"><ele>154.0</ele><time>2026-05-02T07:13:21.914Z</time></trkpt><trkpt lat="43.73887446560797" lon="11.111822308322143"><ele>154.0</ele><time>2026-05-02T07:13:22.914Z</time></trkpt><trkpt lat="43.739020410141165" lon="11.11208569302751"><ele>154.0</ele><time>2026-05-02T07:13:23.914Z</time></trkpt><trkpt lat="43.73916521915108" lon="11.112329019113597"><ele>156.5</ele><time>2026-05-02T07:13:24.914Z</time></trkpt><trkpt lat="43.739308927732544" lon="11.11257520583585"><ele>159.0</ele><time>2026-05-02T07:13:25.914Z</time></trkpt><trkpt lat="43.73944508549975" lon="11.112825609995221"><ele>159.0</ele><time>2026-05-02T07:13:26.914Z</time></trkpt><trkpt lat="43.73957623953086" lon="11.11307109784462"><ele>159.0</ele><time>2026-05-02T07:13:27.914Z</time></trkpt><trkpt lat="43.73971472608547" lon="11.113296043889282"><ele>159.0</ele><time>2026-05-02T07:13:28.914Z</time></trkpt><trkpt lat="43.73985770188585" lon="11.113527896937583"><ele>159.66666666666666</ele><time>2026-05-02T07:13:29.914Z</time></trkpt><trkpt lat="43.73999076001965" lon="11.113754643501643"><ele>160.33333333333331</ele><time>2026-05-02T07:13:30.914Z</time></trkpt><trkpt lat="43.7401188636061" lon="11.11398197516489"><ele>161.0</ele><time>2026-05-02T07:13:31.914Z</time></trkpt><trkpt lat="43.74024969782281" lon="11.114206849210008"><ele>161.0</ele><time>2026-05-02T07:13:32.914Z</time></trkpt><trkpt lat="43.74037167670239" lon="11.114432710816018"><ele>161.0</ele><time>2026-05-02T07:13:33.914Z</time></trkpt><trkpt lat="43.74049506620365" lon="11.114652258526675"><ele>161.0</ele><time>2026-05-02T07:13:34.914Z</time></trkpt><trkpt lat="43.74062091674855" lon="11.114872070115437"><ele>159.0</ele><time>2026-05-02T07:13:35.914Z</time></trkpt><trkpt lat="43.740750118817" lon="11.115097653151146"><ele>157.0</ele><time>2026-05-02T07:13:36.914Z</time></trkpt><trkpt lat="43.74088774685266" lon="11.115325335364412"><ele>155.0</ele><time>2026-05-02T07:13:37.914Z</time></trkpt><trkpt lat="43.741028416800056" lon="11.115554172062993"><ele>155.0</ele><time>2026-05-02T07:13:38.914Z</time></trkpt><trkpt lat="43.741175374658106" lon="11.115766988158388"><ele>155.0</ele><time>2026-05-02T07:13:39.913Z</time></trkpt><trkpt lat="43.741318569665694" lon="11.11597383257594"><ele>155.0</ele><time>2026-05-02T07:13:40.913Z</time></trkpt><trkpt lat="43.74147308422078" lon="11.116169319428261"><ele>155.0</ele><time>2026-05-02T07:13:41.913Z</time></trkpt><trkpt lat="43.741633253142005" lon="11.11635997903737"><ele>155.0</ele><time>2026-05-02T07:13:42.913Z</time></trkpt><trkpt lat="43.74180163835432" lon="11.116554081317384"><ele>155.0</ele><time>2026-05-02T07:13:43.913Z</time></trkpt><trkpt lat="43.74197419952336" lon="11.116766039806132"><ele>155.0</ele><time>2026-05-02T07:13:44.913Z</time></trkpt><trkpt lat="43.74214724984161" lon="11.116994692225685"><ele>155.0</ele><time>2026-05-02T07:13:45.913Z</time></trkpt><trkpt lat="43.7423158350217" lon="11.117226291181598"><ele>153.5</ele><time>2026-05-02T07:13:46.913Z</time></trkpt><trkpt lat="43.74248939517486" lon="11.117456335265384"><ele>152.0</ele><time>2026-05-02T07:13:47.913Z</time></trkpt><trkpt lat="43.74266279785454" lon="11.117683246678318"><ele>152.5</ele><time>2026-05-02T07:13:48.913Z</time></trkpt><trkpt lat="43.742837387294394" lon="11.117916337985056"><ele>153.0</ele><time>2026-05-02T07:13:49.913Z</time></trkpt><trkpt lat="43.74301038279655" lon="11.118150149775376"><ele>150.0</ele><time>2026-05-02T07:13:50.913Z</time></trkpt><trkpt lat="43.74318345790331" lon="11.118386675934323"><ele>147.0</ele><time>2026-05-02T07:13:51.913Z</time></trkpt><trkpt lat="43.743358176900095" lon="11.118615022033813"><ele>147.0</ele><time>2026-05-02T07:13:52.913Z</time></trkpt><trkpt lat="43.74353569954354" lon="11.11883637471905"><ele>147.0</ele><time>2026-05-02T07:13:53.913Z</time></trkpt><trkpt lat="43.743721741630054" lon="11.11904013146526"><ele>144.5</ele><time>2026-05-02T07:13:54.913Z</time></trkpt><trkpt lat="43.74391279351378" lon="11.119235179376957"><ele>142.0</ele><time>2026-05-02T07:13:55.913Z</time></trkpt><trkpt lat="43.744114621853846" lon="11.11941309652675"><ele>142.0</ele><time>2026-05-02T07:13:56.913Z</time></trkpt><trkpt lat="43.744320097806856" lon="11.119590345508325"><ele>142.0</ele><time>2026-05-02T07:13:57.913Z</time></trkpt><trkpt lat="43.74453254091243" lon="11.119751149431726"><ele>137.5</ele><time>2026-05-02T07:13:58.913Z</time></trkpt><trkpt lat="43.74474649885621" lon="11.119901798737573"><ele>133.0</ele><time>2026-05-02T07:13:59.913Z</time></trkpt><trkpt lat="43.744958083893565" lon="11.12004130708115"><ele>133.0</ele><time>2026-05-02T07:14:00.913Z</time></trkpt><trkpt lat="43.74517851741619" lon="11.120166120630937"><ele>133.0</ele><time>2026-05-02T07:14:01.913Z</time></trkpt><trkpt lat="43.74539689274596" lon="11.120279947059997"><ele>127.5</ele><time>2026-05-02T07:14:02.913Z</time></trkpt><trkpt lat="43.74561318882176" lon="11.120379885671811"><ele>122.0</ele><time>2026-05-02T07:14:03.913Z</time></trkpt><trkpt lat="43.745835116171435" lon="11.120469664726443"><ele>122.5</ele><time>2026-05-02T07:14:04.912Z</time></trkpt><trkpt lat="43.746063415304704" lon="11.120543452910836"><ele>123.0</ele><time>2026-05-02T07:14:05.912Z</time></trkpt><trkpt lat="43.746285785311976" lon="11.120618639216683"><ele>123.0</ele><time>2026-05-02T07:14:06.912Z</time></trkpt><trkpt lat="43.74650906460454" lon="11.120698695780526"><ele>123.0</ele><time>2026-05-02T07:14:07.912Z</time></trkpt><trkpt lat="43.74672676852622" lon="11.12078202609066"><ele>125.0</ele><time>2026-05-02T07:14:08.912Z</time></trkpt><trkpt lat="43.746947630593596" lon="11.120879170189262"><ele>127.0</ele><time>2026-05-02T07:14:09.912Z</time></trkpt><trkpt lat="43.74715331674389" lon="11.120967386018494"><ele>129.0</ele><time>2026-05-02T07:14:10.912Z</time></trkpt><trkpt lat="43.74735503978476" lon="11.121066691082547"><ele>129.0</ele><time>2026-05-02T07:14:11.912Z</time></trkpt><trkpt lat="43.74755336834872" lon="11.121176095073196"><ele>129.0</ele><time>2026-05-02T07:14:12.912Z</time></trkpt><trkpt lat="43.74774949467251" lon="11.121301526787608"><ele>129.0</ele><time>2026-05-02T07:14:13.912Z</time></trkpt><trkpt lat="43.74793486679648" lon="11.121439411393444"><ele>126.66666666666666</ele><time>2026-05-02T07:14:14.912Z</time></trkpt><trkpt lat="43.7481099714496" lon="11.12158606028258"><ele>124.33333333333333</ele><time>2026-05-02T07:14:15.912Z</time></trkpt><trkpt lat="43.7482778343042" lon="11.121726172880242"><ele>122.0</ele><time>2026-05-02T07:14:16.912Z</time></trkpt><trkpt lat="43.74843802767473" lon="11.12186559066272"><ele>122.33333333333333</ele><time>2026-05-02T07:14:17.912Z</time></trkpt><trkpt lat="43.748598437517195" lon="11.122009630851267"><ele>122.66666666666666</ele><time>2026-05-02T07:14:18.912Z</time></trkpt><trkpt lat="43.7487734130233" lon="11.122162103197674"><ele>123.0</ele><time>2026-05-02T07:14:19.912Z</time></trkpt><trkpt lat="43.74895078017451" lon="11.122318104481993"><ele>119.66666666666666</ele><time>2026-05-02T07:14:20.912Z</time></trkpt><trkpt lat="43.74913362419564" lon="11.122481815670662"><ele>116.33333333333333</ele><time>2026-05-02T07:14:21.912Z</time></trkpt><trkpt lat="43.74932071662363" lon="11.122651118800793"><ele>113.0</ele><time>2026-05-02T07:14:22.912Z</time></trkpt><trkpt lat="43.74951268539291" lon="11.1228230867112"><ele>113.0</ele><time>2026-05-02T07:14:23.912Z</time></trkpt><trkpt lat="43.74970460269274" lon="11.122996188563832"><ele>113.0</ele><time>2026-05-02T07:14:24.912Z</time></trkpt><trkpt lat="43.74989838330914" lon="11.123170274632576"><ele>111.5</ele><time>2026-05-02T07:14:25.912Z</time></trkpt><trkpt lat="43.75009254188557" lon="11.123352671656377"><ele>110.0</ele><time>2026-05-02T07:14:26.912Z</time></trkpt><trkpt lat="43.75028654867832" lon="11.123539943986199"><ele>110.0</ele><time>2026-05-02T07:14:27.912Z</time></trkpt><trkpt lat="43.750481393525554" lon="11.123731718972575"><ele>110.0</ele><time>2026-05-02T07:14:28.912Z</time></trkpt><trkpt lat="43.75067748268473" lon="11.12392288384401"><ele>110.0</ele><time>2026-05-02T07:14:29.912Z</time></trkpt><trkpt lat="43.750879893921585" lon="11.124099751637386"><ele>110.0</ele><time>2026-05-02T07:14:30.911Z</time></trkpt><trkpt lat="43.75107899839601" lon="11.124272018470501"><ele>110.0</ele><time>2026-05-02T07:14:31.911Z</time></trkpt><trkpt lat="43.751280192447524" lon="11.124447048356794"><ele>110.0</ele><time>2026-05-02T07:14:32.911Z</time></trkpt><trkpt lat="43.751478119937126" lon="11.124625978540298"><ele>110.0</ele><time>2026-05-02T07:14:33.911Z</time></trkpt><trkpt lat="43.7516765561381" lon="11.12480066096188"><ele>110.0</ele><time>2026-05-02T07:14:34.911Z</time></trkpt><trkpt lat="43.75187580044293" lon="11.12497662163138"><ele>105.0</ele><time>2026-05-02T07:14:35.911Z</time></trkpt><trkpt lat="43.75207878148234" lon="11.125149729241288"><ele>100.0</ele><time>2026-05-02T07:14:36.911Z</time></trkpt><trkpt lat="43.752276302730884" lon="11.1253269358043"><ele>100.0</ele><time>2026-05-02T07:14:37.911Z</time></trkpt><trkpt lat="43.752476418385" lon="11.125501464578639"><ele>100.0</ele><time>2026-05-02T07:14:38.911Z</time></trkpt><trkpt lat="43.75268174294647" lon="11.12566916572427"><ele>96.0</ele><time>2026-05-02T07:14:39.911Z</time></trkpt><trkpt lat="43.75289291406192" lon="11.125821749480867"><ele>92.0</ele><time>2026-05-02T07:14:40.911Z</time></trkpt><trkpt lat="43.75311043231563" lon="11.125965936779744"><ele>92.0</ele><time>2026-05-02T07:14:41.911Z</time></trkpt><trkpt lat="43.753328677103546" lon="11.126099626124855"><ele>92.0</ele><time>2026-05-02T07:14:42.911Z</time></trkpt><trkpt lat="43.75355515852034" lon="11.126211182599905"><ele>93.0</ele><time>2026-05-02T07:14:43.911Z</time></trkpt><trkpt lat="43.75378575562872" lon="11.126307361778078"><ele>94.0</ele><time>2026-05-02T07:14:44.911Z</time></trkpt><trkpt lat="43.754020697402275" lon="11.12637817305016"><ele>94.0</ele><time>2026-05-02T07:14:45.911Z</time></trkpt><trkpt lat="43.754258734656894" lon="11.126434224691375"><ele>94.0</ele><time>2026-05-02T07:14:46.911Z</time></trkpt><trkpt lat="43.75450061382775" lon="11.12647378176775"><ele>92.5</ele><time>2026-05-02T07:14:47.911Z</time></trkpt><trkpt lat="43.75474183726435" lon="11.126499569612953"><ele>91.0</ele><time>2026-05-02T07:14:48.911Z</time></trkpt><trkpt lat="43.75498641937261" lon="11.126524527467424"><ele>91.0</ele><time>2026-05-02T07:14:49.911Z</time></trkpt><trkpt lat="43.755229590385895" lon="11.126554050407663"><ele>91.0</ele><time>2026-05-02T07:14:50.911Z</time></trkpt><trkpt lat="43.75546814082328" lon="11.12657961547777"><ele>82.0</ele><time>2026-05-02T07:14:51.911Z</time></trkpt><trkpt lat="43.75570972862176" lon="11.126612062270748"><ele>73.0</ele><time>2026-05-02T07:14:52.911Z</time></trkpt><trkpt lat="43.75595218825067" lon="11.126639064012425"><ele>72.5</ele><time>2026-05-02T07:14:53.911Z</time></trkpt><trkpt lat="43.7561927556489" lon="11.126664001645814"><ele>72.0</ele><time>2026-05-02T07:14:54.911Z</time></trkpt><trkpt lat="43.75643221861417" lon="11.126689290488901"><ele>72.0</ele><time>2026-05-02T07:14:55.91Z</time></trkpt><trkpt lat="43.75666889708004" lon="11.12671877318466"><ele>72.0</ele><time>2026-05-02T07:14:56.91Z</time></trkpt><trkpt lat="43.756903050494735" lon="11.12675092859927"><ele>74.0</ele><time>2026-05-02T07:14:57.91Z</time></trkpt><trkpt lat="43.75714329981013" lon="11.126780046662395"><ele>76.0</ele><time>2026-05-02T07:14:58.91Z</time></trkpt><trkpt lat="43.757374083926805" lon="11.126821370485334"><ele>76.0</ele><time>2026-05-02T07:14:59.91Z</time></trkpt><trkpt lat="43.757605244779036" lon="11.126877170995565"><ele>76.0</ele><time>2026-05-02T07:15:00.91Z</time></trkpt><trkpt lat="43.75783754759814" lon="11.12695636416619"><ele>77.0</ele><time>2026-05-02T07:15:01.91Z</time></trkpt><trkpt lat="43.758065708260375" lon="11.12706174375342"><ele>78.0</ele><time>2026-05-02T07:15:02.91Z</time></trkpt><trkpt lat="43.758287028421066" lon="11.12717778787112"><ele>78.0</ele><time>2026-05-02T07:15:03.91Z</time></trkpt><trkpt lat="43.75850902593613" lon="11.127294191236036"><ele>78.0</ele><time>2026-05-02T07:15:04.91Z</time></trkpt><trkpt lat="43.75873574989801" lon="11.127406629212194"><ele>72.0</ele><time>2026-05-02T07:15:05.91Z</time></trkpt><trkpt lat="43.75896284506887" lon="11.127512106814695"><ele>66.0</ele><time>2026-05-02T07:15:06.91Z</time></trkpt><trkpt lat="43.75918887053592" lon="11.127614673168845"><ele>65.0</ele><time>2026-05-02T07:15:07.91Z</time></trkpt><trkpt lat="43.75942173303337" lon="11.12769662756907"><ele>64.0</ele><time>2026-05-02T07:15:08.91Z</time></trkpt><trkpt lat="43.759659039817585" lon="11.127763413956009"><ele>64.0</ele><time>2026-05-02T07:15:09.91Z</time></trkpt><trkpt lat="43.759895238348236" lon="11.127818604391868"><ele>64.0</ele><time>2026-05-02T07:15:10.91Z</time></trkpt><trkpt lat="43.76013148201487" lon="11.127854714393049"><ele>61.0</ele><time>2026-05-02T07:15:11.91Z</time></trkpt><trkpt lat="43.76036991262146" lon="11.127868809012806"><ele>58.0</ele><time>2026-05-02T07:15:12.91Z</time></trkpt><trkpt lat="43.76061290417281" lon="11.127867514767264"><ele>58.0</ele><time>2026-05-02T07:15:13.912Z</time></trkpt><trkpt lat="43.7608500910205" lon="11.127858351820928"><ele>58.0</ele><time>2026-05-02T07:15:14.912Z</time></trkpt><trkpt lat="43.76108881238703" lon="11.127822942110065"><ele>55.5</ele><time>2026-05-02T07:15:15.912Z</time></trkpt><trkpt lat="43.76133080530376" lon="11.12777018014205"><ele>53.0</ele><time>2026-05-02T07:15:16.912Z</time></trkpt><trkpt lat="43.76156838349911" lon="11.127701033676006"><ele>53.0</ele><time>2026-05-02T07:15:17.912Z</time></trkpt><trkpt lat="43.761801202934414" lon="11.127611821623859"><ele>53.0</ele><time>2026-05-02T07:15:18.912Z</time></trkpt><trkpt lat="43.762027986523044" lon="11.127505078781535"><ele>54.0</ele><time>2026-05-02T07:15:19.912Z</time></trkpt><trkpt lat="43.76225155961192" lon="11.127388299782398"><ele>55.0</ele><time>2026-05-02T07:15:20.912Z</time></trkpt><trkpt lat="43.76247656609692" lon="11.127266246622664"><ele>55.0</ele><time>2026-05-02T07:15:21.912Z</time></trkpt><trkpt lat="43.76269719346407" lon="11.127138079061341"><ele>55.0</ele><time>2026-05-02T07:15:22.911Z</time></trkpt><trkpt lat="43.7629207206473" lon="11.12700553461549"><ele>52.0</ele><time>2026-05-02T07:15:23.911Z</time></trkpt><trkpt lat="43.76314474655249" lon="11.1268680368328"><ele>49.0</ele><time>2026-05-02T07:15:24.911Z</time></trkpt><trkpt lat="43.76336775554269" lon="11.126736733046009"><ele>47.0</ele><time>2026-05-02T07:15:25.912Z</time></trkpt><trkpt lat="43.76358374996419" lon="11.126611777937097"><ele>45.0</ele><time>2026-05-02T07:15:26.912Z</time></trkpt><trkpt lat="43.763793457855186" lon="11.126486029734563"><ele>45.0</ele><time>2026-05-02T07:15:27.912Z</time></trkpt><trkpt lat="43.764004660161355" lon="11.126361452869876"><ele>45.0</ele><time>2026-05-02T07:15:28.912Z</time></trkpt><trkpt lat="43.76421591080591" lon="11.126239080699238"><ele>43.0</ele><time>2026-05-02T07:15:29.912Z</time></trkpt><trkpt lat="43.76442692819419" lon="11.126129112989219"><ele>41.0</ele><time>2026-05-02T07:15:30.912Z</time></trkpt><trkpt lat="43.76464615370489" lon="11.12602913760864"><ele>41.0</ele><time>2026-05-02T07:15:31.911Z</time></trkpt><trkpt lat="43.764910287659916" lon="11.12594931899229"><ele>41.0</ele><time>2026-05-02T07:15:32.911Z</time></trkpt><trkpt lat="43.76517854210202" lon="11.125909357159493"><ele>40.666666666666664</ele><time>2026-05-02T07:15:33.911Z</time></trkpt><trkpt lat="43.765427899471376" lon="11.12584731720557"><ele>40.333333333333336</ele><time>2026-05-02T07:15:34.911Z</time></trkpt><trkpt lat="43.76558438440425" lon="11.125747192116172"><ele>40.0</ele><time>2026-05-02T07:15:35.911Z</time></trkpt><trkpt lat="43.76580646084074" lon="11.125714829663746"><ele>40.0</ele><time>2026-05-02T07:15:36.911Z</time></trkpt><trkpt lat="43.76603573399932" lon="11.125705695595249"><ele>40.0</ele><time>2026-05-02T07:15:37.911Z</time></trkpt><trkpt lat="43.76627067064021" lon="11.125719932091222"><ele>40.0</ele><time>2026-05-02T07:15:38.911Z</time></trkpt><trkpt lat="43.76650825112169" lon="11.125749924500733"><ele>40.0</ele><time>2026-05-02T07:15:39.911Z</time></trkpt><trkpt lat="43.76674130138593" lon="11.125789413692203"><ele>38.5</ele><time>2026-05-02T07:15:40.911Z</time></trkpt><trkpt lat="43.76697397877378" lon="11.125842962839325"><ele>37.0</ele><time>2026-05-02T07:15:41.911Z</time></trkpt><trkpt lat="43.767200628775214" lon="11.125911528694687"><ele>37.0</ele><time>2026-05-02T07:15:42.911Z</time></trkpt><trkpt lat="43.76742437308866" lon="11.125990233372045"><ele>37.0</ele><time>2026-05-02T07:15:43.911Z</time></trkpt><trkpt lat="43.7676491584436" lon="11.126068714336736"><ele>36.5</ele><time>2026-05-02T07:15:44.911Z</time></trkpt><trkpt lat="43.76787433293382" lon="11.126145880446371"><ele>36.0</ele><time>2026-05-02T07:15:45.911Z</time></trkpt><trkpt lat="43.76809992430834" lon="11.126210175971865"><ele>36.0</ele><time>2026-05-02T07:15:46.911Z</time></trkpt><trkpt lat="43.76832941512286" lon="11.126273313102311"><ele>36.0</ele><time>2026-05-02T07:15:47.911Z</time></trkpt><trkpt lat="43.76855678546159" lon="11.126341828403966"><ele>35.5</ele><time>2026-05-02T07:15:48.911Z</time></trkpt><trkpt lat="43.768778411649805" lon="11.126410810071063"><ele>35.0</ele><time>2026-05-02T07:15:49.911Z</time></trkpt><trkpt lat="43.769001693361226" lon="11.12648538759406"><ele>35.0</ele><time>2026-05-02T07:15:50.911Z</time></trkpt><trkpt lat="43.76922328744228" lon="11.126545609624847"><ele>35.0</ele><time>2026-05-02T07:15:51.911Z</time></trkpt><trkpt lat="43.76944872397181" lon="11.126606340705376"><ele>36.5</ele><time>2026-05-02T07:15:52.911Z</time></trkpt><trkpt lat="43.76967994897686" lon="11.126684499755873"><ele>38.0</ele><time>2026-05-02T07:15:53.911Z</time></trkpt><trkpt lat="43.76990458070528" lon="11.126769761298249"><ele>38.0</ele><time>2026-05-02T07:15:54.911Z</time></trkpt><trkpt lat="43.770113795194185" lon="11.126860057973841"><ele>38.0</ele><time>2026-05-02T07:15:55.911Z</time></trkpt><trkpt lat="43.77033264186217" lon="11.126967858691792"><ele>38.5</ele><time>2026-05-02T07:15:56.911Z</time></trkpt><trkpt lat="43.77054689790373" lon="11.127080760160881"><ele>39.0</ele><time>2026-05-02T07:15:57.91Z</time></trkpt><trkpt lat="43.77075389479501" lon="11.127202757410423"><ele>39.0</ele><time>2026-05-02T07:15:58.91Z</time></trkpt><trkpt lat="43.77095107901258" lon="11.12734487492365"><ele>39.0</ele><time>2026-05-02T07:15:59.91Z</time></trkpt><trkpt lat="43.771141824252275" lon="11.127505709849284"><ele>39.0</ele><time>2026-05-02T07:16:00.91Z</time></trkpt><trkpt lat="43.77132166337017" lon="11.127680653363761"><ele>38.333333333333336</ele><time>2026-05-02T07:16:01.91Z</time></trkpt><trkpt lat="43.77150160748692" lon="11.127860721816848"><ele>37.66666666666667</ele><time>2026-05-02T07:16:02.91Z</time></trkpt><trkpt lat="43.77167737268603" lon="11.128055479546402"><ele>37.0</ele><time>2026-05-02T07:16:03.91Z</time></trkpt><trkpt lat="43.7718441634455" lon="11.128266615284293"><ele>36.5</ele><time>2026-05-02T07:16:04.91Z</time></trkpt><trkpt lat="43.772004766882056" lon="11.128488509931264"><ele>36.0</ele><time>2026-05-02T07:16:05.91Z</time></trkpt><trkpt lat="43.77215657752418" lon="11.128718694216742"><ele>36.0</ele><time>2026-05-02T07:16:06.91Z</time></trkpt><trkpt lat="43.772300395797174" lon="11.12896175344432"><ele>36.0</ele><time>2026-05-02T07:16:07.91Z</time></trkpt><trkpt lat="43.77243277806666" lon="11.129217011825135"><ele>36.0</ele><time>2026-05-02T07:16:08.91Z</time></trkpt><trkpt lat="43.772551281842404" lon="11.129479531317621"><ele>36.0</ele><time>2026-05-02T07:16:09.91Z</time></trkpt><trkpt lat="43.77266187213295" lon="11.129748417941492"><ele>36.0</ele><time>2026-05-02T07:16:10.91Z</time></trkpt><trkpt lat="43.77276138959275" lon="11.130016577913219"><ele>35.333333333333336</ele><time>2026-05-02T07:16:11.91Z</time></trkpt><trkpt lat="43.7728486791074" lon="11.13029009551018"><ele>34.66666666666667</ele><time>2026-05-02T07:16:12.91Z</time></trkpt><trkpt lat="43.77292536919357" lon="11.130565021159445"><ele>34.0</ele><time>2026-05-02T07:16:13.91Z</time></trkpt><trkpt lat="43.77298989991053" lon="11.13084673106652"><ele>34.0</ele><time>2026-05-02T07:16:14.91Z</time></trkpt><trkpt lat="43.773046941673634" lon="11.131133329784172"><ele>34.0</ele><time>2026-05-02T07:16:15.91Z</time></trkpt><trkpt lat="43.77309530031928" lon="11.13142006027159"><ele>34.0</ele><time>2026-05-02T07:16:16.91Z</time></trkpt><trkpt lat="43.773137472539446" lon="11.131704927787245"><ele>34.333333333333336</ele><time>2026-05-02T07:16:17.91Z</time></trkpt><trkpt lat="43.77314352372552" lon="11.131998951817772"><ele>34.666666666666664</ele><time>2026-05-02T07:16:18.91Z</time></trkpt><trkpt lat="43.77316433794738" lon="11.132278948018493"><ele>35.0</ele><time>2026-05-02T07:16:19.91Z</time></trkpt><trkpt lat="43.77318135420494" lon="11.132556566064586"><ele>35.33333333333333</ele><time>2026-05-02T07:16:20.91Z</time></trkpt><trkpt lat="43.77320459824052" lon="11.132831685883758"><ele>35.666666666666664</ele><time>2026-05-02T07:16:21.91Z</time></trkpt><trkpt lat="43.77322549337383" lon="11.133105595693939"><ele>36.0</ele><time>2026-05-02T07:16:22.909Z</time></trkpt><trkpt lat="43.77325653276124" lon="11.133392611154761"><ele>36.333333333333336</ele><time>2026-05-02T07:16:23.909Z</time></trkpt><trkpt lat="43.77329471820779" lon="11.133686533638082"><ele>36.66666666666667</ele><time>2026-05-02T07:16:24.909Z</time></trkpt><trkpt lat="43.773321014220215" lon="11.133981527874205"><ele>37.0</ele><time>2026-05-02T07:16:25.909Z</time></trkpt><trkpt lat="43.773339565513695" lon="11.134276884026537"><ele>37.0</ele><time>2026-05-02T07:16:26.909Z</time></trkpt><trkpt lat="43.77335542212057" lon="11.134578720730973"><ele>37.0</ele><time>2026-05-02T07:16:27.909Z</time></trkpt><trkpt lat="43.77337542321481" lon="11.134888139189583"><ele>37.0</ele><time>2026-05-02T07:16:28.909Z</time></trkpt><trkpt lat="43.773393577336265" lon="11.135200828275355"><ele>36.0</ele><time>2026-05-02T07:16:29.909Z</time></trkpt><trkpt lat="43.77340353898317" lon="11.135518836726828"><ele>35.0</ele><time>2026-05-02T07:16:30.909Z</time></trkpt><trkpt lat="43.77341759984041" lon="11.135834911531946"><ele>35.0</ele><time>2026-05-02T07:16:31.909Z</time></trkpt><trkpt lat="43.77343715649519" lon="11.13615620924501"><ele>35.0</ele><time>2026-05-02T07:16:32.909Z</time></trkpt><trkpt lat="43.773461061736555" lon="11.136475351763725"><ele>35.0</ele><time>2026-05-02T07:16:33.909Z</time></trkpt><trkpt lat="43.77348701443154" lon="11.136794485721198"><ele>35.0</ele><time>2026-05-02T07:16:34.909Z</time></trkpt><trkpt lat="43.77351562110397" lon="11.137117394957576"><ele>35.0</ele><time>2026-05-02T07:16:35.909Z</time></trkpt><trkpt lat="43.77353883083414" lon="11.137433502032797"><ele>35.0</ele><time>2026-05-02T07:16:36.909Z</time></trkpt><trkpt lat="43.77356038936941" lon="11.137744148742701"><ele>35.0</ele><time>2026-05-02T07:16:37.909Z</time></trkpt><trkpt lat="43.77357910267995" lon="11.138057639649666"><ele>35.0</ele><time>2026-05-02T07:16:38.909Z</time></trkpt><trkpt lat="43.77360379026314" lon="11.138370459533554"><ele>34.5</ele><time>2026-05-02T07:16:39.909Z</time></trkpt><trkpt lat="43.773626687894726" lon="11.138688212421409"><ele>34.0</ele><time>2026-05-02T07:16:40.909Z</time></trkpt><trkpt lat="43.773649704400626" lon="11.139010097013456"><ele>35.0</ele><time>2026-05-02T07:16:41.909Z</time></trkpt><trkpt lat="43.77367539971318" lon="11.139324957559902"><ele>36.0</ele><time>2026-05-02T07:16:42.909Z</time></trkpt><trkpt lat="43.773699114620115" lon="11.139645925829408"><ele>36.5</ele><time>2026-05-02T07:16:43.909Z</time></trkpt><trkpt lat="43.77372251163186" lon="11.139971667224714"><ele>37.0</ele><time>2026-05-02T07:16:44.909Z</time></trkpt><trkpt lat="43.773744272959284" lon="11.140302744072985"><ele>37.0</ele><time>2026-05-02T07:16:45.909Z</time></trkpt><trkpt lat="43.77376773881596" lon="11.140634146369859"><ele>37.0</ele><time>2026-05-02T07:16:46.909Z</time></trkpt><trkpt lat="43.77379168932491" lon="11.140967106950974"><ele>37.0</ele><time>2026-05-02T07:16:47.909Z</time></trkpt><trkpt lat="43.77381336451643" lon="11.14129923077335"><ele>37.0</ele><time>2026-05-02T07:16:48.908Z</time></trkpt><trkpt lat="43.77383659617624" lon="11.141628425574318"><ele>36.5</ele><time>2026-05-02T07:16:49.908Z</time></trkpt><trkpt lat="43.77385717235325" lon="11.141954888176945"><ele>36.0</ele><time>2026-05-02T07:16:50.908Z</time></trkpt><trkpt lat="43.77387519151304" lon="11.142283628567343"><ele>37.0</ele><time>2026-05-02T07:16:51.908Z</time></trkpt><trkpt lat="43.77389184407677" lon="11.142614538904855"><ele>38.0</ele><time>2026-05-02T07:16:52.908Z</time></trkpt><trkpt lat="43.77390527954819" lon="11.142947173558829"><ele>37.0</ele><time>2026-05-02T07:16:53.908Z</time></trkpt><trkpt lat="43.773913623060146" lon="11.143282475483039"><ele>36.0</ele><time>2026-05-02T07:16:54.908Z</time></trkpt><trkpt lat="43.773919734963876" lon="11.14361308012234"><ele>36.0</ele><time>2026-05-02T07:16:55.908Z</time></trkpt><trkpt lat="43.77392289594903" lon="11.143943803001122"><ele>36.0</ele><time>2026-05-02T07:16:56.908Z</time></trkpt><trkpt lat="43.773926815682074" lon="11.144272676766516"><ele>36.0</ele><time>2026-05-02T07:16:57.908Z</time></trkpt><trkpt lat="43.773934660130315" lon="11.144593140094528"><ele>36.0</ele><time>2026-05-02T07:16:58.908Z</time></trkpt><trkpt lat="43.77394305659701" lon="11.144916648947614"><ele>36.0</ele><time>2026-05-02T07:16:59.908Z</time></trkpt><trkpt lat="43.77395040158803" lon="11.145241128783388"><ele>36.0</ele><time>2026-05-02T07:17:00.908Z</time></trkpt><trkpt lat="43.77395642031527" lon="11.14556729048299"><ele>34.5</ele><time>2026-05-02T07:17:01.908Z</time></trkpt><trkpt lat="43.77396254792327" lon="11.145894086199638"><ele>33.0</ele><time>2026-05-02T07:17:02.908Z</time></trkpt><trkpt lat="43.77396912868169" lon="11.146220061254928"><ele>33.5</ele><time>2026-05-02T07:17:03.908Z</time></trkpt><trkpt lat="43.773974898630506" lon="11.146548956910095"><ele>34.0</ele><time>2026-05-02T07:17:04.908Z</time></trkpt><trkpt lat="43.77398052840571" lon="11.146876455840511"><ele>34.0</ele><time>2026-05-02T07:17:05.908Z</time></trkpt><trkpt lat="43.77398544274381" lon="11.147201091191082"><ele>34.0</ele><time>2026-05-02T07:17:06.908Z</time></trkpt><trkpt lat="43.773994476713476" lon="11.147527938587139"><ele>33.5</ele><time>2026-05-02T07:17:07.908Z</time></trkpt><trkpt lat="43.77400067422379" lon="11.147852498202122"><ele>33.0</ele><time>2026-05-02T07:17:08.908Z</time></trkpt><trkpt lat="43.774002446165206" lon="11.148171161772238"><ele>34.0</ele><time>2026-05-02T07:17:09.908Z</time></trkpt><trkpt lat="43.774005371286606" lon="11.148494255964554"><ele>35.0</ele><time>2026-05-02T07:17:10.908Z</time></trkpt><trkpt lat="43.77401354534007" lon="11.148821636932825"><ele>35.0</ele><time>2026-05-02T07:17:11.908Z</time></trkpt><trkpt lat="43.774022993808146" lon="11.149146718623735"><ele>35.0</ele><time>2026-05-02T07:17:12.908Z</time></trkpt><trkpt lat="43.77402778933327" lon="11.1494713392841"><ele>35.0</ele><time>2026-05-02T07:17:13.907Z</time></trkpt><trkpt lat="43.77403456386945" lon="11.14979650655747"><ele>35.0</ele><time>2026-05-02T07:17:14.907Z</time></trkpt><trkpt lat="43.77403862366665" lon="11.150119900861883"><ele>34.5</ele><time>2026-05-02T07:17:15.907Z</time></trkpt><trkpt lat="43.77404478821346" lon="11.150444013306945"><ele>34.0</ele><time>2026-05-02T07:17:16.907Z</time></trkpt><trkpt lat="43.77404474622161" lon="11.150770424938843"><ele>35.5</ele><time>2026-05-02T07:17:17.907Z</time></trkpt><trkpt lat="43.77405348881338" lon="11.151093765781308"><ele>37.0</ele><time>2026-05-02T07:17:18.907Z</time></trkpt><trkpt lat="43.77406051040255" lon="11.15142646705467"><ele>36.5</ele><time>2026-05-02T07:17:19.909Z</time></trkpt><trkpt lat="43.77406737107021" lon="11.151760851913307"><ele>36.0</ele><time>2026-05-02T07:17:20.908Z</time></trkpt><trkpt lat="43.774074414863705" lon="11.152094496786248"><ele>35.5</ele><time>2026-05-02T07:17:21.908Z</time></trkpt><trkpt lat="43.77408136675665" lon="11.152429344823776"><ele>35.0</ele><time>2026-05-02T07:17:22.909Z</time></trkpt><trkpt lat="43.77408679410928" lon="11.152766026775996"><ele>35.0</ele><time>2026-05-02T07:17:23.909Z</time></trkpt><trkpt lat="43.77409570261483" lon="11.153103109475786"><ele>35.0</ele><time>2026-05-02T07:17:24.909Z</time></trkpt><trkpt lat="43.774101668262894" lon="11.153439152599194"><ele>35.5</ele><time>2026-05-02T07:17:25.908Z</time></trkpt><trkpt lat="43.7741039475989" lon="11.153773292650794"><ele>36.0</ele><time>2026-05-02T07:17:26.909Z</time></trkpt><trkpt lat="43.774105207794875" lon="11.154111897828619"><ele>36.0</ele><time>2026-05-02T07:17:27.909Z</time></trkpt><trkpt lat="43.77410948361591" lon="11.154444749742412"><ele>36.0</ele><time>2026-05-02T07:17:28.908Z</time></trkpt><trkpt lat="43.77410791680666" lon="11.154774775738378"><ele>35.5</ele><time>2026-05-02T07:17:29.908Z</time></trkpt><trkpt lat="43.77409515647403" lon="11.155122424937213"><ele>35.0</ele><time>2026-05-02T07:17:30.908Z</time></trkpt><trkpt lat="43.774060398241254" lon="11.1554395195252"><ele>35.5</ele><time>2026-05-02T07:17:31.908Z</time></trkpt><trkpt lat="43.77403537380286" lon="11.155763367482624"><ele>36.0</ele><time>2026-05-02T07:17:32.909Z</time></trkpt><trkpt lat="43.77401203943193" lon="11.156083328572189"><ele>36.0</ele><time>2026-05-02T07:17:33.909Z</time></trkpt><trkpt lat="43.7739722701851" lon="11.156398399194673"><ele>36.0</ele><time>2026-05-02T07:17:34.908Z</time></trkpt><trkpt lat="43.77393365290286" lon="11.1567110049755"><ele>36.5</ele><time>2026-05-02T07:17:35.908Z</time></trkpt><trkpt lat="43.77388672984302" lon="11.157014437979687"><ele>37.0</ele><time>2026-05-02T07:17:36.908Z</time></trkpt><trkpt lat="43.77383588407892" lon="11.157327103599908"><ele>36.0</ele><time>2026-05-02T07:17:37.908Z</time></trkpt><trkpt lat="43.77377990758524" lon="11.15762761856058"><ele>35.0</ele><time>2026-05-02T07:17:38.908Z</time></trkpt><trkpt lat="43.77372764430824" lon="11.157932275564804"><ele>35.0</ele><time>2026-05-02T07:17:39.908Z</time></trkpt><trkpt lat="43.77367478336852" lon="11.158234904236746"><ele>35.0</ele><time>2026-05-02T07:17:40.908Z</time></trkpt><trkpt lat="43.77361353828483" lon="11.15853710753836"><ele>35.0</ele><time>2026-05-02T07:17:41.908Z</time></trkpt><trkpt lat="43.77355717848669" lon="11.158837182440177"><ele>35.0</ele><time>2026-05-02T07:17:42.908Z</time></trkpt><trkpt lat="43.77350240504967" lon="11.159131622821619"><ele>35.0</ele><time>2026-05-02T07:17:43.908Z</time></trkpt><trkpt lat="43.77344368070403" lon="11.159427027479227"><ele>35.0</ele><time>2026-05-02T07:17:44.908Z</time></trkpt><trkpt lat="43.77338582667603" lon="11.15972122389335"><ele>35.0</ele><time>2026-05-02T07:17:45.908Z</time></trkpt><trkpt lat="43.77332845898236" lon="11.160012127965485"><ele>35.0</ele><time>2026-05-02T07:17:46.908Z</time></trkpt><trkpt lat="43.7732768513507" lon="11.160313931184957"><ele>35.5</ele><time>2026-05-02T07:17:47.908Z</time></trkpt><trkpt lat="43.7732164167106" lon="11.160619108387245"><ele>36.0</ele><time>2026-05-02T07:17:48.908Z</time></trkpt><trkpt lat="43.77316268036806" lon="11.160928447531473"><ele>36.0</ele><time>2026-05-02T07:17:49.908Z</time></trkpt><trkpt lat="43.77310445947037" lon="11.161238584194441"><ele>36.0</ele><time>2026-05-02T07:17:50.908Z</time></trkpt><trkpt lat="43.77305402621263" lon="11.161538912749991"><ele>35.5</ele><time>2026-05-02T07:17:51.908Z</time></trkpt><trkpt lat="43.77299417471261" lon="11.161842249874281"><ele>35.0</ele><time>2026-05-02T07:17:52.908Z</time></trkpt><trkpt lat="43.772928387053895" lon="11.162161756702318"><ele>35.0</ele><time>2026-05-02T07:17:53.908Z</time></trkpt><trkpt lat="43.77286743252371" lon="11.162471554673472"><ele>35.0</ele><time>2026-05-02T07:17:54.908Z</time></trkpt><trkpt lat="43.7728075759382" lon="11.162781184265135"><ele>35.0</ele><time>2026-05-02T07:17:55.908Z</time></trkpt><trkpt lat="43.77275193966787" lon="11.163086774661497"><ele>35.0</ele><time>2026-05-02T07:17:56.908Z</time></trkpt><trkpt lat="43.77269630406114" lon="11.163392258909758"><ele>35.5</ele><time>2026-05-02T07:17:57.908Z</time></trkpt><trkpt lat="43.772636651956454" lon="11.163698443316143"><ele>36.0</ele><time>2026-05-02T07:17:58.908Z</time></trkpt><trkpt lat="43.772576487550815" lon="11.164004452828113"><ele>35.0</ele><time>2026-05-02T07:17:59.908Z</time></trkpt><trkpt lat="43.77251353649747" lon="11.164312227627951"><ele>34.0</ele><time>2026-05-02T07:18:00.907Z</time></trkpt><trkpt lat="43.77245883607297" lon="11.164622875879147"><ele>34.0</ele><time>2026-05-02T07:18:01.907Z</time></trkpt><trkpt lat="43.77240456484606" lon="11.164936007982174"><ele>34.0</ele><time>2026-05-02T07:18:02.907Z</time></trkpt><trkpt lat="43.772342657558276" lon="11.165250797806632"><ele>34.0</ele><time>2026-05-02T07:18:03.907Z</time></trkpt><trkpt lat="43.77228525907842" lon="11.165550857086798"><ele>34.0</ele><time>2026-05-02T07:18:04.907Z</time></trkpt><trkpt lat="43.77222886909077" lon="11.165859509979041"><ele>36.0</ele><time>2026-05-02T07:18:05.907Z</time></trkpt><trkpt lat="43.77217216331788" lon="11.166164071054427"><ele>38.0</ele><time>2026-05-02T07:18:06.907Z</time></trkpt><trkpt lat="43.772116164159364" lon="11.166469902552361"><ele>38.0</ele><time>2026-05-02T07:18:07.907Z</time></trkpt><trkpt lat="43.77206018428717" lon="11.166777792296305"><ele>38.0</ele><time>2026-05-02T07:18:08.907Z</time></trkpt><trkpt lat="43.772001808642386" lon="11.167086099118016"><ele>36.0</ele><time>2026-05-02T07:18:09.907Z</time></trkpt><trkpt lat="43.771945247234626" lon="11.167392689613616"><ele>34.0</ele><time>2026-05-02T07:18:10.907Z</time></trkpt><trkpt lat="43.77188704353189" lon="11.167697785948402"><ele>34.0</ele><time>2026-05-02T07:18:11.907Z</time></trkpt><trkpt lat="43.771833424083596" lon="11.168007364412619"><ele>34.0</ele><time>2026-05-02T07:18:12.907Z</time></trkpt><trkpt lat="43.77177696701759" lon="11.168315241617742"><ele>35.0</ele><time>2026-05-02T07:18:13.907Z</time></trkpt><trkpt lat="43.77172176983362" lon="11.1686305058529"><ele>36.0</ele><time>2026-05-02T07:18:14.907Z</time></trkpt><trkpt lat="43.771661920874635" lon="11.168947968011302"><ele>36.0</ele><time>2026-05-02T07:18:15.907Z</time></trkpt><trkpt lat="43.77160338399449" lon="11.16926562009771"><ele>36.0</ele><time>2026-05-02T07:18:16.907Z</time></trkpt><trkpt lat="43.77154495034382" lon="11.169586073908809"><ele>36.0</ele><time>2026-05-02T07:18:17.907Z</time></trkpt><trkpt lat="43.77148899424621" lon="11.169908868445855"><ele>36.0</ele><time>2026-05-02T07:18:18.907Z</time></trkpt><trkpt lat="43.77142813466013" lon="11.170230202920344"><ele>36.0</ele><time>2026-05-02T07:18:19.907Z</time></trkpt><trkpt lat="43.771372311047074" lon="11.17054378832586"><ele>36.0</ele><time>2026-05-02T07:18:20.907Z</time></trkpt><trkpt lat="43.771317353778684" lon="11.170858948490501"><ele>35.0</ele><time>2026-05-02T07:18:21.907Z</time></trkpt><trkpt lat="43.77126086299755" lon="11.171172193991337"><ele>34.0</ele><time>2026-05-02T07:18:22.907Z</time></trkpt><trkpt lat="43.77120432904473" lon="11.171483397835665"><ele>35.0</ele><time>2026-05-02T07:18:23.907Z</time></trkpt><trkpt lat="43.771149860936355" lon="11.171791223873496"><ele>36.0</ele><time>2026-05-02T07:18:24.907Z</time></trkpt><trkpt lat="43.771087999291595" lon="11.172103305891643"><ele>36.5</ele><time>2026-05-02T07:18:25.906Z</time></trkpt><trkpt lat="43.77103165328632" lon="11.172415753038598"><ele>37.0</ele><time>2026-05-02T07:18:26.906Z</time></trkpt><trkpt lat="43.77097625864942" lon="11.172724881276244"><ele>37.0</ele><time>2026-05-02T07:18:27.906Z</time></trkpt><trkpt lat="43.77092092180598" lon="11.173035694391464"><ele>37.0</ele><time>2026-05-02T07:18:28.906Z</time></trkpt><trkpt lat="43.77086731311935" lon="11.1733404690421"><ele>36.0</ele><time>2026-05-02T07:18:29.906Z</time></trkpt><trkpt lat="43.770818729486564" lon="11.173653200983765"><ele>35.0</ele><time>2026-05-02T07:18:30.906Z</time></trkpt><trkpt lat="43.77077124583073" lon="11.173963114163728"><ele>35.666666666666664</ele><time>2026-05-02T07:18:31.906Z</time></trkpt><trkpt lat="43.77072443258708" lon="11.174268177493987"><ele>36.333333333333336</ele><time>2026-05-02T07:18:32.906Z</time></trkpt><trkpt lat="43.77068747138494" lon="11.174572841474964"><ele>37.0</ele><time>2026-05-02T07:18:33.906Z</time></trkpt><trkpt lat="43.770637353092525" lon="11.174876701956622"><ele>37.5</ele><time>2026-05-02T07:18:34.906Z</time></trkpt><trkpt lat="43.77059079738637" lon="11.175182491779228"><ele>38.0</ele><time>2026-05-02T07:18:35.906Z</time></trkpt><trkpt lat="43.7705417573616" lon="11.175486647869384"><ele>37.5</ele><time>2026-05-02T07:18:36.906Z</time></trkpt><trkpt lat="43.77048660479942" lon="11.175791567803378"><ele>37.0</ele><time>2026-05-02T07:18:37.906Z</time></trkpt><trkpt lat="43.77043738533375" lon="11.17609826232465"><ele>37.0</ele><time>2026-05-02T07:18:38.906Z</time></trkpt><trkpt lat="43.77039412556835" lon="11.176412238488188"><ele>37.0</ele><time>2026-05-02T07:18:39.906Z</time></trkpt><trkpt lat="43.770355788886235" lon="11.17672168405028"><ele>36.333333333333336</ele><time>2026-05-02T07:18:40.906Z</time></trkpt><trkpt lat="43.77033387868307" lon="11.177028472484038"><ele>35.666666666666664</ele><time>2026-05-02T07:18:41.906Z</time></trkpt><trkpt lat="43.77031469338656" lon="11.177331941006424"><ele>35.0</ele><time>2026-05-02T07:18:42.906Z</time></trkpt><trkpt lat="43.77030330025979" lon="11.177638705587587"><ele>36.33333333333333</ele><time>2026-05-02T07:18:43.906Z</time></trkpt><trkpt lat="43.770316103876304" lon="11.177910029303847"><ele>37.666666666666664</ele><time>2026-05-02T07:18:44.906Z</time></trkpt><trkpt lat="43.77031257967475" lon="11.178190208720052"><ele>39.0</ele><time>2026-05-02T07:18:45.906Z</time></trkpt><trkpt lat="43.770316245495934" lon="11.178489505431589"><ele>39.0</ele><time>2026-05-02T07:18:46.906Z</time></trkpt><trkpt lat="43.77029526748598" lon="11.178793269803698"><ele>39.0</ele><time>2026-05-02T07:18:47.906Z</time></trkpt><trkpt lat="43.77022517328283" lon="11.17916519540608"><ele>37.5</ele><time>2026-05-02T07:18:48.906Z</time></trkpt><trkpt lat="43.770186660516536" lon="11.17949882624422"><ele>36.0</ele><time>2026-05-02T07:18:49.906Z</time></trkpt><trkpt lat="43.77013462948536" lon="11.179845691195217"><ele>35.5</ele><time>2026-05-02T07:18:50.906Z</time></trkpt><trkpt lat="43.77012127956481" lon="11.1802372820565"><ele>35.0</ele><time>2026-05-02T07:18:51.905Z</time></trkpt><trkpt lat="43.77012240951142" lon="11.180632114294012"><ele>35.666666666666664</ele><time>2026-05-02T07:18:52.905Z</time></trkpt><trkpt lat="43.77015832970218" lon="11.180756507952728"><ele>36.333333333333336</ele><time>2026-05-02T07:18:53.905Z</time></trkpt><trkpt lat="43.770163636529986" lon="11.181061932730143"><ele>37.0</ele><time>2026-05-02T07:18:54.905Z</time></trkpt><trkpt lat="43.77017142133914" lon="11.18136463980992"><ele>37.0</ele><time>2026-05-02T07:18:55.905Z</time></trkpt><trkpt lat="43.77018135928273" lon="11.181671322245792"><ele>37.0</ele><time>2026-05-02T07:18:56.905Z</time></trkpt><trkpt lat="43.77019726702147" lon="11.181979647116675"><ele>37.0</ele><time>2026-05-02T07:18:57.905Z</time></trkpt><trkpt lat="43.77021481550263" lon="11.182293575445506"><ele>38.0</ele><time>2026-05-02T07:18:58.905Z</time></trkpt><trkpt lat="43.77023081849126" lon="11.182611315793888"><ele>39.0</ele><time>2026-05-02T07:18:59.905Z</time></trkpt><trkpt lat="43.77024932044288" lon="11.182924536526658"><ele>39.5</ele><time>2026-05-02T07:19:00.905Z</time></trkpt><trkpt lat="43.770271596568946" lon="11.183242858851388"><ele>40.0</ele><time>2026-05-02T07:19:01.905Z</time></trkpt><trkpt lat="43.770298158384485" lon="11.183560675316361"><ele>40.0</ele><time>2026-05-02T07:19:02.905Z</time></trkpt><trkpt lat="43.77033304960732" lon="11.183875367627776"><ele>40.0</ele><time>2026-05-02T07:19:03.905Z</time></trkpt><trkpt lat="43.77036623380553" lon="11.184193891277326"><ele>39.5</ele><time>2026-05-02T07:19:04.905Z</time></trkpt><trkpt lat="43.77040126390624" lon="11.184511220611968"><ele>39.0</ele><time>2026-05-02T07:19:05.905Z</time></trkpt><trkpt lat="43.77043886335278" lon="11.184827434368287"><ele>38.5</ele><time>2026-05-02T07:19:06.905Z</time></trkpt><trkpt lat="43.770479913394524" lon="11.185140449756108"><ele>38.0</ele><time>2026-05-02T07:19:07.905Z</time></trkpt><trkpt lat="43.77052294386147" lon="11.185450662977914"><ele>38.5</ele><time>2026-05-02T07:19:08.905Z</time></trkpt><trkpt lat="43.770560332989234" lon="11.185760884654313"><ele>39.0</ele><time>2026-05-02T07:19:09.905Z</time></trkpt><trkpt lat="43.7706031711314" lon="11.18606695708399"><ele>39.0</ele><time>2026-05-02T07:19:10.905Z</time></trkpt><trkpt lat="43.77064679478757" lon="11.186371168831965"><ele>39.0</ele><time>2026-05-02T07:19:11.905Z</time></trkpt><trkpt lat="43.7706939989938" lon="11.186672011608026"><ele>39.0</ele><time>2026-05-02T07:19:12.905Z</time></trkpt><trkpt lat="43.77074191349652" lon="11.1869663678348"><ele>39.333333333333336</ele><time>2026-05-02T07:19:13.905Z</time></trkpt><trkpt lat="43.770790377024" lon="11.187263445095851"><ele>39.66666666666667</ele><time>2026-05-02T07:19:14.905Z</time></trkpt><trkpt lat="43.770840537955735" lon="11.187555049804656"><ele>40.0</ele><time>2026-05-02T07:19:15.905Z</time></trkpt><trkpt lat="43.77088811665536" lon="11.187849225731917"><ele>39.333333333333336</ele><time>2026-05-02T07:19:16.904Z</time></trkpt><trkpt lat="43.77094272938389" lon="11.18813990217983"><ele>38.666666666666664</ele><time>2026-05-02T07:19:17.904Z</time></trkpt><trkpt lat="43.77098423554483" lon="11.18843528535579"><ele>38.0</ele><time>2026-05-02T07:19:18.904Z</time></trkpt><trkpt lat="43.77102849670917" lon="11.188733550304542"><ele>38.33333333333333</ele><time>2026-05-02T07:19:19.904Z</time></trkpt><trkpt lat="43.77107834448544" lon="11.18903421783412"><ele>38.666666666666664</ele><time>2026-05-02T07:19:20.904Z</time></trkpt><trkpt lat="43.77112986186068" lon="11.189337602800272"><ele>39.0</ele><time>2026-05-02T07:19:21.904Z</time></trkpt><trkpt lat="43.771179097361305" lon="11.189638078297891"><ele>39.0</ele><time>2026-05-02T07:19:22.904Z</time></trkpt><trkpt lat="43.7712261102587" lon="11.189939542128037"><ele>39.0</ele><time>2026-05-02T07:19:23.904Z</time></trkpt><trkpt lat="43.77127312860226" lon="11.190242855039555"><ele>39.0</ele><time>2026-05-02T07:19:24.906Z</time></trkpt><trkpt lat="43.77132349563576" lon="11.190550240265173"><ele>39.5</ele><time>2026-05-02T07:19:25.906Z</time></trkpt><trkpt lat="43.77137170433635" lon="11.190856289454816"><ele>40.0</ele><time>2026-05-02T07:19:26.906Z</time></trkpt><trkpt lat="43.771420760079" lon="11.191161705139958"><ele>40.0</ele><time>2026-05-02T07:19:27.906Z</time></trkpt><trkpt lat="43.77147281627887" lon="11.191464504266273"><ele>40.0</ele><time>2026-05-02T07:19:28.906Z</time></trkpt><trkpt lat="43.77152669239915" lon="11.191768020966805"><ele>40.333333333333336</ele><time>2026-05-02T07:19:29.905Z</time></trkpt><trkpt lat="43.771574882474255" lon="11.192067450912747"><ele>40.666666666666664</ele><time>2026-05-02T07:19:30.905Z</time></trkpt><trkpt lat="43.7716202051302" lon="11.19235789082545"><ele>41.0</ele><time>2026-05-02T07:19:31.905Z</time></trkpt><trkpt lat="43.771664119462784" lon="11.192647203970344"><ele>41.0</ele><time>2026-05-02T07:19:32.905Z</time></trkpt><trkpt lat="43.77171311575637" lon="11.192913993734958"><ele>41.0</ele><time>2026-05-02T07:19:33.905Z</time></trkpt><trkpt lat="43.77175476465705" lon="11.193165099740217"><ele>41.0</ele><time>2026-05-02T07:19:34.905Z</time></trkpt><trkpt lat="43.77179411863444" lon="11.193408361934148"><ele>40.666666666666664</ele><time>2026-05-02T07:19:35.905Z</time></trkpt><trkpt lat="43.771834349757775" lon="11.19364959113043"><ele>40.333333333333336</ele><time>2026-05-02T07:19:36.905Z</time></trkpt><trkpt lat="43.77187263287337" lon="11.193887074541806"><ele>40.0</ele><time>2026-05-02T07:19:37.906Z</time></trkpt><trkpt lat="43.771909364190144" lon="11.194113467712775"><ele>40.0</ele><time>2026-05-02T07:19:38.906Z</time></trkpt><trkpt lat="43.77194261674153" lon="11.194340461787961"><ele>40.0</ele><time>2026-05-02T07:19:39.906Z</time></trkpt><trkpt lat="43.771976798347126" lon="11.19455561979978"><ele>40.0</ele><time>2026-05-02T07:19:40.906Z</time></trkpt><trkpt lat="43.772009054158" lon="11.194757215063907"><ele>39.75</ele><time>2026-05-02T07:19:41.906Z</time></trkpt><trkpt lat="43.77203673501506" lon="11.194954639514119"><ele>39.5</ele><time>2026-05-02T07:19:42.905Z</time></trkpt><trkpt lat="43.77206838370745" lon="11.195147854737897"><ele>39.25</ele><time>2026-05-02T07:19:43.905Z</time></trkpt><trkpt lat="43.77209603220955" lon="11.19533070342007"><ele>39.0</ele><time>2026-05-02T07:19:44.905Z</time></trkpt><trkpt lat="43.77212697919109" lon="11.195515168763139"><ele>39.0</ele><time>2026-05-02T07:19:45.905Z</time></trkpt><trkpt lat="43.77215760046492" lon="11.195691587205799"><ele>39.0</ele><time>2026-05-02T07:19:46.905Z</time></trkpt><trkpt lat="43.77218797344726" lon="11.19586713057308"><ele>39.0</ele><time>2026-05-02T07:19:47.905Z</time></trkpt><trkpt lat="43.77221710971828" lon="11.19604403002705"><ele>39.0</ele><time>2026-05-02T07:19:48.905Z</time></trkpt><trkpt lat="43.77224913552261" lon="11.196219104231114"><ele>39.0</ele><time>2026-05-02T07:19:49.905Z</time></trkpt><trkpt lat="43.772282680960195" lon="11.196397523170674"><ele>39.0</ele><time>2026-05-02T07:19:50.905Z</time></trkpt><trkpt lat="43.77230667770184" lon="11.196578884947055"><ele>39.0</ele><time>2026-05-02T07:19:51.905Z</time></trkpt><trkpt lat="43.77232894552824" lon="11.196754265350807"><ele>39.0</ele><time>2026-05-02T07:19:52.905Z</time></trkpt><trkpt lat="43.77235044582777" lon="11.196924397066487"><ele>39.0</ele><time>2026-05-02T07:19:53.905Z</time></trkpt><trkpt lat="43.772382800073586" lon="11.197100462107397"><ele>39.0</ele><time>2026-05-02T07:19:54.905Z</time></trkpt><trkpt lat="43.772406917630335" lon="11.197273491405111"><ele>39.0</ele><time>2026-05-02T07:19:55.905Z</time></trkpt><trkpt lat="43.77243522561732" lon="11.197449021693696"><ele>39.0</ele><time>2026-05-02T07:19:56.905Z</time></trkpt><trkpt lat="43.77246427387214" lon="11.19762803658946"><ele>39.0</ele><time>2026-05-02T07:19:57.905Z</time></trkpt><trkpt lat="43.772493068208824" lon="11.197809353897377"><ele>39.0</ele><time>2026-05-02T07:19:58.905Z</time></trkpt><trkpt lat="43.772520466170334" lon="11.197988611300628"><ele>39.0</ele><time>2026-05-02T07:19:59.905Z</time></trkpt><trkpt lat="43.772549458426305" lon="11.198170138311507"><ele>39.0</ele><time>2026-05-02T07:20:00.905Z</time></trkpt><trkpt lat="43.77256805746487" lon="11.19835387313944"><ele>39.0</ele><time>2026-05-02T07:20:01.905Z</time></trkpt><trkpt lat="43.77259041272965" lon="11.198527223393999"><ele>39.0</ele><time>2026-05-02T07:20:02.905Z</time></trkpt><trkpt lat="43.772615848623865" lon="11.198708020591488"><ele>39.0</ele><time>2026-05-02T07:20:03.904Z</time></trkpt><trkpt lat="43.77262628354795" lon="11.198889734542744"><ele>39.0</ele><time>2026-05-02T07:20:04.903Z</time></trkpt><trkpt lat="43.77264359167197" lon="11.199086955991469"><ele>39.5</ele><time>2026-05-02T07:20:05.901Z</time></trkpt><trkpt lat="43.77265294624993" lon="11.199276382036336"><ele>40.0</ele><time>2026-05-02T07:20:06.9Z</time></trkpt><trkpt lat="43.77266213489888" lon="11.19945452621179"><ele>40.5</ele><time>2026-05-02T07:20:07.899Z</time></trkpt><trkpt lat="43.77265571777949" lon="11.199605858321156"><ele>41.0</ele><time>2026-05-02T07:20:08.898Z</time></trkpt><trkpt lat="43.772650631575935" lon="11.199750663753205"><ele>40.5</ele><time>2026-05-02T07:20:09.897Z</time></trkpt><trkpt lat="43.77265108211002" lon="11.19991311415262"><ele>40.0</ele><time>2026-05-02T07:20:10.895Z</time></trkpt><trkpt lat="43.77264095525721" lon="11.20007852784364"><ele>39.5</ele><time>2026-05-02T07:20:11.895Z</time></trkpt><trkpt lat="43.7726498633793" lon="11.200247125134142"><ele>39.0</ele><time>2026-05-02T07:20:12.894Z</time></trkpt><trkpt lat="43.77265483751094" lon="11.200421023427115"><ele>39.0</ele><time>2026-05-02T07:20:13.893Z</time></trkpt><trkpt lat="43.772655492848294" lon="11.200589081665866"><ele>39.0</ele><time>2026-05-02T07:20:14.892Z</time></trkpt><trkpt lat="43.77265833261221" lon="11.200762741262588"><ele>39.0</ele><time>2026-05-02T07:20:15.891Z</time></trkpt><trkpt lat="43.77265592004638" lon="11.200938468793396"><ele>39.0</ele><time>2026-05-02T07:20:16.891Z</time></trkpt><trkpt lat="43.77265431693672" lon="11.201108840609828"><ele>39.2</ele><time>2026-05-02T07:20:17.89Z</time></trkpt><trkpt lat="43.7726574777754" lon="11.20127980204356"><ele>39.4</ele><time>2026-05-02T07:20:18.889Z</time></trkpt><trkpt lat="43.772654550345315" lon="11.20144144646789"><ele>39.6</ele><time>2026-05-02T07:20:19.889Z</time></trkpt><trkpt lat="43.772654267625015" lon="11.201597779276083"><ele>39.8</ele><time>2026-05-02T07:20:20.888Z</time></trkpt><trkpt lat="43.772650555730785" lon="11.20172317135853"><ele>40.0</ele><time>2026-05-02T07:20:21.888Z</time></trkpt><trkpt lat="43.77265607418994" lon="11.201861151700275"><ele>40.0</ele><time>2026-05-02T07:20:22.887Z</time></trkpt><trkpt lat="43.772649177088795" lon="11.201961000321838"><ele>40.0</ele><time>2026-05-02T07:20:23.887Z</time></trkpt><trkpt lat="43.7726453687647" lon="11.202076766038559"><ele>40.0</ele><time>2026-05-02T07:20:24.886Z</time></trkpt><trkpt lat="43.772647329983215" lon="11.202168245937884"><ele>40.0</ele><time>2026-05-02T07:20:25.886Z</time></trkpt><trkpt lat="43.77266356662075" lon="11.202279595670909"><ele>40.0</ele><time>2026-05-02T07:20:28.885Z</time></trkpt><trkpt lat="43.772668851039796" lon="11.202411873412116"><ele>40.0</ele><time>2026-05-02T07:20:54.88Z</time></trkpt><trkpt lat="43.772668935674155" lon="11.202499240640925"><ele>40.333333333333336</ele><time>2026-05-02T07:20:55.88Z</time></trkpt><trkpt lat="43.77266496106503" lon="11.202597773227632"><ele>40.66666666666667</ele><time>2026-05-02T07:20:56.88Z</time></trkpt><trkpt lat="43.77266524989409" lon="11.202713887249269"><ele>41.0</ele><time>2026-05-02T07:20:57.88Z</time></trkpt><trkpt lat="43.77266573729853" lon="11.202835903008827"><ele>41.333333333333336</ele><time>2026-05-02T07:20:58.879Z</time></trkpt><trkpt lat="43.77266949281925" lon="11.202944575894325"><ele>41.666666666666664</ele><time>2026-05-02T07:20:59.879Z</time></trkpt><trkpt lat="43.772667187367986" lon="11.203073979590984"><ele>42.0</ele><time>2026-05-02T07:21:00.879Z</time></trkpt><trkpt lat="43.77266640963469" lon="11.203208098876528"><ele>42.0</ele><time>2026-05-02T07:21:01.879Z</time></trkpt><trkpt lat="43.772664426846084" lon="11.203349843134532"><ele>42.0</ele><time>2026-05-02T07:21:02.879Z</time></trkpt><trkpt lat="43.77266735760113" lon="11.203491618370553"><ele>42.0</ele><time>2026-05-02T07:21:03.879Z</time></trkpt><trkpt lat="43.77265877069195" lon="11.203654558628857"><ele>42.0</ele><time>2026-05-02T07:21:04.879Z</time></trkpt><trkpt lat="43.77265552933048" lon="11.203809759574677"><ele>42.0</ele><time>2026-05-02T07:21:05.879Z</time></trkpt><trkpt lat="43.772657386285495" lon="11.203961656843743"><ele>41.8</ele><time>2026-05-02T07:21:06.879Z</time></trkpt><trkpt lat="43.772665694309424" lon="11.204122139255642"><ele>41.6</ele><time>2026-05-02T07:21:07.879Z</time></trkpt><trkpt lat="43.772661538944966" lon="11.204275228730571"><ele>41.4</ele><time>2026-05-02T07:21:08.879Z</time></trkpt><trkpt lat="43.772663718540585" lon="11.204415789188868"><ele>41.199999999999996</ele><time>2026-05-02T07:21:09.879Z</time></trkpt><trkpt lat="43.77266238737822" lon="11.204571231130139"><ele>41.0</ele><time>2026-05-02T07:21:10.879Z</time></trkpt><trkpt lat="43.772659566119" lon="11.204723340235995"><ele>41.0</ele><time>2026-05-02T07:21:11.878Z</time></trkpt><trkpt lat="43.77266211729217" lon="11.204888519010785"><ele>41.0</ele><time>2026-05-02T07:21:12.878Z</time></trkpt><trkpt lat="43.7726603797456" lon="11.205059045364377"><ele>41.0</ele><time>2026-05-02T07:21:13.878Z</time></trkpt><trkpt lat="43.77265355963944" lon="11.205238761729998"><ele>41.0</ele><time>2026-05-02T07:21:14.878Z</time></trkpt><trkpt lat="43.772660457618194" lon="11.205420815398865"><ele>41.0</ele><time>2026-05-02T07:21:15.878Z</time></trkpt><trkpt lat="43.772652965123314" lon="11.205603169391498"><ele>41.0</ele><time>2026-05-02T07:21:16.878Z</time></trkpt><trkpt lat="43.772654938563036" lon="11.205798861739842"><ele>41.0</ele><time>2026-05-02T07:21:17.878Z</time></trkpt><trkpt lat="43.77266142059569" lon="11.20599647266436"><ele>41.0</ele><time>2026-05-02T07:21:18.878Z</time></trkpt><trkpt lat="43.772662693636825" lon="11.206195309760057"><ele>40.75</ele><time>2026-05-02T07:21:19.878Z</time></trkpt><trkpt lat="43.77266599162343" lon="11.206394910900968"><ele>40.5</ele><time>2026-05-02T07:21:20.878Z</time></trkpt><trkpt lat="43.77266965958695" lon="11.206595068358594"><ele>40.25</ele><time>2026-05-02T07:21:21.878Z</time></trkpt><trkpt lat="43.77267222574168" lon="11.206794961508798"><ele>40.0</ele><time>2026-05-02T07:21:22.878Z</time></trkpt><trkpt lat="43.77267358481978" lon="11.206988725773906"><ele>40.5</ele><time>2026-05-02T07:21:23.878Z</time></trkpt><trkpt lat="43.772668110285665" lon="11.207185644799875"><ele>41.0</ele><time>2026-05-02T07:21:24.878Z</time></trkpt><trkpt lat="43.77267625260332" lon="11.207387391432167"><ele>41.5</ele><time>2026-05-02T07:21:25.878Z</time></trkpt><trkpt lat="43.77267457499959" lon="11.207585035819962"><ele>42.0</ele><time>2026-05-02T07:21:26.878Z</time></trkpt><trkpt lat="43.772674830230955" lon="11.207788409343399"><ele>42.25</ele><time>2026-05-02T07:21:27.878Z</time></trkpt><trkpt lat="43.77267071760099" lon="11.207993153458991"><ele>42.5</ele><time>2026-05-02T07:21:28.877Z</time></trkpt><trkpt lat="43.77267665236108" lon="11.208210804459105"><ele>42.75</ele><time>2026-05-02T07:21:29.877Z</time></trkpt><trkpt lat="43.77268120227152" lon="11.208397598183902"><ele>43.0</ele><time>2026-05-02T07:21:30.879Z</time></trkpt><trkpt lat="43.772681766781474" lon="11.208599622966824"><ele>42.75</ele><time>2026-05-02T07:21:31.878Z</time></trkpt><trkpt lat="43.772690758173844" lon="11.208803747609265"><ele>42.5</ele><time>2026-05-02T07:21:32.878Z</time></trkpt><trkpt lat="43.77269532298719" lon="11.209007773493903"><ele>42.25</ele><time>2026-05-02T07:21:33.879Z</time></trkpt><trkpt lat="43.77269835855538" lon="11.209217015200956"><ele>42.0</ele><time>2026-05-02T07:21:34.879Z</time></trkpt><trkpt lat="43.77271008385389" lon="11.209423119021002"><ele>41.333333333333336</ele><time>2026-05-02T07:21:35.879Z</time></trkpt><trkpt lat="43.77273182806915" lon="11.209626295393269"><ele>40.66666666666667</ele><time>2026-05-02T07:21:36.879Z</time></trkpt><trkpt lat="43.77274842524143" lon="11.209832111603324"><ele>40.0</ele><time>2026-05-02T07:21:37.878Z</time></trkpt><trkpt lat="43.77277136968714" lon="11.210041525980886"><ele>40.0</ele><time>2026-05-02T07:21:38.878Z</time></trkpt><trkpt lat="43.77279045240175" lon="11.210244733040186"><ele>40.0</ele><time>2026-05-02T07:21:39.878Z</time></trkpt><trkpt lat="43.77281166588991" lon="11.210445529530043"><ele>40.0</ele><time>2026-05-02T07:21:40.878Z</time></trkpt><trkpt lat="43.77283516173136" lon="11.210645398183825"><ele>40.0</ele><time>2026-05-02T07:21:41.878Z</time></trkpt><trkpt lat="43.77285629080955" lon="11.210842825530738"><ele>40.0</ele><time>2026-05-02T07:21:42.878Z</time></trkpt><trkpt lat="43.77287865811363" lon="11.2110408864981"><ele>40.0</ele><time>2026-05-02T07:21:43.879Z</time></trkpt><trkpt lat="43.772899551366095" lon="11.211230541839964"><ele>40.0</ele><time>2026-05-02T07:21:44.878Z</time></trkpt><trkpt lat="43.772922452946666" lon="11.211414470903334"><ele>40.0</ele><time>2026-05-02T07:21:45.878Z</time></trkpt><trkpt lat="43.77294398327157" lon="11.211598760176251"><ele>40.5</ele><time>2026-05-02T07:21:46.878Z</time></trkpt><trkpt lat="43.772963995473106" lon="11.21177934265114"><ele>41.0</ele><time>2026-05-02T07:21:47.878Z</time></trkpt><trkpt lat="43.77298210938763" lon="11.211953090273443"><ele>41.5</ele><time>2026-05-02T07:21:48.878Z</time></trkpt><trkpt lat="43.77300605368085" lon="11.212113150873325"><ele>42.0</ele><time>2026-05-02T07:21:49.878Z</time></trkpt><trkpt lat="43.773031925063194" lon="11.212258464825027"><ele>41.8</ele><time>2026-05-02T07:21:50.878Z</time></trkpt><trkpt lat="43.77304462476503" lon="11.212382914880692"><ele>41.6</ele><time>2026-05-02T07:21:51.878Z</time></trkpt><trkpt lat="43.77305017657425" lon="11.212486617556348"><ele>41.4</ele><time>2026-05-02T07:21:52.878Z</time></trkpt><trkpt lat="43.773036481177904" lon="11.212645989685258"><ele>41.199999999999996</ele><time>2026-05-02T07:21:54.878Z</time></trkpt><trkpt lat="43.77298465503042" lon="11.212816287660184"><ele>41.0</ele><time>2026-05-02T07:21:56.878Z</time></trkpt><trkpt lat="43.772955550311494" lon="11.212916680884026"><ele>41.0</ele><time>2026-05-02T07:21:57.878Z</time></trkpt><trkpt lat="43.772953779255836" lon="11.213044260417407"><ele>41.0</ele><time>2026-05-02T07:21:58.878Z</time></trkpt><trkpt lat="43.772965496579445" lon="11.213159294615176"><ele>41.0</ele><time>2026-05-02T07:21:59.878Z</time></trkpt><trkpt lat="43.77299579814652" lon="11.213274877377884"><ele>41.0</ele><time>2026-05-02T07:22:00.878Z</time></trkpt><trkpt lat="43.77304268641577" lon="11.21338970036516"><ele>41.0</ele><time>2026-05-02T07:22:01.878Z</time></trkpt><trkpt lat="43.77308541448013" lon="11.21351457254307"><ele>41.199999999999996</ele><time>2026-05-02T07:22:02.878Z</time></trkpt><trkpt lat="43.77311362398918" lon="11.213649353293142"><ele>41.4</ele><time>2026-05-02T07:22:03.878Z</time></trkpt><trkpt lat="43.7731324039792" lon="11.213802087287744"><ele>41.6</ele><time>2026-05-02T07:22:04.878Z</time></trkpt><trkpt lat="43.77314917053282" lon="11.213952441683078"><ele>41.8</ele><time>2026-05-02T07:22:05.877Z</time></trkpt><trkpt lat="43.77316867845483" lon="11.214108977557204"><ele>42.0</ele><time>2026-05-02T07:22:06.877Z</time></trkpt><trkpt lat="43.773190388098264" lon="11.21426807573981"><ele>42.2</ele><time>2026-05-02T07:22:07.877Z</time></trkpt><trkpt lat="43.773207678442986" lon="11.214423634322888"><ele>42.400000000000006</ele><time>2026-05-02T07:22:08.877Z</time></trkpt><trkpt lat="43.77322267511082" lon="11.21457551798299"><ele>42.599999999999994</ele><time>2026-05-02T07:22:09.877Z</time></trkpt><trkpt lat="43.77323858976954" lon="11.214731001227594"><ele>42.8</ele><time>2026-05-02T07:22:10.877Z</time></trkpt><trkpt lat="43.7732542555608" lon="11.21488030811576"><ele>43.0</ele><time>2026-05-02T07:22:11.877Z</time></trkpt><trkpt lat="43.773270826304724" lon="11.215029805250804"><ele>43.0</ele><time>2026-05-02T07:22:12.877Z</time></trkpt><trkpt lat="43.77328840819038" lon="11.215173003421237"><ele>43.0</ele><time>2026-05-02T07:22:13.877Z</time></trkpt><trkpt lat="43.77330240316467" lon="11.215319025474018"><ele>43.0</ele><time>2026-05-02T07:22:14.877Z</time></trkpt><trkpt lat="43.77331939368156" lon="11.215466090230866"><ele>43.0</ele><time>2026-05-02T07:22:15.877Z</time></trkpt><trkpt lat="43.77333619671802" lon="11.215615364947213"><ele>43.0</ele><time>2026-05-02T07:22:16.877Z</time></trkpt><trkpt lat="43.773350706022356" lon="11.2157660093408"><ele>42.25</ele><time>2026-05-02T07:22:17.877Z</time></trkpt><trkpt lat="43.773368605907336" lon="11.215918250856054"><ele>41.5</ele><time>2026-05-02T07:22:18.877Z</time></trkpt><trkpt lat="43.773385304891896" lon="11.21607262717822"><ele>40.75</ele><time>2026-05-02T07:22:19.877Z</time></trkpt><trkpt lat="43.77340065952258" lon="11.216231256770364"><ele>40.0</ele><time>2026-05-02T07:22:20.877Z</time></trkpt><trkpt lat="43.77341761449701" lon="11.216383203131606"><ele>40.25</ele><time>2026-05-02T07:22:21.877Z</time></trkpt><trkpt lat="43.773434548323934" lon="11.216543573007197"><ele>40.5</ele><time>2026-05-02T07:22:22.877Z</time></trkpt><trkpt lat="43.77345132320393" lon="11.216698000473462"><ele>40.75</ele><time>2026-05-02T07:22:23.877Z</time></trkpt><trkpt lat="43.77346274000433" lon="11.216860949528845"><ele>41.0</ele><time>2026-05-02T07:22:24.877Z</time></trkpt><trkpt lat="43.77348143106006" lon="11.21702411397838"><ele>41.0</ele><time>2026-05-02T07:22:25.877Z</time></trkpt><trkpt lat="43.77350090744506" lon="11.21718238151306"><ele>41.0</ele><time>2026-05-02T07:22:26.877Z</time></trkpt><trkpt lat="43.77351520906575" lon="11.217339785614312"><ele>41.0</ele><time>2026-05-02T07:22:27.876Z</time></trkpt><trkpt lat="43.7735381722561" lon="11.217501221599363"><ele>41.0</ele><time>2026-05-02T07:22:28.876Z</time></trkpt><trkpt lat="43.77356351056173" lon="11.217656011314757"><ele>41.25</ele><time>2026-05-02T07:22:29.876Z</time></trkpt><trkpt lat="43.77359351438146" lon="11.217811684787986"><ele>41.5</ele><time>2026-05-02T07:22:30.876Z</time></trkpt><trkpt lat="43.77360967597194" lon="11.217977585835612"><ele>41.75</ele><time>2026-05-02T07:22:31.876Z</time></trkpt><trkpt lat="43.77362450828828" lon="11.21814780497016"><ele>42.0</ele><time>2026-05-02T07:22:32.876Z</time></trkpt><trkpt lat="43.77364418221449" lon="11.218312021114768"><ele>42.25</ele><time>2026-05-02T07:22:33.876Z</time></trkpt><trkpt lat="43.77366344687601" lon="11.218468306427173"><ele>42.5</ele><time>2026-05-02T07:22:34.876Z</time></trkpt><trkpt lat="43.77367586495985" lon="11.218635030119879"><ele>42.75</ele><time>2026-05-02T07:22:35.876Z</time></trkpt><trkpt lat="43.77369093258426" lon="11.218799275746614"><ele>43.0</ele><time>2026-05-02T07:22:36.876Z</time></trkpt><trkpt lat="43.773711788169564" lon="11.218956998904217"><ele>42.8</ele><time>2026-05-02T07:22:37.876Z</time></trkpt><trkpt lat="43.77373848364625" lon="11.219107492900324"><ele>42.599999999999994</ele><time>2026-05-02T07:22:38.876Z</time></trkpt><trkpt lat="43.77375411840986" lon="11.219246088528246"><ele>42.400000000000006</ele><time>2026-05-02T07:22:39.876Z</time></trkpt><trkpt lat="43.773769573813695" lon="11.219384510363945"><ele>42.2</ele><time>2026-05-02T07:22:40.876Z</time></trkpt><trkpt lat="43.7737841009359" lon="11.219527991799811"><ele>42.0</ele><time>2026-05-02T07:22:41.876Z</time></trkpt><trkpt lat="43.77380166985266" lon="11.219667700571941"><ele>42.0</ele><time>2026-05-02T07:22:42.876Z</time></trkpt><trkpt lat="43.773820379288026" lon="11.219806766937625"><ele>42.0</ele><time>2026-05-02T07:22:43.876Z</time></trkpt><trkpt lat="43.77383778666729" lon="11.219911215293783"><ele>42.0</ele><time>2026-05-02T07:22:44.876Z</time></trkpt><trkpt lat="43.773845845982" lon="11.220029150798618"><ele>42.0</ele><time>2026-05-02T07:22:45.876Z</time></trkpt><trkpt lat="43.773857762117736" lon="11.22012223006298"><ele>42.0</ele><time>2026-05-02T07:22:46.876Z</time></trkpt><trkpt lat="43.773869529290636" lon="11.220236374265975"><ele>42.0</ele><time>2026-05-02T07:22:48.876Z</time></trkpt><trkpt lat="43.773880738282415" lon="11.220327872754478"><ele>42.0</ele><time>2026-05-02T07:22:51.875Z</time></trkpt><trkpt lat="43.77388921712523" lon="11.220429720465225"><ele>42.0</ele><time>2026-05-02T07:22:53.875Z</time></trkpt><trkpt lat="43.77390187687982" lon="11.220530942808765"><ele>42.0</ele><time>2026-05-02T07:22:55.875Z</time></trkpt><trkpt lat="43.773908679907834" lon="11.220641524467208"><ele>42.0</ele><time>2026-05-02T07:22:58.875Z</time></trkpt><trkpt lat="43.773913192439046" lon="11.220742531697638"><ele>42.0</ele><time>2026-05-02T07:23:00.875Z</time></trkpt><trkpt lat="43.7738955757102" lon="11.22086627164593"><ele>42.0</ele><time>2026-05-02T07:23:02.875Z</time></trkpt><trkpt lat="43.773873698191856" lon="11.221016042918261"><ele>42.0</ele><time>2026-05-02T07:23:04.875Z</time></trkpt><trkpt lat="43.773846804034974" lon="11.221149707578121"><ele>42.0</ele><time>2026-05-02T07:23:06.875Z</time></trkpt><trkpt lat="43.77384752258479" lon="11.2212962689527"><ele>42.0</ele><time>2026-05-02T07:23:08.875Z</time></trkpt><trkpt lat="43.77384653582562" lon="11.221488990004621"><ele>42.0</ele><time>2026-05-02T07:23:10.875Z</time></trkpt><trkpt lat="43.7738773385337" lon="11.22166406297072"><ele>42.142857142857146</ele><time>2026-05-02T07:23:12.874Z</time></trkpt><trkpt lat="43.77388063693949" lon="11.221765959883433"><ele>42.285714285714285</ele><time>2026-05-02T07:23:13.874Z</time></trkpt><trkpt lat="43.773870409474725" lon="11.221866006676555"><ele>42.42857142857143</ele><time>2026-05-02T07:23:14.874Z</time></trkpt><trkpt lat="43.7738549979276" lon="11.221953221798136"><ele>42.57142857142857</ele><time>2026-05-02T07:23:15.874Z</time></trkpt><trkpt lat="43.77381473414989" lon="11.222029858008005"><ele>42.714285714285715</ele><time>2026-05-02T07:23:16.874Z</time></trkpt><trkpt lat="43.77375553632984" lon="11.222093881416255"><ele>42.85714285714286</ele><time>2026-05-02T07:23:17.874Z</time></trkpt><trkpt lat="43.77370131426532" lon="11.222176238502307"><ele>43.0</ele><time>2026-05-02T07:23:18.874Z</time></trkpt><trkpt lat="43.77366855365702" lon="11.222260076634523"><ele>43.16666666666667</ele><time>2026-05-02T07:23:19.874Z</time></trkpt><trkpt lat="43.77362346164879" lon="11.222348947009726"><ele>43.333333333333336</ele><time>2026-05-02T07:23:20.874Z</time></trkpt><trkpt lat="43.77357572324994" lon="11.222430225404201"><ele>43.5</ele><time>2026-05-02T07:23:21.874Z</time></trkpt><trkpt lat="43.77352250609979" lon="11.22251905013567"><ele>43.666666666666664</ele><time>2026-05-02T07:23:22.874Z</time></trkpt><trkpt lat="43.77346782435237" lon="11.222606484084068"><ele>43.83333333333333</ele><time>2026-05-02T07:23:23.874Z</time></trkpt><trkpt lat="43.77341801349426" lon="11.2226970707352"><ele>44.0</ele><time>2026-05-02T07:23:24.874Z</time></trkpt><trkpt lat="43.773363264022414" lon="11.222790262857732"><ele>44.0</ele><time>2026-05-02T07:23:25.874Z</time></trkpt><trkpt lat="43.77330529672044" lon="11.222881864306018"><ele>44.0</ele><time>2026-05-02T07:23:26.874Z</time></trkpt><trkpt lat="43.77324862084468" lon="11.222967445506823"><ele>44.0</ele><time>2026-05-02T07:23:27.874Z</time></trkpt><trkpt lat="43.77319068371145" lon="11.223052015373502"><ele>44.0</ele><time>2026-05-02T07:23:28.874Z</time></trkpt><trkpt lat="43.77313109216924" lon="11.223145101670076"><ele>44.0</ele><time>2026-05-02T07:23:29.874Z</time></trkpt><trkpt lat="43.773083107052415" lon="11.223249207736458"><ele>44.0</ele><time>2026-05-02T07:23:30.874Z</time></trkpt><trkpt lat="43.77301708333151" lon="11.223338851353496"><ele>44.5</ele><time>2026-05-02T07:23:31.874Z</time></trkpt><trkpt lat="43.7729676616756" lon="11.223427061200006"><ele>45.0</ele><time>2026-05-02T07:23:32.874Z</time></trkpt><trkpt lat="43.772914308108994" lon="11.22353216837785"><ele>45.5</ele><time>2026-05-02T07:23:33.873Z</time></trkpt><trkpt lat="43.772886179317936" lon="11.223631974603464"><ele>46.0</ele><time>2026-05-02T07:23:34.873Z</time></trkpt><trkpt lat="43.772843137386545" lon="11.223734138223522"><ele>46.5</ele><time>2026-05-02T07:23:35.873Z</time></trkpt><trkpt lat="43.77280619752481" lon="11.223807703695739"><ele>47.0</ele><time>2026-05-02T07:23:36.875Z</time></trkpt><trkpt lat="43.77275999994832" lon="11.223974148288127"><ele>47.0</ele><time>2026-05-02T07:23:38.874Z</time></trkpt><trkpt lat="43.772724465902996" lon="11.224148795978081"><ele>47.0</ele><time>2026-05-02T07:23:40.874Z</time></trkpt><trkpt lat="43.77272053250179" lon="11.224247488011853"><ele>47.0</ele><time>2026-05-02T07:23:41.874Z</time></trkpt><trkpt lat="43.77274823277434" lon="11.224349192494905"><ele>47.0</ele><time>2026-05-02T07:23:42.875Z</time></trkpt><trkpt lat="43.77276607011634" lon="11.224449205679973"><ele>47.0</ele><time>2026-05-02T07:23:43.875Z</time></trkpt><trkpt lat="43.77277927486406" lon="11.224552872424942"><ele>47.0</ele><time>2026-05-02T07:23:44.875Z</time></trkpt><trkpt lat="43.77278845799918" lon="11.224680291307397"><ele>47.0</ele><time>2026-05-02T07:23:45.875Z</time></trkpt><trkpt lat="43.7727899455539" lon="11.224796630728644"><ele>47.0</ele><time>2026-05-02T07:23:46.874Z</time></trkpt><trkpt lat="43.77279753670309" lon="11.224921041128402"><ele>47.0</ele><time>2026-05-02T07:23:47.874Z</time></trkpt><trkpt lat="43.77281015323686" lon="11.225038831595125"><ele>47.0</ele><time>2026-05-02T07:23:48.874Z</time></trkpt><trkpt lat="43.77281574017425" lon="11.225155297728783"><ele>47.0</ele><time>2026-05-02T07:23:49.874Z</time></trkpt><trkpt lat="43.77282877583089" lon="11.225270309952972"><ele>47.0</ele><time>2026-05-02T07:23:50.874Z</time></trkpt><trkpt lat="43.77284647050518" lon="11.225381058833415"><ele>46.5</ele><time>2026-05-02T07:23:51.874Z</time></trkpt><trkpt lat="43.77286456961117" lon="11.22549308713599"><ele>46.0</ele><time>2026-05-02T07:23:52.874Z</time></trkpt><trkpt lat="43.772870979238355" lon="11.225604739322424"><ele>45.5</ele><time>2026-05-02T07:23:53.874Z</time></trkpt><trkpt lat="43.772882662506774" lon="11.225714885815025"><ele>45.0</ele><time>2026-05-02T07:23:54.874Z</time></trkpt><trkpt lat="43.77290484831658" lon="11.225833215917254"><ele>44.5</ele><time>2026-05-02T07:23:55.874Z</time></trkpt><trkpt lat="43.77292862711236" lon="11.225949945102835"><ele>44.0</ele><time>2026-05-02T07:23:56.874Z</time></trkpt><trkpt lat="43.772944453198896" lon="11.226056416264933"><ele>43.83333333333333</ele><time>2026-05-02T07:23:57.874Z</time></trkpt><trkpt lat="43.77296519534703" lon="11.226155992080011"><ele>43.666666666666664</ele><time>2026-05-02T07:23:58.874Z</time></trkpt><trkpt lat="43.772984443069014" lon="11.226272820115765"><ele>43.5</ele><time>2026-05-02T07:23:59.874Z</time></trkpt><trkpt lat="43.77299135919897" lon="11.226384968340437"><ele>43.333333333333336</ele><time>2026-05-02T07:24:00.874Z</time></trkpt><trkpt lat="43.773012744175624" lon="11.226493635589925"><ele>43.16666666666667</ele><time>2026-05-02T07:24:01.874Z</time></trkpt><trkpt lat="43.77302338215066" lon="11.226604796083667"><ele>43.0</ele><time>2026-05-02T07:24:02.874Z</time></trkpt><trkpt lat="43.773045278148984" lon="11.226724570840505"><ele>43.0</ele><time>2026-05-02T07:24:03.873Z</time></trkpt><trkpt lat="43.77306046450249" lon="11.226839525521461"><ele>43.0</ele><time>2026-05-02T07:24:04.873Z</time></trkpt><trkpt lat="43.77306945034378" lon="11.226959214247717"><ele>43.0</ele><time>2026-05-02T07:24:05.873Z</time></trkpt><trkpt lat="43.77308438176041" lon="11.22707337216362"><ele>43.0</ele><time>2026-05-02T07:24:06.873Z</time></trkpt><trkpt lat="43.773098770657754" lon="11.227195769030807"><ele>43.0</ele><time>2026-05-02T07:24:07.873Z</time></trkpt><trkpt lat="43.773112959634894" lon="11.227322569856991"><ele>43.0</ele><time>2026-05-02T07:24:08.873Z</time></trkpt><trkpt lat="43.77311939360206" lon="11.227429116116515"><ele>43.16666666666667</ele><time>2026-05-02T07:24:09.873Z</time></trkpt><trkpt lat="43.77314887534045" lon="11.22754747681033"><ele>43.333333333333336</ele><time>2026-05-02T07:24:10.873Z</time></trkpt><trkpt lat="43.77316528542399" lon="11.227673799559101"><ele>43.5</ele><time>2026-05-02T07:24:11.873Z</time></trkpt><trkpt lat="43.77317059562984" lon="11.227785335758648"><ele>43.666666666666664</ele><time>2026-05-02T07:24:12.873Z</time></trkpt><trkpt lat="43.77318696633668" lon="11.227916471192803"><ele>43.83333333333333</ele><time>2026-05-02T07:24:13.873Z</time></trkpt><trkpt lat="43.773189879700105" lon="11.228024583451328"><ele>44.0</ele><time>2026-05-02T07:24:14.873Z</time></trkpt><trkpt lat="43.77320015281677" lon="11.228117873775654"><ele>44.33333333333333</ele><time>2026-05-02T07:24:15.873Z</time></trkpt><trkpt lat="43.7732034657793" lon="11.228213053141587"><ele>44.666666666666664</ele><time>2026-05-02T07:24:16.873Z</time></trkpt><trkpt lat="43.77322129978906" lon="11.228366409629656"><ele>45.0</ele><time>2026-05-02T07:24:18.873Z</time></trkpt><trkpt lat="43.773238423204404" lon="11.228516540491748"><ele>45.333333333333336</ele><time>2026-05-02T07:24:20.873Z</time></trkpt><trkpt lat="43.77325153254665" lon="11.228623311524824"><ele>45.66666666666667</ele><time>2026-05-02T07:24:22.873Z</time></trkpt><trkpt lat="43.77328708906232" lon="11.228708513877265"><ele>46.0</ele><time>2026-05-02T07:25:03.871Z</time></trkpt><trkpt lat="43.77327534729652" lon="11.228850113868608"><ele>45.833333333333336</ele><time>2026-05-02T07:25:05.871Z</time></trkpt><trkpt lat="43.77327767243767" lon="11.229022970035341"><ele>45.66666666666667</ele><time>2026-05-02T07:25:07.871Z</time></trkpt><trkpt lat="43.77328281074525" lon="11.229117702069747"><ele>45.5</ele><time>2026-05-02T07:25:08.871Z</time></trkpt><trkpt lat="43.77328957025951" lon="11.229211094328578"><ele>45.333333333333336</ele><time>2026-05-02T07:25:09.87Z</time></trkpt><trkpt lat="43.7733017518262" lon="11.229316258552847"><ele>45.166666666666664</ele><time>2026-05-02T07:25:10.87Z</time></trkpt><trkpt lat="43.77330966580718" lon="11.229433759198626"><ele>45.0</ele><time>2026-05-02T07:25:11.87Z</time></trkpt><trkpt lat="43.77331904134958" lon="11.229549682294966"><ele>45.0</ele><time>2026-05-02T07:25:12.87Z</time></trkpt><trkpt lat="43.773325520983626" lon="11.229659372605468"><ele>45.0</ele><time>2026-05-02T07:25:13.87Z</time></trkpt><trkpt lat="43.77333513406234" lon="11.229777906735855"><ele>45.0</ele><time>2026-05-02T07:25:14.87Z</time></trkpt><trkpt lat="43.7733439464737" lon="11.229912132926978"><ele>45.0</ele><time>2026-05-02T07:25:15.87Z</time></trkpt><trkpt lat="43.77335795578616" lon="11.230025543611916"><ele>45.0</ele><time>2026-05-02T07:25:16.87Z</time></trkpt><trkpt lat="43.773360192431504" lon="11.230153827550952"><ele>45.0</ele><time>2026-05-02T07:25:17.87Z</time></trkpt><trkpt lat="43.77336677925427" lon="11.230276626767532"><ele>45.0</ele><time>2026-05-02T07:25:18.87Z</time></trkpt><trkpt lat="43.77337616811653" lon="11.230400628507345"><ele>45.0</ele><time>2026-05-02T07:25:19.87Z</time></trkpt><trkpt lat="43.773387502823496" lon="11.23053485994746"><ele>45.0</ele><time>2026-05-02T07:25:20.87Z</time></trkpt><trkpt lat="43.77339791210834" lon="11.230677362186286"><ele>45.0</ele><time>2026-05-02T07:25:21.87Z</time></trkpt><trkpt lat="43.77340796581322" lon="11.230825206353758"><ele>45.0</ele><time>2026-05-02T07:25:22.87Z</time></trkpt><trkpt lat="43.77341709881117" lon="11.230982493152123"><ele>45.0</ele><time>2026-05-02T07:25:23.87Z</time></trkpt><trkpt lat="43.773427446768515" lon="11.231139028228649"><ele>45.0</ele><time>2026-05-02T07:25:24.87Z</time></trkpt><trkpt lat="43.773446762167396" lon="11.231296434037331"><ele>45.0</ele><time>2026-05-02T07:25:25.87Z</time></trkpt><trkpt lat="43.77346284431249" lon="11.23145737055893"><ele>45.0</ele><time>2026-05-02T07:25:26.87Z</time></trkpt><trkpt lat="43.77347913390759" lon="11.23162869111369"><ele>45.0</ele><time>2026-05-02T07:25:27.87Z</time></trkpt><trkpt lat="43.77349565888067" lon="11.23179653219212"><ele>45.0</ele><time>2026-05-02T07:25:28.87Z</time></trkpt><trkpt lat="43.77351356291409" lon="11.231970995222875"><ele>45.0</ele><time>2026-05-02T07:25:29.87Z</time></trkpt><trkpt lat="43.773525360383395" lon="11.23213842963985"><ele>45.0</ele><time>2026-05-02T07:25:30.87Z</time></trkpt><trkpt lat="43.7735358201601" lon="11.232312500245603"><ele>45.0</ele><time>2026-05-02T07:25:31.869Z</time></trkpt><trkpt lat="43.77355540852652" lon="11.232492437845634"><ele>45.0</ele><time>2026-05-02T07:25:32.869Z</time></trkpt><trkpt lat="43.77357208052499" lon="11.232667774947535"><ele>45.0</ele><time>2026-05-02T07:25:33.869Z</time></trkpt><trkpt lat="43.77357924755624" lon="11.232847353736098"><ele>45.0</ele><time>2026-05-02T07:25:34.869Z</time></trkpt><trkpt lat="43.77358969150678" lon="11.233020061903359"><ele>44.8</ele><time>2026-05-02T07:25:35.869Z</time></trkpt><trkpt lat="43.773614312562295" lon="11.233184925683252"><ele>44.6</ele><time>2026-05-02T07:25:36.869Z</time></trkpt><trkpt lat="43.77363750029763" lon="11.233333208558516"><ele>44.400000000000006</ele><time>2026-05-02T07:25:37.869Z</time></trkpt><trkpt lat="43.77367788960679" lon="11.233470626825184"><ele>44.2</ele><time>2026-05-02T07:25:38.869Z</time></trkpt><trkpt lat="43.77371255868684" lon="11.233580052396968"><ele>44.0</ele><time>2026-05-02T07:25:39.869Z</time></trkpt><trkpt lat="43.77372529495424" lon="11.233681271944473"><ele>44.0</ele><time>2026-05-02T07:25:40.869Z</time></trkpt><trkpt lat="43.77372850300148" lon="11.233784953345994"><ele>44.0</ele><time>2026-05-02T07:25:41.869Z</time></trkpt><trkpt lat="43.77372386734153" lon="11.233879959958667"><ele>44.0</ele><time>2026-05-02T07:25:42.871Z</time></trkpt><trkpt lat="43.773723870955756" lon="11.233967906653936"><ele>44.0</ele><time>2026-05-02T07:25:43.871Z</time></trkpt><trkpt lat="43.77376276154902" lon="11.234133087633841"><ele>44.0</ele><time>2026-05-02T07:25:45.871Z</time></trkpt><trkpt lat="43.773839642647864" lon="11.234253273205837"><ele>44.0</ele><time>2026-05-02T07:25:47.871Z</time></trkpt><trkpt lat="43.773949813919074" lon="11.234306507357205"><ele>43.83333333333333</ele><time>2026-05-02T07:25:49.87Z</time></trkpt><trkpt lat="43.77401557731498" lon="11.234290625574138"><ele>43.666666666666664</ele><time>2026-05-02T07:25:50.87Z</time></trkpt><trkpt lat="43.77408382869843" lon="11.234281634316137"><ele>43.5</ele><time>2026-05-02T07:25:51.871Z</time></trkpt><trkpt lat="43.77416957507827" lon="11.23427249980618"><ele>43.333333333333336</ele><time>2026-05-02T07:25:52.871Z</time></trkpt><trkpt lat="43.77426439928766" lon="11.234284146471104"><ele>43.16666666666667</ele><time>2026-05-02T07:25:53.871Z</time></trkpt><trkpt lat="43.77436283068513" lon="11.234321226937391"><ele>43.0</ele><time>2026-05-02T07:25:54.871Z</time></trkpt><trkpt lat="43.774460834199886" lon="11.234377925041011"><ele>42.199999999999996</ele><time>2026-05-02T07:25:55.871Z</time></trkpt><trkpt lat="43.77456110315587" lon="11.23444312084501"><ele>41.4</ele><time>2026-05-02T07:25:56.871Z</time></trkpt><trkpt lat="43.774657241830795" lon="11.23449537775681"><ele>40.599999999999994</ele><time>2026-05-02T07:25:57.871Z</time></trkpt><trkpt lat="43.77476050895015" lon="11.23454813022457"><ele>39.8</ele><time>2026-05-02T07:25:58.871Z</time></trkpt><trkpt lat="43.77486493611688" lon="11.234606951679977"><ele>39.0</ele><time>2026-05-02T07:25:59.871Z</time></trkpt><trkpt lat="43.774969688429586" lon="11.234665044207334"><ele>39.0</ele><time>2026-05-02T07:26:00.871Z</time></trkpt><trkpt lat="43.775079061152525" lon="11.234721595392397"><ele>39.0</ele><time>2026-05-02T07:26:01.871Z</time></trkpt><trkpt lat="43.77518822540002" lon="11.2347779686872"><ele>39.0</ele><time>2026-05-02T07:26:02.871Z</time></trkpt><trkpt lat="43.77528192880217" lon="11.234836218148642"><ele>39.0</ele><time>2026-05-02T07:26:03.871Z</time></trkpt><trkpt lat="43.77537315527246" lon="11.234917853914764"><ele>39.0</ele><time>2026-05-02T07:26:04.87Z</time></trkpt><trkpt lat="43.77542512338005" lon="11.235027360117634"><ele>40.5</ele><time>2026-05-02T07:26:05.87Z</time></trkpt><trkpt lat="43.775471416701485" lon="11.235161614727135"><ele>42.0</ele><time>2026-05-02T07:26:06.87Z</time></trkpt><trkpt lat="43.77551405112785" lon="11.23531019110352"><ele>43.5</ele><time>2026-05-02T07:26:07.87Z</time></trkpt><trkpt lat="43.7755511929581" lon="11.235466613515642"><ele>45.0</ele><time>2026-05-02T07:26:08.87Z</time></trkpt><trkpt lat="43.77559919283809" lon="11.235629845572285"><ele>45.25</ele><time>2026-05-02T07:26:09.87Z</time></trkpt><trkpt lat="43.775650498123134" lon="11.235793937449191"><ele>45.5</ele><time>2026-05-02T07:26:10.87Z</time></trkpt><trkpt lat="43.77569581227381" lon="11.235964880190378"><ele>45.75</ele><time>2026-05-02T07:26:11.87Z</time></trkpt><trkpt lat="43.775752797423955" lon="11.236129875887835"><ele>46.0</ele><time>2026-05-02T07:26:12.87Z</time></trkpt><trkpt lat="43.77582872948104" lon="11.236266011514186"><ele>46.0</ele><time>2026-05-02T07:26:13.87Z</time></trkpt><trkpt lat="43.77591508826731" lon="11.236371023222201"><ele>46.0</ele><time>2026-05-02T07:26:14.87Z</time></trkpt><trkpt lat="43.776007572100745" lon="11.236452062517685"><ele>46.0</ele><time>2026-05-02T07:26:15.87Z</time></trkpt><trkpt lat="43.77610324770968" lon="11.236520122887676"><ele>46.0</ele><time>2026-05-02T07:26:16.87Z</time></trkpt><trkpt lat="43.776206851155955" lon="11.23659470525316"><ele>46.0</ele><time>2026-05-02T07:26:17.87Z</time></trkpt><trkpt lat="43.77633340438398" lon="11.23668295465874"><ele>46.0</ele><time>2026-05-02T07:26:18.87Z</time></trkpt><trkpt lat="43.77650768238293" lon="11.236818589570627"><ele>46.0</ele><time>2026-05-02T07:26:20.87Z</time></trkpt><trkpt lat="43.776568840572466" lon="11.23686626516514"><ele>46.0</ele><time>2026-05-02T07:26:21.87Z</time></trkpt><trkpt lat="43.77662424613575" lon="11.23691001822623"><ele>46.0</ele><time>2026-05-02T07:26:22.87Z</time></trkpt><trkpt lat="43.776725846481405" lon="11.236998399891581"><ele>46.0</ele><time>2026-05-02T07:26:24.87Z</time></trkpt><trkpt lat="43.77678720896819" lon="11.237068440134912"><ele>46.0</ele><time>2026-05-02T07:26:25.87Z</time></trkpt><trkpt lat="43.77684202032785" lon="11.237165624076672"><ele>46.0</ele><time>2026-05-02T07:26:26.869Z</time></trkpt><trkpt lat="43.77690653255296" lon="11.237263178417935"><ele>46.0</ele><time>2026-05-02T07:26:27.869Z</time></trkpt><trkpt lat="43.776969526243214" lon="11.237362408537102"><ele>46.0</ele><time>2026-05-02T07:26:28.869Z</time></trkpt><trkpt lat="43.777028315509625" lon="11.237462547289619"><ele>46.0</ele><time>2026-05-02T07:26:29.869Z</time></trkpt><trkpt lat="43.777081840186" lon="11.237550683113513"><ele>46.0</ele><time>2026-05-02T07:26:30.869Z</time></trkpt><trkpt lat="43.77712811547808" lon="11.237628094367139"><ele>46.0</ele><time>2026-05-02T07:26:31.869Z</time></trkpt><trkpt lat="43.77717157449858" lon="11.237697182470868"><ele>46.0</ele><time>2026-05-02T07:26:32.869Z</time></trkpt><trkpt lat="43.77721457373296" lon="11.237761871491369"><ele>46.0</ele><time>2026-05-02T07:26:33.869Z</time></trkpt><trkpt lat="43.77727431176094" lon="11.237904683510418"><ele>46.0</ele><time>2026-05-02T07:26:35.869Z</time></trkpt><trkpt lat="43.77732085905553" lon="11.238044607121841"><ele>46.0</ele><time>2026-05-02T07:26:37.869Z</time></trkpt><trkpt lat="43.77737415985683" lon="11.238166624896053"><ele>46.0</ele><time>2026-05-02T07:26:39.869Z</time></trkpt><trkpt lat="43.77742102739977" lon="11.23827299531205"><ele>46.0</ele><time>2026-05-02T07:26:41.869Z</time></trkpt><trkpt lat="43.77745563654799" lon="11.2383697834111"><ele>46.0</ele><time>2026-05-02T07:26:43.869Z</time></trkpt><trkpt lat="43.77747574136842" lon="11.238452828549777"><ele>46.0</ele><time>2026-05-02T07:26:47.869Z</time></trkpt><trkpt lat="43.777510644443076" lon="11.23857316087989"><ele>46.0</ele><time>2026-05-02T07:26:49.868Z</time></trkpt><trkpt lat="43.777538211744265" lon="11.238659345961763"><ele>46.0</ele><time>2026-05-02T07:26:50.868Z</time></trkpt><trkpt lat="43.77757412276991" lon="11.238769115289458"><ele>46.0</ele><time>2026-05-02T07:26:51.868Z</time></trkpt><trkpt lat="43.77761209453032" lon="11.238895728626991"><ele>46.0</ele><time>2026-05-02T07:26:52.868Z</time></trkpt><trkpt lat="43.77765047403022" lon="11.239016500141934"><ele>46.0</ele><time>2026-05-02T07:26:53.868Z</time></trkpt><trkpt lat="43.777689658768395" lon="11.23913393344373"><ele>46.0</ele><time>2026-05-02T07:26:54.868Z</time></trkpt><trkpt lat="43.777732654153084" lon="11.23925791743153"><ele>46.4</ele><time>2026-05-02T07:26:55.868Z</time></trkpt><trkpt lat="43.77777936136413" lon="11.239379209939075"><ele>46.8</ele><time>2026-05-02T07:26:56.868Z</time></trkpt><trkpt lat="43.777822889879246" lon="11.239506823560676"><ele>47.199999999999996</ele><time>2026-05-02T07:26:57.868Z</time></trkpt><trkpt lat="43.77787515754247" lon="11.239627567312054"><ele>47.599999999999994</ele><time>2026-05-02T07:26:58.868Z</time></trkpt><trkpt lat="43.777928951061796" lon="11.239748966010977"><ele>48.0</ele><time>2026-05-02T07:26:59.868Z</time></trkpt><trkpt lat="43.77798182668058" lon="11.23987152695507"><ele>48.0</ele><time>2026-05-02T07:27:00.868Z</time></trkpt><trkpt lat="43.77803286063945" lon="11.240002794628776"><ele>48.0</ele><time>2026-05-02T07:27:01.868Z</time></trkpt><trkpt lat="43.77807601232746" lon="11.240143156684583"><ele>48.0</ele><time>2026-05-02T07:27:02.868Z</time></trkpt><trkpt lat="43.7781135584082" lon="11.240280527965501"><ele>48.0</ele><time>2026-05-02T07:27:03.868Z</time></trkpt><trkpt lat="43.778150478229314" lon="11.240414455503828"><ele>48.0</ele><time>2026-05-02T07:27:04.868Z</time></trkpt><trkpt lat="43.77819809889763" lon="11.240544330887321"><ele>47.666666666666664</ele><time>2026-05-02T07:27:05.868Z</time></trkpt><trkpt lat="43.778235877350085" lon="11.240669527400453"><ele>47.333333333333336</ele><time>2026-05-02T07:27:06.868Z</time></trkpt><trkpt lat="43.77826857687966" lon="11.240775866858096"><ele>47.0</ele><time>2026-05-02T07:27:07.868Z</time></trkpt><trkpt lat="43.77829762868446" lon="11.240864710182965"><ele>46.66666666666667</ele><time>2026-05-02T07:27:08.868Z</time></trkpt><trkpt lat="43.77834101694538" lon="11.241009280996307"><ele>46.333333333333336</ele><time>2026-05-02T07:27:10.867Z</time></trkpt><trkpt lat="43.77836907934162" lon="11.241095491310995"><ele>46.0</ele><time>2026-05-02T07:27:12.867Z</time></trkpt><trkpt lat="43.77842518896877" lon="11.241215406188994"><ele>46.0</ele><time>2026-05-02T07:28:03.866Z</time></trkpt><trkpt lat="43.77844881428957" lon="11.24130163781985"><ele>46.0</ele><time>2026-05-02T07:28:04.866Z</time></trkpt><trkpt lat="43.778475883216636" lon="11.241402083545905"><ele>46.0</ele><time>2026-05-02T07:28:05.866Z</time></trkpt><trkpt lat="43.77850519111191" lon="11.241509618405606"><ele>46.0</ele><time>2026-05-02T07:28:06.866Z</time></trkpt><trkpt lat="43.7785366447539" lon="11.241627463818443"><ele>46.0</ele><time>2026-05-02T07:28:07.866Z</time></trkpt><trkpt lat="43.7785724176352" lon="11.241751734153295"><ele>46.0</ele><time>2026-05-02T07:28:08.866Z</time></trkpt><trkpt lat="43.77861364143081" lon="11.241877050733367"><ele>46.0</ele><time>2026-05-02T07:28:09.866Z</time></trkpt><trkpt lat="43.77865505483783" lon="11.242005714384618"><ele>46.0</ele><time>2026-05-02T07:28:10.866Z</time></trkpt><trkpt lat="43.77869901699697" lon="11.24213381680724"><ele>46.0</ele><time>2026-05-02T07:28:11.866Z</time></trkpt><trkpt lat="43.77874866056266" lon="11.242262924754613"><ele>46.0</ele><time>2026-05-02T07:28:12.866Z</time></trkpt><trkpt lat="43.77879293671692" lon="11.242393312426756"><ele>46.0</ele><time>2026-05-02T07:28:13.866Z</time></trkpt><trkpt lat="43.77883144303662" lon="11.242518339398096"><ele>46.4</ele><time>2026-05-02T07:28:14.866Z</time></trkpt><trkpt lat="43.77885617511648" lon="11.242648393894715"><ele>46.8</ele><time>2026-05-02T07:28:15.866Z</time></trkpt><trkpt lat="43.77887655152845" lon="11.24278896047073"><ele>47.199999999999996</ele><time>2026-05-02T07:28:16.866Z</time></trkpt><trkpt lat="43.778903384313125" lon="11.242928153754946"><ele>47.599999999999994</ele><time>2026-05-02T07:28:17.866Z</time></trkpt><trkpt lat="43.77894232408005" lon="11.243067961529489"><ele>48.0</ele><time>2026-05-02T07:28:18.866Z</time></trkpt><trkpt lat="43.77898738232782" lon="11.243212138868865"><ele>48.0</ele><time>2026-05-02T07:28:19.865Z</time></trkpt><trkpt lat="43.779031695297824" lon="11.243350861168523"><ele>48.0</ele><time>2026-05-02T07:28:20.865Z</time></trkpt><trkpt lat="43.77907975458501" lon="11.243494760489332"><ele>48.0</ele><time>2026-05-02T07:28:21.865Z</time></trkpt><trkpt lat="43.77912334164702" lon="11.243641738137745"><ele>48.0</ele><time>2026-05-02T07:28:22.865Z</time></trkpt><trkpt lat="43.77916975891336" lon="11.243791004393577"><ele>48.0</ele><time>2026-05-02T07:28:23.865Z</time></trkpt><trkpt lat="43.7792161532049" lon="11.243933854234978"><ele>48.0</ele><time>2026-05-02T07:28:24.865Z</time></trkpt><trkpt lat="43.77925622450379" lon="11.244079605579312"><ele>48.0</ele><time>2026-05-02T07:28:25.865Z</time></trkpt><trkpt lat="43.77930632463946" lon="11.244190965110946"><ele>48.0</ele><time>2026-05-02T07:28:26.865Z</time></trkpt><trkpt lat="43.77936478246302" lon="11.244336790581906"><ele>48.0</ele><time>2026-05-02T07:28:27.865Z</time></trkpt><trkpt lat="43.7794132389125" lon="11.244476505475008"><ele>48.4</ele><time>2026-05-02T07:28:28.865Z</time></trkpt><trkpt lat="43.77945510635205" lon="11.24461528802046"><ele>48.8</ele><time>2026-05-02T07:28:29.865Z</time></trkpt><trkpt lat="43.779493816605054" lon="11.244754472634444"><ele>49.2</ele><time>2026-05-02T07:28:30.865Z</time></trkpt><trkpt lat="43.779535758026434" lon="11.244889085493938"><ele>49.6</ele><time>2026-05-02T07:28:31.865Z</time></trkpt><trkpt lat="43.77957553163802" lon="11.245009442730378"><ele>50.0</ele><time>2026-05-02T07:28:32.865Z</time></trkpt><trkpt lat="43.77961742167702" lon="11.24513806597532"><ele>50.0</ele><time>2026-05-02T07:28:33.865Z</time></trkpt><trkpt lat="43.77965778684014" lon="11.24527405094759"><ele>50.0</ele><time>2026-05-02T07:28:34.865Z</time></trkpt><trkpt lat="43.779686612872545" lon="11.24541977996251"><ele>50.0</ele><time>2026-05-02T07:28:35.865Z</time></trkpt><trkpt lat="43.779694987255965" lon="11.24555785996805"><ele>50.0</ele><time>2026-05-02T07:28:36.865Z</time></trkpt><trkpt lat="43.779699659233835" lon="11.245686356556654"><ele>50.0</ele><time>2026-05-02T07:28:37.865Z</time></trkpt><trkpt lat="43.77969802601712" lon="11.245814317535704"><ele>49.8</ele><time>2026-05-02T07:28:38.865Z</time></trkpt><trkpt lat="43.77969035114173" lon="11.245939396215336"><ele>49.6</ele><time>2026-05-02T07:28:39.865Z</time></trkpt><trkpt lat="43.779683878761915" lon="11.246066760272772"><ele>49.400000000000006</ele><time>2026-05-02T07:28:40.865Z</time></trkpt><trkpt lat="43.779679883436614" lon="11.246196238950887"><ele>49.2</ele><time>2026-05-02T07:28:41.864Z</time></trkpt><trkpt lat="43.77967796760253" lon="11.246326903432298"><ele>49.0</ele><time>2026-05-02T07:28:42.864Z</time></trkpt><trkpt lat="43.7796792919783" lon="11.246464641174617"><ele>49.0</ele><time>2026-05-02T07:28:43.864Z</time></trkpt><trkpt lat="43.77968084666353" lon="11.24658777528275"><ele>49.0</ele><time>2026-05-02T07:28:44.864Z</time></trkpt><trkpt lat="43.77968268266596" lon="11.246713136200983"><ele>49.0</ele><time>2026-05-02T07:28:45.864Z</time></trkpt><trkpt lat="43.77968445984912" lon="11.246078347179317"><ele>49.0</ele><time>2026-05-02T07:28:46.864Z</time></trkpt><trkpt lat="43.77969529613556" lon="11.247424607760601"><ele>49.0</ele><time>2026-05-02T07:28:50.864Z</time></trkpt><trkpt lat="43.779739964424245" lon="11.247603015515082"><ele>49.0</ele><time>2026-05-02T07:28:51.864Z</time></trkpt><trkpt lat="43.7797876835292" lon="11.24772576880482"><ele>49.0</ele><time>2026-05-02T07:28:52.864Z</time></trkpt><trkpt lat="43.77983172730012" lon="11.247866568940227"><ele>49.0</ele><time>2026-05-02T07:28:53.864Z</time></trkpt><trkpt lat="43.77988158360026" lon="11.247999975166566"><ele>49.25</ele><time>2026-05-02T07:28:54.864Z</time></trkpt><trkpt lat="43.77993415813232" lon="11.248135202504619"><ele>49.5</ele><time>2026-05-02T07:28:55.864Z</time></trkpt><trkpt lat="43.7800187485922" lon="11.248279631730544"><ele>49.75</ele><time>2026-05-02T07:28:56.864Z</time></trkpt><trkpt lat="43.78006745035262" lon="11.248409492412502"><ele>50.0</ele><time>2026-05-02T07:28:57.864Z</time></trkpt><trkpt lat="43.7801094839434" lon="11.24854191753968"><ele>50.0</ele><time>2026-05-02T07:28:58.864Z</time></trkpt><trkpt lat="43.780153266557825" lon="11.248679340787204"><ele>50.0</ele><time>2026-05-02T07:28:59.864Z</time></trkpt><trkpt lat="43.780197195757665" lon="11.248819193960284"><ele>50.0</ele><time>2026-05-02T07:29:00.864Z</time></trkpt><trkpt lat="43.78024157332523" lon="11.248959486575869"><ele>50.0</ele><time>2026-05-02T07:29:01.864Z</time></trkpt><trkpt lat="43.780287901565785" lon="11.249099479877444"><ele>50.0</ele><time>2026-05-02T07:29:02.864Z</time></trkpt><trkpt lat="43.780331849727524" lon="11.249241130159517"><ele>50.2</ele><time>2026-05-02T07:29:03.863Z</time></trkpt><trkpt lat="43.7803772684618" lon="11.249375773360658"><ele>50.4</ele><time>2026-05-02T07:29:04.863Z</time></trkpt><trkpt lat="43.78042209106535" lon="11.249508602779205"><ele>50.599999999999994</ele><time>2026-05-02T07:29:05.863Z</time></trkpt><trkpt lat="43.78045994234307" lon="11.249641344828962"><ele>50.8</ele><time>2026-05-02T07:29:06.863Z</time></trkpt><trkpt lat="43.7804956345275" lon="11.249777661338818"><ele>51.0</ele><time>2026-05-02T07:29:07.863Z</time></trkpt><trkpt lat="43.78053077095385" lon="11.249912770720632"><ele>51.0</ele><time>2026-05-02T07:29:08.863Z</time></trkpt><trkpt lat="43.78056822696282" lon="11.25004456924572"><ele>51.0</ele><time>2026-05-02T07:29:09.863Z</time></trkpt><trkpt lat="43.78060086557089" lon="11.250192684545402"><ele>51.0</ele><time>2026-05-02T07:29:10.863Z</time></trkpt><trkpt lat="43.780647227436354" lon="11.250444892015855"><ele>51.0</ele><time>2026-05-02T07:29:11.863Z</time></trkpt><trkpt lat="43.780694280773474" lon="11.25057729218522"><ele>50.8</ele><time>2026-05-02T07:29:12.863Z</time></trkpt><trkpt lat="43.78073003546793" lon="11.250732600253052"><ele>50.599999999999994</ele><time>2026-05-02T07:29:13.863Z</time></trkpt><trkpt lat="43.78076570449385" lon="11.25088541548906"><ele>50.4</ele><time>2026-05-02T07:29:14.863Z</time></trkpt><trkpt lat="43.78079026849109" lon="11.251031056219405"><ele>50.2</ele><time>2026-05-02T07:29:15.863Z</time></trkpt><trkpt lat="43.780815480247256" lon="11.251165844578386"><ele>50.0</ele><time>2026-05-02T07:29:16.863Z</time></trkpt><trkpt lat="43.78083527257644" lon="11.251290319052274"><ele>50.00000000000001</ele><time>2026-05-02T07:29:17.863Z</time></trkpt><trkpt lat="43.78085448755054" lon="11.25141433812516"><ele>50.0</ele><time>2026-05-02T07:29:18.863Z</time></trkpt><trkpt lat="43.780873240332156" lon="11.251532310539595"><ele>50.0</ele><time>2026-05-02T07:29:19.863Z</time></trkpt><trkpt lat="43.78088664273035" lon="11.25163979600511"><ele>50.0</ele><time>2026-05-02T07:29:20.863Z</time></trkpt><trkpt lat="43.78090006993625" lon="11.25173435372387"><ele>50.00000000000001</ele><time>2026-05-02T07:29:21.863Z</time></trkpt><trkpt lat="43.7809332752926" lon="11.251889526834875"><ele>50.0</ele><time>2026-05-02T07:29:23.863Z</time></trkpt><trkpt lat="43.78095873838603" lon="11.251978193492404"><ele>50.4</ele><time>2026-05-02T07:29:24.863Z</time></trkpt><trkpt lat="43.78100061955395" lon="11.252067828522751"><ele>50.8</ele><time>2026-05-02T07:29:26.862Z</time></trkpt><trkpt lat="43.781045617853124" lon="11.252158957484896"><ele>51.2</ele><time>2026-05-02T07:29:28.862Z</time></trkpt><trkpt lat="43.78113227904586" lon="11.252240779800204"><ele>51.6</ele><time>2026-05-02T07:29:30.862Z</time></trkpt><trkpt lat="43.78123386211049" lon="11.252338750448583"><ele>52.0</ele><time>2026-05-02T07:29:32.862Z</time></trkpt><trkpt lat="43.78129152419789" lon="11.252386205890936"><ele>52.33333333333333</ele><time>2026-05-02T07:29:33.862Z</time></trkpt><trkpt lat="43.78134788288131" lon="11.252440172012841"><ele>52.666666666666664</ele><time>2026-05-02T07:29:34.862Z</time></trkpt><trkpt lat="43.78140992323955" lon="11.252493783706473"><ele>53.0</ele><time>2026-05-02T07:29:35.862Z</time></trkpt><trkpt lat="43.781507773180024" lon="11.25257268030024"><ele>53.33333333333333</ele><time>2026-05-02T07:29:37.862Z</time></trkpt><trkpt lat="43.781572145960176" lon="11.252621094995163"><ele>53.666666666666664</ele><time>2026-05-02T07:29:40.862Z</time></trkpt><trkpt lat="43.7816353236294" lon="11.252661275071477"><ele>54.0</ele><time>2026-05-02T07:30:33.861Z</time></trkpt><trkpt lat="43.781742401462104" lon="11.252725886886266"><ele>53.800000000000004</ele><time>2026-05-02T07:30:35.861Z</time></trkpt><trkpt lat="43.78187099249457" lon="11.252765412212003"><ele>53.60000000000001</ele><time>2026-05-02T07:30:37.861Z</time></trkpt><trkpt lat="43.781937254293865" lon="11.252772950906374"><ele>53.4</ele><time>2026-05-02T07:30:38.861Z</time></trkpt><trkpt lat="43.782069096073386" lon="11.252808702296704"><ele>53.2</ele><time>2026-05-02T07:30:40.861Z</time></trkpt><trkpt lat="43.78213896106251" lon="11.252786603742198"><ele>53.0</ele><time>2026-05-02T07:30:41.861Z</time></trkpt><trkpt lat="43.78219498645757" lon="11.252699336316754"><ele>53.00000000000001</ele><time>2026-05-02T07:30:42.861Z</time></trkpt><trkpt lat="43.78226280821995" lon="11.25266769760761"><ele>53.0</ele><time>2026-05-02T07:30:43.861Z</time></trkpt><trkpt lat="43.78233063574798" lon="11.252632711659578"><ele>53.0</ele><time>2026-05-02T07:30:44.861Z</time></trkpt><trkpt lat="43.782400071802975" lon="11.252603314938241"><ele>53.0</ele><time>2026-05-02T07:30:45.861Z</time></trkpt><trkpt lat="43.78250430838027" lon="11.252564511363698"><ele>53.00000000000001</ele><time>2026-05-02T07:30:47.861Z</time></trkpt><trkpt lat="43.782581842009506" lon="11.252580420473798"><ele>53.0</ele><time>2026-05-02T07:30:49.861Z</time></trkpt><trkpt lat="43.78261567002388" lon="11.252659467983262"><ele>53.00000000000001</ele><time>2026-05-02T07:30:50.86Z</time></trkpt><trkpt lat="43.78263600193483" lon="11.25275045057974"><ele>53.0</ele><time>2026-05-02T07:30:51.86Z</time></trkpt><trkpt lat="43.7827031950693" lon="11.252817388658949"><ele>53.0</ele><time>2026-05-02T07:30:52.86Z</time></trkpt><trkpt lat="43.782728881043525" lon="11.252915677047618"><ele>53.0</ele><time>2026-05-02T07:30:53.86Z</time></trkpt><trkpt lat="43.78275715169555" lon="11.2530238558108"><ele>53.00000000000001</ele><time>2026-05-02T07:30:54.86Z</time></trkpt><trkpt lat="43.782789597752185" lon="11.253149226577964"><ele>53.0</ele><time>2026-05-02T07:30:55.86Z</time></trkpt><trkpt lat="43.78281092440647" lon="11.253292404914005"><ele>54.0</ele><time>2026-05-02T07:30:56.86Z</time></trkpt><trkpt lat="43.78286498576139" lon="11.253423474918947"><ele>55.0</ele><time>2026-05-02T07:30:57.86Z</time></trkpt><trkpt lat="43.78290369693647" lon="11.253565627481795"><ele>56.0</ele><time>2026-05-02T07:30:58.86Z</time></trkpt><trkpt lat="43.7829319321004" lon="11.25370302100184"><ele>57.0</ele><time>2026-05-02T07:30:59.86Z</time></trkpt><trkpt lat="43.7829587793256" lon="11.253827230254323"><ele>58.0</ele><time>2026-05-02T07:31:00.86Z</time></trkpt><trkpt lat="43.782983213680374" lon="11.253944910116841"><ele>57.83333333333333</ele><time>2026-05-02T07:31:01.86Z</time></trkpt><trkpt lat="43.783007046419904" lon="11.254049556787681"><ele>57.666666666666664</ele><time>2026-05-02T07:31:02.86Z</time></trkpt><trkpt lat="43.783050041165986" lon="11.254142814927697"><ele>57.5</ele><time>2026-05-02T07:31:03.86Z</time></trkpt><trkpt lat="43.78307915060098" lon="11.254251239540073"><ele>57.33333333333333</ele><time>2026-05-02T07:31:04.86Z</time></trkpt><trkpt lat="43.783106749684556" lon="11.254336508301842"><ele>57.166666666666664</ele><time>2026-05-02T07:31:05.86Z</time></trkpt><trkpt lat="43.783136703095195" lon="11.254438442763611"><ele>57.0</ele><time>2026-05-02T07:31:07.86Z</time></trkpt><trkpt lat="43.783159491813564" lon="11.254529500612263"><ele>57.0</ele><time>2026-05-02T07:31:27.859Z</time></trkpt><trkpt lat="43.78319514486968" lon="11.254673975417965"><ele>57.0</ele><time>2026-05-02T07:31:29.859Z</time></trkpt><trkpt lat="43.78321704883867" lon="11.25476121782686"><ele>57.0</ele><time>2026-05-02T07:31:30.859Z</time></trkpt><trkpt lat="43.78324094565773" lon="11.254856925476378"><ele>57.0</ele><time>2026-05-02T07:31:31.859Z</time></trkpt><trkpt lat="43.78325936682592" lon="11.254969520077124"><ele>57.0</ele><time>2026-05-02T07:31:32.859Z</time></trkpt><trkpt lat="43.78328947627552" lon="11.255090580896027"><ele>57.0</ele><time>2026-05-02T07:31:33.859Z</time></trkpt><trkpt lat="43.78332147287118" lon="11.255215213302709"><ele>57.0</ele><time>2026-05-02T07:31:34.858Z</time></trkpt><trkpt lat="43.78335845594169" lon="11.255325298631696"><ele>57.0</ele><time>2026-05-02T07:31:35.858Z</time></trkpt><trkpt lat="43.78339467971414" lon="11.255446109532185"><ele>57.0</ele><time>2026-05-02T07:31:36.858Z</time></trkpt><trkpt lat="43.78342975159721" lon="11.255571244489209"><ele>57.0</ele><time>2026-05-02T07:31:37.858Z</time></trkpt><trkpt lat="43.78346494828472" lon="11.255707864409958"><ele>57.0</ele><time>2026-05-02T07:31:38.858Z</time></trkpt><trkpt lat="43.7835034894575" lon="11.255856990360279"><ele>57.5</ele><time>2026-05-02T07:31:39.858Z</time></trkpt><trkpt lat="43.78353904684698" lon="11.256000037535326"><ele>58.0</ele><time>2026-05-02T07:31:40.858Z</time></trkpt><trkpt lat="43.78358156165495" lon="11.256155947260382"><ele>58.5</ele><time>2026-05-02T07:31:41.858Z</time></trkpt><trkpt lat="43.783621402695005" lon="11.256308155503568"><ele>59.0</ele><time>2026-05-02T07:31:42.858Z</time></trkpt><trkpt lat="43.783660481765786" lon="11.256448581832535"><ele>58.6</ele><time>2026-05-02T07:31:43.858Z</time></trkpt><trkpt lat="43.783695691341116" lon="11.256586403118039"><ele>58.2</ele><time>2026-05-02T07:31:44.858Z</time></trkpt><trkpt lat="43.78373255008581" lon="11.256726608847446"><ele>57.800000000000004</ele><time>2026-05-02T07:31:45.858Z</time></trkpt><trkpt lat="43.78376932873386" lon="11.256870684205277"><ele>57.400000000000006</ele><time>2026-05-02T07:31:46.858Z</time></trkpt><trkpt lat="43.78380572484563" lon="11.257016482580035"><ele>57.0</ele><time>2026-05-02T07:31:47.858Z</time></trkpt><trkpt lat="43.78384965209516" lon="11.257166412246495"><ele>58.0</ele><time>2026-05-02T07:31:48.858Z</time></trkpt><trkpt lat="43.783874696535676" lon="11.257320622218863"><ele>59.0</ele><time>2026-05-02T07:31:49.858Z</time></trkpt><trkpt lat="43.783919607741055" lon="11.25747401965833"><ele>60.0</ele><time>2026-05-02T07:31:50.858Z</time></trkpt><trkpt lat="43.78395041647458" lon="11.257637071656314"><ele>61.0</ele><time>2026-05-02T07:31:51.858Z</time></trkpt><trkpt lat="43.78398376433065" lon="11.257797711859494"><ele>61.0</ele><time>2026-05-02T07:31:52.858Z</time></trkpt><trkpt lat="43.78401660600827" lon="11.257947386072695"><ele>60.99999999999999</ele><time>2026-05-02T07:31:53.858Z</time></trkpt><trkpt lat="43.784052299120916" lon="11.258091816209866"><ele>60.99999999999999</ele><time>2026-05-02T07:31:54.858Z</time></trkpt><trkpt lat="43.78409038002491" lon="11.258237109474516"><ele>61.0</ele><time>2026-05-02T07:31:55.858Z</time></trkpt><trkpt lat="43.7841255903145" lon="11.258376658501957"><ele>61.0</ele><time>2026-05-02T07:31:56.857Z</time></trkpt><trkpt lat="43.78416568138718" lon="11.258522068560929"><ele>61.33333333333333</ele><time>2026-05-02T07:31:57.857Z</time></trkpt><trkpt lat="43.78420598139423" lon="11.258674072629475"><ele>61.66666666666667</ele><time>2026-05-02T07:31:58.857Z</time></trkpt><trkpt lat="43.78424166200302" lon="11.258822901888792"><ele>62.0</ele><time>2026-05-02T07:31:59.857Z</time></trkpt><trkpt lat="43.784325396006906" lon="11.259134455267645"><ele>62.0</ele><time>2026-05-02T07:32:01.859Z</time></trkpt><trkpt lat="43.784373472513636" lon="11.259295063639266"><ele>62.0</ele><time>2026-05-02T07:32:02.859Z</time></trkpt><trkpt lat="43.784418678262135" lon="11.259457914374552"><ele>62.0</ele><time>2026-05-02T07:32:03.859Z</time></trkpt><trkpt lat="43.78446377952523" lon="11.25962000455098"><ele>62.0</ele><time>2026-05-02T07:32:04.859Z</time></trkpt><trkpt lat="43.7845055578417" lon="11.259781190464695"><ele>61.5</ele><time>2026-05-02T07:32:05.859Z</time></trkpt><trkpt lat="43.784548753467845" lon="11.259943578352319"><ele>61.0</ele><time>2026-05-02T07:32:06.859Z</time></trkpt><trkpt lat="43.784588291592506" lon="11.260100683709418"><ele>60.5</ele><time>2026-05-02T07:32:07.859Z</time></trkpt><trkpt lat="43.784629786579494" lon="11.260260706191927"><ele>60.0</ele><time>2026-05-02T07:32:08.859Z</time></trkpt><trkpt lat="43.78467068008528" lon="11.260426529843464"><ele>60.0</ele><time>2026-05-02T07:32:09.859Z</time></trkpt><trkpt lat="43.78470854693105" lon="11.260588556757863"><ele>60.0</ele><time>2026-05-02T07:32:10.859Z</time></trkpt><trkpt lat="43.78474282387597" lon="11.26073312450083"><ele>60.0</ele><time>2026-05-02T07:32:11.859Z</time></trkpt><trkpt lat="43.784774007931496" lon="11.260865483731163"><ele>60.0</ele><time>2026-05-02T07:32:12.859Z</time></trkpt><trkpt lat="43.78479976599162" lon="11.260994594102296"><ele>60.0</ele><time>2026-05-02T07:32:13.858Z</time></trkpt><trkpt lat="43.78481162619472" lon="11.26111286204348"><ele>59.833333333333336</ele><time>2026-05-02T07:32:14.858Z</time></trkpt><trkpt lat="43.78479592023754" lon="11.26121586825439"><ele>59.66666666666667</ele><time>2026-05-02T07:32:15.858Z</time></trkpt><trkpt lat="43.784799138260276" lon="11.261318480646505"><ele>59.5</ele><time>2026-05-02T07:32:16.858Z</time></trkpt><trkpt lat="43.78473325803358" lon="11.261421767871177"><ele>59.333333333333336</ele><time>2026-05-02T07:32:17.858Z</time></trkpt><trkpt lat="43.78469647476206" lon="11.2615258956357"><ele>59.16666666666667</ele><time>2026-05-02T07:32:18.858Z</time></trkpt><trkpt lat="43.784662353678954" lon="11.261625197028335"><ele>59.0</ele><time>2026-05-02T07:32:20.858Z</time></trkpt><trkpt lat="43.784623500511096" lon="11.261751340879023"><ele>59.0</ele><time>2026-05-02T07:33:47.854Z</time></trkpt><trkpt lat="43.78457745452768" lon="11.261902986931354"><ele>59.00000000000001</ele><time>2026-05-02T07:33:49.854Z</time></trkpt><trkpt lat="43.784523942832394" lon="11.262054942740393"><ele>59.00000000000001</ele><time>2026-05-02T07:33:51.854Z</time></trkpt><trkpt lat="43.78449013534132" lon="11.262140525589619"><ele>59.0</ele><time>2026-05-02T07:33:52.854Z</time></trkpt><trkpt lat="43.78445145988954" lon="11.262231355726678"><ele>59.0</ele><time>2026-05-02T07:33:53.854Z</time></trkpt><trkpt lat="43.78441384123712" lon="11.262326766025021"><ele>58.833333333333336</ele><time>2026-05-02T07:33:54.854Z</time></trkpt><trkpt lat="43.78437950363731" lon="11.262424594332236"><ele>58.66666666666667</ele><time>2026-05-02T07:33:55.854Z</time></trkpt><trkpt lat="43.784342078303084" lon="11.26252149690793"><ele>58.5</ele><time>2026-05-02T07:33:56.854Z</time></trkpt><trkpt lat="43.78430688956523" lon="11.262622638673454"><ele>58.33333333333333</ele><time>2026-05-02T07:33:57.854Z</time></trkpt><trkpt lat="43.784274163471444" lon="11.262714359340125"><ele>58.166666666666664</ele><time>2026-05-02T07:33:58.854Z</time></trkpt><trkpt lat="43.78422582290704" lon="11.262859891089365"><ele>58.0</ele><time>2026-05-02T07:34:00.854Z</time></trkpt><trkpt lat="43.78419106585908" lon="11.262942849703409"><ele>57.83333333333333</ele><time>2026-05-02T07:34:02.853Z</time></trkpt><trkpt lat="43.784151410725315" lon="11.263021282683273"><ele>57.666666666666664</ele><time>2026-05-02T07:34:25.854Z</time></trkpt><trkpt lat="43.784103337660596" lon="11.263155253719862"><ele>57.5</ele><time>2026-05-02T07:34:27.854Z</time></trkpt><trkpt lat="43.78406655190191" lon="11.263251969198214"><ele>57.33333333333333</ele><time>2026-05-02T07:34:29.854Z</time></trkpt><trkpt lat="43.784122044660556" lon="11.263365624308918"><ele>57.166666666666664</ele><time>2026-05-02T07:34:30.854Z</time></trkpt><trkpt lat="43.784157368867994" lon="11.26344882245436"><ele>57.0</ele><time>2026-05-02T07:34:31.854Z</time></trkpt><trkpt lat="43.784192132797074" lon="11.263528141544512"><ele>57.6</ele><time>2026-05-02T07:34:32.854Z</time></trkpt><trkpt lat="43.78423436411109" lon="11.26361922363941"><ele>58.2</ele><time>2026-05-02T07:34:33.854Z</time></trkpt><trkpt lat="43.78429537250797" lon="11.263707440076592"><ele>58.8</ele><time>2026-05-02T07:34:34.854Z</time></trkpt><trkpt lat="43.7843434772436" lon="11.263820486544518"><ele>59.4</ele><time>2026-05-02T07:34:35.854Z</time></trkpt><trkpt lat="43.784393953879814" lon="11.2639384371267"><ele>60.0</ele><time>2026-05-02T07:34:36.854Z</time></trkpt><trkpt lat="43.784448929602654" lon="11.264046350461468"><ele>60.4</ele><time>2026-05-02T07:34:37.854Z</time></trkpt><trkpt lat="43.78449763249324" lon="11.264150436097934"><ele>60.8</ele><time>2026-05-02T07:34:38.854Z</time></trkpt><trkpt lat="43.78455081206895" lon="11.264256129032821"><ele>61.2</ele><time>2026-05-02T07:34:39.854Z</time></trkpt><trkpt lat="43.78460246303732" lon="11.264361830102054"><ele>61.6</ele><time>2026-05-02T07:34:40.854Z</time></trkpt><trkpt lat="43.784640131550596" lon="11.264485564415905"><ele>62.0</ele><time>2026-05-02T07:34:41.854Z</time></trkpt><trkpt lat="43.78469819035996" lon="11.264589915212362"><ele>62.0</ele><time>2026-05-02T07:34:42.854Z</time></trkpt><trkpt lat="43.78474623964481" lon="11.264699669978903"><ele>62.0</ele><time>2026-05-02T07:34:43.854Z</time></trkpt><trkpt lat="43.78479176101139" lon="11.264821043634084"><ele>62.0</ele><time>2026-05-02T07:34:44.854Z</time></trkpt><trkpt lat="43.784841415150844" lon="11.26492736498826"><ele>62.0</ele><time>2026-05-02T07:34:45.853Z</time></trkpt><trkpt lat="43.78489154344617" lon="11.265031944325694"><ele>62.0</ele><time>2026-05-02T07:34:46.853Z</time></trkpt><trkpt lat="43.78494360798872" lon="11.265133595727054"><ele>62.2</ele><time>2026-05-02T07:34:47.853Z</time></trkpt><trkpt lat="43.78499600607865" lon="11.265242810866223"><ele>62.400000000000006</ele><time>2026-05-02T07:34:48.853Z</time></trkpt><trkpt lat="43.785050715990515" lon="11.265350679649258"><ele>62.599999999999994</ele><time>2026-05-02T07:34:49.853Z</time></trkpt><trkpt lat="43.785105218201984" lon="11.26546190063848"><ele>62.8</ele><time>2026-05-02T07:34:50.853Z</time></trkpt><trkpt lat="43.7851535080055" lon="11.265561360205233"><ele>63.0</ele><time>2026-05-02T07:34:51.853Z</time></trkpt><trkpt lat="43.7851980333401" lon="11.265650033727004"><ele>62.599999999999994</ele><time>2026-05-02T07:34:52.853Z</time></trkpt><trkpt lat="43.785268878225445" lon="11.265771087936676"><ele>62.199999999999996</ele><time>2026-05-02T07:34:54.853Z</time></trkpt><trkpt lat="43.78531064142677" lon="11.265864279228929"><ele>61.8</ele><time>2026-05-02T07:34:57.853Z</time></trkpt><trkpt lat="43.78535285055543" lon="11.265949976067569"><ele>61.4</ele><time>2026-05-02T07:35:02.853Z</time></trkpt><trkpt lat="43.78539976061397" lon="11.266044557318654"><ele>61.0</ele><time>2026-05-02T07:35:05.853Z</time></trkpt><trkpt lat="43.78555599625317" lon="11.266088905737591"><ele>61.0</ele><time>2026-05-02T07:35:08.852Z</time></trkpt><trkpt lat="43.78561472336645" lon="11.266037259485417"><ele>60.99999999999999</ele><time>2026-05-02T07:35:10.852Z</time></trkpt><trkpt lat="43.785705050728815" lon="11.265956473785756"><ele>60.99999999999999</ele><time>2026-05-02T07:35:12.852Z</time></trkpt><trkpt lat="43.78578293755775" lon="11.265856650158138"><ele>61.0</ele><time>2026-05-02T07:35:14.852Z</time></trkpt><trkpt lat="43.78587040650812" lon="11.265792055034824"><ele>61.0</ele><time>2026-05-02T07:35:16.852Z</time></trkpt><trkpt lat="43.78592585888927" lon="11.265709832613695"><ele>60.199999999999996</ele><time>2026-05-02T07:35:18.852Z</time></trkpt><trkpt lat="43.78608062355121" lon="11.26559068532821"><ele>59.39999999999999</ele><time>2026-05-02T07:36:48.875Z</time></trkpt><trkpt lat="43.78613917826042" lon="11.265533981364872"><ele>58.6</ele><time>2026-05-02T07:36:49.875Z</time></trkpt><trkpt lat="43.78620016087173" lon="11.265472943216206"><ele>57.8</ele><time>2026-05-02T07:36:50.875Z</time></trkpt><trkpt lat="43.7862588777999" lon="11.265407174633093"><ele>57.0</ele><time>2026-05-02T07:36:51.875Z</time></trkpt><trkpt lat="43.78631480064961" lon="11.26532790995552"><ele>57.0</ele><time>2026-05-02T07:36:52.875Z</time></trkpt><trkpt lat="43.786360103683904" lon="11.265252254439352"><ele>56.99999999999999</ele><time>2026-05-02T07:36:53.875Z</time></trkpt><trkpt lat="43.78640139818338" lon="11.265183293313324"><ele>57.0</ele><time>2026-05-02T07:36:54.875Z</time></trkpt><trkpt lat="43.786444385429434" lon="11.265101960630195"><ele>57.0</ele><time>2026-05-02T07:36:55.875Z</time></trkpt><trkpt lat="43.78648970318017" lon="11.265011745329698"><ele>56.99999999999999</ele><time>2026-05-02T07:36:56.875Z</time></trkpt><trkpt lat="43.78652896448438" lon="11.264933586980895"><ele>57.0</ele><time>2026-05-02T07:36:57.875Z</time></trkpt><trkpt lat="43.78655566750434" lon="11.264839936413944"><ele>57.0</ele><time>2026-05-02T07:36:58.875Z</time></trkpt><trkpt lat="43.78653074247399" lon="11.264726093975426"><ele>57.0</ele><time>2026-05-02T07:36:59.875Z</time></trkpt><trkpt lat="43.78652222968957" lon="11.264619493452194"><ele>57.0</ele><time>2026-05-02T07:37:00.875Z</time></trkpt><trkpt lat="43.78648915556959" lon="11.264496151020927"><ele>57.0</ele><time>2026-05-02T07:37:01.875Z</time></trkpt><trkpt lat="43.78646127259366" lon="11.264369232937794"><ele>57.0</ele><time>2026-05-02T07:37:02.875Z</time></trkpt><trkpt lat="43.78644113317886" lon="11.26423583558264"><ele>57.0</ele><time>2026-05-02T07:37:03.875Z</time></trkpt><trkpt lat="43.786413920746114" lon="11.264096497661885"><ele>57.0</ele><time>2026-05-02T07:37:04.875Z</time></trkpt><trkpt lat="43.78638059767025" lon="11.263961896257717"><ele>57.0</ele><time>2026-05-02T07:37:05.875Z</time></trkpt><trkpt lat="43.78635477754588" lon="11.263823373174102"><ele>57.0</ele><time>2026-05-02T07:37:06.875Z</time></trkpt><trkpt lat="43.786324780050315" lon="11.263677451632763"><ele>57.0</ele><time>2026-05-02T07:37:07.875Z</time></trkpt><trkpt lat="43.78628823181816" lon="11.263533769849369"><ele>57.0</ele><time>2026-05-02T07:37:08.875Z</time></trkpt><trkpt lat="43.78624748119578" lon="11.263384858281634"><ele>57.2</ele><time>2026-05-02T07:37:09.875Z</time></trkpt><trkpt lat="43.78620178400145" lon="11.263241727242571"><ele>57.400000000000006</ele><time>2026-05-02T07:37:10.875Z</time></trkpt><trkpt lat="43.78616125788552" lon="11.26310014285568"><ele>57.599999999999994</ele><time>2026-05-02T07:37:11.875Z</time></trkpt><trkpt lat="43.78612957548316" lon="11.262976764384234"><ele>57.8</ele><time>2026-05-02T07:37:12.875Z</time></trkpt><trkpt lat="43.786101723901616" lon="11.262855686524304"><ele>58.0</ele><time>2026-05-02T07:37:13.875Z</time></trkpt><trkpt lat="43.78607483348335" lon="11.262747688652368"><ele>58.2</ele><time>2026-05-02T07:37:14.875Z</time></trkpt><trkpt lat="43.78606122943729" lon="11.262649602365947"><ele>58.4</ele><time>2026-05-02T07:37:15.875Z</time></trkpt><trkpt lat="43.786053797026064" lon="11.262521914552448"><ele>58.60000000000001</ele><time>2026-05-02T07:37:17.875Z</time></trkpt><trkpt lat="43.786168228022554" lon="11.262464057664697"><ele>58.800000000000004</ele><time>2026-05-02T07:37:18.875Z</time></trkpt><trkpt lat="43.78626313943749" lon="11.2624117246675"><ele>59.0</ele><time>2026-05-02T07:37:20.875Z</time></trkpt><trkpt lat="43.78639581735198" lon="11.262413519278521"><ele>59.00000000000001</ele><time>2026-05-02T07:37:22.875Z</time></trkpt><trkpt lat="43.78645978059809" lon="11.26241978671492"><ele>59.0</ele><time>2026-05-02T07:37:23.875Z</time></trkpt><trkpt lat="43.78652864319363" lon="11.262432072874702"><ele>59.0</ele><time>2026-05-02T07:37:24.875Z</time></trkpt><trkpt lat="43.786648019043334" lon="11.262457905513973"><ele>59.0</ele><time>2026-05-02T07:37:26.875Z</time></trkpt><trkpt lat="43.786714511167816" lon="11.262457004821234"><ele>59.00000000000001</ele><time>2026-05-02T07:37:27.875Z</time></trkpt><trkpt lat="43.78678833970566" lon="11.262475063750214"><ele>59.0</ele><time>2026-05-02T07:37:28.874Z</time></trkpt><trkpt lat="43.78685666318271" lon="11.262491546044771"><ele>59.400000000000006</ele><time>2026-05-02T07:37:29.874Z</time></trkpt><trkpt lat="43.786930768657335" lon="11.26251045636404"><ele>59.800000000000004</ele><time>2026-05-02T07:37:30.874Z</time></trkpt><trkpt lat="43.787011552010235" lon="11.262528235563027"><ele>60.199999999999996</ele><time>2026-05-02T07:37:31.874Z</time></trkpt><trkpt lat="43.78711009843791" lon="11.262542762752618"><ele>60.599999999999994</ele><time>2026-05-02T07:37:32.874Z</time></trkpt><trkpt lat="43.787207417592626" lon="11.262559758502643"><ele>61.0</ele><time>2026-05-02T07:37:33.874Z</time></trkpt><trkpt lat="43.787307472161736" lon="11.262579282976745"><ele>61.0</ele><time>2026-05-02T07:37:34.874Z</time></trkpt><trkpt lat="43.78741508415436" lon="11.262597968895056"><ele>61.0</ele><time>2026-05-02T07:37:35.874Z</time></trkpt><trkpt lat="43.78752850104829" lon="11.262624189788157"><ele>61.0</ele><time>2026-05-02T07:37:36.874Z</time></trkpt><trkpt lat="43.78765353761732" lon="11.262652140761404"><ele>61.0</ele><time>2026-05-02T07:37:37.874Z</time></trkpt><trkpt lat="43.78777842733434" lon="11.262662914035712"><ele>62.5</ele><time>2026-05-02T07:37:38.874Z</time></trkpt><trkpt lat="43.787899449699424" lon="11.26268515657719"><ele>64.0</ele><time>2026-05-02T07:37:39.874Z</time></trkpt><trkpt lat="43.78802175107549" lon="11.262702178880707"><ele>65.5</ele><time>2026-05-02T07:37:40.874Z</time></trkpt><trkpt lat="43.788146181853904" lon="11.262712322869838"><ele>67.0</ele><time>2026-05-02T07:37:41.874Z</time></trkpt><trkpt lat="43.788271686964386" lon="11.262723522125018"><ele>67.0</ele><time>2026-05-02T07:37:42.874Z</time></trkpt><trkpt lat="43.78839364661998" lon="11.262736157952556"><ele>67.0</ele><time>2026-05-02T07:37:43.874Z</time></trkpt><trkpt lat="43.788514624176635" lon="11.262737787783408"><ele>67.0</ele><time>2026-05-02T07:37:44.874Z</time></trkpt><trkpt lat="43.78863734106927" lon="11.26269214815991"><ele>67.0</ele><time>2026-05-02T07:37:45.874Z</time></trkpt><trkpt lat="43.78875689887359" lon="11.262703809294695"><ele>69.5</ele><time>2026-05-02T07:37:46.874Z</time></trkpt><trkpt lat="43.78887565699594" lon="11.262706783618505"><ele>72.0</ele><time>2026-05-02T07:37:47.874Z</time></trkpt><trkpt lat="43.78900602824351" lon="11.26270338830619"><ele>74.5</ele><time>2026-05-02T07:37:48.874Z</time></trkpt><trkpt lat="43.789142485044394" lon="11.262697577830062"><ele>77.0</ele><time>2026-05-02T07:37:49.874Z</time></trkpt><trkpt lat="43.78927746325677" lon="11.262703287491874"><ele>77.75</ele><time>2026-05-02T07:37:50.874Z</time></trkpt><trkpt lat="43.78940281318788" lon="11.262695782271006"><ele>78.5</ele><time>2026-05-02T07:37:51.874Z</time></trkpt><trkpt lat="43.789532177046425" lon="11.262665467646674"><ele>79.25</ele><time>2026-05-02T07:37:52.874Z</time></trkpt><trkpt lat="43.78966249155859" lon="11.262639672557262"><ele>80.0</ele><time>2026-05-02T07:37:53.874Z</time></trkpt><trkpt lat="43.78979901889792" lon="11.262585085241982"><ele>80.0</ele><time>2026-05-02T07:37:54.874Z</time></trkpt><trkpt lat="43.789918166689574" lon="11.262504117719258"><ele>80.0</ele><time>2026-05-02T07:37:55.874Z</time></trkpt><trkpt lat="43.79002974995401" lon="11.262416986337243"><ele>80.0</ele><time>2026-05-02T07:37:56.873Z</time></trkpt><trkpt lat="43.79013263669954" lon="11.262294782582387"><ele>80.0</ele><time>2026-05-02T07:37:57.873Z</time></trkpt><trkpt lat="43.79022051092003" lon="11.262174451117334"><ele>82.75</ele><time>2026-05-02T07:37:58.873Z</time></trkpt><trkpt lat="43.790309803585366" lon="11.262039533681387"><ele>85.5</ele><time>2026-05-02T07:37:59.873Z</time></trkpt><trkpt lat="43.790388772643084" lon="11.261910178141378"><ele>88.25</ele><time>2026-05-02T07:38:00.873Z</time></trkpt><trkpt lat="43.79047127353129" lon="11.261779877851504"><ele>91.0</ele><time>2026-05-02T07:38:01.873Z</time></trkpt><trkpt lat="43.79056065321511" lon="11.261676559849315"><ele>91.0</ele><time>2026-05-02T07:38:02.873Z</time></trkpt><trkpt lat="43.790665194086344" lon="11.261630020872635"><ele>91.0</ele><time>2026-05-02T07:38:03.873Z</time></trkpt><trkpt lat="43.79078499556038" lon="11.261584389942469"><ele>91.0</ele><time>2026-05-02T07:38:04.873Z</time></trkpt><trkpt lat="43.79091612048581" lon="11.261547948714929"><ele>91.0</ele><time>2026-05-02T07:38:05.873Z</time></trkpt><trkpt lat="43.79104544008609" lon="11.261522479854735"><ele>91.0</ele><time>2026-05-02T07:38:06.873Z</time></trkpt><trkpt lat="43.79117197320948" lon="11.261491780851578"><ele>91.0</ele><time>2026-05-02T07:38:07.873Z</time></trkpt><trkpt lat="43.79130219003027" lon="11.261468187743123"><ele>91.0</ele><time>2026-05-02T07:38:08.873Z</time></trkpt><trkpt lat="43.79142936573362" lon="11.261444550836151"><ele>91.0</ele><time>2026-05-02T07:38:09.873Z</time></trkpt><trkpt lat="43.791553330944694" lon="11.261418184982169"><ele>91.0</ele><time>2026-05-02T07:38:10.873Z</time></trkpt><trkpt lat="43.79168179711982" lon="11.261408910744251"><ele>91.0</ele><time>2026-05-02T07:38:11.873Z</time></trkpt><trkpt lat="43.79180379415195" lon="11.261394652756163"><ele>91.0</ele><time>2026-05-02T07:38:12.873Z</time></trkpt><trkpt lat="43.79193564846321" lon="11.26138208239705"><ele>91.0</ele><time>2026-05-02T07:38:13.873Z</time></trkpt><trkpt lat="43.7920507839775" lon="11.261374348777629"><ele>92.5</ele><time>2026-05-02T07:38:14.873Z</time></trkpt><trkpt lat="43.792172083969426" lon="11.261369153456494"><ele>94.0</ele><time>2026-05-02T07:38:15.873Z</time></trkpt><trkpt lat="43.79229056652986" lon="11.261358942735566"><ele>95.5</ele><time>2026-05-02T07:38:16.873Z</time></trkpt><trkpt lat="43.79241688049681" lon="11.261342632348951"><ele>97.0</ele><time>2026-05-02T07:38:17.873Z</time></trkpt><trkpt lat="43.79254446585847" lon="11.261336778746912"><ele>97.0</ele><time>2026-05-02T07:38:18.875Z</time></trkpt><trkpt lat="43.79266930871684" lon="11.261349501635523"><ele>97.0</ele><time>2026-05-02T07:38:19.874Z</time></trkpt><trkpt lat="43.79278538415069" lon="11.261365831777328"><ele>97.0</ele><time>2026-05-02T07:38:20.874Z</time></trkpt><trkpt lat="43.79289847170523" lon="11.261372740338377"><ele>97.0</ele><time>2026-05-02T07:38:21.875Z</time></trkpt><trkpt lat="43.79299056349246" lon="11.261372842795884"><ele>97.0</ele><time>2026-05-02T07:38:22.875Z</time></trkpt><trkpt lat="43.79306844435694" lon="11.26137899465585"><ele>97.57142857142857</ele><time>2026-05-02T07:38:23.875Z</time></trkpt><trkpt lat="43.79314660825008" lon="11.261379803348873"><ele>98.14285714285715</ele><time>2026-05-02T07:38:24.875Z</time></trkpt><trkpt lat="43.793215704420724" lon="11.261379374997286"><ele>98.71428571428572</ele><time>2026-05-02T07:38:25.875Z</time></trkpt><trkpt lat="43.79328001175763" lon="11.261372422961992"><ele>99.28571428571428</ele><time>2026-05-02T07:38:26.875Z</time></trkpt><trkpt lat="43.793347525162" lon="11.261365105635079"><ele>99.85714285714286</ele><time>2026-05-02T07:38:27.874Z</time></trkpt><trkpt lat="43.79341446065667" lon="11.261358538217419"><ele>100.42857142857143</ele><time>2026-05-02T07:38:28.874Z</time></trkpt><trkpt lat="43.79348403055214" lon="11.261352006395423"><ele>101.0</ele><time>2026-05-02T07:38:29.874Z</time></trkpt><trkpt lat="43.79355654766175" lon="11.26136094910634"><ele>101.0</ele><time>2026-05-02T07:38:30.874Z</time></trkpt><trkpt lat="43.79362198974871" lon="11.261358482583987"><ele>101.0</ele><time>2026-05-02T07:38:31.875Z</time></trkpt><trkpt lat="43.793695054316274" lon="11.261354611209224"><ele>101.0</ele><time>2026-05-02T07:38:32.874Z</time></trkpt><trkpt lat="43.79377115277205" lon="11.261351270982573"><ele>101.0</ele><time>2026-05-02T07:38:33.874Z</time></trkpt><trkpt lat="43.793844882911294" lon="11.261339003511411"><ele>101.0</ele><time>2026-05-02T07:38:34.874Z</time></trkpt><trkpt lat="43.793918728546984" lon="11.261333543732729"><ele>101.0</ele><time>2026-05-02T07:38:35.874Z</time></trkpt><trkpt lat="43.79400131072106" lon="11.261330196194066"><ele>101.0</ele><time>2026-05-02T07:38:36.874Z</time></trkpt><trkpt lat="43.794087467869275" lon="11.26132482088486"><ele>101.0</ele><time>2026-05-02T07:38:37.874Z</time></trkpt><trkpt lat="43.79417147492143" lon="11.261317473875625"><ele>101.0</ele><time>2026-05-02T07:38:38.874Z</time></trkpt><trkpt lat="43.79426432936185" lon="11.26131216559021"><ele>101.0</ele><time>2026-05-02T07:38:39.874Z</time></trkpt><trkpt lat="43.79435355248832" lon="11.261300186016554"><ele>101.0</ele><time>2026-05-02T07:38:40.874Z</time></trkpt><trkpt lat="43.794444610606355" lon="11.261274873454482"><ele>101.0</ele><time>2026-05-02T07:38:41.874Z</time></trkpt><trkpt lat="43.79453783545872" lon="11.261249724089925"><ele>101.0</ele><time>2026-05-02T07:38:42.874Z</time></trkpt><trkpt lat="43.794633920700704" lon="11.261222095237851"><ele>101.0</ele><time>2026-05-02T07:38:43.874Z</time></trkpt><trkpt lat="43.794733972122266" lon="11.261189003013596"><ele>101.0</ele><time>2026-05-02T07:38:44.874Z</time></trkpt><trkpt lat="43.79483580045701" lon="11.261155104388104"><ele>101.0</ele><time>2026-05-02T07:38:45.874Z</time></trkpt><trkpt lat="43.79493837368168" lon="11.261127829553583"><ele>101.0</ele><time>2026-05-02T07:38:46.874Z</time></trkpt><trkpt lat="43.7950344185535" lon="11.261110604178707"><ele>101.0</ele><time>2026-05-02T07:38:47.874Z</time></trkpt><trkpt lat="43.79512550938113" lon="11.261126795585286"><ele>101.0</ele><time>2026-05-02T07:38:48.874Z</time></trkpt><trkpt lat="43.79521636908366" lon="11.261160367621072"><ele>101.0</ele><time>2026-05-02T07:38:49.874Z</time></trkpt><trkpt lat="43.79530846685741" lon="11.261205057732948"><ele>101.0</ele><time>2026-05-02T07:38:50.874Z</time></trkpt><trkpt lat="43.79539044627549" lon="11.261277079890641"><ele>101.0</ele><time>2026-05-02T07:38:51.874Z</time></trkpt><trkpt lat="43.79547258398367" lon="11.261355031776057"><ele>100.8</ele><time>2026-05-02T07:38:52.874Z</time></trkpt><trkpt lat="43.79555605522524" lon="11.261428024929522"><ele>100.6</ele><time>2026-05-02T07:38:53.874Z</time></trkpt><trkpt lat="43.79562347837406" lon="11.261528269030455"><ele>100.4</ele><time>2026-05-02T07:38:54.874Z</time></trkpt><trkpt lat="43.79570643006574" lon="11.26161342893269"><ele>100.2</ele><time>2026-05-02T07:38:55.874Z</time></trkpt><trkpt lat="43.7957925683085" lon="11.261690971752696"><ele>100.0</ele><time>2026-05-02T07:38:56.874Z</time></trkpt><trkpt lat="43.795891361644216" lon="11.261759987253637"><ele>101.2</ele><time>2026-05-02T07:38:57.873Z</time></trkpt><trkpt lat="43.795992824024694" lon="11.261794681682412"><ele>102.4</ele><time>2026-05-02T07:38:58.873Z</time></trkpt><trkpt lat="43.79608536456162" lon="11.261885691075419"><ele>103.6</ele><time>2026-05-02T07:38:59.873Z</time></trkpt><trkpt lat="43.79618264160058" lon="11.26194921398694"><ele>104.8</ele><time>2026-05-02T07:39:00.873Z</time></trkpt><trkpt lat="43.79628222920467" lon="11.261998158263632"><ele>106.0</ele><time>2026-05-02T07:39:01.873Z</time></trkpt><trkpt lat="43.79638779580604" lon="11.262050379389615"><ele>106.6</ele><time>2026-05-02T07:39:02.873Z</time></trkpt><trkpt lat="43.7964904525047" lon="11.262100636411"><ele>107.19999999999999</ele><time>2026-05-02T07:39:03.873Z</time></trkpt><trkpt lat="43.79659564326993" lon="11.26214286792029"><ele>107.80000000000001</ele><time>2026-05-02T07:39:04.873Z</time></trkpt><trkpt lat="43.79670354890877" lon="11.262176195954895"><ele>108.4</ele><time>2026-05-02T07:39:05.873Z</time></trkpt><trkpt lat="43.79681682816346" lon="11.26219733099924"><ele>109.0</ele><time>2026-05-02T07:39:06.873Z</time></trkpt><trkpt lat="43.79692990750986" lon="11.262222488120134"><ele>110.0</ele><time>2026-05-02T07:39:07.873Z</time></trkpt><trkpt lat="43.797038337673484" lon="11.262245872720293"><ele>111.0</ele><time>2026-05-02T07:39:08.873Z</time></trkpt><trkpt lat="43.797147629659136" lon="11.262253451568947"><ele>112.0</ele><time>2026-05-02T07:39:09.873Z</time></trkpt><trkpt lat="43.79725298642713" lon="11.262253823624883"><ele>113.0</ele><time>2026-05-02T07:39:10.873Z</time></trkpt><trkpt lat="43.79736156268274" lon="11.262252635966142"><ele>114.0</ele><time>2026-05-02T07:39:11.873Z</time></trkpt><trkpt lat="43.797473960254514" lon="11.262250013483555"><ele>114.0</ele><time>2026-05-02T07:39:12.873Z</time></trkpt><trkpt lat="43.797590713548345" lon="11.262248490358084"><ele>114.0</ele><time>2026-05-02T07:39:13.873Z</time></trkpt><trkpt lat="43.797692909435185" lon="11.26225480933759"><ele>114.0</ele><time>2026-05-02T07:39:14.873Z</time></trkpt><trkpt lat="43.79779343608548" lon="11.262267647273614"><ele>114.0</ele><time>2026-05-02T07:39:15.873Z</time></trkpt><trkpt lat="43.79787716252486" lon="11.26228090890963"><ele>114.0</ele><time>2026-05-02T07:39:16.873Z</time></trkpt><trkpt lat="43.797948639927405" lon="11.262293088157104"><ele>114.0</ele><time>2026-05-02T07:39:17.873Z</time></trkpt><trkpt lat="43.798022616159656" lon="11.262329854486314"><ele>114.0</ele><time>2026-05-02T07:39:18.873Z</time></trkpt><trkpt lat="43.79808348685118" lon="11.262355852954817"><ele>114.0</ele><time>2026-05-02T07:39:19.873Z</time></trkpt><trkpt lat="43.79815327677466" lon="11.262416828741904"><ele>114.0</ele><time>2026-05-02T07:39:20.873Z</time></trkpt><trkpt lat="43.798215361622574" lon="11.26248786194723"><ele>114.0</ele><time>2026-05-02T07:39:21.873Z</time></trkpt><trkpt lat="43.798259426850166" lon="11.262602441952815"><ele>114.0</ele><time>2026-05-02T07:39:22.873Z</time></trkpt><trkpt lat="43.79829177011285" lon="11.26272109398724"><ele>114.0</ele><time>2026-05-02T07:39:23.872Z</time></trkpt><trkpt lat="43.79832265845442" lon="11.262848372207024"><ele>114.0</ele><time>2026-05-02T07:39:24.872Z</time></trkpt><trkpt lat="43.79835931774794" lon="11.262983952733778"><ele>114.0</ele><time>2026-05-02T07:39:25.872Z</time></trkpt><trkpt lat="43.798398993666495" lon="11.263107397389208"><ele>114.0</ele><time>2026-05-02T07:39:26.872Z</time></trkpt><trkpt lat="43.798458037349334" lon="11.263222862912325"><ele>114.0</ele><time>2026-05-02T07:39:27.872Z</time></trkpt><trkpt lat="43.798533389006536" lon="11.263331362299592"><ele>113.25</ele><time>2026-05-02T07:39:28.872Z</time></trkpt><trkpt lat="43.79860327791086" lon="11.263452407899402"><ele>112.5</ele><time>2026-05-02T07:39:29.872Z</time></trkpt><trkpt lat="43.79870424259284" lon="11.263540179422888"><ele>111.75</ele><time>2026-05-02T07:39:30.872Z</time></trkpt><trkpt lat="43.798796124295585" lon="11.26364981523961"><ele>111.0</ele><time>2026-05-02T07:39:31.872Z</time></trkpt><trkpt lat="43.798881531111384" lon="11.263756245685558"><ele>111.0</ele><time>2026-05-02T07:39:32.872Z</time></trkpt><trkpt lat="43.79895119027651" lon="11.263889286899985"><ele>111.0</ele><time>2026-05-02T07:39:33.872Z</time></trkpt><trkpt lat="43.799026529457684" lon="11.264014932724539"><ele>111.0</ele><time>2026-05-02T07:39:34.872Z</time></trkpt><trkpt lat="43.79911370005116" lon="11.264136432746477"><ele>111.0</ele><time>2026-05-02T07:39:35.872Z</time></trkpt><trkpt lat="43.79920433473389" lon="11.264264308630846"><ele>111.25</ele><time>2026-05-02T07:39:36.872Z</time></trkpt><trkpt lat="43.79929244153652" lon="11.264395127317735"><ele>111.5</ele><time>2026-05-02T07:39:37.872Z</time></trkpt><trkpt lat="43.79937747845737" lon="11.26453184364885"><ele>111.75</ele><time>2026-05-02T07:39:38.872Z</time></trkpt><trkpt lat="43.79945961280002" lon="11.264675365460146"><ele>112.0</ele><time>2026-05-02T07:39:39.872Z</time></trkpt><trkpt lat="43.79953898241569" lon="11.264824634867104"><ele>113.75</ele><time>2026-05-02T07:39:40.872Z</time></trkpt><trkpt lat="43.799619732757954" lon="11.26497809008979"><ele>115.5</ele><time>2026-05-02T07:39:41.872Z</time></trkpt><trkpt lat="43.79970216772681" lon="11.265125685799713"><ele>117.25</ele><time>2026-05-02T07:39:42.872Z</time></trkpt><trkpt lat="43.79978684841548" lon="11.265278955298385"><ele>119.0</ele><time>2026-05-02T07:39:43.872Z</time></trkpt><trkpt lat="43.79987606878115" lon="11.265435573305174"><ele>119.0</ele><time>2026-05-02T07:39:44.872Z</time></trkpt><trkpt lat="43.79995964070015" lon="11.265600211841603"><ele>119.0</ele><time>2026-05-02T07:39:45.872Z</time></trkpt><trkpt lat="43.80004602274148" lon="11.265768175565299"><ele>119.0</ele><time>2026-05-02T07:39:46.872Z</time></trkpt><trkpt lat="43.80013810113317" lon="11.265943847897612"><ele>119.66666666666666</ele><time>2026-05-02T07:39:47.872Z</time></trkpt><trkpt lat="43.80022892444346" lon="11.266114155346067"><ele>120.33333333333334</ele><time>2026-05-02T07:39:48.871Z</time></trkpt><trkpt lat="43.8003227098694" lon="11.266291002584389"><ele>121.0</ele><time>2026-05-02T07:39:49.871Z</time></trkpt><trkpt lat="43.80039891241057" lon="11.266474023930485"><ele>122.0</ele><time>2026-05-02T07:39:50.871Z</time></trkpt><trkpt lat="43.80047442707628" lon="11.266638567799836"><ele>123.0</ele><time>2026-05-02T07:39:51.871Z</time></trkpt><trkpt lat="43.80055987904307" lon="11.266783925908232"><ele>124.0</ele><time>2026-05-02T07:39:52.871Z</time></trkpt><trkpt lat="43.80065808316728" lon="11.266899921896556"><ele>125.0</ele><time>2026-05-02T07:39:53.871Z</time></trkpt><trkpt lat="43.80078298190332" lon="11.266989488736316"><ele>125.0</ele><time>2026-05-02T07:39:54.871Z</time></trkpt><trkpt lat="43.80091559353592" lon="11.267081042742554"><ele>125.0</ele><time>2026-05-02T07:39:55.871Z</time></trkpt><trkpt lat="43.80104161103144" lon="11.26717509002272"><ele>125.0</ele><time>2026-05-02T07:39:56.871Z</time></trkpt><trkpt lat="43.80117249542578" lon="11.26726422379972"><ele>125.0</ele><time>2026-05-02T07:39:57.871Z</time></trkpt><trkpt lat="43.801297266035625" lon="11.267366253106074"><ele>125.75</ele><time>2026-05-02T07:39:58.871Z</time></trkpt><trkpt lat="43.801424825505435" lon="11.267465500104112"><ele>126.5</ele><time>2026-05-02T07:39:59.871Z</time></trkpt><trkpt lat="43.801550836010335" lon="11.267559859188658"><ele>127.25</ele><time>2026-05-02T07:40:00.871Z</time></trkpt><trkpt lat="43.80167725349641" lon="11.267656797148147"><ele>128.0</ele><time>2026-05-02T07:40:01.871Z</time></trkpt><trkpt lat="43.80180370032508" lon="11.267749783920367"><ele>129.5</ele><time>2026-05-02T07:40:02.871Z</time></trkpt><trkpt lat="43.80192941101484" lon="11.26783876919579"><ele>131.0</ele><time>2026-05-02T07:40:03.871Z</time></trkpt><trkpt lat="43.80205219786716" lon="11.267922935609743"><ele>132.5</ele><time>2026-05-02T07:40:04.871Z</time></trkpt><trkpt lat="43.80217107656491" lon="11.268002219354498"><ele>134.0</ele><time>2026-05-02T07:40:05.871Z</time></trkpt><trkpt lat="43.80229026201274" lon="11.26808021983238"><ele>134.0</ele><time>2026-05-02T07:40:06.871Z</time></trkpt><trkpt lat="43.802407356467654" lon="11.268150021823185"><ele>134.0</ele><time>2026-05-02T07:40:07.871Z</time></trkpt><trkpt lat="43.802524307755164" lon="11.268210842386225"><ele>134.0</ele><time>2026-05-02T07:40:08.871Z</time></trkpt><trkpt lat="43.80264348564019" lon="11.268263621111055"><ele>134.0</ele><time>2026-05-02T07:40:09.871Z</time></trkpt><trkpt lat="43.802762078383005" lon="11.268328842839203"><ele>134.75</ele><time>2026-05-02T07:40:10.871Z</time></trkpt><trkpt lat="43.80287950187309" lon="11.26838194110649"><ele>135.5</ele><time>2026-05-02T07:40:11.871Z</time></trkpt><trkpt lat="43.802984228872596" lon="11.268472218145174"><ele>136.25</ele><time>2026-05-02T07:40:12.871Z</time></trkpt><trkpt lat="43.803097227846706" lon="11.26854146053286"><ele>137.0</ele><time>2026-05-02T07:40:13.871Z</time></trkpt><trkpt lat="43.80320371475489" lon="11.268623880494543"><ele>137.0</ele><time>2026-05-02T07:40:14.87Z</time></trkpt><trkpt lat="43.80330098257227" lon="11.26871160324389"><ele>137.0</ele><time>2026-05-02T07:40:15.87Z</time></trkpt><trkpt lat="43.80337961652518" lon="11.26881457306873"><ele>137.0</ele><time>2026-05-02T07:40:16.87Z</time></trkpt><trkpt lat="43.80343693945346" lon="11.268930347758667"><ele>137.0</ele><time>2026-05-02T07:40:17.87Z</time></trkpt><trkpt lat="43.80349566416333" lon="11.269037569390985"><ele>137.0</ele><time>2026-05-02T07:40:18.87Z</time></trkpt><trkpt lat="43.803546415591384" lon="11.269150305650381"><ele>135.6</ele><time>2026-05-02T07:40:19.87Z</time></trkpt><trkpt lat="43.803593635426125" lon="11.269270012192038"><ele>134.2</ele><time>2026-05-02T07:40:20.87Z</time></trkpt><trkpt lat="43.8036389068703" lon="11.269380381550095"><ele>132.8</ele><time>2026-05-02T07:40:21.87Z</time></trkpt><trkpt lat="43.80368268379274" lon="11.26949249929125"><ele>131.4</ele><time>2026-05-02T07:40:22.87Z</time></trkpt><trkpt lat="43.80372709076097" lon="11.269605067773748"><ele>130.0</ele><time>2026-05-02T07:40:23.87Z</time></trkpt><trkpt lat="43.803762846491395" lon="11.26972522899039"><ele>131.33333333333334</ele><time>2026-05-02T07:40:24.872Z</time></trkpt><trkpt lat="43.80379848744685" lon="11.269845427720123"><ele>132.66666666666669</ele><time>2026-05-02T07:40:25.871Z</time></trkpt><trkpt lat="43.80382741418746" lon="11.269961181417356"><ele>134.0</ele><time>2026-05-02T07:40:26.871Z</time></trkpt><trkpt lat="43.803853673260484" lon="11.27007491116128"><ele>135.33333333333334</ele><time>2026-05-02T07:40:27.871Z</time></trkpt><trkpt lat="43.80388117710314" lon="11.270182939232855"><ele>136.66666666666666</ele><time>2026-05-02T07:40:28.871Z</time></trkpt><trkpt lat="43.80391018726784" lon="11.27029117710255"><ele>138.0</ele><time>2026-05-02T07:40:29.871Z</time></trkpt><trkpt lat="43.803937145888824" lon="11.270406508639208"><ele>138.0</ele><time>2026-05-02T07:40:30.871Z</time></trkpt><trkpt lat="43.80396675119565" lon="11.270523708339768"><ele>138.0</ele><time>2026-05-02T07:40:31.871Z</time></trkpt><trkpt lat="43.80398947578522" lon="11.270643234250185"><ele>138.0</ele><time>2026-05-02T07:40:32.871Z</time></trkpt><trkpt lat="43.80401254265669" lon="11.270758433061832"><ele>138.0</ele><time>2026-05-02T07:40:33.871Z</time></trkpt><trkpt lat="43.804039650219515" lon="11.270874097927333"><ele>138.0</ele><time>2026-05-02T07:40:34.871Z</time></trkpt><trkpt lat="43.804070413626135" lon="11.270982750100485"><ele>138.0</ele><time>2026-05-02T07:40:35.871Z</time></trkpt><trkpt lat="43.80411295465047" lon="11.271085517825663"><ele>138.5</ele><time>2026-05-02T07:40:36.87Z</time></trkpt><trkpt lat="43.80416336204653" lon="11.271153546771574"><ele>139.0</ele><time>2026-05-02T07:40:37.871Z</time></trkpt><trkpt lat="43.80422300325097" lon="11.271212240302164"><ele>139.5</ele><time>2026-05-02T07:40:38.871Z</time></trkpt><trkpt lat="43.804281627865606" lon="11.271258312974519"><ele>140.0</ele><time>2026-05-02T07:40:39.871Z</time></trkpt><trkpt lat="43.80434223321864" lon="11.271300082354612"><ele>140.5</ele><time>2026-05-02T07:40:40.871Z</time></trkpt><trkpt lat="43.80443267785635" lon="11.27137034068584"><ele>141.0</ele><time>2026-05-02T07:40:42.871Z</time></trkpt><trkpt lat="43.80442398892224" lon="11.271497656451428"><ele>141.6</ele><time>2026-05-02T07:40:45.871Z</time></trkpt><trkpt lat="43.804384668734656" lon="11.271656994552114"><ele>142.2</ele><time>2026-05-02T07:40:47.871Z</time></trkpt><trkpt lat="43.804373386208766" lon="11.271779598088457"><ele>142.8</ele><time>2026-05-02T07:40:48.87Z</time></trkpt><trkpt lat="43.80436221844012" lon="11.271900954479573"><ele>143.4</ele><time>2026-05-02T07:40:49.87Z</time></trkpt><trkpt lat="43.80435087840188" lon="11.27202205128515"><ele>144.0</ele><time>2026-05-02T07:40:50.87Z</time></trkpt><trkpt lat="43.804338716064386" lon="11.272152284955334"><ele>143.0</ele><time>2026-05-02T07:40:51.87Z</time></trkpt><trkpt lat="43.80432644920268" lon="11.272284202647713"><ele>142.0</ele><time>2026-05-02T07:40:52.87Z</time></trkpt><trkpt lat="43.80431481408334" lon="11.272412047319383"><ele>141.0</ele><time>2026-05-02T07:40:53.87Z</time></trkpt><trkpt lat="43.80431805739091" lon="11.272542940840015"><ele>140.0</ele><time>2026-05-02T07:40:54.87Z</time></trkpt><trkpt lat="43.80429629472984" lon="11.27268374371832"><ele>139.0</ele><time>2026-05-02T07:40:55.87Z</time></trkpt><trkpt lat="43.80428742524365" lon="11.272835478476855"><ele>139.0</ele><time>2026-05-02T07:40:56.87Z</time></trkpt><trkpt lat="43.80427755348006" lon="11.2729736415751"><ele>139.0</ele><time>2026-05-02T07:40:57.87Z</time></trkpt><trkpt lat="43.80426682593186" lon="11.273120278379865"><ele>139.0</ele><time>2026-05-02T07:40:58.87Z</time></trkpt><trkpt lat="43.80424905453374" lon="11.273258467327597"><ele>139.0</ele><time>2026-05-02T07:40:59.87Z</time></trkpt><trkpt lat="43.80423380923721" lon="11.27340025008556"><ele>139.0</ele><time>2026-05-02T07:41:00.87Z</time></trkpt><trkpt lat="43.80422128596223" lon="11.273542088695338"><ele>138.16666666666669</ele><time>2026-05-02T07:41:01.87Z</time></trkpt><trkpt lat="43.80420215979563" lon="11.273675085118029"><ele>137.33333333333334</ele><time>2026-05-02T07:41:02.87Z</time></trkpt><trkpt lat="43.804199047174926" lon="11.273799715575576"><ele>136.5</ele><time>2026-05-02T07:41:03.87Z</time></trkpt><trkpt lat="43.80420474915029" lon="11.273911144890649"><ele>135.66666666666666</ele><time>2026-05-02T07:41:04.87Z</time></trkpt><trkpt lat="43.80419711293788" lon="11.274026261335548"><ele>134.83333333333331</ele><time>2026-05-02T07:41:05.87Z</time></trkpt><trkpt lat="43.804182623633395" lon="11.274138352470395"><ele>134.0</ele><time>2026-05-02T07:41:06.87Z</time></trkpt><trkpt lat="43.80417661284907" lon="11.274251158940617"><ele>133.4</ele><time>2026-05-02T07:41:07.87Z</time></trkpt><trkpt lat="43.80416127278157" lon="11.27439332481308"><ele>132.8</ele><time>2026-05-02T07:41:08.87Z</time></trkpt><trkpt lat="43.80414188071372" lon="11.274531899778387"><ele>132.2</ele><time>2026-05-02T07:41:09.87Z</time></trkpt><trkpt lat="43.80411296935624" lon="11.274675322390506"><ele>131.6</ele><time>2026-05-02T07:41:10.87Z</time></trkpt><trkpt lat="43.8040899344724" lon="11.27483718888474"><ele>131.0</ele><time>2026-05-02T07:41:11.87Z</time></trkpt><trkpt lat="43.804065048492966" lon="11.275010779513824"><ele>127.5</ele><time>2026-05-02T07:41:12.87Z</time></trkpt><trkpt lat="43.804050293111516" lon="11.275179820835056"><ele>124.0</ele><time>2026-05-02T07:41:13.869Z</time></trkpt><trkpt lat="43.804033617024956" lon="11.275352353941445"><ele>120.5</ele><time>2026-05-02T07:41:14.869Z</time></trkpt><trkpt lat="43.80401561244515" lon="11.275527276599824"><ele>117.0</ele><time>2026-05-02T07:41:15.869Z</time></trkpt><trkpt lat="43.803998015049714" lon="11.275704666388537"><ele>113.75</ele><time>2026-05-02T07:41:16.869Z</time></trkpt><trkpt lat="43.803981039104755" lon="11.275886684306561"><ele>110.5</ele><time>2026-05-02T07:41:17.869Z</time></trkpt><trkpt lat="43.8039604114846" lon="11.276065404340844"><ele>107.25</ele><time>2026-05-02T07:41:18.869Z</time></trkpt><trkpt lat="43.80393787022632" lon="11.276226329641172"><ele>104.0</ele><time>2026-05-02T07:41:19.869Z</time></trkpt><trkpt lat="43.80391730633688" lon="11.276387949673675"><ele>101.80000000000001</ele><time>2026-05-02T07:41:20.869Z</time></trkpt><trkpt lat="43.803909456313285" lon="11.276536965995613"><ele>99.60000000000001</ele><time>2026-05-02T07:41:21.869Z</time></trkpt><trkpt lat="43.80390075102933" lon="11.276684343646322"><ele>97.4</ele><time>2026-05-02T07:41:22.869Z</time></trkpt><trkpt lat="43.80387982468293" lon="11.27683803460783"><ele>95.2</ele><time>2026-05-02T07:41:23.869Z</time></trkpt><trkpt lat="43.803863108173125" lon="11.276996757245735"><ele>93.0</ele><time>2026-05-02T07:41:24.869Z</time></trkpt><trkpt lat="43.80384426499376" lon="11.277151130656634"><ele>91.5</ele><time>2026-05-02T07:41:25.869Z</time></trkpt><trkpt lat="43.803825836986455" lon="11.277318288560036"><ele>90.0</ele><time>2026-05-02T07:41:26.869Z</time></trkpt><trkpt lat="43.803809633929404" lon="11.277477279008188"><ele>88.5</ele><time>2026-05-02T07:41:27.869Z</time></trkpt><trkpt lat="43.803767800073174" lon="11.277645783637741"><ele>87.0</ele><time>2026-05-02T07:41:28.869Z</time></trkpt><trkpt lat="43.80374201490712" lon="11.277805510279686"><ele>87.0</ele><time>2026-05-02T07:41:29.869Z</time></trkpt><trkpt lat="43.80372209705237" lon="11.277949389852722"><ele>87.0</ele><time>2026-05-02T07:41:30.869Z</time></trkpt><trkpt lat="43.8037062515797" lon="11.278081281949236"><ele>87.0</ele><time>2026-05-02T07:41:31.869Z</time></trkpt><trkpt lat="43.80369243016733" lon="11.278194027031835"><ele>87.0</ele><time>2026-05-02T07:41:32.869Z</time></trkpt><trkpt lat="43.803689933758676" lon="11.278294278512618"><ele>87.0</ele><time>2026-05-02T07:41:33.869Z</time></trkpt><trkpt lat="43.80367773982623" lon="11.278405242731468"><ele>87.0</ele><time>2026-05-02T07:41:35.869Z</time></trkpt><trkpt lat="43.803671444884664" lon="11.278503007253478"><ele>86.39999999999999</ele><time>2026-05-02T07:41:41.868Z</time></trkpt><trkpt lat="43.80368378104855" lon="11.278591805529233"><ele>85.8</ele><time>2026-05-02T07:42:12.867Z</time></trkpt><trkpt lat="43.803677660412276" lon="11.278730609054534"><ele>85.2</ele><time>2026-05-02T07:42:14.867Z</time></trkpt><trkpt lat="43.803764234852686" lon="11.278837074444924"><ele>84.6</ele><time>2026-05-02T07:42:16.867Z</time></trkpt><trkpt lat="43.80385452569363" lon="11.278861084023719"><ele>84.0</ele><time>2026-05-02T07:42:17.867Z</time></trkpt><trkpt lat="43.803953934726934" lon="11.278876781540097"><ele>84.0</ele><time>2026-05-02T07:42:18.867Z</time></trkpt><trkpt lat="43.80405750220919" lon="11.278885595314376"><ele>84.0</ele><time>2026-05-02T07:42:19.867Z</time></trkpt><trkpt lat="43.80415944904577" lon="11.278925735531763"><ele>84.0</ele><time>2026-05-02T07:42:20.867Z</time></trkpt><trkpt lat="43.80426315497587" lon="11.27894979368849"><ele>84.0</ele><time>2026-05-02T07:42:21.867Z</time></trkpt><trkpt lat="43.80437591965829" lon="11.278970447335691"><ele>84.0</ele><time>2026-05-02T07:42:22.867Z</time></trkpt><trkpt lat="43.804487902217765" lon="11.279004667795569"><ele>83.5</ele><time>2026-05-02T07:42:23.867Z</time></trkpt><trkpt lat="43.80460683693174" lon="11.279030094721241"><ele>83.0</ele><time>2026-05-02T07:42:24.867Z</time></trkpt><trkpt lat="43.8047304059297" lon="11.27906013029185"><ele>82.5</ele><time>2026-05-02T07:42:25.867Z</time></trkpt><trkpt lat="43.80486265497261" lon="11.279119950343347"><ele>82.0</ele><time>2026-05-02T07:42:26.867Z</time></trkpt><trkpt lat="43.804992536623125" lon="11.279181680622282"><ele>82.0</ele><time>2026-05-02T07:42:27.867Z</time></trkpt><trkpt lat="43.80511941778629" lon="11.279246870006673"><ele>82.0</ele><time>2026-05-02T07:42:28.867Z</time></trkpt><trkpt lat="43.80523806638073" lon="11.279319229586223"><ele>82.0</ele><time>2026-05-02T07:42:29.866Z</time></trkpt><trkpt lat="43.80534697531302" lon="11.279391419415825"><ele>82.0</ele><time>2026-05-02T07:42:30.868Z</time></trkpt><trkpt lat="43.80545436242087" lon="11.27947439047239"><ele>82.5</ele><time>2026-05-02T07:42:31.869Z</time></trkpt><trkpt lat="43.80556200557235" lon="11.279553262334197"><ele>83.0</ele><time>2026-05-02T07:42:32.869Z</time></trkpt><trkpt lat="43.80566872509444" lon="11.279630126076697"><ele>83.5</ele><time>2026-05-02T07:42:33.869Z</time></trkpt><trkpt lat="43.80577184968892" lon="11.279711488129193"><ele>84.0</ele><time>2026-05-02T07:42:34.868Z</time></trkpt><trkpt lat="43.80587238022976" lon="11.27978983082052"><ele>84.0</ele><time>2026-05-02T07:42:35.868Z</time></trkpt><trkpt lat="43.805970378610795" lon="11.27986540291112"><ele>84.0</ele><time>2026-05-02T07:42:36.868Z</time></trkpt><trkpt lat="43.806064008584165" lon="11.27993553880648"><ele>84.0</ele><time>2026-05-02T07:42:37.867Z</time></trkpt><trkpt lat="43.80615686874758" lon="11.280002831815418"><ele>84.0</ele><time>2026-05-02T07:42:38.867Z</time></trkpt><trkpt lat="43.80625390191743" lon="11.280066616111005"><ele>84.0</ele><time>2026-05-02T07:42:39.868Z</time></trkpt><trkpt lat="43.80636197576523" lon="11.280113276904684"><ele>83.75</ele><time>2026-05-02T07:42:40.868Z</time></trkpt><trkpt lat="43.806481033167415" lon="11.280151529187254"><ele>83.5</ele><time>2026-05-02T07:42:41.868Z</time></trkpt><trkpt lat="43.80660664327038" lon="11.280181727116776"><ele>83.25</ele><time>2026-05-02T07:42:42.868Z</time></trkpt><trkpt lat="43.806735280907404" lon="11.280211765663244"><ele>83.0</ele><time>2026-05-02T07:42:43.867Z</time></trkpt><trkpt lat="43.806869860705696" lon="11.280246394399583"><ele>85.0</ele><time>2026-05-02T07:42:44.867Z</time></trkpt><trkpt lat="43.80700964692236" lon="11.280273723874323"><ele>87.0</ele><time>2026-05-02T07:42:45.867Z</time></trkpt><trkpt lat="43.80714747437061" lon="11.280310334132439"><ele>89.0</ele><time>2026-05-02T07:42:46.867Z</time></trkpt><trkpt lat="43.80728416896931" lon="11.280344168652672"><ele>91.0</ele><time>2026-05-02T07:42:47.867Z</time></trkpt><trkpt lat="43.807411992636645" lon="11.280384722399633"><ele>91.0</ele><time>2026-05-02T07:42:48.867Z</time></trkpt><trkpt lat="43.80753203346699" lon="11.280444563115232"><ele>91.0</ele><time>2026-05-02T07:42:49.867Z</time></trkpt><trkpt lat="43.80763400255592" lon="11.280532292919327"><ele>91.0</ele><time>2026-05-02T07:42:50.867Z</time></trkpt><trkpt lat="43.80772308361163" lon="11.280655396657563"><ele>91.0</ele><time>2026-05-02T07:42:51.867Z</time></trkpt><trkpt lat="43.80779644232742" lon="11.28079738108953"><ele>92.75</ele><time>2026-05-02T07:42:52.867Z</time></trkpt><trkpt lat="43.80786387876365" lon="11.280962916962842"><ele>94.5</ele><time>2026-05-02T07:42:53.867Z</time></trkpt><trkpt lat="43.80793344115959" lon="11.281129456006418"><ele>96.25</ele><time>2026-05-02T07:42:54.867Z</time></trkpt><trkpt lat="43.80799188610747" lon="11.281304067886648"><ele>98.0</ele><time>2026-05-02T07:42:55.867Z</time></trkpt><trkpt lat="43.808029080892865" lon="11.281498187433302"><ele>98.0</ele><time>2026-05-02T07:42:56.867Z</time></trkpt><trkpt lat="43.80805266815663" lon="11.281692041990844"><ele>98.0</ele><time>2026-05-02T07:42:57.867Z</time></trkpt><trkpt lat="43.80806826779231" lon="11.281892467843571"><ele>98.0</ele><time>2026-05-02T07:42:58.867Z</time></trkpt><trkpt lat="43.80807798434172" lon="11.282095247688224"><ele>98.0</ele><time>2026-05-02T07:42:59.867Z</time></trkpt><trkpt lat="43.80808985171214" lon="11.28228867613311"><ele>98.75</ele><time>2026-05-02T07:43:00.867Z</time></trkpt><trkpt lat="43.80810894293154" lon="11.282470136838445"><ele>99.5</ele><time>2026-05-02T07:43:01.867Z</time></trkpt><trkpt lat="43.80814093618229" lon="11.282642265821524"><ele>100.25</ele><time>2026-05-02T07:43:02.867Z</time></trkpt><trkpt lat="43.80821013759356" lon="11.282805339698749"><ele>101.0</ele><time>2026-05-02T07:43:03.867Z</time></trkpt><trkpt lat="43.808291254500084" lon="11.28296115064755"><ele>101.0</ele><time>2026-05-02T07:43:04.866Z</time></trkpt><trkpt lat="43.808400777965076" lon="11.283079015559158"><ele>101.0</ele><time>2026-05-02T07:43:05.866Z</time></trkpt><trkpt lat="43.80853084685919" lon="11.283179635545949"><ele>101.0</ele><time>2026-05-02T07:43:06.866Z</time></trkpt><trkpt lat="43.80867611716593" lon="11.283265772670713"><ele>101.0</ele><time>2026-05-02T07:43:07.866Z</time></trkpt><trkpt lat="43.80882581085938" lon="11.283349602219076"><ele>103.0</ele><time>2026-05-02T07:43:08.866Z</time></trkpt><trkpt lat="43.80898049712681" lon="11.283421786955238"><ele>105.0</ele><time>2026-05-02T07:43:09.866Z</time></trkpt><trkpt lat="43.80912850962285" lon="11.283482524000842"><ele>107.0</ele><time>2026-05-02T07:43:10.866Z</time></trkpt><trkpt lat="43.80927743283905" lon="11.283538465408633"><ele>108.0</ele><time>2026-05-02T07:43:11.866Z</time></trkpt><trkpt lat="43.80943241797672" lon="11.283585633121458"><ele>109.0</ele><time>2026-05-02T07:43:12.866Z</time></trkpt><trkpt lat="43.80958916161242" lon="11.283609818149142"><ele>110.0</ele><time>2026-05-02T07:43:13.866Z</time></trkpt><trkpt lat="43.80974292575237" lon="11.283624265861665"><ele>110.0</ele><time>2026-05-02T07:43:14.866Z</time></trkpt><trkpt lat="43.80989600820169" lon="11.283636562167146"><ele>110.0</ele><time>2026-05-02T07:43:15.866Z</time></trkpt><trkpt lat="43.81005294562203" lon="11.283640324880267"><ele>110.0</ele><time>2026-05-02T07:43:16.866Z</time></trkpt><trkpt lat="43.81020186645877" lon="11.283668285122385"><ele>109.75</ele><time>2026-05-02T07:43:17.866Z</time></trkpt><trkpt lat="43.81033088333479" lon="11.283730941402231"><ele>109.5</ele><time>2026-05-02T07:43:18.866Z</time></trkpt><trkpt lat="43.81043128298687" lon="11.283813881073394"><ele>109.25</ele><time>2026-05-02T07:43:19.866Z</time></trkpt><trkpt lat="43.810493334156554" lon="11.283949253317443"><ele>109.0</ele><time>2026-05-02T07:43:20.866Z</time></trkpt><trkpt lat="43.81054723538205" lon="11.2841033706651"><ele>109.0</ele><time>2026-05-02T07:43:21.866Z</time></trkpt><trkpt lat="43.810615157881784" lon="11.284255576996072"><ele>109.0</ele><time>2026-05-02T07:43:22.866Z</time></trkpt><trkpt lat="43.81069957357831" lon="11.284391584024922"><ele>109.0</ele><time>2026-05-02T07:43:23.866Z</time></trkpt><trkpt lat="43.810803273212464" lon="11.284532412769366"><ele>109.0</ele><time>2026-05-02T07:43:24.866Z</time></trkpt><trkpt lat="43.810920605265885" lon="11.284647755384917"><ele>110.66666666666667</ele><time>2026-05-02T07:43:25.866Z</time></trkpt><trkpt lat="43.81105351418318" lon="11.284744932065749"><ele>112.33333333333334</ele><time>2026-05-02T07:43:26.866Z</time></trkpt><trkpt lat="43.81118815668153" lon="11.28484994999601"><ele>114.0</ele><time>2026-05-02T07:43:27.866Z</time></trkpt><trkpt lat="43.81131299632229" lon="11.284973729302248"><ele>114.0</ele><time>2026-05-02T07:43:28.866Z</time></trkpt><trkpt lat="43.811429568283174" lon="11.285115213505097"><ele>114.0</ele><time>2026-05-02T07:43:29.865Z</time></trkpt><trkpt lat="43.81154843147052" lon="11.28526517216609"><ele>114.0</ele><time>2026-05-02T07:43:30.865Z</time></trkpt><trkpt lat="43.81166251685867" lon="11.28541537810831"><ele>114.0</ele><time>2026-05-02T07:43:31.865Z</time></trkpt><trkpt lat="43.81177970678325" lon="11.285557379586724"><ele>114.0</ele><time>2026-05-02T07:43:32.865Z</time></trkpt><trkpt lat="43.81189725793337" lon="11.285706250022086"><ele>114.0</ele><time>2026-05-02T07:43:33.865Z</time></trkpt><trkpt lat="43.81201720763938" lon="11.285856659254733"><ele>114.33333333333334</ele><time>2026-05-02T07:43:34.865Z</time></trkpt><trkpt lat="43.812138408320024" lon="11.286008244740787"><ele>114.66666666666667</ele><time>2026-05-02T07:43:35.865Z</time></trkpt><trkpt lat="43.812256057394" lon="11.286166586018677"><ele>115.0</ele><time>2026-05-02T07:43:36.865Z</time></trkpt><trkpt lat="43.812372581752676" lon="11.286334274635841"><ele>117.66666666666667</ele><time>2026-05-02T07:43:37.865Z</time></trkpt><trkpt lat="43.812488540569966" lon="11.2864974084715"><ele>120.33333333333334</ele><time>2026-05-02T07:43:38.865Z</time></trkpt><trkpt lat="43.81258454246197" lon="11.286663531377947"><ele>123.0</ele><time>2026-05-02T07:43:39.865Z</time></trkpt><trkpt lat="43.81267641564824" lon="11.286837992461582"><ele>124.33333333333334</ele><time>2026-05-02T07:43:40.865Z</time></trkpt><trkpt lat="43.81276370617138" lon="11.287012183654925"><ele>125.66666666666667</ele><time>2026-05-02T07:43:41.865Z</time></trkpt><trkpt lat="43.81284934382511" lon="11.287196397470941"><ele>127.0</ele><time>2026-05-02T07:43:42.865Z</time></trkpt><trkpt lat="43.812931726048575" lon="11.287379234323012"><ele>124.0</ele><time>2026-05-02T07:43:43.865Z</time></trkpt><trkpt lat="43.81301210513922" lon="11.287563471057165"><ele>121.0</ele><time>2026-05-02T07:43:44.865Z</time></trkpt><trkpt lat="43.81309819443619" lon="11.287754925859941"><ele>118.0</ele><time>2026-05-02T07:43:45.865Z</time></trkpt><trkpt lat="43.81317995487944" lon="11.287941740309266"><ele>120.0</ele><time>2026-05-02T07:43:46.865Z</time></trkpt><trkpt lat="43.81326334050196" lon="11.288129733561442"><ele>122.0</ele><time>2026-05-02T07:43:47.865Z</time></trkpt><trkpt lat="43.81334979887103" lon="11.288322490587985"><ele>124.0</ele><time>2026-05-02T07:43:48.865Z</time></trkpt><trkpt lat="43.81343784426681" lon="11.288517796997901"><ele>123.0</ele><time>2026-05-02T07:43:49.865Z</time></trkpt><trkpt lat="43.81352606650458" lon="11.288714613292077"><ele>122.0</ele><time>2026-05-02T07:43:50.865Z</time></trkpt><trkpt lat="43.81361167099611" lon="11.288902066470886"><ele>121.0</ele><time>2026-05-02T07:43:51.865Z</time></trkpt><trkpt lat="43.813705059009706" lon="11.289064965585645"><ele>122.75</ele><time>2026-05-02T07:43:52.865Z</time></trkpt><trkpt lat="43.813822712444185" lon="11.289195424754903"><ele>124.5</ele><time>2026-05-02T07:43:53.865Z</time></trkpt><trkpt lat="43.81396176470125" lon="11.289260974659907"><ele>126.25</ele><time>2026-05-02T07:43:54.865Z</time></trkpt><trkpt lat="43.814098034735665" lon="11.289310358924036"><ele>128.0</ele><time>2026-05-02T07:43:55.864Z</time></trkpt><trkpt lat="43.81426717398806" lon="11.289306808693324"><ele>127.5</ele><time>2026-05-02T07:43:56.864Z</time></trkpt><trkpt lat="43.81441355622677" lon="11.289315559736139"><ele>127.0</ele><time>2026-05-02T07:43:57.864Z</time></trkpt><trkpt lat="43.81455898459688" lon="11.289347130771647"><ele>126.5</ele><time>2026-05-02T07:43:58.864Z</time></trkpt><trkpt lat="43.81468959992594" lon="11.289412473490923"><ele>126.0</ele><time>2026-05-02T07:43:59.864Z</time></trkpt><trkpt lat="43.814802480568936" lon="11.289520759153314"><ele>126.0</ele><time>2026-05-02T07:44:00.864Z</time></trkpt><trkpt lat="43.814905540456145" lon="11.289673804289484"><ele>126.0</ele><time>2026-05-02T07:44:01.864Z</time></trkpt><trkpt lat="43.815004265145944" lon="11.289847544571202"><ele>126.0</ele><time>2026-05-02T07:44:02.864Z</time></trkpt><trkpt lat="43.815111619279364" lon="11.290024056040075"><ele>128.33333333333334</ele><time>2026-05-02T07:44:03.864Z</time></trkpt><trkpt lat="43.81521827201227" lon="11.29019641229446"><ele>130.66666666666669</ele><time>2026-05-02T07:44:04.864Z</time></trkpt><trkpt lat="43.815323164452415" lon="11.290367392695591"><ele>133.0</ele><time>2026-05-02T07:44:05.864Z</time></trkpt><trkpt lat="43.815418900431716" lon="11.290524409310944"><ele>131.0</ele><time>2026-05-02T07:44:06.864Z</time></trkpt><trkpt lat="43.81551544413249" lon="11.29067412552667"><ele>129.0</ele><time>2026-05-02T07:44:07.864Z</time></trkpt><trkpt lat="43.815616376160285" lon="11.29082399937192"><ele>127.0</ele><time>2026-05-02T07:44:08.864Z</time></trkpt><trkpt lat="43.81570917070828" lon="11.290976949576525"><ele>125.0</ele><time>2026-05-02T07:44:09.864Z</time></trkpt><trkpt lat="43.8157832120135" lon="11.291147391388439"><ele>125.0</ele><time>2026-05-02T07:44:10.864Z</time></trkpt><trkpt lat="43.815826138996044" lon="11.291345852235835"><ele>125.0</ele><time>2026-05-02T07:44:11.864Z</time></trkpt><trkpt lat="43.8158532092807" lon="11.291549782202098"><ele>125.0</ele><time>2026-05-02T07:44:12.864Z</time></trkpt><trkpt lat="43.8158730344421" lon="11.29174903284805"><ele>125.0</ele><time>2026-05-02T07:44:13.864Z</time></trkpt><trkpt lat="43.81590085955979" lon="11.29194182892239"><ele>125.75</ele><time>2026-05-02T07:44:14.864Z</time></trkpt><trkpt lat="43.81594462507219" lon="11.292120001241774"><ele>126.5</ele><time>2026-05-02T07:44:15.864Z</time></trkpt><trkpt lat="43.816001107716744" lon="11.292295810023388"><ele>127.25</ele><time>2026-05-02T07:44:16.864Z</time></trkpt><trkpt lat="43.81607007148926" lon="11.29244287599016"><ele>128.0</ele><time>2026-05-02T07:44:17.864Z</time></trkpt><trkpt lat="43.81614979847454" lon="11.292569135588286"><ele>126.0</ele><time>2026-05-02T07:44:18.864Z</time></trkpt><trkpt lat="43.816242501134035" lon="11.292685495675617"><ele>124.0</ele><time>2026-05-02T07:44:19.864Z</time></trkpt><trkpt lat="43.816345629915986" lon="11.29278793253458"><ele>122.0</ele><time>2026-05-02T07:44:20.863Z</time></trkpt><trkpt lat="43.81645209962001" lon="11.29284873042355"><ele>120.0</ele><time>2026-05-02T07:44:21.863Z</time></trkpt><trkpt lat="43.81656919997992" lon="11.292903816671258"><ele>120.0</ele><time>2026-05-02T07:44:22.863Z</time></trkpt><trkpt lat="43.81667804809041" lon="11.292964338659948"><ele>120.0</ele><time>2026-05-02T07:44:23.863Z</time></trkpt><trkpt lat="43.816791450480714" lon="11.293032220650876"><ele>120.0</ele><time>2026-05-02T07:44:24.863Z</time></trkpt><trkpt lat="43.81690292053712" lon="11.293105189358164"><ele>120.0</ele><time>2026-05-02T07:44:25.863Z</time></trkpt><trkpt lat="43.81701163018706" lon="11.293178776306785"><ele>120.75</ele><time>2026-05-02T07:44:26.863Z</time></trkpt><trkpt lat="43.81712773427434" lon="11.293256680155498"><ele>121.5</ele><time>2026-05-02T07:44:27.863Z</time></trkpt><trkpt lat="43.81723669501939" lon="11.29333426328641"><ele>122.25</ele><time>2026-05-02T07:44:28.863Z</time></trkpt><trkpt lat="43.81734225645271" lon="11.293420027547981"><ele>123.0</ele><time>2026-05-02T07:44:29.863Z</time></trkpt><trkpt lat="43.817446370922184" lon="11.293508287108073"><ele>123.0</ele><time>2026-05-02T07:44:30.863Z</time></trkpt><trkpt lat="43.817550225337065" lon="11.293585772572623"><ele>123.0</ele><time>2026-05-02T07:44:31.863Z</time></trkpt><trkpt lat="43.81765039351195" lon="11.29366452628974"><ele>123.0</ele><time>2026-05-02T07:44:32.863Z</time></trkpt><trkpt lat="43.817747160281016" lon="11.293744927401574"><ele>123.0</ele><time>2026-05-02T07:44:33.863Z</time></trkpt><trkpt lat="43.81784470094751" lon="11.293823184693395"><ele>123.0</ele><time>2026-05-02T07:44:34.863Z</time></trkpt><trkpt lat="43.81794330407598" lon="11.293904615855057"><ele>123.00000000000001</ele><time>2026-05-02T07:44:35.863Z</time></trkpt><trkpt lat="43.81804054181681" lon="11.29398316429727"><ele>123.00000000000001</ele><time>2026-05-02T07:44:36.865Z</time></trkpt><trkpt lat="43.81812466117961" lon="11.294068460088534"><ele>123.0</ele><time>2026-05-02T07:44:37.864Z</time></trkpt><trkpt lat="43.81820271366485" lon="11.294153574710307"><ele>123.0</ele><time>2026-05-02T07:44:38.864Z</time></trkpt><trkpt lat="43.818277694384136" lon="11.294229986398877"><ele>123.4</ele><time>2026-05-02T07:44:39.865Z</time></trkpt><trkpt lat="43.81834825129872" lon="11.29433017705152"><ele>123.80000000000001</ele><time>2026-05-02T07:44:40.864Z</time></trkpt><trkpt lat="43.81843934638193" lon="11.294398823719252"><ele>124.2</ele><time>2026-05-02T07:44:41.864Z</time></trkpt><trkpt lat="43.81852690595448" lon="11.294469505651772"><ele>124.6</ele><time>2026-05-02T07:44:42.865Z</time></trkpt><trkpt lat="43.81861569219117" lon="11.294526485289333"><ele>125.0</ele><time>2026-05-02T07:44:43.864Z</time></trkpt><trkpt lat="43.8187067990266" lon="11.294602252386458"><ele>125.0</ele><time>2026-05-02T07:44:44.864Z</time></trkpt><trkpt lat="43.81880771627663" lon="11.294653335339303"><ele>125.0</ele><time>2026-05-02T07:44:45.864Z</time></trkpt><trkpt lat="43.81891588396337" lon="11.294666053827727"><ele>125.0</ele><time>2026-05-02T07:44:46.864Z</time></trkpt><trkpt lat="43.81902377287548" lon="11.29468020326131"><ele>125.0</ele><time>2026-05-02T07:44:47.864Z</time></trkpt><trkpt lat="43.819128408616045" lon="11.294701486644422"><ele>125.0</ele><time>2026-05-02T07:44:48.865Z</time></trkpt><trkpt lat="43.819223298378084" lon="11.294735596501692"><ele>125.4</ele><time>2026-05-02T07:44:49.864Z</time></trkpt><trkpt lat="43.81930887967617" lon="11.294779148517545"><ele>125.8</ele><time>2026-05-02T07:44:50.864Z</time></trkpt><trkpt lat="43.81939006035935" lon="11.294829401507544"><ele>126.19999999999999</ele><time>2026-05-02T07:44:51.864Z</time></trkpt><trkpt lat="43.81946168425817" lon="11.294879306853304"><ele>126.6</ele><time>2026-05-02T07:44:52.864Z</time></trkpt><trkpt lat="43.8194980499998" lon="11.294993684845304"><ele>127.0</ele><time>2026-05-02T07:44:54.864Z</time></trkpt><trkpt lat="43.8193667882577" lon="11.295077104427097"><ele>127.0</ele><time>2026-05-02T07:44:56.864Z</time></trkpt><trkpt lat="43.81932658554524" lon="11.295232706173286"><ele>126.99999999999999</ele><time>2026-05-02T07:44:58.864Z</time></trkpt><trkpt lat="43.8193067433132" lon="11.295321890435488"><ele>126.99999999999999</ele><time>2026-05-02T07:45:01.864Z</time></trkpt><trkpt lat="43.8193053008068" lon="11.295190802542287"><ele>127.0</ele><time>2026-05-02T07:45:04.863Z</time></trkpt><trkpt lat="43.8192610284869" lon="11.295293441566223"><ele>127.0</ele><time>2026-05-02T07:45:05.863Z</time></trkpt><trkpt lat="43.8194780127815" lon="11.295122445997075"><ele>128.0</ele><time>2026-05-02T07:45:06.863Z</time></trkpt><trkpt lat="43.819347961619584" lon="11.294995740924824"><ele>128.0</ele><time>2026-05-02T07:45:08.863Z</time></trkpt><trkpt lat="43.81939877578701" lon="11.294934779192989"><ele>128.0</ele><time>2026-05-02T07:45:13.863Z</time></trkpt></trkseg><trkseg><trkpt lat="43.819492104148374" lon="11.294968955490656"><ele>127.99999999999999</ele><time>2026-05-02T08:19:15.812Z</time></trkpt><trkpt lat="43.819556122394104" lon="11.294973874738439"><ele>128.0</ele><time>2026-05-02T08:19:17.812Z</time></trkpt><trkpt lat="43.81962105472052" lon="11.295023794737956"><ele>128.0</ele><time>2026-05-02T08:19:19.812Z</time></trkpt><trkpt lat="43.81973363234161" lon="11.295106007420165"><ele>128.0</ele><time>2026-05-02T08:19:21.812Z</time></trkpt><trkpt lat="43.81980069635304" lon="11.295146806005043"><ele>127.99999999999999</ele><time>2026-05-02T08:19:22.812Z</time></trkpt><trkpt lat="43.81986946242993" lon="11.295201848858484"><ele>128.0</ele><time>2026-05-02T08:19:23.812Z</time></trkpt><trkpt lat="43.81994413986926" lon="11.295252198130418"><ele>128.0</ele><time>2026-05-02T08:19:24.812Z</time></trkpt><trkpt lat="43.820023401546216" lon="11.295311630634334"><ele>128.0</ele><time>2026-05-02T08:19:25.812Z</time></trkpt><trkpt lat="43.820102909184804" lon="11.29537094600209"><ele>128.0</ele><time>2026-05-02T08:19:26.812Z</time></trkpt><trkpt lat="43.8201833357117" lon="11.29543189427728"><ele>128.0</ele><time>2026-05-02T08:19:27.812Z</time></trkpt><trkpt lat="43.82027037642439" lon="11.295495109319038"><ele>128.0</ele><time>2026-05-02T08:19:28.812Z</time></trkpt><trkpt lat="43.820358227156646" lon="11.295556485363747"><ele>128.6</ele><time>2026-05-02T08:19:29.812Z</time></trkpt><trkpt lat="43.82045379044252" lon="11.295624878745842"><ele>129.20000000000002</ele><time>2026-05-02T08:19:30.812Z</time></trkpt><trkpt lat="43.820549825947246" lon="11.295689078078201"><ele>129.8</ele><time>2026-05-02T08:19:31.812Z</time></trkpt><trkpt lat="43.82064225665987" lon="11.29576168690982"><ele>130.4</ele><time>2026-05-02T08:19:32.812Z</time></trkpt><trkpt lat="43.82074122082064" lon="11.29583802892698"><ele>131.0</ele><time>2026-05-02T08:19:33.812Z</time></trkpt><trkpt lat="43.820838160164875" lon="11.295919127771997"><ele>131.0</ele><time>2026-05-02T08:19:34.812Z</time></trkpt><trkpt lat="43.820963326056145" lon="11.296013064056895"><ele>131.0</ele><time>2026-05-02T08:19:35.811Z</time></trkpt><trkpt lat="43.82105538516674" lon="11.296104037058736"><ele>131.0</ele><time>2026-05-02T08:19:36.811Z</time></trkpt><trkpt lat="43.82114250770671" lon="11.296196013875754"><ele>131.0</ele><time>2026-05-02T08:19:37.811Z</time></trkpt><trkpt lat="43.82122764710005" lon="11.296281115461992"><ele>130.25</ele><time>2026-05-02T08:19:38.811Z</time></trkpt><trkpt lat="43.82131251723776" lon="11.296384160120127"><ele>129.5</ele><time>2026-05-02T08:19:39.811Z</time></trkpt><trkpt lat="43.82140015701845" lon="11.296469472078686"><ele>128.75</ele><time>2026-05-02T08:19:40.811Z</time></trkpt><trkpt lat="43.821484768435404" lon="11.296583036378689"><ele>128.0</ele><time>2026-05-02T08:19:41.811Z</time></trkpt><trkpt lat="43.821572095123116" lon="11.296687525914155"><ele>129.25</ele><time>2026-05-02T08:19:42.811Z</time></trkpt><trkpt lat="43.82166306663794" lon="11.296823252796893"><ele>130.5</ele><time>2026-05-02T08:19:43.811Z</time></trkpt><trkpt lat="43.82173862364806" lon="11.296971970074237"><ele>131.75</ele><time>2026-05-02T08:19:44.811Z</time></trkpt><trkpt lat="43.82179568889977" lon="11.297139801150944"><ele>133.0</ele><time>2026-05-02T08:19:45.811Z</time></trkpt><trkpt lat="43.821860914600975" lon="11.297307144458228"><ele>133.0</ele><time>2026-05-02T08:19:46.811Z</time></trkpt><trkpt lat="43.821951967630326" lon="11.29747364662885"><ele>133.0</ele><time>2026-05-02T08:19:47.811Z</time></trkpt><trkpt lat="43.82204907549236" lon="11.297613744310443"><ele>133.0</ele><time>2026-05-02T08:19:48.811Z</time></trkpt><trkpt lat="43.82214397713242" lon="11.297743725237787"><ele>133.0</ele><time>2026-05-02T08:19:49.811Z</time></trkpt><trkpt lat="43.8222380927448" lon="11.297877386513132"><ele>133.0</ele><time>2026-05-02T08:19:50.811Z</time></trkpt><trkpt lat="43.82234052163197" lon="11.297986476293215"><ele>133.0</ele><time>2026-05-02T08:19:51.811Z</time></trkpt><trkpt lat="43.82245148267303" lon="11.298083864304"><ele>133.0</ele><time>2026-05-02T08:19:52.811Z</time></trkpt><trkpt lat="43.822577549986825" lon="11.298164878641973"><ele>133.0</ele><time>2026-05-02T08:19:53.811Z</time></trkpt><trkpt lat="43.822706480990675" lon="11.298247413051277"><ele>133.75</ele><time>2026-05-02T08:19:54.811Z</time></trkpt><trkpt lat="43.82282965662962" lon="11.298330768081165"><ele>134.5</ele><time>2026-05-02T08:19:55.811Z</time></trkpt><trkpt lat="43.822960688967" lon="11.298420111820342"><ele>135.25</ele><time>2026-05-02T08:19:56.811Z</time></trkpt><trkpt lat="43.82309919720952" lon="11.298469897905981"><ele>136.0</ele><time>2026-05-02T08:19:57.811Z</time></trkpt><trkpt lat="43.82324297826994" lon="11.298516904413468"><ele>136.0</ele><time>2026-05-02T08:19:58.811Z</time></trkpt><trkpt lat="43.8233874217616" lon="11.298571751645756"><ele>136.0</ele><time>2026-05-02T08:19:59.811Z</time></trkpt><trkpt lat="43.82352671027035" lon="11.298641034568476"><ele>136.0</ele><time>2026-05-02T08:20:00.811Z</time></trkpt><trkpt lat="43.82366157060041" lon="11.298726379254878"><ele>136.0</ele><time>2026-05-02T08:20:01.81Z</time></trkpt><trkpt lat="43.82379422856038" lon="11.298845339160044"><ele>137.0</ele><time>2026-05-02T08:20:02.81Z</time></trkpt><trkpt lat="43.82392780713354" lon="11.298948910907283"><ele>138.0</ele><time>2026-05-02T08:20:03.81Z</time></trkpt><trkpt lat="43.82406170873319" lon="11.299070888996175"><ele>139.0</ele><time>2026-05-02T08:20:04.81Z</time></trkpt><trkpt lat="43.824186650906896" lon="11.299201592201541"><ele>139.0</ele><time>2026-05-02T08:20:05.81Z</time></trkpt><trkpt lat="43.824302995820354" lon="11.299351448448288"><ele>139.0</ele><time>2026-05-02T08:20:06.81Z</time></trkpt><trkpt lat="43.82441681611986" lon="11.299500450365379"><ele>139.0</ele><time>2026-05-02T08:20:07.81Z</time></trkpt><trkpt lat="43.82453843891945" lon="11.299640839959858"><ele>138.75</ele><time>2026-05-02T08:20:08.81Z</time></trkpt><trkpt lat="43.8246487560373" lon="11.299769403958082"><ele>138.5</ele><time>2026-05-02T08:20:09.81Z</time></trkpt><trkpt lat="43.82474971960323" lon="11.299888648240909"><ele>138.25</ele><time>2026-05-02T08:20:10.81Z</time></trkpt><trkpt lat="43.824843955957185" lon="11.300001593619136"><ele>138.0</ele><time>2026-05-02T08:20:11.81Z</time></trkpt><trkpt lat="43.82492457931559" lon="11.300104566558979"><ele>138.0</ele><time>2026-05-02T08:20:12.81Z</time></trkpt><trkpt lat="43.82499873270778" lon="11.30019159689819"><ele>138.0</ele><time>2026-05-02T08:20:13.81Z</time></trkpt><trkpt lat="43.825064717965724" lon="11.30027104988703"><ele>138.0</ele><time>2026-05-02T08:20:14.81Z</time></trkpt><trkpt lat="43.825123779751856" lon="11.300345991278915"><ele>138.0</ele><time>2026-05-02T08:20:15.81Z</time></trkpt><trkpt lat="43.825180323035845" lon="11.30040971098356"><ele>138.0</ele><time>2026-05-02T08:20:16.81Z</time></trkpt><trkpt lat="43.82524103833928" lon="11.30047392310066"><ele>138.0</ele><time>2026-05-02T08:20:17.81Z</time></trkpt><trkpt lat="43.825306617492686" lon="11.300553107776938"><ele>137.8</ele><time>2026-05-02T08:20:18.81Z</time></trkpt><trkpt lat="43.825375511068884" lon="11.300634027392503"><ele>137.60000000000002</ele><time>2026-05-02T08:20:19.81Z</time></trkpt><trkpt lat="43.82545470640037" lon="11.300719139584958"><ele>137.39999999999998</ele><time>2026-05-02T08:20:20.81Z</time></trkpt><trkpt lat="43.82553125738013" lon="11.300805997230594"><ele>137.2</ele><time>2026-05-02T08:20:21.81Z</time></trkpt><trkpt lat="43.82560593721863" lon="11.300899346469068"><ele>137.0</ele><time>2026-05-02T08:20:22.81Z</time></trkpt><trkpt lat="43.82569412844206" lon="11.300996569946951"><ele>137.0</ele><time>2026-05-02T08:20:23.81Z</time></trkpt><trkpt lat="43.82579034992732" lon="11.301096548546065"><ele>137.0</ele><time>2026-05-02T08:20:24.81Z</time></trkpt><trkpt lat="43.825885506379414" lon="11.301193293748609"><ele>137.0</ele><time>2026-05-02T08:20:25.81Z</time></trkpt><trkpt lat="43.82597480505182" lon="11.301311323700087"><ele>137.0</ele><time>2026-05-02T08:20:26.809Z</time></trkpt><trkpt lat="43.82607761024627" lon="11.301432417546678"><ele>137.25</ele><time>2026-05-02T08:20:27.809Z</time></trkpt><trkpt lat="43.826169186808926" lon="11.301573209780928"><ele>137.5</ele><time>2026-05-02T08:20:28.809Z</time></trkpt><trkpt lat="43.82625654791588" lon="11.301732975678135"><ele>137.75</ele><time>2026-05-02T08:20:29.809Z</time></trkpt><trkpt lat="43.82634276400541" lon="11.301875919356412"><ele>138.0</ele><time>2026-05-02T08:20:30.809Z</time></trkpt><trkpt lat="43.82643548857233" lon="11.302033929754355"><ele>138.0</ele><time>2026-05-02T08:20:31.809Z</time></trkpt><trkpt lat="43.82652430366787" lon="11.302192594304662"><ele>138.0</ele><time>2026-05-02T08:20:32.809Z</time></trkpt><trkpt lat="43.82659718712971" lon="11.302362308136063"><ele>138.0</ele><time>2026-05-02T08:20:33.809Z</time></trkpt><trkpt lat="43.82664998164778" lon="11.302550345524708"><ele>138.0</ele><time>2026-05-02T08:20:34.809Z</time></trkpt><trkpt lat="43.826675158458606" lon="11.302747587370739"><ele>139.0</ele><time>2026-05-02T08:20:35.809Z</time></trkpt><trkpt lat="43.826694074506605" lon="11.30294682848657"><ele>140.0</ele><time>2026-05-02T08:20:36.809Z</time></trkpt><trkpt lat="43.82670563366402" lon="11.303136529295367"><ele>141.0</ele><time>2026-05-02T08:20:37.809Z</time></trkpt><trkpt lat="43.82673864171674" lon="11.303327428124808"><ele>142.0</ele><time>2026-05-02T08:20:38.809Z</time></trkpt><trkpt lat="43.82681541107981" lon="11.303489745848927"><ele>142.5</ele><time>2026-05-02T08:20:39.809Z</time></trkpt><trkpt lat="43.826912497876144" lon="11.303637174122228"><ele>143.0</ele><time>2026-05-02T08:20:40.809Z</time></trkpt><trkpt lat="43.82703258540336" lon="11.30375570751174"><ele>143.5</ele><time>2026-05-02T08:20:41.809Z</time></trkpt><trkpt lat="43.8271446678913" lon="11.303889951853165"><ele>144.0</ele><time>2026-05-02T08:20:42.809Z</time></trkpt><trkpt lat="43.82724535236008" lon="11.304022160939208"><ele>145.25</ele><time>2026-05-02T08:20:43.809Z</time></trkpt><trkpt lat="43.827344741561014" lon="11.304161744988091"><ele>146.5</ele><time>2026-05-02T08:20:44.809Z</time></trkpt><trkpt lat="43.827445251758064" lon="11.30429299500987"><ele>147.75</ele><time>2026-05-02T08:20:45.809Z</time></trkpt><trkpt lat="43.827542569239206" lon="11.304429298147484"><ele>149.0</ele><time>2026-05-02T08:20:46.809Z</time></trkpt><trkpt lat="43.827633524539706" lon="11.304559469076873"><ele>148.4</ele><time>2026-05-02T08:20:47.809Z</time></trkpt><trkpt lat="43.82772493507524" lon="11.304683184532522"><ele>147.8</ele><time>2026-05-02T08:20:48.809Z</time></trkpt><trkpt lat="43.827805154093184" lon="11.304783163137929"><ele>147.2</ele><time>2026-05-02T08:20:49.809Z</time></trkpt><trkpt lat="43.82787514609617" lon="11.30487627836135"><ele>146.6</ele><time>2026-05-02T08:20:50.809Z</time></trkpt><trkpt lat="43.82794100621455" lon="11.304954242873551"><ele>146.0</ele><time>2026-05-02T08:20:51.809Z</time></trkpt><trkpt lat="43.82800001287993" lon="11.305028562815746"><ele>147.2</ele><time>2026-05-02T08:20:52.808Z</time></trkpt><trkpt lat="43.8280639238157" lon="11.305113764119232"><ele>148.39999999999998</ele><time>2026-05-02T08:20:53.808Z</time></trkpt><trkpt lat="43.828134679502604" lon="11.305198947299033"><ele>149.6</ele><time>2026-05-02T08:20:54.808Z</time></trkpt><trkpt lat="43.82821286798536" lon="11.305288440025798"><ele>150.79999999999998</ele><time>2026-05-02T08:20:55.808Z</time></trkpt><trkpt lat="43.8282942050996" lon="11.305365460696429"><ele>152.0</ele><time>2026-05-02T08:20:56.808Z</time></trkpt><trkpt lat="43.82838200447804" lon="11.305440042961006"><ele>152.0</ele><time>2026-05-02T08:20:57.808Z</time></trkpt><trkpt lat="43.828474994187296" lon="11.305507283737846"><ele>152.0</ele><time>2026-05-02T08:20:58.809Z</time></trkpt><trkpt lat="43.82857317691208" lon="11.305567089947695"><ele>152.0</ele><time>2026-05-02T08:20:59.809Z</time></trkpt><trkpt lat="43.82866969117564" lon="11.30561960179641"><ele>152.0</ele><time>2026-05-02T08:21:00.809Z</time></trkpt><trkpt lat="43.82876904917037" lon="11.305680799146097"><ele>152.0</ele><time>2026-05-02T08:21:01.81Z</time></trkpt><trkpt lat="43.82886432162334" lon="11.305733111073339"><ele>153.0</ele><time>2026-05-02T08:21:02.809Z</time></trkpt><trkpt lat="43.82895820726154" lon="11.305791423925035"><ele>154.0</ele><time>2026-05-02T08:21:03.809Z</time></trkpt><trkpt lat="43.829051131672074" lon="11.305861434596972"><ele>155.0</ele><time>2026-05-02T08:21:04.809Z</time></trkpt><trkpt lat="43.82913158125727" lon="11.305940729634113"><ele>156.0</ele><time>2026-05-02T08:21:05.809Z</time></trkpt><trkpt lat="43.829218906019214" lon="11.306024809097062"><ele>157.0</ele><time>2026-05-02T08:21:06.809Z</time></trkpt><trkpt lat="43.8293031129072" lon="11.306107600332084"><ele>157.2</ele><time>2026-05-02T08:21:07.809Z</time></trkpt><trkpt lat="43.8293910812212" lon="11.306194937516084"><ele>157.39999999999998</ele><time>2026-05-02T08:21:08.809Z</time></trkpt><trkpt lat="43.829479340850874" lon="11.3062761265239"><ele>157.60000000000002</ele><time>2026-05-02T08:21:09.809Z</time></trkpt><trkpt lat="43.82957305295951" lon="11.306341176314405"><ele>157.8</ele><time>2026-05-02T08:21:10.809Z</time></trkpt><trkpt lat="43.82966857897362" lon="11.306398234462673"><ele>158.0</ele><time>2026-05-02T08:21:11.809Z</time></trkpt><trkpt lat="43.82976385639959" lon="11.306445123983313"><ele>158.0</ele><time>2026-05-02T08:21:12.809Z</time></trkpt><trkpt lat="43.82985605831003" lon="11.306483128422302"><ele>158.0</ele><time>2026-05-02T08:21:13.809Z</time></trkpt><trkpt lat="43.82994164373518" lon="11.3065216654308"><ele>158.0</ele><time>2026-05-02T08:21:14.809Z</time></trkpt><trkpt lat="43.83003496406437" lon="11.306560669427371"><ele>158.0</ele><time>2026-05-02T08:21:15.809Z</time></trkpt><trkpt lat="43.83013043052414" lon="11.306603923124975"><ele>158.0</ele><time>2026-05-02T08:21:16.808Z</time></trkpt><trkpt lat="43.830227624226005" lon="11.306650730428565"><ele>157.6</ele><time>2026-05-02T08:21:17.808Z</time></trkpt><trkpt lat="43.83032466508781" lon="11.306704346781645"><ele>157.20000000000002</ele><time>2026-05-02T08:21:18.808Z</time></trkpt><trkpt lat="43.83041600765595" lon="11.30676452314377"><ele>156.8</ele><time>2026-05-02T08:21:19.808Z</time></trkpt><trkpt lat="43.83049884976019" lon="11.306858512667207"><ele>156.4</ele><time>2026-05-02T08:21:20.808Z</time></trkpt><trkpt lat="43.83057559545819" lon="11.306965227382186"><ele>156.0</ele><time>2026-05-02T08:21:21.808Z</time></trkpt><trkpt lat="43.83064372477584" lon="11.307078716914551"><ele>156.0</ele><time>2026-05-02T08:21:22.808Z</time></trkpt><trkpt lat="43.830714801746225" lon="11.307184208810387"><ele>156.0</ele><time>2026-05-02T08:21:23.808Z</time></trkpt><trkpt lat="43.83078292858618" lon="11.30728195062199"><ele>156.0</ele><time>2026-05-02T08:21:24.808Z</time></trkpt><trkpt lat="43.83085441914499" lon="11.307387092820052"><ele>156.0</ele><time>2026-05-02T08:21:25.808Z</time></trkpt><trkpt lat="43.83090715874189" lon="11.307478397952512"><ele>156.0</ele><time>2026-05-02T08:21:26.808Z</time></trkpt><trkpt lat="43.83097770238083" lon="11.307571439175963"><ele>156.4</ele><time>2026-05-02T08:21:27.808Z</time></trkpt><trkpt lat="43.831036644689924" lon="11.307666891938585"><ele>156.8</ele><time>2026-05-02T08:21:28.808Z</time></trkpt><trkpt lat="43.83109563837581" lon="11.307753814601682"><ele>157.20000000000002</ele><time>2026-05-02T08:21:29.808Z</time></trkpt><trkpt lat="43.83115369440114" lon="11.30783295274199"><ele>157.6</ele><time>2026-05-02T08:21:30.808Z</time></trkpt><trkpt lat="43.83120433447479" lon="11.30790697925767"><ele>158.0</ele><time>2026-05-02T08:21:31.808Z</time></trkpt><trkpt lat="43.83128533525894" lon="11.308027702070362"><ele>159.0</ele><time>2026-05-02T08:21:33.808Z</time></trkpt><trkpt lat="43.83132965399777" lon="11.308093179392534"><ele>160.0</ele><time>2026-05-02T08:21:34.808Z</time></trkpt><trkpt lat="43.831411731778125" lon="11.308214068118"><ele>161.0</ele><time>2026-05-02T08:21:36.808Z</time></trkpt><trkpt lat="43.831496871142576" lon="11.30833585721808"><ele>162.0</ele><time>2026-05-02T08:21:38.808Z</time></trkpt><trkpt lat="43.83158474290839" lon="11.308458953940523"><ele>163.0</ele><time>2026-05-02T08:21:40.808Z</time></trkpt><trkpt lat="43.83167360988405" lon="11.308589740413247"><ele>163.0</ele><time>2026-05-02T08:21:42.807Z</time></trkpt><trkpt lat="43.831724688360026" lon="11.308657911410586"><ele>163.0</ele><time>2026-05-02T08:21:43.807Z</time></trkpt><trkpt lat="43.831771690347644" lon="11.308734649660854"><ele>163.0</ele><time>2026-05-02T08:21:44.807Z</time></trkpt><trkpt lat="43.83182530604437" lon="11.308804508979794"><ele>163.0</ele><time>2026-05-02T08:21:45.807Z</time></trkpt><trkpt lat="43.83190668826218" lon="11.3089361265087"><ele>163.0</ele><time>2026-05-02T08:21:47.807Z</time></trkpt><trkpt lat="43.83194930389061" lon="11.309003553940109"><ele>163.0</ele><time>2026-05-02T08:21:48.807Z</time></trkpt><trkpt lat="43.83199354568427" lon="11.309066900195186"><ele>163.33333333333334</ele><time>2026-05-02T08:21:49.807Z</time></trkpt><trkpt lat="43.832051302295014" lon="11.309133757840346"><ele>163.66666666666669</ele><time>2026-05-02T08:21:50.807Z</time></trkpt><trkpt lat="43.83211013693206" lon="11.309202534242722"><ele>164.0</ele><time>2026-05-02T08:21:51.807Z</time></trkpt><trkpt lat="43.832176211129955" lon="11.309263317619713"><ele>164.33333333333334</ele><time>2026-05-02T08:21:52.807Z</time></trkpt><trkpt lat="43.83224427895503" lon="11.3093286348186"><ele>164.66666666666666</ele><time>2026-05-02T08:21:53.807Z</time></trkpt><trkpt lat="43.832316244644815" lon="11.309400640335623"><ele>165.0</ele><time>2026-05-02T08:21:54.807Z</time></trkpt><trkpt lat="43.83239776218113" lon="11.309461338269978"><ele>165.0</ele><time>2026-05-02T08:21:55.807Z</time></trkpt><trkpt lat="43.83247063735228" lon="11.309536116766365"><ele>165.0</ele><time>2026-05-02T08:21:56.807Z</time></trkpt><trkpt lat="43.83254827625558" lon="11.309598609040384"><ele>165.0</ele><time>2026-05-02T08:21:57.807Z</time></trkpt><trkpt lat="43.83263078627507" lon="11.309670084580354"><ele>165.0</ele><time>2026-05-02T08:21:58.807Z</time></trkpt><trkpt lat="43.832707565672415" lon="11.309741040888708"><ele>165.0</ele><time>2026-05-02T08:21:59.807Z</time></trkpt><trkpt lat="43.83278556756588" lon="11.309807628192333"><ele>165.4</ele><time>2026-05-02T08:22:00.807Z</time></trkpt><trkpt lat="43.83286876714974" lon="11.309875590342418"><ele>165.8</ele><time>2026-05-02T08:22:01.807Z</time></trkpt><trkpt lat="43.83294605671456" lon="11.30994952629001"><ele>166.2</ele><time>2026-05-02T08:22:02.807Z</time></trkpt><trkpt lat="43.8330256336602" lon="11.310033088985938"><ele>166.6</ele><time>2026-05-02T08:22:03.807Z</time></trkpt><trkpt lat="43.83309062015915" lon="11.310121862398478"><ele>167.0</ele><time>2026-05-02T08:22:04.807Z</time></trkpt><trkpt lat="43.833151286622424" lon="11.310224039824298"><ele>167.0</ele><time>2026-05-02T08:22:05.807Z</time></trkpt><trkpt lat="43.833213910389894" lon="11.31030701622935"><ele>167.0</ele><time>2026-05-02T08:22:06.807Z</time></trkpt><trkpt lat="43.833273550036495" lon="11.31040076829688"><ele>167.0</ele><time>2026-05-02T08:22:07.806Z</time></trkpt><trkpt lat="43.83334455119983" lon="11.310488733146476"><ele>167.0</ele><time>2026-05-02T08:22:08.806Z</time></trkpt><trkpt lat="43.83341471988566" lon="11.310586624543395"><ele>167.0</ele><time>2026-05-02T08:22:09.806Z</time></trkpt><trkpt lat="43.833470150574485" lon="11.310703520051522"><ele>167.39999999999998</ele><time>2026-05-02T08:22:10.806Z</time></trkpt><trkpt lat="43.83350855333629" lon="11.310833159614067"><ele>167.79999999999998</ele><time>2026-05-02T08:22:11.806Z</time></trkpt><trkpt lat="43.8335442745866" lon="11.310954025644422"><ele>168.2</ele><time>2026-05-02T08:22:12.806Z</time></trkpt><trkpt lat="43.83359849850616" lon="11.311064794157241"><ele>168.6</ele><time>2026-05-02T08:22:13.806Z</time></trkpt><trkpt lat="43.83366092650105" lon="11.31116389484459"><ele>169.0</ele><time>2026-05-02T08:22:14.806Z</time></trkpt><trkpt lat="43.83374223375559" lon="11.311255641264221"><ele>169.0</ele><time>2026-05-02T08:22:15.806Z</time></trkpt><trkpt lat="43.833839766618155" lon="11.311344460363895"><ele>169.0</ele><time>2026-05-02T08:22:16.806Z</time></trkpt><trkpt lat="43.8339300059723" lon="11.311432058559014"><ele>169.0</ele><time>2026-05-02T08:22:17.806Z</time></trkpt><trkpt lat="43.83402409097504" lon="11.31152096614686"><ele>169.0</ele><time>2026-05-02T08:22:18.806Z</time></trkpt><trkpt lat="43.83410298718304" lon="11.311646401895096"><ele>169.75</ele><time>2026-05-02T08:22:19.806Z</time></trkpt><trkpt lat="43.834172687644525" lon="11.311790198170307"><ele>170.5</ele><time>2026-05-02T08:22:20.806Z</time></trkpt><trkpt lat="43.834234806688045" lon="11.311943190812542"><ele>171.25</ele><time>2026-05-02T08:22:21.806Z</time></trkpt><trkpt lat="43.83430674946838" lon="11.312097750686315"><ele>172.0</ele><time>2026-05-02T08:22:22.806Z</time></trkpt><trkpt lat="43.83438765924014" lon="11.31224508712727"><ele>172.5</ele><time>2026-05-02T08:22:23.806Z</time></trkpt><trkpt lat="43.8344710820989" lon="11.31238186570201"><ele>173.0</ele><time>2026-05-02T08:22:24.806Z</time></trkpt><trkpt lat="43.83455545430263" lon="11.3125155957269"><ele>173.5</ele><time>2026-05-02T08:22:25.806Z</time></trkpt><trkpt lat="43.83464238844786" lon="11.312654697521534"><ele>174.0</ele><time>2026-05-02T08:22:26.806Z</time></trkpt><trkpt lat="43.834735445395594" lon="11.312792485289886"><ele>174.0</ele><time>2026-05-02T08:22:27.806Z</time></trkpt><trkpt lat="43.83483637369188" lon="11.312929053332416"><ele>174.0</ele><time>2026-05-02T08:22:28.806Z</time></trkpt><trkpt lat="43.834930253798" lon="11.313075820305702"><ele>174.0</ele><time>2026-05-02T08:22:29.806Z</time></trkpt><trkpt lat="43.83503742883765" lon="11.313207253269471"><ele>174.0</ele><time>2026-05-02T08:22:30.806Z</time></trkpt><trkpt lat="43.83514205104827" lon="11.313342172730792"><ele>174.25</ele><time>2026-05-02T08:22:31.806Z</time></trkpt><trkpt lat="43.83524841857975" lon="11.313471511272343"><ele>174.5</ele><time>2026-05-02T08:22:32.806Z</time></trkpt><trkpt lat="43.83535582940652" lon="11.313603958727214"><ele>174.75</ele><time>2026-05-02T08:22:33.805Z</time></trkpt><trkpt lat="43.83546151722092" lon="11.313741540707293"><ele>175.0</ele><time>2026-05-02T08:22:34.805Z</time></trkpt><trkpt lat="43.83556456765237" lon="11.313885057143748"><ele>176.5</ele><time>2026-05-02T08:22:35.805Z</time></trkpt><trkpt lat="43.83565750459616" lon="11.314043784621745"><ele>178.0</ele><time>2026-05-02T08:22:36.805Z</time></trkpt><trkpt lat="43.83575090891859" lon="11.314201977904457"><ele>179.5</ele><time>2026-05-02T08:22:37.805Z</time></trkpt><trkpt lat="43.835844314634514" lon="11.314359990761913"><ele>181.0</ele><time>2026-05-02T08:22:38.805Z</time></trkpt><trkpt lat="43.835939602885546" lon="11.31451378771985"><ele>180.25</ele><time>2026-05-02T08:22:39.805Z</time></trkpt><trkpt lat="43.836038532892395" lon="11.314664672619035"><ele>179.5</ele><time>2026-05-02T08:22:40.805Z</time></trkpt><trkpt lat="43.836139898509025" lon="11.314812381213581"><ele>178.75</ele><time>2026-05-02T08:22:41.805Z</time></trkpt><trkpt lat="43.83625104153659" lon="11.3149538962194"><ele>178.0</ele><time>2026-05-02T08:22:42.805Z</time></trkpt><trkpt lat="43.8363743896982" lon="11.315087919359884"><ele>180.0</ele><time>2026-05-02T08:22:43.805Z</time></trkpt><trkpt lat="43.836492933410135" lon="11.315233423101848"><ele>182.0</ele><time>2026-05-02T08:22:44.805Z</time></trkpt><trkpt lat="43.83661091880706" lon="11.315391171447827"><ele>184.0</ele><time>2026-05-02T08:22:45.805Z</time></trkpt><trkpt lat="43.83673534405532" lon="11.315542798998141"><ele>184.66666666666669</ele><time>2026-05-02T08:22:46.805Z</time></trkpt><trkpt lat="43.83686186290115" lon="11.315700883424363"><ele>185.33333333333334</ele><time>2026-05-02T08:22:47.805Z</time></trkpt><trkpt lat="43.8369843053614" lon="11.31585918315264"><ele>186.0</ele><time>2026-05-02T08:22:48.805Z</time></trkpt><trkpt lat="43.83709589095839" lon="11.316022894623805"><ele>186.0</ele><time>2026-05-02T08:22:49.805Z</time></trkpt><trkpt lat="43.83721332175641" lon="11.31618626724896"><ele>186.0</ele><time>2026-05-02T08:22:50.805Z</time></trkpt><trkpt lat="43.837330883258446" lon="11.316340152627514"><ele>186.0</ele><time>2026-05-02T08:22:51.805Z</time></trkpt><trkpt lat="43.83745338907475" lon="11.316468917370383"><ele>187.66666666666666</ele><time>2026-05-02T08:22:52.805Z</time></trkpt><trkpt lat="43.837583879610484" lon="11.3165924366378"><ele>189.33333333333331</ele><time>2026-05-02T08:22:53.805Z</time></trkpt><trkpt lat="43.837718536642406" lon="11.316706607556856"><ele>191.0</ele><time>2026-05-02T08:22:54.805Z</time></trkpt><trkpt lat="43.83785330380716" lon="11.316833205854213"><ele>191.0</ele><time>2026-05-02T08:22:55.805Z</time></trkpt><trkpt lat="43.83799555984103" lon="11.316951770394557"><ele>191.0</ele><time>2026-05-02T08:22:56.805Z</time></trkpt><trkpt lat="43.838144257714205" lon="11.31705587010528"><ele>191.0</ele><time>2026-05-02T08:22:57.805Z</time></trkpt><trkpt lat="43.838298773480275" lon="11.317134641872702"><ele>191.0</ele><time>2026-05-02T08:22:58.804Z</time></trkpt><trkpt lat="43.83845440890035" lon="11.31720730929347"><ele>191.0</ele><time>2026-05-02T08:22:59.804Z</time></trkpt><trkpt lat="43.83860116255577" lon="11.317298301901948"><ele>191.0</ele><time>2026-05-02T08:23:00.804Z</time></trkpt><trkpt lat="43.83875520217113" lon="11.317394521104491"><ele>194.0</ele><time>2026-05-02T08:23:01.804Z</time></trkpt><trkpt lat="43.83891236904704" lon="11.317479828547585"><ele>197.0</ele><time>2026-05-02T08:23:02.804Z</time></trkpt><trkpt lat="43.839071228492976" lon="11.31754228652218"><ele>200.0</ele><time>2026-05-02T08:23:03.804Z</time></trkpt><trkpt lat="43.83922591636926" lon="11.31757518598418"><ele>200.33333333333334</ele><time>2026-05-02T08:23:04.806Z</time></trkpt><trkpt lat="43.83938282844027" lon="11.3175905141787"><ele>200.66666666666669</ele><time>2026-05-02T08:23:05.805Z</time></trkpt><trkpt lat="43.83953408768166" lon="11.317608315550066"><ele>201.0</ele><time>2026-05-02T08:23:06.805Z</time></trkpt><trkpt lat="43.839674378951834" lon="11.317660761693665"><ele>201.0</ele><time>2026-05-02T08:23:07.806Z</time></trkpt><trkpt lat="43.83980407484153" lon="11.317745574241739"><ele>201.0</ele><time>2026-05-02T08:23:08.805Z</time></trkpt><trkpt lat="43.839937245021055" lon="11.317851026014395"><ele>201.0</ele><time>2026-05-02T08:23:09.805Z</time></trkpt><trkpt lat="43.84006334766914" lon="11.317976679208037"><ele>203.33333333333331</ele><time>2026-05-02T08:23:10.806Z</time></trkpt><trkpt lat="43.84018910044511" lon="11.318114579189773"><ele>205.66666666666666</ele><time>2026-05-02T08:23:11.805Z</time></trkpt><trkpt lat="43.8403099520507" lon="11.318258640986002"><ele>208.0</ele><time>2026-05-02T08:23:12.805Z</time></trkpt><trkpt lat="43.84042889433544" lon="11.31841276151577"><ele>208.0</ele><time>2026-05-02T08:23:13.805Z</time></trkpt><trkpt lat="43.840549786332645" lon="11.318570681241718"><ele>208.0</ele><time>2026-05-02T08:23:14.806Z</time></trkpt><trkpt lat="43.84066653024633" lon="11.318732330401089"><ele>208.0</ele><time>2026-05-02T08:23:15.806Z</time></trkpt><trkpt lat="43.84078667311356" lon="11.318897201202164"><ele>209.33333333333331</ele><time>2026-05-02T08:23:16.805Z</time></trkpt><trkpt lat="43.84091091071725" lon="11.319062783453864"><ele>210.66666666666669</ele><time>2026-05-02T08:23:17.806Z</time></trkpt><trkpt lat="43.841039078561586" lon="11.319223838967314"><ele>212.0</ele><time>2026-05-02T08:23:18.805Z</time></trkpt><trkpt lat="43.841170739763555" lon="11.31936645657171"><ele>212.0</ele><time>2026-05-02T08:23:19.805Z</time></trkpt><trkpt lat="43.84131154320955" lon="11.319475232080233"><ele>212.0</ele><time>2026-05-02T08:23:20.805Z</time></trkpt><trkpt lat="43.84146186690023" lon="11.3195668548467"><ele>212.0</ele><time>2026-05-02T08:23:21.805Z</time></trkpt><trkpt lat="43.84159628746669" lon="11.319682385195119"><ele>213.33333333333334</ele><time>2026-05-02T08:23:22.805Z</time></trkpt><trkpt lat="43.84171503401087" lon="11.319819651791162"><ele>214.66666666666669</ele><time>2026-05-02T08:23:23.805Z</time></trkpt><trkpt lat="43.84181029712963" lon="11.319987577789961"><ele>216.0</ele><time>2026-05-02T08:23:24.805Z</time></trkpt><trkpt lat="43.841888688807806" lon="11.32017640545579"><ele>216.0</ele><time>2026-05-02T08:23:25.805Z</time></trkpt><trkpt lat="43.84195510537789" lon="11.32036260907729"><ele>216.0</ele><time>2026-05-02T08:23:26.805Z</time></trkpt><trkpt lat="43.84202202750337" lon="11.320558875738252"><ele>216.0</ele><time>2026-05-02T08:23:27.805Z</time></trkpt><trkpt lat="43.84208298659177" lon="11.320759405417444"><ele>217.0</ele><time>2026-05-02T08:23:28.805Z</time></trkpt><trkpt lat="43.84214603493335" lon="11.320957289372354"><ele>218.0</ele><time>2026-05-02T08:23:29.805Z</time></trkpt><trkpt lat="43.84220783308014" lon="11.321153295327134"><ele>219.0</ele><time>2026-05-02T08:23:30.805Z</time></trkpt><trkpt lat="43.8422740264107" lon="11.321329865762321"><ele>221.75</ele><time>2026-05-02T08:23:31.805Z</time></trkpt><trkpt lat="43.84235054339246" lon="11.321476908711476"><ele>224.5</ele><time>2026-05-02T08:23:32.805Z</time></trkpt><trkpt lat="43.84245532521585" lon="11.321588827531748"><ele>227.25</ele><time>2026-05-02T08:23:33.805Z</time></trkpt><trkpt lat="43.84258742169737" lon="11.321662535921055"><ele>230.0</ele><time>2026-05-02T08:23:34.805Z</time></trkpt><trkpt lat="43.84273848340843" lon="11.32172851427055"><ele>230.33333333333334</ele><time>2026-05-02T08:23:35.805Z</time></trkpt><trkpt lat="43.84289886418041" lon="11.321740261265878"><ele>230.66666666666669</ele><time>2026-05-02T08:23:36.805Z</time></trkpt><trkpt lat="43.843051606374296" lon="11.321709324430762"><ele>231.0</ele><time>2026-05-02T08:23:37.805Z</time></trkpt><trkpt lat="43.84320851096851" lon="11.32167119414812"><ele>231.0</ele><time>2026-05-02T08:23:38.805Z</time></trkpt><trkpt lat="43.84335736039884" lon="11.321643426506489"><ele>231.0</ele><time>2026-05-02T08:23:39.805Z</time></trkpt><trkpt lat="43.84348776343647" lon="11.321662328549479"><ele>231.0</ele><time>2026-05-02T08:23:40.805Z</time></trkpt><trkpt lat="43.843594225548834" lon="11.321749036318035"><ele>231.0</ele><time>2026-05-02T08:23:41.805Z</time></trkpt><trkpt lat="43.84367716237665" lon="11.321895311975663"><ele>229.75</ele><time>2026-05-02T08:23:42.805Z</time></trkpt><trkpt lat="43.843756597355174" lon="11.322065503240836"><ele>228.5</ele><time>2026-05-02T08:23:43.804Z</time></trkpt><trkpt lat="43.84383465885535" lon="11.322238018806196"><ele>227.25</ele><time>2026-05-02T08:23:44.804Z</time></trkpt><trkpt lat="43.8438987171348" lon="11.322425024800573"><ele>226.0</ele><time>2026-05-02T08:23:45.804Z</time></trkpt><trkpt lat="43.84393559241029" lon="11.322635252512786"><ele>229.33333333333331</ele><time>2026-05-02T08:23:46.804Z</time></trkpt><trkpt lat="43.84396148798102" lon="11.322847063225595"><ele>232.66666666666669</ele><time>2026-05-02T08:23:47.804Z</time></trkpt><trkpt lat="43.844001234025136" lon="11.32306557575015"><ele>236.0</ele><time>2026-05-02T08:23:48.804Z</time></trkpt><trkpt lat="43.84404683350388" lon="11.323273838824232"><ele>239.0</ele><time>2026-05-02T08:23:49.804Z</time></trkpt><trkpt lat="43.844121924411176" lon="11.323459995078743"><ele>242.0</ele><time>2026-05-02T08:23:50.804Z</time></trkpt><trkpt lat="43.84423054509069" lon="11.323606218065638"><ele>245.0</ele><time>2026-05-02T08:23:51.804Z</time></trkpt><trkpt lat="43.844366808266344" lon="11.32371231794834"><ele>245.33333333333334</ele><time>2026-05-02T08:23:52.804Z</time></trkpt><trkpt lat="43.84451477595628" lon="11.32379985023189"><ele>245.66666666666669</ele><time>2026-05-02T08:23:53.804Z</time></trkpt><trkpt lat="43.84467411636144" lon="11.323885289786885"><ele>246.0</ele><time>2026-05-02T08:23:54.804Z</time></trkpt><trkpt lat="43.84483293071454" lon="11.323971969224287"><ele>249.33333333333331</ele><time>2026-05-02T08:23:55.804Z</time></trkpt><trkpt lat="43.8449906555695" lon="11.324064091173925"><ele>252.66666666666666</ele><time>2026-05-02T08:23:56.804Z</time></trkpt><trkpt lat="43.845154727919144" lon="11.32415771185266"><ele>256.0</ele><time>2026-05-02T08:23:57.804Z</time></trkpt><trkpt lat="43.845325318663335" lon="11.324250813049268"><ele>257.0</ele><time>2026-05-02T08:23:58.804Z</time></trkpt><trkpt lat="43.84549273581533" lon="11.324327338654196"><ele>258.0</ele><time>2026-05-02T08:23:59.804Z</time></trkpt><trkpt lat="43.84565790774806" lon="11.324382301128505"><ele>259.0</ele><time>2026-05-02T08:24:00.804Z</time></trkpt><trkpt lat="43.84581169855467" lon="11.324420116825777"><ele>259.0</ele><time>2026-05-02T08:24:01.804Z</time></trkpt><trkpt lat="43.845949299078136" lon="11.324413145064606"><ele>259.0</ele><time>2026-05-02T08:24:02.804Z</time></trkpt><trkpt lat="43.8460768641672" lon="11.324345728403651"><ele>259.0</ele><time>2026-05-02T08:24:03.804Z</time></trkpt><trkpt lat="43.84619335702955" lon="11.324225558214206"><ele>259.0</ele><time>2026-05-02T08:24:04.804Z</time></trkpt><trkpt lat="43.84630197812189" lon="11.324082838025113"><ele>260.0</ele><time>2026-05-02T08:24:05.804Z</time></trkpt><trkpt lat="43.8464159611135" lon="11.323938452263345"><ele>261.0</ele><time>2026-05-02T08:24:06.804Z</time></trkpt><trkpt lat="43.84653942411372" lon="11.32381091133527"><ele>262.0</ele><time>2026-05-02T08:24:07.804Z</time></trkpt><trkpt lat="43.84668422073534" lon="11.323755436913167"><ele>263.0</ele><time>2026-05-02T08:24:08.803Z</time></trkpt><trkpt lat="43.846833452268434" lon="11.323777190034564"><ele>264.0</ele><time>2026-05-02T08:24:09.803Z</time></trkpt><trkpt lat="43.84696807089918" lon="11.323852854307152"><ele>265.0</ele><time>2026-05-02T08:24:10.803Z</time></trkpt><trkpt lat="43.847100135883586" lon="11.3239246752648"><ele>266.0</ele><time>2026-05-02T08:24:11.803Z</time></trkpt><trkpt lat="43.847244668875184" lon="11.323999884038747"><ele>267.6666666666667</ele><time>2026-05-02T08:24:12.803Z</time></trkpt><trkpt lat="43.84739150239725" lon="11.324072709502225"><ele>269.3333333333333</ele><time>2026-05-02T08:24:13.803Z</time></trkpt><trkpt lat="43.84754412175828" lon="11.32415794426035"><ele>271.0</ele><time>2026-05-02T08:24:14.803Z</time></trkpt><trkpt lat="43.84769672987679" lon="11.324255824173102"><ele>271.0</ele><time>2026-05-02T08:24:15.803Z</time></trkpt><trkpt lat="43.847850624618175" lon="11.324374560497047"><ele>271.0</ele><time>2026-05-02T08:24:16.803Z</time></trkpt><trkpt lat="43.84800862054214" lon="11.324508198670886"><ele>271.0</ele><time>2026-05-02T08:24:17.803Z</time></trkpt><trkpt lat="43.84816418102165" lon="11.32466125775377"><ele>273.66666666666663</ele><time>2026-05-02T08:24:18.803Z</time></trkpt><trkpt lat="43.848317102395285" lon="11.324822584837637"><ele>276.3333333333333</ele><time>2026-05-02T08:24:19.803Z</time></trkpt><trkpt lat="43.84847451492158" lon="11.324980053486492"><ele>279.0</ele><time>2026-05-02T08:24:20.803Z</time></trkpt><trkpt lat="43.84863563270111" lon="11.325132396689906"><ele>279.0</ele><time>2026-05-02T08:24:21.803Z</time></trkpt><trkpt lat="43.848798344410916" lon="11.325280913683429"><ele>279.0</ele><time>2026-05-02T08:24:22.803Z</time></trkpt><trkpt lat="43.84896397544042" lon="11.325420686172373"><ele>279.0</ele><time>2026-05-02T08:24:23.803Z</time></trkpt><trkpt lat="43.84912122802966" lon="11.325566742522836"><ele>282.0</ele><time>2026-05-02T08:24:24.803Z</time></trkpt><trkpt lat="43.84926296707563" lon="11.325728568993114"><ele>285.0</ele><time>2026-05-02T08:24:25.803Z</time></trkpt><trkpt lat="43.84938700821326" lon="11.325923270361692"><ele>288.0</ele><time>2026-05-02T08:24:26.803Z</time></trkpt><trkpt lat="43.84949537355919" lon="11.326130794818189"><ele>288.0</ele><time>2026-05-02T08:24:27.803Z</time></trkpt><trkpt lat="43.84958791169954" lon="11.326345200817524"><ele>288.0</ele><time>2026-05-02T08:24:28.803Z</time></trkpt><trkpt lat="43.84967862936689" lon="11.326562004514173"><ele>288.0</ele><time>2026-05-02T08:24:29.803Z</time></trkpt><trkpt lat="43.849775158884604" lon="11.326778767946768"><ele>290.6666666666667</ele><time>2026-05-02T08:24:30.803Z</time></trkpt><trkpt lat="43.84986960701712" lon="11.326995074089528"><ele>293.33333333333337</ele><time>2026-05-02T08:24:31.803Z</time></trkpt><trkpt lat="43.849963588872455" lon="11.327210459774282"><ele>296.0</ele><time>2026-05-02T08:24:32.803Z</time></trkpt><trkpt lat="43.85006183440794" lon="11.327414937632817"><ele>297.6666666666667</ele><time>2026-05-02T08:24:33.803Z</time></trkpt><trkpt lat="43.850184490751396" lon="11.327590976811159"><ele>299.3333333333333</ele><time>2026-05-02T08:24:34.802Z</time></trkpt><trkpt lat="43.8503418311669" lon="11.327713812136919"><ele>301.0</ele><time>2026-05-02T08:24:35.802Z</time></trkpt><trkpt lat="43.850520912692744" lon="11.327795252244549"><ele>301.0</ele><time>2026-05-02T08:24:36.802Z</time></trkpt><trkpt lat="43.85070294397475" lon="11.327865784021759"><ele>301.0</ele><time>2026-05-02T08:24:37.802Z</time></trkpt><trkpt lat="43.8508896518221" lon="11.327944629988298"><ele>301.0</ele><time>2026-05-02T08:24:38.802Z</time></trkpt><trkpt lat="43.85107684194039" lon="11.328029944094931"><ele>304.66666666666663</ele><time>2026-05-02T08:24:39.802Z</time></trkpt><trkpt lat="43.85126236809135" lon="11.328107494881795"><ele>308.3333333333333</ele><time>2026-05-02T08:24:40.802Z</time></trkpt><trkpt lat="43.85144555272445" lon="11.328182312839207"><ele>312.0</ele><time>2026-05-02T08:24:41.802Z</time></trkpt><trkpt lat="43.8516245741135" lon="11.328269504615774"><ele>312.0</ele><time>2026-05-02T08:24:42.802Z</time></trkpt><trkpt lat="43.85178868138748" lon="11.328384694290346"><ele>312.0</ele><time>2026-05-02T08:24:43.802Z</time></trkpt><trkpt lat="43.85193771087892" lon="11.32853343149819"><ele>312.0</ele><time>2026-05-02T08:24:44.802Z</time></trkpt><trkpt lat="43.8520822106026" lon="11.328699391658558"><ele>312.3333333333333</ele><time>2026-05-02T08:24:45.802Z</time></trkpt><trkpt lat="43.852228952399656" lon="11.328864869026289"><ele>312.66666666666663</ele><time>2026-05-02T08:24:46.802Z</time></trkpt><trkpt lat="43.85237624290716" lon="11.32903049706823"><ele>313.0</ele><time>2026-05-02T08:24:47.802Z</time></trkpt><trkpt lat="43.85251134749105" lon="11.329210737693687"><ele>316.66666666666663</ele><time>2026-05-02T08:24:48.802Z</time></trkpt><trkpt lat="43.85263409262989" lon="11.329411897218474"><ele>320.3333333333333</ele><time>2026-05-02T08:24:49.802Z</time></trkpt><trkpt lat="43.852742696288125" lon="11.329629676214635"><ele>324.0</ele><time>2026-05-02T08:24:50.802Z</time></trkpt><trkpt lat="43.85285242677242" lon="11.32983359153922"><ele>326.0</ele><time>2026-05-02T08:24:51.802Z</time></trkpt><trkpt lat="43.852973851242005" lon="11.330021684399284"><ele>328.0</ele><time>2026-05-02T08:24:52.802Z</time></trkpt><trkpt lat="43.8531206750494" lon="11.330175221915844"><ele>330.0</ele><time>2026-05-02T08:24:53.802Z</time></trkpt><trkpt lat="43.85327951750692" lon="11.330305343699887"><ele>330.0</ele><time>2026-05-02T08:24:54.802Z</time></trkpt><trkpt lat="43.85344631876508" lon="11.330420866201377"><ele>330.0</ele><time>2026-05-02T08:24:55.802Z</time></trkpt><trkpt lat="43.853617135735995" lon="11.330513032199528"><ele>330.0</ele><time>2026-05-02T08:24:56.802Z</time></trkpt><trkpt lat="43.85379702105357" lon="11.330588751442704"><ele>333.0</ele><time>2026-05-02T08:24:57.802Z</time></trkpt><trkpt lat="43.853954849958704" lon="11.330644621190729"><ele>336.0</ele><time>2026-05-02T08:24:58.802Z</time></trkpt><trkpt lat="43.85409104003306" lon="11.330672197327582"><ele>339.0</ele><time>2026-05-02T08:24:59.801Z</time></trkpt><trkpt lat="43.8542083203403" lon="11.330658451947478"><ele>342.0</ele><time>2026-05-02T08:25:00.801Z</time></trkpt><trkpt lat="43.85431049528713" lon="11.330589604729289"><ele>344.0</ele><time>2026-05-02T08:25:01.801Z</time></trkpt><trkpt lat="43.85438007627092" lon="11.330472573846269"><ele>346.0</ele><time>2026-05-02T08:25:02.801Z</time></trkpt><trkpt lat="43.85440325040933" lon="11.330313770940457"><ele>348.0</ele><time>2026-05-02T08:25:03.801Z</time></trkpt><trkpt lat="43.854370963275194" lon="11.330130868025302"><ele>350.0</ele><time>2026-05-02T08:25:04.801Z</time></trkpt><trkpt lat="43.854319272435006" lon="11.329934362692908"><ele>346.0</ele><time>2026-05-02T08:25:05.801Z</time></trkpt><trkpt lat="43.854280882006044" lon="11.3297349521824"><ele>342.0</ele><time>2026-05-02T08:25:06.801Z</time></trkpt><trkpt lat="43.854264403611936" lon="11.329522421156575"><ele>338.0</ele><time>2026-05-02T08:25:07.801Z</time></trkpt><trkpt lat="43.85427788738769" lon="11.329283076067641"><ele>339.6666666666667</ele><time>2026-05-02T08:25:08.801Z</time></trkpt><trkpt lat="43.854329345374815" lon="11.329053444743177"><ele>341.3333333333333</ele><time>2026-05-02T08:25:09.801Z</time></trkpt><trkpt lat="43.85442347015493" lon="11.328857558913878"><ele>343.0</ele><time>2026-05-02T08:25:10.803Z</time></trkpt><trkpt lat="43.854556147813554" lon="11.328731758778034"><ele>343.0</ele><time>2026-05-02T08:25:11.803Z</time></trkpt><trkpt lat="43.85471290275521" lon="11.328668352558555"><ele>343.0</ele><time>2026-05-02T08:25:12.803Z</time></trkpt><trkpt lat="43.85487999824938" lon="11.328669218992633"><ele>343.0</ele><time>2026-05-02T08:25:13.802Z</time></trkpt><trkpt lat="43.85503901728363" lon="11.328703820997655"><ele>345.3333333333333</ele><time>2026-05-02T08:25:14.802Z</time></trkpt><trkpt lat="43.85519936774232" lon="11.3287512101059"><ele>347.6666666666667</ele><time>2026-05-02T08:25:15.802Z</time></trkpt><trkpt lat="43.855353733579335" lon="11.328794227140147"><ele>350.0</ele><time>2026-05-02T08:25:16.802Z</time></trkpt><trkpt lat="43.85550276339707" lon="11.328848447585328"><ele>351.0</ele><time>2026-05-02T08:25:17.802Z</time></trkpt><trkpt lat="43.85564699688961" lon="11.328897081564849"><ele>352.0</ele><time>2026-05-02T08:25:18.802Z</time></trkpt><trkpt lat="43.855798669164244" lon="11.328970590259278"><ele>353.0</ele><time>2026-05-02T08:25:19.802Z</time></trkpt><trkpt lat="43.85595273860693" lon="11.329059348294969"><ele>355.33333333333337</ele><time>2026-05-02T08:25:20.802Z</time></trkpt><trkpt lat="43.856105120596084" lon="11.329158460187154"><ele>357.6666666666667</ele><time>2026-05-02T08:25:21.802Z</time></trkpt><trkpt lat="43.856238179728955" lon="11.329273268886933"><ele>360.0</ele><time>2026-05-02T08:25:22.802Z</time></trkpt><trkpt lat="43.856350916096886" lon="11.329419880351745"><ele>360.0</ele><time>2026-05-02T08:25:23.802Z</time></trkpt><trkpt lat="43.85642908276954" lon="11.329599710376737"><ele>360.0</ele><time>2026-05-02T08:25:24.802Z</time></trkpt><trkpt lat="43.85646345328191" lon="11.329806964541262"><ele>360.0</ele><time>2026-05-02T08:25:25.802Z</time></trkpt><trkpt lat="43.856442173261726" lon="11.33002069911144"><ele>362.0</ele><time>2026-05-02T08:25:26.802Z</time></trkpt><trkpt lat="43.856374165287306" lon="11.330225098912647"><ele>364.0</ele><time>2026-05-02T08:25:27.802Z</time></trkpt><trkpt lat="43.85627237102838" lon="11.330413414677775"><ele>366.0</ele><time>2026-05-02T08:25:28.802Z</time></trkpt><trkpt lat="43.85614155121604" lon="11.330568423175519"><ele>365.6666666666667</ele><time>2026-05-02T08:25:29.802Z</time></trkpt><trkpt lat="43.85599112178053" lon="11.330683004037592"><ele>365.33333333333337</ele><time>2026-05-02T08:25:30.802Z</time></trkpt><trkpt lat="43.855828811626566" lon="11.330780703017295"><ele>365.0</ele><time>2026-05-02T08:25:31.802Z</time></trkpt><trkpt lat="43.855673093878934" lon="11.330898458856115"><ele>365.0</ele><time>2026-05-02T08:25:32.802Z</time></trkpt><trkpt lat="43.85554674670078" lon="11.331056443813639"><ele>365.0</ele><time>2026-05-02T08:25:33.802Z</time></trkpt><trkpt lat="43.85545855315192" lon="11.331261662099177"><ele>365.0</ele><time>2026-05-02T08:25:34.802Z</time></trkpt><trkpt lat="43.85540417823763" lon="11.331494080988657"><ele>368.0</ele><time>2026-05-02T08:25:35.802Z</time></trkpt><trkpt lat="43.85538374950706" lon="11.33173984718852"><ele>371.0</ele><time>2026-05-02T08:25:36.802Z</time></trkpt><trkpt lat="43.85540777454522" lon="11.331976658788015"><ele>374.0</ele><time>2026-05-02T08:25:37.802Z</time></trkpt><trkpt lat="43.85547858902355" lon="11.332182680775672"><ele>375.6666666666667</ele><time>2026-05-02T08:25:38.802Z</time></trkpt><trkpt lat="43.85558322561665" lon="11.332366426702718"><ele>377.3333333333333</ele><time>2026-05-02T08:25:39.802Z</time></trkpt><trkpt lat="43.85572330711357" lon="11.332518668025097"><ele>379.0</ele><time>2026-05-02T08:25:40.802Z</time></trkpt><trkpt lat="43.85587777461256" lon="11.332660495674913"><ele>382.0</ele><time>2026-05-02T08:25:41.802Z</time></trkpt><trkpt lat="43.856012025843526" lon="11.332821427752803"><ele>385.0</ele><time>2026-05-02T08:25:42.802Z</time></trkpt><trkpt lat="43.85610692571655" lon="11.33301567449956"><ele>388.0</ele><time>2026-05-02T08:25:43.802Z</time></trkpt><trkpt lat="43.85613986945393" lon="11.333217136165901"><ele>390.33333333333337</ele><time>2026-05-02T08:25:44.802Z</time></trkpt><trkpt lat="43.85612187875359" lon="11.333431509389735"><ele>392.66666666666663</ele><time>2026-05-02T08:25:45.802Z</time></trkpt><trkpt lat="43.85605797663851" lon="11.333639436721144"><ele>395.0</ele><time>2026-05-02T08:25:46.802Z</time></trkpt><trkpt lat="43.855976237044636" lon="11.33384476809159"><ele>393.5</ele><time>2026-05-02T08:25:47.801Z</time></trkpt><trkpt lat="43.85591795735148" lon="11.334024309683905"><ele>392.0</ele><time>2026-05-02T08:25:48.801Z</time></trkpt><trkpt lat="43.85589459100394" lon="11.33419743261813"><ele>390.5</ele><time>2026-05-02T08:25:49.801Z</time></trkpt><trkpt lat="43.855899797190155" lon="11.334354685454466"><ele>389.0</ele><time>2026-05-02T08:25:50.801Z</time></trkpt><trkpt lat="43.855944176043195" lon="11.334509263755793"><ele>392.0</ele><time>2026-05-02T08:25:51.801Z</time></trkpt><trkpt lat="43.85601782840915" lon="11.334665245519119"><ele>395.0</ele><time>2026-05-02T08:25:52.801Z</time></trkpt><trkpt lat="43.85610333873313" lon="11.334836686891583"><ele>398.0</ele><time>2026-05-02T08:25:53.801Z</time></trkpt><trkpt lat="43.85618341815467" lon="11.33502616891401"><ele>401.0</ele><time>2026-05-02T08:25:54.801Z</time></trkpt><trkpt lat="43.85626997398296" lon="11.33521810375659"><ele>401.66666666666663</ele><time>2026-05-02T08:25:55.801Z</time></trkpt><trkpt lat="43.85637584824068" lon="11.335382866822773"><ele>402.33333333333337</ele><time>2026-05-02T08:25:56.801Z</time></trkpt><trkpt lat="43.85650331896181" lon="11.33550962330269"><ele>403.0</ele><time>2026-05-02T08:25:57.801Z</time></trkpt><trkpt lat="43.85662764172005" lon="11.335583832473228"><ele>403.5</ele><time>2026-05-02T08:25:58.801Z</time></trkpt><trkpt lat="43.85674787031145" lon="11.335568034382739"><ele>404.0</ele><time>2026-05-02T08:25:59.801Z</time></trkpt><trkpt lat="43.856836539872866" lon="11.335468237881324"><ele>404.5</ele><time>2026-05-02T08:26:00.801Z</time></trkpt><trkpt lat="43.8568770368871" lon="11.33529631671036"><ele>405.0</ele><time>2026-05-02T08:26:01.801Z</time></trkpt><trkpt lat="43.856887840589536" lon="11.335089622593442"><ele>406.0</ele><time>2026-05-02T08:26:02.801Z</time></trkpt><trkpt lat="43.85690821575484" lon="11.334869016001774"><ele>407.0</ele><time>2026-05-02T08:26:03.801Z</time></trkpt><trkpt lat="43.856964942420866" lon="11.334662495907907"><ele>408.0</ele><time>2026-05-02T08:26:04.801Z</time></trkpt><trkpt lat="43.857054184530696" lon="11.334474801300113"><ele>408.0</ele><time>2026-05-02T08:26:05.801Z</time></trkpt><trkpt lat="43.85716453246634" lon="11.334349576754692"><ele>408.0</ele><time>2026-05-02T08:26:06.801Z</time></trkpt><trkpt lat="43.85729962942625" lon="11.334305203446718"><ele>408.0</ele><time>2026-05-02T08:26:07.801Z</time></trkpt><trkpt lat="43.85744310392191" lon="11.334330053832883"><ele>408.0</ele><time>2026-05-02T08:26:08.801Z</time></trkpt><trkpt lat="43.857595000012815" lon="11.334377604571193"><ele>409.66666666666663</ele><time>2026-05-02T08:26:09.801Z</time></trkpt><trkpt lat="43.85775136731501" lon="11.33442802682239"><ele>411.3333333333333</ele><time>2026-05-02T08:26:10.801Z</time></trkpt><trkpt lat="43.85791036591742" lon="11.334469653742751"><ele>413.0</ele><time>2026-05-02T08:26:11.801Z</time></trkpt><trkpt lat="43.858073449444205" lon="11.334475534658152"><ele>413.0</ele><time>2026-05-02T08:26:12.8Z</time></trkpt><trkpt lat="43.858224730425626" lon="11.33446002178612"><ele>413.0</ele><time>2026-05-02T08:26:13.8Z</time></trkpt><trkpt lat="43.8583628814784" lon="11.33444958103768"><ele>413.0</ele><time>2026-05-02T08:26:14.8Z</time></trkpt><trkpt lat="43.85848635120553" lon="11.33448101676536"><ele>413.0</ele><time>2026-05-02T08:26:15.8Z</time></trkpt><trkpt lat="43.85859135075444" lon="11.334560265547765"><ele>414.5</ele><time>2026-05-02T08:26:16.8Z</time></trkpt><trkpt lat="43.858676900300345" lon="11.334699235114886"><ele>416.0</ele><time>2026-05-02T08:26:17.8Z</time></trkpt><trkpt lat="43.85872160094111" lon="11.334872287846993"><ele>417.5</ele><time>2026-05-02T08:26:18.8Z</time></trkpt><trkpt lat="43.85872347561255" lon="11.335054771355889"><ele>419.0</ele><time>2026-05-02T08:26:19.8Z</time></trkpt><trkpt lat="43.85867448730707" lon="11.335226043340572"><ele>421.25</ele><time>2026-05-02T08:26:20.8Z</time></trkpt><trkpt lat="43.85858979489854" lon="11.335380170943496"><ele>423.5</ele><time>2026-05-02T08:26:21.8Z</time></trkpt><trkpt lat="43.85848189000849" lon="11.335524226912822"><ele>425.75</ele><time>2026-05-02T08:26:22.8Z</time></trkpt><trkpt lat="43.85837246538916" lon="11.335670620254293"><ele>428.0</ele><time>2026-05-02T08:26:23.8Z</time></trkpt><trkpt lat="43.858274995462196" lon="11.335831192837295"><ele>428.0</ele><time>2026-05-02T08:26:24.8Z</time></trkpt><trkpt lat="43.85819035257493" lon="11.33601322718053"><ele>428.0</ele><time>2026-05-02T08:26:25.8Z</time></trkpt><trkpt lat="43.85813435875801" lon="11.336207852079896"><ele>428.0</ele><time>2026-05-02T08:26:26.8Z</time></trkpt><trkpt lat="43.85810332601132" lon="11.336412523055007"><ele>431.0</ele><time>2026-05-02T08:26:27.8Z</time></trkpt><trkpt lat="43.85810207964819" lon="11.336621717618552"><ele>434.0</ele><time>2026-05-02T08:26:28.8Z</time></trkpt><trkpt lat="43.8581266081184" lon="11.33684124040963"><ele>437.0</ele><time>2026-05-02T08:26:29.8Z</time></trkpt><trkpt lat="43.85814714505241" lon="11.33706114808931"><ele>438.3333333333333</ele><time>2026-05-02T08:26:30.8Z</time></trkpt><trkpt lat="43.8581651902219" lon="11.337289206195267"><ele>439.66666666666663</ele><time>2026-05-02T08:26:31.8Z</time></trkpt><trkpt lat="43.85818463082412" lon="11.337501181362892"><ele>441.0</ele><time>2026-05-02T08:26:32.8Z</time></trkpt><trkpt lat="43.85822214214741" lon="11.33767609401517"><ele>441.0</ele><time>2026-05-02T08:26:33.8Z</time></trkpt><trkpt lat="43.85827830732905" lon="11.337842621120144"><ele>441.0</ele><time>2026-05-02T08:26:34.8Z</time></trkpt><trkpt lat="43.85835771474529" lon="11.338001714283887"><ele>441.0</ele><time>2026-05-02T08:26:35.8Z</time></trkpt><trkpt lat="43.85845679447596" lon="11.338144025735012"><ele>441.0</ele><time>2026-05-02T08:26:36.8Z</time></trkpt><trkpt lat="43.8585630446605" lon="11.33827465984223"><ele>444.25</ele><time>2026-05-02T08:26:37.8Z</time></trkpt><trkpt lat="43.858654734043164" lon="11.33840233568505"><ele>447.5</ele><time>2026-05-02T08:26:38.799Z</time></trkpt><trkpt lat="43.85870150401416" lon="11.33855634433875"><ele>450.75</ele><time>2026-05-02T08:26:39.799Z</time></trkpt><trkpt lat="43.858689835353964" lon="11.338735116298581"><ele>454.0</ele><time>2026-05-02T08:26:40.799Z</time></trkpt><trkpt lat="43.85862914825563" lon="11.33891526730596"><ele>455.6666666666667</ele><time>2026-05-02T08:26:41.799Z</time></trkpt><trkpt lat="43.858554937759266" lon="11.339096807037068"><ele>457.33333333333337</ele><time>2026-05-02T08:26:42.799Z</time></trkpt><trkpt lat="43.858484140535026" lon="11.339287337923285"><ele>459.0</ele><time>2026-05-02T08:26:43.799Z</time></trkpt><trkpt lat="43.85841958619512" lon="11.339493426299528"><ele>455.66666666666663</ele><time>2026-05-02T08:26:44.799Z</time></trkpt><trkpt lat="43.85836729031749" lon="11.339712209384253"><ele>452.3333333333333</ele><time>2026-05-02T08:26:45.799Z</time></trkpt><trkpt lat="43.85833422576028" lon="11.339923971364087"><ele>449.0</ele><time>2026-05-02T08:26:46.799Z</time></trkpt><trkpt lat="43.85832644171243" lon="11.34011253709567"><ele>449.0</ele><time>2026-05-02T08:26:47.799Z</time></trkpt><trkpt lat="43.85836293515395" lon="11.340276423709524"><ele>449.0</ele><time>2026-05-02T08:26:48.799Z</time></trkpt><trkpt lat="43.85844619292089" lon="11.340380930594927"><ele>449.0</ele><time>2026-05-02T08:26:49.799Z</time></trkpt><trkpt lat="43.85855251941875" lon="11.340406524400258"><ele>449.0</ele><time>2026-05-02T08:26:50.799Z</time></trkpt><trkpt lat="43.85866667765906" lon="11.340335744748867"><ele>454.3333333333333</ele><time>2026-05-02T08:26:51.799Z</time></trkpt><trkpt lat="43.85875764437967" lon="11.340203828966859"><ele>459.66666666666663</ele><time>2026-05-02T08:26:52.799Z</time></trkpt><trkpt lat="43.85894242177639" lon="11.339891701533377"><ele>465.0</ele><time>2026-05-02T08:26:54.799Z</time></trkpt><trkpt lat="43.85907342509376" lon="11.339809438326546"><ele>465.0</ele><time>2026-05-02T08:26:55.799Z</time></trkpt><trkpt lat="43.85922126777869" lon="11.339793761969212"><ele>465.0</ele><time>2026-05-02T08:26:56.799Z</time></trkpt><trkpt lat="43.859399494584764" lon="11.339825704340395"><ele>465.0</ele><time>2026-05-02T08:26:57.799Z</time></trkpt><trkpt lat="43.85956933926154" lon="11.339875921063408"><ele>468.0</ele><time>2026-05-02T08:26:58.799Z</time></trkpt><trkpt lat="43.85974379223508" lon="11.339927468176402"><ele>471.0</ele><time>2026-05-02T08:26:59.799Z</time></trkpt><trkpt lat="43.85992443698304" lon="11.339976639516468"><ele>474.0</ele><time>2026-05-02T08:27:00.799Z</time></trkpt><trkpt lat="43.86010424561591" lon="11.340043219838849"><ele>475.66666666666663</ele><time>2026-05-02T08:27:01.799Z</time></trkpt><trkpt lat="43.86027906866532" lon="11.340119736947276"><ele>477.3333333333333</ele><time>2026-05-02T08:27:02.799Z</time></trkpt><trkpt lat="43.86045190424017" lon="11.340196004236454"><ele>479.0</ele><time>2026-05-02T08:27:03.798Z</time></trkpt><trkpt lat="43.86062268809922" lon="11.34026886901934"><ele>479.0</ele><time>2026-05-02T08:27:04.798Z</time></trkpt><trkpt lat="43.86079983326707" lon="11.340350377470992"><ele>479.0</ele><time>2026-05-02T08:27:05.798Z</time></trkpt><trkpt lat="43.86095396511347" lon="11.340425479713547"><ele>479.0</ele><time>2026-05-02T08:27:06.798Z</time></trkpt><trkpt lat="43.86109327092628" lon="11.340442612167758"><ele>482.0</ele><time>2026-05-02T08:27:07.798Z</time></trkpt><trkpt lat="43.861254192185235" lon="11.340402036115323"><ele>485.0</ele><time>2026-05-02T08:27:08.798Z</time></trkpt><trkpt lat="43.86139700406382" lon="11.340300213040868"><ele>488.0</ele><time>2026-05-02T08:27:09.798Z</time></trkpt><trkpt lat="43.86152195529211" lon="11.34017806346599"><ele>488.0</ele><time>2026-05-02T08:27:10.798Z</time></trkpt><trkpt lat="43.86164641662762" lon="11.340041845572168"><ele>488.0</ele><time>2026-05-02T08:27:11.798Z</time></trkpt><trkpt lat="43.861771397977385" lon="11.339922562150981"><ele>488.0</ele><time>2026-05-02T08:27:12.798Z</time></trkpt><trkpt lat="43.86190026318598" lon="11.339808175219341"><ele>489.66666666666663</ele><time>2026-05-02T08:27:13.798Z</time></trkpt><trkpt lat="43.86204096109303" lon="11.339708966854081"><ele>491.33333333333337</ele><time>2026-05-02T08:27:14.798Z</time></trkpt><trkpt lat="43.86220084472103" lon="11.339670042970663"><ele>493.0</ele><time>2026-05-02T08:27:15.798Z</time></trkpt><trkpt lat="43.86236367646795" lon="11.33966864467625"><ele>493.0</ele><time>2026-05-02T08:27:16.799Z</time></trkpt><trkpt lat="43.862527487006204" lon="11.33967985474954"><ele>493.0</ele><time>2026-05-02T08:27:17.799Z</time></trkpt><trkpt lat="43.86269326649798" lon="11.339700072933983"><ele>493.0</ele><time>2026-05-02T08:27:18.799Z</time></trkpt><trkpt lat="43.86285762796993" lon="11.339729948062601"><ele>496.6666666666667</ele><time>2026-05-02T08:27:19.799Z</time></trkpt><trkpt lat="43.863017636453954" lon="11.339786166653875"><ele>500.33333333333337</ele><time>2026-05-02T08:27:20.799Z</time></trkpt><trkpt lat="43.863162146365916" lon="11.339852915496074"><ele>504.0</ele><time>2026-05-02T08:27:21.799Z</time></trkpt><trkpt lat="43.86341671764044" lon="11.339968753503669"><ele>505.5</ele><time>2026-05-02T08:27:23.798Z</time></trkpt><trkpt lat="43.86354242192421" lon="11.340020072250859"><ele>507.0</ele><time>2026-05-02T08:27:24.798Z</time></trkpt><trkpt lat="43.863679731128215" lon="11.340072651789193"><ele>508.5</ele><time>2026-05-02T08:27:25.799Z</time></trkpt><trkpt lat="43.86382312389217" lon="11.340121030752384"><ele>510.0</ele><time>2026-05-02T08:27:26.799Z</time></trkpt><trkpt lat="43.86397320443058" lon="11.340164169923934"><ele>510.0</ele><time>2026-05-02T08:27:27.799Z</time></trkpt><trkpt lat="43.86412807554494" lon="11.340210328525659"><ele>510.0</ele><time>2026-05-02T08:27:28.799Z</time></trkpt><trkpt lat="43.86428559521348" lon="11.34026737892393"><ele>510.0</ele><time>2026-05-02T08:27:29.799Z</time></trkpt><trkpt lat="43.86444348950423" lon="11.340331900238938"><ele>511.0</ele><time>2026-05-02T08:27:30.799Z</time></trkpt><trkpt lat="43.86459058654715" lon="11.340402315929946"><ele>512.0</ele><time>2026-05-02T08:27:31.799Z</time></trkpt><trkpt lat="43.86472287093739" lon="11.340470072549369"><ele>513.0</ele><time>2026-05-02T08:27:32.799Z</time></trkpt><trkpt lat="43.86484172232622" lon="11.340527522390536"><ele>514.0</ele><time>2026-05-02T08:27:33.799Z</time></trkpt><trkpt lat="43.86494741288185" lon="11.34058138861296"><ele>515.25</ele><time>2026-05-02T08:27:34.799Z</time></trkpt><trkpt lat="43.8650446353548" lon="11.34063095336526"><ele>516.5</ele><time>2026-05-02T08:27:35.799Z</time></trkpt><trkpt lat="43.86514326671349" lon="11.340702075411885"><ele>517.75</ele><time>2026-05-02T08:27:36.799Z</time></trkpt><trkpt lat="43.865233565273606" lon="11.340809908113076"><ele>519.0</ele><time>2026-05-02T08:27:37.799Z</time></trkpt><trkpt lat="43.86530895171956" lon="11.340947436557617"><ele>520.5</ele><time>2026-05-02T08:27:38.799Z</time></trkpt><trkpt lat="43.86537987285579" lon="11.341097146522138"><ele>522.0</ele><time>2026-05-02T08:27:39.799Z</time></trkpt><trkpt lat="43.86546256387683" lon="11.3412406483477"><ele>523.5</ele><time>2026-05-02T08:27:40.799Z</time></trkpt><trkpt lat="43.86555466735527" lon="11.34138527798101"><ele>525.0</ele><time>2026-05-02T08:27:41.798Z</time></trkpt><trkpt lat="43.86566142473411" lon="11.34152425387983"><ele>525.0</ele><time>2026-05-02T08:27:42.798Z</time></trkpt><trkpt lat="43.865771434378715" lon="11.341662683144078"><ele>525.0</ele><time>2026-05-02T08:27:43.798Z</time></trkpt><trkpt lat="43.8658941582668" lon="11.34180202312342"><ele>525.0</ele><time>2026-05-02T08:27:44.798Z</time></trkpt><trkpt lat="43.86603704482838" lon="11.341928702770435"><ele>524.6666666666666</ele><time>2026-05-02T08:27:45.798Z</time></trkpt><trkpt lat="43.86619085104142" lon="11.34207119324767"><ele>524.3333333333333</ele><time>2026-05-02T08:27:46.798Z</time></trkpt><trkpt lat="43.86635318034649" lon="11.342220840278541"><ele>524.0</ele><time>2026-05-02T08:27:47.798Z</time></trkpt><trkpt lat="43.86651862741573" lon="11.342368281475439"><ele>524.0</ele><time>2026-05-02T08:27:48.798Z</time></trkpt><trkpt lat="43.86669073696519" lon="11.342519874511659"><ele>524.0</ele><time>2026-05-02T08:27:49.798Z</time></trkpt><trkpt lat="43.86685741613473" lon="11.342671336208598"><ele>524.0</ele><time>2026-05-02T08:27:50.798Z</time></trkpt><trkpt lat="43.86701003401179" lon="11.34281245845178"><ele>525.0</ele><time>2026-05-02T08:27:51.798Z</time></trkpt><trkpt lat="43.8671601826384" lon="11.342945346740027"><ele>526.0</ele><time>2026-05-02T08:27:52.798Z</time></trkpt><trkpt lat="43.86731124186184" lon="11.343081188453668"><ele>527.0</ele><time>2026-05-02T08:27:53.798Z</time></trkpt><trkpt lat="43.86746687751798" lon="11.343222308623718"><ele>525.6666666666666</ele><time>2026-05-02T08:27:54.798Z</time></trkpt><trkpt lat="43.8676177041545" lon="11.343370437227296"><ele>524.3333333333334</ele><time>2026-05-02T08:27:55.798Z</time></trkpt><trkpt lat="43.86774428730658" lon="11.343521485110724"><ele>523.0</ele><time>2026-05-02T08:27:56.798Z</time></trkpt><trkpt lat="43.86785986493561" lon="11.343672339112679"><ele>523.0</ele><time>2026-05-02T08:27:57.798Z</time></trkpt><trkpt lat="43.86798032927606" lon="11.343799060258727"><ele>523.0</ele><time>2026-05-02T08:27:58.798Z</time></trkpt><trkpt lat="43.86811979711913" lon="11.343874679812544"><ele>523.0</ele><time>2026-05-02T08:27:59.798Z</time></trkpt><trkpt lat="43.86826570001891" lon="11.3439047575283"><ele>523.0</ele><time>2026-05-02T08:28:00.798Z</time></trkpt><trkpt lat="43.868429009391015" lon="11.343893204677096"><ele>520.3333333333334</ele><time>2026-05-02T08:28:01.798Z</time></trkpt><trkpt lat="43.86860415599838" lon="11.34386415354228"><ele>517.6666666666666</ele><time>2026-05-02T08:28:02.798Z</time></trkpt><trkpt lat="43.86879201016566" lon="11.343838574195011"><ele>515.0</ele><time>2026-05-02T08:28:03.798Z</time></trkpt><trkpt lat="43.86898592670489" lon="11.343819501333536"><ele>515.0</ele><time>2026-05-02T08:28:04.798Z</time></trkpt><trkpt lat="43.869173547627646" lon="11.3438040090735"><ele>515.0</ele><time>2026-05-02T08:28:05.798Z</time></trkpt><trkpt lat="43.869361977135256" lon="11.343816848500554"><ele>515.0</ele><time>2026-05-02T08:28:06.797Z</time></trkpt><trkpt lat="43.86954374878166" lon="11.343871637907325"><ele>511.66666666666663</ele><time>2026-05-02T08:28:07.797Z</time></trkpt><trkpt lat="43.869704583210854" lon="11.343971114431348"><ele>508.33333333333337</ele><time>2026-05-02T08:28:08.797Z</time></trkpt><trkpt lat="43.86986575661458" lon="11.344096213341034"><ele>505.0</ele><time>2026-05-02T08:28:09.797Z</time></trkpt><trkpt lat="43.87003515459721" lon="11.344204792366364"><ele>504.33333333333337</ele><time>2026-05-02T08:28:10.797Z</time></trkpt><trkpt lat="43.8702064217397" lon="11.344260517395783"><ele>503.66666666666663</ele><time>2026-05-02T08:28:11.797Z</time></trkpt><trkpt lat="43.870381765552445" lon="11.344266082085387"><ele>503.0</ele><time>2026-05-02T08:28:12.797Z</time></trkpt><trkpt lat="43.87056906156968" lon="11.344235956469541"><ele>503.0</ele><time>2026-05-02T08:28:13.797Z</time></trkpt><trkpt lat="43.87076606371868" lon="11.344191297641824"><ele>503.0</ele><time>2026-05-02T08:28:14.797Z</time></trkpt><trkpt lat="43.87097521516142" lon="11.34415803095006"><ele>503.0</ele><time>2026-05-02T08:28:15.797Z</time></trkpt><trkpt lat="43.87119298058006" lon="11.34416042234429"><ele>502.0</ele><time>2026-05-02T08:28:16.797Z</time></trkpt><trkpt lat="43.87141967742859" lon="11.344199358986984"><ele>501.0</ele><time>2026-05-02T08:28:17.797Z</time></trkpt><trkpt lat="43.87163953854539" lon="11.344278088544826"><ele>499.0</ele><time>2026-05-02T08:28:18.797Z</time></trkpt><trkpt lat="43.87184510719712" lon="11.344373341795832"><ele>497.0</ele><time>2026-05-02T08:28:19.797Z</time></trkpt><trkpt lat="43.87205867031527" lon="11.34445210577311"><ele>495.0</ele><time>2026-05-02T08:28:20.797Z</time></trkpt><trkpt lat="43.87225183312661" lon="11.344490851312123"><ele>495.0</ele><time>2026-05-02T08:28:21.797Z</time></trkpt><trkpt lat="43.8724322549419" lon="11.344492402145365"><ele>495.0</ele><time>2026-05-02T08:28:22.797Z</time></trkpt><trkpt lat="43.87260600244489" lon="11.344476727390148"><ele>495.0</ele><time>2026-05-02T08:28:23.797Z</time></trkpt><trkpt lat="43.87277401920507" lon="11.344447733851485"><ele>495.0</ele><time>2026-05-02T08:28:24.797Z</time></trkpt><trkpt lat="43.87295122201982" lon="11.344480973080882"><ele>495.0</ele><time>2026-05-02T08:28:25.797Z</time></trkpt><trkpt lat="43.873116935463244" lon="11.343783057049942"><ele>495.0</ele><time>2026-05-02T08:28:26.797Z</time></trkpt><trkpt lat="43.873266738416" lon="11.343627003765434"><ele>495.0</ele><time>2026-05-02T08:28:27.797Z</time></trkpt><trkpt lat="43.87339841669411" lon="11.34346515593451"><ele>495.0</ele><time>2026-05-02T08:28:28.797Z</time></trkpt><trkpt lat="43.873527845970784" lon="11.343324237677173"><ele>494.0</ele><time>2026-05-02T08:28:29.797Z</time></trkpt><trkpt lat="43.87367991915506" lon="11.343253176606185"><ele>493.0</ele><time>2026-05-02T08:28:30.797Z</time></trkpt><trkpt lat="43.873862398190155" lon="11.343237469355985"><ele>492.0</ele><time>2026-05-02T08:28:31.797Z</time></trkpt><trkpt lat="43.87403682165044" lon="11.343222234562033"><ele>492.0</ele><time>2026-05-02T08:28:32.796Z</time></trkpt><trkpt lat="43.874229629345216" lon="11.343196672073098"><ele>492.0</ele><time>2026-05-02T08:28:33.796Z</time></trkpt><trkpt lat="43.87442714894996" lon="11.343173648386927"><ele>492.0</ele><time>2026-05-02T08:28:34.796Z</time></trkpt><trkpt lat="43.8746122217299" lon="11.343158385386522"><ele>491.0</ele><time>2026-05-02T08:28:35.796Z</time></trkpt><trkpt lat="43.87478593701983" lon="11.343127394695275"><ele>490.0</ele><time>2026-05-02T08:28:36.796Z</time></trkpt><trkpt lat="43.8749584889706" lon="11.343122672179323"><ele>489.0</ele><time>2026-05-02T08:28:37.796Z</time></trkpt><trkpt lat="43.875135004657594" lon="11.343164102438001"><ele>489.0</ele><time>2026-05-02T08:28:38.796Z</time></trkpt><trkpt lat="43.875313092636695" lon="11.34325465715481"><ele>489.0</ele><time>2026-05-02T08:28:39.796Z</time></trkpt><trkpt lat="43.87549138483179" lon="11.343393996358797"><ele>489.0</ele><time>2026-05-02T08:28:40.796Z</time></trkpt><trkpt lat="43.87566905155695" lon="11.343529308248232"><ele>489.0</ele><time>2026-05-02T08:28:41.796Z</time></trkpt><trkpt lat="43.875857824029445" lon="11.343661754741184"><ele>489.0</ele><time>2026-05-02T08:28:42.796Z</time></trkpt><trkpt lat="43.87604380512981" lon="11.343799807472685"><ele>489.0</ele><time>2026-05-02T08:28:43.796Z</time></trkpt><trkpt lat="43.87622451263584" lon="11.343910916368904"><ele>486.66666666666663</ele><time>2026-05-02T08:28:44.796Z</time></trkpt><trkpt lat="43.87640400732327" lon="11.34399282642219"><ele>484.3333333333333</ele><time>2026-05-02T08:28:45.796Z</time></trkpt><trkpt lat="43.87660266726228" lon="11.344025490021691"><ele>482.0</ele><time>2026-05-02T08:28:46.796Z</time></trkpt><trkpt lat="43.87681016134338" lon="11.344028822469516"><ele>482.0</ele><time>2026-05-02T08:28:47.796Z</time></trkpt><trkpt lat="43.87703168885106" lon="11.344043543804066"><ele>482.0</ele><time>2026-05-02T08:28:48.796Z</time></trkpt><trkpt lat="43.87723784532955" lon="11.344060681377751"><ele>482.0</ele><time>2026-05-02T08:28:49.796Z</time></trkpt><trkpt lat="43.87744176719096" lon="11.344091649797823"><ele>482.3333333333333</ele><time>2026-05-02T08:28:50.796Z</time></trkpt><trkpt lat="43.87765153999174" lon="11.344146057813104"><ele>482.66666666666663</ele><time>2026-05-02T08:28:51.796Z</time></trkpt><trkpt lat="43.877853438296476" lon="11.344225762175924"><ele>483.0</ele><time>2026-05-02T08:28:52.796Z</time></trkpt><trkpt lat="43.878046662127076" lon="11.34431082238511"><ele>483.0</ele><time>2026-05-02T08:28:53.796Z</time></trkpt><trkpt lat="43.8782330384089" lon="11.344389004922443"><ele>483.0</ele><time>2026-05-02T08:28:54.796Z</time></trkpt><trkpt lat="43.87840746230095" lon="11.344441004484526"><ele>483.0</ele><time>2026-05-02T08:28:55.796Z</time></trkpt><trkpt lat="43.87859075454174" lon="11.344441236082593"><ele>483.0</ele><time>2026-05-02T08:28:56.796Z</time></trkpt><trkpt lat="43.878766142712216" lon="11.344388284470645"><ele>483.0</ele><time>2026-05-02T08:28:57.795Z</time></trkpt><trkpt lat="43.87892576358205" lon="11.344370964155171"><ele>483.0</ele><time>2026-05-02T08:28:58.795Z</time></trkpt><trkpt lat="43.87908367429656" lon="11.34442104915785"><ele>483.0</ele><time>2026-05-02T08:28:59.795Z</time></trkpt><trkpt lat="43.87922565710373" lon="11.34454299271553"><ele>483.0</ele><time>2026-05-02T08:29:00.795Z</time></trkpt><trkpt lat="43.87932864156451" lon="11.3447282908883"><ele>483.0</ele><time>2026-05-02T08:29:01.795Z</time></trkpt><trkpt lat="43.87941181392226" lon="11.344955231825727"><ele>482.66666666666663</ele><time>2026-05-02T08:29:02.795Z</time></trkpt><trkpt lat="43.879492633635984" lon="11.345192021734832"><ele>482.3333333333333</ele><time>2026-05-02T08:29:03.795Z</time></trkpt><trkpt lat="43.879600780182145" lon="11.345431204935252"><ele>482.0</ele><time>2026-05-02T08:29:04.795Z</time></trkpt><trkpt lat="43.87972830061781" lon="11.345651603471476"><ele>482.3333333333333</ele><time>2026-05-02T08:29:05.795Z</time></trkpt><trkpt lat="43.87988087107623" lon="11.34583529032451"><ele>482.66666666666663</ele><time>2026-05-02T08:29:06.795Z</time></trkpt><trkpt lat="43.88003463551147" lon="11.346002834365391"><ele>483.0</ele><time>2026-05-02T08:29:07.795Z</time></trkpt><trkpt lat="43.88018272376756" lon="11.346164344131967"><ele>483.0</ele><time>2026-05-02T08:29:08.795Z</time></trkpt><trkpt lat="43.88032331413937" lon="11.346313826979886"><ele>483.0</ele><time>2026-05-02T08:29:09.795Z</time></trkpt><trkpt lat="43.88048794576194" lon="11.346421938120077"><ele>483.0</ele><time>2026-05-02T08:29:10.795Z</time></trkpt><trkpt lat="43.88066956428614" lon="11.346496284898212"><ele>481.33333333333337</ele><time>2026-05-02T08:29:11.795Z</time></trkpt><trkpt lat="43.880844571712764" lon="11.346551820588267"><ele>479.6666666666667</ele><time>2026-05-02T08:29:12.795Z</time></trkpt><trkpt lat="43.88099587737466" lon="11.346608365582437"><ele>478.0</ele><time>2026-05-02T08:29:13.795Z</time></trkpt><trkpt lat="43.88114460937435" lon="11.346670296578528"><ele>478.0</ele><time>2026-05-02T08:29:14.795Z</time></trkpt><trkpt lat="43.88127376664484" lon="11.346751152067906"><ele>478.0</ele><time>2026-05-02T08:29:15.795Z</time></trkpt><trkpt lat="43.881381578617074" lon="11.3468268057869"><ele>478.0</ele><time>2026-05-02T08:29:16.795Z</time></trkpt><trkpt lat="43.88148025633844" lon="11.346929683620612"><ele>478.0</ele><time>2026-05-02T08:29:17.795Z</time></trkpt><trkpt lat="43.88158416482673" lon="11.347014392605507"><ele>478.0</ele><time>2026-05-02T08:29:18.795Z</time></trkpt><trkpt lat="43.88168816529412" lon="11.34710045821357"><ele>478.0</ele><time>2026-05-02T08:29:19.795Z</time></trkpt><trkpt lat="43.88177386326877" lon="11.347204158264008"><ele>478.0</ele><time>2026-05-02T08:29:20.795Z</time></trkpt><trkpt lat="43.88185594620758" lon="11.347347798679422"><ele>478.0</ele><time>2026-05-02T08:29:21.796Z</time></trkpt><trkpt lat="43.88190871792963" lon="11.347481981145293"><ele>476.25</ele><time>2026-05-02T08:29:22.796Z</time></trkpt><trkpt lat="43.8819423902985" lon="11.347638928857583"><ele>474.5</ele><time>2026-05-02T08:29:23.796Z</time></trkpt><trkpt lat="43.88195510592258" lon="11.347806420787153"><ele>472.75</ele><time>2026-05-02T08:29:24.796Z</time></trkpt><trkpt lat="43.881952954945454" lon="11.347970692153666"><ele>471.0</ele><time>2026-05-02T08:29:25.796Z</time></trkpt><trkpt lat="43.8819492438856" lon="11.348124610546316"><ele>469.0</ele><time>2026-05-02T08:29:26.796Z</time></trkpt><trkpt lat="43.88194821351356" lon="11.348295871428794"><ele>467.0</ele><time>2026-05-02T08:29:27.796Z</time></trkpt><trkpt lat="43.88197747313339" lon="11.348456241851878"><ele>465.0</ele><time>2026-05-02T08:29:28.796Z</time></trkpt><trkpt lat="43.88204122442416" lon="11.348604760296196"><ele>463.0</ele><time>2026-05-02T08:29:29.796Z</time></trkpt><trkpt lat="43.88212529164489" lon="11.348733361513837"><ele>463.0</ele><time>2026-05-02T08:29:30.796Z</time></trkpt><trkpt lat="43.88221126744145" lon="11.348842137653348"><ele>462.99999999999994</ele><time>2026-05-02T08:29:31.795Z</time></trkpt><trkpt lat="43.88228766454188" lon="11.348946738982853"><ele>462.99999999999994</ele><time>2026-05-02T08:29:32.795Z</time></trkpt><trkpt lat="43.882359759304585" lon="11.349049712685312"><ele>463.0</ele><time>2026-05-02T08:29:33.796Z</time></trkpt><trkpt lat="43.88242996729904" lon="11.349144407167019"><ele>463.0</ele><time>2026-05-02T08:29:34.795Z</time></trkpt><trkpt lat="43.88249271333181" lon="11.349239332629777"><ele>461.6666666666667</ele><time>2026-05-02T08:29:35.795Z</time></trkpt><trkpt lat="43.88255856310496" lon="11.349325825002913"><ele>460.33333333333337</ele><time>2026-05-02T08:29:36.795Z</time></trkpt><trkpt lat="43.88263214078989" lon="11.349389403467976"><ele>459.0</ele><time>2026-05-02T08:29:37.795Z</time></trkpt><trkpt lat="43.882720385519825" lon="11.349418729415364"><ele>457.66666666666663</ele><time>2026-05-02T08:29:38.795Z</time></trkpt><trkpt lat="43.88280101104176" lon="11.3494357320184"><ele>456.3333333333333</ele><time>2026-05-02T08:29:39.795Z</time></trkpt><trkpt lat="43.88289682356298" lon="11.34946137910031"><ele>455.0</ele><time>2026-05-02T08:29:40.795Z</time></trkpt><trkpt lat="43.88299511062189" lon="11.349480935372593"><ele>455.0</ele><time>2026-05-02T08:29:41.795Z</time></trkpt><trkpt lat="43.88310745556849" lon="11.349498720267468"><ele>455.0</ele><time>2026-05-02T08:29:42.795Z</time></trkpt><trkpt lat="43.883243893392866" lon="11.349538675103163"><ele>455.0</ele><time>2026-05-02T08:29:43.795Z</time></trkpt><trkpt lat="43.88337032593384" lon="11.349569186703327"><ele>455.0</ele><time>2026-05-02T08:29:44.795Z</time></trkpt><trkpt lat="43.88349895247527" lon="11.349590164406589"><ele>455.75</ele><time>2026-05-02T08:29:45.795Z</time></trkpt><trkpt lat="43.88362595673798" lon="11.349618216180136"><ele>456.5</ele><time>2026-05-02T08:29:46.795Z</time></trkpt><trkpt lat="43.8837473491382" lon="11.349665233313223"><ele>457.25</ele><time>2026-05-02T08:29:47.795Z</time></trkpt><trkpt lat="43.88386848187838" lon="11.349755286969366"><ele>458.0</ele><time>2026-05-02T08:29:48.795Z</time></trkpt><trkpt lat="43.88396224614053" lon="11.349874624300101"><ele>456.75</ele><time>2026-05-02T08:29:49.795Z</time></trkpt><trkpt lat="43.88405224232893" lon="11.349998796265922"><ele>455.5</ele><time>2026-05-02T08:29:50.795Z</time></trkpt><trkpt lat="43.88414438848124" lon="11.350118660150596"><ele>454.25</ele><time>2026-05-02T08:29:51.795Z</time></trkpt><trkpt lat="43.884236486236205" lon="11.35023413856668"><ele>453.0</ele><time>2026-05-02T08:29:52.795Z</time></trkpt><trkpt lat="43.88432915496755" lon="11.35033913690154"><ele>453.0</ele><time>2026-05-02T08:29:53.795Z</time></trkpt><trkpt lat="43.88441585458643" lon="11.350448204506868"><ele>452.99999999999994</ele><time>2026-05-02T08:29:54.795Z</time></trkpt><trkpt lat="43.884499740772775" lon="11.350559137073015"><ele>452.99999999999994</ele><time>2026-05-02T08:29:55.795Z</time></trkpt><trkpt lat="43.88458660727363" lon="11.350639128142058"><ele>453.0</ele><time>2026-05-02T08:29:56.795Z</time></trkpt><trkpt lat="43.88466840315868" lon="11.350721435751543"><ele>453.0</ele><time>2026-05-02T08:29:57.795Z</time></trkpt><trkpt lat="43.88475709829846" lon="11.35079016116202"><ele>452.2</ele><time>2026-05-02T08:29:58.795Z</time></trkpt><trkpt lat="43.88485658158995" lon="11.350850821468285"><ele>451.4</ele><time>2026-05-02T08:29:59.794Z</time></trkpt><trkpt lat="43.88495788935479" lon="11.350906744727968"><ele>450.59999999999997</ele><time>2026-05-02T08:30:00.794Z</time></trkpt><trkpt lat="43.88507130392239" lon="11.35096328700728"><ele>449.79999999999995</ele><time>2026-05-02T08:30:01.794Z</time></trkpt><trkpt lat="43.885173417546056" lon="11.351013874138289"><ele>449.0</ele><time>2026-05-02T08:30:02.794Z</time></trkpt><trkpt lat="43.88529794399279" lon="11.351064534611522"><ele>449.0</ele><time>2026-05-02T08:30:03.794Z</time></trkpt><trkpt lat="43.88541980839209" lon="11.351116683094382"><ele>449.0</ele><time>2026-05-02T08:30:04.794Z</time></trkpt><trkpt lat="43.88554253812695" lon="11.35117180645677"><ele>449.0</ele><time>2026-05-02T08:30:05.794Z</time></trkpt><trkpt lat="43.88566514096498" lon="11.351230651143684"><ele>449.0</ele><time>2026-05-02T08:30:06.794Z</time></trkpt><trkpt lat="43.88579670410534" lon="11.351289866597593"><ele>449.0</ele><time>2026-05-02T08:30:07.794Z</time></trkpt><trkpt lat="43.88592571965024" lon="11.351348034771116"><ele>449.0</ele><time>2026-05-02T08:30:08.794Z</time></trkpt><trkpt lat="43.886058513218295" lon="11.351409991653048"><ele>449.0</ele><time>2026-05-02T08:30:09.794Z</time></trkpt><trkpt lat="43.88618861352923" lon="11.351464843873888"><ele>449.0</ele><time>2026-05-02T08:30:10.794Z</time></trkpt><trkpt lat="43.88632548051242" lon="11.351531669520508"><ele>448.0</ele><time>2026-05-02T08:30:11.794Z</time></trkpt><trkpt lat="43.88645963183164" lon="11.351616816743716"><ele>447.0</ele><time>2026-05-02T08:30:12.794Z</time></trkpt><trkpt lat="43.88657914339402" lon="11.351700802684162"><ele>446.0</ele><time>2026-05-02T08:30:13.794Z</time></trkpt><trkpt lat="43.88668657428415" lon="11.351792969814568"><ele>445.0</ele><time>2026-05-02T08:30:14.794Z</time></trkpt><trkpt lat="43.88677995950566" lon="11.35188233726241"><ele>447.75</ele><time>2026-05-02T08:30:15.794Z</time></trkpt><trkpt lat="43.88686359862207" lon="11.35194832212321"><ele>450.5</ele><time>2026-05-02T08:30:16.794Z</time></trkpt><trkpt lat="43.88695408466016" lon="11.351993981824275"><ele>453.25</ele><time>2026-05-02T08:30:17.794Z</time></trkpt><trkpt lat="43.88706421614629" lon="11.351998947953769"><ele>456.0</ele><time>2026-05-02T08:30:18.794Z</time></trkpt><trkpt lat="43.88721046381111" lon="11.351959569497783"><ele>456.0</ele><time>2026-05-02T08:30:19.794Z</time></trkpt><trkpt lat="43.88738744991315" lon="11.351906409336987"><ele>456.0</ele><time>2026-05-02T08:30:20.794Z</time></trkpt><trkpt lat="43.88762217872432" lon="11.351856243546191"><ele>456.0</ele><time>2026-05-02T08:30:21.794Z</time></trkpt><trkpt lat="43.88785375966591" lon="11.351796176933114"><ele>459.0</ele><time>2026-05-02T08:30:22.794Z</time></trkpt><trkpt lat="43.88803437026855" lon="11.351745116183558"><ele>462.0</ele><time>2026-05-02T08:30:23.794Z</time></trkpt><trkpt lat="43.888197085259286" lon="11.35178447190822"><ele>465.0</ele><time>2026-05-02T08:30:24.793Z</time></trkpt><trkpt lat="43.88835245223386" lon="11.351886744716804"><ele>460.0</ele><time>2026-05-02T08:30:25.793Z</time></trkpt><trkpt lat="43.888500759327606" lon="11.352018076693902"><ele>455.0</ele><time>2026-05-02T08:30:26.793Z</time></trkpt><trkpt lat="43.88865005609108" lon="11.352155610546848"><ele>450.0</ele><time>2026-05-02T08:30:27.793Z</time></trkpt><trkpt lat="43.88878595096759" lon="11.352308437481557"><ele>450.0</ele><time>2026-05-02T08:30:28.793Z</time></trkpt><trkpt lat="43.8888853906084" lon="11.352497096366335"><ele>450.0</ele><time>2026-05-02T08:30:29.793Z</time></trkpt><trkpt lat="43.888988147865334" lon="11.352676185147391"><ele>450.0</ele><time>2026-05-02T08:30:30.793Z</time></trkpt><trkpt lat="43.88908206845645" lon="11.352843992550733"><ele>450.0</ele><time>2026-05-02T08:30:31.793Z</time></trkpt><trkpt lat="43.889202342127085" lon="11.3529879629569"><ele>450.0</ele><time>2026-05-02T08:30:32.793Z</time></trkpt><trkpt lat="43.88931896610889" lon="11.353120769752142"><ele>450.0</ele><time>2026-05-02T08:30:33.793Z</time></trkpt><trkpt lat="43.88944883001548" lon="11.353224233650348"><ele>446.75</ele><time>2026-05-02T08:30:34.793Z</time></trkpt><trkpt lat="43.889569581377735" lon="11.353317689122887"><ele>443.5</ele><time>2026-05-02T08:30:35.793Z</time></trkpt><trkpt lat="43.88968428883746" lon="11.35341259125184"><ele>440.25</ele><time>2026-05-02T08:30:36.793Z</time></trkpt><trkpt lat="43.88980666875327" lon="11.353502830442618"><ele>437.0</ele><time>2026-05-02T08:30:37.793Z</time></trkpt><trkpt lat="43.889919358102105" lon="11.353589098067344"><ele>437.0</ele><time>2026-05-02T08:30:38.793Z</time></trkpt><trkpt lat="43.890040934368336" lon="11.353639983515647"><ele>437.0</ele><time>2026-05-02T08:30:39.793Z</time></trkpt><trkpt lat="43.89016872881353" lon="11.353668231688516"><ele>437.0</ele><time>2026-05-02T08:30:40.793Z</time></trkpt><trkpt lat="43.89029334722071" lon="11.353682851143592"><ele>437.0</ele><time>2026-05-02T08:30:41.793Z</time></trkpt><trkpt lat="43.890422714748105" lon="11.353691956354977"><ele>439.25</ele><time>2026-05-02T08:30:42.793Z</time></trkpt><trkpt lat="43.890543626871434" lon="11.353699904195397"><ele>441.5</ele><time>2026-05-02T08:30:43.793Z</time></trkpt><trkpt lat="43.89066532864451" lon="11.35371412461149"><ele>443.75</ele><time>2026-05-02T08:30:44.793Z</time></trkpt><trkpt lat="43.89077635064047" lon="11.353771823018223"><ele>446.0</ele><time>2026-05-02T08:30:45.793Z</time></trkpt><trkpt lat="43.890884109504206" lon="11.353858051081264"><ele>443.5</ele><time>2026-05-02T08:30:46.793Z</time></trkpt><trkpt lat="43.89097214413899" lon="11.35397478330404"><ele>441.0</ele><time>2026-05-02T08:30:47.793Z</time></trkpt><trkpt lat="43.89104709531412" lon="11.354112959928546"><ele>438.5</ele><time>2026-05-02T08:30:48.793Z</time></trkpt><trkpt lat="43.89109356630879" lon="11.354280723632296"><ele>436.0</ele><time>2026-05-02T08:30:49.792Z</time></trkpt><trkpt lat="43.89111959101633" lon="11.354448640923902"><ele>436.0</ele><time>2026-05-02T08:30:50.792Z</time></trkpt><trkpt lat="43.891160417720634" lon="11.35461305515459"><ele>436.0</ele><time>2026-05-02T08:30:51.792Z</time></trkpt><trkpt lat="43.891208223270624" lon="11.354769325248219"><ele>436.0</ele><time>2026-05-02T08:30:52.792Z</time></trkpt><trkpt lat="43.89126964308007" lon="11.354923042559525"><ele>436.0</ele><time>2026-05-02T08:30:53.792Z</time></trkpt><trkpt lat="43.8913388219365" lon="11.355060241678775"><ele>432.25</ele><time>2026-05-02T08:30:54.792Z</time></trkpt><trkpt lat="43.89142167096836" lon="11.3551750973185"><ele>428.5</ele><time>2026-05-02T08:30:55.792Z</time></trkpt><trkpt lat="43.89152871373598" lon="11.355236911002486"><ele>424.75</ele><time>2026-05-02T08:30:56.792Z</time></trkpt><trkpt lat="43.89165068094339" lon="11.355282279922735"><ele>421.0</ele><time>2026-05-02T08:30:57.792Z</time></trkpt><trkpt lat="43.89177085734664" lon="11.355302753166296"><ele>421.0</ele><time>2026-05-02T08:30:58.792Z</time></trkpt><trkpt lat="43.891909517757" lon="11.355301206807084"><ele>421.0</ele><time>2026-05-02T08:30:59.792Z</time></trkpt><trkpt lat="43.89203658365654" lon="11.355287447846598"><ele>421.0</ele><time>2026-05-02T08:31:00.792Z</time></trkpt><trkpt lat="43.89215642297311" lon="11.355277716690145"><ele>421.0</ele><time>2026-05-02T08:31:01.792Z</time></trkpt><trkpt lat="43.892289719798534" lon="11.3552494501122"><ele>421.0</ele><time>2026-05-02T08:31:02.792Z</time></trkpt><trkpt lat="43.892412027607676" lon="11.355215272699901"><ele>421.0</ele><time>2026-05-02T08:31:03.792Z</time></trkpt><trkpt lat="43.892532159786256" lon="11.355188534799503"><ele>421.0</ele><time>2026-05-02T08:31:04.792Z</time></trkpt><trkpt lat="43.89265245321154" lon="11.355153993067656"><ele>421.0</ele><time>2026-05-02T08:31:05.792Z</time></trkpt><trkpt lat="43.89277665642144" lon="11.355132120988005"><ele>417.4</ele><time>2026-05-02T08:31:06.792Z</time></trkpt><trkpt lat="43.892888283489846" lon="11.35511185375864"><ele>413.8</ele><time>2026-05-02T08:31:07.792Z</time></trkpt><trkpt lat="43.89299657991971" lon="11.35508795477908"><ele>410.2</ele><time>2026-05-02T08:31:08.792Z</time></trkpt><trkpt lat="43.89310963771601" lon="11.355082357740883"><ele>406.59999999999997</ele><time>2026-05-02T08:31:09.792Z</time></trkpt><trkpt lat="43.89322340979804" lon="11.355081026046877"><ele>403.0</ele><time>2026-05-02T08:31:10.792Z</time></trkpt><trkpt lat="43.893334389418115" lon="11.355089377030252"><ele>403.0</ele><time>2026-05-02T08:31:11.792Z</time></trkpt><trkpt lat="43.893444787708845" lon="11.355118437141032"><ele>403.0</ele><time>2026-05-02T08:31:12.792Z</time></trkpt><trkpt lat="43.893550326581106" lon="11.355148848686008"><ele>403.0</ele><time>2026-05-02T08:31:13.792Z</time></trkpt><trkpt lat="43.893638435860815" lon="11.355207747647087"><ele>403.0</ele><time>2026-05-02T08:31:14.792Z</time></trkpt><trkpt lat="43.893722827073155" lon="11.35530854302439"><ele>403.0</ele><time>2026-05-02T08:31:15.791Z</time></trkpt><trkpt lat="43.89379137398023" lon="11.355453720079725"><ele>400.25</ele><time>2026-05-02T08:31:16.791Z</time></trkpt><trkpt lat="43.89384889307347" lon="11.35559817329867"><ele>397.5</ele><time>2026-05-02T08:31:17.791Z</time></trkpt><trkpt lat="43.89390590804956" lon="11.35574383321757"><ele>394.75</ele><time>2026-05-02T08:31:18.791Z</time></trkpt><trkpt lat="43.89398110859519" lon="11.355874371742466"><ele>392.0</ele><time>2026-05-02T08:31:19.791Z</time></trkpt><trkpt lat="43.89407968920071" lon="11.355985564086565"><ele>392.0</ele><time>2026-05-02T08:31:20.791Z</time></trkpt><trkpt lat="43.89417612134199" lon="11.356092490805565"><ele>392.0</ele><time>2026-05-02T08:31:21.791Z</time></trkpt><trkpt lat="43.894280795875034" lon="11.356206482770837"><ele>392.0</ele><time>2026-05-02T08:31:22.791Z</time></trkpt><trkpt lat="43.8943897864838" lon="11.356331907294825"><ele>392.0</ele><time>2026-05-02T08:31:23.791Z</time></trkpt><trkpt lat="43.89447827077521" lon="11.356479026635784"><ele>389.25</ele><time>2026-05-02T08:31:24.791Z</time></trkpt><trkpt lat="43.89456493451709" lon="11.35661698744516"><ele>386.5</ele><time>2026-05-02T08:31:25.791Z</time></trkpt><trkpt lat="43.89465325586011" lon="11.356749698045038"><ele>383.75</ele><time>2026-05-02T08:31:26.793Z</time></trkpt><trkpt lat="43.89475330251953" lon="11.356844356978318"><ele>381.0</ele><time>2026-05-02T08:31:27.793Z</time></trkpt><trkpt lat="43.894859059107056" lon="11.356876661071253"><ele>381.0</ele><time>2026-05-02T08:31:28.793Z</time></trkpt><trkpt lat="43.89497770268375" lon="11.356848234455576"><ele>381.0</ele><time>2026-05-02T08:31:29.792Z</time></trkpt><trkpt lat="43.89510518168742" lon="11.356815020937429"><ele>381.0</ele><time>2026-05-02T08:31:30.793Z</time></trkpt><trkpt lat="43.89524445074541" lon="11.356781598730626"><ele>381.0</ele><time>2026-05-02T08:31:31.793Z</time></trkpt><trkpt lat="43.89540158890916" lon="11.356781587295878"><ele>380.25</ele><time>2026-05-02T08:31:32.793Z</time></trkpt><trkpt lat="43.895514720885004" lon="11.356832079031678"><ele>379.5</ele><time>2026-05-02T08:31:33.792Z</time></trkpt><trkpt lat="43.89566641079606" lon="11.356884430917107"><ele>378.75</ele><time>2026-05-02T08:31:34.792Z</time></trkpt><trkpt lat="43.89581819951857" lon="11.356926202463859"><ele>378.0</ele><time>2026-05-02T08:31:35.793Z</time></trkpt><trkpt lat="43.89597563856133" lon="11.356924431188459"><ele>376.25</ele><time>2026-05-02T08:31:36.793Z</time></trkpt><trkpt lat="43.89612191884243" lon="11.356882114947135"><ele>374.5</ele><time>2026-05-02T08:31:37.792Z</time></trkpt><trkpt lat="43.896253263108505" lon="11.356825602417256"><ele>372.75</ele><time>2026-05-02T08:31:38.793Z</time></trkpt><trkpt lat="43.896378454108564" lon="11.356787889118962"><ele>371.0</ele><time>2026-05-02T08:31:39.792Z</time></trkpt><trkpt lat="43.89650415389731" lon="11.35673593018961"><ele>371.0</ele><time>2026-05-02T08:31:40.792Z</time></trkpt><trkpt lat="43.89662261235023" lon="11.356692095758135"><ele>371.0</ele><time>2026-05-02T08:31:41.792Z</time></trkpt><trkpt lat="43.896752213249776" lon="11.356650729955202"><ele>371.0</ele><time>2026-05-02T08:31:42.792Z</time></trkpt><trkpt lat="43.89688995166242" lon="11.356615226343699"><ele>371.0</ele><time>2026-05-02T08:31:43.792Z</time></trkpt><trkpt lat="43.89703168481661" lon="11.356569328503747"><ele>368.6666666666667</ele><time>2026-05-02T08:31:44.792Z</time></trkpt><trkpt lat="43.89717907321985" lon="11.35652379398192"><ele>366.3333333333333</ele><time>2026-05-02T08:31:45.792Z</time></trkpt><trkpt lat="43.8973304650134" lon="11.356471201459609"><ele>364.0</ele><time>2026-05-02T08:31:46.792Z</time></trkpt><trkpt lat="43.89747967381787" lon="11.35642978349427"><ele>362.0</ele><time>2026-05-02T08:31:47.792Z</time></trkpt><trkpt lat="43.89762987995205" lon="11.356407323948918"><ele>360.0</ele><time>2026-05-02T08:31:48.792Z</time></trkpt><trkpt lat="43.897775003547565" lon="11.35641043572841"><ele>358.0</ele><time>2026-05-02T08:31:49.792Z</time></trkpt><trkpt lat="43.89791126689859" lon="11.356455991530897"><ele>356.0</ele><time>2026-05-02T08:31:50.792Z</time></trkpt><trkpt lat="43.89803946192563" lon="11.35655506531705"><ele>356.0</ele><time>2026-05-02T08:31:51.792Z</time></trkpt><trkpt lat="43.89814000435507" lon="11.356680821760966"><ele>356.0</ele><time>2026-05-02T08:31:52.792Z</time></trkpt><trkpt lat="43.898204297217184" lon="11.356852758982122"><ele>356.0</ele><time>2026-05-02T08:31:53.792Z</time></trkpt><trkpt lat="43.898233921033956" lon="11.357055503974465"><ele>356.0</ele><time>2026-05-02T08:31:54.792Z</time></trkpt><trkpt lat="43.89823130458982" lon="11.357273149055482"><ele>354.33333333333337</ele><time>2026-05-02T08:31:55.792Z</time></trkpt><trkpt lat="43.89815030022784" lon="11.357550960476688"><ele>352.6666666666667</ele><time>2026-05-02T08:31:56.792Z</time></trkpt><trkpt lat="43.898118973613634" lon="11.357785196572461"><ele>351.0</ele><time>2026-05-02T08:31:57.792Z</time></trkpt><trkpt lat="43.898078195206004" lon="11.358016202204636"><ele>349.75</ele><time>2026-05-02T08:31:58.792Z</time></trkpt><trkpt lat="43.898000306521155" lon="11.358247271586272"><ele>348.5</ele><time>2026-05-02T08:31:59.792Z</time></trkpt><trkpt lat="43.89789365989397" lon="11.358378996502754"><ele>347.25</ele><time>2026-05-02T08:32:00.791Z</time></trkpt><trkpt lat="43.89777976582495" lon="11.358427132005403"><ele>346.0</ele><time>2026-05-02T08:32:01.791Z</time></trkpt><trkpt lat="43.89763584720831" lon="11.358472189476677"><ele>347.3333333333333</ele><time>2026-05-02T08:32:02.791Z</time></trkpt><trkpt lat="43.8974662915126" lon="11.358509137579379"><ele>348.6666666666667</ele><time>2026-05-02T08:32:03.791Z</time></trkpt><trkpt lat="43.897299621029966" lon="11.358501594576449"><ele>350.0</ele><time>2026-05-02T08:32:04.791Z</time></trkpt><trkpt lat="43.89713584327371" lon="11.358476881181241"><ele>350.0</ele><time>2026-05-02T08:32:05.791Z</time></trkpt><trkpt lat="43.89699020953268" lon="11.358449575371022"><ele>350.0</ele><time>2026-05-02T08:32:06.791Z</time></trkpt><trkpt lat="43.89687431955507" lon="11.358474184875487"><ele>350.0</ele><time>2026-05-02T08:32:07.791Z</time></trkpt><trkpt lat="43.896801016700444" lon="11.358550975164754"><ele>350.0</ele><time>2026-05-02T08:32:08.791Z</time></trkpt><trkpt lat="43.89678725236906" lon="11.358689372005886"><ele>350.0</ele><time>2026-05-02T08:32:09.791Z</time></trkpt><trkpt lat="43.89685487753295" lon="11.358830027902833"><ele>350.0</ele><time>2026-05-02T08:32:10.791Z</time></trkpt><trkpt lat="43.896960376160564" lon="11.358941042504815"><ele>350.0</ele><time>2026-05-02T08:32:11.791Z</time></trkpt><trkpt lat="43.89708977429561" lon="11.359041612881514"><ele>350.0</ele><time>2026-05-02T08:32:12.791Z</time></trkpt><trkpt lat="43.89722665719991" lon="11.359167972265281"><ele>347.6666666666667</ele><time>2026-05-02T08:32:13.791Z</time></trkpt><trkpt lat="43.897349646162546" lon="11.359295580435047"><ele>345.3333333333333</ele><time>2026-05-02T08:32:14.791Z</time></trkpt><trkpt lat="43.89747410659334" lon="11.359424671600182"><ele>343.0</ele><time>2026-05-02T08:32:15.791Z</time></trkpt><trkpt lat="43.897599527569064" lon="11.359558744225597"><ele>341.66666666666663</ele><time>2026-05-02T08:32:16.791Z</time></trkpt><trkpt lat="43.89773500702885" lon="11.359682566047006"><ele>340.3333333333333</ele><time>2026-05-02T08:32:17.791Z</time></trkpt><trkpt lat="43.89789083455878" lon="11.359754834747463"><ele>339.0</ele><time>2026-05-02T08:32:18.791Z</time></trkpt><trkpt lat="43.89806834162493" lon="11.35976430945109"><ele>339.0</ele><time>2026-05-02T08:32:19.791Z</time></trkpt><trkpt lat="43.898221451479955" lon="11.35971034982938"><ele>339.0</ele><time>2026-05-02T08:32:20.791Z</time></trkpt><trkpt lat="43.898377993148095" lon="11.359574372987424"><ele>339.0</ele><time>2026-05-02T08:32:21.791Z</time></trkpt><trkpt lat="43.89854406517895" lon="11.35943754287339"><ele>335.3333333333333</ele><time>2026-05-02T08:32:22.791Z</time></trkpt><trkpt lat="43.89869143057321" lon="11.359337033907444"><ele>331.66666666666663</ele><time>2026-05-02T08:32:23.791Z</time></trkpt><trkpt lat="43.898827301344305" lon="11.359230287255413"><ele>328.0</ele><time>2026-05-02T08:32:24.791Z</time></trkpt><trkpt lat="43.89893688340497" lon="11.35909846623405"><ele>328.0</ele><time>2026-05-02T08:32:25.791Z</time></trkpt><trkpt lat="43.89903119298691" lon="11.358916505435886"><ele>328.0</ele><time>2026-05-02T08:32:26.79Z</time></trkpt><trkpt lat="43.899114859048105" lon="11.358684461690073"><ele>328.0</ele><time>2026-05-02T08:32:27.79Z</time></trkpt><trkpt lat="43.89920627058588" lon="11.35843930052521"><ele>327.0</ele><time>2026-05-02T08:32:28.79Z</time></trkpt><trkpt lat="43.8993279891797" lon="11.358207898697813"><ele>326.0</ele><time>2026-05-02T08:32:29.79Z</time></trkpt><trkpt lat="43.899447145913406" lon="11.357988585756877"><ele>325.0</ele><time>2026-05-02T08:32:30.79Z</time></trkpt><trkpt lat="43.899542904625726" lon="11.357774474467488"><ele>325.0</ele><time>2026-05-02T08:32:31.79Z</time></trkpt><trkpt lat="43.899641347136566" lon="11.357580628074203"><ele>325.0</ele><time>2026-05-02T08:32:32.79Z</time></trkpt><trkpt lat="43.899748091894736" lon="11.357383325911227"><ele>325.0</ele><time>2026-05-02T08:32:33.79Z</time></trkpt><trkpt lat="43.89988149315062" lon="11.357212663292334"><ele>326.3333333333333</ele><time>2026-05-02T08:32:34.79Z</time></trkpt><trkpt lat="43.90004183866992" lon="11.357083789609067"><ele>327.6666666666667</ele><time>2026-05-02T08:32:35.79Z</time></trkpt><trkpt lat="43.90022759066254" lon="11.357035543265086"><ele>329.0</ele><time>2026-05-02T08:32:36.79Z</time></trkpt><trkpt lat="43.900426084024765" lon="11.356987718451526"><ele>329.0</ele><time>2026-05-02T08:32:37.79Z</time></trkpt><trkpt lat="43.90059765820959" lon="11.356958114070219"><ele>329.0</ele><time>2026-05-02T08:32:38.79Z</time></trkpt><trkpt lat="43.90077054818549" lon="11.356885253120861"><ele>329.0</ele><time>2026-05-02T08:32:39.79Z</time></trkpt><trkpt lat="43.90092691607377" lon="11.356786039951299"><ele>325.33333333333337</ele><time>2026-05-02T08:32:40.79Z</time></trkpt><trkpt lat="43.90105373020001" lon="11.35663382958408"><ele>321.6666666666667</ele><time>2026-05-02T08:32:41.79Z</time></trkpt><trkpt lat="43.90118725951076" lon="11.356500225504547"><ele>318.0</ele><time>2026-05-02T08:32:42.79Z</time></trkpt><trkpt lat="43.901344153421725" lon="11.356463507151709"><ele>318.0</ele><time>2026-05-02T08:32:43.79Z</time></trkpt><trkpt lat="43.90151777905346" lon="11.35647677132895"><ele>318.0</ele><time>2026-05-02T08:32:44.79Z</time></trkpt><trkpt lat="43.901706732500074" lon="11.35648518482028"><ele>318.0</ele><time>2026-05-02T08:32:45.79Z</time></trkpt><trkpt lat="43.90189725168886" lon="11.356442945517115"><ele>314.6666666666667</ele><time>2026-05-02T08:32:46.79Z</time></trkpt><trkpt lat="43.90209554344282" lon="11.356375969132982"><ele>311.33333333333337</ele><time>2026-05-02T08:32:47.79Z</time></trkpt><trkpt lat="43.90228837986417" lon="11.356331478049134"><ele>308.0</ele><time>2026-05-02T08:32:48.79Z</time></trkpt><trkpt lat="43.90247851795774" lon="11.356281408950203"><ele>307.0</ele><time>2026-05-02T08:32:49.79Z</time></trkpt><trkpt lat="43.90266742188531" lon="11.356276961969698"><ele>306.0</ele><time>2026-05-02T08:32:50.79Z</time></trkpt><trkpt lat="43.9028520010062" lon="11.356307553044266"><ele>305.0</ele><time>2026-05-02T08:32:51.789Z</time></trkpt><trkpt lat="43.90303060853886" lon="11.356398022347973"><ele>305.0</ele><time>2026-05-02T08:32:52.789Z</time></trkpt><trkpt lat="43.9032194345088" lon="11.356509378101968"><ele>305.0</ele><time>2026-05-02T08:32:53.789Z</time></trkpt><trkpt lat="43.90338231940399" lon="11.356644428917477"><ele>305.0</ele><time>2026-05-02T08:32:54.789Z</time></trkpt><trkpt lat="43.9035451420329" lon="11.356780931422941"><ele>303.6666666666667</ele><time>2026-05-02T08:32:55.789Z</time></trkpt><trkpt lat="43.90370162392607" lon="11.356889627904701"><ele>302.3333333333333</ele><time>2026-05-02T08:32:56.789Z</time></trkpt><trkpt lat="43.9038697743213" lon="11.356932282552549"><ele>301.0</ele><time>2026-05-02T08:32:57.789Z</time></trkpt><trkpt lat="43.90403999504464" lon="11.356932968254577"><ele>301.0</ele><time>2026-05-02T08:32:58.789Z</time></trkpt><trkpt lat="43.90420860283662" lon="11.356885055509757"><ele>301.0</ele><time>2026-05-02T08:32:59.789Z</time></trkpt><trkpt lat="43.904384773639066" lon="11.356764135197118"><ele>301.0</ele><time>2026-05-02T08:33:00.789Z</time></trkpt><trkpt lat="43.90454667707736" lon="11.356635391789357"><ele>300.3333333333333</ele><time>2026-05-02T08:33:01.789Z</time></trkpt><trkpt lat="43.90469760850593" lon="11.356520159225994"><ele>299.6666666666667</ele><time>2026-05-02T08:33:02.789Z</time></trkpt><trkpt lat="43.90483434168374" lon="11.356404560891843"><ele>299.0</ele><time>2026-05-02T08:33:03.789Z</time></trkpt><trkpt lat="43.90495881279972" lon="11.356247707855044"><ele>299.0</ele><time>2026-05-02T08:33:04.789Z</time></trkpt><trkpt lat="43.90502922692342" lon="11.356035079771834"><ele>299.0</ele><time>2026-05-02T08:33:05.789Z</time></trkpt><trkpt lat="43.90510679046224" lon="11.355781449098354"><ele>299.0</ele><time>2026-05-02T08:33:06.789Z</time></trkpt><trkpt lat="43.905183227861485" lon="11.355526158967287"><ele>297.0</ele><time>2026-05-02T08:33:07.789Z</time></trkpt><trkpt lat="43.905265918696216" lon="11.355281154544574"><ele>295.0</ele><time>2026-05-02T08:33:08.789Z</time></trkpt><trkpt lat="43.90532929111939" lon="11.355037072293614"><ele>293.0</ele><time>2026-05-02T08:33:09.789Z</time></trkpt><trkpt lat="43.905389555583916" lon="11.354779900666871"><ele>293.0</ele><time>2026-05-02T08:33:10.789Z</time></trkpt><trkpt lat="43.9054652375866" lon="11.354522723190904"><ele>293.0</ele><time>2026-05-02T08:33:11.789Z</time></trkpt><trkpt lat="43.90555260653763" lon="11.354282548581091"><ele>293.0</ele><time>2026-05-02T08:33:12.789Z</time></trkpt><trkpt lat="43.90566847699452" lon="11.35405971095115"><ele>291.0</ele><time>2026-05-02T08:33:13.789Z</time></trkpt><trkpt lat="43.905807719740565" lon="11.353859753847303"><ele>289.0</ele><time>2026-05-02T08:33:14.789Z</time></trkpt><trkpt lat="43.9059618206008" lon="11.353694479673056"><ele>287.0</ele><time>2026-05-02T08:33:15.789Z</time></trkpt><trkpt lat="43.906128310076596" lon="11.353568922347812"><ele>287.0</ele><time>2026-05-02T08:33:16.789Z</time></trkpt><trkpt lat="43.90631731897811" lon="11.353496140507218"><ele>287.0</ele><time>2026-05-02T08:33:17.788Z</time></trkpt><trkpt lat="43.906512546897495" lon="11.353456523008374"><ele>287.0</ele><time>2026-05-02T08:33:18.788Z</time></trkpt><trkpt lat="43.90670363653836" lon="11.35342378582467"><ele>287.0</ele><time>2026-05-02T08:33:19.788Z</time></trkpt><trkpt lat="43.90689049026474" lon="11.353416769653016"><ele>287.0</ele><time>2026-05-02T08:33:20.788Z</time></trkpt><trkpt lat="43.907097510758085" lon="11.353435417140618"><ele>287.0</ele><time>2026-05-02T08:33:21.788Z</time></trkpt><trkpt lat="43.907300021154555" lon="11.353446548496796"><ele>287.0</ele><time>2026-05-02T08:33:22.788Z</time></trkpt><trkpt lat="43.90750508537474" lon="11.353448208531784"><ele>287.0</ele><time>2026-05-02T08:33:23.788Z</time></trkpt><trkpt lat="43.90771542561075" lon="11.353445332176356"><ele>287.0</ele><time>2026-05-02T08:33:24.788Z</time></trkpt><trkpt lat="43.90791976217729" lon="11.353440298014682"><ele>285.6666666666667</ele><time>2026-05-02T08:33:25.788Z</time></trkpt><trkpt lat="43.90812533718761" lon="11.35343733150772"><ele>284.3333333333333</ele><time>2026-05-02T08:33:26.788Z</time></trkpt><trkpt lat="43.90832713882166" lon="11.35344185546418"><ele>283.0</ele><time>2026-05-02T08:33:27.788Z</time></trkpt><trkpt lat="43.908531721687915" lon="11.353443681050933"><ele>282.66666666666663</ele><time>2026-05-02T08:33:28.788Z</time></trkpt><trkpt lat="43.908741124528014" lon="11.353441012077694"><ele>282.3333333333333</ele><time>2026-05-02T08:33:29.788Z</time></trkpt><trkpt lat="43.90894849969839" lon="11.353438595647193"><ele>282.0</ele><time>2026-05-02T08:33:30.788Z</time></trkpt><trkpt lat="43.90915951331766" lon="11.353446412547159"><ele>285.3333333333333</ele><time>2026-05-02T08:33:31.788Z</time></trkpt><trkpt lat="43.909369263203246" lon="11.35345672650544"><ele>288.66666666666663</ele><time>2026-05-02T08:33:32.79Z</time></trkpt><trkpt lat="43.90958002932538" lon="11.35347819587467"><ele>292.0</ele><time>2026-05-02T08:33:33.79Z</time></trkpt><trkpt lat="43.90979071176847" lon="11.353523324969325"><ele>292.0</ele><time>2026-05-02T08:33:34.79Z</time></trkpt><trkpt lat="43.90999268297312" lon="11.353599179268954"><ele>292.0</ele><time>2026-05-02T08:33:35.79Z</time></trkpt><trkpt lat="43.910191361681704" lon="11.353703813004072"><ele>292.0</ele><time>2026-05-02T08:33:36.79Z</time></trkpt><trkpt lat="43.91038849530428" lon="11.353805964048961"><ele>286.3333333333333</ele><time>2026-05-02T08:33:37.79Z</time></trkpt><trkpt lat="43.91059127923147" lon="11.353882209737426"><ele>280.6666666666667</ele><time>2026-05-02T08:33:38.79Z</time></trkpt><trkpt lat="43.91080062897282" lon="11.353925306466957"><ele>275.0</ele><time>2026-05-02T08:33:39.789Z</time></trkpt><trkpt lat="43.91100872284639" lon="11.353933416978633"><ele>275.6666666666667</ele><time>2026-05-02T08:33:40.789Z</time></trkpt><trkpt lat="43.91121473764063" lon="11.35385332567844"><ele>276.3333333333333</ele><time>2026-05-02T08:33:41.79Z</time></trkpt><trkpt lat="43.911413040851" lon="11.353757210493688"><ele>277.0</ele><time>2026-05-02T08:33:42.79Z</time></trkpt><trkpt lat="43.91160844785369" lon="11.353653711748292"><ele>277.3333333333333</ele><time>2026-05-02T08:33:43.79Z</time></trkpt><trkpt lat="43.91181121800744" lon="11.353560969833312"><ele>277.6666666666667</ele><time>2026-05-02T08:33:44.789Z</time></trkpt><trkpt lat="43.912014306150645" lon="11.35347213842527"><ele>278.0</ele><time>2026-05-02T08:33:45.789Z</time></trkpt><trkpt lat="43.912211020747414" lon="11.353375883936026"><ele>278.0</ele><time>2026-05-02T08:33:46.789Z</time></trkpt><trkpt lat="43.91241109437623" lon="11.353306196415947"><ele>278.0</ele><time>2026-05-02T08:33:47.789Z</time></trkpt><trkpt lat="43.912621041292574" lon="11.353240078476427"><ele>278.0</ele><time>2026-05-02T08:33:48.789Z</time></trkpt><trkpt lat="43.91282914230949" lon="11.353199815802103"><ele>277.0</ele><time>2026-05-02T08:33:49.789Z</time></trkpt><trkpt lat="43.91304480483366" lon="11.353218464696095"><ele>276.0</ele><time>2026-05-02T08:33:50.789Z</time></trkpt><trkpt lat="43.913260956422725" lon="11.35327776780758"><ele>275.0</ele><time>2026-05-02T08:33:51.789Z</time></trkpt><trkpt lat="43.91346806499478" lon="11.353325111175003"><ele>275.0</ele><time>2026-05-02T08:33:52.789Z</time></trkpt><trkpt lat="43.91364807552401" lon="11.35334426925525"><ele>275.0</ele><time>2026-05-02T08:33:53.789Z</time></trkpt><trkpt lat="43.913834837344126" lon="11.353299449209747"><ele>275.0</ele><time>2026-05-02T08:33:54.788Z</time></trkpt><trkpt lat="43.91403059156601" lon="11.353238424760246"><ele>275.0</ele><time>2026-05-02T08:33:55.788Z</time></trkpt><trkpt lat="43.91421323159052" lon="11.353163782125684"><ele>275.0</ele><time>2026-05-02T08:33:56.788Z</time></trkpt><trkpt lat="43.91438606361367" lon="11.353168376369974"><ele>275.0</ele><time>2026-05-02T08:33:57.788Z</time></trkpt><trkpt lat="43.9145713921455" lon="11.353249095407527"><ele>273.6666666666667</ele><time>2026-05-02T08:33:58.788Z</time></trkpt><trkpt lat="43.91474217394493" lon="11.35329061989795"><ele>272.3333333333333</ele><time>2026-05-02T08:33:59.788Z</time></trkpt><trkpt lat="43.91492390776851" lon="11.353253100964068"><ele>271.0</ele><time>2026-05-02T08:34:00.788Z</time></trkpt><trkpt lat="43.91510816861041" lon="11.353159374784623"><ele>271.66666666666663</ele><time>2026-05-02T08:34:01.788Z</time></trkpt><trkpt lat="43.91530245340669" lon="11.353057563192605"><ele>272.3333333333333</ele><time>2026-05-02T08:34:02.788Z</time></trkpt><trkpt lat="43.91549537055933" lon="11.352970159318827"><ele>273.0</ele><time>2026-05-02T08:34:03.788Z</time></trkpt><trkpt lat="43.91568992802417" lon="11.352886434616144"><ele>273.0</ele><time>2026-05-02T08:34:04.788Z</time></trkpt><trkpt lat="43.91588319560345" lon="11.352802715587696"><ele>273.0</ele><time>2026-05-02T08:34:05.788Z</time></trkpt><trkpt lat="43.91607584385844" lon="11.352730566287073"><ele>273.0</ele><time>2026-05-02T08:34:06.788Z</time></trkpt><trkpt lat="43.91625928794001" lon="11.352674855114083"><ele>275.3333333333333</ele><time>2026-05-02T08:34:07.788Z</time></trkpt><trkpt lat="43.91643178472049" lon="11.352673044479317"><ele>277.66666666666663</ele><time>2026-05-02T08:34:08.788Z</time></trkpt><trkpt lat="43.91660224736896" lon="11.352736247019728"><ele>280.0</ele><time>2026-05-02T08:34:09.788Z</time></trkpt><trkpt lat="43.916772088372895" lon="11.352864126158972"><ele>283.0</ele><time>2026-05-02T08:34:10.788Z</time></trkpt><trkpt lat="43.91693608689531" lon="11.353023136418395"><ele>286.0</ele><time>2026-05-02T08:34:11.788Z</time></trkpt><trkpt lat="43.91710250943593" lon="11.353165318431946"><ele>289.0</ele><time>2026-05-02T08:34:12.788Z</time></trkpt><trkpt lat="43.91726524650578" lon="11.353261128804489"><ele>282.3333333333333</ele><time>2026-05-02T08:34:13.788Z</time></trkpt><trkpt lat="43.91744616805025" lon="11.353296639113747"><ele>275.6666666666667</ele><time>2026-05-02T08:34:14.788Z</time></trkpt><trkpt lat="43.91763919643305" lon="11.353304618318"><ele>269.0</ele><time>2026-05-02T08:34:15.788Z</time></trkpt><trkpt lat="43.91783516046913" lon="11.353319252037785"><ele>267.0</ele><time>2026-05-02T08:34:16.788Z</time></trkpt><trkpt lat="43.91803241777555" lon="11.353324909327695"><ele>265.0</ele><time>2026-05-02T08:34:17.788Z</time></trkpt><trkpt lat="43.918240566454436" lon="11.353354276060312"><ele>263.0</ele><time>2026-05-02T08:34:18.788Z</time></trkpt><trkpt lat="43.91843159627405" lon="11.353360919681494"><ele>262.6666666666667</ele><time>2026-05-02T08:34:19.787Z</time></trkpt><trkpt lat="43.91861417387804" lon="11.353374818110979"><ele>262.3333333333333</ele><time>2026-05-02T08:34:20.787Z</time></trkpt><trkpt lat="43.918792108151095" lon="11.353389136809495"><ele>262.0</ele><time>2026-05-02T08:34:21.787Z</time></trkpt><trkpt lat="43.91896379622185" lon="11.353408077489236"><ele>262.0</ele><time>2026-05-02T08:34:22.787Z</time></trkpt><trkpt lat="43.91913055652353" lon="11.353417275843686"><ele>262.0</ele><time>2026-05-02T08:34:23.787Z</time></trkpt><trkpt lat="43.91929141955436" lon="11.353375689814964"><ele>262.0</ele><time>2026-05-02T08:34:24.787Z</time></trkpt><trkpt lat="43.91942746884474" lon="11.353274964940152"><ele>262.3333333333333</ele><time>2026-05-02T08:34:25.787Z</time></trkpt><trkpt lat="43.91956109985639" lon="11.353112900690524"><ele>262.6666666666667</ele><time>2026-05-02T08:34:26.787Z</time></trkpt><trkpt lat="43.91968545556513" lon="11.35291166726456"><ele>263.0</ele><time>2026-05-02T08:34:27.787Z</time></trkpt><trkpt lat="43.919808261675115" lon="11.352682556815143"><ele>263.0</ele><time>2026-05-02T08:34:28.787Z</time></trkpt><trkpt lat="43.919918569889916" lon="11.352434145461444"><ele>263.0</ele><time>2026-05-02T08:34:29.787Z</time></trkpt><trkpt lat="43.92001641421122" lon="11.35217162418785"><ele>263.0</ele><time>2026-05-02T08:34:30.787Z</time></trkpt><trkpt lat="43.9201055846381" lon="11.351906543393277"><ele>265.33333333333337</ele><time>2026-05-02T08:34:31.787Z</time></trkpt><trkpt lat="43.92019575114091" lon="11.351638984028689"><ele>267.6666666666667</ele><time>2026-05-02T08:34:32.787Z</time></trkpt><trkpt lat="43.920307869000546" lon="11.351394587140867"><ele>270.0</ele><time>2026-05-02T08:34:33.787Z</time></trkpt><trkpt lat="43.920417991653714" lon="11.3511882144675"><ele>265.3333333333333</ele><time>2026-05-02T08:34:34.787Z</time></trkpt><trkpt lat="43.92053845505023" lon="11.351010868652477"><ele>260.66666666666663</ele><time>2026-05-02T08:34:35.787Z</time></trkpt><trkpt lat="43.92071834841924" lon="11.350890068096215"><ele>256.0</ele><time>2026-05-02T08:34:36.787Z</time></trkpt><trkpt lat="43.920929916673664" lon="11.35081023550923"><ele>256.0</ele><time>2026-05-02T08:34:37.787Z</time></trkpt><trkpt lat="43.92115718928089" lon="11.350776422967378"><ele>256.0</ele><time>2026-05-02T08:34:38.787Z</time></trkpt><trkpt lat="43.92138030655708" lon="11.350749549325784"><ele>256.0</ele><time>2026-05-02T08:34:39.787Z</time></trkpt><trkpt lat="43.92159364186684" lon="11.350712963537402"><ele>256.0</ele><time>2026-05-02T08:34:40.787Z</time></trkpt><trkpt lat="43.92180368709442" lon="11.350674544423883"><ele>256.0</ele><time>2026-05-02T08:34:41.787Z</time></trkpt><trkpt lat="43.92205831120611" lon="11.35068593693144"><ele>253.0</ele><time>2026-05-02T08:34:42.787Z</time></trkpt><trkpt lat="43.92158987158437" lon="11.349899566881641"><ele>253.0</ele><time>2026-05-02T08:34:43.787Z</time></trkpt><trkpt lat="43.92171551182836" lon="11.349816903603084"><ele>253.0</ele><time>2026-05-02T08:34:44.786Z</time></trkpt><trkpt lat="43.92184804260626" lon="11.34974652471594"><ele>253.0</ele><time>2026-05-02T08:34:45.786Z</time></trkpt><trkpt lat="43.922139381483476" lon="11.34969820787299"><ele>253.0</ele><time>2026-05-02T08:34:47.786Z</time></trkpt><trkpt lat="43.922284648190086" lon="11.349724698333342"><ele>253.0</ele><time>2026-05-02T08:34:48.786Z</time></trkpt><trkpt lat="43.922434289581304" lon="11.349788891710096"><ele>253.0</ele><time>2026-05-02T08:34:49.786Z</time></trkpt><trkpt lat="43.92258062404206" lon="11.349870606422794"><ele>252.0</ele><time>2026-05-02T08:34:50.786Z</time></trkpt><trkpt lat="43.92273135783274" lon="11.34990879599883"><ele>251.0</ele><time>2026-05-02T08:34:51.786Z</time></trkpt><trkpt lat="43.92289297546481" lon="11.349884522098556"><ele>250.0</ele><time>2026-05-02T08:34:52.786Z</time></trkpt><trkpt lat="43.92305112089423" lon="11.349802443997755"><ele>250.0</ele><time>2026-05-02T08:34:53.786Z</time></trkpt><trkpt lat="43.92322312307685" lon="11.349711813168243"><ele>250.0</ele><time>2026-05-02T08:34:54.786Z</time></trkpt><trkpt lat="43.92339369266089" lon="11.349628257450208"><ele>250.0</ele><time>2026-05-02T08:34:55.786Z</time></trkpt><trkpt lat="43.9235556682481" lon="11.349498554083691"><ele>247.66666666666666</ele><time>2026-05-02T08:34:56.786Z</time></trkpt><trkpt lat="43.92369616272089" lon="11.349330542200983"><ele>245.33333333333331</ele><time>2026-05-02T08:34:57.786Z</time></trkpt><trkpt lat="43.92380697903331" lon="11.349166423770663"><ele>243.0</ele><time>2026-05-02T08:34:58.786Z</time></trkpt><trkpt lat="43.92390771001105" lon="11.349055321871433"><ele>243.0</ele><time>2026-05-02T08:34:59.786Z</time></trkpt><trkpt lat="43.92401407517058" lon="11.34903635023372"><ele>243.0</ele><time>2026-05-02T08:35:00.786Z</time></trkpt><trkpt lat="43.9241144537629" lon="11.34911549195479"><ele>243.0</ele><time>2026-05-02T08:35:01.786Z</time></trkpt><trkpt lat="43.92419966071936" lon="11.349286078178652"><ele>243.0</ele><time>2026-05-02T08:35:02.786Z</time></trkpt><trkpt lat="43.92430007834385" lon="11.349458365774089"><ele>243.0</ele><time>2026-05-02T08:35:03.786Z</time></trkpt><trkpt lat="43.92442183179257" lon="11.34963487165181"><ele>243.0</ele><time>2026-05-02T08:35:04.786Z</time></trkpt><trkpt lat="43.924546929395795" lon="11.349820318559598"><ele>243.0</ele><time>2026-05-02T08:35:05.786Z</time></trkpt><trkpt lat="43.92467845774288" lon="11.350018700462037"><ele>243.0</ele><time>2026-05-02T08:35:06.786Z</time></trkpt><trkpt lat="43.924813282898356" lon="11.350209640637006"><ele>243.0</ele><time>2026-05-02T08:35:07.786Z</time></trkpt><trkpt lat="43.9249652288377" lon="11.350375719579246"><ele>243.0</ele><time>2026-05-02T08:35:08.786Z</time></trkpt><trkpt lat="43.92512556701724" lon="11.350526566932135"><ele>242.33333333333331</ele><time>2026-05-02T08:35:09.786Z</time></trkpt><trkpt lat="43.925289578107375" lon="11.35067459842587"><ele>241.66666666666666</ele><time>2026-05-02T08:35:10.785Z</time></trkpt><trkpt lat="43.92544813422866" lon="11.350828358445415"><ele>241.0</ele><time>2026-05-02T08:35:11.785Z</time></trkpt><trkpt lat="43.92561504560432" lon="11.350981908736316"><ele>241.0</ele><time>2026-05-02T08:35:12.785Z</time></trkpt><trkpt lat="43.92577535961259" lon="11.35113474294781"><ele>241.0</ele><time>2026-05-02T08:35:13.785Z</time></trkpt><trkpt lat="43.92593704911608" lon="11.351266673967217"><ele>241.0</ele><time>2026-05-02T08:35:14.785Z</time></trkpt><trkpt lat="43.926104750100144" lon="11.35133817039534"><ele>241.0</ele><time>2026-05-02T08:35:15.785Z</time></trkpt><trkpt lat="43.92628971653238" lon="11.351357077758612"><ele>241.0</ele><time>2026-05-02T08:35:16.785Z</time></trkpt><trkpt lat="43.926495420452625" lon="11.351336088755478"><ele>241.0</ele><time>2026-05-02T08:35:17.785Z</time></trkpt><trkpt lat="43.926693945702674" lon="11.351317766522023"><ele>241.0</ele><time>2026-05-02T08:35:18.785Z</time></trkpt><trkpt lat="43.92690085875729" lon="11.351306348779048"><ele>241.0</ele><time>2026-05-02T08:35:19.785Z</time></trkpt><trkpt lat="43.927115187211434" lon="11.351283810763999"><ele>241.0</ele><time>2026-05-02T08:35:20.785Z</time></trkpt><trkpt lat="43.92731937604812" lon="11.351283363708825"><ele>241.0</ele><time>2026-05-02T08:35:21.785Z</time></trkpt><trkpt lat="43.92751134101002" lon="11.351274018540979"><ele>241.0</ele><time>2026-05-02T08:35:22.785Z</time></trkpt><trkpt lat="43.927690656510784" lon="11.351250053955631"><ele>241.0</ele><time>2026-05-02T08:35:23.785Z</time></trkpt><trkpt lat="43.92785584542856" lon="11.351141001536202"><ele>240.0</ele><time>2026-05-02T08:35:24.785Z</time></trkpt><trkpt lat="43.928026486548" lon="11.351052571240746"><ele>239.0</ele><time>2026-05-02T08:35:25.785Z</time></trkpt><trkpt lat="43.92819983103384" lon="11.350962337938071"><ele>238.0</ele><time>2026-05-02T08:35:26.785Z</time></trkpt><trkpt lat="43.92837804178981" lon="11.35086439810807"><ele>238.33333333333331</ele><time>2026-05-02T08:35:27.785Z</time></trkpt><trkpt lat="43.92855301458213" lon="11.350752928096725"><ele>238.66666666666669</ele><time>2026-05-02T08:35:28.785Z</time></trkpt><trkpt lat="43.92872872311016" lon="11.350633928190891"><ele>239.0</ele><time>2026-05-02T08:35:29.785Z</time></trkpt><trkpt lat="43.928900318909925" lon="11.35049416418218"><ele>243.66666666666669</ele><time>2026-05-02T08:35:30.785Z</time></trkpt><trkpt lat="43.92907476412169" lon="11.350380222932381"><ele>248.33333333333331</ele><time>2026-05-02T08:35:31.785Z</time></trkpt><trkpt lat="43.92924420861861" lon="11.350297583076625"><ele>253.0</ele><time>2026-05-02T08:35:32.785Z</time></trkpt><trkpt lat="43.92942175649183" lon="11.350253987620858"><ele>256.66666666666663</ele><time>2026-05-02T08:35:33.785Z</time></trkpt><trkpt lat="43.9296098142456" lon="11.35026051018376"><ele>260.3333333333333</ele><time>2026-05-02T08:35:34.785Z</time></trkpt><trkpt lat="43.9298088804319" lon="11.350284990436437"><ele>264.0</ele><time>2026-05-02T08:35:35.784Z</time></trkpt><trkpt lat="43.92999962865416" lon="11.35031370463739"><ele>263.3333333333333</ele><time>2026-05-02T08:35:36.784Z</time></trkpt><trkpt lat="43.93017961270082" lon="11.350350038531362"><ele>262.66666666666663</ele><time>2026-05-02T08:35:37.784Z</time></trkpt><trkpt lat="43.93035562140821" lon="11.350437694851193"><ele>262.0</ele><time>2026-05-02T08:35:38.787Z</time></trkpt><trkpt lat="43.93052798563511" lon="11.350547235307943"><ele>255.33333333333331</ele><time>2026-05-02T08:35:39.786Z</time></trkpt><trkpt lat="43.93070746819831" lon="11.350636599572638"><ele>248.66666666666669</ele><time>2026-05-02T08:35:40.786Z</time></trkpt><trkpt lat="43.93089739533847" lon="11.350677800520902"><ele>242.0</ele><time>2026-05-02T08:35:41.787Z</time></trkpt><trkpt lat="43.931088676287615" lon="11.350692845733484"><ele>241.0</ele><time>2026-05-02T08:35:42.787Z</time></trkpt><trkpt lat="43.93126672390806" lon="11.350700594678873"><ele>240.0</ele><time>2026-05-02T08:35:43.787Z</time></trkpt><trkpt lat="43.931425965715334" lon="11.350699295541594"><ele>239.0</ele><time>2026-05-02T08:35:44.787Z</time></trkpt><trkpt lat="43.9315700913283" lon="11.350651853751843"><ele>239.0</ele><time>2026-05-02T08:35:45.786Z</time></trkpt><trkpt lat="43.931715582235945" lon="11.35055508048405"><ele>239.0</ele><time>2026-05-02T08:35:46.786Z</time></trkpt><trkpt lat="43.93185450880705" lon="11.350395490762686"><ele>239.0</ele><time>2026-05-02T08:35:47.787Z</time></trkpt><trkpt lat="43.93197605043017" lon="11.350182161300527"><ele>238.0</ele><time>2026-05-02T08:35:48.786Z</time></trkpt><trkpt lat="43.932106522224586" lon="11.349981823903398"><ele>237.0</ele><time>2026-05-02T08:35:49.786Z</time></trkpt><trkpt lat="43.93225005754521" lon="11.34978571689048"><ele>236.0</ele><time>2026-05-02T08:35:50.786Z</time></trkpt><trkpt lat="43.93240543665557" lon="11.349591290186131"><ele>232.66666666666669</ele><time>2026-05-02T08:35:51.786Z</time></trkpt><trkpt lat="43.932563128142064" lon="11.349388641487847"><ele>229.33333333333331</ele><time>2026-05-02T08:35:52.786Z</time></trkpt><trkpt lat="43.93272550679884" lon="11.349190510148746"><ele>226.0</ele><time>2026-05-02T08:35:53.786Z</time></trkpt><trkpt lat="43.93288680676287" lon="11.348997482597474"><ele>230.33333333333331</ele><time>2026-05-02T08:35:54.786Z</time></trkpt><trkpt lat="43.933043011279366" lon="11.348822505338319"><ele>234.66666666666669</ele><time>2026-05-02T08:35:55.786Z</time></trkpt><trkpt lat="43.933208751081565" lon="11.34870355097065"><ele>239.0</ele><time>2026-05-02T08:35:56.786Z</time></trkpt><trkpt lat="43.93338184711146" lon="11.348611739528902"><ele>242.66666666666669</ele><time>2026-05-02T08:35:57.786Z</time></trkpt><trkpt lat="43.93355584334808" lon="11.348543747939456"><ele>246.33333333333331</ele><time>2026-05-02T08:35:58.786Z</time></trkpt><trkpt lat="43.93374095343882" lon="11.348535489155681"><ele>250.0</ele><time>2026-05-02T08:35:59.786Z</time></trkpt><trkpt lat="43.93392379689817" lon="11.34857104554924"><ele>250.0</ele><time>2026-05-02T08:36:00.786Z</time></trkpt><trkpt lat="43.934092736966186" lon="11.34865446315683"><ele>250.0</ele><time>2026-05-02T08:36:01.786Z</time></trkpt><trkpt lat="43.93426047256404" lon="11.348783115877385"><ele>250.0</ele><time>2026-05-02T08:36:02.786Z</time></trkpt><trkpt lat="43.934427915273254" lon="11.348916433956473"><ele>244.0</ele><time>2026-05-02T08:36:03.786Z</time></trkpt><trkpt lat="43.93459312767774" lon="11.349036810998312"><ele>238.0</ele><time>2026-05-02T08:36:04.786Z</time></trkpt><trkpt lat="43.93475620141292" lon="11.349134974605375"><ele>232.0</ele><time>2026-05-02T08:36:05.786Z</time></trkpt><trkpt lat="43.93489956919609" lon="11.349203358741736"><ele>232.0</ele><time>2026-05-02T08:36:06.786Z</time></trkpt><trkpt lat="43.93503090421606" lon="11.349233555127043"><ele>232.0</ele><time>2026-05-02T08:36:07.786Z</time></trkpt><trkpt lat="43.935149330544284" lon="11.349189316358729"><ele>232.0</ele><time>2026-05-02T08:36:08.786Z</time></trkpt><trkpt lat="43.93524623551756" lon="11.349100223458965"><ele>232.0</ele><time>2026-05-02T08:36:09.786Z</time></trkpt><trkpt lat="43.935308290954424" lon="11.348931508029974"><ele>230.5</ele><time>2026-05-02T08:36:10.785Z</time></trkpt><trkpt lat="43.93532655771717" lon="11.3487149238293"><ele>229.0</ele><time>2026-05-02T08:36:11.785Z</time></trkpt><trkpt lat="43.935319871863136" lon="11.348500440794728"><ele>227.5</ele><time>2026-05-02T08:36:12.785Z</time></trkpt><trkpt lat="43.93532902856187" lon="11.34835465725306"><ele>226.0</ele><time>2026-05-02T08:36:13.785Z</time></trkpt><trkpt lat="43.9353549002288" lon="11.34824901781309"><ele>226.0</ele><time>2026-05-02T08:36:14.785Z</time></trkpt><trkpt lat="43.935381884536284" lon="11.348163838057237"><ele>226.00000000000003</ele><time>2026-05-02T08:36:15.785Z</time></trkpt><trkpt lat="43.935411640518694" lon="11.348080847112616"><ele>226.00000000000003</ele><time>2026-05-02T08:36:35.784Z</time></trkpt><trkpt lat="43.93544848496812" lon="11.34797056482409"><ele>226.0</ele><time>2026-05-02T08:36:37.784Z</time></trkpt><trkpt lat="43.93550047736886" lon="11.347825235641388"><ele>226.0</ele><time>2026-05-02T08:36:39.784Z</time></trkpt><trkpt lat="43.93553035397643" lon="11.347651045819735"><ele>226.16666666666666</ele><time>2026-05-02T08:36:41.784Z</time></trkpt><trkpt lat="43.935530280153756" lon="11.347544848164064"><ele>226.33333333333331</ele><time>2026-05-02T08:36:42.784Z</time></trkpt><trkpt lat="43.93553220269676" lon="11.34742987892981"><ele>226.5</ele><time>2026-05-02T08:36:43.784Z</time></trkpt><trkpt lat="43.935537101283856" lon="11.347303702997273"><ele>226.66666666666669</ele><time>2026-05-02T08:36:44.784Z</time></trkpt><trkpt lat="43.93554991994544" lon="11.347180111901737"><ele>226.83333333333334</ele><time>2026-05-02T08:36:45.784Z</time></trkpt><trkpt lat="43.93555591319741" lon="11.347056827546094"><ele>227.0</ele><time>2026-05-02T08:36:46.784Z</time></trkpt><trkpt lat="43.93556271689035" lon="11.346944316319592"><ele>227.00000000000003</ele><time>2026-05-02T08:36:47.784Z</time></trkpt><trkpt lat="43.93557163654851" lon="11.346819678224993"><ele>227.0</ele><time>2026-05-02T08:36:48.784Z</time></trkpt><trkpt lat="43.93558485121144" lon="11.346715194762153"><ele>227.0</ele><time>2026-05-02T08:36:49.784Z</time></trkpt><trkpt lat="43.935603236426644" lon="11.346591107607134"><ele>227.0</ele><time>2026-05-02T08:36:50.784Z</time></trkpt><trkpt lat="43.93561501183692" lon="11.346462461298614"><ele>227.00000000000003</ele><time>2026-05-02T08:36:51.784Z</time></trkpt><trkpt lat="43.93564130137388" lon="11.346348276081892"><ele>227.0</ele><time>2026-05-02T08:36:52.784Z</time></trkpt><trkpt lat="43.93565669386725" lon="11.346239415433581"><ele>226.8</ele><time>2026-05-02T08:36:53.784Z</time></trkpt><trkpt lat="43.935672163306954" lon="11.346131057070199"><ele>226.6</ele><time>2026-05-02T08:36:54.784Z</time></trkpt><trkpt lat="43.935711829931215" lon="11.346012278271855"><ele>226.40000000000003</ele><time>2026-05-02T08:36:55.784Z</time></trkpt><trkpt lat="43.935744172573884" lon="11.345909746140391"><ele>226.20000000000002</ele><time>2026-05-02T08:36:56.784Z</time></trkpt><trkpt lat="43.93579864757436" lon="11.34578213984455"><ele>226.0</ele><time>2026-05-02T08:36:57.784Z</time></trkpt><trkpt lat="43.935855687127884" lon="11.345668775843269"><ele>225.20000000000002</ele><time>2026-05-02T08:36:58.784Z</time></trkpt><trkpt lat="43.93592460302161" lon="11.345554300666372"><ele>224.40000000000003</ele><time>2026-05-02T08:36:59.784Z</time></trkpt><trkpt lat="43.93599637765677" lon="11.345460244355294"><ele>223.6</ele><time>2026-05-02T08:37:00.784Z</time></trkpt><trkpt lat="43.9360818127191" lon="11.345369638011906"><ele>222.8</ele><time>2026-05-02T08:37:01.783Z</time></trkpt><trkpt lat="43.936178456475574" lon="11.345288782961603"><ele>222.0</ele><time>2026-05-02T08:37:02.783Z</time></trkpt><trkpt lat="43.93627888637855" lon="11.345217596961719"><ele>222.0</ele><time>2026-05-02T08:37:03.783Z</time></trkpt><trkpt lat="43.936381415293596" lon="11.345158946112054"><ele>222.0</ele><time>2026-05-02T08:37:04.783Z</time></trkpt><trkpt lat="43.93648515948937" lon="11.345101177425692"><ele>222.0</ele><time>2026-05-02T08:37:05.783Z</time></trkpt><trkpt lat="43.93659131798587" lon="11.345060577586809"><ele>222.0</ele><time>2026-05-02T08:37:06.783Z</time></trkpt><trkpt lat="43.93669097872032" lon="11.345019417053999"><ele>222.0</ele><time>2026-05-02T08:37:07.783Z</time></trkpt><trkpt lat="43.93679737192616" lon="11.344991254749008"><ele>223.25</ele><time>2026-05-02T08:37:08.783Z</time></trkpt><trkpt lat="43.93690449735875" lon="11.345002448963877"><ele>224.5</ele><time>2026-05-02T08:37:09.783Z</time></trkpt><trkpt lat="43.9370198722479" lon="11.345032656187955"><ele>225.75</ele><time>2026-05-02T08:37:10.783Z</time></trkpt><trkpt lat="43.937171970789045" lon="11.345081573021893"><ele>227.0</ele><time>2026-05-02T08:37:11.783Z</time></trkpt><trkpt lat="43.937377285352646" lon="11.345199867800458"><ele>230.5</ele><time>2026-05-02T08:37:12.783Z</time></trkpt><trkpt lat="43.937637615707544" lon="11.345321245344975"><ele>234.0</ele><time>2026-05-02T08:37:13.783Z</time></trkpt><trkpt lat="43.937895709522984" lon="11.345416460693441"><ele>234.0</ele><time>2026-05-02T08:37:14.783Z</time></trkpt><trkpt lat="43.93810816524229" lon="11.345491808423361"><ele>234.0</ele><time>2026-05-02T08:37:15.783Z</time></trkpt><trkpt lat="43.93828187328047" lon="11.345547158530179"><ele>234.0</ele><time>2026-05-02T08:37:16.783Z</time></trkpt><trkpt lat="43.93842386725352" lon="11.345599207356527"><ele>233.25</ele><time>2026-05-02T08:37:17.783Z</time></trkpt><trkpt lat="43.93855351804041" lon="11.34563708191621"><ele>232.5</ele><time>2026-05-02T08:37:18.783Z</time></trkpt><trkpt lat="43.938678942147874" lon="11.345694082039568"><ele>231.75</ele><time>2026-05-02T08:37:19.783Z</time></trkpt><trkpt lat="43.938796659966975" lon="11.345770387735467"><ele>231.0</ele><time>2026-05-02T08:37:20.783Z</time></trkpt><trkpt lat="43.938906230365156" lon="11.345880999603548"><ele>231.0</ele><time>2026-05-02T08:37:21.783Z</time></trkpt><trkpt lat="43.93901616204999" lon="11.346003169146"><ele>231.0</ele><time>2026-05-02T08:37:22.783Z</time></trkpt><trkpt lat="43.93912677392939" lon="11.346101281189645"><ele>231.0</ele><time>2026-05-02T08:37:23.783Z</time></trkpt><trkpt lat="43.939233341478" lon="11.346188964618312"><ele>231.0</ele><time>2026-05-02T08:37:24.783Z</time></trkpt><trkpt lat="43.93933890151805" lon="11.346266179102017"><ele>231.75</ele><time>2026-05-02T08:37:25.783Z</time></trkpt><trkpt lat="43.93944707428674" lon="11.34633689815112"><ele>232.5</ele><time>2026-05-02T08:37:26.782Z</time></trkpt><trkpt lat="43.9395436503167" lon="11.346421651417007"><ele>233.25</ele><time>2026-05-02T08:37:27.782Z</time></trkpt><trkpt lat="43.939630949365316" lon="11.346515077003962"><ele>234.0</ele><time>2026-05-02T08:37:28.782Z</time></trkpt><trkpt lat="43.93971131138244" lon="11.34663195361279"><ele>234.0</ele><time>2026-05-02T08:37:29.782Z</time></trkpt><trkpt lat="43.93978535396522" lon="11.346761647424142"><ele>234.0</ele><time>2026-05-02T08:37:30.782Z</time></trkpt><trkpt lat="43.93983446611712" lon="11.346918267081188"><ele>234.0</ele><time>2026-05-02T08:37:31.782Z</time></trkpt><trkpt lat="43.939855956692135" lon="11.347093863271905"><ele>234.0</ele><time>2026-05-02T08:37:32.782Z</time></trkpt><trkpt lat="43.939868158158404" lon="11.347276010798723"><ele>232.25</ele><time>2026-05-02T08:37:33.782Z</time></trkpt><trkpt lat="43.93987308944437" lon="11.3474711733768"><ele>230.5</ele><time>2026-05-02T08:37:34.782Z</time></trkpt><trkpt lat="43.939878623399856" lon="11.347659117187574"><ele>228.75</ele><time>2026-05-02T08:37:35.782Z</time></trkpt><trkpt lat="43.93988398990729" lon="11.34785497357513"><ele>227.0</ele><time>2026-05-02T08:37:36.782Z</time></trkpt><trkpt lat="43.93988729255081" lon="11.348039945296307"><ele>226.75</ele><time>2026-05-02T08:37:37.782Z</time></trkpt><trkpt lat="43.93989653941372" lon="11.348220435281137"><ele>226.5</ele><time>2026-05-02T08:37:38.782Z</time></trkpt><trkpt lat="43.939923382547875" lon="11.348404911657726"><ele>226.25</ele><time>2026-05-02T08:37:39.782Z</time></trkpt><trkpt lat="43.93997743166032" lon="11.348621551607257"><ele>226.0</ele><time>2026-05-02T08:37:40.782Z</time></trkpt><trkpt lat="43.940022960572925" lon="11.348860979289137"><ele>233.66666666666666</ele><time>2026-05-02T08:37:41.782Z</time></trkpt><trkpt lat="43.94005663928924" lon="11.349087540625764"><ele>241.33333333333331</ele><time>2026-05-02T08:37:42.782Z</time></trkpt><trkpt lat="43.940090547740695" lon="11.349295927942343"><ele>249.0</ele><time>2026-05-02T08:37:43.782Z</time></trkpt><trkpt lat="43.940142223381194" lon="11.349536970762907"><ele>249.33333333333331</ele><time>2026-05-02T08:37:44.783Z</time></trkpt><trkpt lat="43.9401666612853" lon="11.349814742546169"><ele>249.66666666666666</ele><time>2026-05-02T08:37:45.784Z</time></trkpt><trkpt lat="43.94017970662083" lon="11.350118459393675"><ele>250.0</ele><time>2026-05-02T08:37:46.784Z</time></trkpt><trkpt lat="43.940198290889036" lon="11.350425500563999"><ele>250.0</ele><time>2026-05-02T08:37:47.783Z</time></trkpt><trkpt lat="43.9402258326845" lon="11.350696269184816"><ele>250.0</ele><time>2026-05-02T08:37:48.783Z</time></trkpt><trkpt lat="43.94026611716277" lon="11.350940412868987"><ele>250.0</ele><time>2026-05-02T08:37:49.783Z</time></trkpt><trkpt lat="43.94029497625385" lon="11.351160829310118"><ele>250.0</ele><time>2026-05-02T08:37:50.784Z</time></trkpt><trkpt lat="43.940323194204844" lon="11.35135804919456"><ele>250.0</ele><time>2026-05-02T08:37:51.783Z</time></trkpt><trkpt lat="43.94033763549267" lon="11.351527014323848"><ele>250.0</ele><time>2026-05-02T08:37:52.783Z</time></trkpt><trkpt lat="43.940333990263525" lon="11.351693395921995"><ele>250.0</ele><time>2026-05-02T08:37:53.783Z</time></trkpt><trkpt lat="43.94031255437718" lon="11.3518648056022"><ele>248.25</ele><time>2026-05-02T08:37:54.783Z</time></trkpt><trkpt lat="43.94028085926151" lon="11.35203931242554"><ele>246.5</ele><time>2026-05-02T08:37:55.783Z</time></trkpt><trkpt lat="43.94024291809994" lon="11.352195967924082"><ele>244.75</ele><time>2026-05-02T08:37:56.783Z</time></trkpt><trkpt lat="43.94019466688717" lon="11.352358980766411"><ele>243.0</ele><time>2026-05-02T08:37:57.783Z</time></trkpt><trkpt lat="43.940150341568106" lon="11.352533062126758"><ele>240.75</ele><time>2026-05-02T08:37:58.783Z</time></trkpt><trkpt lat="43.940124451127716" lon="11.352717840637498"><ele>238.5</ele><time>2026-05-02T08:37:59.783Z</time></trkpt><trkpt lat="43.940116222360224" lon="11.352912319496383"><ele>236.25</ele><time>2026-05-02T08:38:00.783Z</time></trkpt><trkpt lat="43.940132053288494" lon="11.353106391854972"><ele>234.0</ele><time>2026-05-02T08:38:01.783Z</time></trkpt><trkpt lat="43.94017192966771" lon="11.353294556881798"><ele>231.75</ele><time>2026-05-02T08:38:02.783Z</time></trkpt><trkpt lat="43.94021712932164" lon="11.353472158740784"><ele>229.5</ele><time>2026-05-02T08:38:03.783Z</time></trkpt><trkpt lat="43.940259765371984" lon="11.353656773666707"><ele>227.25</ele><time>2026-05-02T08:38:04.783Z</time></trkpt><trkpt lat="43.94030597596887" lon="11.353850253024023"><ele>225.0</ele><time>2026-05-02T08:38:05.783Z</time></trkpt><trkpt lat="43.94035210753182" lon="11.354045125863147"><ele>223.75</ele><time>2026-05-02T08:38:06.782Z</time></trkpt><trkpt lat="43.940402372075255" lon="11.354242873480224"><ele>222.5</ele><time>2026-05-02T08:38:07.782Z</time></trkpt><trkpt lat="43.94045089385855" lon="11.354432754621246"><ele>221.25</ele><time>2026-05-02T08:38:08.782Z</time></trkpt><trkpt lat="43.940498259304285" lon="11.35462479711374"><ele>220.0</ele><time>2026-05-02T08:38:09.782Z</time></trkpt><trkpt lat="43.94054640952801" lon="11.354817360194314"><ele>218.66666666666666</ele><time>2026-05-02T08:38:10.782Z</time></trkpt><trkpt lat="43.94060187105695" lon="11.355009585882843"><ele>217.33333333333331</ele><time>2026-05-02T08:38:11.782Z</time></trkpt><trkpt lat="43.9406706941137" lon="11.355199222780126"><ele>216.0</ele><time>2026-05-02T08:38:12.782Z</time></trkpt><trkpt lat="43.94075394090082" lon="11.355392225671109"><ele>214.66666666666669</ele><time>2026-05-02T08:38:13.782Z</time></trkpt><trkpt lat="43.94087051377158" lon="11.355594093361532"><ele>213.33333333333334</ele><time>2026-05-02T08:38:14.782Z</time></trkpt><trkpt lat="43.941003812258884" lon="11.355828313911461"><ele>212.0</ele><time>2026-05-02T08:38:15.782Z</time></trkpt><trkpt lat="43.94114038875276" lon="11.356090920584403"><ele>212.0</ele><time>2026-05-02T08:38:16.782Z</time></trkpt><trkpt lat="43.941285916393" lon="11.356360348858514"><ele>212.0</ele><time>2026-05-02T08:38:17.782Z</time></trkpt><trkpt lat="43.94144455318858" lon="11.356636045396808"><ele>211.5</ele><time>2026-05-02T08:38:18.782Z</time></trkpt><trkpt lat="43.94160835117356" lon="11.35690328565756"><ele>211.0</ele><time>2026-05-02T08:38:19.782Z</time></trkpt><trkpt lat="43.94177122000543" lon="11.357163867697183"><ele>210.0</ele><time>2026-05-02T08:38:20.782Z</time></trkpt><trkpt lat="43.94192825748549" lon="11.357421455965081"><ele>209.0</ele><time>2026-05-02T08:38:21.782Z</time></trkpt><trkpt lat="43.94208805863031" lon="11.357666923647367"><ele>209.0</ele><time>2026-05-02T08:38:22.782Z</time></trkpt><trkpt lat="43.9422381659891" lon="11.35790148700464"><ele>209.0</ele><time>2026-05-02T08:38:23.782Z</time></trkpt><trkpt lat="43.9423784075465" lon="11.358125406444922"><ele>209.0</ele><time>2026-05-02T08:38:24.782Z</time></trkpt><trkpt lat="43.94251993903623" lon="11.358338723755576"><ele>215.33333333333334</ele><time>2026-05-02T08:38:25.782Z</time></trkpt><trkpt lat="43.94266121228901" lon="11.358529752005596"><ele>221.66666666666669</ele><time>2026-05-02T08:38:26.782Z</time></trkpt><trkpt lat="43.94282025052847" lon="11.3586789690057"><ele>228.0</ele><time>2026-05-02T08:38:27.782Z</time></trkpt><trkpt lat="43.94299962229503" lon="11.35880111589036"><ele>224.33333333333331</ele><time>2026-05-02T08:38:28.782Z</time></trkpt><trkpt lat="43.94318496054717" lon="11.35892234816844"><ele>220.66666666666666</ele><time>2026-05-02T08:38:29.782Z</time></trkpt><trkpt lat="43.94336117228617" lon="11.35905959036669"><ele>217.0</ele><time>2026-05-02T08:38:30.782Z</time></trkpt><trkpt lat="43.94354019782999" lon="11.359214146972302"><ele>226.0</ele><time>2026-05-02T08:38:31.782Z</time></trkpt><trkpt lat="43.94370618320027" lon="11.359370589421884"><ele>235.0</ele><time>2026-05-02T08:38:32.781Z</time></trkpt><trkpt lat="43.94385772622036" lon="11.359525168885915"><ele>244.0</ele><time>2026-05-02T08:38:33.781Z</time></trkpt><trkpt lat="43.944000530151726" lon="11.359668997806228"><ele>235.66666666666666</ele><time>2026-05-02T08:38:34.781Z</time></trkpt><trkpt lat="43.944131651392865" lon="11.35980777909657"><ele>227.33333333333331</ele><time>2026-05-02T08:38:35.781Z</time></trkpt><trkpt lat="43.94425151885219" lon="11.359949372705291"><ele>219.0</ele><time>2026-05-02T08:38:36.781Z</time></trkpt><trkpt lat="43.94435609877053" lon="11.360072128338055"><ele>219.0</ele><time>2026-05-02T08:38:37.781Z</time></trkpt><trkpt lat="43.94444661913193" lon="11.360198846033908"><ele>218.99999999999997</ele><time>2026-05-02T08:38:38.781Z</time></trkpt><trkpt lat="43.94452302727632" lon="11.36030177577858"><ele>218.99999999999997</ele><time>2026-05-02T08:38:39.781Z</time></trkpt><trkpt lat="43.94459034782635" lon="11.360373863429656"><ele>219.0</ele><time>2026-05-02T08:38:40.781Z</time></trkpt><trkpt lat="43.944666161826184" lon="11.3603931339934"><ele>219.0</ele><time>2026-05-02T08:38:41.781Z</time></trkpt><trkpt lat="43.9447435391361" lon="11.360356347234882"><ele>219.0</ele><time>2026-05-02T08:38:42.781Z</time></trkpt><trkpt lat="43.94481888414438" lon="11.360298996869435"><ele>219.0</ele><time>2026-05-02T08:38:43.781Z</time></trkpt><trkpt lat="43.94489463602336" lon="11.36025505467748"><ele>219.0</ele><time>2026-05-02T08:38:44.781Z</time></trkpt><trkpt lat="43.94497101944956" lon="11.36020802507093"><ele>219.0</ele><time>2026-05-02T08:38:45.781Z</time></trkpt><trkpt lat="43.94504443084695" lon="11.360159503631563"><ele>219.0</ele><time>2026-05-02T08:38:46.781Z</time></trkpt><trkpt lat="43.94512836023103" lon="11.360125459443243"><ele>219.0</ele><time>2026-05-02T08:38:47.781Z</time></trkpt><trkpt lat="43.945195027813305" lon="11.360077296988418"><ele>216.79999999999998</ele><time>2026-05-02T08:38:48.781Z</time></trkpt><trkpt lat="43.94526819112079" lon="11.360039076301593"><ele>214.59999999999997</ele><time>2026-05-02T08:38:49.781Z</time></trkpt><trkpt lat="43.945325663141425" lon="11.359997346943837"><ele>212.4</ele><time>2026-05-02T08:38:50.781Z</time></trkpt><trkpt lat="43.94542377482946" lon="11.359899801552649"><ele>210.2</ele><time>2026-05-02T08:38:52.781Z</time></trkpt><trkpt lat="43.94550699186016" lon="11.359807490056156"><ele>208.0</ele><time>2026-05-02T08:38:54.781Z</time></trkpt><trkpt lat="43.945588644345804" lon="11.359715743155132"><ele>207.4</ele><time>2026-05-02T08:38:56.781Z</time></trkpt><trkpt lat="43.94567907850948" lon="11.359619350956361"><ele>206.8</ele><time>2026-05-02T08:38:58.78Z</time></trkpt><trkpt lat="43.9457391278665" lon="11.359571645661855"><ele>206.2</ele><time>2026-05-02T08:38:59.78Z</time></trkpt><trkpt lat="43.9458095787747" lon="11.359506091982324"><ele>205.6</ele><time>2026-05-02T08:39:00.78Z</time></trkpt><trkpt lat="43.945897060826944" lon="11.359442885832141"><ele>205.0</ele><time>2026-05-02T08:39:01.78Z</time></trkpt><trkpt lat="43.94600916453119" lon="11.359409786452394"><ele>205.0</ele><time>2026-05-02T08:39:02.78Z</time></trkpt><trkpt lat="43.94612411598892" lon="11.359417611275754"><ele>205.0</ele><time>2026-05-02T08:39:03.78Z</time></trkpt><trkpt lat="43.946238255294176" lon="11.359434732971442"><ele>205.0</ele><time>2026-05-02T08:39:04.78Z</time></trkpt><trkpt lat="43.94635345648003" lon="11.359465545142067"><ele>205.0</ele><time>2026-05-02T08:39:05.78Z</time></trkpt><trkpt lat="43.94646765580183" lon="11.359540052917989"><ele>205.0</ele><time>2026-05-02T08:39:06.78Z</time></trkpt><trkpt lat="43.94656467910442" lon="11.359678058464628"><ele>205.0</ele><time>2026-05-02T08:39:07.78Z</time></trkpt><trkpt lat="43.94664558439948" lon="11.359842777090332"><ele>205.0</ele><time>2026-05-02T08:39:08.78Z</time></trkpt><trkpt lat="43.94673236617901" lon="11.360006953388321"><ele>205.0</ele><time>2026-05-02T08:39:09.78Z</time></trkpt><trkpt lat="43.94682692428949" lon="11.360171510251678"><ele>203.66666666666666</ele><time>2026-05-02T08:39:10.78Z</time></trkpt><trkpt lat="43.94692260390485" lon="11.360334556134385"><ele>202.33333333333331</ele><time>2026-05-02T08:39:11.78Z</time></trkpt><trkpt lat="43.947015297442725" lon="11.360511431867504"><ele>201.0</ele><time>2026-05-02T08:39:12.78Z</time></trkpt><trkpt lat="43.94711465716852" lon="11.36068964989236"><ele>201.0</ele><time>2026-05-02T08:39:13.78Z</time></trkpt><trkpt lat="43.94722325106389" lon="11.360868178465648"><ele>201.0</ele><time>2026-05-02T08:39:14.78Z</time></trkpt><trkpt lat="43.94733996144916" lon="11.361053892941854"><ele>201.0</ele><time>2026-05-02T08:39:15.78Z</time></trkpt><trkpt lat="43.94746755305327" lon="11.361233896838998"><ele>201.0</ele><time>2026-05-02T08:39:16.78Z</time></trkpt><trkpt lat="43.94759174250021" lon="11.361388484598667"><ele>201.0</ele><time>2026-05-02T08:39:17.78Z</time></trkpt><trkpt lat="43.94773252451483" lon="11.361569478856246"><ele>201.0</ele><time>2026-05-02T08:39:18.78Z</time></trkpt><trkpt lat="43.94788780193819" lon="11.36174006796114"><ele>201.0</ele><time>2026-05-02T08:39:19.78Z</time></trkpt><trkpt lat="43.94805029865187" lon="11.361900112481402"><ele>201.0</ele><time>2026-05-02T08:39:20.78Z</time></trkpt><trkpt lat="43.94822400359506" lon="11.362052835175069"><ele>201.0</ele><time>2026-05-02T08:39:21.78Z</time></trkpt><trkpt lat="43.94840435158365" lon="11.362196895321336"><ele>199.66666666666669</ele><time>2026-05-02T08:39:22.78Z</time></trkpt><trkpt lat="43.94859147755884" lon="11.362333184759095"><ele>198.33333333333334</ele><time>2026-05-02T08:39:23.779Z</time></trkpt><trkpt lat="43.948786184446845" lon="11.362463038445302"><ele>197.0</ele><time>2026-05-02T08:39:24.779Z</time></trkpt><trkpt lat="43.94898503675682" lon="11.362583930349283"><ele>197.0</ele><time>2026-05-02T08:39:25.779Z</time></trkpt><trkpt lat="43.949187919710546" lon="11.362702461352754"><ele>197.0</ele><time>2026-05-02T08:39:26.779Z</time></trkpt><trkpt lat="43.94938881045959" lon="11.362830108495938"><ele>197.0</ele><time>2026-05-02T08:39:27.779Z</time></trkpt><trkpt lat="43.94958768980275" lon="11.362954695351666"><ele>197.0</ele><time>2026-05-02T08:39:28.779Z</time></trkpt><trkpt lat="43.949791306780114" lon="11.363084177827"><ele>197.0</ele><time>2026-05-02T08:39:29.779Z</time></trkpt><trkpt lat="43.9499934960493" lon="11.363212856766944"><ele>197.0</ele><time>2026-05-02T08:39:30.779Z</time></trkpt><trkpt lat="43.95020059290211" lon="11.363339452613115"><ele>199.0</ele><time>2026-05-02T08:39:31.779Z</time></trkpt><trkpt lat="43.95040564509773" lon="11.363464881547774"><ele>201.0</ele><time>2026-05-02T08:39:32.779Z</time></trkpt><trkpt lat="43.95061295556546" lon="11.36358847692957"><ele>201.0</ele><time>2026-05-02T08:39:33.779Z</time></trkpt><trkpt lat="43.95082063750484" lon="11.363714062848587"><ele>201.0</ele><time>2026-05-02T08:39:34.779Z</time></trkpt><trkpt lat="43.95102515152384" lon="11.363840675029584"><ele>200.0</ele><time>2026-05-02T08:39:35.779Z</time></trkpt><trkpt lat="43.95123088818959" lon="11.363965804990913"><ele>199.0</ele><time>2026-05-02T08:39:36.779Z</time></trkpt><trkpt lat="43.951439335781245" lon="11.364079731884972"><ele>198.0</ele><time>2026-05-02T08:39:37.779Z</time></trkpt><trkpt lat="43.951655491857714" lon="11.364172325281336"><ele>197.0</ele><time>2026-05-02T08:39:38.779Z</time></trkpt><trkpt lat="43.9518747364336" lon="11.364246472167498"><ele>196.0</ele><time>2026-05-02T08:39:39.779Z</time></trkpt><trkpt lat="43.95209883558503" lon="11.364275956702153"><ele>196.0</ele><time>2026-05-02T08:39:40.779Z</time></trkpt><trkpt lat="43.95231820123666" lon="11.364321382158122"><ele>196.0</ele><time>2026-05-02T08:39:41.779Z</time></trkpt><trkpt lat="43.952531604447515" lon="11.364443813990286"><ele>195.33333333333331</ele><time>2026-05-02T08:39:42.779Z</time></trkpt><trkpt lat="43.952744845694" lon="11.3645398651663"><ele>194.66666666666669</ele><time>2026-05-02T08:39:43.779Z</time></trkpt><trkpt lat="43.95295727438877" lon="11.36463030260155"><ele>194.0</ele><time>2026-05-02T08:39:44.779Z</time></trkpt><trkpt lat="43.953172529749914" lon="11.364707164509605"><ele>193.66666666666669</ele><time>2026-05-02T08:39:45.779Z</time></trkpt><trkpt lat="43.95338347884735" lon="11.364783402252979"><ele>193.33333333333331</ele><time>2026-05-02T08:39:46.779Z</time></trkpt><trkpt lat="43.95359813523601" lon="11.364861891957645"><ele>193.0</ele><time>2026-05-02T08:39:47.779Z</time></trkpt><trkpt lat="43.95381771810821" lon="11.36492562448951"><ele>193.0</ele><time>2026-05-02T08:39:48.778Z</time></trkpt><trkpt lat="43.95403708057137" lon="11.364970532144376"><ele>193.0</ele><time>2026-05-02T08:39:49.778Z</time></trkpt><trkpt lat="43.954258802247324" lon="11.364997702073063"><ele>193.0</ele><time>2026-05-02T08:39:50.78Z</time></trkpt><trkpt lat="43.95447867264412" lon="11.36501094334331"><ele>193.0</ele><time>2026-05-02T08:39:51.78Z</time></trkpt><trkpt lat="43.95470599886905" lon="11.365008455417666"><ele>193.0</ele><time>2026-05-02T08:39:52.78Z</time></trkpt><trkpt lat="43.9549296997034" lon="11.36498926505517"><ele>193.0</ele><time>2026-05-02T08:39:53.78Z</time></trkpt><trkpt lat="43.95515931974941" lon="11.364958889981903"><ele>193.0</ele><time>2026-05-02T08:39:54.78Z</time></trkpt><trkpt lat="43.95538844806447" lon="11.364914583912949"><ele>193.0</ele><time>2026-05-02T08:39:55.78Z</time></trkpt><trkpt lat="43.95561099924682" lon="11.364850344176922"><ele>193.0</ele><time>2026-05-02T08:39:56.78Z</time></trkpt><trkpt lat="43.95582882505618" lon="11.364755148662933"><ele>193.0</ele><time>2026-05-02T08:39:57.78Z</time></trkpt><trkpt lat="43.956048713298806" lon="11.364646682132937"><ele>193.0</ele><time>2026-05-02T08:39:58.78Z</time></trkpt><trkpt lat="43.95626481644762" lon="11.364527429275931"><ele>193.0</ele><time>2026-05-02T08:39:59.78Z</time></trkpt><trkpt lat="43.95648343314038" lon="11.36439489909281"><ele>193.0</ele><time>2026-05-02T08:40:00.78Z</time></trkpt><trkpt lat="43.95669777515244" lon="11.364248212526727"><ele>192.0</ele><time>2026-05-02T08:40:01.78Z</time></trkpt><trkpt lat="43.956906240218856" lon="11.364095174151617"><ele>191.0</ele><time>2026-05-02T08:40:02.78Z</time></trkpt><trkpt lat="43.95710656749733" lon="11.363905588580588"><ele>192.0</ele><time>2026-05-02T08:40:03.78Z</time></trkpt><trkpt lat="43.95730155430532" lon="11.363713516476162"><ele>193.0</ele><time>2026-05-02T08:40:04.78Z</time></trkpt><trkpt lat="43.95750041752326" lon="11.363524478381526"><ele>192.0</ele><time>2026-05-02T08:40:05.78Z</time></trkpt><trkpt lat="43.95770418449816" lon="11.363337322202646"><ele>191.0</ele><time>2026-05-02T08:40:06.78Z</time></trkpt><trkpt lat="43.95791263465677" lon="11.36315102801004"><ele>192.5</ele><time>2026-05-02T08:40:07.779Z</time></trkpt><trkpt lat="43.95811785456499" lon="11.362973013665345"><ele>194.0</ele><time>2026-05-02T08:40:08.779Z</time></trkpt><trkpt lat="43.958311878848114" lon="11.36278841875346"><ele>194.0</ele><time>2026-05-02T08:40:09.779Z</time></trkpt><trkpt lat="43.95850924552206" lon="11.362619915879662"><ele>194.0</ele><time>2026-05-02T08:40:10.779Z</time></trkpt><trkpt lat="43.95869916757109" lon="11.362460166831022"><ele>194.0</ele><time>2026-05-02T08:40:11.779Z</time></trkpt><trkpt lat="43.95889138366849" lon="11.362293377011342"><ele>194.0</ele><time>2026-05-02T08:40:12.779Z</time></trkpt><trkpt lat="43.95909030076448" lon="11.362127579655853"><ele>194.5</ele><time>2026-05-02T08:40:13.779Z</time></trkpt><trkpt lat="43.959290928398275" lon="11.36196758065465"><ele>195.0</ele><time>2026-05-02T08:40:14.779Z</time></trkpt><trkpt lat="43.959487909607496" lon="11.361797425004736"><ele>195.0</ele><time>2026-05-02T08:40:15.779Z</time></trkpt><trkpt lat="43.9596699122293" lon="11.361658076779563"><ele>195.0</ele><time>2026-05-02T08:40:16.779Z</time></trkpt><trkpt lat="43.95984662713429" lon="11.361551860428815"><ele>195.0</ele><time>2026-05-02T08:40:17.779Z</time></trkpt><trkpt lat="43.96003854747219" lon="11.361491152161557"><ele>196.0</ele><time>2026-05-02T08:40:18.779Z</time></trkpt><trkpt lat="43.960242239590634" lon="11.361437018367857"><ele>197.0</ele><time>2026-05-02T08:40:19.779Z</time></trkpt><trkpt lat="43.960459180067275" lon="11.361412744693856"><ele>198.0</ele><time>2026-05-02T08:40:20.779Z</time></trkpt><trkpt lat="43.9606731370409" lon="11.361421695983422"><ele>199.0</ele><time>2026-05-02T08:40:21.779Z</time></trkpt><trkpt lat="43.96088150083959" lon="11.361452464995635"><ele>200.0</ele><time>2026-05-02T08:40:22.779Z</time></trkpt><trkpt lat="43.96108987520778" lon="11.361499907509208"><ele>201.0</ele><time>2026-05-02T08:40:23.779Z</time></trkpt><trkpt lat="43.96129698842757" lon="11.361549963302906"><ele>201.0</ele><time>2026-05-02T08:40:24.779Z</time></trkpt><trkpt lat="43.96149268963464" lon="11.361614025917728"><ele>201.0</ele><time>2026-05-02T08:40:25.779Z</time></trkpt><trkpt lat="43.96169204409082" lon="11.361667159155502"><ele>201.0</ele><time>2026-05-02T08:40:26.779Z</time></trkpt><trkpt lat="43.96188992480266" lon="11.36172999605826"><ele>201.0</ele><time>2026-05-02T08:40:27.779Z</time></trkpt><trkpt lat="43.96209385959681" lon="11.361802357291083"><ele>201.0</ele><time>2026-05-02T08:40:28.779Z</time></trkpt><trkpt lat="43.96229737310086" lon="11.361874078894695"><ele>201.0</ele><time>2026-05-02T08:40:29.779Z</time></trkpt><trkpt lat="43.96249774037737" lon="11.361961363276532"><ele>201.66666666666669</ele><time>2026-05-02T08:40:30.779Z</time></trkpt><trkpt lat="43.962697352759925" lon="11.362071777018336"><ele>202.33333333333334</ele><time>2026-05-02T08:40:31.779Z</time></trkpt><trkpt lat="43.96289427234816" lon="11.36219217176596"><ele>203.0</ele><time>2026-05-02T08:40:32.779Z</time></trkpt><trkpt lat="43.96308290479963" lon="11.362321786934851"><ele>204.33333333333334</ele><time>2026-05-02T08:40:33.778Z</time></trkpt><trkpt lat="43.96326602013054" lon="11.362478923561884"><ele>205.66666666666669</ele><time>2026-05-02T08:40:34.778Z</time></trkpt><trkpt lat="43.963441402128396" lon="11.362651795657117"><ele>207.0</ele><time>2026-05-02T08:40:35.778Z</time></trkpt><trkpt lat="43.96360862330224" lon="11.362828133680267"><ele>207.0</ele><time>2026-05-02T08:40:36.778Z</time></trkpt><trkpt lat="43.96377837142991" lon="11.36301062700943"><ele>207.0</ele><time>2026-05-02T08:40:37.778Z</time></trkpt><trkpt lat="43.963945517805165" lon="11.363193790905845"><ele>207.0</ele><time>2026-05-02T08:40:38.778Z</time></trkpt><trkpt lat="43.9641110188725" lon="11.36338135498498"><ele>209.0</ele><time>2026-05-02T08:40:39.778Z</time></trkpt><trkpt lat="43.96427987300536" lon="11.3635793738244"><ele>211.0</ele><time>2026-05-02T08:40:40.778Z</time></trkpt><trkpt lat="43.964446040217354" lon="11.363759230681111"><ele>213.0</ele><time>2026-05-02T08:40:41.778Z</time></trkpt><trkpt lat="43.96460787704428" lon="11.363926854232016"><ele>213.66666666666669</ele><time>2026-05-02T08:40:42.778Z</time></trkpt><trkpt lat="43.96474990442493" lon="11.364095773750945"><ele>214.33333333333334</ele><time>2026-05-02T08:40:43.778Z</time></trkpt><trkpt lat="43.964902880169234" lon="11.364256883922408"><ele>215.0</ele><time>2026-05-02T08:40:44.778Z</time></trkpt><trkpt lat="43.965054158690265" lon="11.364424891496876"><ele>215.0</ele><time>2026-05-02T08:40:45.778Z</time></trkpt><trkpt lat="43.96521434027492" lon="11.364596255312991"><ele>215.0</ele><time>2026-05-02T08:40:46.778Z</time></trkpt><trkpt lat="43.965380749401994" lon="11.36476099227913"><ele>215.0</ele><time>2026-05-02T08:40:47.778Z</time></trkpt><trkpt lat="43.96555782028923" lon="11.364909172873592"><ele>216.66666666666669</ele><time>2026-05-02T08:40:48.778Z</time></trkpt><trkpt lat="43.96574816978381" lon="11.36503250493962"><ele>218.33333333333331</ele><time>2026-05-02T08:40:49.778Z</time></trkpt><trkpt lat="43.96595178718949" lon="11.365134825795788"><ele>220.0</ele><time>2026-05-02T08:40:50.778Z</time></trkpt><trkpt lat="43.9661572896873" lon="11.36520557993574"><ele>220.33333333333331</ele><time>2026-05-02T08:40:51.778Z</time></trkpt><trkpt lat="43.9663617149107" lon="11.365248225354716"><ele>220.66666666666669</ele><time>2026-05-02T08:40:52.778Z</time></trkpt><trkpt lat="43.96655961916268" lon="11.365266643679227"><ele>221.0</ele><time>2026-05-02T08:40:53.778Z</time></trkpt><trkpt lat="43.966759875419605" lon="11.365265069613638"><ele>221.66666666666669</ele><time>2026-05-02T08:40:54.778Z</time></trkpt><trkpt lat="43.96696110454234" lon="11.365267292729774"><ele>222.33333333333331</ele><time>2026-05-02T08:40:55.778Z</time></trkpt><trkpt lat="43.967161892134946" lon="11.36530370730061"><ele>223.0</ele><time>2026-05-02T08:40:56.778Z</time></trkpt><trkpt lat="43.96735418199753" lon="11.365376960078837"><ele>222.33333333333331</ele><time>2026-05-02T08:40:57.778Z</time></trkpt><trkpt lat="43.96754768821727" lon="11.365453350139944"><ele>221.66666666666669</ele><time>2026-05-02T08:40:58.777Z</time></trkpt><trkpt lat="43.96774323104228" lon="11.365528516974814"><ele>221.0</ele><time>2026-05-02T08:40:59.777Z</time></trkpt><trkpt lat="43.96794432146408" lon="11.365586722352482"><ele>222.33333333333334</ele><time>2026-05-02T08:41:00.777Z</time></trkpt><trkpt lat="43.968143300282634" lon="11.365648867429975"><ele>223.66666666666669</ele><time>2026-05-02T08:41:01.777Z</time></trkpt><trkpt lat="43.96834094261229" lon="11.36571609073317"><ele>225.0</ele><time>2026-05-02T08:41:02.777Z</time></trkpt><trkpt lat="43.96853534912389" lon="11.36577992498424"><ele>225.66666666666669</ele><time>2026-05-02T08:41:03.777Z</time></trkpt><trkpt lat="43.96873190079229" lon="11.365834517851912"><ele>226.33333333333334</ele><time>2026-05-02T08:41:04.777Z</time></trkpt><trkpt lat="43.968923789274506" lon="11.365894690765877"><ele>227.0</ele><time>2026-05-02T08:41:05.777Z</time></trkpt><trkpt lat="43.969118589689266" lon="11.36593739903945"><ele>228.66666666666669</ele><time>2026-05-02T08:41:06.777Z</time></trkpt><trkpt lat="43.9693078042524" lon="11.365971974123022"><ele>230.33333333333331</ele><time>2026-05-02T08:41:07.777Z</time></trkpt><trkpt lat="43.96948631247215" lon="11.365987551455232"><ele>232.0</ele><time>2026-05-02T08:41:08.777Z</time></trkpt><trkpt lat="43.96965438315546" lon="11.365962759868818"><ele>232.0</ele><time>2026-05-02T08:41:09.777Z</time></trkpt><trkpt lat="43.96981813424457" lon="11.365907847161171"><ele>232.0</ele><time>2026-05-02T08:41:10.777Z</time></trkpt><trkpt lat="43.969984917630704" lon="11.365818179007096"><ele>232.0</ele><time>2026-05-02T08:41:11.777Z</time></trkpt><trkpt lat="43.97015223976793" lon="11.365715411884015"><ele>231.66666666666666</ele><time>2026-05-02T08:41:12.777Z</time></trkpt><trkpt lat="43.97031298943541" lon="11.36561029057449"><ele>231.33333333333331</ele><time>2026-05-02T08:41:13.777Z</time></trkpt><trkpt lat="43.97047189937136" lon="11.365526537051071"><ele>231.0</ele><time>2026-05-02T08:41:14.777Z</time></trkpt><trkpt lat="43.970624673431615" lon="11.365476996513703"><ele>229.25</ele><time>2026-05-02T08:41:15.777Z</time></trkpt><trkpt lat="43.97076834251853" lon="11.365477746589907"><ele>227.5</ele><time>2026-05-02T08:41:16.777Z</time></trkpt><trkpt lat="43.97090827279112" lon="11.365511766074764"><ele>225.75</ele><time>2026-05-02T08:41:17.777Z</time></trkpt><trkpt lat="43.9710407262776" lon="11.365574492323189"><ele>224.0</ele><time>2026-05-02T08:41:18.777Z</time></trkpt><trkpt lat="43.97116794723383" lon="11.365658001833966"><ele>224.0</ele><time>2026-05-02T08:41:19.777Z</time></trkpt><trkpt lat="43.97128742678879" lon="11.365759023524612"><ele>224.0</ele><time>2026-05-02T08:41:20.777Z</time></trkpt><trkpt lat="43.971399258668534" lon="11.3658819676818"><ele>224.0</ele><time>2026-05-02T08:41:21.777Z</time></trkpt><trkpt lat="43.971500616863665" lon="11.366028551999104"><ele>224.0</ele><time>2026-05-02T08:41:22.777Z</time></trkpt><trkpt lat="43.97158931870997" lon="11.366196946144228"><ele>224.0</ele><time>2026-05-02T08:41:23.777Z</time></trkpt><trkpt lat="43.9716633885245" lon="11.366374386959773"><ele>224.0</ele><time>2026-05-02T08:41:24.776Z</time></trkpt><trkpt lat="43.971729166033" lon="11.366557113807232"><ele>224.0</ele><time>2026-05-02T08:41:25.776Z</time></trkpt><trkpt lat="43.97179218444287" lon="11.36675535546444"><ele>224.0</ele><time>2026-05-02T08:41:26.776Z</time></trkpt><trkpt lat="43.971866396594045" lon="11.366950968762664"><ele>224.0</ele><time>2026-05-02T08:41:27.776Z</time></trkpt><trkpt lat="43.971960006429185" lon="11.36714147171351"><ele>224.0</ele><time>2026-05-02T08:41:28.776Z</time></trkpt><trkpt lat="43.97207115195933" lon="11.367319433532884"><ele>225.0</ele><time>2026-05-02T08:41:29.776Z</time></trkpt><trkpt lat="43.972195751966645" lon="11.367494336518456"><ele>226.0</ele><time>2026-05-02T08:41:30.776Z</time></trkpt><trkpt lat="43.9723290979236" lon="11.367643457144451"><ele>227.0</ele><time>2026-05-02T08:41:31.776Z</time></trkpt><trkpt lat="43.972469102145865" lon="11.36776124257783"><ele>226.66666666666669</ele><time>2026-05-02T08:41:32.776Z</time></trkpt><trkpt lat="43.97261112996339" lon="11.367871915219231"><ele>226.33333333333331</ele><time>2026-05-02T08:41:33.776Z</time></trkpt><trkpt lat="43.972735924710875" lon="11.367973016828929"><ele>226.0</ele><time>2026-05-02T08:41:34.776Z</time></trkpt><trkpt lat="43.97286506786907" lon="11.368056407910135"><ele>226.5</ele><time>2026-05-02T08:41:35.776Z</time></trkpt><trkpt lat="43.97299943090238" lon="11.368119658542327"><ele>227.0</ele><time>2026-05-02T08:41:36.776Z</time></trkpt><trkpt lat="43.97313391862696" lon="11.368190543752924"><ele>227.5</ele><time>2026-05-02T08:41:37.776Z</time></trkpt><trkpt lat="43.97327270346696" lon="11.368265784193976"><ele>228.0</ele><time>2026-05-02T08:41:38.776Z</time></trkpt><trkpt lat="43.973429838500174" lon="11.368331339720196"><ele>228.0</ele><time>2026-05-02T08:41:39.776Z</time></trkpt><trkpt lat="43.973594653040294" lon="11.368410140412388"><ele>228.0</ele><time>2026-05-02T08:41:40.776Z</time></trkpt><trkpt lat="43.97376354498974" lon="11.368499217707152"><ele>228.0</ele><time>2026-05-02T08:41:41.776Z</time></trkpt><trkpt lat="43.97393421611356" lon="11.368596155733801"><ele>228.0</ele><time>2026-05-02T08:41:42.776Z</time></trkpt><trkpt lat="43.97411263698912" lon="11.368701570037457"><ele>228.0</ele><time>2026-05-02T08:41:43.776Z</time></trkpt><trkpt lat="43.97429780299451" lon="11.368803827996958"><ele>228.0</ele><time>2026-05-02T08:41:44.776Z</time></trkpt><trkpt lat="43.97448707763112" lon="11.36891249812208"><ele>228.66666666666669</ele><time>2026-05-02T08:41:45.776Z</time></trkpt><trkpt lat="43.97467873332049" lon="11.36901488090669"><ele>229.33333333333334</ele><time>2026-05-02T08:41:46.776Z</time></trkpt><trkpt lat="43.97487969204321" lon="11.369122505961267"><ele>230.0</ele><time>2026-05-02T08:41:47.776Z</time></trkpt><trkpt lat="43.975078048916444" lon="11.369230858826379"><ele>230.0</ele><time>2026-05-02T08:41:48.776Z</time></trkpt><trkpt lat="43.97527933854097" lon="11.36934143267705"><ele>230.0</ele><time>2026-05-02T08:41:49.775Z</time></trkpt><trkpt lat="43.97548322504938" lon="11.369450818337722"><ele>230.0</ele><time>2026-05-02T08:41:50.775Z</time></trkpt><trkpt lat="43.975687954255875" lon="11.36955932959647"><ele>230.0</ele><time>2026-05-02T08:41:51.775Z</time></trkpt><trkpt lat="43.97589045410753" lon="11.369680312357136"><ele>230.0</ele><time>2026-05-02T08:41:52.775Z</time></trkpt><trkpt lat="43.97608671827772" lon="11.369811070077246"><ele>230.0</ele><time>2026-05-02T08:41:53.775Z</time></trkpt><trkpt lat="43.97627497375099" lon="11.369956027336995"><ele>230.66666666666669</ele><time>2026-05-02T08:41:54.775Z</time></trkpt><trkpt lat="43.97645622793141" lon="11.370121057186308"><ele>231.33333333333331</ele><time>2026-05-02T08:41:55.775Z</time></trkpt><trkpt lat="43.97663284752862" lon="11.37030722494212"><ele>232.0</ele><time>2026-05-02T08:41:56.777Z</time></trkpt><trkpt lat="43.97680767937078" lon="11.370491042407167"><ele>233.5</ele><time>2026-05-02T08:41:57.776Z</time></trkpt><trkpt lat="43.976988261181894" lon="11.370673015334765"><ele>235.0</ele><time>2026-05-02T08:41:58.776Z</time></trkpt><trkpt lat="43.97717595290778" lon="11.370853102077396"><ele>235.0</ele><time>2026-05-02T08:41:59.777Z</time></trkpt><trkpt lat="43.97735964808685" lon="11.37104865709993"><ele>235.0</ele><time>2026-05-02T08:42:00.776Z</time></trkpt><trkpt lat="43.97755208622132" lon="11.371230788272385"><ele>235.5</ele><time>2026-05-02T08:42:01.776Z</time></trkpt><trkpt lat="43.977747107745294" lon="11.371409345034035"><ele>236.0</ele><time>2026-05-02T08:42:02.777Z</time></trkpt><trkpt lat="43.97793828797266" lon="11.371584022612884"><ele>236.0</ele><time>2026-05-02T08:42:03.776Z</time></trkpt><trkpt lat="43.97813470214358" lon="11.371751424057953"><ele>236.0</ele><time>2026-05-02T08:42:04.776Z</time></trkpt><trkpt lat="43.9783308261456" lon="11.371916391094304"><ele>236.5</ele><time>2026-05-02T08:42:05.777Z</time></trkpt><trkpt lat="43.97852561623756" lon="11.372086547223748"><ele>237.0</ele><time>2026-05-02T08:42:06.777Z</time></trkpt><trkpt lat="43.97872005373872" lon="11.372258081072237"><ele>237.0</ele><time>2026-05-02T08:42:07.777Z</time></trkpt><trkpt lat="43.97891411262597" lon="11.372430359353768"><ele>237.0</ele><time>2026-05-02T08:42:08.777Z</time></trkpt><trkpt lat="43.97911039572798" lon="11.372604443178039"><ele>238.0</ele><time>2026-05-02T08:42:09.777Z</time></trkpt><trkpt lat="43.9793044683585" lon="11.372779134717314"><ele>239.0</ele><time>2026-05-02T08:42:10.777Z</time></trkpt><trkpt lat="43.979498180165" lon="11.372955657049543"><ele>239.0</ele><time>2026-05-02T08:42:11.777Z</time></trkpt><trkpt lat="43.97968971236633" lon="11.373116995498059"><ele>239.0</ele><time>2026-05-02T08:42:12.777Z</time></trkpt><trkpt lat="43.97985684130935" lon="11.37324469278022"><ele>239.0</ele><time>2026-05-02T08:42:13.777Z</time></trkpt><trkpt lat="43.97999493698886" lon="11.373372745256702"><ele>239.66666666666669</ele><time>2026-05-02T08:42:14.777Z</time></trkpt><trkpt lat="43.98014672857593" lon="11.37351031267814"><ele>240.33333333333331</ele><time>2026-05-02T08:42:15.777Z</time></trkpt><trkpt lat="43.98030412362153" lon="11.373650920009377"><ele>241.0</ele><time>2026-05-02T08:42:16.777Z</time></trkpt><trkpt lat="43.980477994723444" lon="11.373807061777725"><ele>241.66666666666666</ele><time>2026-05-02T08:42:17.776Z</time></trkpt><trkpt lat="43.9806507551735" lon="11.373969218371673"><ele>242.33333333333331</ele><time>2026-05-02T08:42:18.776Z</time></trkpt><trkpt lat="43.98082219369344" lon="11.374145085889392"><ele>243.0</ele><time>2026-05-02T08:42:19.776Z</time></trkpt><trkpt lat="43.981001840983524" lon="11.374318570939081"><ele>243.0</ele><time>2026-05-02T08:42:20.776Z</time></trkpt><trkpt lat="43.98118500171607" lon="11.37448844121911"><ele>243.0</ele><time>2026-05-02T08:42:21.776Z</time></trkpt><trkpt lat="43.98137435033652" lon="11.374659037343704"><ele>243.0</ele><time>2026-05-02T08:42:22.776Z</time></trkpt><trkpt lat="43.98156816059639" lon="11.374821978207157"><ele>244.5</ele><time>2026-05-02T08:42:23.776Z</time></trkpt><trkpt lat="43.98176819205404" lon="11.374976624656362"><ele>246.0</ele><time>2026-05-02T08:42:24.776Z</time></trkpt><trkpt lat="43.981972277642114" lon="11.375104133979287"><ele>246.0</ele><time>2026-05-02T08:42:25.776Z</time></trkpt><trkpt lat="43.98218067127657" lon="11.375229984804736"><ele>246.0</ele><time>2026-05-02T08:42:26.776Z</time></trkpt><trkpt lat="43.98240137492961" lon="11.375371601697935"><ele>246.0</ele><time>2026-05-02T08:42:27.776Z</time></trkpt><trkpt lat="43.9826117603041" lon="11.37551554867386"><ele>246.0</ele><time>2026-05-02T08:42:28.776Z</time></trkpt><trkpt lat="43.98280518070892" lon="11.375693069199235"><ele>246.5</ele><time>2026-05-02T08:42:29.776Z</time></trkpt><trkpt lat="43.983011876043356" lon="11.375824240115799"><ele>247.0</ele><time>2026-05-02T08:42:30.776Z</time></trkpt><trkpt lat="43.98321358555968" lon="11.37595634625331"><ele>247.33333333333331</ele><time>2026-05-02T08:42:31.776Z</time></trkpt><trkpt lat="43.983409273256534" lon="11.376087746925633"><ele>247.66666666666669</ele><time>2026-05-02T08:42:32.776Z</time></trkpt><trkpt lat="43.98359859572874" lon="11.37623268862064"><ele>248.0</ele><time>2026-05-02T08:42:33.776Z</time></trkpt><trkpt lat="43.98378232158568" lon="11.376391214638227"><ele>248.0</ele><time>2026-05-02T08:42:34.776Z</time></trkpt><trkpt lat="43.9839535622213" lon="11.376570788863571"><ele>248.0</ele><time>2026-05-02T08:42:35.776Z</time></trkpt><trkpt lat="43.98412584089933" lon="11.376750951735252"><ele>248.0</ele><time>2026-05-02T08:42:36.776Z</time></trkpt><trkpt lat="43.98429725513821" lon="11.376930439189167"><ele>248.0</ele><time>2026-05-02T08:42:37.776Z</time></trkpt><trkpt lat="43.98447564343639" lon="11.377101601924066"><ele>248.0</ele><time>2026-05-02T08:42:38.776Z</time></trkpt><trkpt lat="43.98465368229237" lon="11.377278694834843"><ele>248.0</ele><time>2026-05-02T08:42:39.776Z</time></trkpt><trkpt lat="43.984827704610396" lon="11.377460550348522"><ele>248.33333333333334</ele><time>2026-05-02T08:42:40.776Z</time></trkpt><trkpt lat="43.984994084653785" lon="11.377631193916512"><ele>248.66666666666669</ele><time>2026-05-02T08:42:41.776Z</time></trkpt><trkpt lat="43.98516079973722" lon="11.377791288316194"><ele>249.0</ele><time>2026-05-02T08:42:42.775Z</time></trkpt><trkpt lat="43.98534037871421" lon="11.377915436266424"><ele>249.33333333333331</ele><time>2026-05-02T08:42:43.775Z</time></trkpt><trkpt lat="43.98551647208524" lon="11.378006817412672"><ele>249.66666666666666</ele><time>2026-05-02T08:42:44.775Z</time></trkpt><trkpt lat="43.98568117421517" lon="11.378062224333325"><ele>250.0</ele><time>2026-05-02T08:42:45.775Z</time></trkpt><trkpt lat="43.98581847159658" lon="11.378092783635052"><ele>250.16666666666666</ele><time>2026-05-02T08:42:46.775Z</time></trkpt><trkpt lat="43.9859212551534" lon="11.378104855373765"><ele>250.33333333333331</ele><time>2026-05-02T08:42:47.775Z</time></trkpt><trkpt lat="43.98600175188674" lon="11.378113457284858"><ele>250.5</ele><time>2026-05-02T08:42:48.775Z</time></trkpt><trkpt lat="43.986097677754564" lon="11.378115676492996"><ele>250.66666666666669</ele><time>2026-05-02T08:42:50.775Z</time></trkpt><trkpt lat="43.986157281477624" lon="11.378066404661464"><ele>250.83333333333334</ele><time>2026-05-02T08:42:59.775Z</time></trkpt><trkpt lat="43.98621092503974" lon="11.377968204799837"><ele>251.0</ele><time>2026-05-02T08:43:01.775Z</time></trkpt><trkpt lat="43.986216703586436" lon="11.377873961171938"><ele>250.20000000000002</ele><time>2026-05-02T08:43:02.775Z</time></trkpt><trkpt lat="43.986192372365025" lon="11.377771670988501"><ele>249.40000000000003</ele><time>2026-05-02T08:43:03.775Z</time></trkpt><trkpt lat="43.98618073000333" lon="11.377646374182433"><ele>248.6</ele><time>2026-05-02T08:43:04.775Z</time></trkpt><trkpt lat="43.986182327469926" lon="11.377508417768363"><ele>247.8</ele><time>2026-05-02T08:43:05.775Z</time></trkpt><trkpt lat="43.98618134193114" lon="11.377371316724847"><ele>247.0</ele><time>2026-05-02T08:43:06.775Z</time></trkpt><trkpt lat="43.9861806405146" lon="11.37722458921626"><ele>247.5</ele><time>2026-05-02T08:43:07.774Z</time></trkpt><trkpt lat="43.98617805454835" lon="11.377057048902747"><ele>248.0</ele><time>2026-05-02T08:43:08.774Z</time></trkpt><trkpt lat="43.9861770314643" lon="11.37687040575526"><ele>248.5</ele><time>2026-05-02T08:43:09.774Z</time></trkpt><trkpt lat="43.986189465710915" lon="11.376667930944786"><ele>249.0</ele><time>2026-05-02T08:43:10.774Z</time></trkpt><trkpt lat="43.9862296304815" lon="11.376464658010313"><ele>249.33333333333331</ele><time>2026-05-02T08:43:11.774Z</time></trkpt><trkpt lat="43.98630315468555" lon="11.376287725618567"><ele>249.66666666666666</ele><time>2026-05-02T08:43:12.774Z</time></trkpt><trkpt lat="43.98639160588177" lon="11.376118548001001"><ele>250.0</ele><time>2026-05-02T08:43:13.774Z</time></trkpt><trkpt lat="43.98648615726512" lon="11.375933957686062"><ele>250.0</ele><time>2026-05-02T08:43:14.774Z</time></trkpt><trkpt lat="43.98659025168165" lon="11.375733913458868"><ele>250.0</ele><time>2026-05-02T08:43:15.774Z</time></trkpt><trkpt lat="43.986695976962324" lon="11.37552337595927"><ele>250.0</ele><time>2026-05-02T08:43:16.774Z</time></trkpt><trkpt lat="43.98679618852303" lon="11.375296503548908"><ele>250.66666666666666</ele><time>2026-05-02T08:43:17.774Z</time></trkpt><trkpt lat="43.9869065790079" lon="11.375063747374496"><ele>251.33333333333331</ele><time>2026-05-02T08:43:18.774Z</time></trkpt><trkpt lat="43.98702439503486" lon="11.3748337640779"><ele>252.0</ele><time>2026-05-02T08:43:19.774Z</time></trkpt><trkpt lat="43.987147789205984" lon="11.374604709642329"><ele>252.0</ele><time>2026-05-02T08:43:20.774Z</time></trkpt><trkpt lat="43.9872694342794" lon="11.374375201686457"><ele>252.0</ele><time>2026-05-02T08:43:21.774Z</time></trkpt><trkpt lat="43.9873934591504" lon="11.3741345678069"><ele>252.0</ele><time>2026-05-02T08:43:22.774Z</time></trkpt><trkpt lat="43.987517486742775" lon="11.373890728184044"><ele>252.66666666666669</ele><time>2026-05-02T08:43:23.774Z</time></trkpt><trkpt lat="43.98765808872756" lon="11.373650981334762"><ele>253.33333333333334</ele><time>2026-05-02T08:43:24.774Z</time></trkpt><trkpt lat="43.98779905314675" lon="11.37343253041936"><ele>254.0</ele><time>2026-05-02T08:43:25.774Z</time></trkpt><trkpt lat="43.98794106069907" lon="11.373226751057448"><ele>254.0</ele><time>2026-05-02T08:43:26.774Z</time></trkpt><trkpt lat="43.98807295192758" lon="11.373036527438181"><ele>254.0</ele><time>2026-05-02T08:43:27.774Z</time></trkpt><trkpt lat="43.988177301423555" lon="11.372876578160865"><ele>254.0</ele><time>2026-05-02T08:43:28.774Z</time></trkpt><trkpt lat="43.98825615669904" lon="11.372748009180441"><ele>254.79999999999998</ele><time>2026-05-02T08:43:29.774Z</time></trkpt><trkpt lat="43.98831424214487" lon="11.37265247648874"><ele>255.59999999999997</ele><time>2026-05-02T08:43:30.774Z</time></trkpt><trkpt lat="43.98836999329257" lon="11.372561390326723"><ele>256.4</ele><time>2026-05-02T08:43:31.774Z</time></trkpt><trkpt lat="43.988428499389684" lon="11.372460597474468"><ele>257.2</ele><time>2026-05-02T08:43:32.774Z</time></trkpt><trkpt lat="43.988488753181926" lon="11.3723317952144"><ele>258.0</ele><time>2026-05-02T08:43:33.773Z</time></trkpt><trkpt lat="43.98857463368591" lon="11.372200165201402"><ele>260.3333333333333</ele><time>2026-05-02T08:43:34.773Z</time></trkpt><trkpt lat="43.988672135065826" lon="11.37206958645868"><ele>262.66666666666663</ele><time>2026-05-02T08:43:35.773Z</time></trkpt><trkpt lat="43.98878736192389" lon="11.37192056294994"><ele>265.0</ele><time>2026-05-02T08:43:36.773Z</time></trkpt><trkpt lat="43.98891517054856" lon="11.371769098793774"><ele>265.0</ele><time>2026-05-02T08:43:37.773Z</time></trkpt><trkpt lat="43.989063664718195" lon="11.37163810399879"><ele>265.0</ele><time>2026-05-02T08:43:38.773Z</time></trkpt><trkpt lat="43.98922359079262" lon="11.371512211548513"><ele>265.0</ele><time>2026-05-02T08:43:39.773Z</time></trkpt><trkpt lat="43.989390124886974" lon="11.371375672506034"><ele>262.66666666666663</ele><time>2026-05-02T08:43:40.773Z</time></trkpt><trkpt lat="43.989551815562" lon="11.371239744357874"><ele>260.3333333333333</ele><time>2026-05-02T08:43:41.773Z</time></trkpt><trkpt lat="43.98971290527268" lon="11.3711106476413"><ele>258.0</ele><time>2026-05-02T08:43:42.773Z</time></trkpt><trkpt lat="43.98985197007369" lon="11.370959365908003"><ele>258.0</ele><time>2026-05-02T08:43:43.773Z</time></trkpt><trkpt lat="43.98997165787822" lon="11.37080833545682"><ele>258.0</ele><time>2026-05-02T08:43:44.773Z</time></trkpt><trkpt lat="43.99008437785202" lon="11.3706567829654"><ele>258.0</ele><time>2026-05-02T08:43:45.773Z</time></trkpt><trkpt lat="43.9901744779346" lon="11.370523623016059"><ele>255.8</ele><time>2026-05-02T08:43:46.773Z</time></trkpt><trkpt lat="43.99025529929913" lon="11.370405676515144"><ele>253.60000000000002</ele><time>2026-05-02T08:43:47.773Z</time></trkpt><trkpt lat="43.990327996713354" lon="11.37030565082113"><ele>251.39999999999998</ele><time>2026-05-02T08:43:48.773Z</time></trkpt><trkpt lat="43.99038645850851" lon="11.370232701504388"><ele>249.2</ele><time>2026-05-02T08:43:49.773Z</time></trkpt><trkpt lat="43.990440567141185" lon="11.370181112402486"><ele>247.0</ele><time>2026-05-02T08:43:50.773Z</time></trkpt><trkpt lat="43.9905260116436" lon="11.370119117932441"><ele>247.0</ele><time>2026-05-02T08:43:52.773Z</time></trkpt><trkpt lat="43.99058681566595" lon="11.370082131220922"><ele>247.0</ele><time>2026-05-02T08:43:54.773Z</time></trkpt><trkpt lat="43.99065619215607" lon="11.370115392827273"><ele>247.0</ele><time>2026-05-02T08:43:57.773Z</time></trkpt><trkpt lat="43.99071736979416" lon="11.370225898284193"><ele>247.0</ele><time>2026-05-02T08:44:04.774Z</time></trkpt><trkpt lat="43.99083055531547" lon="11.370304650542954"><ele>247.0</ele><time>2026-05-02T08:44:06.774Z</time></trkpt><trkpt lat="43.99091413625385" lon="11.370359017751126"><ele>247.0</ele><time>2026-05-02T08:44:08.774Z</time></trkpt><trkpt lat="43.990970962465205" lon="11.370259163420272"><ele>247.0</ele><time>2026-05-02T08:44:26.773Z</time></trkpt><trkpt lat="43.990935607913755" lon="11.370181474940537"><ele>247.0</ele><time>2026-05-02T08:44:28.773Z</time></trkpt><trkpt lat="43.99084912577346" lon="11.370137928504422"><ele>247.0</ele><time>2026-05-02T08:44:30.773Z</time></trkpt><trkpt lat="43.99077531175419" lon="11.370074676480744"><ele>247.0</ele><time>2026-05-02T08:44:32.773Z</time></trkpt><trkpt lat="43.9906853643589" lon="11.36994881979847"><ele>247.0</ele><time>2026-05-02T08:44:34.773Z</time></trkpt><trkpt lat="43.990575950126996" lon="11.369805462225465"><ele>247.0</ele><time>2026-05-02T08:44:36.773Z</time></trkpt><trkpt lat="43.99053049407101" lon="11.369724918998422"><ele>247.0</ele><time>2026-05-02T08:44:37.773Z</time></trkpt><trkpt lat="43.99049929444797" lon="11.36964589809093"><ele>247.0</ele><time>2026-05-02T08:44:38.773Z</time></trkpt><trkpt lat="43.99049241899908" lon="11.369470119169538"><ele>247.0</ele><time>2026-05-02T08:44:40.773Z</time></trkpt><trkpt lat="43.99051759100277" lon="11.36937850262777"><ele>246.42857142857144</ele><time>2026-05-02T08:44:41.772Z</time></trkpt><trkpt lat="43.99054853889097" lon="11.36923242517108"><ele>245.85714285714283</ele><time>2026-05-02T08:44:43.772Z</time></trkpt><trkpt lat="43.99056399467562" lon="11.369143831726412"><ele>245.28571428571428</ele><time>2026-05-02T08:44:44.772Z</time></trkpt><trkpt lat="43.990585087067295" lon="11.369058726943233"><ele>244.71428571428572</ele><time>2026-05-02T08:44:45.772Z</time></trkpt><trkpt lat="43.99060609882939" lon="11.368971110125317"><ele>244.14285714285717</ele><time>2026-05-02T08:44:46.772Z</time></trkpt><trkpt lat="43.99062717992414" lon="11.368881937424334"><ele>243.57142857142856</ele><time>2026-05-02T08:44:47.772Z</time></trkpt><trkpt lat="43.99065116899374" lon="11.36878954589414"><ele>243.0</ele><time>2026-05-02T08:44:48.772Z</time></trkpt><trkpt lat="43.99067707011263" lon="11.368696721185634"><ele>242.8</ele><time>2026-05-02T08:44:49.772Z</time></trkpt><trkpt lat="43.99071120183333" lon="11.368587969743338"><ele>242.60000000000002</ele><time>2026-05-02T08:44:50.772Z</time></trkpt><trkpt lat="43.99075034609744" lon="11.368455883498376"><ele>242.39999999999998</ele><time>2026-05-02T08:44:51.772Z</time></trkpt><trkpt lat="43.99078888998885" lon="11.3683030433761"><ele>242.2</ele><time>2026-05-02T08:44:52.772Z</time></trkpt><trkpt lat="43.990836621164895" lon="11.36814174621288"><ele>242.0</ele><time>2026-05-02T08:44:53.772Z</time></trkpt><trkpt lat="43.9908915215747" lon="11.367978543531619"><ele>244.0</ele><time>2026-05-02T08:44:54.772Z</time></trkpt><trkpt lat="43.990941274090474" lon="11.367793250375827"><ele>246.0</ele><time>2026-05-02T08:44:55.772Z</time></trkpt><trkpt lat="43.99099642750982" lon="11.367594461887427"><ele>248.0</ele><time>2026-05-02T08:44:56.772Z</time></trkpt><trkpt lat="43.99105722862976" lon="11.367391845837696"><ele>249.66666666666669</ele><time>2026-05-02T08:44:57.772Z</time></trkpt><trkpt lat="43.991119496250775" lon="11.367190016646042"><ele>251.33333333333331</ele><time>2026-05-02T08:44:58.772Z</time></trkpt><trkpt lat="43.991188496877726" lon="11.366987178249998"><ele>253.0</ele><time>2026-05-02T08:44:59.772Z</time></trkpt><trkpt lat="43.991265223556105" lon="11.366779735304025"><ele>253.0</ele><time>2026-05-02T08:45:00.772Z</time></trkpt><trkpt lat="43.991340456848214" lon="11.366572689541036"><ele>253.0</ele><time>2026-05-02T08:45:01.772Z</time></trkpt><trkpt lat="43.99142206655595" lon="11.366356844063827"><ele>253.0</ele><time>2026-05-02T08:45:02.772Z</time></trkpt><trkpt lat="43.991501679011336" lon="11.366157412594415"><ele>255.33333333333331</ele><time>2026-05-02T08:45:03.772Z</time></trkpt><trkpt lat="43.99158829907888" lon="11.36594895712517"><ele>257.6666666666667</ele><time>2026-05-02T08:45:04.772Z</time></trkpt><trkpt lat="43.991666712638775" lon="11.365736846938724"><ele>260.0</ele><time>2026-05-02T08:45:05.772Z</time></trkpt><trkpt lat="43.99175685818463" lon="11.365533847554483"><ele>263.0</ele><time>2026-05-02T08:45:06.771Z</time></trkpt><trkpt lat="43.99180281472196" lon="11.365304452265198"><ele>266.0</ele><time>2026-05-02T08:45:07.771Z</time></trkpt><trkpt lat="43.99187775135164" lon="11.365093802306713"><ele>269.0</ele><time>2026-05-02T08:45:08.771Z</time></trkpt><trkpt lat="43.99195318356465" lon="11.364874205662272"><ele>272.33333333333337</ele><time>2026-05-02T08:45:09.771Z</time></trkpt><trkpt lat="43.99203045696225" lon="11.364659083330292"><ele>275.6666666666667</ele><time>2026-05-02T08:45:10.771Z</time></trkpt><trkpt lat="43.992107150309266" lon="11.364446031842458"><ele>279.0</ele><time>2026-05-02T08:45:11.771Z</time></trkpt><trkpt lat="43.9921906139332" lon="11.364237835245463"><ele>279.0</ele><time>2026-05-02T08:45:12.771Z</time></trkpt><trkpt lat="43.992276884136494" lon="11.36403482193918"><ele>279.0</ele><time>2026-05-02T08:45:13.771Z</time></trkpt><trkpt lat="43.99237664043197" lon="11.363849127037527"><ele>279.0</ele><time>2026-05-02T08:45:14.771Z</time></trkpt><trkpt lat="43.992492909008966" lon="11.363692914659504"><ele>281.25</ele><time>2026-05-02T08:45:15.771Z</time></trkpt><trkpt lat="43.9926147123851" lon="11.363556820125698"><ele>283.5</ele><time>2026-05-02T08:45:16.771Z</time></trkpt><trkpt lat="43.99273560346752" lon="11.363459197232963"><ele>285.75</ele><time>2026-05-02T08:45:17.771Z</time></trkpt><trkpt lat="43.992872718563206" lon="11.363416540528748"><ele>288.0</ele><time>2026-05-02T08:45:18.771Z</time></trkpt><trkpt lat="43.99302317622749" lon="11.363351128780403"><ele>288.0</ele><time>2026-05-02T08:45:19.771Z</time></trkpt><trkpt lat="43.993164470553225" lon="11.363239168320012"><ele>288.0</ele><time>2026-05-02T08:45:20.771Z</time></trkpt><trkpt lat="43.99351789548009" lon="11.363170830519568"><ele>289.6666666666667</ele><time>2026-05-02T08:45:22.771Z</time></trkpt><trkpt lat="43.99370596023315" lon="11.363163566416137"><ele>291.33333333333337</ele><time>2026-05-02T08:45:23.771Z</time></trkpt><trkpt lat="43.993893763081466" lon="11.36317150143279"><ele>293.0</ele><time>2026-05-02T08:45:24.771Z</time></trkpt><trkpt lat="43.994084832366305" lon="11.363187698865014"><ele>295.0</ele><time>2026-05-02T08:45:25.771Z</time></trkpt><trkpt lat="43.99427891224417" lon="11.36321140016878"><ele>297.0</ele><time>2026-05-02T08:45:26.771Z</time></trkpt><trkpt lat="43.99447883124483" lon="11.363238631693674"><ele>299.0</ele><time>2026-05-02T08:45:27.771Z</time></trkpt><trkpt lat="43.99468271284249" lon="11.363284205442966"><ele>299.0</ele><time>2026-05-02T08:45:28.771Z</time></trkpt><trkpt lat="43.994895345676476" lon="11.363379409564178"><ele>299.0</ele><time>2026-05-02T08:45:29.771Z</time></trkpt><trkpt lat="43.995091739416274" lon="11.363439783754336"><ele>299.0</ele><time>2026-05-02T08:45:30.771Z</time></trkpt><trkpt lat="43.99528898568518" lon="11.363506848947585"><ele>299.33333333333337</ele><time>2026-05-02T08:45:31.771Z</time></trkpt><trkpt lat="43.995486227022475" lon="11.363600433789534"><ele>299.6666666666667</ele><time>2026-05-02T08:45:32.77Z</time></trkpt><trkpt lat="43.995682517336476" lon="11.363700309665717"><ele>300.0</ele><time>2026-05-02T08:45:33.77Z</time></trkpt><trkpt lat="43.99587836321345" lon="11.363792189987068"><ele>303.6666666666667</ele><time>2026-05-02T08:45:34.77Z</time></trkpt><trkpt lat="43.996075999856544" lon="11.363874496735129"><ele>307.33333333333337</ele><time>2026-05-02T08:45:35.77Z</time></trkpt><trkpt lat="43.996277804627134" lon="11.363952549276604"><ele>311.0</ele><time>2026-05-02T08:45:36.77Z</time></trkpt><trkpt lat="43.99647740964673" lon="11.364046521372345"><ele>310.33333333333337</ele><time>2026-05-02T08:45:37.77Z</time></trkpt><trkpt lat="43.99668453353973" lon="11.364144373041842"><ele>309.6666666666667</ele><time>2026-05-02T08:45:38.77Z</time></trkpt><trkpt lat="43.99688122559071" lon="11.364229247726973"><ele>309.0</ele><time>2026-05-02T08:45:39.77Z</time></trkpt><trkpt lat="43.99708549735755" lon="11.364320315487136"><ele>309.0</ele><time>2026-05-02T08:45:40.77Z</time></trkpt><trkpt lat="43.99730338468268" lon="11.36441258408892"><ele>309.0</ele><time>2026-05-02T08:45:41.77Z</time></trkpt><trkpt lat="43.997520872152975" lon="11.364503601026158"><ele>307.5</ele><time>2026-05-02T08:45:42.77Z</time></trkpt><trkpt lat="43.99774160766504" lon="11.364597238087113"><ele>306.0</ele><time>2026-05-02T08:45:43.77Z</time></trkpt><trkpt lat="43.99795914599476" lon="11.364698431982701"><ele>306.0</ele><time>2026-05-02T08:45:44.77Z</time></trkpt><trkpt lat="43.99817305668098" lon="11.364801478403502"><ele>306.0</ele><time>2026-05-02T08:45:45.77Z</time></trkpt><trkpt lat="43.998389839708544" lon="11.364922907402434"><ele>307.0</ele><time>2026-05-02T08:45:46.77Z</time></trkpt><trkpt lat="43.99859891391341" lon="11.3650417985432"><ele>308.0</ele><time>2026-05-02T08:45:47.77Z</time></trkpt><trkpt lat="43.998804270612276" lon="11.365159202156935"><ele>309.0</ele><time>2026-05-02T08:45:48.77Z</time></trkpt><trkpt lat="43.99901458250434" lon="11.365271046059656"><ele>310.0</ele><time>2026-05-02T08:45:49.77Z</time></trkpt><trkpt lat="43.999221133119235" lon="11.36537931829567"><ele>311.0</ele><time>2026-05-02T08:45:50.77Z</time></trkpt><trkpt lat="43.99942908208563" lon="11.36548736961841"><ele>312.0</ele><time>2026-05-02T08:45:51.77Z</time></trkpt><trkpt lat="43.99963752942031" lon="11.365600981589795"><ele>312.6666666666667</ele><time>2026-05-02T08:45:52.77Z</time></trkpt><trkpt lat="43.999842396774795" lon="11.365711102477931"><ele>313.33333333333337</ele><time>2026-05-02T08:45:53.77Z</time></trkpt><trkpt lat="44.000048735202284" lon="11.365821696494335"><ele>314.0</ele><time>2026-05-02T08:45:54.77Z</time></trkpt><trkpt lat="44.00025972493337" lon="11.365929664922263"><ele>314.0</ele><time>2026-05-02T08:45:55.77Z</time></trkpt><trkpt lat="44.00047153145698" lon="11.36603394087881"><ele>314.0</ele><time>2026-05-02T08:45:56.77Z</time></trkpt><trkpt lat="44.00068460572549" lon="11.366149752775765"><ele>313.5</ele><time>2026-05-02T08:45:57.769Z</time></trkpt><trkpt lat="44.000895004718906" lon="11.366269256863248"><ele>313.0</ele><time>2026-05-02T08:45:58.769Z</time></trkpt><trkpt lat="44.001103628150865" lon="11.366385567219325"><ele>314.0</ele><time>2026-05-02T08:45:59.769Z</time></trkpt><trkpt lat="44.001311181731346" lon="11.366497122073122"><ele>315.0</ele><time>2026-05-02T08:46:00.769Z</time></trkpt><trkpt lat="44.00151971911811" lon="11.366605681436496"><ele>316.0</ele><time>2026-05-02T08:46:01.769Z</time></trkpt><trkpt lat="44.00173280529322" lon="11.366717181961654"><ele>317.0</ele><time>2026-05-02T08:46:02.769Z</time></trkpt><trkpt lat="44.001946324767616" lon="11.366829327798975"><ele>318.0</ele><time>2026-05-02T08:46:03.769Z</time></trkpt><trkpt lat="44.00215890942117" lon="11.366946646514917"><ele>318.0</ele><time>2026-05-02T08:46:04.769Z</time></trkpt><trkpt lat="44.00237367941578" lon="11.367059099318382"><ele>318.0</ele><time>2026-05-02T08:46:05.769Z</time></trkpt><trkpt lat="44.00258261841106" lon="11.367171571087601"><ele>318.3333333333333</ele><time>2026-05-02T08:46:06.769Z</time></trkpt><trkpt lat="44.002781037277124" lon="11.367273714074683"><ele>318.66666666666663</ele><time>2026-05-02T08:46:07.769Z</time></trkpt><trkpt lat="44.002964468996716" lon="11.36736581545677"><ele>319.0</ele><time>2026-05-02T08:46:08.77Z</time></trkpt><trkpt lat="44.00313306794426" lon="11.367453355138368"><ele>319.0</ele><time>2026-05-02T08:46:09.771Z</time></trkpt><trkpt lat="44.00329122640067" lon="11.36753812206616"><ele>319.0</ele><time>2026-05-02T08:46:10.771Z</time></trkpt><trkpt lat="44.00344506298065" lon="11.367619758032092"><ele>319.0</ele><time>2026-05-02T08:46:11.771Z</time></trkpt><trkpt lat="44.00358782032392" lon="11.367695450671672"><ele>320.0</ele><time>2026-05-02T08:46:12.77Z</time></trkpt><trkpt lat="44.00372501432784" lon="11.367764704963788"><ele>321.0</ele><time>2026-05-02T08:46:13.77Z</time></trkpt><trkpt lat="44.003853708763515" lon="11.367818772213305"><ele>322.0</ele><time>2026-05-02T08:46:14.771Z</time></trkpt><trkpt lat="44.00397010999682" lon="11.367864896015636"><ele>323.0</ele><time>2026-05-02T08:46:15.77Z</time></trkpt><trkpt lat="44.00408797124893" lon="11.367882686653534"><ele>322.5</ele><time>2026-05-02T08:46:16.77Z</time></trkpt><trkpt lat="44.004226929172" lon="11.367882927683231"><ele>322.0</ele><time>2026-05-02T08:46:17.771Z</time></trkpt><trkpt lat="44.00437961766511" lon="11.367876042738047"><ele>321.5</ele><time>2026-05-02T08:46:18.77Z</time></trkpt><trkpt lat="44.00453339620373" lon="11.367847581120976"><ele>321.0</ele><time>2026-05-02T08:46:19.77Z</time></trkpt><trkpt lat="44.00469534975405" lon="11.367782289347442"><ele>321.0</ele><time>2026-05-02T08:46:20.771Z</time></trkpt><trkpt lat="44.00485266763603" lon="11.367676141389799"><ele>321.0</ele><time>2026-05-02T08:46:21.77Z</time></trkpt><trkpt lat="44.00500344463721" lon="11.367532972473683"><ele>321.0</ele><time>2026-05-02T08:46:22.77Z</time></trkpt><trkpt lat="44.00514281477297" lon="11.367360975332605"><ele>321.3333333333333</ele><time>2026-05-02T08:46:23.77Z</time></trkpt><trkpt lat="44.00526664086544" lon="11.367172158079745"><ele>321.66666666666663</ele><time>2026-05-02T08:46:24.77Z</time></trkpt><trkpt lat="44.005384287912435" lon="11.366969118763867"><ele>322.0</ele><time>2026-05-02T08:46:25.77Z</time></trkpt><trkpt lat="44.005498690907864" lon="11.366775477177718"><ele>322.0</ele><time>2026-05-02T08:46:26.77Z</time></trkpt><trkpt lat="44.00561200073293" lon="11.366595375725261"><ele>322.0</ele><time>2026-05-02T08:46:27.77Z</time></trkpt><trkpt lat="44.00571970528418" lon="11.366429769648038"><ele>322.0</ele><time>2026-05-02T08:46:28.77Z</time></trkpt><trkpt lat="44.00581888538957" lon="11.366280242606718"><ele>322.6</ele><time>2026-05-02T08:46:29.77Z</time></trkpt><trkpt lat="44.00590828065315" lon="11.366156766692368"><ele>323.20000000000005</ele><time>2026-05-02T08:46:30.77Z</time></trkpt><trkpt lat="44.005991968989775" lon="11.366073466974887"><ele>323.8</ele><time>2026-05-02T08:46:31.77Z</time></trkpt><trkpt lat="44.006078290578806" lon="11.366033274159856"><ele>324.4</ele><time>2026-05-02T08:46:32.77Z</time></trkpt><trkpt lat="44.006162606143576" lon="11.366040398003248"><ele>325.0</ele><time>2026-05-02T08:46:33.77Z</time></trkpt><trkpt lat="44.00625064292432" lon="11.366085133997744"><ele>325.0</ele><time>2026-05-02T08:46:34.77Z</time></trkpt><trkpt lat="44.00634096618071" lon="11.366158141495331"><ele>325.0</ele><time>2026-05-02T08:46:35.77Z</time></trkpt><trkpt lat="44.006444717497956" lon="11.3662415828413"><ele>325.0</ele><time>2026-05-02T08:46:36.77Z</time></trkpt><trkpt lat="44.006558476389294" lon="11.366339889045722"><ele>325.0</ele><time>2026-05-02T08:46:37.77Z</time></trkpt><trkpt lat="44.0066682649531" lon="11.366447757091503"><ele>325.25</ele><time>2026-05-02T08:46:38.77Z</time></trkpt><trkpt lat="44.00676933513876" lon="11.366548620866428"><ele>325.5</ele><time>2026-05-02T08:46:39.77Z</time></trkpt><trkpt lat="44.006869762544305" lon="11.366643095187875"><ele>325.75</ele><time>2026-05-02T08:46:40.77Z</time></trkpt><trkpt lat="44.00697529367108" lon="11.366750398259107"><ele>326.0</ele><time>2026-05-02T08:46:41.77Z</time></trkpt><trkpt lat="44.0070821479885" lon="11.366860216852604"><ele>326.0</ele><time>2026-05-02T08:46:42.77Z</time></trkpt><trkpt lat="44.00719732648318" lon="11.366962845850471"><ele>326.0</ele><time>2026-05-02T08:46:43.769Z</time></trkpt><trkpt lat="44.007321462040956" lon="11.367051555390304"><ele>326.0</ele><time>2026-05-02T08:46:44.769Z</time></trkpt><trkpt lat="44.00745664905072" lon="11.367123521293252"><ele>326.0</ele><time>2026-05-02T08:46:45.769Z</time></trkpt><trkpt lat="44.00760004686286" lon="11.367160398320891"><ele>326.0</ele><time>2026-05-02T08:46:46.769Z</time></trkpt><trkpt lat="44.00775070604719" lon="11.367177665573225"><ele>326.0</ele><time>2026-05-02T08:46:47.769Z</time></trkpt><trkpt lat="44.007906292859595" lon="11.367179561301821"><ele>326.0</ele><time>2026-05-02T08:46:48.769Z</time></trkpt><trkpt lat="44.00806242855782" lon="11.367183203592356"><ele>326.0</ele><time>2026-05-02T08:46:49.769Z</time></trkpt><trkpt lat="44.008218739401606" lon="11.367192429857868"><ele>326.0</ele><time>2026-05-02T08:46:50.769Z</time></trkpt><trkpt lat="44.008375008621016" lon="11.367209871102483"><ele>326.0</ele><time>2026-05-02T08:46:51.769Z</time></trkpt><trkpt lat="44.00852962774851" lon="11.367240907660513"><ele>327.33333333333337</ele><time>2026-05-02T08:46:52.769Z</time></trkpt><trkpt lat="44.008680708287194" lon="11.367296547983361"><ele>328.6666666666667</ele><time>2026-05-02T08:46:53.769Z</time></trkpt><trkpt lat="44.008832260740604" lon="11.367362706468597"><ele>330.0</ele><time>2026-05-02T08:46:54.769Z</time></trkpt><trkpt lat="44.00898146266819" lon="11.367434882032963"><ele>330.0</ele><time>2026-05-02T08:46:55.769Z</time></trkpt><trkpt lat="44.00912892928742" lon="11.367508884414631"><ele>330.0</ele><time>2026-05-02T08:46:56.769Z</time></trkpt><trkpt lat="44.00927843688126" lon="11.367581406795697"><ele>330.0</ele><time>2026-05-02T08:46:57.769Z</time></trkpt><trkpt lat="44.00943318089281" lon="11.367656414597333"><ele>331.6666666666667</ele><time>2026-05-02T08:46:58.769Z</time></trkpt><trkpt lat="44.00959089274372" lon="11.367731854403463"><ele>333.33333333333337</ele><time>2026-05-02T08:46:59.769Z</time></trkpt><trkpt lat="44.00974922550928" lon="11.367809966985368"><ele>335.0</ele><time>2026-05-02T08:47:00.769Z</time></trkpt><trkpt lat="44.00990817295659" lon="11.367888739286546"><ele>336.33333333333337</ele><time>2026-05-02T08:47:01.769Z</time></trkpt><trkpt lat="44.01007229297159" lon="11.367973643072956"><ele>337.6666666666667</ele><time>2026-05-02T08:47:02.769Z</time></trkpt><trkpt lat="44.01023792856355" lon="11.368057538702388"><ele>339.0</ele><time>2026-05-02T08:47:03.769Z</time></trkpt><trkpt lat="44.0104030547099" lon="11.3681444457939"><ele>339.0</ele><time>2026-05-02T08:47:04.769Z</time></trkpt><trkpt lat="44.01056797612674" lon="11.368236321722609"><ele>339.0</ele><time>2026-05-02T08:47:05.769Z</time></trkpt><trkpt lat="44.01073472300435" lon="11.368326219774659"><ele>339.0</ele><time>2026-05-02T08:47:06.769Z</time></trkpt><trkpt lat="44.01089994287752" lon="11.368412128797539"><ele>341.6666666666667</ele><time>2026-05-02T08:47:07.769Z</time></trkpt><trkpt lat="44.01106461512837" lon="11.368485698359935"><ele>344.33333333333337</ele><time>2026-05-02T08:47:08.769Z</time></trkpt><trkpt lat="44.01123974314002" lon="11.368524250971772"><ele>347.0</ele><time>2026-05-02T08:47:09.768Z</time></trkpt><trkpt lat="44.01142043172331" lon="11.368506233955879"><ele>347.0</ele><time>2026-05-02T08:47:10.768Z</time></trkpt><trkpt lat="44.011598246039966" lon="11.368471017990366"><ele>347.0</ele><time>2026-05-02T08:47:11.768Z</time></trkpt><trkpt lat="44.011780442626836" lon="11.368435558048068"><ele>347.0</ele><time>2026-05-02T08:47:12.768Z</time></trkpt><trkpt lat="44.011958716700164" lon="11.368405533119075"><ele>349.0</ele><time>2026-05-02T08:47:13.768Z</time></trkpt><trkpt lat="44.01212315364315" lon="11.368372596757405"><ele>351.0</ele><time>2026-05-02T08:47:14.768Z</time></trkpt><trkpt lat="44.01226949722914" lon="11.368363528984927"><ele>353.0</ele><time>2026-05-02T08:47:15.768Z</time></trkpt><trkpt lat="44.01240757551972" lon="11.368409857363389"><ele>352.6666666666667</ele><time>2026-05-02T08:47:16.768Z</time></trkpt><trkpt lat="44.012531263750795" lon="11.368511302943322"><ele>352.3333333333333</ele><time>2026-05-02T08:47:17.768Z</time></trkpt><trkpt lat="44.012665349433995" lon="11.368678217226968"><ele>352.0</ele><time>2026-05-02T08:47:18.768Z</time></trkpt><trkpt lat="44.012792697784235" lon="11.368849101068866"><ele>352.66666666666663</ele><time>2026-05-02T08:47:19.768Z</time></trkpt><trkpt lat="44.01293292589284" lon="11.369006191357526"><ele>353.3333333333333</ele><time>2026-05-02T08:47:20.768Z</time></trkpt><trkpt lat="44.013072436965615" lon="11.369179914666093"><ele>354.0</ele><time>2026-05-02T08:47:21.768Z</time></trkpt><trkpt lat="44.013199540189966" lon="11.369369564296461"><ele>354.0</ele><time>2026-05-02T08:47:22.768Z</time></trkpt><trkpt lat="44.01330047087717" lon="11.36959354196179"><ele>354.0</ele><time>2026-05-02T08:47:23.768Z</time></trkpt><trkpt lat="44.01338146412455" lon="11.369840067677996"><ele>354.0</ele><time>2026-05-02T08:47:24.768Z</time></trkpt><trkpt lat="44.0134718077084" lon="11.370095187982587"><ele>358.0</ele><time>2026-05-02T08:47:25.768Z</time></trkpt><trkpt lat="44.01355859416607" lon="11.370336043741865"><ele>362.0</ele><time>2026-05-02T08:47:26.768Z</time></trkpt><trkpt lat="44.01366850853058" lon="11.370541718868438"><ele>366.0</ele><time>2026-05-02T08:47:27.768Z</time></trkpt><trkpt lat="44.01380353996521" lon="11.37071272148685"><ele>366.3333333333333</ele><time>2026-05-02T08:47:28.768Z</time></trkpt><trkpt lat="44.01396746279493" lon="11.370827112653625"><ele>366.66666666666663</ele><time>2026-05-02T08:47:29.768Z</time></trkpt><trkpt lat="44.01416084142462" lon="11.370896144894889"><ele>367.0</ele><time>2026-05-02T08:47:30.768Z</time></trkpt><trkpt lat="44.01432607755516" lon="11.370985700951303"><ele>368.3333333333333</ele><time>2026-05-02T08:47:31.768Z</time></trkpt><trkpt lat="44.014494354453156" lon="11.371108780099261"><ele>369.6666666666667</ele><time>2026-05-02T08:47:32.768Z</time></trkpt><trkpt lat="44.01466627050541" lon="11.371210572958228"><ele>371.0</ele><time>2026-05-02T08:47:33.768Z</time></trkpt><trkpt lat="44.014841365861805" lon="11.371284507909182"><ele>374.6666666666667</ele><time>2026-05-02T08:47:34.767Z</time></trkpt><trkpt lat="44.01501354982243" lon="11.371336149871565"><ele>378.3333333333333</ele><time>2026-05-02T08:47:35.767Z</time></trkpt><trkpt lat="44.01518302763107" lon="11.371349220069812"><ele>382.0</ele><time>2026-05-02T08:47:36.767Z</time></trkpt><trkpt lat="44.01533474388455" lon="11.371320835738029"><ele>382.0</ele><time>2026-05-02T08:47:37.767Z</time></trkpt><trkpt lat="44.01548524434105" lon="11.3712547661195"><ele>382.0</ele><time>2026-05-02T08:47:38.767Z</time></trkpt><trkpt lat="44.01561607341493" lon="11.371122761532453"><ele>382.0</ele><time>2026-05-02T08:47:39.767Z</time></trkpt><trkpt lat="44.01575618938385" lon="11.371067796081412"><ele>383.20000000000005</ele><time>2026-05-02T08:47:40.767Z</time></trkpt><trkpt lat="44.01588396829" lon="11.371098499028296"><ele>384.4</ele><time>2026-05-02T08:47:41.767Z</time></trkpt><trkpt lat="44.01597224087937" lon="11.371161533223956"><ele>385.6</ele><time>2026-05-02T08:47:42.767Z</time></trkpt><trkpt lat="44.016054439954544" lon="11.37123306067592"><ele>386.79999999999995</ele><time>2026-05-02T08:47:43.767Z</time></trkpt><trkpt lat="44.0161359798852" lon="11.371269551554938"><ele>388.0</ele><time>2026-05-02T08:47:44.767Z</time></trkpt><trkpt lat="44.01623013528136" lon="11.371276675194748"><ele>388.0</ele><time>2026-05-02T08:47:45.767Z</time></trkpt><trkpt lat="44.01630345788275" lon="11.371214623006152"><ele>388.0</ele><time>2026-05-02T08:47:46.767Z</time></trkpt><trkpt lat="44.01637359372815" lon="11.371132567380165"><ele>388.0</ele><time>2026-05-02T08:47:47.767Z</time></trkpt><trkpt lat="44.01642907041359" lon="11.37102486622597"><ele>388.0</ele><time>2026-05-02T08:47:48.767Z</time></trkpt><trkpt lat="44.016484514820206" lon="11.370891902903102"><ele>388.0</ele><time>2026-05-02T08:47:49.767Z</time></trkpt><trkpt lat="44.01654226809752" lon="11.370787503019026"><ele>388.0</ele><time>2026-05-02T08:47:50.767Z</time></trkpt><trkpt lat="44.01662151699232" lon="11.370682936335122"><ele>388.0</ele><time>2026-05-02T08:47:51.767Z</time></trkpt><trkpt lat="44.016710804485825" lon="11.370595946409416"><ele>388.0</ele><time>2026-05-02T08:47:52.767Z</time></trkpt><trkpt lat="44.01680461946565" lon="11.370519305757535"><ele>388.0</ele><time>2026-05-02T08:47:53.767Z</time></trkpt><trkpt lat="44.0168946065523" lon="11.370452220733812"><ele>388.0</ele><time>2026-05-02T08:47:54.767Z</time></trkpt><trkpt lat="44.016987614226096" lon="11.370397464317787"><ele>387.4</ele><time>2026-05-02T08:47:55.767Z</time></trkpt><trkpt lat="44.01709153862117" lon="11.370351763391145"><ele>386.79999999999995</ele><time>2026-05-02T08:47:56.767Z</time></trkpt><trkpt lat="44.0171957761211" lon="11.370309548274388"><ele>386.2</ele><time>2026-05-02T08:47:57.767Z</time></trkpt><trkpt lat="44.017306309884944" lon="11.370295246198866"><ele>385.6</ele><time>2026-05-02T08:47:58.767Z</time></trkpt><trkpt lat="44.01741254514056" lon="11.370337448549975"><ele>385.0</ele><time>2026-05-02T08:47:59.767Z</time></trkpt><trkpt lat="44.01751515289667" lon="11.370407921131763"><ele>384.75</ele><time>2026-05-02T08:48:00.766Z</time></trkpt><trkpt lat="44.017611722927754" lon="11.370498150518475"><ele>384.5</ele><time>2026-05-02T08:48:01.766Z</time></trkpt><trkpt lat="44.01770817010551" lon="11.37059427529045"><ele>384.25</ele><time>2026-05-02T08:48:02.766Z</time></trkpt><trkpt lat="44.01779649409071" lon="11.370679095492372"><ele>384.0</ele><time>2026-05-02T08:48:03.766Z</time></trkpt><trkpt lat="44.01788545412739" lon="11.370764019955326"><ele>383.79999999999995</ele><time>2026-05-02T08:48:04.766Z</time></trkpt><trkpt lat="44.017974936204205" lon="11.370847125460012"><ele>383.59999999999997</ele><time>2026-05-02T08:48:05.766Z</time></trkpt><trkpt lat="44.01806248013573" lon="11.370919875302837"><ele>383.4</ele><time>2026-05-02T08:48:06.766Z</time></trkpt><trkpt lat="44.01815266596451" lon="11.370982539317337"><ele>383.2</ele><time>2026-05-02T08:48:07.766Z</time></trkpt><trkpt lat="44.01824849732668" lon="11.37101566200189"><ele>383.0</ele><time>2026-05-02T08:48:08.766Z</time></trkpt><trkpt lat="44.01835352506513" lon="11.371024111684001"><ele>386.25</ele><time>2026-05-02T08:48:09.766Z</time></trkpt><trkpt lat="44.018457879019785" lon="11.370991158239047"><ele>389.5</ele><time>2026-05-02T08:48:10.766Z</time></trkpt><trkpt lat="44.01855359063649" lon="11.370914602796049"><ele>392.75</ele><time>2026-05-02T08:48:11.766Z</time></trkpt><trkpt lat="44.01866570110828" lon="11.370800908875326"><ele>396.0</ele><time>2026-05-02T08:48:12.766Z</time></trkpt><trkpt lat="44.018805989396114" lon="11.370698089820904"><ele>396.0</ele><time>2026-05-02T08:48:13.766Z</time></trkpt><trkpt lat="44.018947947405884" lon="11.370617788149968"><ele>396.0</ele><time>2026-05-02T08:48:14.767Z</time></trkpt><trkpt lat="44.01905773970718" lon="11.370535867935573"><ele>396.0</ele><time>2026-05-02T08:48:15.767Z</time></trkpt><trkpt lat="44.01915174295935" lon="11.370445842461768"><ele>396.0</ele><time>2026-05-02T08:48:16.767Z</time></trkpt><trkpt lat="44.01924743583664" lon="11.37034795433862"><ele>394.75</ele><time>2026-05-02T08:48:17.767Z</time></trkpt><trkpt lat="44.019354406154086" lon="11.37025944425649"><ele>393.5</ele><time>2026-05-02T08:48:18.767Z</time></trkpt><trkpt lat="44.019469440459496" lon="11.370189788942046"><ele>392.25</ele><time>2026-05-02T08:48:19.767Z</time></trkpt><trkpt lat="44.019594348586295" lon="11.370135259068947"><ele>391.0</ele><time>2026-05-02T08:48:20.768Z</time></trkpt><trkpt lat="44.01972533654407" lon="11.370085235636544"><ele>391.0</ele><time>2026-05-02T08:48:21.767Z</time></trkpt><trkpt lat="44.01987372235722" lon="11.370055368556585"><ele>391.0</ele><time>2026-05-02T08:48:22.767Z</time></trkpt><trkpt lat="44.020001878005324" lon="11.370050295841121"><ele>391.0</ele><time>2026-05-02T08:48:23.767Z</time></trkpt><trkpt lat="44.02010963863397" lon="11.370047225159322"><ele>391.0</ele><time>2026-05-02T08:48:24.766Z</time></trkpt><trkpt lat="44.02019797277109" lon="11.370033009717002"><ele>392.6666666666667</ele><time>2026-05-02T08:48:25.766Z</time></trkpt><trkpt lat="44.02026552441067" lon="11.370024919368838"><ele>394.33333333333337</ele><time>2026-05-02T08:48:26.767Z</time></trkpt><trkpt lat="44.02035298266669" lon="11.370027213424985"><ele>396.0</ele><time>2026-05-02T08:48:28.767Z</time></trkpt><trkpt lat="44.02044157726132" lon="11.369970737422648"><ele>397.66666666666663</ele><time>2026-05-02T08:49:16.765Z</time></trkpt><trkpt lat="44.02051334466426" lon="11.369967424896924"><ele>399.3333333333333</ele><time>2026-05-02T08:49:17.765Z</time></trkpt><trkpt lat="44.020596222946914" lon="11.37000455596854"><ele>401.0</ele><time>2026-05-02T08:49:18.765Z</time></trkpt><trkpt lat="44.020677994709125" lon="11.370078646056077"><ele>401.0</ele><time>2026-05-02T08:49:19.765Z</time></trkpt><trkpt lat="44.02076223810859" lon="11.370186428861654"><ele>401.0</ele><time>2026-05-02T08:49:20.765Z</time></trkpt><trkpt lat="44.02083888906094" lon="11.37028251137461"><ele>401.0</ele><time>2026-05-02T08:49:21.765Z</time></trkpt><trkpt lat="44.020927523178415" lon="11.37036580225807"><ele>401.0</ele><time>2026-05-02T08:49:22.765Z</time></trkpt><trkpt lat="44.02102751587152" lon="11.370446353351905"><ele>401.0</ele><time>2026-05-02T08:49:23.765Z</time></trkpt><trkpt lat="44.02113805900868" lon="11.370519305843596"><ele>402.75</ele><time>2026-05-02T08:49:24.765Z</time></trkpt><trkpt lat="44.021254115814344" lon="11.37057904532232"><ele>404.5</ele><time>2026-05-02T08:49:25.765Z</time></trkpt><trkpt lat="44.02137389243174" lon="11.370623500428044"><ele>406.25</ele><time>2026-05-02T08:49:26.765Z</time></trkpt><trkpt lat="44.021500606702396" lon="11.370636638886332"><ele>408.0</ele><time>2026-05-02T08:49:27.765Z</time></trkpt><trkpt lat="44.02163031038237" lon="11.370603390036317"><ele>410.0</ele><time>2026-05-02T08:49:28.765Z</time></trkpt><trkpt lat="44.0217578722521" lon="11.370546896736077"><ele>412.0</ele><time>2026-05-02T08:49:29.765Z</time></trkpt><trkpt lat="44.021892680265864" lon="11.370480101743857"><ele>414.0</ele><time>2026-05-02T08:49:30.765Z</time></trkpt><trkpt lat="44.02203350629176" lon="11.370432592210559"><ele>416.0</ele><time>2026-05-02T08:49:31.764Z</time></trkpt><trkpt lat="44.022179507700166" lon="11.370425421952012"><ele>416.0</ele><time>2026-05-02T08:49:32.764Z</time></trkpt><trkpt lat="44.0223188611684" lon="11.370474568475876"><ele>416.0</ele><time>2026-05-02T08:49:33.764Z</time></trkpt><trkpt lat="44.022444645480384" lon="11.370540123774818"><ele>416.0</ele><time>2026-05-02T08:49:34.764Z</time></trkpt><trkpt lat="44.02255891656093" lon="11.370574307919492"><ele>416.0</ele><time>2026-05-02T08:49:35.764Z</time></trkpt><trkpt lat="44.02266814239342" lon="11.370558959207596"><ele>419.0</ele><time>2026-05-02T08:49:36.764Z</time></trkpt><trkpt lat="44.022785772876794" lon="11.370526432721892"><ele>422.0</ele><time>2026-05-02T08:49:37.764Z</time></trkpt><trkpt lat="44.02292760437112" lon="11.370506790364674"><ele>425.0</ele><time>2026-05-02T08:49:38.764Z</time></trkpt><trkpt lat="44.02307615973864" lon="11.370496234077867"><ele>428.0</ele><time>2026-05-02T08:49:39.764Z</time></trkpt><trkpt lat="44.02322192761558" lon="11.370460560457024"><ele>432.25</ele><time>2026-05-02T08:49:40.764Z</time></trkpt><trkpt lat="44.023368250245824" lon="11.370418999528574"><ele>436.5</ele><time>2026-05-02T08:49:41.764Z</time></trkpt><trkpt lat="44.0235119508401" lon="11.370375757803966"><ele>440.75</ele><time>2026-05-02T08:49:42.764Z</time></trkpt><trkpt lat="44.0236582286394" lon="11.370317916440282"><ele>445.0</ele><time>2026-05-02T08:49:43.764Z</time></trkpt><trkpt lat="44.0237917465715" lon="11.370221626673954"><ele>445.0</ele><time>2026-05-02T08:49:44.764Z</time></trkpt><trkpt lat="44.02390787373818" lon="11.37008499658763"><ele>445.0</ele><time>2026-05-02T08:49:45.764Z</time></trkpt><trkpt lat="44.02400055084725" lon="11.369933426811883"><ele>445.0</ele><time>2026-05-02T08:49:46.764Z</time></trkpt><trkpt lat="44.024101031439464" lon="11.3697945309146"><ele>445.0</ele><time>2026-05-02T08:49:47.764Z</time></trkpt><trkpt lat="44.024230779007624" lon="11.369688074535663"><ele>445.33333333333337</ele><time>2026-05-02T08:49:48.764Z</time></trkpt><trkpt lat="44.02437976205284" lon="11.369649060348113"><ele>445.66666666666663</ele><time>2026-05-02T08:49:49.764Z</time></trkpt><trkpt lat="44.02454717156812" lon="11.369662462024658"><ele>446.0</ele><time>2026-05-02T08:49:50.764Z</time></trkpt><trkpt lat="44.02471332725017" lon="11.369718325552725"><ele>446.0</ele><time>2026-05-02T08:49:51.764Z</time></trkpt><trkpt lat="44.02487800219772" lon="11.369757650483711"><ele>446.0</ele><time>2026-05-02T08:49:52.764Z</time></trkpt><trkpt lat="44.02504974396736" lon="11.369789360486129"><ele>446.0</ele><time>2026-05-02T08:49:53.764Z</time></trkpt><trkpt lat="44.02522187582343" lon="11.369844410754064"><ele>450.0</ele><time>2026-05-02T08:49:54.764Z</time></trkpt><trkpt lat="44.0253847275234" lon="11.36991797985856"><ele>454.0</ele><time>2026-05-02T08:49:55.764Z</time></trkpt><trkpt lat="44.02553230426256" lon="11.370021277092063"><ele>458.0</ele><time>2026-05-02T08:49:56.763Z</time></trkpt><trkpt lat="44.02567041983863" lon="11.370135240110276"><ele>458.0</ele><time>2026-05-02T08:49:57.763Z</time></trkpt><trkpt lat="44.02580971524925" lon="11.37025508314103"><ele>458.0</ele><time>2026-05-02T08:49:58.763Z</time></trkpt><trkpt lat="44.025955545513305" lon="11.370378290501854"><ele>458.0</ele><time>2026-05-02T08:49:59.763Z</time></trkpt><trkpt lat="44.026108456662485" lon="11.370501632522922"><ele>463.0</ele><time>2026-05-02T08:50:00.763Z</time></trkpt><trkpt lat="44.02626747580377" lon="11.370617770835182"><ele>468.0</ele><time>2026-05-02T08:50:01.763Z</time></trkpt><trkpt lat="44.026428480952454" lon="11.370730217506104"><ele>473.0</ele><time>2026-05-02T08:50:02.763Z</time></trkpt><trkpt lat="44.02659671080552" lon="11.370786146894218"><ele>474.66666666666663</ele><time>2026-05-02T08:50:03.763Z</time></trkpt><trkpt lat="44.02678019753485" lon="11.370773378726392"><ele>476.33333333333337</ele><time>2026-05-02T08:50:04.763Z</time></trkpt><trkpt lat="44.02696125980864" lon="11.37075583394903"><ele>478.0</ele><time>2026-05-02T08:50:05.763Z</time></trkpt><trkpt lat="44.02714739325665" lon="11.370740299852573"><ele>478.0</ele><time>2026-05-02T08:50:06.763Z</time></trkpt><trkpt lat="44.02733560606582" lon="11.370728600646707"><ele>478.0</ele><time>2026-05-02T08:50:07.763Z</time></trkpt><trkpt lat="44.027522465097164" lon="11.370729252146692"><ele>478.0</ele><time>2026-05-02T08:50:08.763Z</time></trkpt><trkpt lat="44.02770639373398" lon="11.37070826503243"><ele>481.0</ele><time>2026-05-02T08:50:09.763Z</time></trkpt><trkpt lat="44.027877964098835" lon="11.370656605896091"><ele>484.0</ele><time>2026-05-02T08:50:10.763Z</time></trkpt><trkpt lat="44.02803253043912" lon="11.370592067570067"><ele>487.0</ele><time>2026-05-02T08:50:11.763Z</time></trkpt><trkpt lat="44.028182766448715" lon="11.370566269778742"><ele>491.33333333333337</ele><time>2026-05-02T08:50:12.763Z</time></trkpt><trkpt lat="44.02834530897796" lon="11.370573240778313"><ele>495.66666666666663</ele><time>2026-05-02T08:50:13.763Z</time></trkpt><trkpt lat="44.02851044091022" lon="11.370555390119305"><ele>500.0</ele><time>2026-05-02T08:50:14.763Z</time></trkpt><trkpt lat="44.028668042279406" lon="11.37055419718864"><ele>500.0</ele><time>2026-05-02T08:50:15.763Z</time></trkpt><trkpt lat="44.02880821332336" lon="11.370577775236239"><ele>500.0</ele><time>2026-05-02T08:50:16.763Z</time></trkpt><trkpt lat="44.02891198701869" lon="11.370625588682005"><ele>500.0</ele><time>2026-05-02T08:50:17.763Z</time></trkpt><trkpt lat="44.02897048611044" lon="11.37072955870297"><ele>500.0</ele><time>2026-05-02T08:50:18.763Z</time></trkpt><trkpt lat="44.02887038121761" lon="11.37082506626051"><ele>500.0</ele><time>2026-05-02T08:50:20.764Z</time></trkpt><trkpt lat="44.02877145740644" lon="11.370816880280264"><ele>500.0</ele><time>2026-05-02T08:50:21.764Z</time></trkpt><trkpt lat="44.02865088019746" lon="11.370782893730725"><ele>500.0</ele><time>2026-05-02T08:50:22.764Z</time></trkpt><trkpt lat="44.028506051516196" lon="11.37079197020679"><ele>500.0</ele><time>2026-05-02T08:50:23.764Z</time></trkpt><trkpt lat="44.028371419854835" lon="11.370822497064186"><ele>495.66666666666663</ele><time>2026-05-02T08:50:24.764Z</time></trkpt><trkpt lat="44.02823213704512" lon="11.37088627380987"><ele>491.33333333333337</ele><time>2026-05-02T08:50:25.763Z</time></trkpt><trkpt lat="44.02808621928697" lon="11.370973417343569"><ele>487.0</ele><time>2026-05-02T08:50:26.764Z</time></trkpt><trkpt lat="44.027942709057854" lon="11.371088895504375"><ele>487.0</ele><time>2026-05-02T08:50:27.764Z</time></trkpt><trkpt lat="44.02779315853033" lon="11.371208302814042"><ele>487.0</ele><time>2026-05-02T08:50:28.764Z</time></trkpt><trkpt lat="44.027647487118834" lon="11.37132717057379"><ele>487.0</ele><time>2026-05-02T08:50:29.764Z</time></trkpt><trkpt lat="44.027507599906" lon="11.371437862996965"><ele>489.5</ele><time>2026-05-02T08:50:30.764Z</time></trkpt><trkpt lat="44.027388812906764" lon="11.371555669576491"><ele>492.0</ele><time>2026-05-02T08:50:31.763Z</time></trkpt><trkpt lat="44.027322016636504" lon="11.371698030831803"><ele>494.5</ele><time>2026-05-02T08:50:32.763Z</time></trkpt><trkpt lat="44.027332044800474" lon="11.371868930795948"><ele>497.0</ele><time>2026-05-02T08:50:33.764Z</time></trkpt><trkpt lat="44.027348338625686" lon="11.372037275547102"><ele>497.0</ele><time>2026-05-02T08:50:34.764Z</time></trkpt><trkpt lat="44.02730708402811" lon="11.372176056497945"><ele>497.0</ele><time>2026-05-02T08:50:35.764Z</time></trkpt><trkpt lat="44.02720258553249" lon="11.372247982023763"><ele>497.0</ele><time>2026-05-02T08:50:36.764Z</time></trkpt><trkpt lat="44.02706935934635" lon="11.372304815768702"><ele>497.0</ele><time>2026-05-02T08:50:37.764Z</time></trkpt><trkpt lat="44.02694926391409" lon="11.372442262600638"><ele>498.5</ele><time>2026-05-02T08:50:38.764Z</time></trkpt><trkpt lat="44.02687558260448" lon="11.372627225576787"><ele>500.0</ele><time>2026-05-02T08:50:39.764Z</time></trkpt><trkpt lat="44.02679477488421" lon="11.372793653792272"><ele>501.5</ele><time>2026-05-02T08:50:40.764Z</time></trkpt><trkpt lat="44.02667334610814" lon="11.372869482934362"><ele>503.0</ele><time>2026-05-02T08:50:41.764Z</time></trkpt><trkpt lat="44.026525639949064" lon="11.37288147967024"><ele>503.0</ele><time>2026-05-02T08:50:42.764Z</time></trkpt><trkpt lat="44.026367713050924" lon="11.3729218428183"><ele>503.0</ele><time>2026-05-02T08:50:43.764Z</time></trkpt><trkpt lat="44.0262307766619" lon="11.373026842449796"><ele>503.0</ele><time>2026-05-02T08:50:44.763Z</time></trkpt><trkpt lat="44.026119112815074" lon="11.37320286453835"><ele>509.3333333333333</ele><time>2026-05-02T08:50:45.763Z</time></trkpt><trkpt lat="44.026030570248494" lon="11.373428755793684"><ele>515.6666666666666</ele><time>2026-05-02T08:50:46.763Z</time></trkpt><trkpt lat="44.02594664384141" lon="11.373629466870382"><ele>522.0</ele><time>2026-05-02T08:50:47.763Z</time></trkpt><trkpt lat="44.02590788944494" lon="11.373814546533916"><ele>524.0</ele><time>2026-05-02T08:50:48.763Z</time></trkpt><trkpt lat="44.025935445294145" lon="11.374012526414308"><ele>526.0</ele><time>2026-05-02T08:50:49.763Z</time></trkpt><trkpt lat="44.02601231056658" lon="11.374216303257716"><ele>528.0</ele><time>2026-05-02T08:50:50.763Z</time></trkpt><trkpt lat="44.02611639773762" lon="11.374411467588407"><ele>528.0</ele><time>2026-05-02T08:50:51.763Z</time></trkpt><trkpt lat="44.02624279612422" lon="11.374583110732479"><ele>528.0</ele><time>2026-05-02T08:50:52.763Z</time></trkpt><trkpt lat="44.026401550170185" lon="11.374725111557318"><ele>528.0</ele><time>2026-05-02T08:50:53.763Z</time></trkpt><trkpt lat="44.026562304258654" lon="11.374873299002454"><ele>533.3333333333334</ele><time>2026-05-02T08:50:54.763Z</time></trkpt><trkpt lat="44.0267305239984" lon="11.375020962657555"><ele>538.6666666666667</ele><time>2026-05-02T08:50:55.763Z</time></trkpt><trkpt lat="44.02690049720438" lon="11.375170721166965"><ele>544.0</ele><time>2026-05-02T08:50:56.763Z</time></trkpt><trkpt lat="44.02707709006578" lon="11.375300334731426"><ele>544.0</ele><time>2026-05-02T08:50:57.763Z</time></trkpt><trkpt lat="44.02724789167632" lon="11.375421919021528"><ele>544.0</ele><time>2026-05-02T08:50:58.763Z</time></trkpt><trkpt lat="44.027426802298734" lon="11.375538783311526"><ele>544.0</ele><time>2026-05-02T08:50:59.763Z</time></trkpt><trkpt lat="44.0275755177132" lon="11.375668161897064"><ele>548.3333333333334</ele><time>2026-05-02T08:51:00.763Z</time></trkpt><trkpt lat="44.027667853781146" lon="11.375827231596661"><ele>552.6666666666666</ele><time>2026-05-02T08:51:01.763Z</time></trkpt><trkpt lat="44.027711502398795" lon="11.37602911416012"><ele>557.0</ele><time>2026-05-02T08:51:02.763Z</time></trkpt><trkpt lat="44.02779582823099" lon="11.376229842845248"><ele>551.0</ele><time>2026-05-02T08:51:03.763Z</time></trkpt><trkpt lat="44.02792359532146" lon="11.376407964136304"><ele>545.0</ele><time>2026-05-02T08:51:04.763Z</time></trkpt><trkpt lat="44.02807544424973" lon="11.376563493891881"><ele>539.0</ele><time>2026-05-02T08:51:05.763Z</time></trkpt><trkpt lat="44.02823180946548" lon="11.3767097604092"><ele>547.3333333333333</ele><time>2026-05-02T08:51:06.763Z</time></trkpt><trkpt lat="44.02841009721843" lon="11.376825329866836"><ele>555.6666666666666</ele><time>2026-05-02T08:51:07.763Z</time></trkpt><trkpt lat="44.02859621182104" lon="11.376921224792092"><ele>564.0</ele><time>2026-05-02T08:51:08.763Z</time></trkpt><trkpt lat="44.02877374604001" lon="11.376991174151279"><ele>564.0</ele><time>2026-05-02T08:51:09.762Z</time></trkpt><trkpt lat="44.028950908286554" lon="11.377025987939197"><ele>564.0</ele><time>2026-05-02T08:51:10.762Z</time></trkpt><trkpt lat="44.029088191608864" lon="11.377099098157503"><ele>564.0</ele><time>2026-05-02T08:51:11.762Z</time></trkpt><trkpt lat="44.02917492278994" lon="11.377246786609822"><ele>563.75</ele><time>2026-05-02T08:51:12.762Z</time></trkpt><trkpt lat="44.029191883967684" lon="11.377458480646625"><ele>563.5</ele><time>2026-05-02T08:51:13.762Z</time></trkpt><trkpt lat="44.02914519165095" lon="11.377679633050983"><ele>563.25</ele><time>2026-05-02T08:51:14.762Z</time></trkpt><trkpt lat="44.02914688475992" lon="11.377850347061848"><ele>563.0</ele><time>2026-05-02T08:51:15.762Z</time></trkpt><trkpt lat="44.02919904204509" lon="11.378044046390693"><ele>563.0</ele><time>2026-05-02T08:51:16.762Z</time></trkpt><trkpt lat="44.02931612077498" lon="11.378204952412043"><ele>563.0</ele><time>2026-05-02T08:51:17.762Z</time></trkpt><trkpt lat="44.029463976815265" lon="11.378319998054524"><ele>563.0</ele><time>2026-05-02T08:51:18.762Z</time></trkpt><trkpt lat="44.029644612857275" lon="11.37839501844557"><ele>563.0</ele><time>2026-05-02T08:51:19.762Z</time></trkpt><trkpt lat="44.02982064577728" lon="11.378436449458645"><ele>563.0</ele><time>2026-05-02T08:51:20.762Z</time></trkpt><trkpt lat="44.02998213886755" lon="11.37840892163197"><ele>563.0</ele><time>2026-05-02T08:51:21.762Z</time></trkpt><trkpt lat="44.030111493505416" lon="11.378294875789775"><ele>565.5</ele><time>2026-05-02T08:51:22.762Z</time></trkpt><trkpt lat="44.030189967717604" lon="11.37810780234517"><ele>568.0</ele><time>2026-05-02T08:51:23.762Z</time></trkpt><trkpt lat="44.03024420459588" lon="11.377899418255602"><ele>570.5</ele><time>2026-05-02T08:51:24.762Z</time></trkpt><trkpt lat="44.03033041445899" lon="11.37776388494534"><ele>573.0</ele><time>2026-05-02T08:51:25.762Z</time></trkpt><trkpt lat="44.030423016953876" lon="11.37770268563381"><ele>575.5</ele><time>2026-05-02T08:51:26.762Z</time></trkpt><trkpt lat="44.03048710146143" lon="11.377564476681334"><ele>578.0</ele><time>2026-05-02T08:51:27.762Z</time></trkpt><trkpt lat="44.030504628794006" lon="11.377343458341292"><ele>580.5</ele><time>2026-05-02T08:51:28.762Z</time></trkpt><trkpt lat="44.03048341374533" lon="11.377138440157458"><ele>583.0</ele><time>2026-05-02T08:51:29.762Z</time></trkpt><trkpt lat="44.03051779597446" lon="11.376992671346029"><ele>586.6666666666667</ele><time>2026-05-02T08:51:30.762Z</time></trkpt><trkpt lat="44.03064233190744" lon="11.376894688053966"><ele>590.3333333333334</ele><time>2026-05-02T08:51:31.762Z</time></trkpt><trkpt lat="44.03080030080909" lon="11.37684708183706"><ele>594.0</ele><time>2026-05-02T08:51:32.762Z</time></trkpt><trkpt lat="44.03094937288723" lon="11.37690880208136"><ele>594.0</ele><time>2026-05-02T08:51:33.762Z</time></trkpt><trkpt lat="44.031118411551816" lon="11.3769267075657"><ele>594.0</ele><time>2026-05-02T08:51:34.762Z</time></trkpt><trkpt lat="44.03135972419176" lon="11.376932553275207"><ele>594.0</ele><time>2026-05-02T08:51:35.761Z</time></trkpt><trkpt lat="44.03158731115478" lon="11.376959089254292"><ele>593.6666666666666</ele><time>2026-05-02T08:51:36.761Z</time></trkpt><trkpt lat="44.031810619392665" lon="11.376975245867198"><ele>593.3333333333333</ele><time>2026-05-02T08:51:37.761Z</time></trkpt><trkpt lat="44.032013578755986" lon="11.376969503848391"><ele>593.0</ele><time>2026-05-02T08:51:38.761Z</time></trkpt><trkpt lat="44.0322135587023" lon="11.37693000137438"><ele>593.0</ele><time>2026-05-02T08:51:39.761Z</time></trkpt><trkpt lat="44.03240227929886" lon="11.376890866112712"><ele>593.0</ele><time>2026-05-02T08:51:40.761Z</time></trkpt><trkpt lat="44.03257291607457" lon="11.37683432256419"><ele>593.0</ele><time>2026-05-02T08:51:41.761Z</time></trkpt><trkpt lat="44.03271593682837" lon="11.376717454941128"><ele>594.6666666666666</ele><time>2026-05-02T08:51:42.761Z</time></trkpt><trkpt lat="44.03281269953604" lon="11.376545172948997"><ele>596.3333333333334</ele><time>2026-05-02T08:51:43.761Z</time></trkpt><trkpt lat="44.03287199071028" lon="11.376346361782087"><ele>598.0</ele><time>2026-05-02T08:51:44.761Z</time></trkpt><trkpt lat="44.03293666703398" lon="11.376133219605187"><ele>601.0</ele><time>2026-05-02T08:51:45.761Z</time></trkpt><trkpt lat="44.03304507907843" lon="11.375938000150658"><ele>604.0</ele><time>2026-05-02T08:51:46.761Z</time></trkpt><trkpt lat="44.033197707535855" lon="11.375784937462656"><ele>607.0</ele><time>2026-05-02T08:51:47.761Z</time></trkpt><trkpt lat="44.03337980073704" lon="11.375691673324443"><ele>607.0</ele><time>2026-05-02T08:51:48.761Z</time></trkpt><trkpt lat="44.03357191449816" lon="11.375650557002087"><ele>607.0</ele><time>2026-05-02T08:51:49.761Z</time></trkpt><trkpt lat="44.03373599788549" lon="11.375720537670512"><ele>607.0</ele><time>2026-05-02T08:51:50.761Z</time></trkpt><trkpt lat="44.03389966440048" lon="11.375803040763474"><ele>607.0</ele><time>2026-05-02T08:51:51.761Z</time></trkpt><trkpt lat="44.034042070851044" lon="11.375846750871009"><ele>607.0</ele><time>2026-05-02T08:51:52.761Z</time></trkpt><trkpt lat="44.03417853866689" lon="11.3759112175028"><ele>607.0</ele><time>2026-05-02T08:51:53.761Z</time></trkpt><trkpt lat="44.03430984768531" lon="11.375905839760748"><ele>607.0</ele><time>2026-05-02T08:51:54.761Z</time></trkpt><trkpt lat="44.034464926718414" lon="11.375831376197603"><ele>609.0</ele><time>2026-05-02T08:51:55.761Z</time></trkpt><trkpt lat="44.034595126861305" lon="11.375693124178571"><ele>611.0</ele><time>2026-05-02T08:51:56.761Z</time></trkpt><trkpt lat="44.03473315523127" lon="11.375555890854757"><ele>613.0</ele><time>2026-05-02T08:51:57.761Z</time></trkpt><trkpt lat="44.034873712774434" lon="11.375403293484585"><ele>616.6666666666667</ele><time>2026-05-02T08:51:58.761Z</time></trkpt><trkpt lat="44.03499952027597" lon="11.375236096664176"><ele>620.3333333333334</ele><time>2026-05-02T08:51:59.761Z</time></trkpt><trkpt lat="44.03513430367062" lon="11.375080452623335"><ele>624.0</ele><time>2026-05-02T08:52:00.76Z</time></trkpt><trkpt lat="44.03523906671233" lon="11.374898723643993"><ele>624.0</ele><time>2026-05-02T08:52:01.76Z</time></trkpt><trkpt lat="44.03534494860969" lon="11.374726592970513"><ele>624.0</ele><time>2026-05-02T08:52:02.76Z</time></trkpt><trkpt lat="44.03541195787903" lon="11.374539983992166"><ele>624.0</ele><time>2026-05-02T08:52:03.76Z</time></trkpt><trkpt lat="44.03546607458797" lon="11.374342364741961"><ele>624.5</ele><time>2026-05-02T08:52:04.76Z</time></trkpt><trkpt lat="44.03553257258571" lon="11.374172690476817"><ele>625.0</ele><time>2026-05-02T08:52:05.76Z</time></trkpt><trkpt lat="44.03563090060247" lon="11.374075314582356"><ele>625.5</ele><time>2026-05-02T08:52:06.76Z</time></trkpt><trkpt lat="44.03573642194497" lon="11.374067749618574"><ele>626.0</ele><time>2026-05-02T08:52:07.76Z</time></trkpt><trkpt lat="44.03583785220194" lon="11.374104113914596"><ele>626.0</ele><time>2026-05-02T08:52:08.76Z</time></trkpt><trkpt lat="44.03592049584448" lon="11.374243352674767"><ele>626.0</ele><time>2026-05-02T08:52:09.76Z</time></trkpt><trkpt lat="44.03593326231974" lon="11.374410957483287"><ele>626.0</ele><time>2026-05-02T08:52:10.76Z</time></trkpt><trkpt lat="44.03589804411214" lon="11.37455205483866"><ele>626.0</ele><time>2026-05-02T08:52:11.76Z</time></trkpt><trkpt lat="44.03591683870038" lon="11.37473795649404"><ele>625.25</ele><time>2026-05-02T08:52:12.76Z</time></trkpt><trkpt lat="44.03595207278883" lon="11.37486814134165"><ele>624.5</ele><time>2026-05-02T08:52:13.76Z</time></trkpt><trkpt lat="44.03604690497073" lon="11.374945879441867"><ele>623.75</ele><time>2026-05-02T08:52:14.76Z</time></trkpt><trkpt lat="44.03618823448311" lon="11.375019158156658"><ele>623.0</ele><time>2026-05-02T08:52:15.76Z</time></trkpt><trkpt lat="44.036310314413704" lon="11.375075956195753"><ele>623.0</ele><time>2026-05-02T08:52:16.76Z</time></trkpt><trkpt lat="44.036436155735416" lon="11.375119506639702"><ele>623.0</ele><time>2026-05-02T08:52:17.76Z</time></trkpt><trkpt lat="44.036547008695116" lon="11.375201363892312"><ele>623.0</ele><time>2026-05-02T08:52:18.76Z</time></trkpt><trkpt lat="44.03663007568153" lon="11.375333037101964"><ele>623.0</ele><time>2026-05-02T08:52:19.76Z</time></trkpt><trkpt lat="44.03682400547118" lon="11.375916011420108"><ele>627.0</ele><time>2026-05-02T08:52:20.76Z</time></trkpt><trkpt lat="44.0367929505934" lon="11.376110249366686"><ele>631.0</ele><time>2026-05-02T08:52:21.76Z</time></trkpt><trkpt lat="44.03674315851274" lon="11.376310301545693"><ele>635.0</ele><time>2026-05-02T08:52:22.76Z</time></trkpt><trkpt lat="44.03670702439408" lon="11.376516733797544"><ele>639.0</ele><time>2026-05-02T08:52:23.76Z</time></trkpt><trkpt lat="44.03667520290662" lon="11.376701197581983"><ele>639.0</ele><time>2026-05-02T08:52:24.76Z</time></trkpt><trkpt lat="44.03668846895455" lon="11.376854721260095"><ele>639.0</ele><time>2026-05-02T08:52:25.76Z</time></trkpt><trkpt lat="44.03676661970275" lon="11.376958080821609"><ele>639.0</ele><time>2026-05-02T08:52:26.761Z</time></trkpt><trkpt lat="44.036870292100076" lon="11.376937530386067"><ele>639.0</ele><time>2026-05-02T08:52:27.761Z</time></trkpt><trkpt lat="44.036960918775165" lon="11.376789051630691"><ele>639.0</ele><time>2026-05-02T08:52:28.761Z</time></trkpt><trkpt lat="44.03698526980598" lon="11.376588599011736"><ele>639.0</ele><time>2026-05-02T08:52:29.76Z</time></trkpt><trkpt lat="44.03698921763689" lon="11.376376289646311"><ele>639.0</ele><time>2026-05-02T08:52:30.761Z</time></trkpt><trkpt lat="44.03702925541861" lon="11.37616985198702"><ele>640.3333333333334</ele><time>2026-05-02T08:52:31.761Z</time></trkpt><trkpt lat="44.037077974457745" lon="11.37594768017083"><ele>641.6666666666667</ele><time>2026-05-02T08:52:32.76Z</time></trkpt><trkpt lat="44.03712628817304" lon="11.375728080752843"><ele>643.0</ele><time>2026-05-02T08:52:33.76Z</time></trkpt><trkpt lat="44.03713207345745" lon="11.37552400548325"><ele>647.3333333333334</ele><time>2026-05-02T08:52:34.76Z</time></trkpt><trkpt lat="44.03707322204508" lon="11.375346135798411"><ele>651.6666666666666</ele><time>2026-05-02T08:52:35.761Z</time></trkpt><trkpt lat="44.03695300617248" lon="11.375211148107136"><ele>656.0</ele><time>2026-05-02T08:52:36.76Z</time></trkpt><trkpt lat="44.03679442729471" lon="11.375120590029638"><ele>656.0</ele><time>2026-05-02T08:52:37.76Z</time></trkpt><trkpt lat="44.036680918379915" lon="11.374950979264181"><ele>656.0</ele><time>2026-05-02T08:52:38.76Z</time></trkpt><trkpt lat="44.0366157196033" lon="11.374734813642279"><ele>656.0</ele><time>2026-05-02T08:52:39.76Z</time></trkpt><trkpt lat="44.03661107442486" lon="11.37453753620643"><ele>653.3333333333333</ele><time>2026-05-02T08:52:40.76Z</time></trkpt><trkpt lat="44.03667705269552" lon="11.374361964349346"><ele>650.6666666666666</ele><time>2026-05-02T08:52:41.76Z</time></trkpt><trkpt lat="44.03680250641533" lon="11.374242583035976"><ele>648.0</ele><time>2026-05-02T08:52:42.76Z</time></trkpt><trkpt lat="44.03700197328092" lon="11.374210455066681"><ele>648.0</ele><time>2026-05-02T08:52:43.76Z</time></trkpt><trkpt lat="44.03718820950575" lon="11.37416646734558"><ele>648.0</ele><time>2026-05-02T08:52:44.76Z</time></trkpt><trkpt lat="44.037358973879314" lon="11.374125390634298"><ele>648.0</ele><time>2026-05-02T08:52:45.76Z</time></trkpt><trkpt lat="44.03750079155926" lon="11.37407999379017"><ele>653.25</ele><time>2026-05-02T08:52:46.76Z</time></trkpt><trkpt lat="44.03761660746816" lon="11.374068703504207"><ele>658.5</ele><time>2026-05-02T08:52:47.76Z</time></trkpt><trkpt lat="44.03771176272484" lon="11.374139404552325"><ele>663.75</ele><time>2026-05-02T08:52:48.76Z</time></trkpt><trkpt lat="44.03773716615906" lon="11.374287750201109"><ele>669.0</ele><time>2026-05-02T08:52:49.76Z</time></trkpt><trkpt lat="44.03765746883475" lon="11.37444713902135"><ele>669.0</ele><time>2026-05-02T08:52:50.76Z</time></trkpt><trkpt lat="44.03751998765078" lon="11.374491186216039"><ele>669.0</ele><time>2026-05-02T08:52:51.76Z</time></trkpt><trkpt lat="44.03736331385067" lon="11.374404517074781"><ele>669.0</ele><time>2026-05-02T08:52:52.759Z</time></trkpt><trkpt lat="44.037231494792195" lon="11.374341734326247"><ele>669.0</ele><time>2026-05-02T08:52:53.759Z</time></trkpt><trkpt lat="44.03711192119948" lon="11.374376540144866"><ele>665.75</ele><time>2026-05-02T08:52:54.759Z</time></trkpt><trkpt lat="44.03704201840442" lon="11.37450036588231"><ele>662.5</ele><time>2026-05-02T08:52:55.759Z</time></trkpt><trkpt lat="44.037091549034464" lon="11.374689816089223"><ele>659.25</ele><time>2026-05-02T08:52:56.759Z</time></trkpt><trkpt lat="44.03722488268432" lon="11.374835077314867"><ele>656.0</ele><time>2026-05-02T08:52:57.759Z</time></trkpt><trkpt lat="44.037363993775685" lon="11.374930385870627"><ele>663.3333333333333</ele><time>2026-05-02T08:52:58.759Z</time></trkpt><trkpt lat="44.03748226159388" lon="11.375078573706348"><ele>670.6666666666666</ele><time>2026-05-02T08:52:59.759Z</time></trkpt><trkpt lat="44.03754349722758" lon="11.37528778205352"><ele>678.0</ele><time>2026-05-02T08:53:00.759Z</time></trkpt><trkpt lat="44.03759982402994" lon="11.375495962365685"><ele>677.6666666666666</ele><time>2026-05-02T08:53:01.759Z</time></trkpt><trkpt lat="44.03766518901016" lon="11.375708249050264"><ele>677.3333333333333</ele><time>2026-05-02T08:53:02.759Z</time></trkpt><trkpt lat="44.03773407571715" lon="11.375917348633966"><ele>677.0</ele><time>2026-05-02T08:53:03.759Z</time></trkpt><trkpt lat="44.03780979611368" lon="11.376117505371852"><ele>677.0</ele><time>2026-05-02T08:53:04.759Z</time></trkpt><trkpt lat="44.03790120242497" lon="11.37628596444914"><ele>677.0</ele><time>2026-05-02T08:53:05.759Z</time></trkpt><trkpt lat="44.038012645274634" lon="11.376388848953285"><ele>677.0</ele><time>2026-05-02T08:53:06.759Z</time></trkpt><trkpt lat="44.0381549525092" lon="11.37641864207517"><ele>677.0</ele><time>2026-05-02T08:53:07.759Z</time></trkpt><trkpt lat="44.03827369971155" lon="11.376361174331327"><ele>683.6666666666666</ele><time>2026-05-02T08:53:08.759Z</time></trkpt><trkpt lat="44.038395805996345" lon="11.376230175413506"><ele>690.3333333333334</ele><time>2026-05-02T08:53:09.759Z</time></trkpt><trkpt lat="44.03849819517309" lon="11.376057579581907"><ele>697.0</ele><time>2026-05-02T08:53:10.759Z</time></trkpt><trkpt lat="44.03862057662649" lon="11.375881606356199"><ele>697.0</ele><time>2026-05-02T08:53:11.759Z</time></trkpt><trkpt lat="44.03874595504504" lon="11.375754280716247"><ele>697.0</ele><time>2026-05-02T08:53:12.759Z</time></trkpt><trkpt lat="44.038888972984594" lon="11.375651486498997"><ele>697.0</ele><time>2026-05-02T08:53:13.759Z</time></trkpt><trkpt lat="44.03903749735569" lon="11.375534170028478"><ele>698.6666666666667</ele><time>2026-05-02T08:53:14.759Z</time></trkpt><trkpt lat="44.03920753982833" lon="11.375460432149895"><ele>700.3333333333334</ele><time>2026-05-02T08:53:15.759Z</time></trkpt><trkpt lat="44.03938602024011" lon="11.37542067428479"><ele>702.0</ele><time>2026-05-02T08:53:16.759Z</time></trkpt><trkpt lat="44.039563212390505" lon="11.37539327983124"><ele>702.0</ele><time>2026-05-02T08:53:17.759Z</time></trkpt><trkpt lat="44.0397384017897" lon="11.375354454307017"><ele>702.0</ele><time>2026-05-02T08:53:18.758Z</time></trkpt><trkpt lat="44.039908086420674" lon="11.375311824570355"><ele>702.0</ele><time>2026-05-02T08:53:19.758Z</time></trkpt><trkpt lat="44.04006257233448" lon="11.375269698718125"><ele>705.5</ele><time>2026-05-02T08:53:20.758Z</time></trkpt><trkpt lat="44.04020799499223" lon="11.375263162923755"><ele>709.0</ele><time>2026-05-02T08:53:21.758Z</time></trkpt><trkpt lat="44.04034656785991" lon="11.375316403978845"><ele>712.5</ele><time>2026-05-02T08:53:22.758Z</time></trkpt><trkpt lat="44.04046555421267" lon="11.37538166915459"><ele>716.0</ele><time>2026-05-02T08:53:23.758Z</time></trkpt><trkpt lat="44.040602849036624" lon="11.37537509784983"><ele>716.0</ele><time>2026-05-02T08:53:24.758Z</time></trkpt><trkpt lat="44.040722425608955" lon="11.375354454748097"><ele>716.0</ele><time>2026-05-02T08:53:25.758Z</time></trkpt><trkpt lat="44.04080817060077" lon="11.375406413230357"><ele>716.0</ele><time>2026-05-02T08:53:26.758Z</time></trkpt><trkpt lat="44.04085123016445" lon="11.375561456350884"><ele>716.0</ele><time>2026-05-02T08:53:27.758Z</time></trkpt><trkpt lat="44.04081567783332" lon="11.37579646891033"><ele>718.0</ele><time>2026-05-02T08:53:28.758Z</time></trkpt><trkpt lat="44.04080562877158" lon="11.376021143268128"><ele>720.0</ele><time>2026-05-02T08:53:29.758Z</time></trkpt><trkpt lat="44.0408009237279" lon="11.37626444003874"><ele>722.0</ele><time>2026-05-02T08:53:30.758Z</time></trkpt><trkpt lat="44.040803191189426" lon="11.376481721451238"><ele>722.0</ele><time>2026-05-02T08:53:31.758Z</time></trkpt><trkpt lat="44.04083608981995" lon="11.376648309313403"><ele>722.0</ele><time>2026-05-02T08:53:32.758Z</time></trkpt><trkpt lat="44.040930010202516" lon="11.376740238365452"><ele>722.0</ele><time>2026-05-02T08:53:33.758Z</time></trkpt><trkpt lat="44.04106926241973" lon="11.376781951500762"><ele>722.0</ele><time>2026-05-02T08:53:34.758Z</time></trkpt><trkpt lat="44.04120491960341" lon="11.376825563126387"><ele>722.0</ele><time>2026-05-02T08:53:35.758Z</time></trkpt><trkpt lat="44.041283353508696" lon="11.376925958792613"><ele>722.0</ele><time>2026-05-02T08:53:36.758Z</time></trkpt><trkpt lat="44.04129570702375" lon="11.37707976014537"><ele>722.0</ele><time>2026-05-02T08:53:37.758Z</time></trkpt><trkpt lat="44.04117809164268" lon="11.377275090644414"><ele>722.0</ele><time>2026-05-02T08:53:38.758Z</time></trkpt><trkpt lat="44.04104650808591" lon="11.377391070967317"><ele>724.6666666666666</ele><time>2026-05-02T08:53:39.758Z</time></trkpt><trkpt lat="44.04089227388315" lon="11.377460653361439"><ele>727.3333333333334</ele><time>2026-05-02T08:53:40.758Z</time></trkpt><trkpt lat="44.04076136219772" lon="11.377576895024298"><ele>730.0</ele><time>2026-05-02T08:53:41.758Z</time></trkpt><trkpt lat="44.04066832386435" lon="11.377751185218994"><ele>718.3333333333334</ele><time>2026-05-02T08:53:42.758Z</time></trkpt><trkpt lat="44.04065308713253" lon="11.377978530646107"><ele>706.6666666666666</ele><time>2026-05-02T08:53:43.757Z</time></trkpt><trkpt lat="44.04068144048909" lon="11.37817198334372"><ele>695.0</ele><time>2026-05-02T08:53:44.757Z</time></trkpt><trkpt lat="44.04077122925856" lon="11.378329075482302"><ele>709.3333333333333</ele><time>2026-05-02T08:53:45.757Z</time></trkpt><trkpt lat="44.04092595630439" lon="11.378429871771084"><ele>723.6666666666666</ele><time>2026-05-02T08:53:46.757Z</time></trkpt><trkpt lat="44.04109391793053" lon="11.378504379763411"><ele>738.0</ele><time>2026-05-02T08:53:47.757Z</time></trkpt><trkpt lat="44.04124432100677" lon="11.378614649188094"><ele>738.0</ele><time>2026-05-02T08:53:48.757Z</time></trkpt><trkpt lat="44.04136366799361" lon="11.378751510135643"><ele>738.0</ele><time>2026-05-02T08:53:49.757Z</time></trkpt><trkpt lat="44.04144015612032" lon="11.378903540010947"><ele>738.0</ele><time>2026-05-02T08:53:50.757Z</time></trkpt><trkpt lat="44.041438938684806" lon="11.379070958436808"><ele>738.0</ele><time>2026-05-02T08:53:51.757Z</time></trkpt><trkpt lat="44.0413604365815" lon="11.379258622565349"><ele>735.6666666666666</ele><time>2026-05-02T08:53:52.757Z</time></trkpt><trkpt lat="44.04125356291744" lon="11.379425018270895"><ele>733.3333333333333</ele><time>2026-05-02T08:53:53.757Z</time></trkpt><trkpt lat="44.04113716854932" lon="11.379572661859383"><ele>731.0</ele><time>2026-05-02T08:53:54.757Z</time></trkpt><trkpt lat="44.04107036098116" lon="11.3797325822433"><ele>729.5</ele><time>2026-05-02T08:53:55.757Z</time></trkpt><trkpt lat="44.04109144907751" lon="11.379880620828107"><ele>728.0</ele><time>2026-05-02T08:53:56.757Z</time></trkpt><trkpt lat="44.041188266157896" lon="11.380008949764376"><ele>726.5</ele><time>2026-05-02T08:53:57.757Z</time></trkpt><trkpt lat="44.0413199654916" lon="11.380132099583317"><ele>725.0</ele><time>2026-05-02T08:53:58.757Z</time></trkpt><trkpt lat="44.041452422879956" lon="11.380263820998588"><ele>725.0</ele><time>2026-05-02T08:53:59.757Z</time></trkpt><trkpt lat="44.04155527645068" lon="11.380399355891043"><ele>725.0</ele><time>2026-05-02T08:54:00.757Z</time></trkpt><trkpt lat="44.04166082802019" lon="11.38044646202297"><ele>725.0</ele><time>2026-05-02T08:54:01.757Z</time></trkpt><trkpt lat="44.04177044104552" lon="11.380369717322836"><ele>725.0</ele><time>2026-05-02T08:54:02.757Z</time></trkpt><trkpt lat="44.04185813355605" lon="11.380211088700891"><ele>735.3333333333333</ele><time>2026-05-02T08:54:03.757Z</time></trkpt><trkpt lat="44.04192990591176" lon="11.380014805659377"><ele>745.6666666666666</ele><time>2026-05-02T08:54:04.757Z</time></trkpt><trkpt lat="44.0420217385457" lon="11.379800311815448"><ele>756.0</ele><time>2026-05-02T08:54:05.757Z</time></trkpt><trkpt lat="44.042127423592284" lon="11.379598411633866"><ele>759.0</ele><time>2026-05-02T08:54:06.757Z</time></trkpt><trkpt lat="44.04223481210715" lon="11.379444065261408"><ele>762.0</ele><time>2026-05-02T08:54:07.757Z</time></trkpt><trkpt lat="44.04235024606846" lon="11.379326947936267"><ele>765.0</ele><time>2026-05-02T08:54:08.757Z</time></trkpt><trkpt lat="44.04245881475353" lon="11.379274911994473"><ele>768.0</ele><time>2026-05-02T08:54:09.756Z</time></trkpt><trkpt lat="44.042619030261996" lon="11.379267178978171"><ele>769.2</ele><time>2026-05-02T08:54:10.756Z</time></trkpt><trkpt lat="44.04274244920281" lon="11.379230920754987"><ele>770.4</ele><time>2026-05-02T08:54:11.756Z</time></trkpt><trkpt lat="44.0428576422946" lon="11.379228165388477"><ele>771.6</ele><time>2026-05-02T08:54:12.756Z</time></trkpt><trkpt lat="44.042962294431334" lon="11.379209124374492"><ele>772.8000000000001</ele><time>2026-05-02T08:54:13.756Z</time></trkpt><trkpt lat="44.04306318021097" lon="11.379201687506093"><ele>774.0</ele><time>2026-05-02T08:54:14.756Z</time></trkpt><trkpt lat="44.04316230045133" lon="11.3791979052225"><ele>774.0</ele><time>2026-05-02T08:54:15.756Z</time></trkpt><trkpt lat="44.043245614466294" lon="11.379242778244835"><ele>774.0</ele><time>2026-05-02T08:54:16.756Z</time></trkpt><trkpt lat="44.04329993594457" lon="11.379338600606548"><ele>774.0</ele><time>2026-05-02T08:54:17.756Z</time></trkpt><trkpt lat="44.04334947487379" lon="11.379461851194685"><ele>774.0</ele><time>2026-05-02T08:54:18.756Z</time></trkpt><trkpt lat="44.04339275356037" lon="11.37963061103855"><ele>774.0</ele><time>2026-05-02T08:54:19.756Z</time></trkpt><trkpt lat="44.043418453586" lon="11.379813546023884"><ele>770.5</ele><time>2026-05-02T08:54:20.756Z</time></trkpt><trkpt lat="44.04342507778406" lon="11.379988608578024"><ele>767.0</ele><time>2026-05-02T08:54:21.756Z</time></trkpt><trkpt lat="44.043429323030395" lon="11.380152791108372"><ele>763.5</ele><time>2026-05-02T08:54:22.756Z</time></trkpt><trkpt lat="44.04343211017819" lon="11.380307200651846"><ele>760.0</ele><time>2026-05-02T08:54:23.756Z</time></trkpt><trkpt lat="44.043440997358864" lon="11.380458763189027"><ele>758.8333333333334</ele><time>2026-05-02T08:54:24.756Z</time></trkpt><trkpt lat="44.04345108406316" lon="11.380600630437913"><ele>757.6666666666667</ele><time>2026-05-02T08:54:25.756Z</time></trkpt><trkpt lat="44.043473709741534" lon="11.380720273593745"><ele>756.5</ele><time>2026-05-02T08:54:26.756Z</time></trkpt><trkpt lat="44.043530616457545" lon="11.380812050565831"><ele>755.3333333333334</ele><time>2026-05-02T08:54:27.756Z</time></trkpt><trkpt lat="44.0436014646601" lon="11.38085802161892"><ele>754.1666666666666</ele><time>2026-05-02T08:54:28.756Z</time></trkpt><trkpt lat="44.0436821717101" lon="11.38090171401802"><ele>753.0</ele><time>2026-05-02T08:54:29.756Z</time></trkpt><trkpt lat="44.043785621303265" lon="11.380939892374384"><ele>753.0</ele><time>2026-05-02T08:54:30.756Z</time></trkpt><trkpt lat="44.0438782691309" lon="11.380981656939746"><ele>753.0</ele><time>2026-05-02T08:54:31.757Z</time></trkpt><trkpt lat="44.04397462520545" lon="11.381012321832003"><ele>753.0</ele><time>2026-05-02T08:54:32.757Z</time></trkpt><trkpt lat="44.04407779057301" lon="11.381069725267103"><ele>753.0</ele><time>2026-05-02T08:54:33.757Z</time></trkpt><trkpt lat="44.04414158544809" lon="11.381143246017787"><ele>753.0</ele><time>2026-05-02T08:54:34.757Z</time></trkpt><trkpt lat="44.04419874490121" lon="11.381258489738334"><ele>757.25</ele><time>2026-05-02T08:54:35.757Z</time></trkpt><trkpt lat="44.04421527522329" lon="11.381402339656814"><ele>761.5</ele><time>2026-05-02T08:54:36.757Z</time></trkpt><trkpt lat="44.0442295377807" lon="11.381561359278711"><ele>765.75</ele><time>2026-05-02T08:54:37.757Z</time></trkpt><trkpt lat="44.04422396508353" lon="11.381761073942073"><ele>770.0</ele><time>2026-05-02T08:54:38.758Z</time></trkpt><trkpt lat="44.04420164115476" lon="11.381980685011504"><ele>772.6666666666667</ele><time>2026-05-02T08:54:39.758Z</time></trkpt><trkpt lat="44.04418234321404" lon="11.382234191359663"><ele>775.3333333333333</ele><time>2026-05-02T08:54:40.758Z</time></trkpt><trkpt lat="44.04414928061955" lon="11.382495700649947"><ele>778.0</ele><time>2026-05-02T08:54:41.757Z</time></trkpt><trkpt lat="44.04410433502063" lon="11.38277050801794"><ele>770.3333333333333</ele><time>2026-05-02T08:54:42.757Z</time></trkpt><trkpt lat="44.04405703760398" lon="11.383024610388933"><ele>762.6666666666666</ele><time>2026-05-02T08:54:43.757Z</time></trkpt><trkpt lat="44.04397712324043" lon="11.383262951560559"><ele>755.0</ele><time>2026-05-02T08:54:44.757Z</time></trkpt><trkpt lat="44.0438838083571" lon="11.383483097709412"><ele>755.0</ele><time>2026-05-02T08:54:45.757Z</time></trkpt><trkpt lat="44.04375944457053" lon="11.383672384058725"><ele>755.0</ele><time>2026-05-02T08:54:46.757Z</time></trkpt><trkpt lat="44.04364443012604" lon="11.383885852679839"><ele>755.0</ele><time>2026-05-02T08:54:47.757Z</time></trkpt><trkpt lat="44.04353919860048" lon="11.38410968519884"><ele>756.0</ele><time>2026-05-02T08:54:48.757Z</time></trkpt><trkpt lat="44.04343567304183" lon="11.384329165014567"><ele>757.0</ele><time>2026-05-02T08:54:49.757Z</time></trkpt><trkpt lat="44.04333701995678" lon="11.38454955498795"><ele>758.0</ele><time>2026-05-02T08:54:50.757Z</time></trkpt><trkpt lat="44.04324170765431" lon="11.384746158370875"><ele>758.0</ele><time>2026-05-02T08:54:51.757Z</time></trkpt><trkpt lat="44.043162157112775" lon="11.38492590156584"><ele>758.0</ele><time>2026-05-02T08:54:52.757Z</time></trkpt><trkpt lat="44.04310993977112" lon="11.385053363183873"><ele>758.0</ele><time>2026-05-02T08:54:53.757Z</time></trkpt><trkpt lat="44.04312169463758" lon="11.38518201423831"><ele>758.0</ele><time>2026-05-02T08:54:54.757Z</time></trkpt><trkpt lat="44.0432012290207" lon="11.38523525591955"><ele>758.0</ele><time>2026-05-02T08:54:55.757Z</time></trkpt><trkpt lat="44.043295277826935" lon="11.385201331906474"><ele>760.75</ele><time>2026-05-02T08:54:56.757Z</time></trkpt><trkpt lat="44.04337860425036" lon="11.385049298852882"><ele>763.5</ele><time>2026-05-02T08:54:57.757Z</time></trkpt><trkpt lat="44.043454582711924" lon="11.384867721135244"><ele>766.25</ele><time>2026-05-02T08:54:58.757Z</time></trkpt><trkpt lat="44.04353725050125" lon="11.384682506109852"><ele>769.0</ele><time>2026-05-02T08:54:59.757Z</time></trkpt><trkpt lat="44.04363578352602" lon="11.384498317121219"><ele>769.0</ele><time>2026-05-02T08:55:00.757Z</time></trkpt><trkpt lat="44.043750762922905" lon="11.384328833519247"><ele>769.0</ele><time>2026-05-02T08:55:01.757Z</time></trkpt><trkpt lat="44.04388533564147" lon="11.384170750109242"><ele>769.0</ele><time>2026-05-02T08:55:02.757Z</time></trkpt><trkpt lat="44.044001287848644" lon="11.38404114490339"><ele>769.0</ele><time>2026-05-02T08:55:03.757Z</time></trkpt><trkpt lat="44.044112927895206" lon="11.38394765743699"><ele>769.0</ele><time>2026-05-02T08:55:04.757Z</time></trkpt><trkpt lat="44.04419864148084" lon="11.383942276736654"><ele>769.0</ele><time>2026-05-02T08:55:05.757Z</time></trkpt><trkpt lat="44.044257349209296" lon="11.384017688870022"><ele>769.0</ele><time>2026-05-02T08:55:06.757Z</time></trkpt><trkpt lat="44.04425473760572" lon="11.384141038825694"><ele>769.0</ele><time>2026-05-02T08:55:07.756Z</time></trkpt><trkpt lat="44.04417224761958" lon="11.384260010213564"><ele>769.0</ele><time>2026-05-02T08:55:08.756Z</time></trkpt><trkpt lat="44.04405491342679" lon="11.384391737440994"><ele>769.0</ele><time>2026-05-02T08:55:09.756Z</time></trkpt><trkpt lat="44.043961589153106" lon="11.3845623443399"><ele>769.0</ele><time>2026-05-02T08:55:10.756Z</time></trkpt><trkpt lat="44.043885749331295" lon="11.38476301592833"><ele>775.0</ele><time>2026-05-02T08:55:11.756Z</time></trkpt><trkpt lat="44.04381903535911" lon="11.384984073723407"><ele>781.0</ele><time>2026-05-02T08:55:12.756Z</time></trkpt><trkpt lat="44.04376026325205" lon="11.38521828910838"><ele>787.0</ele><time>2026-05-02T08:55:13.756Z</time></trkpt><trkpt lat="44.04369337991359" lon="11.385442695991916"><ele>792.6666666666666</ele><time>2026-05-02T08:55:14.756Z</time></trkpt><trkpt lat="44.04360680654937" lon="11.385668894750033"><ele>798.3333333333333</ele><time>2026-05-02T08:55:15.756Z</time></trkpt><trkpt lat="44.04350281558162" lon="11.385875767706983"><ele>804.0</ele><time>2026-05-02T08:55:16.756Z</time></trkpt><trkpt lat="44.04339095843601" lon="11.386071283385409"><ele>803.0</ele><time>2026-05-02T08:55:17.756Z</time></trkpt><trkpt lat="44.04327587400254" lon="11.386251174568617"><ele>802.0</ele><time>2026-05-02T08:55:18.756Z</time></trkpt><trkpt lat="44.04316958974567" lon="11.386414571471155"><ele>801.0</ele><time>2026-05-02T08:55:19.756Z</time></trkpt><trkpt lat="44.043071667001705" lon="11.386543530798807"><ele>801.0</ele><time>2026-05-02T08:55:20.756Z</time></trkpt><trkpt lat="44.043005335349925" lon="11.38664948304975"><ele>801.0</ele><time>2026-05-02T08:55:21.756Z</time></trkpt><trkpt lat="44.04301655437819" lon="11.38674648231765"><ele>801.0</ele><time>2026-05-02T08:55:22.756Z</time></trkpt><trkpt lat="44.04307478155507" lon="11.386793448338993"><ele>801.0</ele><time>2026-05-02T08:55:23.756Z</time></trkpt><trkpt lat="44.043148476186644" lon="11.386749488499738"><ele>801.0</ele><time>2026-05-02T08:55:24.756Z</time></trkpt><trkpt lat="44.043243023089744" lon="11.386630041714431"><ele>801.0</ele><time>2026-05-02T08:55:25.756Z</time></trkpt><trkpt lat="44.043346568613224" lon="11.386481651514933"><ele>802.0</ele><time>2026-05-02T08:55:26.756Z</time></trkpt><trkpt lat="44.0434698118968" lon="11.38632685707022"><ele>803.0</ele><time>2026-05-02T08:55:27.756Z</time></trkpt><trkpt lat="44.0435933328108" lon="11.386179190077714"><ele>804.0</ele><time>2026-05-02T08:55:28.756Z</time></trkpt><trkpt lat="44.04374515159978" lon="11.386050530858114"><ele>804.0</ele><time>2026-05-02T08:55:29.756Z</time></trkpt><trkpt lat="44.043901633557795" lon="11.385942157462146"><ele>804.0</ele><time>2026-05-02T08:55:30.756Z</time></trkpt><trkpt lat="44.04407204146555" lon="11.385881891922809"><ele>804.0</ele><time>2026-05-02T08:55:31.756Z</time></trkpt><trkpt lat="44.04422421148574" lon="11.385865998996353"><ele>807.25</ele><time>2026-05-02T08:55:32.756Z</time></trkpt><trkpt lat="44.04434848106434" lon="11.385811791571834"><ele>810.5</ele><time>2026-05-02T08:55:33.755Z</time></trkpt><trkpt lat="44.04444736608063" lon="11.385674891256672"><ele>813.75</ele><time>2026-05-02T08:55:34.755Z</time></trkpt><trkpt lat="44.04454531458888" lon="11.385508296660305"><ele>817.0</ele><time>2026-05-02T08:55:35.755Z</time></trkpt><trkpt lat="44.04466107754405" lon="11.385385765698667"><ele>817.0</ele><time>2026-05-02T08:55:36.755Z</time></trkpt><trkpt lat="44.04478294526346" lon="11.385313026350754"><ele>817.0</ele><time>2026-05-02T08:55:37.755Z</time></trkpt><trkpt lat="44.04492850326713" lon="11.385349019369576"><ele>817.0</ele><time>2026-05-02T08:55:38.755Z</time></trkpt><trkpt lat="44.04506177081358" lon="11.385443472578148"><ele>817.0</ele><time>2026-05-02T08:55:39.755Z</time></trkpt><trkpt lat="44.04520236685804" lon="11.385497458924466"><ele>820.0</ele><time>2026-05-02T08:55:40.755Z</time></trkpt><trkpt lat="44.045336724549976" lon="11.385490625266653"><ele>823.0</ele><time>2026-05-02T08:55:41.755Z</time></trkpt><trkpt lat="44.04542425271216" lon="11.385490706265117"><ele>826.0</ele><time>2026-05-02T08:55:42.755Z</time></trkpt><trkpt lat="44.04547550593347" lon="11.38554313189467"><ele>829.0</ele><time>2026-05-02T08:55:43.755Z</time></trkpt><trkpt lat="44.04546463566299" lon="11.3856498199742"><ele>832.0</ele><time>2026-05-02T08:55:44.755Z</time></trkpt><trkpt lat="44.04537398548606" lon="11.385745791296314"><ele>835.5</ele><time>2026-05-02T08:55:45.755Z</time></trkpt><trkpt lat="44.045257577331796" lon="11.38583844976158"><ele>839.0</ele><time>2026-05-02T08:55:46.755Z</time></trkpt><trkpt lat="44.04515343794056" lon="11.385967767008378"><ele>842.5</ele><time>2026-05-02T08:55:47.755Z</time></trkpt><trkpt lat="44.04509307632888" lon="11.386154087292246"><ele>846.0</ele><time>2026-05-02T08:55:48.755Z</time></trkpt><trkpt lat="44.04502296631028" lon="11.386291040893886"><ele>847.0</ele><time>2026-05-02T08:55:49.755Z</time></trkpt><trkpt lat="44.04490038000211" lon="11.386388020518217"><ele>848.0</ele><time>2026-05-02T08:55:50.755Z</time></trkpt><trkpt lat="44.04475857861556" lon="11.386452657134678"><ele>849.0</ele><time>2026-05-02T08:55:51.755Z</time></trkpt><trkpt lat="44.04463403730768" lon="11.386542132670598"><ele>850.0</ele><time>2026-05-02T08:55:52.755Z</time></trkpt><trkpt lat="44.04453021165427" lon="11.386669395674238"><ele>850.0</ele><time>2026-05-02T08:55:53.755Z</time></trkpt><trkpt lat="44.04448934042468" lon="11.386854686523407"><ele>850.0</ele><time>2026-05-02T08:55:54.755Z</time></trkpt><trkpt lat="44.04449453328038" lon="11.387045827190414"><ele>850.0</ele><time>2026-05-02T08:55:55.755Z</time></trkpt><trkpt lat="44.044502105348165" lon="11.387268991030416"><ele>850.0</ele><time>2026-05-02T08:55:56.755Z</time></trkpt><trkpt lat="44.044487812688004" lon="11.387469006552598"><ele>854.0</ele><time>2026-05-02T08:55:57.755Z</time></trkpt><trkpt lat="44.0444617348928" lon="11.387626324492139"><ele>858.0</ele><time>2026-05-02T08:55:58.754Z</time></trkpt><trkpt lat="44.04450471512622" lon="11.38776162746524"><ele>862.0</ele><time>2026-05-02T08:55:59.754Z</time></trkpt><trkpt lat="44.04461436883423" lon="11.387833657288231"><ele>866.0</ele><time>2026-05-02T08:56:00.754Z</time></trkpt><trkpt lat="44.04474788750529" lon="11.387780047794495"><ele>866.0</ele><time>2026-05-02T08:56:01.754Z</time></trkpt><trkpt lat="44.044899719927024" lon="11.387688969325062"><ele>866.0</ele><time>2026-05-02T08:56:02.754Z</time></trkpt><trkpt lat="44.045035965839105" lon="11.387581452898685"><ele>866.0</ele><time>2026-05-02T08:56:03.754Z</time></trkpt><trkpt lat="44.04519909538546" lon="11.387501374259418"><ele>867.6666666666667</ele><time>2026-05-02T08:56:04.754Z</time></trkpt><trkpt lat="44.04537485328429" lon="11.387440805286735"><ele>869.3333333333333</ele><time>2026-05-02T08:56:05.754Z</time></trkpt><trkpt lat="44.04555558203783" lon="11.38737793184717"><ele>871.0</ele><time>2026-05-02T08:56:06.754Z</time></trkpt><trkpt lat="44.04572507561679" lon="11.387344859905788"><ele>872.25</ele><time>2026-05-02T08:56:07.754Z</time></trkpt><trkpt lat="44.04587780103335" lon="11.387372744577625"><ele>873.5</ele><time>2026-05-02T08:56:08.754Z</time></trkpt><trkpt lat="44.04600188198411" lon="11.387451815400889"><ele>874.75</ele><time>2026-05-02T08:56:09.754Z</time></trkpt><trkpt lat="44.04611317171832" lon="11.387546415079466"><ele>876.0</ele><time>2026-05-02T08:56:10.754Z</time></trkpt><trkpt lat="44.04621356803347" lon="11.387653546395724"><ele>876.0</ele><time>2026-05-02T08:56:11.754Z</time></trkpt><trkpt lat="44.0463216213683" lon="11.387730683275086"><ele>875.9999999999999</ele><time>2026-05-02T08:56:12.754Z</time></trkpt><trkpt lat="44.046419997313706" lon="11.387803614725849"><ele>875.9999999999999</ele><time>2026-05-02T08:56:13.754Z</time></trkpt><trkpt lat="44.04650905889403" lon="11.387874912370815"><ele>876.0</ele><time>2026-05-02T08:56:14.754Z</time></trkpt><trkpt lat="44.04659184589543" lon="11.387925995829482"><ele>876.0</ele><time>2026-05-02T08:56:15.754Z</time></trkpt><trkpt lat="44.046660176199744" lon="11.387967464905097"><ele>877.0</ele><time>2026-05-02T08:56:16.754Z</time></trkpt><trkpt lat="44.046738928569084" lon="11.388035548938662"><ele>877.9999999999999</ele><time>2026-05-02T08:56:18.754Z</time></trkpt><trkpt lat="44.04680294598414" lon="11.388022778366869"><ele>878.9999999999999</ele><time>2026-05-02T08:56:46.754Z</time></trkpt><trkpt lat="44.04687316905204" lon="11.388045516646207"><ele>880.0</ele><time>2026-05-02T08:56:48.754Z</time></trkpt><trkpt lat="44.04696510191997" lon="11.388134246529999"><ele>881.0</ele><time>2026-05-02T08:56:50.754Z</time></trkpt><trkpt lat="44.04705292055089" lon="11.388252631644704"><ele>881.0000000000001</ele><time>2026-05-02T08:56:52.754Z</time></trkpt><trkpt lat="44.047077905090305" lon="11.388347327840618"><ele>881.0</ele><time>2026-05-02T08:56:53.754Z</time></trkpt><trkpt lat="44.0470872158281" lon="11.388461273346003"><ele>881.0</ele><time>2026-05-02T08:56:54.754Z</time></trkpt><trkpt lat="44.04708199006701" lon="11.388588502846952"><ele>881.0</ele><time>2026-05-02T08:56:55.754Z</time></trkpt><trkpt lat="44.04706963396751" lon="11.388711929757564"><ele>881.0000000000001</ele><time>2026-05-02T08:56:56.754Z</time></trkpt><trkpt lat="44.047054558007446" lon="11.388848858854235"><ele>881.0</ele><time>2026-05-02T08:56:57.754Z</time></trkpt><trkpt lat="44.047054415085334" lon="11.389000382258189"><ele>878.25</ele><time>2026-05-02T08:56:58.754Z</time></trkpt><trkpt lat="44.047077449262424" lon="11.389161369738689"><ele>875.5</ele><time>2026-05-02T08:56:59.754Z</time></trkpt><trkpt lat="44.04711070730703" lon="11.389337418835233"><ele>872.75</ele><time>2026-05-02T08:57:00.754Z</time></trkpt><trkpt lat="44.0471477283789" lon="11.38951149181915"><ele>870.0</ele><time>2026-05-02T08:57:01.754Z</time></trkpt><trkpt lat="44.047164056089635" lon="11.38969978780291"><ele>866.5</ele><time>2026-05-02T08:57:02.754Z</time></trkpt><trkpt lat="44.047169501351746" lon="11.389896290706181"><ele>863.0</ele><time>2026-05-02T08:57:03.754Z</time></trkpt><trkpt lat="44.04717166514621" lon="11.390092464960576"><ele>859.5</ele><time>2026-05-02T08:57:04.754Z</time></trkpt><trkpt lat="44.04718196114486" lon="11.390279242782842"><ele>856.0</ele><time>2026-05-02T08:57:05.754Z</time></trkpt><trkpt lat="44.04719811807522" lon="11.390434584809162"><ele>855.25</ele><time>2026-05-02T08:57:06.754Z</time></trkpt><trkpt lat="44.04725832012485" lon="11.390548624615505"><ele>854.5</ele><time>2026-05-02T08:57:07.754Z</time></trkpt><trkpt lat="44.04736647874192" lon="11.390573713239451"><ele>853.75</ele><time>2026-05-02T08:57:08.754Z</time></trkpt><trkpt lat="44.047490336983145" lon="11.39051162764396"><ele>853.0</ele><time>2026-05-02T08:57:09.753Z</time></trkpt><trkpt lat="44.047617145041926" lon="11.390387787380183"><ele>857.6666666666666</ele><time>2026-05-02T08:57:10.753Z</time></trkpt><trkpt lat="44.04776271191026" lon="11.390288701227512"><ele>862.3333333333333</ele><time>2026-05-02T08:57:11.753Z</time></trkpt><trkpt lat="44.047909061657954" lon="11.390275398248384"><ele>867.0</ele><time>2026-05-02T08:57:12.753Z</time></trkpt><trkpt lat="44.048051566382185" lon="11.390369890807127"><ele>862.3333333333333</ele><time>2026-05-02T08:57:13.753Z</time></trkpt><trkpt lat="44.04816261116063" lon="11.3905637362453"><ele>857.6666666666666</ele><time>2026-05-02T08:57:14.753Z</time></trkpt><trkpt lat="44.04824866180956" lon="11.390803980996068"><ele>853.0</ele><time>2026-05-02T08:57:15.753Z</time></trkpt><trkpt lat="44.048319776895" lon="11.3910375945933"><ele>852.0</ele><time>2026-05-02T08:57:16.753Z</time></trkpt><trkpt lat="44.04837256024577" lon="11.391254337324316"><ele>851.0</ele><time>2026-05-02T08:57:17.753Z</time></trkpt><trkpt lat="44.048388255366255" lon="11.391458057507643"><ele>850.0</ele><time>2026-05-02T08:57:18.753Z</time></trkpt><trkpt lat="44.04839348172677" lon="11.39161467771562"><ele>849.0</ele><time>2026-05-02T08:57:19.753Z</time></trkpt><trkpt lat="44.0484402444392" lon="11.391721976350567"><ele>849.0</ele><time>2026-05-02T08:57:20.753Z</time></trkpt><trkpt lat="44.04853482826155" lon="11.391738911719262"><ele>849.0</ele><time>2026-05-02T08:57:21.753Z</time></trkpt><trkpt lat="44.04862072901029" lon="11.391647581902854"><ele>849.0</ele><time>2026-05-02T08:57:22.753Z</time></trkpt><trkpt lat="44.048677061543046" lon="11.391470023002638"><ele>849.0</ele><time>2026-05-02T08:57:23.753Z</time></trkpt><trkpt lat="44.04873257701558" lon="11.391245827015315"><ele>849.0</ele><time>2026-05-02T08:57:24.753Z</time></trkpt><trkpt lat="44.04881025339662" lon="11.391033586406284"><ele>849.0</ele><time>2026-05-02T08:57:25.753Z</time></trkpt><trkpt lat="44.048897471101824" lon="11.390830888756676"><ele>849.0</ele><time>2026-05-02T08:57:26.753Z</time></trkpt><trkpt lat="44.048976136229015" lon="11.390602223895245"><ele>847.3333333333333</ele><time>2026-05-02T08:57:27.753Z</time></trkpt><trkpt lat="44.0490240961367" lon="11.390365951223686"><ele>845.6666666666666</ele><time>2026-05-02T08:57:28.753Z</time></trkpt><trkpt lat="44.04906097479053" lon="11.390166072734507"><ele>844.0</ele><time>2026-05-02T08:57:29.753Z</time></trkpt><trkpt lat="44.049165984843114" lon="11.389999338571515"><ele>844.0</ele><time>2026-05-02T08:57:30.753Z</time></trkpt><trkpt lat="44.049305510969226" lon="11.389861277703206"><ele>844.0</ele><time>2026-05-02T08:57:31.753Z</time></trkpt><trkpt lat="44.04945340540674" lon="11.389743883000763"><ele>844.0</ele><time>2026-05-02T08:57:32.753Z</time></trkpt><trkpt lat="44.049612797796634" lon="11.389635915980454"><ele>845.3333333333333</ele><time>2026-05-02T08:57:33.753Z</time></trkpt><trkpt lat="44.04979490487156" lon="11.389571804072188"><ele>846.6666666666667</ele><time>2026-05-02T08:57:34.752Z</time></trkpt><trkpt lat="44.049989110784715" lon="11.389580377851894"><ele>848.0</ele><time>2026-05-02T08:57:35.752Z</time></trkpt><trkpt lat="44.05018573140916" lon="11.38964453318635"><ele>841.6666666666667</ele><time>2026-05-02T08:57:36.752Z</time></trkpt><trkpt lat="44.05037833966828" lon="11.38971398317375"><ele>835.3333333333333</ele><time>2026-05-02T08:57:37.752Z</time></trkpt><trkpt lat="44.05057105330008" lon="11.389814947438515"><ele>829.0</ele><time>2026-05-02T08:57:38.752Z</time></trkpt><trkpt lat="44.05075266984194" lon="11.389936205133589"><ele>826.0</ele><time>2026-05-02T08:57:39.752Z</time></trkpt><trkpt lat="44.050929835751724" lon="11.390046677094535"><ele>823.0</ele><time>2026-05-02T08:57:40.752Z</time></trkpt><trkpt lat="44.051103175019655" lon="11.390125155321476"><ele>820.0</ele><time>2026-05-02T08:57:41.752Z</time></trkpt><trkpt lat="44.05128086599444" lon="11.39013582599663"><ele>820.0</ele><time>2026-05-02T08:57:42.752Z</time></trkpt><trkpt lat="44.05145795481767" lon="11.390108518751244"><ele>820.0</ele><time>2026-05-02T08:57:43.752Z</time></trkpt><trkpt lat="44.05163178587215" lon="11.390107895885976"><ele>820.0</ele><time>2026-05-02T08:57:44.752Z</time></trkpt><trkpt lat="44.05181147219985" lon="11.390163676163654"><ele>819.3333333333333</ele><time>2026-05-02T08:57:45.752Z</time></trkpt><trkpt lat="44.05199617971412" lon="11.39026501353261"><ele>818.6666666666667</ele><time>2026-05-02T08:57:46.752Z</time></trkpt><trkpt lat="44.0521870832637" lon="11.390359548440586"><ele>818.0</ele><time>2026-05-02T08:57:47.752Z</time></trkpt><trkpt lat="44.05238206311391" lon="11.390458608552983"><ele>813.6666666666667</ele><time>2026-05-02T08:57:48.752Z</time></trkpt><trkpt lat="44.05257027147595" lon="11.390551924726818"><ele>809.3333333333333</ele><time>2026-05-02T08:57:49.752Z</time></trkpt><trkpt lat="44.0527542428594" lon="11.390605005726412"><ele>805.0</ele><time>2026-05-02T08:57:50.752Z</time></trkpt><trkpt lat="44.05293782592559" lon="11.390562838924348"><ele>810.0</ele><time>2026-05-02T08:57:51.752Z</time></trkpt><trkpt lat="44.05312946764876" lon="11.390474088373775"><ele>815.0</ele><time>2026-05-02T08:57:52.752Z</time></trkpt><trkpt lat="44.05333149319159" lon="11.390420987774352"><ele>820.0</ele><time>2026-05-02T08:57:53.752Z</time></trkpt><trkpt lat="44.05353335297046" lon="11.390420067174277"><ele>823.3333333333333</ele><time>2026-05-02T08:57:54.752Z</time></trkpt><trkpt lat="44.05373297251404" lon="11.390440525792407"><ele>826.6666666666667</ele><time>2026-05-02T08:57:55.752Z</time></trkpt><trkpt lat="44.05392494279207" lon="11.390500563857513"><ele>830.0</ele><time>2026-05-02T08:57:56.752Z</time></trkpt><trkpt lat="44.054116490350005" lon="11.390576079251435"><ele>820.0</ele><time>2026-05-02T08:57:57.752Z</time></trkpt><trkpt lat="44.054300717519716" lon="11.390643986451543"><ele>810.0</ele><time>2026-05-02T08:57:58.752Z</time></trkpt><trkpt lat="44.054467460136145" lon="11.390688719821082"><ele>800.0</ele><time>2026-05-02T08:57:59.752Z</time></trkpt><trkpt lat="44.054612863002816" lon="11.39070677981906"><ele>800.0</ele><time>2026-05-02T08:58:00.751Z</time></trkpt><trkpt lat="44.0547374997486" lon="11.39066882186542"><ele>800.0</ele><time>2026-05-02T08:58:01.751Z</time></trkpt><trkpt lat="44.054831748738835" lon="11.390557131452281"><ele>800.0</ele><time>2026-05-02T08:58:02.751Z</time></trkpt><trkpt lat="44.05491587847243" lon="11.39039130168712"><ele>800.0</ele><time>2026-05-02T08:58:03.751Z</time></trkpt><trkpt lat="44.05498748356329" lon="11.390213279163728"><ele>801.8</ele><time>2026-05-02T08:58:04.751Z</time></trkpt><trkpt lat="44.055074073637584" lon="11.390107451389602"><ele>803.6</ele><time>2026-05-02T08:58:05.751Z</time></trkpt><trkpt lat="44.05516581823346" lon="11.390080518521161"><ele>805.4000000000001</ele><time>2026-05-02T08:58:06.751Z</time></trkpt><trkpt lat="44.05523776706006" lon="11.39014779085435"><ele>807.2</ele><time>2026-05-02T08:58:07.751Z</time></trkpt><trkpt lat="44.05527027021947" lon="11.390262300721588"><ele>809.0</ele><time>2026-05-02T08:58:08.751Z</time></trkpt><trkpt lat="44.05528623260456" lon="11.390423075532215"><ele>805.5</ele><time>2026-05-02T08:58:09.751Z</time></trkpt><trkpt lat="44.055297857299585" lon="11.390620256598769"><ele>802.0</ele><time>2026-05-02T08:58:10.751Z</time></trkpt><trkpt lat="44.055294332822086" lon="11.390817372811291"><ele>798.5</ele><time>2026-05-02T08:58:11.751Z</time></trkpt><trkpt lat="44.05527989682227" lon="11.39102756534012"><ele>795.0</ele><time>2026-05-02T08:58:12.751Z</time></trkpt><trkpt lat="44.05526133483554" lon="11.391249978132874"><ele>791.6666666666667</ele><time>2026-05-02T08:58:13.751Z</time></trkpt><trkpt lat="44.05527467497001" lon="11.39146723000276"><ele>788.3333333333334</ele><time>2026-05-02T08:58:14.751Z</time></trkpt><trkpt lat="44.05534032242345" lon="11.391670386366684"><ele>785.0</ele><time>2026-05-02T08:58:15.751Z</time></trkpt><trkpt lat="44.05542322089612" lon="11.391871272690155"><ele>785.0</ele><time>2026-05-02T08:58:16.751Z</time></trkpt><trkpt lat="44.055513868218426" lon="11.392086675111848"><ele>785.0</ele><time>2026-05-02T08:58:17.751Z</time></trkpt><trkpt lat="44.055621163129935" lon="11.392308719962905"><ele>785.0</ele><time>2026-05-02T08:58:18.751Z</time></trkpt><trkpt lat="44.05571647109096" lon="11.392549495061715"><ele>786.6666666666667</ele><time>2026-05-02T08:58:19.751Z</time></trkpt><trkpt lat="44.05581456034187" lon="11.392772562869862"><ele>788.3333333333333</ele><time>2026-05-02T08:58:20.751Z</time></trkpt><trkpt lat="44.05588791813841" lon="11.392971968478673"><ele>790.0</ele><time>2026-05-02T08:58:21.751Z</time></trkpt><trkpt lat="44.055969709339756" lon="11.393131764663549"><ele>783.5</ele><time>2026-05-02T08:58:22.751Z</time></trkpt><trkpt lat="44.05606508233905" lon="11.3932425311511"><ele>777.0</ele><time>2026-05-02T08:58:23.751Z</time></trkpt><trkpt lat="44.056188032276964" lon="11.393273874558151"><ele>770.5</ele><time>2026-05-02T08:58:24.751Z</time></trkpt><trkpt lat="44.05633339964489" lon="11.393201102872524"><ele>764.0</ele><time>2026-05-02T08:58:25.75Z</time></trkpt><trkpt lat="44.056455260282874" lon="11.393097813866527"><ele>767.0</ele><time>2026-05-02T08:58:26.75Z</time></trkpt><trkpt lat="44.05655476572774" lon="11.39298332094987"><ele>770.0</ele><time>2026-05-02T08:58:27.75Z</time></trkpt><trkpt lat="44.05663993416058" lon="11.392932926835222"><ele>773.0</ele><time>2026-05-02T08:58:28.75Z</time></trkpt><trkpt lat="44.05672817325971" lon="11.39299116581467"><ele>776.0</ele><time>2026-05-02T08:58:29.75Z</time></trkpt><trkpt lat="44.056767883646586" lon="11.393116492023779"><ele>779.0</ele><time>2026-05-02T08:58:30.75Z</time></trkpt><trkpt lat="44.056772685498274" lon="11.39329721024208"><ele>779.0</ele><time>2026-05-02T08:58:31.75Z</time></trkpt><trkpt lat="44.05674899692505" lon="11.393494027000095"><ele>779.0</ele><time>2026-05-02T08:58:32.75Z</time></trkpt><trkpt lat="44.05672298137686" lon="11.393679155975585"><ele>779.0</ele><time>2026-05-02T08:58:33.75Z</time></trkpt><trkpt lat="44.05675375589315" lon="11.393824908516278"><ele>779.0</ele><time>2026-05-02T08:58:34.75Z</time></trkpt><trkpt lat="44.05685613705044" lon="11.393932951765608"><ele>771.6666666666667</ele><time>2026-05-02T08:58:35.75Z</time></trkpt><trkpt lat="44.05699771228993" lon="11.394010252048144"><ele>764.3333333333334</ele><time>2026-05-02T08:58:36.75Z</time></trkpt><trkpt lat="44.05715819818954" lon="11.39409711034643"><ele>757.0</ele><time>2026-05-02T08:58:37.75Z</time></trkpt><trkpt lat="44.057306391337555" lon="11.394217460423771"><ele>757.0</ele><time>2026-05-02T08:58:38.75Z</time></trkpt><trkpt lat="44.05743013727941" lon="11.394345253407709"><ele>757.0</ele><time>2026-05-02T08:58:39.75Z</time></trkpt><trkpt lat="44.057543005683726" lon="11.394456127872067"><ele>757.0</ele><time>2026-05-02T08:58:40.75Z</time></trkpt><trkpt lat="44.057626788915265" lon="11.394557224985705"><ele>757.0</ele><time>2026-05-02T08:58:41.75Z</time></trkpt><trkpt lat="44.057661098221786" lon="11.394675975804027"><ele>758.75</ele><time>2026-05-02T08:58:42.75Z</time></trkpt><trkpt lat="44.05758238758617" lon="11.394809491927704"><ele>760.5</ele><time>2026-05-02T08:58:43.752Z</time></trkpt><trkpt lat="44.0574434572471" lon="11.394893825040858"><ele>762.25</ele><time>2026-05-02T08:58:44.751Z</time></trkpt><trkpt lat="44.05730349910224" lon="11.394957657786936"><ele>764.0</ele><time>2026-05-02T08:58:45.75Z</time></trkpt><trkpt lat="44.05720997469725" lon="11.395073807693937"><ele>757.0</ele><time>2026-05-02T08:58:46.751Z</time></trkpt><trkpt lat="44.057189064646344" lon="11.39523718635536"><ele>750.0</ele><time>2026-05-02T08:58:47.751Z</time></trkpt><trkpt lat="44.05723352313656" lon="11.395396934295384"><ele>743.0</ele><time>2026-05-02T08:58:48.751Z</time></trkpt><trkpt lat="44.05730859659477" lon="11.395545952793162"><ele>736.0</ele><time>2026-05-02T08:58:49.751Z</time></trkpt><trkpt lat="44.05739128932059" lon="11.39574316009111"><ele>745.3333333333334</ele><time>2026-05-02T08:58:50.751Z</time></trkpt><trkpt lat="44.05745525747653" lon="11.395928126914137"><ele>754.6666666666666</ele><time>2026-05-02T08:58:51.751Z</time></trkpt><trkpt lat="44.05751433102528" lon="11.39611397414009"><ele>764.0</ele><time>2026-05-02T08:58:52.751Z</time></trkpt><trkpt lat="44.05757551081427" lon="11.396323069956141"><ele>759.0</ele><time>2026-05-02T08:58:53.751Z</time></trkpt><trkpt lat="44.057636337592605" lon="11.396537658337783"><ele>754.0</ele><time>2026-05-02T08:58:54.751Z</time></trkpt><trkpt lat="44.05768162140895" lon="11.396744506788494"><ele>749.0</ele><time>2026-05-02T08:58:55.751Z</time></trkpt><trkpt lat="44.05768832386397" lon="11.396947721701041"><ele>749.0</ele><time>2026-05-02T08:58:56.75Z</time></trkpt><trkpt lat="44.05768364587109" lon="11.397132640826197"><ele>749.0</ele><time>2026-05-02T08:58:57.75Z</time></trkpt><trkpt lat="44.05772703362991" lon="11.397298315493817"><ele>749.0</ele><time>2026-05-02T08:58:58.75Z</time></trkpt><trkpt lat="44.05777724547187" lon="11.397452630416403"><ele>749.0</ele><time>2026-05-02T08:58:59.75Z</time></trkpt><trkpt lat="44.05786736374912" lon="11.397601789312684"><ele>750.25</ele><time>2026-05-02T08:59:00.75Z</time></trkpt><trkpt lat="44.05798905801885" lon="11.397712123926356"><ele>751.5</ele><time>2026-05-02T08:59:01.75Z</time></trkpt><trkpt lat="44.05811264490274" lon="11.397806033174568"><ele>752.75</ele><time>2026-05-02T08:59:02.75Z</time></trkpt><trkpt lat="44.05825199837123" lon="11.397883714121711"><ele>754.0</ele><time>2026-05-02T08:59:03.75Z</time></trkpt><trkpt lat="44.058406927330466" lon="11.39792117806843"><ele>754.0</ele><time>2026-05-02T08:59:04.75Z</time></trkpt><trkpt lat="44.0585502951941" lon="11.397962058578571"><ele>754.0</ele><time>2026-05-02T08:59:05.75Z</time></trkpt><trkpt lat="44.058691848757945" lon="11.397944100665285"><ele>754.0</ele><time>2026-05-02T08:59:06.75Z</time></trkpt><trkpt lat="44.0588404786398" lon="11.397875886040612"><ele>754.0</ele><time>2026-05-02T08:59:07.75Z</time></trkpt><trkpt lat="44.05898476257962" lon="11.397807713169739"><ele>754.6666666666667</ele><time>2026-05-02T08:59:08.75Z</time></trkpt><trkpt lat="44.05913882111413" lon="11.397789628381984"><ele>755.3333333333334</ele><time>2026-05-02T08:59:09.75Z</time></trkpt><trkpt lat="44.05930280269168" lon="11.397823225868693"><ele>756.0</ele><time>2026-05-02T08:59:10.75Z</time></trkpt><trkpt lat="44.059461027968396" lon="11.397910405978244"><ele>748.3333333333334</ele><time>2026-05-02T08:59:11.75Z</time></trkpt><trkpt lat="44.0596034472133" lon="11.39803009824467"><ele>740.6666666666667</ele><time>2026-05-02T08:59:12.75Z</time></trkpt><trkpt lat="44.05974353679283" lon="11.398115356407205"><ele>733.0</ele><time>2026-05-02T08:59:13.75Z</time></trkpt><trkpt lat="44.05988593379336" lon="11.398150223114833"><ele>732.25</ele><time>2026-05-02T08:59:14.75Z</time></trkpt><trkpt lat="44.06001738492643" lon="11.398187214447411"><ele>731.5</ele><time>2026-05-02T08:59:15.75Z</time></trkpt><trkpt lat="44.060124346206486" lon="11.398075748702343"><ele>730.75</ele><time>2026-05-02T08:59:16.75Z</time></trkpt><trkpt lat="44.060175337726655" lon="11.397878592450361"><ele>730.0</ele><time>2026-05-02T08:59:17.75Z</time></trkpt><trkpt lat="44.060181401852205" lon="11.397631333352557"><ele>734.0</ele><time>2026-05-02T08:59:18.75Z</time></trkpt><trkpt lat="44.06019617570524" lon="11.397385525806929"><ele>738.0</ele><time>2026-05-02T08:59:19.75Z</time></trkpt><trkpt lat="44.06031245708118" lon="11.39720335308547"><ele>742.0</ele><time>2026-05-02T08:59:20.75Z</time></trkpt><trkpt lat="44.06046561117105" lon="11.397083498530373"><ele>736.0</ele><time>2026-05-02T08:59:21.749Z</time></trkpt><trkpt lat="44.060614602248044" lon="11.397024545193853"><ele>730.0</ele><time>2026-05-02T08:59:22.749Z</time></trkpt><trkpt lat="44.06076545432746" lon="11.397080331977005"><ele>724.0</ele><time>2026-05-02T08:59:23.749Z</time></trkpt><trkpt lat="44.06089077611796" lon="11.397208926799358"><ele>724.0</ele><time>2026-05-02T08:59:24.749Z</time></trkpt><trkpt lat="44.06100321939125" lon="11.397308876309921"><ele>724.0</ele><time>2026-05-02T08:59:25.749Z</time></trkpt><trkpt lat="44.06112348631481" lon="11.39730649561383"><ele>724.0</ele><time>2026-05-02T08:59:26.749Z</time></trkpt><trkpt lat="44.061229431506824" lon="11.39719226557856"><ele>724.0</ele><time>2026-05-02T08:59:27.749Z</time></trkpt><trkpt lat="44.061295873377006" lon="11.39698307014473"><ele>727.6666666666667</ele><time>2026-05-02T08:59:28.749Z</time></trkpt><trkpt lat="44.06134508332081" lon="11.396735580257946"><ele>731.3333333333334</ele><time>2026-05-02T08:59:29.749Z</time></trkpt><trkpt lat="44.0614674517451" lon="11.396577184464391"><ele>735.0</ele><time>2026-05-02T08:59:30.749Z</time></trkpt><trkpt lat="44.06161268663601" lon="11.396470009308072"><ele>732.75</ele><time>2026-05-02T08:59:31.749Z</time></trkpt><trkpt lat="44.061737457310784" lon="11.396341450865185"><ele>730.5</ele><time>2026-05-02T08:59:32.749Z</time></trkpt><trkpt lat="44.061803371436476" lon="11.396173029166997"><ele>728.25</ele><time>2026-05-02T08:59:33.749Z</time></trkpt><trkpt lat="44.06180849980406" lon="11.396003385376586"><ele>726.0</ele><time>2026-05-02T08:59:34.749Z</time></trkpt><trkpt lat="44.06174315878493" lon="11.395848385919727"><ele>726.0</ele><time>2026-05-02T08:59:35.749Z</time></trkpt><trkpt lat="44.0617106662311" lon="11.395704147643066"><ele>726.0</ele><time>2026-05-02T08:59:36.749Z</time></trkpt><trkpt lat="44.06174623423312" lon="11.395554078259593"><ele>726.0</ele><time>2026-05-02T08:59:37.749Z</time></trkpt><trkpt lat="44.06181504402428" lon="11.395438042937323"><ele>726.0</ele><time>2026-05-02T08:59:38.749Z</time></trkpt><trkpt lat="44.06190122987391" lon="11.395362168136998"><ele>726.0</ele><time>2026-05-02T08:59:39.749Z</time></trkpt><trkpt lat="44.06199451654717" lon="11.395295952610436"><ele>724.25</ele><time>2026-05-02T08:59:40.749Z</time></trkpt><trkpt lat="44.0621001948879" lon="11.395226914953598"><ele>722.5</ele><time>2026-05-02T08:59:41.749Z</time></trkpt><trkpt lat="44.062219664689636" lon="11.395166318577639"><ele>720.75</ele><time>2026-05-02T08:59:42.749Z</time></trkpt><trkpt lat="44.06234055242331" lon="11.395107223506786"><ele>719.0</ele><time>2026-05-02T08:59:43.749Z</time></trkpt><trkpt lat="44.06246698673547" lon="11.39506387885356"><ele>719.0</ele><time>2026-05-02T08:59:44.749Z</time></trkpt><trkpt lat="44.06257722905298" lon="11.395009631648122"><ele>719.0</ele><time>2026-05-02T08:59:45.749Z</time></trkpt><trkpt lat="44.06267473103582" lon="11.394953788891817"><ele>719.0</ele><time>2026-05-02T08:59:46.748Z</time></trkpt><trkpt lat="44.06276031203377" lon="11.394897632851976"><ele>719.0</ele><time>2026-05-02T08:59:47.748Z</time></trkpt><trkpt lat="44.06283528269087" lon="11.394836027230241"><ele>719.0</ele><time>2026-05-02T08:59:48.748Z</time></trkpt><trkpt lat="44.06290777898781" lon="11.394751597313482"><ele>722.5</ele><time>2026-05-02T08:59:49.748Z</time></trkpt><trkpt lat="44.06294561094325" lon="11.394657571496435"><ele>726.0</ele><time>2026-05-02T08:59:50.748Z</time></trkpt><trkpt lat="44.06295062563217" lon="11.394544600285045"><ele>729.5</ele><time>2026-05-02T08:59:51.748Z</time></trkpt><trkpt lat="44.06294024127481" lon="11.394431325454114"><ele>733.0</ele><time>2026-05-02T08:59:52.748Z</time></trkpt><trkpt lat="44.06292659940107" lon="11.394312553301221"><ele>736.5</ele><time>2026-05-02T08:59:53.748Z</time></trkpt><trkpt lat="44.062928219200884" lon="11.394174552369856"><ele>740.0</ele><time>2026-05-02T08:59:54.748Z</time></trkpt><trkpt lat="44.062927873112265" lon="11.394032309889269"><ele>740.0</ele><time>2026-05-02T08:59:55.748Z</time></trkpt><trkpt lat="44.06293895373895" lon="11.393887468455835"><ele>740.0</ele><time>2026-05-02T08:59:56.748Z</time></trkpt><trkpt lat="44.06295347750648" lon="11.393720436093835"><ele>740.0</ele><time>2026-05-02T08:59:57.748Z</time></trkpt><trkpt lat="44.06296997269634" lon="11.393613823720248"><ele>740.0</ele><time>2026-05-02T08:59:58.748Z</time></trkpt><trkpt lat="44.0630075384011" lon="11.393446812765289"><ele>740.0</ele><time>2026-05-02T08:59:59.748Z</time></trkpt><trkpt lat="44.06302728804309" lon="11.393285368738582"><ele>741.4</ele><time>2026-05-02T09:00:00.748Z</time></trkpt><trkpt lat="44.063018698239304" lon="11.393109371941863"><ele>742.8</ele><time>2026-05-02T09:00:01.748Z</time></trkpt><trkpt lat="44.06303130354837" lon="11.392950563313939"><ele>744.2</ele><time>2026-05-02T09:00:02.748Z</time></trkpt><trkpt lat="44.063075473988505" lon="11.392826763232186"><ele>745.6</ele><time>2026-05-02T09:00:03.748Z</time></trkpt><trkpt lat="44.06310635065822" lon="11.392705739385098"><ele>747.0</ele><time>2026-05-02T09:00:04.748Z</time></trkpt><trkpt lat="44.06311657750723" lon="11.392575777797523"><ele>747.0</ele><time>2026-05-02T09:00:05.748Z</time></trkpt><trkpt lat="44.06308328003092" lon="11.392447995315308"><ele>747.0</ele><time>2026-05-02T09:00:06.748Z</time></trkpt><trkpt lat="44.0630609643787" lon="11.392305077639286"><ele>747.0</ele><time>2026-05-02T09:00:07.748Z</time></trkpt><trkpt lat="44.063040561692745" lon="11.392181437513198"><ele>747.0</ele><time>2026-05-02T09:00:08.748Z</time></trkpt><trkpt lat="44.063014027315624" lon="11.392057867184077"><ele>747.0</ele><time>2026-05-02T09:00:09.748Z</time></trkpt><trkpt lat="44.062989940331434" lon="11.391945321121927"><ele>742.6666666666666</ele><time>2026-05-02T09:00:10.748Z</time></trkpt><trkpt lat="44.06297536811879" lon="11.391842405736602"><ele>738.3333333333334</ele><time>2026-05-02T09:00:11.748Z</time></trkpt><trkpt lat="44.06295212674533" lon="11.391748923061028"><ele>734.0</ele><time>2026-05-02T09:00:12.747Z</time></trkpt><trkpt lat="44.06298998656204" lon="11.391590246932383"><ele>729.6666666666667</ele><time>2026-05-02T09:00:14.747Z</time></trkpt><trkpt lat="44.06307091867544" lon="11.391525541626043"><ele>725.3333333333334</ele><time>2026-05-02T09:00:15.747Z</time></trkpt><trkpt lat="44.06314794354458" lon="11.39149648870654"><ele>721.0</ele><time>2026-05-02T09:00:16.747Z</time></trkpt><trkpt lat="44.06321673542266" lon="11.391537564998789"><ele>718.75</ele><time>2026-05-02T09:00:17.747Z</time></trkpt><trkpt lat="44.06331937892169" lon="11.391615687321462"><ele>716.5</ele><time>2026-05-02T09:00:18.747Z</time></trkpt><trkpt lat="44.06342320338974" lon="11.3917276569214"><ele>714.25</ele><time>2026-05-02T09:00:19.747Z</time></trkpt><trkpt lat="44.063533825561265" lon="11.391888584067784"><ele>712.0</ele><time>2026-05-02T09:00:20.747Z</time></trkpt><trkpt lat="44.06364025047539" lon="11.392053936598483"><ele>712.0</ele><time>2026-05-02T09:00:21.747Z</time></trkpt><trkpt lat="44.063744369743304" lon="11.392168320609159"><ele>712.0</ele><time>2026-05-02T09:00:22.747Z</time></trkpt><trkpt lat="44.063852750181454" lon="11.392262575626384"><ele>712.0</ele><time>2026-05-02T09:00:23.747Z</time></trkpt><trkpt lat="44.063949829260146" lon="11.392345208003098"><ele>712.0</ele><time>2026-05-02T09:00:24.747Z</time></trkpt><trkpt lat="44.0640315361144" lon="11.39244104330758"><ele>711.6666666666667</ele><time>2026-05-02T09:00:25.747Z</time></trkpt><trkpt lat="44.06408775255062" lon="11.392570780044503"><ele>711.3333333333334</ele><time>2026-05-02T09:00:26.747Z</time></trkpt><trkpt lat="44.06413038239545" lon="11.392687420792655"><ele>711.0</ele><time>2026-05-02T09:00:27.747Z</time></trkpt><trkpt lat="44.06417379397999" lon="11.392797539125844"><ele>710.6666666666666</ele><time>2026-05-02T09:00:28.747Z</time></trkpt><trkpt lat="44.064227566479914" lon="11.392881454124222"><ele>710.3333333333333</ele><time>2026-05-02T09:00:29.747Z</time></trkpt><trkpt lat="44.06429344640343" lon="11.392919027458856"><ele>710.0</ele><time>2026-05-02T09:00:30.747Z</time></trkpt><trkpt lat="44.064372716314566" lon="11.392902014599722"><ele>710.0</ele><time>2026-05-02T09:00:31.747Z</time></trkpt><trkpt lat="44.06445756246451" lon="11.392847042184261"><ele>710.0</ele><time>2026-05-02T09:00:32.747Z</time></trkpt><trkpt lat="44.064551037053064" lon="11.392752008223178"><ele>710.0</ele><time>2026-05-02T09:00:33.747Z</time></trkpt><trkpt lat="44.06465129093935" lon="11.392671118398304"><ele>710.0</ele><time>2026-05-02T09:00:34.747Z</time></trkpt><trkpt lat="44.06475091739656" lon="11.39259003653469"><ele>710.0</ele><time>2026-05-02T09:00:35.747Z</time></trkpt><trkpt lat="44.064834143268094" lon="11.392491079214597"><ele>710.0</ele><time>2026-05-02T09:00:36.747Z</time></trkpt><trkpt lat="44.06490914570632" lon="11.392373345548933"><ele>710.0</ele><time>2026-05-02T09:00:37.746Z</time></trkpt><trkpt lat="44.06498456289927" lon="11.392258380839158"><ele>710.0</ele><time>2026-05-02T09:00:38.746Z</time></trkpt><trkpt lat="44.065055188998166" lon="11.392161869725584"><ele>710.0</ele><time>2026-05-02T09:00:39.746Z</time></trkpt><trkpt lat="44.06511832971511" lon="11.392071664598506"><ele>710.0</ele><time>2026-05-02T09:00:40.746Z</time></trkpt><trkpt lat="44.06518148462493" lon="11.391981369383887"><ele>714.6</ele><time>2026-05-02T09:00:41.746Z</time></trkpt><trkpt lat="44.06523080001368" lon="11.391891306972644"><ele>719.2</ele><time>2026-05-02T09:00:42.746Z</time></trkpt><trkpt lat="44.065264691622566" lon="11.391803244129196"><ele>723.8</ele><time>2026-05-02T09:00:43.746Z</time></trkpt><trkpt lat="44.06527280545248" lon="11.391691064822075"><ele>728.4</ele><time>2026-05-02T09:00:44.746Z</time></trkpt><trkpt lat="44.0653024056675" lon="11.391542946469553"><ele>733.0</ele><time>2026-05-02T09:00:45.746Z</time></trkpt><trkpt lat="44.065337960051046" lon="11.391390905995134"><ele>735.75</ele><time>2026-05-02T09:00:46.746Z</time></trkpt><trkpt lat="44.065377227903234" lon="11.391225329260966"><ele>738.5</ele><time>2026-05-02T09:00:47.746Z</time></trkpt><trkpt lat="44.06541545754851" lon="11.391050592410943"><ele>741.25</ele><time>2026-05-02T09:00:48.746Z</time></trkpt><trkpt lat="44.065452788027414" lon="11.390876507542936"><ele>744.0</ele><time>2026-05-02T09:00:49.748Z</time></trkpt><trkpt lat="44.06549439862314" lon="11.390705004693958"><ele>744.0</ele><time>2026-05-02T09:00:50.748Z</time></trkpt><trkpt lat="44.06556029476928" lon="11.390547692024832"><ele>744.0</ele><time>2026-05-02T09:00:51.748Z</time></trkpt><trkpt lat="44.06564356256879" lon="11.39041086164898"><ele>744.0</ele><time>2026-05-02T09:00:52.748Z</time></trkpt><trkpt lat="44.065733073953986" lon="11.390304227462718"><ele>744.0</ele><time>2026-05-02T09:00:53.748Z</time></trkpt><trkpt lat="44.06580495456513" lon="11.390198823639981"><ele>738.5</ele><time>2026-05-02T09:00:54.748Z</time></trkpt><trkpt lat="44.06583530300613" lon="11.390041508896966"><ele>733.0</ele><time>2026-05-02T09:00:55.748Z</time></trkpt><trkpt lat="44.065843821711226" lon="11.389868104340724"><ele>727.5</ele><time>2026-05-02T09:00:56.748Z</time></trkpt><trkpt lat="44.065890752146544" lon="11.389719435437115"><ele>722.0</ele><time>2026-05-02T09:00:57.747Z</time></trkpt><trkpt lat="44.06598557577989" lon="11.389603970730569"><ele>722.0</ele><time>2026-05-02T09:00:58.748Z</time></trkpt><trkpt lat="44.0661196312512" lon="11.389553831371476"><ele>722.0</ele><time>2026-05-02T09:00:59.747Z</time></trkpt><trkpt lat="44.06624990552139" lon="11.389515924492189"><ele>722.0</ele><time>2026-05-02T09:01:00.747Z</time></trkpt><trkpt lat="44.06637078554034" lon="11.38945750903251"><ele>722.0</ele><time>2026-05-02T09:01:01.747Z</time></trkpt><trkpt lat="44.066484278475755" lon="11.389337627387874"><ele>722.0</ele><time>2026-05-02T09:01:02.748Z</time></trkpt><trkpt lat="44.06660045584174" lon="11.38920539604598"><ele>722.0</ele><time>2026-05-02T09:01:03.748Z</time></trkpt><trkpt lat="44.06671357359772" lon="11.38906047151673"><ele>722.0</ele><time>2026-05-02T09:01:04.748Z</time></trkpt><trkpt lat="44.06682317597789" lon="11.38890019490384"><ele>717.0</ele><time>2026-05-02T09:01:05.748Z</time></trkpt><trkpt lat="44.066919322133344" lon="11.388711872762991"><ele>712.0</ele><time>2026-05-02T09:01:06.748Z</time></trkpt><trkpt lat="44.06701695324042" lon="11.388534485507526"><ele>707.0</ele><time>2026-05-02T09:01:07.748Z</time></trkpt><trkpt lat="44.067100021074566" lon="11.388349005321217"><ele>707.0</ele><time>2026-05-02T09:01:08.748Z</time></trkpt><trkpt lat="44.0671749079762" lon="11.388148781980707"><ele>707.0</ele><time>2026-05-02T09:01:09.747Z</time></trkpt><trkpt lat="44.067241507276194" lon="11.387930419531594"><ele>707.0</ele><time>2026-05-02T09:01:10.747Z</time></trkpt><trkpt lat="44.06729535414525" lon="11.387704524205002"><ele>709.5</ele><time>2026-05-02T09:01:11.747Z</time></trkpt><trkpt lat="44.067337306962294" lon="11.387476103381188"><ele>712.0</ele><time>2026-05-02T09:01:12.747Z</time></trkpt><trkpt lat="44.06736347333492" lon="11.387261016872637"><ele>714.5</ele><time>2026-05-02T09:01:13.747Z</time></trkpt><trkpt lat="44.06737768777745" lon="11.387094308291877"><ele>717.0</ele><time>2026-05-02T09:01:14.747Z</time></trkpt><trkpt lat="44.06743326425901" lon="11.386964480982595"><ele>713.25</ele><time>2026-05-02T09:01:15.747Z</time></trkpt><trkpt lat="44.06753680467056" lon="11.386884173108738"><ele>709.5</ele><time>2026-05-02T09:01:16.747Z</time></trkpt><trkpt lat="44.067680210854775" lon="11.38683895055026"><ele>705.75</ele><time>2026-05-02T09:01:17.747Z</time></trkpt><trkpt lat="44.0678253343747" lon="11.386784490222002"><ele>702.0</ele><time>2026-05-02T09:01:18.747Z</time></trkpt><trkpt lat="44.067958126618464" lon="11.386743263819309"><ele>702.0</ele><time>2026-05-02T09:01:19.747Z</time></trkpt><trkpt lat="44.0680903958878" lon="11.386675291797742"><ele>702.0</ele><time>2026-05-02T09:01:20.747Z</time></trkpt><trkpt lat="44.06818852778444" lon="11.386537864476647"><ele>702.0</ele><time>2026-05-02T09:01:21.747Z</time></trkpt><trkpt lat="44.06824425845095" lon="11.386337114872077"><ele>702.0</ele><time>2026-05-02T09:01:22.747Z</time></trkpt><trkpt lat="44.068264325814596" lon="11.38609773845769"><ele>697.6666666666666</ele><time>2026-05-02T09:01:23.747Z</time></trkpt><trkpt lat="44.068300456660836" lon="11.385853894542908"><ele>693.3333333333333</ele><time>2026-05-02T09:01:24.747Z</time></trkpt><trkpt lat="44.068352004965895" lon="11.385610678776155"><ele>689.0</ele><time>2026-05-02T09:01:25.747Z</time></trkpt><trkpt lat="44.06841792518588" lon="11.38535489301873"><ele>689.0</ele><time>2026-05-02T09:01:26.747Z</time></trkpt><trkpt lat="44.06848744914191" lon="11.385120021805823"><ele>689.0</ele><time>2026-05-02T09:01:27.747Z</time></trkpt><trkpt lat="44.06854197023488" lon="11.384905180509838"><ele>689.0</ele><time>2026-05-02T09:01:28.747Z</time></trkpt><trkpt lat="44.068574734347" lon="11.384688076391676"><ele>690.0</ele><time>2026-05-02T09:01:29.747Z</time></trkpt><trkpt lat="44.06860583814499" lon="11.38444819671661"><ele>691.0</ele><time>2026-05-02T09:01:30.747Z</time></trkpt><trkpt lat="44.06863355540212" lon="11.384198531312745"><ele>692.0</ele><time>2026-05-02T09:01:31.747Z</time></trkpt><trkpt lat="44.06865400620342" lon="11.383952327541431"><ele>692.0</ele><time>2026-05-02T09:01:32.747Z</time></trkpt><trkpt lat="44.068663431007074" lon="11.383721057037723"><ele>692.0</ele><time>2026-05-02T09:01:33.747Z</time></trkpt><trkpt lat="44.06866655709503" lon="11.383523969145704"><ele>692.0</ele><time>2026-05-02T09:01:34.747Z</time></trkpt><trkpt lat="44.06867943473111" lon="11.38334609675286"><ele>692.0</ele><time>2026-05-02T09:01:35.746Z</time></trkpt><trkpt lat="44.068745434604736" lon="11.383197967706401"><ele>692.0</ele><time>2026-05-02T09:01:36.746Z</time></trkpt><trkpt lat="44.068858950815866" lon="11.383094613105936"><ele>692.0</ele><time>2026-05-02T09:01:37.746Z</time></trkpt><trkpt lat="44.06899004790653" lon="11.38305907896007"><ele>692.0</ele><time>2026-05-02T09:01:38.746Z</time></trkpt><trkpt lat="44.06914416296638" lon="11.38314707276143"><ele>692.0</ele><time>2026-05-02T09:01:39.746Z</time></trkpt><trkpt lat="44.069283676620856" lon="11.383287383841862"><ele>692.6666666666666</ele><time>2026-05-02T09:01:40.746Z</time></trkpt><trkpt lat="44.06941764420426" lon="11.383414006984715"><ele>693.3333333333334</ele><time>2026-05-02T09:01:41.746Z</time></trkpt><trkpt lat="44.06957318276812" lon="11.383500246994782"><ele>694.0</ele><time>2026-05-02T09:01:42.746Z</time></trkpt><trkpt lat="44.0697181455727" lon="11.383565422108386"><ele>694.0</ele><time>2026-05-02T09:01:43.746Z</time></trkpt><trkpt lat="44.06985181891292" lon="11.383623591094086"><ele>694.0</ele><time>2026-05-02T09:01:44.746Z</time></trkpt><trkpt lat="44.06996267396382" lon="11.383712134350274"><ele>694.0</ele><time>2026-05-02T09:01:45.746Z</time></trkpt><trkpt lat="44.070043089835046" lon="11.38387493885486"><ele>694.0</ele><time>2026-05-02T09:01:46.746Z</time></trkpt><trkpt lat="44.070103076684546" lon="11.384057347033746"><ele>694.6666666666667</ele><time>2026-05-02T09:01:47.746Z</time></trkpt><trkpt lat="44.0701532287079" lon="11.384263741552974"><ele>695.3333333333334</ele><time>2026-05-02T09:01:48.746Z</time></trkpt><trkpt lat="44.07019081265114" lon="11.384499185451334"><ele>696.0</ele><time>2026-05-02T09:01:49.746Z</time></trkpt><trkpt lat="44.070255356873794" lon="11.384724613445144"><ele>694.3333333333334</ele><time>2026-05-02T09:01:50.746Z</time></trkpt><trkpt lat="44.07034175690614" lon="11.384959471544168"><ele>692.6666666666667</ele><time>2026-05-02T09:01:51.746Z</time></trkpt><trkpt lat="44.070422812097355" lon="11.3851955791311"><ele>691.0</ele><time>2026-05-02T09:01:52.746Z</time></trkpt><trkpt lat="44.07050611481132" lon="11.385432068835884"><ele>689.3333333333334</ele><time>2026-05-02T09:01:53.746Z</time></trkpt><trkpt lat="44.070608610812414" lon="11.385653949058236"><ele>687.6666666666666</ele><time>2026-05-02T09:01:54.746Z</time></trkpt><trkpt lat="44.07074675493759" lon="11.38586144021538"><ele>686.0</ele><time>2026-05-02T09:01:55.746Z</time></trkpt><trkpt lat="44.070895923404024" lon="11.386050494003133"><ele>691.6666666666666</ele><time>2026-05-02T09:01:56.746Z</time></trkpt><trkpt lat="44.07105962194897" lon="11.386223308956547"><ele>697.3333333333334</ele><time>2026-05-02T09:01:57.746Z</time></trkpt><trkpt lat="44.07123037495756" lon="11.386377677408682"><ele>703.0</ele><time>2026-05-02T09:01:58.746Z</time></trkpt><trkpt lat="44.07138449394672" lon="11.386484693963967"><ele>703.0</ele><time>2026-05-02T09:01:59.746Z</time></trkpt><trkpt lat="44.071525880762984" lon="11.386530641810404"><ele>703.0</ele><time>2026-05-02T09:02:00.745Z</time></trkpt><trkpt lat="44.07166865431962" lon="11.386482177718465"><ele>703.0</ele><time>2026-05-02T09:02:01.745Z</time></trkpt><trkpt lat="44.0717972580353" lon="11.386317308982724"><ele>709.6666666666667</ele><time>2026-05-02T09:02:02.745Z</time></trkpt><trkpt lat="44.07189487277633" lon="11.386107203087677"><ele>716.3333333333334</ele><time>2026-05-02T09:02:03.745Z</time></trkpt><trkpt lat="44.0720133562511" lon="11.38593139988486"><ele>723.0</ele><time>2026-05-02T09:02:04.745Z</time></trkpt><trkpt lat="44.072134629837734" lon="11.385868824412285"><ele>723.0</ele><time>2026-05-02T09:02:05.745Z</time></trkpt><trkpt lat="44.072254240598674" lon="11.385932548296326"><ele>723.0</ele><time>2026-05-02T09:02:06.745Z</time></trkpt><trkpt lat="44.07237270738559" lon="11.386073451392742"><ele>723.0</ele><time>2026-05-02T09:02:07.745Z</time></trkpt><trkpt lat="44.07251206271287" lon="11.386277591320685"><ele>722.0</ele><time>2026-05-02T09:02:08.745Z</time></trkpt><trkpt lat="44.072673416228355" lon="11.386429997934018"><ele>721.0</ele><time>2026-05-02T09:02:09.745Z</time></trkpt><trkpt lat="44.0728230029907" lon="11.38656340318925"><ele>720.0</ele><time>2026-05-02T09:02:10.745Z</time></trkpt><trkpt lat="44.07296637678833" lon="11.386677522102223"><ele>720.0</ele><time>2026-05-02T09:02:11.745Z</time></trkpt><trkpt lat="44.07308887301675" lon="11.386784855210504"><ele>720.0</ele><time>2026-05-02T09:02:12.745Z</time></trkpt><trkpt lat="44.07319768665002" lon="11.386853622500904"><ele>720.0</ele><time>2026-05-02T09:02:13.745Z</time></trkpt><trkpt lat="44.073312805337515" lon="11.386838145846157"><ele>720.0</ele><time>2026-05-02T09:02:14.745Z</time></trkpt><trkpt lat="44.07338751948463" lon="11.386739376255091"><ele>720.0</ele><time>2026-05-02T09:02:15.745Z</time></trkpt><trkpt lat="44.07338405210619" lon="11.386581179042242"><ele>720.0</ele><time>2026-05-02T09:02:16.745Z</time></trkpt><trkpt lat="44.07332950464283" lon="11.386402057653132"><ele>720.0</ele><time>2026-05-02T09:02:17.745Z</time></trkpt><trkpt lat="44.07326565711682" lon="11.386201935976967"><ele>720.0</ele><time>2026-05-02T09:02:18.745Z</time></trkpt><trkpt lat="44.0732431532886" lon="11.385980610317901"><ele>717.0</ele><time>2026-05-02T09:02:19.745Z</time></trkpt><trkpt lat="44.07328798899134" lon="11.385746926474072"><ele>714.0</ele><time>2026-05-02T09:02:20.745Z</time></trkpt><trkpt lat="44.07335654329083" lon="11.385539024390386"><ele>711.0</ele><time>2026-05-02T09:02:21.745Z</time></trkpt><trkpt lat="44.073433116527056" lon="11.385345608652676"><ele>711.0</ele><time>2026-05-02T09:02:22.745Z</time></trkpt><trkpt lat="44.073538279289544" lon="11.385205322293581"><ele>711.0</ele><time>2026-05-02T09:02:23.745Z</time></trkpt><trkpt lat="44.0736734629878" lon="11.385168241650268"><ele>711.0</ele><time>2026-05-02T09:02:24.745Z</time></trkpt><trkpt lat="44.07382466948395" lon="11.385244968921505"><ele>711.0</ele><time>2026-05-02T09:02:25.745Z</time></trkpt><trkpt lat="44.073961511551296" lon="11.385364772621267"><ele>711.0</ele><time>2026-05-02T09:02:26.744Z</time></trkpt><trkpt lat="44.07404886974451" lon="11.385322050246266"><ele>711.0</ele><time>2026-05-02T09:02:27.744Z</time></trkpt><trkpt lat="44.074161297190436" lon="11.385354173973349"><ele>711.0</ele><time>2026-05-02T09:02:28.744Z</time></trkpt><trkpt lat="44.074265004128584" lon="11.385283608628535"><ele>711.0</ele><time>2026-05-02T09:02:29.744Z</time></trkpt><trkpt lat="44.07432882058045" lon="11.385138404516333"><ele>711.0</ele><time>2026-05-02T09:02:30.744Z</time></trkpt><trkpt lat="44.074349986266306" lon="11.38497052801753"><ele>709.75</ele><time>2026-05-02T09:02:31.744Z</time></trkpt><trkpt lat="44.074329266744456" lon="11.384790402856067"><ele>708.5</ele><time>2026-05-02T09:02:32.744Z</time></trkpt><trkpt lat="44.07432328768887" lon="11.384615987585013"><ele>707.25</ele><time>2026-05-02T09:02:33.744Z</time></trkpt><trkpt lat="44.07439357592092" lon="11.384467060496876"><ele>706.0</ele><time>2026-05-02T09:02:34.744Z</time></trkpt><trkpt lat="44.07451251529085" lon="11.384325166881496"><ele>706.0</ele><time>2026-05-02T09:02:35.744Z</time></trkpt><trkpt lat="44.07463606315812" lon="11.38415978788571"><ele>706.0</ele><time>2026-05-02T09:02:36.744Z</time></trkpt><trkpt lat="44.074747816462825" lon="11.384006438598183"><ele>706.0</ele><time>2026-05-02T09:02:37.744Z</time></trkpt><trkpt lat="44.07486600608508" lon="11.38390088254015"><ele>697.3333333333334</ele><time>2026-05-02T09:02:38.744Z</time></trkpt><trkpt lat="44.075003686598116" lon="11.383872976367716"><ele>688.6666666666666</ele><time>2026-05-02T09:02:39.744Z</time></trkpt><trkpt lat="44.075174173157116" lon="11.383924064467317"><ele>680.0</ele><time>2026-05-02T09:02:40.744Z</time></trkpt><trkpt lat="44.075327152123904" lon="11.383948777108749"><ele>680.0</ele><time>2026-05-02T09:02:41.744Z</time></trkpt><trkpt lat="44.07547794092061" lon="11.383870312498601"><ele>680.0</ele><time>2026-05-02T09:02:42.744Z</time></trkpt><trkpt lat="44.075623219662724" lon="11.383750339718413"><ele>680.0</ele><time>2026-05-02T09:02:43.744Z</time></trkpt><trkpt lat="44.07576202362296" lon="11.383623589335567"><ele>681.0</ele><time>2026-05-02T09:02:44.744Z</time></trkpt><trkpt lat="44.075882393675" lon="11.383509477434425"><ele>682.0</ele><time>2026-05-02T09:02:45.744Z</time></trkpt><trkpt lat="44.07599125690794" lon="11.383390414438923"><ele>683.0</ele><time>2026-05-02T09:02:46.744Z</time></trkpt><trkpt lat="44.07609909625019" lon="11.383330496178706"><ele>684.0</ele><time>2026-05-02T09:02:47.744Z</time></trkpt><trkpt lat="44.07622370840477" lon="11.383361980472227"><ele>684.0</ele><time>2026-05-02T09:02:48.744Z</time></trkpt><trkpt lat="44.07637058385862" lon="11.383470284541518"><ele>684.0</ele><time>2026-05-02T09:02:49.744Z</time></trkpt><trkpt lat="44.07656267209811" lon="11.38360825720533"><ele>684.0</ele><time>2026-05-02T09:02:50.744Z</time></trkpt><trkpt lat="44.076724659665814" lon="11.383683433793795"><ele>684.3333333333334</ele><time>2026-05-02T09:02:51.743Z</time></trkpt><trkpt lat="44.0768764546367" lon="11.383718823569485"><ele>684.6666666666667</ele><time>2026-05-02T09:02:52.743Z</time></trkpt><trkpt lat="44.07702726457715" lon="11.383685489291"><ele>685.0</ele><time>2026-05-02T09:02:53.743Z</time></trkpt><trkpt lat="44.077172447526216" lon="11.383585499300905"><ele>685.0</ele><time>2026-05-02T09:02:54.743Z</time></trkpt><trkpt lat="44.077314805879354" lon="11.383427036315393"><ele>685.0</ele><time>2026-05-02T09:02:55.745Z</time></trkpt><trkpt lat="44.07745848116887" lon="11.383298883669182"><ele>685.0</ele><time>2026-05-02T09:02:56.745Z</time></trkpt><trkpt lat="44.07758219479686" lon="11.383199722229133"><ele>682.75</ele><time>2026-05-02T09:02:57.745Z</time></trkpt><trkpt lat="44.07766170132853" lon="11.383056866622127"><ele>680.5</ele><time>2026-05-02T09:02:58.745Z</time></trkpt><trkpt lat="44.07769612359373" lon="11.382868134011861"><ele>678.25</ele><time>2026-05-02T09:02:59.745Z</time></trkpt><trkpt lat="44.07770668217025" lon="11.382631728908958"><ele>676.0</ele><time>2026-05-02T09:03:00.745Z</time></trkpt><trkpt lat="44.07772798562589" lon="11.382376396725958"><ele>680.6666666666667</ele><time>2026-05-02T09:03:01.745Z</time></trkpt><trkpt lat="44.07780021680766" lon="11.382146334297095"><ele>685.3333333333334</ele><time>2026-05-02T09:03:02.745Z</time></trkpt><trkpt lat="44.07789302328302" lon="11.381941819077307"><ele>690.0</ele><time>2026-05-02T09:03:03.744Z</time></trkpt><trkpt lat="44.07800786844776" lon="11.381751950467681"><ele>690.0</ele><time>2026-05-02T09:03:04.745Z</time></trkpt><trkpt lat="44.07813688469759" lon="11.381558992667484"><ele>690.0</ele><time>2026-05-02T09:03:05.744Z</time></trkpt><trkpt lat="44.0782673278598" lon="11.381365095445627"><ele>690.0</ele><time>2026-05-02T09:03:06.744Z</time></trkpt><trkpt lat="44.07838778549081" lon="11.381172817611985"><ele>681.6666666666666</ele><time>2026-05-02T09:03:07.744Z</time></trkpt><trkpt lat="44.07849799237336" lon="11.38097786682105"><ele>673.3333333333333</ele><time>2026-05-02T09:03:08.744Z</time></trkpt><trkpt lat="44.07860411372021" lon="11.380791817206301"><ele>665.0</ele><time>2026-05-02T09:03:09.744Z</time></trkpt><trkpt lat="44.078728683655974" lon="11.38062721005063"><ele>663.6666666666666</ele><time>2026-05-02T09:03:10.744Z</time></trkpt><trkpt lat="44.07887400353366" lon="11.380514974768468"><ele>662.3333333333334</ele><time>2026-05-02T09:03:11.744Z</time></trkpt><trkpt lat="44.07904129688538" lon="11.380448690995097"><ele>661.0</ele><time>2026-05-02T09:03:12.744Z</time></trkpt><trkpt lat="44.079218296240455" lon="11.380414268927373"><ele>661.0</ele><time>2026-05-02T09:03:13.744Z</time></trkpt><trkpt lat="44.07938912875318" lon="11.380371515997547"><ele>661.0</ele><time>2026-05-02T09:03:14.744Z</time></trkpt><trkpt lat="44.07953420874631" lon="11.380263511688232"><ele>661.0</ele><time>2026-05-02T09:03:15.744Z</time></trkpt><trkpt lat="44.07966267093637" lon="11.380084123861963"><ele>661.0</ele><time>2026-05-02T09:03:16.744Z</time></trkpt><trkpt lat="44.07980256611951" lon="11.379888841944439"><ele>661.0</ele><time>2026-05-02T09:03:17.744Z</time></trkpt><trkpt lat="44.07992682296305" lon="11.379709029004408"><ele>661.0</ele><time>2026-05-02T09:03:18.744Z</time></trkpt><trkpt lat="44.08004368603038" lon="11.379529568541502"><ele>657.0</ele><time>2026-05-02T09:03:19.744Z</time></trkpt><trkpt lat="44.08014396032943" lon="11.379361474863567"><ele>653.0</ele><time>2026-05-02T09:03:20.744Z</time></trkpt><trkpt lat="44.08022248992063" lon="11.37921814094754"><ele>649.0</ele><time>2026-05-02T09:03:21.744Z</time></trkpt><trkpt lat="44.080291854426285" lon="11.379103172562564"><ele>645.0</ele><time>2026-05-02T09:03:22.744Z</time></trkpt><trkpt lat="44.08036315012191" lon="11.379052979748662"><ele>645.0</ele><time>2026-05-02T09:03:23.744Z</time></trkpt><trkpt lat="44.08045173648114" lon="11.37913611929778"><ele>645.0</ele><time>2026-05-02T09:03:24.744Z</time></trkpt><trkpt lat="44.08049890295837" lon="11.379311326551884"><ele>645.0</ele><time>2026-05-02T09:03:25.744Z</time></trkpt><trkpt lat="44.08045958043108" lon="11.37950679526062"><ele>645.0</ele><time>2026-05-02T09:03:26.744Z</time></trkpt><trkpt lat="44.08035918686656" lon="11.379690101902101"><ele>643.75</ele><time>2026-05-02T09:03:27.744Z</time></trkpt><trkpt lat="44.080263089207875" lon="11.379844044383574"><ele>642.5</ele><time>2026-05-02T09:03:28.744Z</time></trkpt><trkpt lat="44.08023590862684" lon="11.380016379016057"><ele>641.25</ele><time>2026-05-02T09:03:29.744Z</time></trkpt><trkpt lat="44.08028074432549" lon="11.380217132693796"><ele>640.0</ele><time>2026-05-02T09:03:30.744Z</time></trkpt><trkpt lat="44.080405894821055" lon="11.380388854312812"><ele>639.0</ele><time>2026-05-02T09:03:31.744Z</time></trkpt><trkpt lat="44.080554731531606" lon="11.380535050129291"><ele>638.0</ele><time>2026-05-02T09:03:32.743Z</time></trkpt><trkpt lat="44.08070921989803" lon="11.380685327167082"><ele>637.0</ele><time>2026-05-02T09:03:33.743Z</time></trkpt><trkpt lat="44.080830251359295" lon="11.38085512966152"><ele>632.6666666666667</ele><time>2026-05-02T09:03:34.743Z</time></trkpt><trkpt lat="44.08091697273701" lon="11.381036510387984"><ele>628.3333333333334</ele><time>2026-05-02T09:03:35.743Z</time></trkpt><trkpt lat="44.080951550355564" lon="11.381272680336254"><ele>624.0</ele><time>2026-05-02T09:03:36.743Z</time></trkpt><trkpt lat="44.08095176797425" lon="11.381542155224336"><ele>623.0</ele><time>2026-05-02T09:03:37.743Z</time></trkpt><trkpt lat="44.080915218748046" lon="11.381818506896774"><ele>622.0</ele><time>2026-05-02T09:03:38.743Z</time></trkpt><trkpt lat="44.08086525822278" lon="11.382096811077982"><ele>621.0</ele><time>2026-05-02T09:03:39.743Z</time></trkpt><trkpt lat="44.080796842991596" lon="11.382350613473948"><ele>620.3333333333334</ele><time>2026-05-02T09:03:40.743Z</time></trkpt><trkpt lat="44.08070007969045" lon="11.382558360632592"><ele>619.6666666666667</ele><time>2026-05-02T09:03:41.743Z</time></trkpt><trkpt lat="44.08061238873732" lon="11.382748323275795"><ele>619.0</ele><time>2026-05-02T09:03:42.743Z</time></trkpt><trkpt lat="44.08058758756312" lon="11.382955507562615"><ele>615.3333333333334</ele><time>2026-05-02T09:03:43.743Z</time></trkpt><trkpt lat="44.08062674848178" lon="11.383193623501276"><ele>611.6666666666666</ele><time>2026-05-02T09:03:44.743Z</time></trkpt><trkpt lat="44.080716858236826" lon="11.383418323250897"><ele>608.0</ele><time>2026-05-02T09:03:45.743Z</time></trkpt><trkpt lat="44.08082813885127" lon="11.383589770331108"><ele>608.0</ele><time>2026-05-02T09:03:46.743Z</time></trkpt><trkpt lat="44.08096032728801" lon="11.383670823571697"><ele>608.0</ele><time>2026-05-02T09:03:47.743Z</time></trkpt><trkpt lat="44.08112976084776" lon="11.383657616329861"><ele>608.0</ele><time>2026-05-02T09:03:48.743Z</time></trkpt><trkpt lat="44.08131871796023" lon="11.383567148777761"><ele>608.0</ele><time>2026-05-02T09:03:49.743Z</time></trkpt><trkpt lat="44.08148591869763" lon="11.383434892307475"><ele>608.0</ele><time>2026-05-02T09:03:50.743Z</time></trkpt><trkpt lat="44.08161269273157" lon="11.383300827845538"><ele>608.0</ele><time>2026-05-02T09:03:51.743Z</time></trkpt><trkpt lat="44.081743255753366" lon="11.38320021665178"><ele>606.6666666666666</ele><time>2026-05-02T09:03:52.743Z</time></trkpt><trkpt lat="44.08187799480854" lon="11.383225363009126"><ele>605.3333333333334</ele><time>2026-05-02T09:03:53.743Z</time></trkpt><trkpt lat="44.08201370134356" lon="11.383347494460553"><ele>604.0</ele><time>2026-05-02T09:03:54.743Z</time></trkpt><trkpt lat="44.082121452804756" lon="11.38355646317502"><ele>604.0</ele><time>2026-05-02T09:03:55.743Z</time></trkpt><trkpt lat="44.082241666900465" lon="11.3837325504287"><ele>604.0</ele><time>2026-05-02T09:03:56.743Z</time></trkpt><trkpt lat="44.082393454356236" lon="11.383802453260918"><ele>604.0</ele><time>2026-05-02T09:03:57.743Z</time></trkpt><trkpt lat="44.082556799888714" lon="11.383745385431917"><ele>601.3333333333334</ele><time>2026-05-02T09:03:58.742Z</time></trkpt><trkpt lat="44.08269322097309" lon="11.383592219358011"><ele>598.6666666666666</ele><time>2026-05-02T09:03:59.742Z</time></trkpt><trkpt lat="44.082789350310996" lon="11.383376642613781"><ele>596.0</ele><time>2026-05-02T09:04:00.742Z</time></trkpt><trkpt lat="44.08283309861731" lon="11.383120166343799"><ele>594.0</ele><time>2026-05-02T09:04:01.742Z</time></trkpt><trkpt lat="44.082840934951804" lon="11.382859282058341"><ele>592.0</ele><time>2026-05-02T09:04:02.742Z</time></trkpt><trkpt lat="44.082796100497646" lon="11.38260245390254"><ele>590.0</ele><time>2026-05-02T09:04:03.742Z</time></trkpt><trkpt lat="44.08269338084573" lon="11.382380145130705"><ele>590.0</ele><time>2026-05-02T09:04:04.742Z</time></trkpt><trkpt lat="44.08253111427768" lon="11.382211447756067"><ele>590.0</ele><time>2026-05-02T09:04:05.742Z</time></trkpt><trkpt lat="44.082379828526264" lon="11.382045410202647"><ele>590.0</ele><time>2026-05-02T09:04:06.742Z</time></trkpt><trkpt lat="44.08226734487687" lon="11.38186581363683"><ele>593.0</ele><time>2026-05-02T09:04:07.742Z</time></trkpt><trkpt lat="44.08222323544429" lon="11.381661864769708"><ele>596.0</ele><time>2026-05-02T09:04:08.742Z</time></trkpt><trkpt lat="44.08222767520898" lon="11.381422397741492"><ele>599.0</ele><time>2026-05-02T09:04:09.742Z</time></trkpt><trkpt lat="44.08226123950411" lon="11.381180942617872"><ele>599.0</ele><time>2026-05-02T09:04:10.742Z</time></trkpt><trkpt lat="44.08230514013051" lon="11.38095011200986"><ele>599.0</ele><time>2026-05-02T09:04:11.742Z</time></trkpt><trkpt lat="44.082344644006355" lon="11.38072293968606"><ele>599.0</ele><time>2026-05-02T09:04:12.742Z</time></trkpt><trkpt lat="44.082381284339064" lon="11.380482010192157"><ele>599.0</ele><time>2026-05-02T09:04:13.742Z</time></trkpt><trkpt lat="44.08242919457164" lon="11.380250524872366"><ele>599.0</ele><time>2026-05-02T09:04:14.742Z</time></trkpt><trkpt lat="44.08251166798799" lon="11.380039428539677"><ele>599.0</ele><time>2026-05-02T09:04:15.742Z</time></trkpt><trkpt lat="44.0826211369723" lon="11.379864207140923"><ele>595.0</ele><time>2026-05-02T09:04:16.742Z</time></trkpt><trkpt lat="44.08275347313348" lon="11.379721830110265"><ele>591.0</ele><time>2026-05-02T09:04:17.742Z</time></trkpt><trkpt lat="44.082901411995714" lon="11.379612074158421"><ele>587.0</ele><time>2026-05-02T09:04:18.742Z</time></trkpt><trkpt lat="44.0830628193701" lon="11.379547224320197"><ele>587.0</ele><time>2026-05-02T09:04:19.742Z</time></trkpt><trkpt lat="44.08321247343196" lon="11.379555397904184"><ele>587.0</ele><time>2026-05-02T09:04:20.742Z</time></trkpt><trkpt lat="44.08336372898307" lon="11.379614426310459"><ele>587.0</ele><time>2026-05-02T09:04:21.742Z</time></trkpt><trkpt lat="44.083501560616305" lon="11.379733138400566"><ele>581.6666666666666</ele><time>2026-05-02T09:04:22.742Z</time></trkpt><trkpt lat="44.08363634528979" lon="11.379872086647127"><ele>576.3333333333334</ele><time>2026-05-02T09:04:23.741Z</time></trkpt><trkpt lat="44.08376287267689" lon="11.380023125826682"><ele>571.0</ele><time>2026-05-02T09:04:24.741Z</time></trkpt><trkpt lat="44.08390372701666" lon="11.380154068146922"><ele>571.0</ele><time>2026-05-02T09:04:25.741Z</time></trkpt><trkpt lat="44.08404031852609" lon="11.380212315636957"><ele>571.0</ele><time>2026-05-02T09:04:26.741Z</time></trkpt><trkpt lat="44.08418770088876" lon="11.380160929907357"><ele>571.0</ele><time>2026-05-02T09:04:27.741Z</time></trkpt><trkpt lat="44.08433906415089" lon="11.380023536624012"><ele>570.6666666666667</ele><time>2026-05-02T09:04:28.741Z</time></trkpt><trkpt lat="44.0844875235301" lon="11.379851955252791"><ele>570.3333333333334</ele><time>2026-05-02T09:04:29.741Z</time></trkpt><trkpt lat="44.08461482468304" lon="11.379646127553075"><ele>570.0</ele><time>2026-05-02T09:04:30.741Z</time></trkpt><trkpt lat="44.08472685364866" lon="11.379413614069227"><ele>570.0</ele><time>2026-05-02T09:04:31.741Z</time></trkpt><trkpt lat="44.08484016473018" lon="11.379188690852676"><ele>570.0</ele><time>2026-05-02T09:04:32.741Z</time></trkpt><trkpt lat="44.08496235550678" lon="11.378997332789371"><ele>570.0</ele><time>2026-05-02T09:04:33.741Z</time></trkpt><trkpt lat="44.085099216426364" lon="11.378837159293965"><ele>567.6666666666666</ele><time>2026-05-02T09:04:34.741Z</time></trkpt><trkpt lat="44.085259954499136" lon="11.378717377483758"><ele>565.3333333333333</ele><time>2026-05-02T09:04:35.741Z</time></trkpt><trkpt lat="44.085445360293726" lon="11.378632340011215"><ele>563.0</ele><time>2026-05-02T09:04:36.741Z</time></trkpt><trkpt lat="44.0856408622628" lon="11.37856698202392"><ele>559.6666666666666</ele><time>2026-05-02T09:04:37.741Z</time></trkpt><trkpt lat="44.085839357056194" lon="11.378498861722317"><ele>556.3333333333334</ele><time>2026-05-02T09:04:38.741Z</time></trkpt><trkpt lat="44.08603868458481" lon="11.378432867421864"><ele>553.0</ele><time>2026-05-02T09:04:39.741Z</time></trkpt><trkpt lat="44.08623136468106" lon="11.378367638844088"><ele>553.0</ele><time>2026-05-02T09:04:40.741Z</time></trkpt><trkpt lat="44.08641734024981" lon="11.378313962059943"><ele>553.0</ele><time>2026-05-02T09:04:41.741Z</time></trkpt><trkpt lat="44.08659378883886" lon="11.37829141042489"><ele>553.0</ele><time>2026-05-02T09:04:42.741Z</time></trkpt><trkpt lat="44.08677407684438" lon="11.378327998986416"><ele>551.6666666666667</ele><time>2026-05-02T09:04:43.741Z</time></trkpt><trkpt lat="44.08696009633421" lon="11.378401652392762"><ele>550.3333333333334</ele><time>2026-05-02T09:04:44.741Z</time></trkpt><trkpt lat="44.087145903111946" lon="11.378510572700131"><ele>549.0</ele><time>2026-05-02T09:04:45.741Z</time></trkpt><trkpt lat="44.08733719717696" lon="11.378644097380546"><ele>547.0</ele><time>2026-05-02T09:04:46.741Z</time></trkpt><trkpt lat="44.08752838708647" lon="11.378783504271887"><ele>545.0</ele><time>2026-05-02T09:04:47.741Z</time></trkpt><trkpt lat="44.08770807520057" lon="11.378903144574718"><ele>543.0</ele><time>2026-05-02T09:04:48.741Z</time></trkpt><trkpt lat="44.08788373523315" lon="11.378989282664183"><ele>541.0</ele><time>2026-05-02T09:04:49.74Z</time></trkpt><trkpt lat="44.088075917994125" lon="11.379017856619695"><ele>539.0</ele><time>2026-05-02T09:04:50.74Z</time></trkpt><trkpt lat="44.08826928901578" lon="11.3789567286097"><ele>537.0</ele><time>2026-05-02T09:04:51.74Z</time></trkpt><trkpt lat="44.088457373852115" lon="11.378851368487915"><ele>538.6666666666666</ele><time>2026-05-02T09:04:52.74Z</time></trkpt><trkpt lat="44.08864068482799" lon="11.378745847399982"><ele>540.3333333333333</ele><time>2026-05-02T09:04:53.74Z</time></trkpt><trkpt lat="44.08881410786443" lon="11.378664335259215"><ele>542.0</ele><time>2026-05-02T09:04:54.74Z</time></trkpt><trkpt lat="44.088967020371925" lon="11.378607951811738"><ele>542.0</ele><time>2026-05-02T09:04:55.74Z</time></trkpt><trkpt lat="44.0890888440385" lon="11.378612083952818"><ele>542.0</ele><time>2026-05-02T09:04:56.74Z</time></trkpt><trkpt lat="44.08920456008479" lon="11.378723113355665"><ele>542.0</ele><time>2026-05-02T09:04:57.74Z</time></trkpt><trkpt lat="44.08929478284448" lon="11.378927651029478"><ele>542.0</ele><time>2026-05-02T09:04:58.74Z</time></trkpt><trkpt lat="44.08938180250835" lon="11.379168821481128"><ele>537.6666666666666</ele><time>2026-05-02T09:04:59.74Z</time></trkpt><trkpt lat="44.08949902605656" lon="11.379369348007637"><ele>533.3333333333334</ele><time>2026-05-02T09:05:00.742Z</time></trkpt><trkpt lat="44.089650153593844" lon="11.379481409516618"><ele>529.0</ele><time>2026-05-02T09:05:01.741Z</time></trkpt><trkpt lat="44.08982323182666" lon="11.379541973656544"><ele>530.0</ele><time>2026-05-02T09:05:02.741Z</time></trkpt><trkpt lat="44.08999087156168" lon="11.379591973066852"><ele>531.0</ele><time>2026-05-02T09:05:03.742Z</time></trkpt><trkpt lat="44.090143276902864" lon="11.379682067704493"><ele>532.0</ele><time>2026-05-02T09:05:04.742Z</time></trkpt><trkpt lat="44.0902355294609" lon="11.379862264793632"><ele>528.0</ele><time>2026-05-02T09:05:05.742Z</time></trkpt><trkpt lat="44.09029871010009" lon="11.380090290057744"><ele>524.0</ele><time>2026-05-02T09:05:06.741Z</time></trkpt><trkpt lat="44.09035407163894" lon="11.3803373015843"><ele>520.0</ele><time>2026-05-02T09:05:07.741Z</time></trkpt><trkpt lat="44.09045228968951" lon="11.380559635611291"><ele>519.6666666666667</ele><time>2026-05-02T09:05:08.741Z</time></trkpt><trkpt lat="44.09056634951794" lon="11.380765187594871"><ele>519.3333333333334</ele><time>2026-05-02T09:05:09.741Z</time></trkpt><trkpt lat="44.090694032540256" lon="11.380967469804137"><ele>519.0</ele><time>2026-05-02T09:05:10.741Z</time></trkpt><trkpt lat="44.09082314943714" lon="11.381176119815283"><ele>514.6666666666666</ele><time>2026-05-02T09:05:11.741Z</time></trkpt><trkpt lat="44.09095160656402" lon="11.381367827731731"><ele>510.3333333333333</ele><time>2026-05-02T09:05:12.741Z</time></trkpt><trkpt lat="44.09108633022734" lon="11.38151825743365"><ele>506.0</ele><time>2026-05-02T09:05:13.742Z</time></trkpt><trkpt lat="44.09124026308338" lon="11.381614449491266"><ele>506.0</ele><time>2026-05-02T09:05:14.742Z</time></trkpt><trkpt lat="44.0914219873487" lon="11.381656454276278"><ele>506.0</ele><time>2026-05-02T09:05:15.742Z</time></trkpt><trkpt lat="44.09160894673225" lon="11.381675049324102"><ele>506.0</ele><time>2026-05-02T09:05:16.741Z</time></trkpt><trkpt lat="44.091785538155456" lon="11.381736832330638"><ele>505.25</ele><time>2026-05-02T09:05:17.741Z</time></trkpt><trkpt lat="44.09192866941953" lon="11.381852415648929"><ele>504.5</ele><time>2026-05-02T09:05:18.741Z</time></trkpt><trkpt lat="44.09201238267412" lon="11.38199954711332"><ele>503.75</ele><time>2026-05-02T09:05:19.741Z</time></trkpt><trkpt lat="44.0920320806133" lon="11.382180195358643"><ele>503.0</ele><time>2026-05-02T09:05:20.741Z</time></trkpt><trkpt lat="44.09199669121874" lon="11.382349241048548"><ele>502.99999999999994</ele><time>2026-05-02T09:05:21.741Z</time></trkpt><trkpt lat="44.09198620696703" lon="11.382485771265223"><ele>503.0</ele><time>2026-05-02T09:05:22.741Z</time></trkpt><trkpt lat="44.09198915951899" lon="11.382611246181469"><ele>503.0</ele><time>2026-05-02T09:05:23.741Z</time></trkpt><trkpt lat="44.09201791184083" lon="11.38271967496887"><ele>503.0</ele><time>2026-05-02T09:05:24.741Z</time></trkpt><trkpt lat="44.0920695236297" lon="11.382808039242425"><ele>502.99999999999994</ele><time>2026-05-02T09:05:25.741Z</time></trkpt><trkpt lat="44.09215115326462" lon="11.382858678044723"><ele>503.0</ele><time>2026-05-02T09:05:26.741Z</time></trkpt><trkpt lat="44.09224014506844" lon="11.38286995166874"><ele>503.0</ele><time>2026-05-02T09:05:27.741Z</time></trkpt><trkpt lat="44.09233718838724" lon="11.382851397424012"><ele>502.99999999999994</ele><time>2026-05-02T09:05:28.741Z</time></trkpt><trkpt lat="44.092435666917694" lon="11.382841884244407"><ele>502.99999999999994</ele><time>2026-05-02T09:05:29.741Z</time></trkpt><trkpt lat="44.09253238975888" lon="11.382872829634525"><ele>503.0</ele><time>2026-05-02T09:05:30.741Z</time></trkpt><trkpt lat="44.092608250591404" lon="11.382948769279539"><ele>503.0</ele><time>2026-05-02T09:05:31.741Z</time></trkpt><trkpt lat="44.09266586260046" lon="11.383045758033928"><ele>502.16666666666663</ele><time>2026-05-02T09:05:32.741Z</time></trkpt><trkpt lat="44.09271302807316" lon="11.383157661335039"><ele>501.3333333333333</ele><time>2026-05-02T09:05:33.741Z</time></trkpt><trkpt lat="44.092760920834934" lon="11.383250153171764"><ele>500.5</ele><time>2026-05-02T09:05:34.741Z</time></trkpt><trkpt lat="44.09281957881489" lon="11.38332800932953"><ele>499.66666666666663</ele><time>2026-05-02T09:05:35.741Z</time></trkpt><trkpt lat="44.09289984659204" lon="11.38336863938193"><ele>498.8333333333333</ele><time>2026-05-02T09:05:36.741Z</time></trkpt><trkpt lat="44.09298498110668" lon="11.383381855958245"><ele>498.0</ele><time>2026-05-02T09:05:37.741Z</time></trkpt><trkpt lat="44.093078057463" lon="11.38335659513811"><ele>498.0</ele><time>2026-05-02T09:05:38.741Z</time></trkpt><trkpt lat="44.09317404181586" lon="11.383302954557756"><ele>497.99999999999994</ele><time>2026-05-02T09:05:39.741Z</time></trkpt><trkpt lat="44.09327058562544" lon="11.38323257710359"><ele>497.99999999999994</ele><time>2026-05-02T09:05:40.741Z</time></trkpt><trkpt lat="44.093374101472726" lon="11.383162643151703"><ele>498.0</ele><time>2026-05-02T09:05:41.74Z</time></trkpt><trkpt lat="44.093471319180686" lon="11.383097751082751"><ele>498.0</ele><time>2026-05-02T09:05:42.74Z</time></trkpt><trkpt lat="44.09356336702707" lon="11.383009422780122"><ele>500.0</ele><time>2026-05-02T09:05:43.74Z</time></trkpt><trkpt lat="44.09365140399472" lon="11.38286551992278"><ele>502.0</ele><time>2026-05-02T09:05:44.74Z</time></trkpt><trkpt lat="44.09375156101206" lon="11.38264707735375"><ele>504.0</ele><time>2026-05-02T09:05:45.74Z</time></trkpt><trkpt lat="44.093852108883674" lon="11.382423886631189"><ele>504.0</ele><time>2026-05-02T09:05:46.74Z</time></trkpt><trkpt lat="44.0939400456662" lon="11.382224398686429"><ele>504.0</ele><time>2026-05-02T09:05:47.74Z</time></trkpt><trkpt lat="44.0940452396579" lon="11.382061525785534"><ele>504.0</ele><time>2026-05-02T09:05:48.74Z</time></trkpt><trkpt lat="44.09417095223577" lon="11.381969292059358"><ele>502.0</ele><time>2026-05-02T09:05:49.74Z</time></trkpt><trkpt lat="44.09430143449188" lon="11.38196863680581"><ele>500.0</ele><time>2026-05-02T09:05:50.74Z</time></trkpt><trkpt lat="44.09444016250555" lon="11.382077775129119"><ele>498.0</ele><time>2026-05-02T09:05:51.74Z</time></trkpt><trkpt lat="44.09459044459429" lon="11.382239804160749"><ele>494.0</ele><time>2026-05-02T09:05:52.74Z</time></trkpt><trkpt lat="44.09476707863123" lon="11.38237948653047"><ele>490.0</ele><time>2026-05-02T09:05:53.74Z</time></trkpt><trkpt lat="44.09494783270695" lon="11.382488430967236"><ele>486.0</ele><time>2026-05-02T09:05:54.74Z</time></trkpt><trkpt lat="44.09512885114444" lon="11.382555453395383"><ele>484.25</ele><time>2026-05-02T09:05:55.74Z</time></trkpt><trkpt lat="44.095280463930685" lon="11.382566832580428"><ele>482.5</ele><time>2026-05-02T09:05:56.74Z</time></trkpt><trkpt lat="44.09541256084227" lon="11.382527626863183"><ele>480.75</ele><time>2026-05-02T09:05:57.74Z</time></trkpt><trkpt lat="44.095520332103284" lon="11.382435808040915"><ele>479.0</ele><time>2026-05-02T09:05:58.74Z</time></trkpt><trkpt lat="44.09559520237814" lon="11.382252178429436"><ele>477.66666666666663</ele><time>2026-05-02T09:05:59.74Z</time></trkpt><trkpt lat="44.09565507915589" lon="11.382015615485935"><ele>476.33333333333337</ele><time>2026-05-02T09:06:00.74Z</time></trkpt><trkpt lat="44.0957363347074" lon="11.381778453462806"><ele>475.0</ele><time>2026-05-02T09:06:01.74Z</time></trkpt><trkpt lat="44.095844336642585" lon="11.381563988919602"><ele>475.0</ele><time>2026-05-02T09:06:02.74Z</time></trkpt><trkpt lat="44.09600251661697" lon="11.381406653884698"><ele>475.0</ele><time>2026-05-02T09:06:03.74Z</time></trkpt><trkpt lat="44.09618676322859" lon="11.381277696488057"><ele>475.0</ele><time>2026-05-02T09:06:04.74Z</time></trkpt><trkpt lat="44.096367597114764" lon="11.381145054973025"><ele>472.33333333333337</ele><time>2026-05-02T09:06:05.74Z</time></trkpt><trkpt lat="44.09655699450406" lon="11.381046622141225"><ele>469.66666666666663</ele><time>2026-05-02T09:06:06.74Z</time></trkpt><trkpt lat="44.0967280908635" lon="11.380928678187114"><ele>467.0</ele><time>2026-05-02T09:06:07.739Z</time></trkpt><trkpt lat="44.09688841592068" lon="11.380811585194314"><ele>467.0</ele><time>2026-05-02T09:06:08.739Z</time></trkpt><trkpt lat="44.0970644927447" lon="11.38076266548751"><ele>467.0</ele><time>2026-05-02T09:06:09.739Z</time></trkpt><trkpt lat="44.097243295316176" lon="11.380767258996437"><ele>467.0</ele><time>2026-05-02T09:06:10.739Z</time></trkpt><trkpt lat="44.09743512406263" lon="11.38080787331673"><ele>463.66666666666663</ele><time>2026-05-02T09:06:11.739Z</time></trkpt><trkpt lat="44.09762958708587" lon="11.380847913434353"><ele>460.33333333333337</ele><time>2026-05-02T09:06:12.739Z</time></trkpt><trkpt lat="44.09782205061066" lon="11.380871653784743"><ele>457.0</ele><time>2026-05-02T09:06:13.739Z</time></trkpt><trkpt lat="44.09800087155396" lon="11.380839592229592"><ele>457.0</ele><time>2026-05-02T09:06:14.739Z</time></trkpt><trkpt lat="44.098166069609796" lon="11.380780414208852"><ele>457.0</ele><time>2026-05-02T09:06:15.739Z</time></trkpt><trkpt lat="44.09833360869318" lon="11.380702368144407"><ele>457.0</ele><time>2026-05-02T09:06:16.739Z</time></trkpt><trkpt lat="44.098499134001074" lon="11.380607837145305"><ele>458.0</ele><time>2026-05-02T09:06:17.739Z</time></trkpt><trkpt lat="44.0986576260159" lon="11.380518394936876"><ele>459.0</ele><time>2026-05-02T09:06:18.739Z</time></trkpt><trkpt lat="44.09880870707469" lon="11.380446108353272"><ele>460.0</ele><time>2026-05-02T09:06:19.739Z</time></trkpt><trkpt lat="44.09896450680297" lon="11.380363103689115"><ele>455.6666666666667</ele><time>2026-05-02T09:06:20.739Z</time></trkpt><trkpt lat="44.09914035579237" lon="11.380268923105586"><ele>451.33333333333337</ele><time>2026-05-02T09:06:21.739Z</time></trkpt><trkpt lat="44.09931989445644" lon="11.380176181043094"><ele>447.0</ele><time>2026-05-02T09:06:22.739Z</time></trkpt><trkpt lat="44.0995119545293" lon="11.380113908896321"><ele>447.0</ele><time>2026-05-02T09:06:23.739Z</time></trkpt><trkpt lat="44.09971809895277" lon="11.37999418773769"><ele>447.0</ele><time>2026-05-02T09:06:24.739Z</time></trkpt><trkpt lat="44.099927395000485" lon="11.379929963492522"><ele>447.0</ele><time>2026-05-02T09:06:25.739Z</time></trkpt><trkpt lat="44.100088287520556" lon="11.379693302643068"><ele>448.0</ele><time>2026-05-02T09:06:26.739Z</time></trkpt><trkpt lat="44.100260086548396" lon="11.379544891350601"><ele>449.0</ele><time>2026-05-02T09:06:27.739Z</time></trkpt><trkpt lat="44.10041546690146" lon="11.379414817430291"><ele>450.0</ele><time>2026-05-02T09:06:28.739Z</time></trkpt><trkpt lat="44.10056714264751" lon="11.379300082874106"><ele>450.0</ele><time>2026-05-02T09:06:29.739Z</time></trkpt><trkpt lat="44.10070811721818" lon="11.379185392034842"><ele>450.0</ele><time>2026-05-02T09:06:30.739Z</time></trkpt><trkpt lat="44.100852268975196" lon="11.379075896772799"><ele>450.0</ele><time>2026-05-02T09:06:31.739Z</time></trkpt><trkpt lat="44.100999663569574" lon="11.378961814077101"><ele>448.66666666666663</ele><time>2026-05-02T09:06:32.738Z</time></trkpt><trkpt lat="44.101154266562034" lon="11.37885248029099"><ele>447.3333333333333</ele><time>2026-05-02T09:06:33.738Z</time></trkpt><trkpt lat="44.10131398463915" lon="11.378747043645008"><ele>446.0</ele><time>2026-05-02T09:06:34.738Z</time></trkpt><trkpt lat="44.101474653230504" lon="11.378633336744638"><ele>444.3333333333333</ele><time>2026-05-02T09:06:35.738Z</time></trkpt><trkpt lat="44.1016314214248" lon="11.378523917904985"><ele>442.66666666666663</ele><time>2026-05-02T09:06:36.738Z</time></trkpt><trkpt lat="44.10179554834242" lon="11.378411673835485"><ele>441.0</ele><time>2026-05-02T09:06:37.738Z</time></trkpt><trkpt lat="44.10195713356711" lon="11.378310026925357"><ele>441.0</ele><time>2026-05-02T09:06:38.738Z</time></trkpt><trkpt lat="44.102117614750235" lon="11.378225918863405"><ele>441.0</ele><time>2026-05-02T09:06:39.738Z</time></trkpt><trkpt lat="44.10227335677305" lon="11.3781631129111"><ele>441.0</ele><time>2026-05-02T09:06:40.738Z</time></trkpt><trkpt lat="44.10242706433395" lon="11.378121522921559"><ele>440.66666666666663</ele><time>2026-05-02T09:06:41.738Z</time></trkpt><trkpt lat="44.10258320623188" lon="11.37810280395658"><ele>440.3333333333333</ele><time>2026-05-02T09:06:42.738Z</time></trkpt><trkpt lat="44.102740608113464" lon="11.378085303841859"><ele>440.0</ele><time>2026-05-02T09:06:43.738Z</time></trkpt><trkpt lat="44.10290284642865" lon="11.378080010182293"><ele>440.0</ele><time>2026-05-02T09:06:44.738Z</time></trkpt><trkpt lat="44.10306815671954" lon="11.378089676153893"><ele>440.0</ele><time>2026-05-02T09:06:45.738Z</time></trkpt><trkpt lat="44.103237514411774" lon="11.378112624572069"><ele>440.0</ele><time>2026-05-02T09:06:46.738Z</time></trkpt><trkpt lat="44.1034051490162" lon="11.378140837524908"><ele>439.66666666666663</ele><time>2026-05-02T09:06:47.738Z</time></trkpt><trkpt lat="44.10357727629991" lon="11.378168531881823"><ele>439.33333333333337</ele><time>2026-05-02T09:06:48.738Z</time></trkpt><trkpt lat="44.10375630892456" lon="11.378193019752818"><ele>439.0</ele><time>2026-05-02T09:06:49.738Z</time></trkpt><trkpt lat="44.10393123219442" lon="11.378228014666574"><ele>439.0</ele><time>2026-05-02T09:06:50.738Z</time></trkpt><trkpt lat="44.104105942592014" lon="11.378262899857306"><ele>439.0</ele><time>2026-05-02T09:06:51.738Z</time></trkpt><trkpt lat="44.10428473463877" lon="11.378287835267775"><ele>439.0</ele><time>2026-05-02T09:06:52.738Z</time></trkpt><trkpt lat="44.10446416266205" lon="11.378308341772422"><ele>439.0</ele><time>2026-05-02T09:06:53.738Z</time></trkpt><trkpt lat="44.10464301129876" lon="11.378324581225643"><ele>439.0</ele><time>2026-05-02T09:06:54.738Z</time></trkpt><trkpt lat="44.10482426784115" lon="11.378347551159726"><ele>439.0</ele><time>2026-05-02T09:06:55.738Z</time></trkpt><trkpt lat="44.10500451314208" lon="11.378367461949823"><ele>438.6666666666667</ele><time>2026-05-02T09:06:56.738Z</time></trkpt><trkpt lat="44.105187033701334" lon="11.378396532820329"><ele>438.33333333333337</ele><time>2026-05-02T09:06:57.738Z</time></trkpt><trkpt lat="44.105366603377206" lon="11.378428702966696"><ele>438.0</ele><time>2026-05-02T09:06:58.737Z</time></trkpt><trkpt lat="44.1055443733812" lon="11.378457930726073"><ele>438.0</ele><time>2026-05-02T09:06:59.737Z</time></trkpt><trkpt lat="44.105724385145166" lon="11.378477970312094"><ele>438.0</ele><time>2026-05-02T09:07:00.737Z</time></trkpt><trkpt lat="44.10590278980706" lon="11.378500245161456"><ele>438.0</ele><time>2026-05-02T09:07:01.737Z</time></trkpt><trkpt lat="44.10608514563029" lon="11.378529721026876"><ele>437.33333333333337</ele><time>2026-05-02T09:07:02.737Z</time></trkpt><trkpt lat="44.10626442990073" lon="11.378568637234943"><ele>436.6666666666667</ele><time>2026-05-02T09:07:03.737Z</time></trkpt><trkpt lat="44.10644400488361" lon="11.37861333883958"><ele>436.0</ele><time>2026-05-02T09:07:04.737Z</time></trkpt><trkpt lat="44.10662713982433" lon="11.378669741329599"><ele>436.0</ele><time>2026-05-02T09:07:05.737Z</time></trkpt><trkpt lat="44.106806128985184" lon="11.378735566882511"><ele>436.0</ele><time>2026-05-02T09:07:06.739Z</time></trkpt><trkpt lat="44.106984857352934" lon="11.378811224029725"><ele>436.0</ele><time>2026-05-02T09:07:07.738Z</time></trkpt><trkpt lat="44.10716377138042" lon="11.378887460459506"><ele>434.0</ele><time>2026-05-02T09:07:08.738Z</time></trkpt><trkpt lat="44.107341595105346" lon="11.378969995495256"><ele>432.0</ele><time>2026-05-02T09:07:09.738Z</time></trkpt><trkpt lat="44.10751635448693" lon="11.379055410916292"><ele>430.0</ele><time>2026-05-02T09:07:10.739Z</time></trkpt><trkpt lat="44.107692578584974" lon="11.379139643112282"><ele>430.0</ele><time>2026-05-02T09:07:11.739Z</time></trkpt><trkpt lat="44.107872891748166" lon="11.379220989903173"><ele>430.0</ele><time>2026-05-02T09:07:12.738Z</time></trkpt><trkpt lat="44.10805612462009" lon="11.379312753413219"><ele>430.0</ele><time>2026-05-02T09:07:13.738Z</time></trkpt><trkpt lat="44.10823732779283" lon="11.37940648440714"><ele>431.6666666666667</ele><time>2026-05-02T09:07:14.738Z</time></trkpt><trkpt lat="44.108416614717626" lon="11.379490728497371"><ele>433.33333333333337</ele><time>2026-05-02T09:07:15.738Z</time></trkpt><trkpt lat="44.10859728453843" lon="11.379573238874368"><ele>435.0</ele><time>2026-05-02T09:07:16.739Z</time></trkpt><trkpt lat="44.10877662827407" lon="11.379661067409165"><ele>433.0</ele><time>2026-05-02T09:07:17.739Z</time></trkpt><trkpt lat="44.1089554377594" lon="11.379748531902237"><ele>431.0</ele><time>2026-05-02T09:07:18.738Z</time></trkpt><trkpt lat="44.10913424986898" lon="11.379834444599613"><ele>429.0</ele><time>2026-05-02T09:07:19.738Z</time></trkpt><trkpt lat="44.10931276056116" lon="11.37992122615138"><ele>429.0</ele><time>2026-05-02T09:07:20.738Z</time></trkpt><trkpt lat="44.109482886040986" lon="11.38001289795675"><ele>429.0</ele><time>2026-05-02T09:07:21.738Z</time></trkpt><trkpt lat="44.10965553770983" lon="11.38008430693055"><ele>429.0</ele><time>2026-05-02T09:07:22.738Z</time></trkpt><trkpt lat="44.109826475746196" lon="11.380111993851097"><ele>430.0</ele><time>2026-05-02T09:07:23.738Z</time></trkpt><trkpt lat="44.109997290693634" lon="11.380100957300938"><ele>431.0</ele><time>2026-05-02T09:07:24.738Z</time></trkpt><trkpt lat="44.110172924854766" lon="11.380056688421513"><ele>432.0</ele><time>2026-05-02T09:07:25.738Z</time></trkpt><trkpt lat="44.110351838041595" lon="11.379987639167723"><ele>432.0</ele><time>2026-05-02T09:07:26.738Z</time></trkpt><trkpt lat="44.11053457759441" lon="11.379919569808512"><ele>432.0</ele><time>2026-05-02T09:07:27.738Z</time></trkpt><trkpt lat="44.11071699685612" lon="11.379854159211394"><ele>432.0</ele><time>2026-05-02T09:07:28.738Z</time></trkpt><trkpt lat="44.110898897114666" lon="11.379792760498024"><ele>432.66666666666663</ele><time>2026-05-02T09:07:29.738Z</time></trkpt><trkpt lat="44.11107695683167" lon="11.379735398085169"><ele>433.3333333333333</ele><time>2026-05-02T09:07:30.738Z</time></trkpt><trkpt lat="44.111249996620046" lon="11.37968448254886"><ele>434.0</ele><time>2026-05-02T09:07:31.738Z</time></trkpt><trkpt lat="44.11141968832771" lon="11.379641282859293"><ele>434.3333333333333</ele><time>2026-05-02T09:07:32.738Z</time></trkpt><trkpt lat="44.11158978095298" lon="11.379627440100874"><ele>434.66666666666663</ele><time>2026-05-02T09:07:33.738Z</time></trkpt><trkpt lat="44.1117612399732" lon="11.37965440495408"><ele>435.0</ele><time>2026-05-02T09:07:34.738Z</time></trkpt><trkpt lat="44.111932344300776" lon="11.379736748390402"><ele>432.66666666666663</ele><time>2026-05-02T09:07:35.738Z</time></trkpt><trkpt lat="44.11209899897143" lon="11.379832720256006"><ele>430.3333333333333</ele><time>2026-05-02T09:07:36.737Z</time></trkpt><trkpt lat="44.112271756312346" lon="11.379924081195297"><ele>428.0</ele><time>2026-05-02T09:07:37.737Z</time></trkpt><trkpt lat="44.112444271375125" lon="11.380012687610664"><ele>428.0</ele><time>2026-05-02T09:07:38.737Z</time></trkpt><trkpt lat="44.11261809997227" lon="11.38010951237651"><ele>428.0</ele><time>2026-05-02T09:07:39.737Z</time></trkpt><trkpt lat="44.112786165488984" lon="11.380206199766397"><ele>428.0</ele><time>2026-05-02T09:07:40.737Z</time></trkpt><trkpt lat="44.11295548158502" lon="11.380301929133966"><ele>428.0</ele><time>2026-05-02T09:07:41.737Z</time></trkpt><trkpt lat="44.11312321107104" lon="11.380400106691255"><ele>428.0</ele><time>2026-05-02T09:07:42.737Z</time></trkpt><trkpt lat="44.11328906123677" lon="11.380500106382406"><ele>428.0</ele><time>2026-05-02T09:07:43.737Z</time></trkpt><trkpt lat="44.11345587732632" lon="11.38059985357376"><ele>426.3333333333333</ele><time>2026-05-02T09:07:44.737Z</time></trkpt><trkpt lat="44.11361798261186" lon="11.38069838881221"><ele>424.66666666666663</ele><time>2026-05-02T09:07:45.737Z</time></trkpt><trkpt lat="44.1137694954674" lon="11.380784593982574"><ele>423.0</ele><time>2026-05-02T09:07:46.737Z</time></trkpt><trkpt lat="44.1139135807339" lon="11.380867388297478"><ele>423.0</ele><time>2026-05-02T09:07:47.737Z</time></trkpt><trkpt lat="44.1140528062171" lon="11.380914724459277"><ele>423.0</ele><time>2026-05-02T09:07:48.737Z</time></trkpt><trkpt lat="44.11418645380803" lon="11.380922790129269"><ele>423.0</ele><time>2026-05-02T09:07:49.737Z</time></trkpt><trkpt lat="44.114303916399884" lon="11.380896073222125"><ele>423.0</ele><time>2026-05-02T09:07:50.737Z</time></trkpt><trkpt lat="44.11440762409932" lon="11.380835923124735"><ele>423.79999999999995</ele><time>2026-05-02T09:07:51.737Z</time></trkpt><trkpt lat="44.114503493821964" lon="11.380773164075896"><ele>424.6</ele><time>2026-05-02T09:07:52.737Z</time></trkpt><trkpt lat="44.11459175251648" lon="11.380695663240727"><ele>425.40000000000003</ele><time>2026-05-02T09:07:53.737Z</time></trkpt><trkpt lat="44.11467390535486" lon="11.380620191200013"><ele>426.20000000000005</ele><time>2026-05-02T09:07:54.737Z</time></trkpt><trkpt lat="44.11475019268834" lon="11.380541884444405"><ele>427.0</ele><time>2026-05-02T09:07:55.737Z</time></trkpt><trkpt lat="44.114831037280524" lon="11.380468613247501"><ele>426.6</ele><time>2026-05-02T09:07:56.737Z</time></trkpt><trkpt lat="44.11491612781977" lon="11.380388714918904"><ele>426.20000000000005</ele><time>2026-05-02T09:07:57.737Z</time></trkpt><trkpt lat="44.115005789391994" lon="11.38031795693907"><ele>425.8</ele><time>2026-05-02T09:07:58.737Z</time></trkpt><trkpt lat="44.11509502023058" lon="11.38024708914484"><ele>425.4</ele><time>2026-05-02T09:07:59.737Z</time></trkpt><trkpt lat="44.11519125563814" lon="11.380189573286042"><ele>425.0</ele><time>2026-05-02T09:08:00.737Z</time></trkpt><trkpt lat="44.115285392333654" lon="11.380146373243617"><ele>425.0</ele><time>2026-05-02T09:08:01.736Z</time></trkpt><trkpt lat="44.11538239572656" lon="11.380145084032652"><ele>425.0</ele><time>2026-05-02T09:08:02.736Z</time></trkpt><trkpt lat="44.11548110278356" lon="11.380168029709903"><ele>425.0</ele><time>2026-05-02T09:08:03.736Z</time></trkpt><trkpt lat="44.11557689968447" lon="11.380199505085073"><ele>425.0</ele><time>2026-05-02T09:08:04.736Z</time></trkpt><trkpt lat="44.11567230599126" lon="11.380222868266548"><ele>425.0</ele><time>2026-05-02T09:08:05.736Z</time></trkpt><trkpt lat="44.11576159683419" lon="11.38023240871365"><ele>423.8</ele><time>2026-05-02T09:08:06.736Z</time></trkpt><trkpt lat="44.11585299915224" lon="11.380215221849552"><ele>422.6</ele><time>2026-05-02T09:08:07.736Z</time></trkpt><trkpt lat="44.11594286089042" lon="11.38018897422994"><ele>421.4</ele><time>2026-05-02T09:08:08.736Z</time></trkpt><trkpt lat="44.116033358415216" lon="11.38015751493885"><ele>420.2</ele><time>2026-05-02T09:08:09.736Z</time></trkpt><trkpt lat="44.11612685350559" lon="11.380124103675039"><ele>419.0</ele><time>2026-05-02T09:08:10.736Z</time></trkpt><trkpt lat="44.116219607188405" lon="11.38008867129994"><ele>419.0</ele><time>2026-05-02T09:08:11.736Z</time></trkpt><trkpt lat="44.11631274128887" lon="11.380057055576511"><ele>419.0</ele><time>2026-05-02T09:08:12.736Z</time></trkpt><trkpt lat="44.11640716464312" lon="11.380021330314397"><ele>419.0</ele><time>2026-05-02T09:08:13.736Z</time></trkpt><trkpt lat="44.11649714129943" lon="11.37999062621669"><ele>419.0</ele><time>2026-05-02T09:08:14.736Z</time></trkpt><trkpt lat="44.116579980726655" lon="11.379956471629129"><ele>419.0</ele><time>2026-05-02T09:08:15.736Z</time></trkpt><trkpt lat="44.116672541051535" lon="11.379919506584816"><ele>418.8333333333333</ele><time>2026-05-02T09:08:16.736Z</time></trkpt><trkpt lat="44.116767673773616" lon="11.379885229312281"><ele>418.66666666666663</ele><time>2026-05-02T09:08:17.736Z</time></trkpt><trkpt lat="44.11685613554292" lon="11.379851669850144"><ele>418.5</ele><time>2026-05-02T09:08:18.736Z</time></trkpt><trkpt lat="44.116944417984286" lon="11.379822532112684"><ele>418.33333333333337</ele><time>2026-05-02T09:08:19.736Z</time></trkpt><trkpt lat="44.117026953306876" lon="11.379791744940121"><ele>418.1666666666667</ele><time>2026-05-02T09:08:20.736Z</time></trkpt><trkpt lat="44.117105569343124" lon="11.379767973820952"><ele>418.0</ele><time>2026-05-02T09:08:21.736Z</time></trkpt><trkpt lat="44.117174409037" lon="11.379739806571164"><ele>418.00000000000006</ele><time>2026-05-02T09:08:22.736Z</time></trkpt><trkpt lat="44.117238450367964" lon="11.37971060880804"><ele>418.0</ele><time>2026-05-02T09:08:23.736Z</time></trkpt><trkpt lat="44.117299803569004" lon="11.37967297588811"><ele>418.0</ele><time>2026-05-02T09:08:24.736Z</time></trkpt><trkpt lat="44.11738456524413" lon="11.37955476908677"><ele>418.0</ele><time>2026-05-02T09:08:26.736Z</time></trkpt><trkpt lat="44.117374142999175" lon="11.379464479715793"><ele>418.00000000000006</ele><time>2026-05-02T09:08:27.735Z</time></trkpt><trkpt lat="44.117367187548986" lon="11.379359155644641"><ele>418.0</ele><time>2026-05-02T09:08:28.735Z</time></trkpt><trkpt lat="44.11734744073904" lon="11.379252121696313"><ele>418.0</ele><time>2026-05-02T09:08:29.735Z</time></trkpt><trkpt lat="44.11732525447237" lon="11.379140058206207"><ele>418.0</ele><time>2026-05-02T09:08:30.735Z</time></trkpt><trkpt lat="44.11730981903627" lon="11.379014554440168"><ele>418.0</ele><time>2026-05-02T09:08:31.735Z</time></trkpt><trkpt lat="44.117290608794164" lon="11.378881195040957"><ele>418.0</ele><time>2026-05-02T09:08:32.735Z</time></trkpt><trkpt lat="44.117271972409895" lon="11.378745591175104"><ele>418.0</ele><time>2026-05-02T09:08:33.735Z</time></trkpt><trkpt lat="44.11725867428118" lon="11.378602296176599"><ele>418.50000000000006</ele><time>2026-05-02T09:08:34.735Z</time></trkpt><trkpt lat="44.1172405601798" lon="11.37846611525331"><ele>419.0</ele><time>2026-05-02T09:08:35.735Z</time></trkpt><trkpt lat="44.11722465073568" lon="11.378339211591046"><ele>419.5</ele><time>2026-05-02T09:08:36.735Z</time></trkpt><trkpt lat="44.117229583252" lon="11.378221406788509"><ele>420.0</ele><time>2026-05-02T09:08:37.735Z</time></trkpt><trkpt lat="44.11724540872464" lon="11.378118588337252"><ele>420.50000000000006</ele><time>2026-05-02T09:08:38.735Z</time></trkpt><trkpt lat="44.11725750980873" lon="11.378013443316163"><ele>421.0</ele><time>2026-05-02T09:08:39.735Z</time></trkpt><trkpt lat="44.117246751335095" lon="11.377920117508161"><ele>421.0</ele><time>2026-05-02T09:08:40.735Z</time></trkpt><trkpt lat="44.11723374325629" lon="11.377822378278562"><ele>421.0</ele><time>2026-05-02T09:08:41.735Z</time></trkpt><trkpt lat="44.11722436437553" lon="11.377701187086044"><ele>421.0</ele><time>2026-05-02T09:08:42.735Z</time></trkpt><trkpt lat="44.11720437480469" lon="11.377578635828662"><ele>421.0</ele><time>2026-05-02T09:08:43.735Z</time></trkpt><trkpt lat="44.117176437129956" lon="11.37744789769548"><ele>421.0</ele><time>2026-05-02T09:08:44.735Z</time></trkpt><trkpt lat="44.11714745405457" lon="11.3773079080883"><ele>421.25</ele><time>2026-05-02T09:08:45.735Z</time></trkpt><trkpt lat="44.11712060213193" lon="11.377157758128472"><ele>421.5</ele><time>2026-05-02T09:08:46.735Z</time></trkpt><trkpt lat="44.11711490966427" lon="11.376991658157154"><ele>421.75</ele><time>2026-05-02T09:08:47.735Z</time></trkpt><trkpt lat="44.11713571321173" lon="11.37682438431089"><ele>422.0</ele><time>2026-05-02T09:08:48.735Z</time></trkpt><trkpt lat="44.117170238539266" lon="11.37666282714619"><ele>422.0</ele><time>2026-05-02T09:08:49.735Z</time></trkpt><trkpt lat="44.11720507969635" lon="11.376497995250848"><ele>422.0</ele><time>2026-05-02T09:08:50.735Z</time></trkpt><trkpt lat="44.11723628429034" lon="11.376331380040101"><ele>422.0</ele><time>2026-05-02T09:08:51.735Z</time></trkpt><trkpt lat="44.11726333920679" lon="11.376162018129238"><ele>422.0</ele><time>2026-05-02T09:08:52.734Z</time></trkpt><trkpt lat="44.1172902898391" lon="11.375989084946633"><ele>421.75</ele><time>2026-05-02T09:08:53.734Z</time></trkpt><trkpt lat="44.11729192918987" lon="11.375813963653778"><ele>421.5</ele><time>2026-05-02T09:08:54.734Z</time></trkpt><trkpt lat="44.117256014003026" lon="11.375644561359119"><ele>421.25</ele><time>2026-05-02T09:08:55.734Z</time></trkpt><trkpt lat="44.11718532508318" lon="11.375487569648694"><ele>421.0</ele><time>2026-05-02T09:08:56.734Z</time></trkpt><trkpt lat="44.11709966911177" lon="11.375340452233491"><ele>421.0</ele><time>2026-05-02T09:08:57.734Z</time></trkpt><trkpt lat="44.1170111943373" lon="11.375185763711976"><ele>421.0</ele><time>2026-05-02T09:08:58.734Z</time></trkpt><trkpt lat="44.116931178834534" lon="11.375015156573639"><ele>421.0</ele><time>2026-05-02T09:08:59.734Z</time></trkpt><trkpt lat="44.11685944892825" lon="11.374830432801128"><ele>421.0</ele><time>2026-05-02T09:09:00.734Z</time></trkpt><trkpt lat="44.1167944844576" lon="11.374633896134297"><ele>421.0</ele><time>2026-05-02T09:09:01.734Z</time></trkpt><trkpt lat="44.1167368288124" lon="11.374429665145236"><ele>421.0</ele><time>2026-05-02T09:09:02.734Z</time></trkpt><trkpt lat="44.1166944736814" lon="11.374217298128466"><ele>421.0</ele><time>2026-05-02T09:09:03.734Z</time></trkpt><trkpt lat="44.11666749823314" lon="11.373996430594875"><ele>421.0</ele><time>2026-05-02T09:09:04.734Z</time></trkpt><trkpt lat="44.11665717763144" lon="11.37376630565833"><ele>421.0</ele><time>2026-05-02T09:09:05.734Z</time></trkpt><trkpt lat="44.116658748571886" lon="11.373537097791854"><ele>421.0</ele><time>2026-05-02T09:09:06.734Z</time></trkpt><trkpt lat="44.1166757918552" lon="11.373307478891071"><ele>421.0</ele><time>2026-05-02T09:09:07.734Z</time></trkpt><trkpt lat="44.11670026008289" lon="11.373071881307647"><ele>421.0</ele><time>2026-05-02T09:09:08.734Z</time></trkpt><trkpt lat="44.116733599739405" lon="11.37283772282774"><ele>421.0</ele><time>2026-05-02T09:09:09.734Z</time></trkpt><trkpt lat="44.116761668305095" lon="11.372600615580051"><ele>421.0</ele><time>2026-05-02T09:09:10.734Z</time></trkpt><trkpt lat="44.11678615780409" lon="11.372358210289775"><ele>421.0</ele><time>2026-05-02T09:09:11.734Z</time></trkpt><trkpt lat="44.11681553767923" lon="11.372114687098733"><ele>421.0</ele><time>2026-05-02T09:09:12.736Z</time></trkpt><trkpt lat="44.11683806788773" lon="11.371867015116125"><ele>421.0</ele><time>2026-05-02T09:09:13.735Z</time></trkpt><trkpt lat="44.11684581984307" lon="11.37161098249593"><ele>421.0</ele><time>2026-05-02T09:09:14.735Z</time></trkpt><trkpt lat="44.11683676311652" lon="11.371354991107607"><ele>421.0</ele><time>2026-05-02T09:09:15.736Z</time></trkpt><trkpt lat="44.1168176855602" lon="11.37109590860519"><ele>421.33333333333337</ele><time>2026-05-02T09:09:16.735Z</time></trkpt><trkpt lat="44.11678960861717" lon="11.370836476686309"><ele>421.66666666666663</ele><time>2026-05-02T09:09:17.735Z</time></trkpt><trkpt lat="44.11675844971958" lon="11.370575598327557"><ele>422.0</ele><time>2026-05-02T09:09:18.736Z</time></trkpt><trkpt lat="44.11672581805269" lon="11.370310532776374"><ele>422.66666666666663</ele><time>2026-05-02T09:09:19.735Z</time></trkpt><trkpt lat="44.11669774905554" lon="11.370047265534446"><ele>423.33333333333337</ele><time>2026-05-02T09:09:20.735Z</time></trkpt><trkpt lat="44.1166657766073" lon="11.369785554965219"><ele>424.0</ele><time>2026-05-02T09:09:21.735Z</time></trkpt><trkpt lat="44.116631834112276" lon="11.369523602328158"><ele>424.0</ele><time>2026-05-02T09:09:22.735Z</time></trkpt><trkpt lat="44.11660015866521" lon="11.369259547348005"><ele>424.0</ele><time>2026-05-02T09:09:23.735Z</time></trkpt><trkpt lat="44.11657146013923" lon="11.368990344112733"><ele>424.0</ele><time>2026-05-02T09:09:24.735Z</time></trkpt><trkpt lat="44.11654124955213" lon="11.368724045072375"><ele>425.0</ele><time>2026-05-02T09:09:25.734Z</time></trkpt><trkpt lat="44.11651092492859" lon="11.36845785866694"><ele>426.0</ele><time>2026-05-02T09:09:26.734Z</time></trkpt><trkpt lat="44.116497417435745" lon="11.368191056175435"><ele>427.0</ele><time>2026-05-02T09:09:27.734Z</time></trkpt><trkpt lat="44.11649895942876" lon="11.367928335113813"><ele>427.0</ele><time>2026-05-02T09:09:28.734Z</time></trkpt><trkpt lat="44.116516081542464" lon="11.367668768265512"><ele>427.0</ele><time>2026-05-02T09:09:29.734Z</time></trkpt><trkpt lat="44.11654264289711" lon="11.367416837662946"><ele>427.0</ele><time>2026-05-02T09:09:30.734Z</time></trkpt><trkpt lat="44.11658028390275" lon="11.367160378079575"><ele>427.0</ele><time>2026-05-02T09:09:31.734Z</time></trkpt><trkpt lat="44.11662790701437" lon="11.366906026085235"><ele>427.0</ele><time>2026-05-02T09:09:32.734Z</time></trkpt><trkpt lat="44.116683912294285" lon="11.366658342073165"><ele>427.0</ele><time>2026-05-02T09:09:33.734Z</time></trkpt><trkpt lat="44.116747034078244" lon="11.366414928632738"><ele>427.33333333333337</ele><time>2026-05-02T09:09:34.734Z</time></trkpt><trkpt lat="44.11680892404834" lon="11.36617325022199"><ele>427.66666666666663</ele><time>2026-05-02T09:09:35.734Z</time></trkpt><trkpt lat="44.11686816032912" lon="11.365927100841363"><ele>428.0</ele><time>2026-05-02T09:09:36.734Z</time></trkpt><trkpt lat="44.116926430248135" lon="11.365680598049192"><ele>428.3333333333333</ele><time>2026-05-02T09:09:37.734Z</time></trkpt><trkpt lat="44.11698101261426" lon="11.365430240175035"><ele>428.66666666666663</ele><time>2026-05-02T09:09:38.734Z</time></trkpt><trkpt lat="44.117021135281774" lon="11.365187928039227"><ele>429.0</ele><time>2026-05-02T09:09:39.734Z</time></trkpt><trkpt lat="44.117050228817675" lon="11.364957131576778"><ele>429.0</ele><time>2026-05-02T09:09:40.734Z</time></trkpt><trkpt lat="44.11707225527745" lon="11.364738784828017"><ele>429.0</ele><time>2026-05-02T09:09:41.734Z</time></trkpt><trkpt lat="44.11708536195664" lon="11.364533545266482"><ele>429.0</ele><time>2026-05-02T09:09:42.734Z</time></trkpt><trkpt lat="44.11708988958946" lon="11.36433583649267"><ele>429.0</ele><time>2026-05-02T09:09:43.734Z</time></trkpt><trkpt lat="44.117087061316084" lon="11.364147685807893"><ele>429.25</ele><time>2026-05-02T09:09:44.734Z</time></trkpt><trkpt lat="44.117087946855534" lon="11.363963325170426"><ele>429.5</ele><time>2026-05-02T09:09:45.734Z</time></trkpt><trkpt lat="44.11708761231633" lon="11.3637900548811"><ele>429.75</ele><time>2026-05-02T09:09:46.734Z</time></trkpt><trkpt lat="44.11709016988896" lon="11.363627260351102"><ele>430.0</ele><time>2026-05-02T09:09:47.734Z</time></trkpt><trkpt lat="44.1170935889292" lon="11.363476024847081"><ele>430.0</ele><time>2026-05-02T09:09:48.734Z</time></trkpt><trkpt lat="44.11709698484478" lon="11.363346295436687"><ele>430.0</ele><time>2026-05-02T09:09:49.734Z</time></trkpt><trkpt lat="44.11712057119666" lon="11.363143066541905"><ele>430.0</ele><time>2026-05-02T09:09:51.733Z</time></trkpt><trkpt lat="44.117146761928915" lon="11.363013132689227"><ele>430.0</ele><time>2026-05-02T09:09:53.733Z</time></trkpt><trkpt lat="44.1171695689191" lon="11.362915773074672"><ele>430.0</ele><time>2026-05-02T09:10:10.733Z</time></trkpt><trkpt lat="44.117231607291494" lon="11.362837856596018"><ele>430.33333333333337</ele><time>2026-05-02T09:10:12.733Z</time></trkpt><trkpt lat="44.11728539311219" lon="11.362789239718264"><ele>430.6666666666667</ele><time>2026-05-02T09:10:13.733Z</time></trkpt><trkpt lat="44.11735426168649" lon="11.362759805096166"><ele>431.0</ele><time>2026-05-02T09:10:14.733Z</time></trkpt><trkpt lat="44.11743974378965" lon="11.362744440183235"><ele>431.33333333333337</ele><time>2026-05-02T09:10:15.732Z</time></trkpt><trkpt lat="44.11752774512834" lon="11.362729538792909"><ele>431.6666666666667</ele><time>2026-05-02T09:10:16.732Z</time></trkpt><trkpt lat="44.11762114239327" lon="11.362714266293432"><ele>432.0</ele><time>2026-05-02T09:10:17.732Z</time></trkpt><trkpt lat="44.11771882884416" lon="11.362697874661581"><ele>432.0</ele><time>2026-05-02T09:10:18.732Z</time></trkpt><trkpt lat="44.117818782849056" lon="11.362679522199434"><ele>432.00000000000006</ele><time>2026-05-02T09:10:19.732Z</time></trkpt><trkpt lat="44.11791057315483" lon="11.362662841650218"><ele>432.00000000000006</ele><time>2026-05-02T09:10:20.732Z</time></trkpt><trkpt lat="44.11800273826272" lon="11.362646704286885"><ele>432.0</ele><time>2026-05-02T09:10:21.732Z</time></trkpt><trkpt lat="44.118095509883645" lon="11.362636996503557"><ele>432.0</ele><time>2026-05-02T09:10:22.732Z</time></trkpt><trkpt lat="44.11818755999682" lon="11.362647008349434"><ele>432.20000000000005</ele><time>2026-05-02T09:10:23.732Z</time></trkpt><trkpt lat="44.11827000487676" lon="11.362675417475282"><ele>432.40000000000003</ele><time>2026-05-02T09:10:24.732Z</time></trkpt><trkpt lat="44.1183451605094" lon="11.362702293235946"><ele>432.59999999999997</ele><time>2026-05-02T09:10:25.732Z</time></trkpt><trkpt lat="44.11844602518755" lon="11.362672227452833"><ele>432.79999999999995</ele><time>2026-05-02T09:10:27.732Z</time></trkpt><trkpt lat="44.11846938588747" lon="11.362499410271502"><ele>433.0</ele><time>2026-05-02T09:10:29.732Z</time></trkpt><trkpt lat="44.11843764109823" lon="11.362394103166219"><ele>433.00000000000006</ele><time>2026-05-02T09:10:30.732Z</time></trkpt><trkpt lat="44.1184020075142" lon="11.362290264468772"><ele>433.0</ele><time>2026-05-02T09:10:31.732Z</time></trkpt><trkpt lat="44.11835521452483" lon="11.36218636579057"><ele>433.0</ele><time>2026-05-02T09:10:32.732Z</time></trkpt><trkpt lat="44.11830792822066" lon="11.3620851022547"><ele>433.0</ele><time>2026-05-02T09:10:33.732Z</time></trkpt><trkpt lat="44.11826322721482" lon="11.361970359472517"><ele>433.00000000000006</ele><time>2026-05-02T09:10:34.732Z</time></trkpt><trkpt lat="44.11821133353256" lon="11.361856289054893"><ele>433.0</ele><time>2026-05-02T09:10:35.732Z</time></trkpt><trkpt lat="44.118157607272806" lon="11.361740931430832"><ele>434.2</ele><time>2026-05-02T09:10:36.732Z</time></trkpt><trkpt lat="44.11812069080966" lon="11.36160744852619"><ele>435.4</ele><time>2026-05-02T09:10:37.732Z</time></trkpt><trkpt lat="44.11811734845796" lon="11.361479210341507"><ele>436.59999999999997</ele><time>2026-05-02T09:10:38.732Z</time></trkpt><trkpt lat="44.11815681693263" lon="11.361356842494443"><ele>437.79999999999995</ele><time>2026-05-02T09:10:39.732Z</time></trkpt><trkpt lat="44.11822667522853" lon="11.361248936545591"><ele>439.0</ele><time>2026-05-02T09:10:40.732Z</time></trkpt><trkpt lat="44.11830799900039" lon="11.361153569851037"><ele>440.0</ele><time>2026-05-02T09:10:41.731Z</time></trkpt><trkpt lat="44.118391672583435" lon="11.361046326470841"><ele>441.0</ele><time>2026-05-02T09:10:42.731Z</time></trkpt><trkpt lat="44.11847570317862" lon="11.360929072680324"><ele>442.0</ele><time>2026-05-02T09:10:43.731Z</time></trkpt><trkpt lat="44.11856753235083" lon="11.3608026772348"><ele>443.0</ele><time>2026-05-02T09:10:44.731Z</time></trkpt><trkpt lat="44.11866688588631" lon="11.360670464564308"><ele>443.0</ele><time>2026-05-02T09:10:45.731Z</time></trkpt><trkpt lat="44.11876826357835" lon="11.360535409391533"><ele>443.0</ele><time>2026-05-02T09:10:46.731Z</time></trkpt><trkpt lat="44.118874717864436" lon="11.360398972387731"><ele>443.0</ele><time>2026-05-02T09:10:47.731Z</time></trkpt><trkpt lat="44.118978293024796" lon="11.36027452199598"><ele>443.0</ele><time>2026-05-02T09:10:48.731Z</time></trkpt><trkpt lat="44.11906937412684" lon="11.360169734484003"><ele>445.2</ele><time>2026-05-02T09:10:49.731Z</time></trkpt><trkpt lat="44.11913528520704" lon="11.360058367688133"><ele>447.4</ele><time>2026-05-02T09:10:50.731Z</time></trkpt><trkpt lat="44.11915362326459" lon="11.35993906538969"><ele>449.59999999999997</ele><time>2026-05-02T09:10:51.731Z</time></trkpt><trkpt lat="44.11912001972294" lon="11.359829264597101"><ele>451.79999999999995</ele><time>2026-05-02T09:10:52.731Z</time></trkpt><trkpt lat="44.11902598100747" lon="11.359795050585543"><ele>454.0</ele><time>2026-05-02T09:10:53.731Z</time></trkpt><trkpt lat="44.11891987142786" lon="11.359809416476603"><ele>456.0</ele><time>2026-05-02T09:10:54.731Z</time></trkpt><trkpt lat="44.11880191639186" lon="11.359841118573692"><ele>458.0</ele><time>2026-05-02T09:10:55.731Z</time></trkpt><trkpt lat="44.118671821564824" lon="11.359868803745613"><ele>460.0</ele><time>2026-05-02T09:10:56.731Z</time></trkpt><trkpt lat="44.11852717582448" lon="11.359872368006194"><ele>462.0</ele><time>2026-05-02T09:10:57.731Z</time></trkpt><trkpt lat="44.11837989353453" lon="11.359850432305182"><ele>462.0</ele><time>2026-05-02T09:10:58.731Z</time></trkpt><trkpt lat="44.11822935981262" lon="11.35982029098462"><ele>462.0</ele><time>2026-05-02T09:10:59.731Z</time></trkpt><trkpt lat="44.118066873361386" lon="11.359769959231043"><ele>462.0</ele><time>2026-05-02T09:11:00.731Z</time></trkpt><trkpt lat="44.117903175342896" lon="11.359722247257514"><ele>467.0</ele><time>2026-05-02T09:11:01.731Z</time></trkpt><trkpt lat="44.1177406896682" lon="11.359661952599438"><ele>472.0</ele><time>2026-05-02T09:11:02.731Z</time></trkpt><trkpt lat="44.117585188443776" lon="11.359576754502381"><ele>477.0</ele><time>2026-05-02T09:11:03.731Z</time></trkpt><trkpt lat="44.11742852150923" lon="11.359508840970202"><ele>474.0</ele><time>2026-05-02T09:11:04.731Z</time></trkpt><trkpt lat="44.11726362860381" lon="11.359453476780837"><ele>471.0</ele><time>2026-05-02T09:11:05.731Z</time></trkpt><trkpt lat="44.11710902168355" lon="11.359386960608916"><ele>468.0</ele><time>2026-05-02T09:11:06.73Z</time></trkpt><trkpt lat="44.116981012800906" lon="11.359280309799946"><ele>468.0</ele><time>2026-05-02T09:11:07.73Z</time></trkpt><trkpt lat="44.116904191146126" lon="11.359117809653311"><ele>468.0</ele><time>2026-05-02T09:11:08.73Z</time></trkpt><trkpt lat="44.11684592831069" lon="11.358923583187975"><ele>468.0</ele><time>2026-05-02T09:11:09.73Z</time></trkpt><trkpt lat="44.116789494210536" lon="11.35871536709021"><ele>472.0</ele><time>2026-05-02T09:11:10.73Z</time></trkpt><trkpt lat="44.11672505627469" lon="11.358496606457287"><ele>476.0</ele><time>2026-05-02T09:11:11.73Z</time></trkpt><trkpt lat="44.11665671428146" lon="11.358276137086841"><ele>480.0</ele><time>2026-05-02T09:11:12.73Z</time></trkpt><trkpt lat="44.116620033216066" lon="11.358040214062557"><ele>477.66666666666663</ele><time>2026-05-02T09:11:13.73Z</time></trkpt><trkpt lat="44.11659790777723" lon="11.357807147920896"><ele>475.3333333333333</ele><time>2026-05-02T09:11:14.73Z</time></trkpt><trkpt lat="44.116561163643965" lon="11.357573896920787"><ele>473.0</ele><time>2026-05-02T09:11:15.73Z</time></trkpt><trkpt lat="44.116527134330404" lon="11.357340350787123"><ele>475.66666666666663</ele><time>2026-05-02T09:11:16.73Z</time></trkpt><trkpt lat="44.116517202645085" lon="11.357093055023347"><ele>478.33333333333337</ele><time>2026-05-02T09:11:17.73Z</time></trkpt><trkpt lat="44.11651731914199" lon="11.35685764786803"><ele>481.0</ele><time>2026-05-02T09:11:18.732Z</time></trkpt><trkpt lat="44.11654983765822" lon="11.356638598996902"><ele>483.0</ele><time>2026-05-02T09:11:19.732Z</time></trkpt><trkpt lat="44.116628437217074" lon="11.356472744995273"><ele>485.0</ele><time>2026-05-02T09:11:20.732Z</time></trkpt><trkpt lat="44.116658509336595" lon="11.356311911350172"><ele>487.0</ele><time>2026-05-02T09:11:21.732Z</time></trkpt><trkpt lat="44.11662101644981" lon="11.356134610990068"><ele>489.0</ele><time>2026-05-02T09:11:22.732Z</time></trkpt><trkpt lat="44.11652547639096" lon="11.355950776521787"><ele>489.0</ele><time>2026-05-02T09:11:23.732Z</time></trkpt><trkpt lat="44.11642741197379" lon="11.355745289365673"><ele>489.0</ele><time>2026-05-02T09:11:24.732Z</time></trkpt><trkpt lat="44.11637964624859" lon="11.355501737408783"><ele>489.0</ele><time>2026-05-02T09:11:25.731Z</time></trkpt><trkpt lat="44.11635935815015" lon="11.355261381706487"><ele>491.0</ele><time>2026-05-02T09:11:26.731Z</time></trkpt><trkpt lat="44.11638631130293" lon="11.355056463547712"><ele>493.0</ele><time>2026-05-02T09:11:27.732Z</time></trkpt><trkpt lat="44.11648259708814" lon="11.354875001109045"><ele>495.0</ele><time>2026-05-02T09:11:28.732Z</time></trkpt><trkpt lat="44.11658654928878" lon="11.354698864563062"><ele>501.0</ele><time>2026-05-02T09:11:29.732Z</time></trkpt><trkpt lat="44.11665463632291" lon="11.35448215858507"><ele>507.0</ele><time>2026-05-02T09:11:30.732Z</time></trkpt><trkpt lat="44.11667876285581" lon="11.354245222662879"><ele>513.0</ele><time>2026-05-02T09:11:31.731Z</time></trkpt><trkpt lat="44.11669502105336" lon="11.354026306121098"><ele>513.0</ele><time>2026-05-02T09:11:32.731Z</time></trkpt><trkpt lat="44.11677404532144" lon="11.353874285362819"><ele>513.0</ele><time>2026-05-02T09:11:33.731Z</time></trkpt><trkpt lat="44.11687103945724" lon="11.353822110444739"><ele>513.0</ele><time>2026-05-02T09:11:34.731Z</time></trkpt><trkpt lat="44.11697474904392" lon="11.353851885708698"><ele>513.0</ele><time>2026-05-02T09:11:35.731Z</time></trkpt><trkpt lat="44.11709858585145" lon="11.353879170020736"><ele>513.3333333333334</ele><time>2026-05-02T09:11:36.731Z</time></trkpt><trkpt lat="44.11723599308837" lon="11.353854537223475"><ele>513.6666666666667</ele><time>2026-05-02T09:11:37.731Z</time></trkpt><trkpt lat="44.11737247510349" lon="11.353766529884027"><ele>514.0</ele><time>2026-05-02T09:11:38.731Z</time></trkpt><trkpt lat="44.11748486400702" lon="11.353601045018047"><ele>516.6666666666667</ele><time>2026-05-02T09:11:39.731Z</time></trkpt><trkpt lat="44.11756244113678" lon="11.353376735819436"><ele>519.3333333333334</ele><time>2026-05-02T09:11:40.731Z</time></trkpt><trkpt lat="44.11762916875218" lon="11.353131372041576"><ele>522.0</ele><time>2026-05-02T09:11:41.731Z</time></trkpt><trkpt lat="44.11768842583352" lon="11.352873181827851"><ele>524.0</ele><time>2026-05-02T09:11:42.731Z</time></trkpt><trkpt lat="44.11773059281738" lon="11.352597577603648"><ele>526.0</ele><time>2026-05-02T09:11:43.731Z</time></trkpt><trkpt lat="44.11776125638854" lon="11.352349021723697"><ele>528.0</ele><time>2026-05-02T09:11:44.731Z</time></trkpt><trkpt lat="44.11775548358723" lon="11.3521497305554"><ele>530.25</ele><time>2026-05-02T09:11:45.731Z</time></trkpt><trkpt lat="44.11767781844164" lon="11.351984808466499"><ele>532.5</ele><time>2026-05-02T09:11:46.731Z</time></trkpt><trkpt lat="44.11756413080288" lon="11.351857582083497"><ele>534.75</ele><time>2026-05-02T09:11:47.731Z</time></trkpt><trkpt lat="44.11749144254026" lon="11.351730076763634"><ele>537.0</ele><time>2026-05-02T09:11:48.731Z</time></trkpt><trkpt lat="44.11750904494098" lon="11.351567449656354"><ele>537.0</ele><time>2026-05-02T09:11:49.731Z</time></trkpt><trkpt lat="44.117564937296976" lon="11.351392767288885"><ele>537.0</ele><time>2026-05-02T09:11:50.73Z</time></trkpt><trkpt lat="44.11759584750362" lon="11.351202512742868"><ele>537.0</ele><time>2026-05-02T09:11:51.73Z</time></trkpt><trkpt lat="44.11757358007452" lon="11.350983115272339"><ele>537.0</ele><time>2026-05-02T09:11:52.73Z</time></trkpt><trkpt lat="44.11750698386069" lon="11.350758989790963"><ele>537.6666666666666</ele><time>2026-05-02T09:11:53.73Z</time></trkpt><trkpt lat="44.11743719706107" lon="11.35050686263899"><ele>538.3333333333333</ele><time>2026-05-02T09:11:54.73Z</time></trkpt><trkpt lat="44.1174038147824" lon="11.35024617159261"><ele>539.0</ele><time>2026-05-02T09:11:55.73Z</time></trkpt><trkpt lat="44.1173896392393" lon="11.349993197793031"><ele>539.0</ele><time>2026-05-02T09:11:56.73Z</time></trkpt><trkpt lat="44.11738156207454" lon="11.349738942471607"><ele>539.0</ele><time>2026-05-02T09:11:57.73Z</time></trkpt><trkpt lat="44.11739094601057" lon="11.34948536632624"><ele>539.0</ele><time>2026-05-02T09:11:58.73Z</time></trkpt><trkpt lat="44.11742163712956" lon="11.349231279396678"><ele>539.0</ele><time>2026-05-02T09:11:59.73Z</time></trkpt><trkpt lat="44.11742587102566" lon="11.348984301363677"><ele>539.0</ele><time>2026-05-02T09:12:00.73Z</time></trkpt><trkpt lat="44.11741589809522" lon="11.34873333613955"><ele>539.0</ele><time>2026-05-02T09:12:01.73Z</time></trkpt><trkpt lat="44.1173980017607" lon="11.34850464019202"><ele>539.0</ele><time>2026-05-02T09:12:02.73Z</time></trkpt><trkpt lat="44.117385130681306" lon="11.348272320784131"><ele>539.0</ele><time>2026-05-02T09:12:03.73Z</time></trkpt><trkpt lat="44.11737293454038" lon="11.348033320205023"><ele>539.0</ele><time>2026-05-02T09:12:04.73Z</time></trkpt><trkpt lat="44.11734984738276" lon="11.347792218629385"><ele>541.3333333333333</ele><time>2026-05-02T09:12:05.73Z</time></trkpt><trkpt lat="44.117286500344264" lon="11.347566768069031"><ele>543.6666666666666</ele><time>2026-05-02T09:12:06.73Z</time></trkpt><trkpt lat="44.11719130891191" lon="11.34736131268366"><ele>546.0</ele><time>2026-05-02T09:12:07.73Z</time></trkpt><trkpt lat="44.11708273840874" lon="11.347176576845536"><ele>549.0</ele><time>2026-05-02T09:12:08.73Z</time></trkpt><trkpt lat="44.116998045205364" lon="11.34697934206054"><ele>552.0</ele><time>2026-05-02T09:12:09.73Z</time></trkpt><trkpt lat="44.11694923885519" lon="11.346755562990035"><ele>555.0</ele><time>2026-05-02T09:12:10.73Z</time></trkpt><trkpt lat="44.11693293401856" lon="11.346523388641174"><ele>555.6666666666666</ele><time>2026-05-02T09:12:11.73Z</time></trkpt><trkpt lat="44.11694384867674" lon="11.346288414506464"><ele>556.3333333333333</ele><time>2026-05-02T09:12:12.73Z</time></trkpt><trkpt lat="44.116985282875994" lon="11.346052451209438"><ele>557.0</ele><time>2026-05-02T09:12:13.73Z</time></trkpt><trkpt lat="44.117051314331704" lon="11.34582373062897"><ele>557.0</ele><time>2026-05-02T09:12:14.73Z</time></trkpt><trkpt lat="44.11712709579471" lon="11.345597674017103"><ele>557.0</ele><time>2026-05-02T09:12:15.73Z</time></trkpt><trkpt lat="44.117202578157155" lon="11.345369986408693"><ele>557.0</ele><time>2026-05-02T09:12:16.729Z</time></trkpt><trkpt lat="44.11725909066015" lon="11.345136369876906"><ele>559.0</ele><time>2026-05-02T09:12:17.729Z</time></trkpt><trkpt lat="44.117289153886766" lon="11.344890989893676"><ele>561.0</ele><time>2026-05-02T09:12:18.729Z</time></trkpt><trkpt lat="44.1172964424659" lon="11.3446503966192"><ele>563.0</ele><time>2026-05-02T09:12:19.729Z</time></trkpt><trkpt lat="44.11726203344856" lon="11.344418618081155"><ele>566.6666666666666</ele><time>2026-05-02T09:12:20.729Z</time></trkpt><trkpt lat="44.11718467964758" lon="11.344209937273641"><ele>570.3333333333334</ele><time>2026-05-02T09:12:21.729Z</time></trkpt><trkpt lat="44.1170780931763" lon="11.344025545128218"><ele>574.0</ele><time>2026-05-02T09:12:22.729Z</time></trkpt><trkpt lat="44.117016508204344" lon="11.343841553555636"><ele>576.0</ele><time>2026-05-02T09:12:23.729Z</time></trkpt><trkpt lat="44.11701906861635" lon="11.343642682831454"><ele>578.0</ele><time>2026-05-02T09:12:24.729Z</time></trkpt><trkpt lat="44.11707080381731" lon="11.34342705972532"><ele>580.0</ele><time>2026-05-02T09:12:25.729Z</time></trkpt><trkpt lat="44.11714183894996" lon="11.343208649095997"><ele>578.6666666666667</ele><time>2026-05-02T09:12:26.729Z</time></trkpt><trkpt lat="44.11723173365925" lon="11.342995531671187"><ele>577.3333333333334</ele><time>2026-05-02T09:12:27.729Z</time></trkpt><trkpt lat="44.117325132117855" lon="11.342784742282813"><ele>576.0</ele><time>2026-05-02T09:12:28.729Z</time></trkpt><trkpt lat="44.11742680502249" lon="11.342584934200701"><ele>579.3333333333334</ele><time>2026-05-02T09:12:29.729Z</time></trkpt><trkpt lat="44.11754030852875" lon="11.342410215148709"><ele>582.6666666666667</ele><time>2026-05-02T09:12:30.729Z</time></trkpt><trkpt lat="44.11767484617996" lon="11.342263065438935"><ele>586.0</ele><time>2026-05-02T09:12:31.729Z</time></trkpt><trkpt lat="44.11782166523574" lon="11.342130721940075"><ele>586.0</ele><time>2026-05-02T09:12:32.729Z</time></trkpt><trkpt lat="44.11797635461846" lon="11.341996300081744"><ele>586.0</ele><time>2026-05-02T09:12:33.729Z</time></trkpt><trkpt lat="44.118126976496605" lon="11.341858124486052"><ele>586.0</ele><time>2026-05-02T09:12:34.729Z</time></trkpt><trkpt lat="44.118259439454334" lon="11.341722835312513"><ele>586.6666666666667</ele><time>2026-05-02T09:12:35.729Z</time></trkpt><trkpt lat="44.11837810858352" lon="11.341568157115576"><ele>587.3333333333334</ele><time>2026-05-02T09:12:36.729Z</time></trkpt><trkpt lat="44.11848022038299" lon="11.34138417499879"><ele>588.0</ele><time>2026-05-02T09:12:37.729Z</time></trkpt><trkpt lat="44.118581236416105" lon="11.34117316477976"><ele>588.0</ele><time>2026-05-02T09:12:38.729Z</time></trkpt><trkpt lat="44.11870198313029" lon="11.340969964993345"><ele>588.0</ele><time>2026-05-02T09:12:39.729Z</time></trkpt><trkpt lat="44.11883566282235" lon="11.340772458780831"><ele>588.0</ele><time>2026-05-02T09:12:40.729Z</time></trkpt><trkpt lat="44.11896618192571" lon="11.340573644685085"><ele>586.0</ele><time>2026-05-02T09:12:41.728Z</time></trkpt><trkpt lat="44.11908582142199" lon="11.340371628193061"><ele>584.0</ele><time>2026-05-02T09:12:42.728Z</time></trkpt><trkpt lat="44.11919649228464" lon="11.340183176754577"><ele>582.0</ele><time>2026-05-02T09:12:43.728Z</time></trkpt><trkpt lat="44.11930372948131" lon="11.34003061870182"><ele>582.0</ele><time>2026-05-02T09:12:44.728Z</time></trkpt><trkpt lat="44.119421703537206" lon="11.339935252035922"><ele>582.0</ele><time>2026-05-02T09:12:45.728Z</time></trkpt><trkpt lat="44.119566896395" lon="11.339895862800203"><ele>582.0</ele><time>2026-05-02T09:12:46.728Z</time></trkpt><trkpt lat="44.11971756528735" lon="11.339894697047002"><ele>582.0</ele><time>2026-05-02T09:12:47.728Z</time></trkpt><trkpt lat="44.1198734088449" lon="11.339890165521762"><ele>581.0</ele><time>2026-05-02T09:12:48.728Z</time></trkpt><trkpt lat="44.12001439942661" lon="11.339890018408044"><ele>580.0</ele><time>2026-05-02T09:12:49.728Z</time></trkpt><trkpt lat="44.1201442187163" lon="11.339899142106745"><ele>579.0</ele><time>2026-05-02T09:12:50.728Z</time></trkpt><trkpt lat="44.12026508245712" lon="11.339908312430788"><ele>578.0</ele><time>2026-05-02T09:12:51.728Z</time></trkpt><trkpt lat="44.12038084033336" lon="11.339914733099354"><ele>578.0</ele><time>2026-05-02T09:12:52.728Z</time></trkpt><trkpt lat="44.12049894117428" lon="11.339921045089959"><ele>578.0</ele><time>2026-05-02T09:12:53.728Z</time></trkpt><trkpt lat="44.120619339283216" lon="11.33990704544583"><ele>578.0</ele><time>2026-05-02T09:12:54.728Z</time></trkpt><trkpt lat="44.120746556349964" lon="11.339884585002252"><ele>578.0</ele><time>2026-05-02T09:12:55.728Z</time></trkpt><trkpt lat="44.120880959953716" lon="11.33985084968986"><ele>577.6666666666666</ele><time>2026-05-02T09:12:56.728Z</time></trkpt><trkpt lat="44.12102286844816" lon="11.33979489188525"><ele>577.3333333333334</ele><time>2026-05-02T09:12:57.728Z</time></trkpt><trkpt lat="44.12118272728894" lon="11.339717836157904"><ele>577.0</ele><time>2026-05-02T09:12:58.728Z</time></trkpt><trkpt lat="44.1213583044644" lon="11.339660505821422"><ele>576.3333333333334</ele><time>2026-05-02T09:12:59.728Z</time></trkpt><trkpt lat="44.121543693881215" lon="11.339611875197418"><ele>575.6666666666666</ele><time>2026-05-02T09:13:00.728Z</time></trkpt><trkpt lat="44.12172158605966" lon="11.339548684052254"><ele>575.0</ele><time>2026-05-02T09:13:01.728Z</time></trkpt><trkpt lat="44.12189533921297" lon="11.339449234906265"><ele>575.0</ele><time>2026-05-02T09:13:02.728Z</time></trkpt><trkpt lat="44.122064830751036" lon="11.33930313412569"><ele>575.0</ele><time>2026-05-02T09:13:03.728Z</time></trkpt><trkpt lat="44.122234839526016" lon="11.339155823513414"><ele>575.0</ele><time>2026-05-02T09:13:04.728Z</time></trkpt><trkpt lat="44.12241135976396" lon="11.339051104425867"><ele>576.3333333333333</ele><time>2026-05-02T09:13:05.728Z</time></trkpt><trkpt lat="44.1225991338927" lon="11.33898518152327"><ele>577.6666666666666</ele><time>2026-05-02T09:13:06.728Z</time></trkpt><trkpt lat="44.12279542019454" lon="11.338959742786482"><ele>579.0</ele><time>2026-05-02T09:13:07.727Z</time></trkpt><trkpt lat="44.122989612620515" lon="11.338971205540922"><ele>579.0</ele><time>2026-05-02T09:13:08.727Z</time></trkpt><trkpt lat="44.12316254309955" lon="11.339003070990568"><ele>579.0</ele><time>2026-05-02T09:13:09.727Z</time></trkpt><trkpt lat="44.12331016562169" lon="11.339033679046096"><ele>579.0</ele><time>2026-05-02T09:13:10.727Z</time></trkpt><trkpt lat="44.12345367742321" lon="11.339026267571064"><ele>581.25</ele><time>2026-05-02T09:13:11.727Z</time></trkpt><trkpt lat="44.1235901832848" lon="11.33897695318206"><ele>583.5</ele><time>2026-05-02T09:13:12.727Z</time></trkpt><trkpt lat="44.12372366406798" lon="11.338911789392625"><ele>585.75</ele><time>2026-05-02T09:13:13.727Z</time></trkpt><trkpt lat="44.123858403246366" lon="11.338845062966824"><ele>588.0</ele><time>2026-05-02T09:13:14.727Z</time></trkpt><trkpt lat="44.123994833051235" lon="11.33877882511852"><ele>592.6666666666666</ele><time>2026-05-02T09:13:15.727Z</time></trkpt><trkpt lat="44.124134611041" lon="11.33870753930754"><ele>597.3333333333333</ele><time>2026-05-02T09:13:16.727Z</time></trkpt><trkpt lat="44.124270872125095" lon="11.338616558854794"><ele>602.0</ele><time>2026-05-02T09:13:17.727Z</time></trkpt><trkpt lat="44.124398239205725" lon="11.338498030439343"><ele>602.0</ele><time>2026-05-02T09:13:18.727Z</time></trkpt><trkpt lat="44.12450789194777" lon="11.33834631741999"><ele>602.0</ele><time>2026-05-02T09:13:19.727Z</time></trkpt><trkpt lat="44.124603476105094" lon="11.338173988087757"><ele>602.0</ele><time>2026-05-02T09:13:20.727Z</time></trkpt><trkpt lat="44.12469794853108" lon="11.338001638000016"><ele>601.0</ele><time>2026-05-02T09:13:21.727Z</time></trkpt><trkpt lat="44.1248027253925" lon="11.337853883937541"><ele>600.0</ele><time>2026-05-02T09:13:22.727Z</time></trkpt><trkpt lat="44.12494878088092" lon="11.33777602665063"><ele>599.0</ele><time>2026-05-02T09:13:23.727Z</time></trkpt><trkpt lat="44.12510325519632" lon="11.337748238403439"><ele>602.3333333333333</ele><time>2026-05-02T09:13:24.729Z</time></trkpt><trkpt lat="44.12526145187772" lon="11.337751546194315"><ele>605.6666666666666</ele><time>2026-05-02T09:13:25.729Z</time></trkpt><trkpt lat="44.125425975321726" lon="11.337765883458687"><ele>609.0</ele><time>2026-05-02T09:13:26.729Z</time></trkpt><trkpt lat="44.125592420870696" lon="11.337775237184362"><ele>611.6666666666666</ele><time>2026-05-02T09:13:27.729Z</time></trkpt><trkpt lat="44.125763029462895" lon="11.337781361957504"><ele>614.3333333333333</ele><time>2026-05-02T09:13:28.728Z</time></trkpt><trkpt lat="44.125935050358095" lon="11.33779037913132"><ele>617.0</ele><time>2026-05-02T09:13:29.728Z</time></trkpt><trkpt lat="44.12610999062348" lon="11.337804146437158"><ele>617.0</ele><time>2026-05-02T09:13:30.729Z</time></trkpt><trkpt lat="44.126290202402025" lon="11.337822841100664"><ele>617.0</ele><time>2026-05-02T09:13:31.729Z</time></trkpt><trkpt lat="44.12647001303916" lon="11.337835839143544"><ele>617.0</ele><time>2026-05-02T09:13:32.729Z</time></trkpt><trkpt lat="44.12664016466103" lon="11.33783745379337"><ele>619.3333333333333</ele><time>2026-05-02T09:13:33.728Z</time></trkpt><trkpt lat="44.12680529242218" lon="11.337784410500388"><ele>621.6666666666666</ele><time>2026-05-02T09:13:34.728Z</time></trkpt><trkpt lat="44.126959457698725" lon="11.33765719246794"><ele>624.0</ele><time>2026-05-02T09:13:35.728Z</time></trkpt><trkpt lat="44.12710444126996" lon="11.337501374691081"><ele>624.0</ele><time>2026-05-02T09:13:36.728Z</time></trkpt><trkpt lat="44.12725440178243" lon="11.337370682674468"><ele>624.0</ele><time>2026-05-02T09:13:37.729Z</time></trkpt><trkpt lat="44.127413728564925" lon="11.337315982908198"><ele>624.0</ele><time>2026-05-02T09:13:38.729Z</time></trkpt><trkpt lat="44.12758669941131" lon="11.337343101999009"><ele>624.6666666666666</ele><time>2026-05-02T09:13:39.728Z</time></trkpt><trkpt lat="44.12775656948676" lon="11.337417804658509"><ele>625.3333333333333</ele><time>2026-05-02T09:13:40.728Z</time></trkpt><trkpt lat="44.127915920222684" lon="11.337518093751411"><ele>626.0</ele><time>2026-05-02T09:13:41.728Z</time></trkpt><trkpt lat="44.12806015532505" lon="11.33761435708333"><ele>626.0</ele><time>2026-05-02T09:13:42.728Z</time></trkpt><trkpt lat="44.12820047675557" lon="11.337654381168829"><ele>626.0</ele><time>2026-05-02T09:13:43.728Z</time></trkpt><trkpt lat="44.128325565909954" lon="11.337606031261599"><ele>626.0</ele><time>2026-05-02T09:13:44.728Z</time></trkpt><trkpt lat="44.128426196373276" lon="11.337454901868071"><ele>626.0</ele><time>2026-05-02T09:13:45.728Z</time></trkpt><trkpt lat="44.128517921121315" lon="11.33726275512495"><ele>629.0</ele><time>2026-05-02T09:13:46.728Z</time></trkpt><trkpt lat="44.12862761068978" lon="11.337061780966046"><ele>632.0</ele><time>2026-05-02T09:13:47.728Z</time></trkpt><trkpt lat="44.128753655118565" lon="11.336870757083213"><ele>635.0</ele><time>2026-05-02T09:13:48.728Z</time></trkpt><trkpt lat="44.12888951120273" lon="11.336718129767803"><ele>635.0</ele><time>2026-05-02T09:13:49.728Z</time></trkpt><trkpt lat="44.12901726682514" lon="11.336614420844981"><ele>635.0</ele><time>2026-05-02T09:13:50.728Z</time></trkpt><trkpt lat="44.129154676476986" lon="11.336596047760041"><ele>635.0</ele><time>2026-05-02T09:13:51.728Z</time></trkpt><trkpt lat="44.12930215344417" lon="11.336622005159931"><ele>635.0</ele><time>2026-05-02T09:13:52.728Z</time></trkpt><trkpt lat="44.12944513688673" lon="11.33659027728486"><ele>637.3333333333333</ele><time>2026-05-02T09:13:53.728Z</time></trkpt><trkpt lat="44.129591100661294" lon="11.336494023108912"><ele>639.6666666666666</ele><time>2026-05-02T09:13:54.728Z</time></trkpt><trkpt lat="44.129729505145946" lon="11.336392392943889"><ele>642.0</ele><time>2026-05-02T09:13:55.728Z</time></trkpt><trkpt lat="44.12988995756156" lon="11.336346341909145"><ele>648.0</ele><time>2026-05-02T09:13:56.728Z</time></trkpt><trkpt lat="44.130059347235175" lon="11.336350274747794"><ele>654.0</ele><time>2026-05-02T09:13:57.728Z</time></trkpt><trkpt lat="44.13020772336601" lon="11.336331093483752"><ele>660.0</ele><time>2026-05-02T09:13:58.728Z</time></trkpt><trkpt lat="44.13032845258446" lon="11.336250168857655"><ele>660.0</ele><time>2026-05-02T09:13:59.728Z</time></trkpt><trkpt lat="44.13042132186799" lon="11.336066424464347"><ele>660.0</ele><time>2026-05-02T09:14:00.728Z</time></trkpt><trkpt lat="44.13047501634632" lon="11.335832763543014"><ele>660.0</ele><time>2026-05-02T09:14:01.728Z</time></trkpt><trkpt lat="44.13053229688719" lon="11.335589719006053"><ele>658.6666666666666</ele><time>2026-05-02T09:14:02.728Z</time></trkpt><trkpt lat="44.130595214968785" lon="11.33533993785764"><ele>657.3333333333333</ele><time>2026-05-02T09:14:03.728Z</time></trkpt><trkpt lat="44.1306844813582" lon="11.335152165885502"><ele>656.0</ele><time>2026-05-02T09:14:04.728Z</time></trkpt><trkpt lat="44.13082082348544" lon="11.335020223496189"><ele>660.6666666666666</ele><time>2026-05-02T09:14:05.727Z</time></trkpt><trkpt lat="44.130978622041894" lon="11.334925360332031"><ele>665.3333333333334</ele><time>2026-05-02T09:14:06.727Z</time></trkpt><trkpt lat="44.13110653248257" lon="11.334792421217347"><ele>670.0</ele><time>2026-05-02T09:14:07.727Z</time></trkpt><trkpt lat="44.13117896124892" lon="11.334598056323061"><ele>671.0</ele><time>2026-05-02T09:14:08.727Z</time></trkpt><trkpt lat="44.13121643617006" lon="11.334379681388219"><ele>672.0</ele><time>2026-05-02T09:14:09.727Z</time></trkpt><trkpt lat="44.131314106011274" lon="11.334250504655886"><ele>673.0</ele><time>2026-05-02T09:14:10.727Z</time></trkpt><trkpt lat="44.13145009877531" lon="11.334199544539858"><ele>674.0</ele><time>2026-05-02T09:14:11.727Z</time></trkpt><trkpt lat="44.13161203643557" lon="11.334226021655901"><ele>678.0</ele><time>2026-05-02T09:14:12.727Z</time></trkpt><trkpt lat="44.13178887185509" lon="11.334294880436943"><ele>682.0</ele><time>2026-05-02T09:14:13.727Z</time></trkpt><trkpt lat="44.13196247180951" lon="11.334343962071166"><ele>686.0</ele><time>2026-05-02T09:14:14.727Z</time></trkpt><trkpt lat="44.13213457992208" lon="11.334357642620539"><ele>686.0</ele><time>2026-05-02T09:14:15.727Z</time></trkpt><trkpt lat="44.132306722214636" lon="11.334323296059189"><ele>686.0</ele><time>2026-05-02T09:14:16.727Z</time></trkpt><trkpt lat="44.132469298829015" lon="11.334245416427509"><ele>686.0</ele><time>2026-05-02T09:14:17.727Z</time></trkpt><trkpt lat="44.13263002881956" lon="11.334161947465585"><ele>689.5</ele><time>2026-05-02T09:14:18.727Z</time></trkpt><trkpt lat="44.132789485278" lon="11.3341094318231"><ele>693.0</ele><time>2026-05-02T09:14:19.727Z</time></trkpt><trkpt lat="44.13292547580228" lon="11.334086777703616"><ele>696.5</ele><time>2026-05-02T09:14:20.727Z</time></trkpt><trkpt lat="44.13304400449857" lon="11.334052632812643"><ele>700.0</ele><time>2026-05-02T09:14:21.727Z</time></trkpt><trkpt lat="44.133122337664744" lon="11.33396851769983"><ele>700.5</ele><time>2026-05-02T09:14:22.727Z</time></trkpt><trkpt lat="44.133132971113774" lon="11.333820503261462"><ele>701.0</ele><time>2026-05-02T09:14:23.727Z</time></trkpt><trkpt lat="44.13308069031662" lon="11.333666305332764"><ele>701.5</ele><time>2026-05-02T09:14:24.727Z</time></trkpt><trkpt lat="44.13301123152876" lon="11.333519679453804"><ele>702.0</ele><time>2026-05-02T09:14:25.727Z</time></trkpt><trkpt lat="44.13297524789255" lon="11.33337180456216"><ele>702.0</ele><time>2026-05-02T09:14:26.727Z</time></trkpt><trkpt lat="44.13302427393282" lon="11.333266362077135"><ele>702.0</ele><time>2026-05-02T09:14:27.727Z</time></trkpt><trkpt lat="44.133123886437645" lon="11.333217179768969"><ele>702.0</ele><time>2026-05-02T09:14:28.727Z</time></trkpt><trkpt lat="44.13324846790075" lon="11.333207489012466"><ele>702.0</ele><time>2026-05-02T09:14:29.727Z</time></trkpt><trkpt lat="44.13337444104879" lon="11.333173593747826"><ele>702.0</ele><time>2026-05-02T09:14:30.726Z</time></trkpt><trkpt lat="44.13349986894302" lon="11.33311639058006"><ele>705.5</ele><time>2026-05-02T09:14:31.726Z</time></trkpt><trkpt lat="44.1336250177204" lon="11.333045361788878"><ele>709.0</ele><time>2026-05-02T09:14:32.726Z</time></trkpt><trkpt lat="44.13373973165883" lon="11.332976703947894"><ele>712.5</ele><time>2026-05-02T09:14:33.726Z</time></trkpt><trkpt lat="44.133852702665926" lon="11.332929651690923"><ele>716.0</ele><time>2026-05-02T09:14:34.726Z</time></trkpt><trkpt lat="44.13396080880214" lon="11.332880953508127"><ele>719.75</ele><time>2026-05-02T09:14:35.726Z</time></trkpt><trkpt lat="44.134074359810285" lon="11.332842194412173"><ele>723.5</ele><time>2026-05-02T09:14:36.726Z</time></trkpt><trkpt lat="44.13418680250809" lon="11.332784661628418"><ele>727.25</ele><time>2026-05-02T09:14:37.726Z</time></trkpt><trkpt lat="44.13429935051583" lon="11.33272373982975"><ele>731.0</ele><time>2026-05-02T09:14:38.726Z</time></trkpt><trkpt lat="44.134409771356815" lon="11.332672608139193"><ele>731.0</ele><time>2026-05-02T09:14:39.726Z</time></trkpt><trkpt lat="44.13450791418556" lon="11.332631826501878"><ele>731.0</ele><time>2026-05-02T09:14:40.726Z</time></trkpt><trkpt lat="44.13459116692955" lon="11.332607457058225"><ele>731.0</ele><time>2026-05-02T09:14:41.726Z</time></trkpt><trkpt lat="44.13466310812778" lon="11.332575027710291"><ele>731.0</ele><time>2026-05-02T09:14:42.726Z</time></trkpt><trkpt lat="44.13472182619997" lon="11.332509253006876"><ele>731.0</ele><time>2026-05-02T09:14:43.726Z</time></trkpt><trkpt lat="44.13476393188226" lon="11.332412768153402"><ele>731.0</ele><time>2026-05-02T09:14:44.726Z</time></trkpt><trkpt lat="44.134796535711494" lon="11.332321354628405"><ele>732.0</ele><time>2026-05-02T09:14:45.726Z</time></trkpt><trkpt lat="44.134848022622684" lon="11.332213459834716"><ele>733.0</ele><time>2026-05-02T09:14:46.726Z</time></trkpt><trkpt lat="44.13489781427743" lon="11.332079861298993"><ele>734.0</ele><time>2026-05-02T09:14:47.726Z</time></trkpt><trkpt lat="44.13494841063179" lon="11.331942856081229"><ele>735.0</ele><time>2026-05-02T09:14:48.726Z</time></trkpt><trkpt lat="44.135005695987466" lon="11.331799559565571"><ele>736.0</ele><time>2026-05-02T09:14:49.726Z</time></trkpt><trkpt lat="44.13506161218369" lon="11.331661088485177"><ele>736.0</ele><time>2026-05-02T09:14:50.726Z</time></trkpt><trkpt lat="44.13511972714462" lon="11.331515135785356"><ele>736.0</ele><time>2026-05-02T09:14:51.726Z</time></trkpt><trkpt lat="44.1351708321233" lon="11.331361593475325"><ele>736.0</ele><time>2026-05-02T09:14:52.726Z</time></trkpt><trkpt lat="44.135201699608125" lon="11.33119971628896"><ele>736.0</ele><time>2026-05-02T09:14:53.726Z</time></trkpt><trkpt lat="44.1352267381261" lon="11.331020979343455"><ele>736.25</ele><time>2026-05-02T09:14:54.726Z</time></trkpt><trkpt lat="44.1352485890219" lon="11.330833914652949"><ele>736.5</ele><time>2026-05-02T09:14:55.725Z</time></trkpt><trkpt lat="44.13527394352519" lon="11.330634677038011"><ele>736.75</ele><time>2026-05-02T09:14:56.725Z</time></trkpt><trkpt lat="44.13531125752425" lon="11.330433775186869"><ele>737.0</ele><time>2026-05-02T09:14:57.725Z</time></trkpt><trkpt lat="44.135352348093996" lon="11.330230253351578"><ele>737.0</ele><time>2026-05-02T09:14:58.725Z</time></trkpt><trkpt lat="44.135406891427685" lon="11.330025643327147"><ele>737.0</ele><time>2026-05-02T09:14:59.725Z</time></trkpt><trkpt lat="44.13547548621457" lon="11.32982374383469"><ele>737.0</ele><time>2026-05-02T09:15:00.725Z</time></trkpt><trkpt lat="44.135549374463444" lon="11.329626364193308"><ele>737.0</ele><time>2026-05-02T09:15:01.725Z</time></trkpt><trkpt lat="44.13564312397727" lon="11.329435298252774"><ele>737.0</ele><time>2026-05-02T09:15:02.725Z</time></trkpt><trkpt lat="44.13576071399261" lon="11.329275740307308"><ele>737.0</ele><time>2026-05-02T09:15:03.725Z</time></trkpt><trkpt lat="44.13587880428803" lon="11.32911119337937"><ele>741.3333333333333</ele><time>2026-05-02T09:15:04.725Z</time></trkpt><trkpt lat="44.13599312494959" lon="11.328937505289815"><ele>745.6666666666666</ele><time>2026-05-02T09:15:05.725Z</time></trkpt><trkpt lat="44.136101216404676" lon="11.328754593456038"><ele>750.0</ele><time>2026-05-02T09:15:06.725Z</time></trkpt><trkpt lat="44.13621058621098" lon="11.328580635046986"><ele>750.0</ele><time>2026-05-02T09:15:07.725Z</time></trkpt><trkpt lat="44.13630904255607" lon="11.328401915548042"><ele>750.0</ele><time>2026-05-02T09:15:08.725Z</time></trkpt><trkpt lat="44.13638398811305" lon="11.328206215796554"><ele>750.0</ele><time>2026-05-02T09:15:09.725Z</time></trkpt><trkpt lat="44.13643106181506" lon="11.327997535778291"><ele>749.6666666666666</ele><time>2026-05-02T09:15:10.725Z</time></trkpt><trkpt lat="44.13644956390663" lon="11.327775319629568"><ele>749.3333333333333</ele><time>2026-05-02T09:15:11.725Z</time></trkpt><trkpt lat="44.13643692314654" lon="11.327549497020648"><ele>749.0</ele><time>2026-05-02T09:15:12.725Z</time></trkpt><trkpt lat="44.13640554333081" lon="11.327320965464708"><ele>750.3333333333333</ele><time>2026-05-02T09:15:13.725Z</time></trkpt><trkpt lat="44.13640473747575" lon="11.327085688703551"><ele>751.6666666666666</ele><time>2026-05-02T09:15:14.725Z</time></trkpt><trkpt lat="44.13642360607275" lon="11.326846020832578"><ele>753.0</ele><time>2026-05-02T09:15:15.725Z</time></trkpt><trkpt lat="44.13644706025651" lon="11.32661001263242"><ele>754.6666666666666</ele><time>2026-05-02T09:15:16.725Z</time></trkpt><trkpt lat="44.13646888090345" lon="11.326362166864543"><ele>756.3333333333333</ele><time>2026-05-02T09:15:17.725Z</time></trkpt><trkpt lat="44.13649271936079" lon="11.326097300719615"><ele>758.0</ele><time>2026-05-02T09:15:18.725Z</time></trkpt><trkpt lat="44.13659108585297" lon="11.325832706372585"><ele>762.6666666666666</ele><time>2026-05-02T09:15:19.725Z</time></trkpt><trkpt lat="44.136756589623424" lon="11.325560055915874"><ele>767.3333333333333</ele><time>2026-05-02T09:15:20.725Z</time></trkpt><trkpt lat="44.13665117264927" lon="11.32552189871256"><ele>772.0</ele><time>2026-05-02T09:15:21.724Z</time></trkpt><trkpt lat="44.13681286043887" lon="11.325377231058685"><ele>772.0</ele><time>2026-05-02T09:15:22.724Z</time></trkpt><trkpt lat="44.13691174104499" lon="11.32518384830228"><ele>772.0</ele><time>2026-05-02T09:15:23.724Z</time></trkpt><trkpt lat="44.13693630018886" lon="11.324948769408957"><ele>772.0</ele><time>2026-05-02T09:15:24.724Z</time></trkpt><trkpt lat="44.136853601361864" lon="11.324677612985234"><ele>773.6666666666666</ele><time>2026-05-02T09:15:25.724Z</time></trkpt><trkpt lat="44.136740452401376" lon="11.324407138831724"><ele>775.3333333333333</ele><time>2026-05-02T09:15:26.724Z</time></trkpt><trkpt lat="44.13669653899918" lon="11.324106965880745"><ele>777.0</ele><time>2026-05-02T09:15:27.724Z</time></trkpt><trkpt lat="44.136704506491434" lon="11.323815804328397"><ele>777.6666666666667</ele><time>2026-05-02T09:15:28.724Z</time></trkpt><trkpt lat="44.1367448386131" lon="11.323573649423475"><ele>778.3333333333334</ele><time>2026-05-02T09:15:29.724Z</time></trkpt><trkpt lat="44.13685063777921" lon="11.323363927869503"><ele>779.0</ele><time>2026-05-02T09:15:30.726Z</time></trkpt><trkpt lat="44.137019484581195" lon="11.323229486406555"><ele>779.0</ele><time>2026-05-02T09:15:31.725Z</time></trkpt><trkpt lat="44.137219880510045" lon="11.323152086044812"><ele>779.0</ele><time>2026-05-02T09:15:32.725Z</time></trkpt><trkpt lat="44.13740570688659" lon="11.323051446950375"><ele>779.0</ele><time>2026-05-02T09:15:33.726Z</time></trkpt><trkpt lat="44.137596998223415" lon="11.32295630706406"><ele>782.6666666666667</ele><time>2026-05-02T09:15:34.726Z</time></trkpt><trkpt lat="44.137788932703856" lon="11.322865790707997"><ele>786.3333333333333</ele><time>2026-05-02T09:15:35.726Z</time></trkpt><trkpt lat="44.13797967682416" lon="11.322782959748686"><ele>790.0</ele><time>2026-05-02T09:15:36.725Z</time></trkpt><trkpt lat="44.13815962355228" lon="11.322701526983984"><ele>794.3333333333333</ele><time>2026-05-02T09:15:37.725Z</time></trkpt><trkpt lat="44.138324305249384" lon="11.322593524260114"><ele>798.6666666666667</ele><time>2026-05-02T09:15:38.725Z</time></trkpt><trkpt lat="44.13846698522124" lon="11.322451089970757"><ele>803.0</ele><time>2026-05-02T09:15:39.725Z</time></trkpt><trkpt lat="44.13856478630034" lon="11.32224012480432"><ele>803.3333333333334</ele><time>2026-05-02T09:15:40.725Z</time></trkpt><trkpt lat="44.138610812198465" lon="11.321992170505066"><ele>803.6666666666667</ele><time>2026-05-02T09:15:41.725Z</time></trkpt><trkpt lat="44.13858636621013" lon="11.32172255598265"><ele>804.0</ele><time>2026-05-02T09:15:42.725Z</time></trkpt><trkpt lat="44.13851697647984" lon="11.3214428959211"><ele>805.3333333333333</ele><time>2026-05-02T09:15:43.725Z</time></trkpt><trkpt lat="44.13838474378135" lon="11.321180689455026"><ele>806.6666666666666</ele><time>2026-05-02T09:15:44.725Z</time></trkpt><trkpt lat="44.13827015964801" lon="11.320952298594023"><ele>808.0</ele><time>2026-05-02T09:15:45.725Z</time></trkpt><trkpt lat="44.13813019292893" lon="11.320744125443845"><ele>808.0</ele><time>2026-05-02T09:15:46.725Z</time></trkpt><trkpt lat="44.13799627845666" lon="11.320574038856178"><ele>808.0</ele><time>2026-05-02T09:15:47.725Z</time></trkpt><trkpt lat="44.137854178746075" lon="11.320470792439266"><ele>808.0</ele><time>2026-05-02T09:15:48.725Z</time></trkpt><trkpt lat="44.137711864507025" lon="11.320444707702977"><ele>808.5999999999999</ele><time>2026-05-02T09:15:49.725Z</time></trkpt><trkpt lat="44.13761345251124" lon="11.320409502364958"><ele>809.1999999999999</ele><time>2026-05-02T09:15:50.725Z</time></trkpt><trkpt lat="44.13759118935622" lon="11.320315297997627"><ele>809.8</ele><time>2026-05-02T09:15:51.725Z</time></trkpt><trkpt lat="44.13765486562311" lon="11.320219356820932"><ele>810.4</ele><time>2026-05-02T09:15:52.725Z</time></trkpt><trkpt lat="44.13776976371887" lon="11.320200708951202"><ele>811.0</ele><time>2026-05-02T09:15:53.725Z</time></trkpt><trkpt lat="44.13790086430625" lon="11.320221799073126"><ele>811.0</ele><time>2026-05-02T09:15:54.725Z</time></trkpt><trkpt lat="44.138040347614165" lon="11.320231159730797"><ele>811.0</ele><time>2026-05-02T09:15:55.725Z</time></trkpt><trkpt lat="44.13816677485713" lon="11.320227490141406"><ele>811.0</ele><time>2026-05-02T09:15:56.725Z</time></trkpt><trkpt lat="44.138293132455196" lon="11.320217897499099"><ele>811.0</ele><time>2026-05-02T09:15:57.725Z</time></trkpt><trkpt lat="44.13842287574518" lon="11.320223271679934"><ele>812.9999999999999</ele><time>2026-05-02T09:15:58.725Z</time></trkpt><trkpt lat="44.138527840131566" lon="11.32023315657658"><ele>815.0</ele><time>2026-05-02T09:15:59.725Z</time></trkpt><trkpt lat="44.1386209787246" lon="11.32024094678471"><ele>817.0</ele><time>2026-05-02T09:16:00.725Z</time></trkpt><trkpt lat="44.138683153424466" lon="11.320263305975292"><ele>819.0</ele><time>2026-05-02T09:16:01.725Z</time></trkpt><trkpt lat="44.138719634706895" lon="11.320335281058432"><ele>820.9999999999999</ele><time>2026-05-02T09:16:03.725Z</time></trkpt><trkpt lat="44.13879298409388" lon="11.320418889052617"><ele>823.0</ele><time>2026-05-02T09:16:11.724Z</time></trkpt><trkpt lat="44.1388510764826" lon="11.320491235070094"><ele>823.0</ele><time>2026-05-02T09:16:12.724Z</time></trkpt><trkpt lat="44.138932790739716" lon="11.320563525123768"><ele>823.0</ele><time>2026-05-02T09:16:13.724Z</time></trkpt><trkpt lat="44.13903313467015" lon="11.320642753762241"><ele>823.0</ele><time>2026-05-02T09:16:14.724Z</time></trkpt><trkpt lat="44.13915199543739" lon="11.320715336595496"><ele>823.0</ele><time>2026-05-02T09:16:15.724Z</time></trkpt><trkpt lat="44.13926413607195" lon="11.320817385057905"><ele>822.25</ele><time>2026-05-02T09:16:16.724Z</time></trkpt><trkpt lat="44.13936959830875" lon="11.32095590035802"><ele>821.5</ele><time>2026-05-02T09:16:17.724Z</time></trkpt><trkpt lat="44.139473050260555" lon="11.321106582983354"><ele>820.75</ele><time>2026-05-02T09:16:18.724Z</time></trkpt><trkpt lat="44.13958710501982" lon="11.321249555582243"><ele>820.0</ele><time>2026-05-02T09:16:19.724Z</time></trkpt><trkpt lat="44.139702395260734" lon="11.32140940528784"><ele>820.0</ele><time>2026-05-02T09:16:20.724Z</time></trkpt><trkpt lat="44.13982242894885" lon="11.32157763914442"><ele>820.0</ele><time>2026-05-02T09:16:21.724Z</time></trkpt><trkpt lat="44.13997006543281" lon="11.321686227319468"><ele>820.0</ele><time>2026-05-02T09:16:22.724Z</time></trkpt><trkpt lat="44.14013940774966" lon="11.321725864050881"><ele>826.0</ele><time>2026-05-02T09:16:23.724Z</time></trkpt><trkpt lat="44.140312257246705" lon="11.321729647844151"><ele>832.0</ele><time>2026-05-02T09:16:24.724Z</time></trkpt><trkpt lat="44.14047190718215" lon="11.321758452448895"><ele>838.0</ele><time>2026-05-02T09:16:25.724Z</time></trkpt><trkpt lat="44.14059929048358" lon="11.321851883213276"><ele>838.0</ele><time>2026-05-02T09:16:26.724Z</time></trkpt><trkpt lat="44.1406939078622" lon="11.322033493829665"><ele>838.0</ele><time>2026-05-02T09:16:27.724Z</time></trkpt><trkpt lat="44.14076610829638" lon="11.322303292640477"><ele>838.0</ele><time>2026-05-02T09:16:28.724Z</time></trkpt><trkpt lat="44.14084819291655" lon="11.322574633054845"><ele>839.0</ele><time>2026-05-02T09:16:29.724Z</time></trkpt><trkpt lat="44.140940976679424" lon="11.322841195831968"><ele>840.0</ele><time>2026-05-02T09:16:30.723Z</time></trkpt><trkpt lat="44.14104398087677" lon="11.323106647372956"><ele>841.0</ele><time>2026-05-02T09:16:31.723Z</time></trkpt><trkpt lat="44.14114160522213" lon="11.32335343997245"><ele>841.0</ele><time>2026-05-02T09:16:32.723Z</time></trkpt><trkpt lat="44.141221554968475" lon="11.323583368060863"><ele>841.0</ele><time>2026-05-02T09:16:33.723Z</time></trkpt><trkpt lat="44.141272330005606" lon="11.32381698141689"><ele>841.0</ele><time>2026-05-02T09:16:34.723Z</time></trkpt><trkpt lat="44.141270349738726" lon="11.324087379878778"><ele>841.0</ele><time>2026-05-02T09:16:35.723Z</time></trkpt><trkpt lat="44.141242748062304" lon="11.324369685532286"><ele>841.0</ele><time>2026-05-02T09:16:36.723Z</time></trkpt><trkpt lat="44.141203223085206" lon="11.324646433632289"><ele>841.0</ele><time>2026-05-02T09:16:37.723Z</time></trkpt><trkpt lat="44.141140047209376" lon="11.324915654670557"><ele>842.0</ele><time>2026-05-02T09:16:38.723Z</time></trkpt><trkpt lat="44.14108171134581" lon="11.325156700298082"><ele>843.0</ele><time>2026-05-02T09:16:39.723Z</time></trkpt><trkpt lat="44.14101840140125" lon="11.325370912653332"><ele>844.0</ele><time>2026-05-02T09:16:40.723Z</time></trkpt><trkpt lat="44.14101900789359" lon="11.325575934757852"><ele>844.6666666666666</ele><time>2026-05-02T09:16:41.723Z</time></trkpt><trkpt lat="44.141064514325194" lon="11.325771257603908"><ele>845.3333333333333</ele><time>2026-05-02T09:16:42.723Z</time></trkpt><trkpt lat="44.141166712002146" lon="11.326009217432851"><ele>846.0</ele><time>2026-05-02T09:16:43.723Z</time></trkpt><trkpt lat="44.14126766507889" lon="11.32626916106251"><ele>846.0</ele><time>2026-05-02T09:16:44.723Z</time></trkpt><trkpt lat="44.14132895869513" lon="11.32651952171185"><ele>846.0</ele><time>2026-05-02T09:16:45.723Z</time></trkpt><trkpt lat="44.14131951950516" lon="11.326762253769987"><ele>846.0</ele><time>2026-05-02T09:16:46.723Z</time></trkpt><trkpt lat="44.141245186760656" lon="11.32699573140657"><ele>846.0</ele><time>2026-05-02T09:16:47.723Z</time></trkpt><trkpt lat="44.14106171230863" lon="11.3271840994913"><ele>846.0</ele><time>2026-05-02T09:16:48.723Z</time></trkpt><trkpt lat="44.140848878119854" lon="11.327312956285956"><ele>845.3333333333333</ele><time>2026-05-02T09:16:49.723Z</time></trkpt><trkpt lat="44.14065751085648" lon="11.327422488634339"><ele>844.6666666666666</ele><time>2026-05-02T09:16:50.723Z</time></trkpt><trkpt lat="44.14051019177552" lon="11.327554803057344"><ele>844.0</ele><time>2026-05-02T09:16:51.723Z</time></trkpt><trkpt lat="44.14042303337379" lon="11.327716582488252"><ele>844.0</ele><time>2026-05-02T09:16:52.723Z</time></trkpt><trkpt lat="44.140403909802885" lon="11.327955715571797"><ele>844.0</ele><time>2026-05-02T09:16:53.723Z</time></trkpt><trkpt lat="44.14046216729794" lon="11.328237739165687"><ele>844.0</ele><time>2026-05-02T09:16:54.723Z</time></trkpt><trkpt lat="44.140543164709165" lon="11.328478420765498"><ele>844.0</ele><time>2026-05-02T09:16:55.722Z</time></trkpt><trkpt lat="44.140634745670084" lon="11.32866167555018"><ele>844.0</ele><time>2026-05-02T09:16:56.722Z</time></trkpt><trkpt lat="44.1407727896424" lon="11.328724100046506"><ele>844.0</ele><time>2026-05-02T09:16:57.722Z</time></trkpt><trkpt lat="44.14094540046339" lon="11.32864821631926"><ele>851.5</ele><time>2026-05-02T09:16:58.722Z</time></trkpt><trkpt lat="44.141124621580076" lon="11.328473816585666"><ele>859.0</ele><time>2026-05-02T09:16:59.722Z</time></trkpt><trkpt lat="44.141305056121006" lon="11.328266091143218"><ele>859.0</ele><time>2026-05-02T09:17:00.722Z</time></trkpt><trkpt lat="44.141499587882834" lon="11.328083932540508"><ele>859.0</ele><time>2026-05-02T09:17:01.722Z</time></trkpt><trkpt lat="44.14170875332898" lon="11.327920410671599"><ele>862.0</ele><time>2026-05-02T09:17:02.722Z</time></trkpt><trkpt lat="44.14191769497636" lon="11.327754774702463"><ele>865.0</ele><time>2026-05-02T09:17:03.722Z</time></trkpt><trkpt lat="44.14212821226455" lon="11.327587944335292"><ele>865.0</ele><time>2026-05-02T09:17:04.722Z</time></trkpt><trkpt lat="44.142334112863985" lon="11.327428773093047"><ele>865.0</ele><time>2026-05-02T09:17:05.722Z</time></trkpt><trkpt lat="44.1425491237152" lon="11.327299280619"><ele>868.5</ele><time>2026-05-02T09:17:06.722Z</time></trkpt><trkpt lat="44.14277298986334" lon="11.327218222101605"><ele>872.0</ele><time>2026-05-02T09:17:07.722Z</time></trkpt><trkpt lat="44.142999023721124" lon="11.327165061883"><ele>876.5</ele><time>2026-05-02T09:17:08.722Z</time></trkpt><trkpt lat="44.143235999585144" lon="11.327150675457572"><ele>881.0</ele><time>2026-05-02T09:17:09.722Z</time></trkpt><trkpt lat="44.1434681902913" lon="11.327162458835456"><ele>881.0</ele><time>2026-05-02T09:17:10.722Z</time></trkpt><trkpt lat="44.14369443490136" lon="11.327205433980394"><ele>881.0</ele><time>2026-05-02T09:17:11.722Z</time></trkpt><trkpt lat="44.14391596427788" lon="11.327312324031704"><ele>876.0</ele><time>2026-05-02T09:17:12.722Z</time></trkpt><trkpt lat="44.1441293063529" lon="11.327455627749277"><ele>871.0</ele><time>2026-05-02T09:17:13.722Z</time></trkpt><trkpt lat="44.14432770902315" lon="11.327576216400473"><ele>871.0</ele><time>2026-05-02T09:17:14.722Z</time></trkpt><trkpt lat="44.144495086653905" lon="11.32761518756527"><ele>871.0</ele><time>2026-05-02T09:17:15.722Z</time></trkpt><trkpt lat="44.14464963269358" lon="11.327546766131984"><ele>871.0</ele><time>2026-05-02T09:17:16.722Z</time></trkpt><trkpt lat="44.1447861341008" lon="11.327364315174387"><ele>874.3333333333333</ele><time>2026-05-02T09:17:17.722Z</time></trkpt><trkpt lat="44.14487989827634" lon="11.32709808383857"><ele>877.6666666666667</ele><time>2026-05-02T09:17:18.722Z</time></trkpt><trkpt lat="44.14499309723211" lon="11.326827890351671"><ele>881.0</ele><time>2026-05-02T09:17:19.722Z</time></trkpt><trkpt lat="44.145171266539776" lon="11.326652229510067"><ele>881.0</ele><time>2026-05-02T09:17:20.722Z</time></trkpt><trkpt lat="44.145390470162724" lon="11.32657402391375"><ele>881.0</ele><time>2026-05-02T09:17:21.721Z</time></trkpt><trkpt lat="44.145634719701775" lon="11.326579564741122"><ele>880.0</ele><time>2026-05-02T09:17:22.721Z</time></trkpt><trkpt lat="44.145883342965945" lon="11.326658579639991"><ele>879.0</ele><time>2026-05-02T09:17:23.721Z</time></trkpt><trkpt lat="44.14611772387205" lon="11.326804585581945"><ele>879.0</ele><time>2026-05-02T09:17:24.721Z</time></trkpt><trkpt lat="44.14634191692976" lon="11.32698815020728"><ele>879.0</ele><time>2026-05-02T09:17:25.721Z</time></trkpt><trkpt lat="44.14656968960462" lon="11.327163794963274"><ele>877.5</ele><time>2026-05-02T09:17:26.721Z</time></trkpt><trkpt lat="44.146796433238656" lon="11.32727113389685"><ele>876.0</ele><time>2026-05-02T09:17:27.721Z</time></trkpt><trkpt lat="44.147023206863715" lon="11.327300016698437"><ele>876.0</ele><time>2026-05-02T09:17:28.721Z</time></trkpt><trkpt lat="44.14725012911888" lon="11.32722959659292"><ele>876.0</ele><time>2026-05-02T09:17:29.721Z</time></trkpt><trkpt lat="44.147479276639565" lon="11.327213262827744"><ele>879.3333333333333</ele><time>2026-05-02T09:17:30.721Z</time></trkpt><trkpt lat="44.14770347994396" lon="11.327275902659794"><ele>882.6666666666666</ele><time>2026-05-02T09:17:31.721Z</time></trkpt><trkpt lat="44.1478873973511" lon="11.32741392665006"><ele>886.0</ele><time>2026-05-02T09:17:32.721Z</time></trkpt><trkpt lat="44.14801369276626" lon="11.32755752426021"><ele>886.0</ele><time>2026-05-02T09:17:33.721Z</time></trkpt><trkpt lat="44.1481622168413" lon="11.327596093875899"><ele>886.0</ele><time>2026-05-02T09:17:34.721Z</time></trkpt><trkpt lat="44.1483271585397" lon="11.327510821799189"><ele>886.0</ele><time>2026-05-02T09:17:35.721Z</time></trkpt><trkpt lat="44.148495993963124" lon="11.327339516576691"><ele>895.5</ele><time>2026-05-02T09:17:36.722Z</time></trkpt><trkpt lat="44.14866098625055" lon="11.32712074990596"><ele>905.0</ele><time>2026-05-02T09:17:37.722Z</time></trkpt><trkpt lat="44.14881998102098" lon="11.326865443261319"><ele>905.0</ele><time>2026-05-02T09:17:38.722Z</time></trkpt><trkpt lat="44.148992832649434" lon="11.32660330934462"><ele>905.0</ele><time>2026-05-02T09:17:39.722Z</time></trkpt><trkpt lat="44.14916514708474" lon="11.326354574379955"><ele>906.0</ele><time>2026-05-02T09:17:40.722Z</time></trkpt><trkpt lat="44.14934194229964" lon="11.326158824047855"><ele>907.0</ele><time>2026-05-02T09:17:41.722Z</time></trkpt><trkpt lat="44.14951248086568" lon="11.325979073238486"><ele>908.0</ele><time>2026-05-02T09:17:42.722Z</time></trkpt><trkpt lat="44.14968699221521" lon="11.325861741653906"><ele>902.0</ele><time>2026-05-02T09:17:43.722Z</time></trkpt><trkpt lat="44.149919322001864" lon="11.32585626821953"><ele>896.0</ele><time>2026-05-02T09:17:44.722Z</time></trkpt><trkpt lat="44.15015603842259" lon="11.325903640565132"><ele>896.0</ele><time>2026-05-02T09:17:45.722Z</time></trkpt><trkpt lat="44.15037972644765" lon="11.325928957375783"><ele>896.0</ele><time>2026-05-02T09:17:46.722Z</time></trkpt><trkpt lat="44.1506024237168" lon="11.32594959965262"><ele>896.0</ele><time>2026-05-02T09:17:47.722Z</time></trkpt><trkpt lat="44.15082778332672" lon="11.325943660998462"><ele>893.0</ele><time>2026-05-02T09:17:48.722Z</time></trkpt><trkpt lat="44.15104968534376" lon="11.325910503375692"><ele>890.0</ele><time>2026-05-02T09:17:49.722Z</time></trkpt><trkpt lat="44.1512595155005" lon="11.32581392309979"><ele>887.0</ele><time>2026-05-02T09:17:50.722Z</time></trkpt><trkpt lat="44.15145191379286" lon="11.325670653323757"><ele>891.0</ele><time>2026-05-02T09:17:51.722Z</time></trkpt><trkpt lat="44.151633539765776" lon="11.325511635863426"><ele>895.0</ele><time>2026-05-02T09:17:52.722Z</time></trkpt><trkpt lat="44.151809603841386" lon="11.325343103939982"><ele>899.0</ele><time>2026-05-02T09:17:53.722Z</time></trkpt><trkpt lat="44.151992358505446" lon="11.32518683443979"><ele>899.0</ele><time>2026-05-02T09:17:54.722Z</time></trkpt><trkpt lat="44.15216208688656" lon="11.32503192637638"><ele>899.0</ele><time>2026-05-02T09:17:55.722Z</time></trkpt><trkpt lat="44.152332117885344" lon="11.324886328273632"><ele>899.0</ele><time>2026-05-02T09:17:56.722Z</time></trkpt><trkpt lat="44.152505639424234" lon="11.324741861576635"><ele>900.6666666666667</ele><time>2026-05-02T09:17:57.722Z</time></trkpt><trkpt lat="44.15267045780525" lon="11.324597981525306"><ele>902.3333333333333</ele><time>2026-05-02T09:17:58.722Z</time></trkpt><trkpt lat="44.15282935546632" lon="11.324479986369699"><ele>904.0</ele><time>2026-05-02T09:17:59.722Z</time></trkpt><trkpt lat="44.15299819360078" lon="11.324438475483312"><ele>904.0</ele><time>2026-05-02T09:18:00.722Z</time></trkpt><trkpt lat="44.15318461041668" lon="11.324466763180451"><ele>904.0</ele><time>2026-05-02T09:18:01.722Z</time></trkpt><trkpt lat="44.15336852746086" lon="11.324564865081104"><ele>904.0</ele><time>2026-05-02T09:18:02.722Z</time></trkpt><trkpt lat="44.153545902672136" lon="11.324727341287108"><ele>899.6666666666666</ele><time>2026-05-02T09:18:03.722Z</time></trkpt><trkpt lat="44.15370933570733" lon="11.324894445328013"><ele>895.3333333333333</ele><time>2026-05-02T09:18:04.722Z</time></trkpt><trkpt lat="44.1538750481009" lon="11.325032730807147"><ele>891.0</ele><time>2026-05-02T09:18:05.722Z</time></trkpt><trkpt lat="44.154059578947624" lon="11.325136627824607"><ele>891.0</ele><time>2026-05-02T09:18:06.722Z</time></trkpt><trkpt lat="44.15425443946865" lon="11.325201881163585"><ele>891.0</ele><time>2026-05-02T09:18:07.722Z</time></trkpt><trkpt lat="44.154439406788775" lon="11.325219992994953"><ele>891.0</ele><time>2026-05-02T09:18:08.721Z</time></trkpt><trkpt lat="44.154605739312316" lon="11.32516738765693"><ele>891.0</ele><time>2026-05-02T09:18:09.721Z</time></trkpt><trkpt lat="44.154743807597036" lon="11.325015199056644"><ele>891.0</ele><time>2026-05-02T09:18:10.721Z</time></trkpt><trkpt lat="44.15484241085166" lon="11.324790284144393"><ele>891.0</ele><time>2026-05-02T09:18:11.721Z</time></trkpt><trkpt lat="44.1549450037747" lon="11.324543190863999"><ele>892.3333333333333</ele><time>2026-05-02T09:18:12.721Z</time></trkpt><trkpt lat="44.15508899045327" lon="11.324338858511528"><ele>893.6666666666666</ele><time>2026-05-02T09:18:13.721Z</time></trkpt><trkpt lat="44.15526237572241" lon="11.324180160048257"><ele>895.0</ele><time>2026-05-02T09:18:14.721Z</time></trkpt><trkpt lat="44.15541266779637" lon="11.323984518680307"><ele>896.3333333333333</ele><time>2026-05-02T09:18:15.721Z</time></trkpt><trkpt lat="44.15554423048288" lon="11.323761070146213"><ele>897.6666666666667</ele><time>2026-05-02T09:18:16.721Z</time></trkpt><trkpt lat="44.15566501234857" lon="11.323528119803248"><ele>899.0</ele><time>2026-05-02T09:18:17.721Z</time></trkpt><trkpt lat="44.155809286081684" lon="11.32334051217165"><ele>899.0</ele><time>2026-05-02T09:18:18.721Z</time></trkpt><trkpt lat="44.155976376797945" lon="11.323202557285649"><ele>899.0</ele><time>2026-05-02T09:18:19.721Z</time></trkpt><trkpt lat="44.156170567624365" lon="11.323149635768877"><ele>899.0</ele><time>2026-05-02T09:18:20.721Z</time></trkpt><trkpt lat="44.15637160359018" lon="11.323185359102755"><ele>899.6666666666667</ele><time>2026-05-02T09:18:21.721Z</time></trkpt><trkpt lat="44.15655973336175" lon="11.323275958589868"><ele>900.3333333333333</ele><time>2026-05-02T09:18:22.721Z</time></trkpt><trkpt lat="44.15674883627539" lon="11.323375361126397"><ele>901.0</ele><time>2026-05-02T09:18:23.721Z</time></trkpt><trkpt lat="44.156921390214265" lon="11.323446958079867"><ele>901.0</ele><time>2026-05-02T09:18:24.721Z</time></trkpt><trkpt lat="44.15710959889056" lon="11.323427258163905"><ele>901.0</ele><time>2026-05-02T09:18:25.721Z</time></trkpt><trkpt lat="44.1573026329027" lon="11.323342664153751"><ele>901.0</ele><time>2026-05-02T09:18:26.721Z</time></trkpt><trkpt lat="44.157484200720575" lon="11.323206114567393"><ele>902.6666666666666</ele><time>2026-05-02T09:18:27.721Z</time></trkpt><trkpt lat="44.157645737524014" lon="11.323012669941109"><ele>904.3333333333333</ele><time>2026-05-02T09:18:28.721Z</time></trkpt><trkpt lat="44.15778814163567" lon="11.322836177505192"><ele>906.0</ele><time>2026-05-02T09:18:29.721Z</time></trkpt><trkpt lat="44.15794963573459" lon="11.322703926823708"><ele>906.0</ele><time>2026-05-02T09:18:30.721Z</time></trkpt><trkpt lat="44.15813244904192" lon="11.322640757727509"><ele>906.0</ele><time>2026-05-02T09:18:31.721Z</time></trkpt><trkpt lat="44.158332564461986" lon="11.322688650537218"><ele>906.0</ele><time>2026-05-02T09:18:32.721Z</time></trkpt><trkpt lat="44.15851858666369" lon="11.3227976130176"><ele>905.6666666666667</ele><time>2026-05-02T09:18:33.721Z</time></trkpt><trkpt lat="44.15868586709963" lon="11.322953205375685"><ele>905.3333333333334</ele><time>2026-05-02T09:18:34.72Z</time></trkpt><trkpt lat="44.15882193116995" lon="11.323116573809909"><ele>905.0</ele><time>2026-05-02T09:18:35.72Z</time></trkpt><trkpt lat="44.15894368142949" lon="11.323281815429024"><ele>903.0</ele><time>2026-05-02T09:18:36.72Z</time></trkpt><trkpt lat="44.15907646408138" lon="11.323414293907284"><ele>901.0</ele><time>2026-05-02T09:18:37.72Z</time></trkpt><trkpt lat="44.159222776282924" lon="11.323522758169947"><ele>899.0</ele><time>2026-05-02T09:18:38.72Z</time></trkpt><trkpt lat="44.159386219546896" lon="11.32363230770321"><ele>899.0</ele><time>2026-05-02T09:18:39.72Z</time></trkpt><trkpt lat="44.15955243418357" lon="11.323681984972396"><ele>899.0</ele><time>2026-05-02T09:18:40.72Z</time></trkpt><trkpt lat="44.1597120384281" lon="11.323819898434609"><ele>899.0</ele><time>2026-05-02T09:18:41.72Z</time></trkpt><trkpt lat="44.15986208713014" lon="11.323986035459065"><ele>899.0</ele><time>2026-05-02T09:18:42.72Z</time></trkpt><trkpt lat="44.159970449176946" lon="11.324208235186173"><ele>899.0</ele><time>2026-05-02T09:18:43.72Z</time></trkpt><trkpt lat="44.16004052991697" lon="11.32447002305893"><ele>899.0</ele><time>2026-05-02T09:18:44.72Z</time></trkpt><trkpt lat="44.160089546343826" lon="11.324736920603737"><ele>896.0</ele><time>2026-05-02T09:18:45.72Z</time></trkpt><trkpt lat="44.16015859736603" lon="11.325001419365432"><ele>893.0</ele><time>2026-05-02T09:18:46.72Z</time></trkpt><trkpt lat="44.16022484983742" lon="11.325267669075012"><ele>890.0</ele><time>2026-05-02T09:18:47.72Z</time></trkpt><trkpt lat="44.16029956666023" lon="11.325533269850528"><ele>887.3333333333334</ele><time>2026-05-02T09:18:48.72Z</time></trkpt><trkpt lat="44.16038325942753" lon="11.325790625009605"><ele>884.6666666666667</ele><time>2026-05-02T09:18:49.72Z</time></trkpt><trkpt lat="44.16046417846405" lon="11.32605394538997"><ele>882.0</ele><time>2026-05-02T09:18:50.72Z</time></trkpt><trkpt lat="44.16055807714261" lon="11.326321893000474"><ele>880.0</ele><time>2026-05-02T09:18:51.72Z</time></trkpt><trkpt lat="44.16065579364267" lon="11.326579233413872"><ele>878.0</ele><time>2026-05-02T09:18:52.72Z</time></trkpt><trkpt lat="44.16076098893823" lon="11.326842755140756"><ele>876.0</ele><time>2026-05-02T09:18:53.72Z</time></trkpt><trkpt lat="44.160868381855344" lon="11.32710470285149"><ele>878.3333333333333</ele><time>2026-05-02T09:18:54.72Z</time></trkpt><trkpt lat="44.16098134825233" lon="11.327360674175285"><ele>880.6666666666666</ele><time>2026-05-02T09:18:55.72Z</time></trkpt><trkpt lat="44.16108755741353" lon="11.327620756078444"><ele>883.0</ele><time>2026-05-02T09:18:56.72Z</time></trkpt><trkpt lat="44.16117532927171" lon="11.327898773762167"><ele>882.6666666666666</ele><time>2026-05-02T09:18:57.72Z</time></trkpt><trkpt lat="44.16124039153356" lon="11.328168516232811"><ele>882.3333333333333</ele><time>2026-05-02T09:18:58.72Z</time></trkpt><trkpt lat="44.16128501777978" lon="11.328441400349984"><ele>882.0</ele><time>2026-05-02T09:18:59.719Z</time></trkpt><trkpt lat="44.16131017808435" lon="11.328702981395175"><ele>879.3333333333333</ele><time>2026-05-02T09:19:00.719Z</time></trkpt><trkpt lat="44.16133139413179" lon="11.328948070662339"><ele>876.6666666666666</ele><time>2026-05-02T09:19:01.719Z</time></trkpt><trkpt lat="44.161369329844156" lon="11.329169143585377"><ele>874.0</ele><time>2026-05-02T09:19:02.719Z</time></trkpt><trkpt lat="44.161440798171604" lon="11.329331014260836"><ele>876.3333333333333</ele><time>2026-05-02T09:19:03.719Z</time></trkpt><trkpt lat="44.1615479884628" lon="11.329478011226778"><ele>878.6666666666667</ele><time>2026-05-02T09:19:04.719Z</time></trkpt><trkpt lat="44.161694744649" lon="11.329576619795452"><ele>881.0</ele><time>2026-05-02T09:19:05.719Z</time></trkpt><trkpt lat="44.16186319578105" lon="11.329659838302948"><ele>881.0</ele><time>2026-05-02T09:19:06.719Z</time></trkpt><trkpt lat="44.16203482632166" lon="11.32970858552097"><ele>881.0</ele><time>2026-05-02T09:19:07.719Z</time></trkpt><trkpt lat="44.16219318769553" lon="11.329725684985291"><ele>881.0</ele><time>2026-05-02T09:19:08.719Z</time></trkpt><trkpt lat="44.16234451591089" lon="11.329725385820993"><ele>881.0</ele><time>2026-05-02T09:19:09.719Z</time></trkpt><trkpt lat="44.16248877943608" lon="11.329721616799421"><ele>881.0</ele><time>2026-05-02T09:19:10.719Z</time></trkpt><trkpt lat="44.1626268017584" lon="11.329762700333799"><ele>881.0</ele><time>2026-05-02T09:19:11.719Z</time></trkpt><trkpt lat="44.16272135894273" lon="11.329876550237618"><ele>881.0</ele><time>2026-05-02T09:19:12.719Z</time></trkpt><trkpt lat="44.162787389614884" lon="11.330022922639928"><ele>877.0</ele><time>2026-05-02T09:19:13.719Z</time></trkpt><trkpt lat="44.16283558566591" lon="11.330194103955643"><ele>873.0</ele><time>2026-05-02T09:19:14.719Z</time></trkpt><trkpt lat="44.16287443326981" lon="11.330353635041162"><ele>869.0</ele><time>2026-05-02T09:19:15.719Z</time></trkpt><trkpt lat="44.162877861795266" lon="11.330516532254045"><ele>865.0</ele><time>2026-05-02T09:19:16.719Z</time></trkpt><trkpt lat="44.16285330207742" lon="11.330671267691187"><ele>862.8</ele><time>2026-05-02T09:19:17.719Z</time></trkpt><trkpt lat="44.16282387646537" lon="11.330821506965512"><ele>860.6</ele><time>2026-05-02T09:19:18.719Z</time></trkpt><trkpt lat="44.16280715130547" lon="11.330965437499652"><ele>858.4000000000001</ele><time>2026-05-02T09:19:19.719Z</time></trkpt><trkpt lat="44.162813408853815" lon="11.331108560888527"><ele>856.2</ele><time>2026-05-02T09:19:20.719Z</time></trkpt><trkpt lat="44.16285836090399" lon="11.331253729638842"><ele>854.0</ele><time>2026-05-02T09:19:21.719Z</time></trkpt><trkpt lat="44.162939904342466" lon="11.331363381103154"><ele>853.25</ele><time>2026-05-02T09:19:22.719Z</time></trkpt><trkpt lat="44.163042530106345" lon="11.331424507572622"><ele>852.5</ele><time>2026-05-02T09:19:23.719Z</time></trkpt><trkpt lat="44.16315003825207" lon="11.331481756778587"><ele>851.75</ele><time>2026-05-02T09:19:24.719Z</time></trkpt><trkpt lat="44.16325640055073" lon="11.331549796572466"><ele>851.0</ele><time>2026-05-02T09:19:25.718Z</time></trkpt><trkpt lat="44.163358416480214" lon="11.33163316450482"><ele>851.0</ele><time>2026-05-02T09:19:26.718Z</time></trkpt><trkpt lat="44.16346655006826" lon="11.331716831406373"><ele>851.0</ele><time>2026-05-02T09:19:27.718Z</time></trkpt><trkpt lat="44.163575903163014" lon="11.33180488662349"><ele>851.0</ele><time>2026-05-02T09:19:28.718Z</time></trkpt><trkpt lat="44.163682735455666" lon="11.331892117242806"><ele>851.0</ele><time>2026-05-02T09:19:29.718Z</time></trkpt><trkpt lat="44.163782925658765" lon="11.331998748175694"><ele>851.0</ele><time>2026-05-02T09:19:30.718Z</time></trkpt><trkpt lat="44.163870311283965" lon="11.332145204416587"><ele>851.0</ele><time>2026-05-02T09:19:31.718Z</time></trkpt><trkpt lat="44.16395115982638" lon="11.33228885748233"><ele>851.0</ele><time>2026-05-02T09:19:32.718Z</time></trkpt><trkpt lat="44.164022374948765" lon="11.332435903646807"><ele>851.0</ele><time>2026-05-02T09:19:33.718Z</time></trkpt><trkpt lat="44.16409066245337" lon="11.33257416134829"><ele>851.5</ele><time>2026-05-02T09:19:34.718Z</time></trkpt><trkpt lat="44.164167610607045" lon="11.332700250612096"><ele>852.0</ele><time>2026-05-02T09:19:35.718Z</time></trkpt><trkpt lat="44.16425234693468" lon="11.332812897667285"><ele>852.5</ele><time>2026-05-02T09:19:36.718Z</time></trkpt><trkpt lat="44.16434258021364" lon="11.332916651034324"><ele>853.0</ele><time>2026-05-02T09:19:37.718Z</time></trkpt><trkpt lat="44.16441654192575" lon="11.333028977862753"><ele>851.5</ele><time>2026-05-02T09:19:38.718Z</time></trkpt><trkpt lat="44.164478909464975" lon="11.333157042122455"><ele>850.0</ele><time>2026-05-02T09:19:39.718Z</time></trkpt><trkpt lat="44.1645154710801" lon="11.33331605802132"><ele>848.5</ele><time>2026-05-02T09:19:40.718Z</time></trkpt><trkpt lat="44.164530738675225" lon="11.333467748764798"><ele>847.0</ele><time>2026-05-02T09:19:41.718Z</time></trkpt><trkpt lat="44.164544904022875" lon="11.333624152675595"><ele>847.0</ele><time>2026-05-02T09:19:42.719Z</time></trkpt><trkpt lat="44.16457608347464" lon="11.333765617625552"><ele>847.0</ele><time>2026-05-02T09:19:43.719Z</time></trkpt><trkpt lat="44.16462254133726" lon="11.333892381717405"><ele>847.0</ele><time>2026-05-02T09:19:44.719Z</time></trkpt><trkpt lat="44.164676509719044" lon="11.334012626649882"><ele>847.0</ele><time>2026-05-02T09:19:45.72Z</time></trkpt><trkpt lat="44.16474305743019" lon="11.334131307064009"><ele>847.0</ele><time>2026-05-02T09:19:46.719Z</time></trkpt><trkpt lat="44.16481503901839" lon="11.334234660548734"><ele>847.8</ele><time>2026-05-02T09:19:47.719Z</time></trkpt><trkpt lat="44.164884718306574" lon="11.3343348349975"><ele>848.6</ele><time>2026-05-02T09:19:48.719Z</time></trkpt><trkpt lat="44.16495312568291" lon="11.334442500818142"><ele>849.4</ele><time>2026-05-02T09:19:49.719Z</time></trkpt><trkpt lat="44.165026214525085" lon="11.334555955574915"><ele>850.1999999999999</ele><time>2026-05-02T09:19:50.719Z</time></trkpt><trkpt lat="44.16509896814749" lon="11.334662656571727"><ele>851.0</ele><time>2026-05-02T09:19:51.719Z</time></trkpt><trkpt lat="44.16516973894796" lon="11.334785288618496"><ele>851.0</ele><time>2026-05-02T09:19:52.719Z</time></trkpt><trkpt lat="44.16523911344905" lon="11.334900084782552"><ele>851.0</ele><time>2026-05-02T09:19:53.719Z</time></trkpt><trkpt lat="44.16530825292994" lon="11.335026170387085"><ele>851.0</ele><time>2026-05-02T09:19:54.719Z</time></trkpt><trkpt lat="44.16536666237608" lon="11.335179686392358"><ele>851.0</ele><time>2026-05-02T09:19:55.719Z</time></trkpt><trkpt lat="44.165392140153095" lon="11.335327513302007"><ele>851.0</ele><time>2026-05-02T09:19:56.719Z</time></trkpt><trkpt lat="44.165411603370885" lon="11.33548006145756"><ele>851.0</ele><time>2026-05-02T09:19:57.719Z</time></trkpt><trkpt lat="44.165425410489426" lon="11.33563914945777"><ele>851.0</ele><time>2026-05-02T09:19:58.719Z</time></trkpt><trkpt lat="44.16544646153758" lon="11.335921514226085"><ele>851.0</ele><time>2026-05-02T09:20:00.719Z</time></trkpt><trkpt lat="44.16546131101407" lon="11.336032508455522"><ele>851.1999999999999</ele><time>2026-05-02T09:20:01.718Z</time></trkpt><trkpt lat="44.165490042137094" lon="11.336135162069098"><ele>851.4</ele><time>2026-05-02T09:20:02.718Z</time></trkpt><trkpt lat="44.16555991211837" lon="11.336224828658677"><ele>851.6</ele><time>2026-05-02T09:20:03.718Z</time></trkpt><trkpt lat="44.16567452097254" lon="11.336238968155783"><ele>851.8</ele><time>2026-05-02T09:20:04.718Z</time></trkpt><trkpt lat="44.165790400925594" lon="11.336193068239943"><ele>852.0</ele><time>2026-05-02T09:20:05.718Z</time></trkpt><trkpt lat="44.16589259699923" lon="11.336114775250996"><ele>854.5</ele><time>2026-05-02T09:20:06.718Z</time></trkpt><trkpt lat="44.16599655999183" lon="11.336044358303981"><ele>857.0</ele><time>2026-05-02T09:20:07.718Z</time></trkpt><trkpt lat="44.166109161683636" lon="11.335983369049922"><ele>859.5</ele><time>2026-05-02T09:20:08.718Z</time></trkpt><trkpt lat="44.16620741944996" lon="11.33590293108856"><ele>862.0</ele><time>2026-05-02T09:20:09.718Z</time></trkpt><trkpt lat="44.1663061622362" lon="11.335818365667734"><ele>862.0</ele><time>2026-05-02T09:20:10.718Z</time></trkpt><trkpt lat="44.166399882036046" lon="11.335718244721006"><ele>862.0</ele><time>2026-05-02T09:20:11.718Z</time></trkpt><trkpt lat="44.166500886753354" lon="11.335632737622861"><ele>862.0</ele><time>2026-05-02T09:20:12.718Z</time></trkpt><trkpt lat="44.1666020904747" lon="11.335540450937824"><ele>862.0</ele><time>2026-05-02T09:20:13.718Z</time></trkpt><trkpt lat="44.16670718835667" lon="11.33544556120655"><ele>863.5</ele><time>2026-05-02T09:20:14.718Z</time></trkpt><trkpt lat="44.16681429989617" lon="11.33534735804907"><ele>865.0</ele><time>2026-05-02T09:20:15.718Z</time></trkpt><trkpt lat="44.166924481014966" lon="11.335257336940014"><ele>866.5</ele><time>2026-05-02T09:20:16.718Z</time></trkpt><trkpt lat="44.16703855075361" lon="11.335171756029764"><ele>868.0</ele><time>2026-05-02T09:20:17.718Z</time></trkpt><trkpt lat="44.16714831867431" lon="11.335085062527819"><ele>868.0</ele><time>2026-05-02T09:20:18.718Z</time></trkpt><trkpt lat="44.16726048070349" lon="11.334983242651175"><ele>868.0</ele><time>2026-05-02T09:20:19.718Z</time></trkpt><trkpt lat="44.16736400816344" lon="11.33489063372164"><ele>868.0</ele><time>2026-05-02T09:20:20.718Z</time></trkpt><trkpt lat="44.167463915710464" lon="11.334786691070883"><ele>868.0</ele><time>2026-05-02T09:20:21.718Z</time></trkpt><trkpt lat="44.167532874822" lon="11.334666113079178"><ele>869.0</ele><time>2026-05-02T09:20:22.718Z</time></trkpt><trkpt lat="44.16756169151477" lon="11.334522831067234"><ele>870.0</ele><time>2026-05-02T09:20:23.718Z</time></trkpt><trkpt lat="44.16751349852927" lon="11.334363454716316"><ele>871.0</ele><time>2026-05-02T09:20:24.718Z</time></trkpt><trkpt lat="44.16741931944568" lon="11.33420045560631"><ele>872.0</ele><time>2026-05-02T09:20:25.718Z</time></trkpt><trkpt lat="44.16732102844039" lon="11.334044719140948"><ele>874.25</ele><time>2026-05-02T09:20:26.718Z</time></trkpt><trkpt lat="44.16724659956576" lon="11.333856983624434"><ele>876.5</ele><time>2026-05-02T09:20:27.717Z</time></trkpt><trkpt lat="44.1671701995182" lon="11.333656721050907"><ele>878.75</ele><time>2026-05-02T09:20:28.717Z</time></trkpt><trkpt lat="44.16715079165707" lon="11.333474283339465"><ele>881.0</ele><time>2026-05-02T09:20:29.717Z</time></trkpt><trkpt lat="44.16719459029674" lon="11.33329589714024"><ele>881.0</ele><time>2026-05-02T09:20:30.717Z</time></trkpt><trkpt lat="44.167303218589325" lon="11.333128875751074"><ele>881.0</ele><time>2026-05-02T09:20:31.717Z</time></trkpt><trkpt lat="44.16744687072013" lon="11.332983130297013"><ele>881.0</ele><time>2026-05-02T09:20:32.717Z</time></trkpt><trkpt lat="44.16756839625522" lon="11.332814350534989"><ele>884.3333333333334</ele><time>2026-05-02T09:20:33.717Z</time></trkpt><trkpt lat="44.16767949561134" lon="11.332620321067461"><ele>887.6666666666667</ele><time>2026-05-02T09:20:34.717Z</time></trkpt><trkpt lat="44.167786860588734" lon="11.332486390083815"><ele>891.0</ele><time>2026-05-02T09:20:35.717Z</time></trkpt><trkpt lat="44.16791956873846" lon="11.33246744963279"><ele>891.0</ele><time>2026-05-02T09:20:36.717Z</time></trkpt><trkpt lat="44.168079457343545" lon="11.33254118232057"><ele>891.0</ele><time>2026-05-02T09:20:37.717Z</time></trkpt><trkpt lat="44.168249672605945" lon="11.332648009837731"><ele>891.0</ele><time>2026-05-02T09:20:38.717Z</time></trkpt><trkpt lat="44.168441169012176" lon="11.332714796385892"><ele>899.0</ele><time>2026-05-02T09:20:39.717Z</time></trkpt><trkpt lat="44.1686570574815" lon="11.332779703357485"><ele>907.0</ele><time>2026-05-02T09:20:40.717Z</time></trkpt><trkpt lat="44.168879388156654" lon="11.33285608231759"><ele>910.6666666666666</ele><time>2026-05-02T09:20:41.717Z</time></trkpt><trkpt lat="44.16908658568675" lon="11.332914271281211"><ele>914.3333333333333</ele><time>2026-05-02T09:20:42.717Z</time></trkpt><trkpt lat="44.16929086352787" lon="11.332954713431352"><ele>918.0</ele><time>2026-05-02T09:20:43.717Z</time></trkpt><trkpt lat="44.16948952058258" lon="11.332912688551811"><ele>918.0</ele><time>2026-05-02T09:20:44.717Z</time></trkpt><trkpt lat="44.16970441052669" lon="11.332793082170783"><ele>918.0</ele><time>2026-05-02T09:20:45.717Z</time></trkpt><trkpt lat="44.169926168536364" lon="11.33266035155116"><ele>920.3333333333333</ele><time>2026-05-02T09:20:46.717Z</time></trkpt><trkpt lat="44.17014714466839" lon="11.332563656071468"><ele>922.6666666666666</ele><time>2026-05-02T09:20:47.717Z</time></trkpt><trkpt lat="44.17035013857631" lon="11.332502887516489"><ele>925.0</ele><time>2026-05-02T09:20:48.717Z</time></trkpt><trkpt lat="44.17051547207515" lon="11.332504668403999"><ele>925.0</ele><time>2026-05-02T09:20:49.717Z</time></trkpt><trkpt lat="44.17064803989929" lon="11.332592207488206"><ele>925.0</ele><time>2026-05-02T09:20:50.717Z</time></trkpt><trkpt lat="44.170740294824256" lon="11.332805539656809"><ele>925.0</ele><time>2026-05-02T09:20:51.717Z</time></trkpt><trkpt lat="44.17081166478125" lon="11.333080416622517"><ele>925.5</ele><time>2026-05-02T09:20:52.716Z</time></trkpt><trkpt lat="44.1708522575552" lon="11.3334226131655"><ele>926.0</ele><time>2026-05-02T09:20:53.716Z</time></trkpt><trkpt lat="44.17087921437151" lon="11.333740120415953"><ele>925.6666666666667</ele><time>2026-05-02T09:20:54.716Z</time></trkpt><trkpt lat="44.17091079799013" lon="11.334014243420334"><ele>925.3333333333333</ele><time>2026-05-02T09:20:55.716Z</time></trkpt><trkpt lat="44.17099640341565" lon="11.334232614633022"><ele>925.0</ele><time>2026-05-02T09:20:56.716Z</time></trkpt><trkpt lat="44.171141701386546" lon="11.3344378757571"><ele>925.0</ele><time>2026-05-02T09:20:57.716Z</time></trkpt><trkpt lat="44.171300418992686" lon="11.334659196541239"><ele>925.0</ele><time>2026-05-02T09:20:58.716Z</time></trkpt><trkpt lat="44.17146311394277" lon="11.334915250684526"><ele>933.0</ele><time>2026-05-02T09:20:59.716Z</time></trkpt><trkpt lat="44.17160111817405" lon="11.335189204404719"><ele>941.0</ele><time>2026-05-02T09:21:00.716Z</time></trkpt><trkpt lat="44.17172958832602" lon="11.335468443867828"><ele>940.6666666666667</ele><time>2026-05-02T09:21:01.716Z</time></trkpt><trkpt lat="44.171841982853806" lon="11.335738748552064"><ele>940.3333333333333</ele><time>2026-05-02T09:21:02.716Z</time></trkpt><trkpt lat="44.17195080445344" lon="11.335999770330476"><ele>940.0</ele><time>2026-05-02T09:21:03.716Z</time></trkpt><trkpt lat="44.17205618335065" lon="11.336243291108634"><ele>939.3333333333333</ele><time>2026-05-02T09:21:04.716Z</time></trkpt><trkpt lat="44.172158802011566" lon="11.336487431667216"><ele>938.6666666666667</ele><time>2026-05-02T09:21:05.716Z</time></trkpt><trkpt lat="44.172225965892224" lon="11.336742574692572"><ele>938.0</ele><time>2026-05-02T09:21:06.716Z</time></trkpt><trkpt lat="44.172240494222606" lon="11.33698030396377"><ele>938.0</ele><time>2026-05-02T09:21:07.716Z</time></trkpt><trkpt lat="44.17224036268835" lon="11.337197531472258"><ele>938.0</ele><time>2026-05-02T09:21:08.716Z</time></trkpt><trkpt lat="44.172263285216005" lon="11.337402077138472"><ele>938.0</ele><time>2026-05-02T09:21:09.716Z</time></trkpt><trkpt lat="44.17232912133072" lon="11.337574197274765"><ele>938.0</ele><time>2026-05-02T09:21:10.716Z</time></trkpt><trkpt lat="44.17241470040118" lon="11.337738609218672"><ele>942.5999999999999</ele><time>2026-05-02T09:21:11.716Z</time></trkpt><trkpt lat="44.17249235455633" lon="11.337905188185237"><ele>947.1999999999999</ele><time>2026-05-02T09:21:12.716Z</time></trkpt><trkpt lat="44.17255236623457" lon="11.338040983090448"><ele>951.8</ele><time>2026-05-02T09:21:13.716Z</time></trkpt><trkpt lat="44.172600311508454" lon="11.338153549799452"><ele>956.4</ele><time>2026-05-02T09:21:14.716Z</time></trkpt><trkpt lat="44.17263891750054" lon="11.33824209232544"><ele>961.0</ele><time>2026-05-02T09:21:15.716Z</time></trkpt><trkpt lat="44.17267826666766" lon="11.338336743315345"><ele>961.0</ele><time>2026-05-02T09:21:17.716Z</time></trkpt><trkpt lat="44.17270888511494" lon="11.338426505921937"><ele>961.0</ele><time>2026-05-02T09:21:20.715Z</time></trkpt><trkpt lat="44.17270839231623" lon="11.33852280419993"><ele>961.0</ele><time>2026-05-02T09:21:23.715Z</time></trkpt><trkpt lat="44.17274403461076" lon="11.338607850043614"><ele>961.0</ele><time>2026-05-02T09:21:27.715Z</time></trkpt></trkseg><trkseg><trkpt lat="44.17283853336992" lon="11.338656553369407"><ele>961.0</ele><time>2026-05-02T10:15:05.637Z</time></trkpt><trkpt lat="44.172894635322116" lon="11.338740535777625"><ele>960.9999999999999</ele><time>2026-05-02T10:15:07.637Z</time></trkpt><trkpt lat="44.17294793494979" lon="11.338805024195107"><ele>961.0</ele><time>2026-05-02T10:15:09.637Z</time></trkpt><trkpt lat="44.17301337412765" lon="11.338775208888325"><ele>961.0</ele><time>2026-05-02T10:15:12.637Z</time></trkpt><trkpt lat="44.173017049952506" lon="11.338657356775622"><ele>960.9999999999999</ele><time>2026-05-02T10:15:15.636Z</time></trkpt><trkpt lat="44.17303885831202" lon="11.338573312861206"><ele>961.0</ele><time>2026-05-02T10:15:17.636Z</time></trkpt><trkpt lat="44.17308474350623" lon="11.338495482238534"><ele>961.0</ele><time>2026-05-02T10:15:19.636Z</time></trkpt><trkpt lat="44.173150310642" lon="11.338414980832319"><ele>961.8</ele><time>2026-05-02T10:15:22.636Z</time></trkpt><trkpt lat="44.17323702033828" lon="11.338385449213753"><ele>962.5999999999999</ele><time>2026-05-02T10:15:24.636Z</time></trkpt><trkpt lat="44.17333781459584" lon="11.33832740036761"><ele>963.4</ele><time>2026-05-02T10:15:26.636Z</time></trkpt><trkpt lat="44.17344041241555" lon="11.33824585167277"><ele>964.2</ele><time>2026-05-02T10:15:28.636Z</time></trkpt><trkpt lat="44.17348886134611" lon="11.33818926534632"><ele>965.0</ele><time>2026-05-02T10:15:29.636Z</time></trkpt><trkpt lat="44.17355516413119" lon="11.338080950310214"><ele>965.6666666666667</ele><time>2026-05-02T10:15:31.636Z</time></trkpt><trkpt lat="44.173594232484945" lon="11.337996003743884"><ele>966.3333333333334</ele><time>2026-05-02T10:15:33.636Z</time></trkpt><trkpt lat="44.17363210438515" lon="11.33792384247666"><ele>967.0</ele><time>2026-05-02T10:15:36.636Z</time></trkpt><trkpt lat="44.17365960629341" lon="11.337796836648904"><ele>967.6666666666667</ele><time>2026-05-02T10:17:48.633Z</time></trkpt><trkpt lat="44.17369238446014" lon="11.337717980348163"><ele>968.3333333333334</ele><time>2026-05-02T10:17:49.633Z</time></trkpt><trkpt lat="44.17374348022981" lon="11.337630726369612"><ele>969.0</ele><time>2026-05-02T10:17:50.633Z</time></trkpt><trkpt lat="44.17379962197955" lon="11.337552481632589"><ele>969.0</ele><time>2026-05-02T10:17:51.633Z</time></trkpt><trkpt lat="44.1738525650014" lon="11.337481227770406"><ele>969.0000000000001</ele><time>2026-05-02T10:17:52.633Z</time></trkpt><trkpt lat="44.173918851050956" lon="11.337397008980556"><ele>969.0000000000001</ele><time>2026-05-02T10:17:53.633Z</time></trkpt><trkpt lat="44.173992913541454" lon="11.337323408438845"><ele>969.0</ele><time>2026-05-02T10:17:54.633Z</time></trkpt><trkpt lat="44.17407526656498" lon="11.337253329792684"><ele>969.0</ele><time>2026-05-02T10:17:55.633Z</time></trkpt><trkpt lat="44.17416633721151" lon="11.337177074480765"><ele>967.0</ele><time>2026-05-02T10:17:56.633Z</time></trkpt><trkpt lat="44.17425324309462" lon="11.337092741460808"><ele>965.0000000000001</ele><time>2026-05-02T10:17:57.632Z</time></trkpt><trkpt lat="44.17434143148133" lon="11.337012791416873"><ele>963.0000000000001</ele><time>2026-05-02T10:17:58.632Z</time></trkpt><trkpt lat="44.174437069829445" lon="11.336929547884397"><ele>961.0</ele><time>2026-05-02T10:17:59.632Z</time></trkpt><trkpt lat="44.174542021672025" lon="11.336846413255293"><ele>959.0</ele><time>2026-05-02T10:18:00.632Z</time></trkpt><trkpt lat="44.17464851427384" lon="11.336757932531027"><ele>959.0</ele><time>2026-05-02T10:18:01.632Z</time></trkpt><trkpt lat="44.174764447737104" lon="11.33668375611742"><ele>959.0</ele><time>2026-05-02T10:18:02.632Z</time></trkpt><trkpt lat="44.17488997718605" lon="11.336631486024753"><ele>959.0</ele><time>2026-05-02T10:18:03.632Z</time></trkpt><trkpt lat="44.175015454858816" lon="11.336620829044614"><ele>959.0</ele><time>2026-05-02T10:18:04.632Z</time></trkpt><trkpt lat="44.17513987391032" lon="11.33666588420451"><ele>957.25</ele><time>2026-05-02T10:18:05.632Z</time></trkpt><trkpt lat="44.175261468190186" lon="11.336745118812598"><ele>955.5</ele><time>2026-05-02T10:18:06.632Z</time></trkpt><trkpt lat="44.17537771081769" lon="11.336840448503924"><ele>953.75</ele><time>2026-05-02T10:18:07.632Z</time></trkpt><trkpt lat="44.17548195142372" lon="11.336957175907115"><ele>952.0</ele><time>2026-05-02T10:18:08.632Z</time></trkpt><trkpt lat="44.17556989724303" lon="11.337102726873946"><ele>950.75</ele><time>2026-05-02T10:18:09.632Z</time></trkpt><trkpt lat="44.175641891635976" lon="11.337262982858933"><ele>949.5</ele><time>2026-05-02T10:18:10.632Z</time></trkpt><trkpt lat="44.17570820816857" lon="11.337423929771479"><ele>948.25</ele><time>2026-05-02T10:18:11.632Z</time></trkpt><trkpt lat="44.17578958157537" lon="11.33756925973173"><ele>947.0</ele><time>2026-05-02T10:18:12.632Z</time></trkpt><trkpt lat="44.175890176561374" lon="11.337684497003806"><ele>947.0</ele><time>2026-05-02T10:18:13.632Z</time></trkpt><trkpt lat="44.17601291070193" lon="11.337779170384055"><ele>947.0</ele><time>2026-05-02T10:18:14.632Z</time></trkpt><trkpt lat="44.17614369507124" lon="11.33787143320798"><ele>947.0</ele><time>2026-05-02T10:18:15.632Z</time></trkpt><trkpt lat="44.17628001992276" lon="11.337955787687427"><ele>947.0</ele><time>2026-05-02T10:18:16.632Z</time></trkpt><trkpt lat="44.1764195757782" lon="11.338028785164978"><ele>942.5</ele><time>2026-05-02T10:18:17.632Z</time></trkpt><trkpt lat="44.176548919010166" lon="11.338104730296111"><ele>938.0</ele><time>2026-05-02T10:18:18.632Z</time></trkpt><trkpt lat="44.17666692757111" lon="11.33818184092924"><ele>933.5</ele><time>2026-05-02T10:18:19.632Z</time></trkpt><trkpt lat="44.17678790007391" lon="11.33824301684128"><ele>929.0</ele><time>2026-05-02T10:18:20.632Z</time></trkpt><trkpt lat="44.17691358428974" lon="11.338243402412617"><ele>929.0</ele><time>2026-05-02T10:18:21.632Z</time></trkpt><trkpt lat="44.17705184994151" lon="11.338156845758782"><ele>929.0</ele><time>2026-05-02T10:18:22.631Z</time></trkpt><trkpt lat="44.177178496039765" lon="11.338019030036074"><ele>929.0</ele><time>2026-05-02T10:18:23.631Z</time></trkpt><trkpt lat="44.17727163688239" lon="11.337843467585255"><ele>931.25</ele><time>2026-05-02T10:18:24.631Z</time></trkpt><trkpt lat="44.17732088052458" lon="11.33765576767813"><ele>933.5</ele><time>2026-05-02T10:18:25.631Z</time></trkpt><trkpt lat="44.17731105768869" lon="11.337467654057606"><ele>935.75</ele><time>2026-05-02T10:18:26.631Z</time></trkpt><trkpt lat="44.17725522294362" lon="11.337276641939043"><ele>938.0</ele><time>2026-05-02T10:18:27.631Z</time></trkpt><trkpt lat="44.17720342595039" lon="11.337091878558269"><ele>940.25</ele><time>2026-05-02T10:18:28.631Z</time></trkpt><trkpt lat="44.177246341031086" lon="11.336915592832078"><ele>942.5</ele><time>2026-05-02T10:18:29.631Z</time></trkpt><trkpt lat="44.17735041204029" lon="11.336756908382748"><ele>944.75</ele><time>2026-05-02T10:18:30.631Z</time></trkpt><trkpt lat="44.177473779938715" lon="11.336617356607618"><ele>947.0</ele><time>2026-05-02T10:18:31.631Z</time></trkpt><trkpt lat="44.17760477760069" lon="11.336485292806806"><ele>944.0</ele><time>2026-05-02T10:18:32.631Z</time></trkpt><trkpt lat="44.17774316827806" lon="11.336367716485091"><ele>941.0</ele><time>2026-05-02T10:18:33.631Z</time></trkpt><trkpt lat="44.17788275451568" lon="11.336270227319465"><ele>938.0</ele><time>2026-05-02T10:18:34.631Z</time></trkpt><trkpt lat="44.178027211254445" lon="11.336207096449066"><ele>938.0</ele><time>2026-05-02T10:18:35.631Z</time></trkpt><trkpt lat="44.17816816700773" lon="11.336218572021737"><ele>938.0</ele><time>2026-05-02T10:18:36.631Z</time></trkpt><trkpt lat="44.17830221213891" lon="11.3363052228878"><ele>938.0</ele><time>2026-05-02T10:18:37.631Z</time></trkpt><trkpt lat="44.17842052657012" lon="11.336439968854465"><ele>938.0</ele><time>2026-05-02T10:18:38.631Z</time></trkpt><trkpt lat="44.17853123921814" lon="11.336594081232866"><ele>931.25</ele><time>2026-05-02T10:18:39.631Z</time></trkpt><trkpt lat="44.1786236825304" lon="11.336741288888158"><ele>924.5</ele><time>2026-05-02T10:18:40.631Z</time></trkpt><trkpt lat="44.1787188420567" lon="11.336835229475824"><ele>917.75</ele><time>2026-05-02T10:18:41.631Z</time></trkpt><trkpt lat="44.17883857941544" lon="11.336849120240702"><ele>911.0</ele><time>2026-05-02T10:18:42.631Z</time></trkpt><trkpt lat="44.1789743997818" lon="11.336783556711644"><ele>908.25</ele><time>2026-05-02T10:18:43.631Z</time></trkpt><trkpt lat="44.1790879588153" lon="11.336645039965578"><ele>905.5</ele><time>2026-05-02T10:18:44.631Z</time></trkpt><trkpt lat="44.179163035817986" lon="11.33648755062926"><ele>902.75</ele><time>2026-05-02T10:18:45.631Z</time></trkpt><trkpt lat="44.17919556574208" lon="11.336290556377735"><ele>900.0</ele><time>2026-05-02T10:18:46.631Z</time></trkpt><trkpt lat="44.17918769668145" lon="11.336075242765101"><ele>900.0</ele><time>2026-05-02T10:18:47.631Z</time></trkpt><trkpt lat="44.179166685464835" lon="11.335871518533937"><ele>900.0</ele><time>2026-05-02T10:18:48.63Z</time></trkpt><trkpt lat="44.17916866131737" lon="11.335687963088246"><ele>900.0</ele><time>2026-05-02T10:18:49.63Z</time></trkpt><trkpt lat="44.17920351327354" lon="11.33552373149524"><ele>900.0</ele><time>2026-05-02T10:18:50.63Z</time></trkpt><trkpt lat="44.17929336800796" lon="11.335387224534493"><ele>907.0</ele><time>2026-05-02T10:18:51.63Z</time></trkpt><trkpt lat="44.17943585667888" lon="11.335287708360124"><ele>914.0</ele><time>2026-05-02T10:18:52.63Z</time></trkpt><trkpt lat="44.17959062437107" lon="11.335210720625403"><ele>921.0</ele><time>2026-05-02T10:18:53.63Z</time></trkpt><trkpt lat="44.179743109592536" lon="11.335147636879302"><ele>912.6666666666667</ele><time>2026-05-02T10:18:54.631Z</time></trkpt><trkpt lat="44.17989712717652" lon="11.335070224672643"><ele>904.3333333333334</ele><time>2026-05-02T10:18:55.632Z</time></trkpt><trkpt lat="44.180052566731" lon="11.334995519839163"><ele>896.0</ele><time>2026-05-02T10:18:56.631Z</time></trkpt><trkpt lat="44.180229206680956" lon="11.334956547549636"><ele>896.0</ele><time>2026-05-02T10:18:57.632Z</time></trkpt><trkpt lat="44.180393522078916" lon="11.334959557147307"><ele>896.0</ele><time>2026-05-02T10:18:58.631Z</time></trkpt><trkpt lat="44.180563917799304" lon="11.334956467738639"><ele>896.0</ele><time>2026-05-02T10:18:59.631Z</time></trkpt><trkpt lat="44.18071988747998" lon="11.334959421174787"><ele>895.25</ele><time>2026-05-02T10:19:00.632Z</time></trkpt><trkpt lat="44.18086808841055" lon="11.334969870935131"><ele>894.5</ele><time>2026-05-02T10:19:01.631Z</time></trkpt><trkpt lat="44.181003370331126" lon="11.335011065492141"><ele>893.75</ele><time>2026-05-02T10:19:02.631Z</time></trkpt><trkpt lat="44.181124815338926" lon="11.335082621876074"><ele>893.0</ele><time>2026-05-02T10:19:03.631Z</time></trkpt><trkpt lat="44.181233082840116" lon="11.335170558046388"><ele>893.0</ele><time>2026-05-02T10:19:04.631Z</time></trkpt><trkpt lat="44.1813407598421" lon="11.335279679324769"><ele>893.0</ele><time>2026-05-02T10:19:05.631Z</time></trkpt><trkpt lat="44.181438244414046" lon="11.335413507838188"><ele>893.0</ele><time>2026-05-02T10:19:06.631Z</time></trkpt><trkpt lat="44.18154948917834" lon="11.335520962979054"><ele>893.0</ele><time>2026-05-02T10:19:07.631Z</time></trkpt><trkpt lat="44.18168315722115" lon="11.33556245488034"><ele>892.6666666666667</ele><time>2026-05-02T10:19:08.631Z</time></trkpt><trkpt lat="44.181823941137324" lon="11.335541243282098"><ele>892.3333333333333</ele><time>2026-05-02T10:19:09.631Z</time></trkpt><trkpt lat="44.18197689450416" lon="11.335514147895577"><ele>892.0</ele><time>2026-05-02T10:19:10.631Z</time></trkpt><trkpt lat="44.182137747057986" lon="11.335467655699857"><ele>892.0</ele><time>2026-05-02T10:19:11.631Z</time></trkpt><trkpt lat="44.182284296381724" lon="11.335407839669314"><ele>892.0</ele><time>2026-05-02T10:19:12.631Z</time></trkpt><trkpt lat="44.182425099255994" lon="11.335325028729747"><ele>892.0</ele><time>2026-05-02T10:19:13.631Z</time></trkpt><trkpt lat="44.182579539984076" lon="11.335264684505796"><ele>890.0</ele><time>2026-05-02T10:19:14.631Z</time></trkpt><trkpt lat="44.18274602980115" lon="11.335208655760296"><ele>888.0</ele><time>2026-05-02T10:19:15.631Z</time></trkpt><trkpt lat="44.182921684183285" lon="11.335209773578661"><ele>886.0</ele><time>2026-05-02T10:19:16.631Z</time></trkpt><trkpt lat="44.18310666285079" lon="11.33525401632074"><ele>883.6666666666666</ele><time>2026-05-02T10:19:17.631Z</time></trkpt><trkpt lat="44.183289113167234" lon="11.335299842367645"><ele>881.3333333333333</ele><time>2026-05-02T10:19:18.631Z</time></trkpt><trkpt lat="44.183473692019994" lon="11.335323995793399"><ele>879.0</ele><time>2026-05-02T10:19:19.63Z</time></trkpt><trkpt lat="44.183653221226336" lon="11.33532323350915"><ele>879.0</ele><time>2026-05-02T10:19:20.63Z</time></trkpt><trkpt lat="44.183820507383494" lon="11.335284004859815"><ele>879.0</ele><time>2026-05-02T10:19:21.63Z</time></trkpt><trkpt lat="44.18399362208302" lon="11.335219654774134"><ele>879.0</ele><time>2026-05-02T10:19:22.63Z</time></trkpt><trkpt lat="44.184163209086385" lon="11.335139595463492"><ele>875.0</ele><time>2026-05-02T10:19:23.63Z</time></trkpt><trkpt lat="44.184337838365025" lon="11.335043185398522"><ele>871.0</ele><time>2026-05-02T10:19:24.63Z</time></trkpt><trkpt lat="44.18451342931652" lon="11.334926707182877"><ele>867.0</ele><time>2026-05-02T10:19:25.63Z</time></trkpt><trkpt lat="44.18467651346866" lon="11.334792736398613"><ele>869.0</ele><time>2026-05-02T10:19:26.63Z</time></trkpt><trkpt lat="44.184831694222105" lon="11.334664935661753"><ele>871.0</ele><time>2026-05-02T10:19:27.63Z</time></trkpt><trkpt lat="44.1849749018507" lon="11.334541196309607"><ele>873.0</ele><time>2026-05-02T10:19:28.63Z</time></trkpt><trkpt lat="44.185118511385426" lon="11.334425008702588"><ele>873.0</ele><time>2026-05-02T10:19:29.63Z</time></trkpt><trkpt lat="44.185273040396" lon="11.334379394410995"><ele>873.0</ele><time>2026-05-02T10:19:30.63Z</time></trkpt><trkpt lat="44.18543197851814" lon="11.334389619291835"><ele>873.0</ele><time>2026-05-02T10:19:31.63Z</time></trkpt><trkpt lat="44.18559887407398" lon="11.334423529660953"><ele>867.6666666666667</ele><time>2026-05-02T10:19:32.63Z</time></trkpt><trkpt lat="44.18576568543888" lon="11.334465984770183"><ele>862.3333333333334</ele><time>2026-05-02T10:19:33.63Z</time></trkpt><trkpt lat="44.185921689384095" lon="11.334478592126842"><ele>857.0</ele><time>2026-05-02T10:19:34.63Z</time></trkpt><trkpt lat="44.186069907112014" lon="11.334431446378362"><ele>857.0</ele><time>2026-05-02T10:19:35.63Z</time></trkpt><trkpt lat="44.18618492538595" lon="11.334297923455207"><ele>857.0</ele><time>2026-05-02T10:19:36.63Z</time></trkpt><trkpt lat="44.186270519637105" lon="11.334113204381437"><ele>857.0</ele><time>2026-05-02T10:19:37.63Z</time></trkpt><trkpt lat="44.18635808403239" lon="11.333929616324301"><ele>855.0</ele><time>2026-05-02T10:19:38.63Z</time></trkpt><trkpt lat="44.18647679354124" lon="11.333788221095165"><ele>853.0</ele><time>2026-05-02T10:19:39.63Z</time></trkpt><trkpt lat="44.18662495273571" lon="11.333710594764426"><ele>851.0</ele><time>2026-05-02T10:19:40.63Z</time></trkpt><trkpt lat="44.186782906269805" lon="11.333671251702825"><ele>851.0</ele><time>2026-05-02T10:19:41.63Z</time></trkpt><trkpt lat="44.18692388911999" lon="11.333659685946042"><ele>851.0</ele><time>2026-05-02T10:19:42.63Z</time></trkpt><trkpt lat="44.187061006465505" lon="11.3336540353089"><ele>851.0</ele><time>2026-05-02T10:19:43.63Z</time></trkpt><trkpt lat="44.18718130647507" lon="11.333593359820911"><ele>851.0</ele><time>2026-05-02T10:19:44.629Z</time></trkpt><trkpt lat="44.187262831004034" lon="11.333462698594078"><ele>851.0</ele><time>2026-05-02T10:19:45.629Z</time></trkpt><trkpt lat="44.18732721756057" lon="11.333303377104341"><ele>851.0</ele><time>2026-05-02T10:19:46.629Z</time></trkpt><trkpt lat="44.187416337076215" lon="11.333138851013956"><ele>851.0</ele><time>2026-05-02T10:19:47.629Z</time></trkpt><trkpt lat="44.18751474769507" lon="11.333009048738152"><ele>851.0</ele><time>2026-05-02T10:19:48.629Z</time></trkpt><trkpt lat="44.18763401814243" lon="11.33291532280562"><ele>851.25</ele><time>2026-05-02T10:19:49.629Z</time></trkpt><trkpt lat="44.18777196841873" lon="11.33285268756201"><ele>851.5</ele><time>2026-05-02T10:19:50.629Z</time></trkpt><trkpt lat="44.187919684029" lon="11.332823319786803"><ele>851.75</ele><time>2026-05-02T10:19:51.629Z</time></trkpt><trkpt lat="44.188064581745344" lon="11.33283963404469"><ele>852.0</ele><time>2026-05-02T10:19:52.629Z</time></trkpt><trkpt lat="44.18820036373256" lon="11.332873943699155"><ele>850.6666666666667</ele><time>2026-05-02T10:19:53.629Z</time></trkpt><trkpt lat="44.18833884153324" lon="11.332921393472907"><ele>849.3333333333334</ele><time>2026-05-02T10:19:54.629Z</time></trkpt><trkpt lat="44.188478278528706" lon="11.332981599719268"><ele>848.0</ele><time>2026-05-02T10:19:55.629Z</time></trkpt><trkpt lat="44.18862412332539" lon="11.333077748934997"><ele>844.0</ele><time>2026-05-02T10:19:56.629Z</time></trkpt><trkpt lat="44.18877361900291" lon="11.333162775489829"><ele>840.0</ele><time>2026-05-02T10:19:57.629Z</time></trkpt><trkpt lat="44.18891557091275" lon="11.333233227612718"><ele>836.0</ele><time>2026-05-02T10:19:58.629Z</time></trkpt><trkpt lat="44.18904825827435" lon="11.333337491974056"><ele>836.0</ele><time>2026-05-02T10:19:59.629Z</time></trkpt><trkpt lat="44.189159814976165" lon="11.333485820460458"><ele>836.0</ele><time>2026-05-02T10:20:00.629Z</time></trkpt><trkpt lat="44.18924278612227" lon="11.333686132092138"><ele>836.0</ele><time>2026-05-02T10:20:01.629Z</time></trkpt><trkpt lat="44.18931737726797" lon="11.33389133055045"><ele>830.0</ele><time>2026-05-02T10:20:02.629Z</time></trkpt><trkpt lat="44.18939411458303" lon="11.334099475348232"><ele>824.0</ele><time>2026-05-02T10:20:03.629Z</time></trkpt><trkpt lat="44.18947678799714" lon="11.334309116936215"><ele>818.0</ele><time>2026-05-02T10:20:04.629Z</time></trkpt><trkpt lat="44.189552929923394" lon="11.334507710399835"><ele>818.0</ele><time>2026-05-02T10:20:05.629Z</time></trkpt><trkpt lat="44.18963296763684" lon="11.33467644239358"><ele>818.0</ele><time>2026-05-02T10:20:06.629Z</time></trkpt><trkpt lat="44.18972334052445" lon="11.334787218470392"><ele>818.0</ele><time>2026-05-02T10:20:07.629Z</time></trkpt><trkpt lat="44.189849601013385" lon="11.33483815822303"><ele>818.0</ele><time>2026-05-02T10:20:08.629Z</time></trkpt><trkpt lat="44.19000361959999" lon="11.334820312953205"><ele>814.6666666666667</ele><time>2026-05-02T10:20:09.629Z</time></trkpt><trkpt lat="44.19016241203507" lon="11.334763785448182"><ele>811.3333333333333</ele><time>2026-05-02T10:20:10.628Z</time></trkpt><trkpt lat="44.190336577927596" lon="11.334678925657313"><ele>808.0</ele><time>2026-05-02T10:20:11.628Z</time></trkpt><trkpt lat="44.19050631119905" lon="11.33460826464631"><ele>811.0</ele><time>2026-05-02T10:20:12.628Z</time></trkpt><trkpt lat="44.190677427128286" lon="11.334556220722554"><ele>814.0</ele><time>2026-05-02T10:20:13.628Z</time></trkpt><trkpt lat="44.190848272215845" lon="11.33452073302053"><ele>817.0</ele><time>2026-05-02T10:20:14.628Z</time></trkpt><trkpt lat="44.191025502207616" lon="11.33448170931743"><ele>817.0</ele><time>2026-05-02T10:20:15.628Z</time></trkpt><trkpt lat="44.19119780497562" lon="11.334413456877378"><ele>817.0</ele><time>2026-05-02T10:20:16.628Z</time></trkpt><trkpt lat="44.19135205401715" lon="11.334322518456224"><ele>817.0</ele><time>2026-05-02T10:20:17.628Z</time></trkpt><trkpt lat="44.191492156007534" lon="11.334203163031754"><ele>811.0</ele><time>2026-05-02T10:20:18.628Z</time></trkpt><trkpt lat="44.19167512387611" lon="11.334134401367296"><ele>805.0</ele><time>2026-05-02T10:20:19.628Z</time></trkpt><trkpt lat="44.191876292780876" lon="11.33408601394273"><ele>799.0</ele><time>2026-05-02T10:20:20.628Z</time></trkpt><trkpt lat="44.19208613177128" lon="11.334051671433192"><ele>799.0</ele><time>2026-05-02T10:20:21.628Z</time></trkpt><trkpt lat="44.192283505277985" lon="11.334042011925431"><ele>799.0</ele><time>2026-05-02T10:20:22.628Z</time></trkpt><trkpt lat="44.19248110739318" lon="11.334050823502665"><ele>799.0</ele><time>2026-05-02T10:20:23.628Z</time></trkpt><trkpt lat="44.19266127445484" lon="11.334058884051286"><ele>802.5</ele><time>2026-05-02T10:20:24.628Z</time></trkpt><trkpt lat="44.192614008961556" lon="11.333568162650304"><ele>806.0</ele><time>2026-05-02T10:20:25.628Z</time></trkpt><trkpt lat="44.192746418677835" lon="11.333527932377947"><ele>806.0</ele><time>2026-05-02T10:20:26.628Z</time></trkpt><trkpt lat="44.19287934060129" lon="11.333578026429445"><ele>806.0</ele><time>2026-05-02T10:20:27.628Z</time></trkpt><trkpt lat="44.1929866776993" lon="11.333715772095353"><ele>806.0</ele><time>2026-05-02T10:20:28.628Z</time></trkpt><trkpt lat="44.19307159432281" lon="11.333861232286187"><ele>806.0</ele><time>2026-05-02T10:20:29.628Z</time></trkpt><trkpt lat="44.193139751516185" lon="11.334001491286031"><ele>801.1999999999999</ele><time>2026-05-02T10:20:30.628Z</time></trkpt><trkpt lat="44.193194400084465" lon="11.334140447982588"><ele>796.4</ele><time>2026-05-02T10:20:31.628Z</time></trkpt><trkpt lat="44.193240459296476" lon="11.334278264398714"><ele>791.6</ele><time>2026-05-02T10:20:32.628Z</time></trkpt><trkpt lat="44.19328821231538" lon="11.334385634716469"><ele>786.8</ele><time>2026-05-02T10:20:33.628Z</time></trkpt><trkpt lat="44.193332531499195" lon="11.334449139454039"><ele>782.0</ele><time>2026-05-02T10:20:34.628Z</time></trkpt><trkpt lat="44.1934422240147" lon="11.334466956257545"><ele>782.0</ele><time>2026-05-02T10:20:36.627Z</time></trkpt><trkpt lat="44.19350245525974" lon="11.334407386515638"><ele>782.0</ele><time>2026-05-02T10:20:37.627Z</time></trkpt><trkpt lat="44.19356958602814" lon="11.334325849135901"><ele>782.0</ele><time>2026-05-02T10:20:38.627Z</time></trkpt><trkpt lat="44.193654044121764" lon="11.334234294435843"><ele>782.0</ele><time>2026-05-02T10:20:39.627Z</time></trkpt><trkpt lat="44.193729694772955" lon="11.334130147435594"><ele>782.0</ele><time>2026-05-02T10:20:40.627Z</time></trkpt><trkpt lat="44.19380851384321" lon="11.334022274832439"><ele>782.0</ele><time>2026-05-02T10:20:41.627Z</time></trkpt><trkpt lat="44.1938928049649" lon="11.333923336747121"><ele>782.0</ele><time>2026-05-02T10:20:42.627Z</time></trkpt><trkpt lat="44.19399333771634" lon="11.33384878653472"><ele>782.0</ele><time>2026-05-02T10:20:43.627Z</time></trkpt><trkpt lat="44.19410595335095" lon="11.333795337314907"><ele>782.0</ele><time>2026-05-02T10:20:44.627Z</time></trkpt><trkpt lat="44.194208628464494" lon="11.333755712738816"><ele>782.0</ele><time>2026-05-02T10:20:45.627Z</time></trkpt><trkpt lat="44.194307987233834" lon="11.33372331297749"><ele>782.6</ele><time>2026-05-02T10:20:46.627Z</time></trkpt><trkpt lat="44.19441424534152" lon="11.333681952996923"><ele>783.2</ele><time>2026-05-02T10:20:47.627Z</time></trkpt><trkpt lat="44.19451442135708" lon="11.333683179403158"><ele>783.8</ele><time>2026-05-02T10:20:48.627Z</time></trkpt><trkpt lat="44.19462796416754" lon="11.333679813605418"><ele>784.4</ele><time>2026-05-02T10:20:49.627Z</time></trkpt><trkpt lat="44.19474286790519" lon="11.333681315461595"><ele>785.0</ele><time>2026-05-02T10:20:50.627Z</time></trkpt><trkpt lat="44.19485443136184" lon="11.333690298057503"><ele>785.5</ele><time>2026-05-02T10:20:51.627Z</time></trkpt><trkpt lat="44.194969248716326" lon="11.333713892182308"><ele>786.0</ele><time>2026-05-02T10:20:52.627Z</time></trkpt><trkpt lat="44.19508841557747" lon="11.333730223421913"><ele>786.5</ele><time>2026-05-02T10:20:53.627Z</time></trkpt><trkpt lat="44.195209273511" lon="11.333744630846923"><ele>787.0</ele><time>2026-05-02T10:20:54.627Z</time></trkpt><trkpt lat="44.19533058542944" lon="11.333756243789896"><ele>787.0</ele><time>2026-05-02T10:20:55.627Z</time></trkpt><trkpt lat="44.195459852993686" lon="11.333745987833451"><ele>787.0</ele><time>2026-05-02T10:20:56.627Z</time></trkpt><trkpt lat="44.195579022176915" lon="11.33373786244797"><ele>787.0</ele><time>2026-05-02T10:20:57.627Z</time></trkpt><trkpt lat="44.19570119606942" lon="11.333699796312814"><ele>787.0</ele><time>2026-05-02T10:20:58.627Z</time></trkpt><trkpt lat="44.19582583137106" lon="11.333643276317472"><ele>784.5</ele><time>2026-05-02T10:20:59.627Z</time></trkpt><trkpt lat="44.19595246871414" lon="11.33357597566816"><ele>782.0</ele><time>2026-05-02T10:21:00.628Z</time></trkpt><trkpt lat="44.19608231138009" lon="11.333523550181281"><ele>779.5</ele><time>2026-05-02T10:21:01.628Z</time></trkpt><trkpt lat="44.19621144425024" lon="11.333472106449653"><ele>777.0</ele><time>2026-05-02T10:21:02.628Z</time></trkpt><trkpt lat="44.19633433669709" lon="11.333429371553747"><ele>777.0</ele><time>2026-05-02T10:21:03.628Z</time></trkpt><trkpt lat="44.196467075244485" lon="11.333397372476885"><ele>777.0</ele><time>2026-05-02T10:21:04.628Z</time></trkpt><trkpt lat="44.196584362361634" lon="11.333371105665249"><ele>777.0</ele><time>2026-05-02T10:21:05.628Z</time></trkpt><trkpt lat="44.196710667202794" lon="11.333369645459237"><ele>777.0</ele><time>2026-05-02T10:21:06.628Z</time></trkpt><trkpt lat="44.196832478654" lon="11.33339204103546"><ele>776.25</ele><time>2026-05-02T10:21:07.627Z</time></trkpt><trkpt lat="44.196958275821714" lon="11.33341174034441"><ele>775.5</ele><time>2026-05-02T10:21:08.627Z</time></trkpt><trkpt lat="44.19708171874559" lon="11.333414905770521"><ele>774.75</ele><time>2026-05-02T10:21:09.627Z</time></trkpt><trkpt lat="44.197198219233755" lon="11.333374373264494"><ele>774.0</ele><time>2026-05-02T10:21:10.627Z</time></trkpt><trkpt lat="44.19731154276662" lon="11.33330943760325"><ele>773.25</ele><time>2026-05-02T10:21:11.627Z</time></trkpt><trkpt lat="44.197417484395814" lon="11.333237267727476"><ele>772.5</ele><time>2026-05-02T10:21:12.628Z</time></trkpt><trkpt lat="44.19753086736792" lon="11.333188158454366"><ele>771.75</ele><time>2026-05-02T10:21:13.628Z</time></trkpt><trkpt lat="44.19766337667932" lon="11.333169575631088"><ele>771.0</ele><time>2026-05-02T10:21:14.628Z</time></trkpt><trkpt lat="44.19778987721369" lon="11.3331640487783"><ele>771.0</ele><time>2026-05-02T10:21:15.628Z</time></trkpt><trkpt lat="44.197923067355006" lon="11.333185165228985"><ele>771.0</ele><time>2026-05-02T10:21:16.628Z</time></trkpt><trkpt lat="44.19806030144451" lon="11.33321144219436"><ele>771.0</ele><time>2026-05-02T10:21:17.627Z</time></trkpt><trkpt lat="44.19819547099108" lon="11.333250728342488"><ele>771.0</ele><time>2026-05-02T10:21:18.627Z</time></trkpt><trkpt lat="44.1983226916866" lon="11.33327756082113"><ele>771.25</ele><time>2026-05-02T10:21:19.627Z</time></trkpt><trkpt lat="44.19844528874112" lon="11.33331104955944"><ele>771.5</ele><time>2026-05-02T10:21:20.627Z</time></trkpt><trkpt lat="44.198567614014955" lon="11.333330767737053"><ele>771.75</ele><time>2026-05-02T10:21:21.627Z</time></trkpt><trkpt lat="44.19869240087859" lon="11.333295345240058"><ele>772.0</ele><time>2026-05-02T10:21:22.627Z</time></trkpt><trkpt lat="44.198794555246124" lon="11.333223266599832"><ele>772.0</ele><time>2026-05-02T10:21:23.627Z</time></trkpt><trkpt lat="44.19887539497536" lon="11.333099886142683"><ele>772.0</ele><time>2026-05-02T10:21:24.627Z</time></trkpt><trkpt lat="44.19895328039046" lon="11.332952910262492"><ele>772.0</ele><time>2026-05-02T10:21:25.627Z</time></trkpt><trkpt lat="44.19903736712458" lon="11.332814910719536"><ele>772.0</ele><time>2026-05-02T10:21:26.627Z</time></trkpt><trkpt lat="44.199133487075926" lon="11.332683524765057"><ele>774.75</ele><time>2026-05-02T10:21:27.627Z</time></trkpt><trkpt lat="44.19924387265412" lon="11.332546345174768"><ele>777.5</ele><time>2026-05-02T10:21:28.627Z</time></trkpt><trkpt lat="44.19934166403787" lon="11.33241011423525"><ele>780.25</ele><time>2026-05-02T10:21:29.627Z</time></trkpt><trkpt lat="44.19943980267133" lon="11.332262204983294"><ele>783.0</ele><time>2026-05-02T10:21:30.627Z</time></trkpt><trkpt lat="44.19953232170106" lon="11.332118886722037"><ele>787.25</ele><time>2026-05-02T10:21:31.627Z</time></trkpt><trkpt lat="44.19959696647979" lon="11.331960012410596"><ele>791.5</ele><time>2026-05-02T10:21:32.627Z</time></trkpt><trkpt lat="44.19962364602143" lon="11.331797497009997"><ele>795.75</ele><time>2026-05-02T10:21:33.627Z</time></trkpt><trkpt lat="44.19962482532854" lon="11.331639480592658"><ele>800.0</ele><time>2026-05-02T10:21:34.627Z</time></trkpt><trkpt lat="44.199635977417415" lon="11.331504484301767"><ele>800.0</ele><time>2026-05-02T10:21:35.627Z</time></trkpt><trkpt lat="44.19966531923237" lon="11.331403802356945"><ele>800.0</ele><time>2026-05-02T10:21:36.627Z</time></trkpt><trkpt lat="44.19976002643505" lon="11.331312760532848"><ele>800.0</ele><time>2026-05-02T10:21:38.627Z</time></trkpt><trkpt lat="44.1998870885539" lon="11.331325973048132"><ele>800.0</ele><time>2026-05-02T10:21:40.627Z</time></trkpt><trkpt lat="44.199952225959954" lon="11.33139495280033"><ele>800.0</ele><time>2026-05-02T10:21:41.627Z</time></trkpt><trkpt lat="44.199992510294116" lon="11.331495274363457"><ele>799.5000000000001</ele><time>2026-05-02T10:21:42.627Z</time></trkpt><trkpt lat="44.200014835376855" lon="11.331606053385043"><ele>799.0</ele><time>2026-05-02T10:21:43.626Z</time></trkpt><trkpt lat="44.20003752904497" lon="11.331722082944237"><ele>798.5</ele><time>2026-05-02T10:21:44.626Z</time></trkpt><trkpt lat="44.20008523177663" lon="11.331827865536605"><ele>798.0</ele><time>2026-05-02T10:21:45.626Z</time></trkpt><trkpt lat="44.20015960318879" lon="11.331902500328045"><ele>797.5000000000001</ele><time>2026-05-02T10:21:46.626Z</time></trkpt><trkpt lat="44.20023827847321" lon="11.331942211921563"><ele>797.0</ele><time>2026-05-02T10:21:47.626Z</time></trkpt><trkpt lat="44.20033134773558" lon="11.331970965759432"><ele>797.0000000000001</ele><time>2026-05-02T10:21:48.626Z</time></trkpt><trkpt lat="44.200428809133925" lon="11.33201468533133"><ele>797.0</ele><time>2026-05-02T10:21:49.626Z</time></trkpt><trkpt lat="44.20051466811647" lon="11.332045961929806"><ele>797.0</ele><time>2026-05-02T10:21:50.626Z</time></trkpt><trkpt lat="44.200594029338966" lon="11.332031477744094"><ele>797.0</ele><time>2026-05-02T10:21:51.626Z</time></trkpt><trkpt lat="44.20066094246428" lon="11.331971864817751"><ele>797.0000000000001</ele><time>2026-05-02T10:21:52.626Z</time></trkpt><trkpt lat="44.20071230355316" lon="11.33188836648023"><ele>797.0</ele><time>2026-05-02T10:21:53.626Z</time></trkpt><trkpt lat="44.20075491788705" lon="11.33176165854708"><ele>797.2</ele><time>2026-05-02T10:21:54.626Z</time></trkpt><trkpt lat="44.20080603499928" lon="11.331642931340955"><ele>797.4000000000001</ele><time>2026-05-02T10:21:55.626Z</time></trkpt><trkpt lat="44.200852012660356" lon="11.331535176630055"><ele>797.5999999999999</ele><time>2026-05-02T10:21:56.626Z</time></trkpt><trkpt lat="44.20087692971417" lon="11.331420807400406"><ele>797.8</ele><time>2026-05-02T10:21:57.626Z</time></trkpt><trkpt lat="44.200872464497614" lon="11.331299446908547"><ele>798.0</ele><time>2026-05-02T10:21:58.626Z</time></trkpt><trkpt lat="44.20084806795757" lon="11.331174315826585"><ele>798.8</ele><time>2026-05-02T10:21:59.626Z</time></trkpt><trkpt lat="44.20081175666816" lon="11.331047157460874"><ele>799.5999999999999</ele><time>2026-05-02T10:22:00.626Z</time></trkpt><trkpt lat="44.200790303324005" lon="11.33090982888782"><ele>800.4000000000001</ele><time>2026-05-02T10:22:01.626Z</time></trkpt><trkpt lat="44.200798705129785" lon="11.330767196345182"><ele>801.2</ele><time>2026-05-02T10:22:02.626Z</time></trkpt><trkpt lat="44.2008479119053" lon="11.330624979048668"><ele>802.0</ele><time>2026-05-02T10:22:03.626Z</time></trkpt><trkpt lat="44.2009173885398" lon="11.330502980690929"><ele>806.2</ele><time>2026-05-02T10:22:04.626Z</time></trkpt><trkpt lat="44.200986975554265" lon="11.330389265269407"><ele>810.4000000000001</ele><time>2026-05-02T10:22:05.626Z</time></trkpt><trkpt lat="44.20105905597359" lon="11.33026072715305"><ele>814.5999999999999</ele><time>2026-05-02T10:22:06.626Z</time></trkpt><trkpt lat="44.201127279257236" lon="11.330148539059778"><ele>818.8</ele><time>2026-05-02T10:22:07.626Z</time></trkpt><trkpt lat="44.2011933102704" lon="11.33005036710403"><ele>823.0</ele><time>2026-05-02T10:22:08.625Z</time></trkpt><trkpt lat="44.20126724961587" lon="11.32994776971442"><ele>823.0</ele><time>2026-05-02T10:22:09.625Z</time></trkpt><trkpt lat="44.2013500527943" lon="11.32985933372919"><ele>823.0</ele><time>2026-05-02T10:22:10.625Z</time></trkpt><trkpt lat="44.201436476387514" lon="11.32978806658257"><ele>823.0</ele><time>2026-05-02T10:22:11.625Z</time></trkpt><trkpt lat="44.20153222728079" lon="11.329735363411196"><ele>823.0</ele><time>2026-05-02T10:22:12.625Z</time></trkpt><trkpt lat="44.201618249497" lon="11.329699798792797"><ele>823.0</ele><time>2026-05-02T10:22:13.625Z</time></trkpt><trkpt lat="44.20170650616479" lon="11.329690701741715"><ele>824.1666666666666</ele><time>2026-05-02T10:22:14.625Z</time></trkpt><trkpt lat="44.201791415857265" lon="11.329685442308888"><ele>825.3333333333333</ele><time>2026-05-02T10:22:15.625Z</time></trkpt><trkpt lat="44.201874897036404" lon="11.329682342091054"><ele>826.5</ele><time>2026-05-02T10:22:16.625Z</time></trkpt><trkpt lat="44.201951905638346" lon="11.329673636236647"><ele>827.6666666666667</ele><time>2026-05-02T10:22:17.625Z</time></trkpt><trkpt lat="44.20202690217222" lon="11.329656140463806"><ele>828.8333333333334</ele><time>2026-05-02T10:22:18.625Z</time></trkpt><trkpt lat="44.20211188837083" lon="11.329634846968403"><ele>830.0</ele><time>2026-05-02T10:22:19.625Z</time></trkpt><trkpt lat="44.202200494825206" lon="11.32959755369913"><ele>830.0</ele><time>2026-05-02T10:22:20.625Z</time></trkpt><trkpt lat="44.20229044597593" lon="11.329549251334008"><ele>830.0</ele><time>2026-05-02T10:22:21.625Z</time></trkpt><trkpt lat="44.202385339928334" lon="11.329497304059576"><ele>830.0</ele><time>2026-05-02T10:22:22.625Z</time></trkpt><trkpt lat="44.202475966191855" lon="11.329423299186988"><ele>830.0</ele><time>2026-05-02T10:22:23.625Z</time></trkpt><trkpt lat="44.202554000378626" lon="11.329329706778504"><ele>830.0</ele><time>2026-05-02T10:22:24.625Z</time></trkpt><trkpt lat="44.20261333890878" lon="11.329197842590617"><ele>829.0</ele><time>2026-05-02T10:22:25.625Z</time></trkpt><trkpt lat="44.202657468459286" lon="11.329069517595116"><ele>828.0</ele><time>2026-05-02T10:22:26.625Z</time></trkpt><trkpt lat="44.20268572496478" lon="11.328927245983895"><ele>827.0</ele><time>2026-05-02T10:22:27.625Z</time></trkpt><trkpt lat="44.20268019520982" lon="11.328759786674448"><ele>826.0</ele><time>2026-05-02T10:22:28.625Z</time></trkpt><trkpt lat="44.20269556475325" lon="11.328633919341428"><ele>825.0</ele><time>2026-05-02T10:22:29.625Z</time></trkpt><trkpt lat="44.20277098286831" lon="11.328527398470118"><ele>825.0</ele><time>2026-05-02T10:22:30.625Z</time></trkpt><trkpt lat="44.20286765754292" lon="11.328469928910424"><ele>825.0</ele><time>2026-05-02T10:22:31.625Z</time></trkpt><trkpt lat="44.20300563291627" lon="11.328506368488377"><ele>825.0</ele><time>2026-05-02T10:22:32.625Z</time></trkpt><trkpt lat="44.20312186579026" lon="11.328512689445668"><ele>825.0</ele><time>2026-05-02T10:22:33.625Z</time></trkpt><trkpt lat="44.20323232192117" lon="11.328499439975378"><ele>822.8</ele><time>2026-05-02T10:22:34.624Z</time></trkpt><trkpt lat="44.20333205272624" lon="11.32845049046117"><ele>820.6</ele><time>2026-05-02T10:22:35.624Z</time></trkpt><trkpt lat="44.203421769491285" lon="11.328392435818454"><ele>818.4000000000001</ele><time>2026-05-02T10:22:36.624Z</time></trkpt><trkpt lat="44.203494436382165" lon="11.328317579411209"><ele>816.2</ele><time>2026-05-02T10:22:37.624Z</time></trkpt><trkpt lat="44.20356107002581" lon="11.328238677027736"><ele>814.0</ele><time>2026-05-02T10:22:38.624Z</time></trkpt><trkpt lat="44.20362853663704" lon="11.328151614870619"><ele>814.0</ele><time>2026-05-02T10:22:39.624Z</time></trkpt><trkpt lat="44.20370615657891" lon="11.32806581863676"><ele>814.0</ele><time>2026-05-02T10:22:40.624Z</time></trkpt><trkpt lat="44.203785386003425" lon="11.327968557676842"><ele>814.0</ele><time>2026-05-02T10:22:41.624Z</time></trkpt><trkpt lat="44.20386728365715" lon="11.327865141880187"><ele>814.0</ele><time>2026-05-02T10:22:42.624Z</time></trkpt><trkpt lat="44.20393896199038" lon="11.327768921088788"><ele>814.0</ele><time>2026-05-02T10:22:43.624Z</time></trkpt><trkpt lat="44.203991826743255" lon="11.327684602620478"><ele>813.1666666666666</ele><time>2026-05-02T10:22:44.624Z</time></trkpt><trkpt lat="44.20404078379981" lon="11.327600306082838"><ele>812.3333333333333</ele><time>2026-05-02T10:22:45.624Z</time></trkpt><trkpt lat="44.20409084634893" lon="11.327497100494194"><ele>811.5</ele><time>2026-05-02T10:22:46.624Z</time></trkpt><trkpt lat="44.20413224346545" lon="11.327393156502698"><ele>810.6666666666667</ele><time>2026-05-02T10:22:47.624Z</time></trkpt><trkpt lat="44.2041707514962" lon="11.327289419928071"><ele>809.8333333333334</ele><time>2026-05-02T10:22:48.624Z</time></trkpt><trkpt lat="44.20420506772653" lon="11.327192087677055"><ele>809.0</ele><time>2026-05-02T10:22:49.624Z</time></trkpt><trkpt lat="44.2042408462554" lon="11.327096166272437"><ele>808.6666666666667</ele><time>2026-05-02T10:22:50.624Z</time></trkpt><trkpt lat="44.204277227855975" lon="11.327000272637598"><ele>808.3333333333334</ele><time>2026-05-02T10:22:51.624Z</time></trkpt><trkpt lat="44.204320995220044" lon="11.326911042923687"><ele>808.0</ele><time>2026-05-02T10:22:52.624Z</time></trkpt><trkpt lat="44.2043716050856" lon="11.326837793208586"><ele>807.6666666666667</ele><time>2026-05-02T10:22:53.624Z</time></trkpt><trkpt lat="44.20442987590823" lon="11.326771292067452"><ele>807.3333333333334</ele><time>2026-05-02T10:22:54.624Z</time></trkpt><trkpt lat="44.20450286541474" lon="11.3267147654921"><ele>807.0</ele><time>2026-05-02T10:22:55.624Z</time></trkpt><trkpt lat="44.20457855841008" lon="11.326681396573287"><ele>807.0000000000001</ele><time>2026-05-02T10:22:56.624Z</time></trkpt><trkpt lat="44.20464917912685" lon="11.326674240530545"><ele>807.0</ele><time>2026-05-02T10:22:57.624Z</time></trkpt><trkpt lat="44.2047185044387" lon="11.326668240937428"><ele>807.0</ele><time>2026-05-02T10:22:58.624Z</time></trkpt><trkpt lat="44.20478751863267" lon="11.326642869183035"><ele>807.0</ele><time>2026-05-02T10:22:59.623Z</time></trkpt><trkpt lat="44.2048591849533" lon="11.326614921104182"><ele>807.0</ele><time>2026-05-02T10:23:00.623Z</time></trkpt><trkpt lat="44.204931725547354" lon="11.326596921632975"><ele>807.0000000000001</ele><time>2026-05-02T10:23:01.623Z</time></trkpt><trkpt lat="44.2050126047491" lon="11.32657013405827"><ele>807.0</ele><time>2026-05-02T10:23:02.623Z</time></trkpt><trkpt lat="44.205100106371994" lon="11.326540332833948"><ele>806.8</ele><time>2026-05-02T10:23:03.623Z</time></trkpt><trkpt lat="44.20519118196158" lon="11.326508971673313"><ele>806.6</ele><time>2026-05-02T10:23:04.623Z</time></trkpt><trkpt lat="44.20528126192807" lon="11.32648087794489"><ele>806.4</ele><time>2026-05-02T10:23:05.623Z</time></trkpt><trkpt lat="44.20537216094725" lon="11.32644090868139"><ele>806.1999999999999</ele><time>2026-05-02T10:23:06.625Z</time></trkpt><trkpt lat="44.20546107904558" lon="11.326392034852406"><ele>806.0</ele><time>2026-05-02T10:23:07.624Z</time></trkpt><trkpt lat="44.20554899255712" lon="11.326335621640267"><ele>805.1999999999999</ele><time>2026-05-02T10:23:08.624Z</time></trkpt><trkpt lat="44.20563729397643" lon="11.326273859890856"><ele>804.4</ele><time>2026-05-02T10:23:09.625Z</time></trkpt><trkpt lat="44.20571818432307" lon="11.326205906861897"><ele>803.6</ele><time>2026-05-02T10:23:10.625Z</time></trkpt><trkpt lat="44.20581323147348" lon="11.326150605536357"><ele>802.8</ele><time>2026-05-02T10:23:11.625Z</time></trkpt><trkpt lat="44.20590540566795" lon="11.326096575682747"><ele>802.0</ele><time>2026-05-02T10:23:12.625Z</time></trkpt><trkpt lat="44.20600380797518" lon="11.326053267188529"><ele>802.0</ele><time>2026-05-02T10:23:13.624Z</time></trkpt><trkpt lat="44.20610172433377" lon="11.326002249651198"><ele>802.0</ele><time>2026-05-02T10:23:14.624Z</time></trkpt><trkpt lat="44.2061969000479" lon="11.325955002043415"><ele>802.0</ele><time>2026-05-02T10:23:15.624Z</time></trkpt><trkpt lat="44.20629241053692" lon="11.325911134032593"><ele>802.0</ele><time>2026-05-02T10:23:16.624Z</time></trkpt><trkpt lat="44.20638802246296" lon="11.325866549020223"><ele>802.0</ele><time>2026-05-02T10:23:17.624Z</time></trkpt><trkpt lat="44.2064803623912" lon="11.325822770675703"><ele>802.2</ele><time>2026-05-02T10:23:18.624Z</time></trkpt><trkpt lat="44.20658340423469" lon="11.325791062721903"><ele>802.4000000000001</ele><time>2026-05-02T10:23:19.624Z</time></trkpt><trkpt lat="44.206684880830814" lon="11.325761724536047"><ele>802.5999999999999</ele><time>2026-05-02T10:23:20.624Z</time></trkpt><trkpt lat="44.20678522255884" lon="11.325729563339666"><ele>802.8</ele><time>2026-05-02T10:23:21.624Z</time></trkpt><trkpt lat="44.2068875467907" lon="11.325700069113008"><ele>803.0</ele><time>2026-05-02T10:23:22.624Z</time></trkpt><trkpt lat="44.20698769225299" lon="11.3256657441525"><ele>803.0</ele><time>2026-05-02T10:23:23.624Z</time></trkpt><trkpt lat="44.20709021079476" lon="11.32562972968557"><ele>803.0</ele><time>2026-05-02T10:23:24.624Z</time></trkpt><trkpt lat="44.20719390537792" lon="11.325597586051948"><ele>803.0</ele><time>2026-05-02T10:23:25.624Z</time></trkpt><trkpt lat="44.207293181308344" lon="11.325566434962807"><ele>803.0</ele><time>2026-05-02T10:23:26.624Z</time></trkpt><trkpt lat="44.20739505724008" lon="11.325531255189674"><ele>803.0</ele><time>2026-05-02T10:23:27.624Z</time></trkpt><trkpt lat="44.20749479014715" lon="11.325494079639679"><ele>803.2</ele><time>2026-05-02T10:23:28.624Z</time></trkpt><trkpt lat="44.207596147652204" lon="11.325465466062374"><ele>803.4</ele><time>2026-05-02T10:23:29.624Z</time></trkpt><trkpt lat="44.20770149752962" lon="11.325433357626938"><ele>803.6</ele><time>2026-05-02T10:23:30.624Z</time></trkpt><trkpt lat="44.207806799905086" lon="11.325394788093009"><ele>803.8000000000001</ele><time>2026-05-02T10:23:31.624Z</time></trkpt><trkpt lat="44.20791302170376" lon="11.325356159427542"><ele>804.0</ele><time>2026-05-02T10:23:32.623Z</time></trkpt><trkpt lat="44.208022103438324" lon="11.325318127773238"><ele>804.0</ele><time>2026-05-02T10:23:33.623Z</time></trkpt><trkpt lat="44.208133831319465" lon="11.325279030907694"><ele>804.0</ele><time>2026-05-02T10:23:34.623Z</time></trkpt><trkpt lat="44.20824480182139" lon="11.32523293179752"><ele>804.0</ele><time>2026-05-02T10:23:35.623Z</time></trkpt><trkpt lat="44.20835817416452" lon="11.325183546300252"><ele>804.0</ele><time>2026-05-02T10:23:36.623Z</time></trkpt><trkpt lat="44.20847269248423" lon="11.325133975224"><ele>805.0</ele><time>2026-05-02T10:23:37.623Z</time></trkpt><trkpt lat="44.20858821095354" lon="11.32508484217356"><ele>806.0</ele><time>2026-05-02T10:23:38.623Z</time></trkpt><trkpt lat="44.20870703187801" lon="11.325041771939672"><ele>807.0</ele><time>2026-05-02T10:23:39.623Z</time></trkpt><trkpt lat="44.20882758414919" lon="11.324999485802985"><ele>808.0</ele><time>2026-05-02T10:23:40.623Z</time></trkpt><trkpt lat="44.208948039138555" lon="11.324953724234856"><ele>808.25</ele><time>2026-05-02T10:23:41.623Z</time></trkpt><trkpt lat="44.20906724040022" lon="11.32490815825897"><ele>808.5</ele><time>2026-05-02T10:23:42.623Z</time></trkpt><trkpt lat="44.20918760768047" lon="11.324862506833535"><ele>808.75</ele><time>2026-05-02T10:23:43.623Z</time></trkpt><trkpt lat="44.20930947265848" lon="11.324817168135596"><ele>809.0</ele><time>2026-05-02T10:23:44.623Z</time></trkpt><trkpt lat="44.209436687998426" lon="11.32478165671043"><ele>809.0</ele><time>2026-05-02T10:23:45.623Z</time></trkpt><trkpt lat="44.20956619040237" lon="11.324744682663054"><ele>809.0</ele><time>2026-05-02T10:23:46.623Z</time></trkpt><trkpt lat="44.2097013711045" lon="11.324723950209155"><ele>809.0</ele><time>2026-05-02T10:23:47.623Z</time></trkpt><trkpt lat="44.209838548225925" lon="11.324714863339995"><ele>809.0</ele><time>2026-05-02T10:23:48.623Z</time></trkpt><trkpt lat="44.2099797503117" lon="11.324711283282765"><ele>806.5</ele><time>2026-05-02T10:23:49.623Z</time></trkpt><trkpt lat="44.21011993171326" lon="11.324703442254089"><ele>804.0</ele><time>2026-05-02T10:23:50.623Z</time></trkpt><trkpt lat="44.21026334297031" lon="11.324680191451574"><ele>801.5</ele><time>2026-05-02T10:23:51.623Z</time></trkpt><trkpt lat="44.2104061142527" lon="11.32464180141384"><ele>799.0</ele><time>2026-05-02T10:23:52.623Z</time></trkpt><trkpt lat="44.21055755201623" lon="11.324587234944056"><ele>802.0</ele><time>2026-05-02T10:23:53.623Z</time></trkpt><trkpt lat="44.21070317861214" lon="11.32452623795596"><ele>805.0</ele><time>2026-05-02T10:23:54.623Z</time></trkpt><trkpt lat="44.210851334503154" lon="11.324459994788151"><ele>808.0</ele><time>2026-05-02T10:23:55.623Z</time></trkpt><trkpt lat="44.2109987569995" lon="11.32440522600557"><ele>808.0</ele><time>2026-05-02T10:23:56.623Z</time></trkpt><trkpt lat="44.21114808378307" lon="11.324353758630213"><ele>808.0</ele><time>2026-05-02T10:23:57.623Z</time></trkpt><trkpt lat="44.21129385336702" lon="11.324287787055493"><ele>808.0</ele><time>2026-05-02T10:23:58.622Z</time></trkpt><trkpt lat="44.21143872211853" lon="11.324212047681002"><ele>810.6666666666666</ele><time>2026-05-02T10:23:59.622Z</time></trkpt><trkpt lat="44.2115810668113" lon="11.324142844586838"><ele>813.3333333333333</ele><time>2026-05-02T10:24:00.622Z</time></trkpt><trkpt lat="44.21172678318058" lon="11.32407349094695"><ele>816.0</ele><time>2026-05-02T10:24:01.622Z</time></trkpt><trkpt lat="44.21187327133706" lon="11.32400186750491"><ele>816.0</ele><time>2026-05-02T10:24:02.622Z</time></trkpt><trkpt lat="44.212017488071325" lon="11.323926475760139"><ele>816.0</ele><time>2026-05-02T10:24:03.622Z</time></trkpt><trkpt lat="44.21215340787184" lon="11.323854187883299"><ele>816.0</ele><time>2026-05-02T10:24:04.622Z</time></trkpt><trkpt lat="44.2122929106249" lon="11.32378308341079"><ele>816.0</ele><time>2026-05-02T10:24:05.622Z</time></trkpt><trkpt lat="44.21242520342953" lon="11.323709551977965"><ele>815.25</ele><time>2026-05-02T10:24:06.622Z</time></trkpt><trkpt lat="44.21256147715522" lon="11.323636738748105"><ele>814.5</ele><time>2026-05-02T10:24:07.622Z</time></trkpt><trkpt lat="44.21269723507238" lon="11.323560301651003"><ele>813.75</ele><time>2026-05-02T10:24:08.622Z</time></trkpt><trkpt lat="44.212836371784846" lon="11.323488244951543"><ele>813.0</ele><time>2026-05-02T10:24:09.622Z</time></trkpt><trkpt lat="44.2129749633409" lon="11.323416545001686"><ele>813.0</ele><time>2026-05-02T10:24:10.622Z</time></trkpt><trkpt lat="44.21311461203947" lon="11.323345345366489"><ele>813.0</ele><time>2026-05-02T10:24:11.622Z</time></trkpt><trkpt lat="44.213252773353865" lon="11.323270135653846"><ele>813.0</ele><time>2026-05-02T10:24:12.622Z</time></trkpt><trkpt lat="44.21338904481939" lon="11.32319237696774"><ele>813.0</ele><time>2026-05-02T10:24:13.622Z</time></trkpt><trkpt lat="44.21352661939629" lon="11.323117871506811"><ele>812.5</ele><time>2026-05-02T10:24:14.622Z</time></trkpt><trkpt lat="44.21366262825609" lon="11.323050051973242"><ele>812.0</ele><time>2026-05-02T10:24:15.622Z</time></trkpt><trkpt lat="44.21380028534242" lon="11.322992732152903"><ele>811.5</ele><time>2026-05-02T10:24:16.622Z</time></trkpt><trkpt lat="44.213944136504615" lon="11.32294585809407"><ele>811.0</ele><time>2026-05-02T10:24:17.622Z</time></trkpt><trkpt lat="44.21408716351823" lon="11.32290412444077"><ele>812.0</ele><time>2026-05-02T10:24:18.622Z</time></trkpt><trkpt lat="44.214229088882306" lon="11.32286880068196"><ele>813.0</ele><time>2026-05-02T10:24:19.622Z</time></trkpt><trkpt lat="44.214373393541315" lon="11.322836638807031"><ele>814.0</ele><time>2026-05-02T10:24:20.622Z</time></trkpt><trkpt lat="44.2145174442371" lon="11.32280699153766"><ele>815.0</ele><time>2026-05-02T10:24:21.622Z</time></trkpt><trkpt lat="44.214656183032545" lon="11.322763921500693"><ele>815.0</ele><time>2026-05-02T10:24:22.622Z</time></trkpt><trkpt lat="44.21480123113519" lon="11.322726600618713"><ele>815.0</ele><time>2026-05-02T10:24:23.621Z</time></trkpt><trkpt lat="44.21495246028727" lon="11.322688042013725"><ele>815.0</ele><time>2026-05-02T10:24:24.621Z</time></trkpt><trkpt lat="44.21510460002989" lon="11.322648249888111"><ele>817.0</ele><time>2026-05-02T10:24:25.621Z</time></trkpt><trkpt lat="44.21525640689944" lon="11.322603381050254"><ele>819.0</ele><time>2026-05-02T10:24:26.621Z</time></trkpt><trkpt lat="44.21540181121728" lon="11.322552036481062"><ele>821.0</ele><time>2026-05-02T10:24:27.621Z</time></trkpt><trkpt lat="44.21554997787854" lon="11.32250736574251"><ele>821.6666666666667</ele><time>2026-05-02T10:24:28.621Z</time></trkpt><trkpt lat="44.21570092497213" lon="11.32245685996777"><ele>822.3333333333333</ele><time>2026-05-02T10:24:29.621Z</time></trkpt><trkpt lat="44.21585070103685" lon="11.322403798193106"><ele>823.0</ele><time>2026-05-02T10:24:30.621Z</time></trkpt><trkpt lat="44.215996800239154" lon="11.322345392636304"><ele>823.0</ele><time>2026-05-02T10:24:31.621Z</time></trkpt><trkpt lat="44.21614379134491" lon="11.322270159935451"><ele>823.0</ele><time>2026-05-02T10:24:32.621Z</time></trkpt><trkpt lat="44.2162854908283" lon="11.322183480895681"><ele>823.0</ele><time>2026-05-02T10:24:33.621Z</time></trkpt><trkpt lat="44.21642871966436" lon="11.322082828800754"><ele>821.3333333333333</ele><time>2026-05-02T10:24:34.621Z</time></trkpt><trkpt lat="44.21656143309255" lon="11.321970421142556"><ele>819.6666666666667</ele><time>2026-05-02T10:24:35.621Z</time></trkpt><trkpt lat="44.216689889895065" lon="11.321847680935575"><ele>818.0</ele><time>2026-05-02T10:24:36.621Z</time></trkpt><trkpt lat="44.21681475340684" lon="11.32172092069822"><ele>818.0</ele><time>2026-05-02T10:24:37.621Z</time></trkpt><trkpt lat="44.21693730515373" lon="11.321592259152945"><ele>818.0</ele><time>2026-05-02T10:24:38.621Z</time></trkpt><trkpt lat="44.21705211914699" lon="11.321468459125015"><ele>818.0</ele><time>2026-05-02T10:24:39.621Z</time></trkpt><trkpt lat="44.217155480186356" lon="11.321346417305268"><ele>818.0</ele><time>2026-05-02T10:24:40.621Z</time></trkpt><trkpt lat="44.21725086152018" lon="11.321235550016995"><ele>817.25</ele><time>2026-05-02T10:24:41.621Z</time></trkpt><trkpt lat="44.21734078793823" lon="11.321145283564341"><ele>816.5</ele><time>2026-05-02T10:24:42.621Z</time></trkpt><trkpt lat="44.21743394627502" lon="11.321051506989958"><ele>815.75</ele><time>2026-05-02T10:24:43.621Z</time></trkpt><trkpt lat="44.21754045909218" lon="11.320961471222207"><ele>815.0</ele><time>2026-05-02T10:24:44.621Z</time></trkpt><trkpt lat="44.217648236775034" lon="11.320858077363399"><ele>815.0</ele><time>2026-05-02T10:24:45.621Z</time></trkpt><trkpt lat="44.21776390565951" lon="11.320759358458284"><ele>815.0</ele><time>2026-05-02T10:24:46.621Z</time></trkpt><trkpt lat="44.2178881976653" lon="11.320668355820349"><ele>815.0</ele><time>2026-05-02T10:24:47.621Z</time></trkpt><trkpt lat="44.21801775900907" lon="11.320590055028799"><ele>815.0</ele><time>2026-05-02T10:24:48.621Z</time></trkpt><trkpt lat="44.218145018151795" lon="11.320513902094467"><ele>817.75</ele><time>2026-05-02T10:24:49.62Z</time></trkpt><trkpt lat="44.218276595984776" lon="11.320436673186293"><ele>820.5</ele><time>2026-05-02T10:24:50.62Z</time></trkpt><trkpt lat="44.21840595179329" lon="11.320351466971943"><ele>823.25</ele><time>2026-05-02T10:24:51.62Z</time></trkpt><trkpt lat="44.2185350465365" lon="11.320267627746636"><ele>826.0</ele><time>2026-05-02T10:24:52.62Z</time></trkpt><trkpt lat="44.21866461472883" lon="11.320207768748517"><ele>826.0</ele><time>2026-05-02T10:24:53.62Z</time></trkpt><trkpt lat="44.21879480393387" lon="11.32020265869959"><ele>826.0</ele><time>2026-05-02T10:24:54.62Z</time></trkpt><trkpt lat="44.21891516275229" lon="11.3202680073009"><ele>826.0</ele><time>2026-05-02T10:24:55.62Z</time></trkpt><trkpt lat="44.219002255875516" lon="11.320404754753433"><ele>826.0</ele><time>2026-05-02T10:24:56.62Z</time></trkpt><trkpt lat="44.21908359751843" lon="11.320567021854172"><ele>824.6666666666666</ele><time>2026-05-02T10:24:57.62Z</time></trkpt><trkpt lat="44.219179448532" lon="11.320730140849971"><ele>823.3333333333333</ele><time>2026-05-02T10:24:58.62Z</time></trkpt><trkpt lat="44.21929428521302" lon="11.32086322081004"><ele>822.0</ele><time>2026-05-02T10:24:59.62Z</time></trkpt><trkpt lat="44.21943735388137" lon="11.320950024955634"><ele>822.0</ele><time>2026-05-02T10:25:00.62Z</time></trkpt><trkpt lat="44.21958963424288" lon="11.321023224087996"><ele>822.0</ele><time>2026-05-02T10:25:01.62Z</time></trkpt><trkpt lat="44.21972166925173" lon="11.321134048673864"><ele>822.0</ele><time>2026-05-02T10:25:02.62Z</time></trkpt><trkpt lat="44.2198410847094" lon="11.321278938995372"><ele>826.0</ele><time>2026-05-02T10:25:03.62Z</time></trkpt><trkpt lat="44.21994733340079" lon="11.321441602290747"><ele>830.0</ele><time>2026-05-02T10:25:04.62Z</time></trkpt><trkpt lat="44.2200351773715" lon="11.321617148368295"><ele>834.0</ele><time>2026-05-02T10:25:05.62Z</time></trkpt><trkpt lat="44.22008095871601" lon="11.321821827600596"><ele>834.0</ele><time>2026-05-02T10:25:06.62Z</time></trkpt><trkpt lat="44.22009117908076" lon="11.322032268415839"><ele>834.0</ele><time>2026-05-02T10:25:07.62Z</time></trkpt><trkpt lat="44.220094383717964" lon="11.322260087056366"><ele>834.0</ele><time>2026-05-02T10:25:08.62Z</time></trkpt><trkpt lat="44.22011395361517" lon="11.322490353888371"><ele>831.25</ele><time>2026-05-02T10:25:09.62Z</time></trkpt><trkpt lat="44.22015318030441" lon="11.322692358265563"><ele>828.5</ele><time>2026-05-02T10:25:10.62Z</time></trkpt><trkpt lat="44.22023369970645" lon="11.32285835229868"><ele>825.75</ele><time>2026-05-02T10:25:11.62Z</time></trkpt><trkpt lat="44.220355700242116" lon="11.322939177585141"><ele>823.0</ele><time>2026-05-02T10:25:12.622Z</time></trkpt><trkpt lat="44.220501972234516" lon="11.322938422845905"><ele>823.0</ele><time>2026-05-02T10:25:13.621Z</time></trkpt><trkpt lat="44.22064393414245" lon="11.32286701874822"><ele>823.0</ele><time>2026-05-02T10:25:14.621Z</time></trkpt><trkpt lat="44.220783925997225" lon="11.322778353836283"><ele>823.0</ele><time>2026-05-02T10:25:15.621Z</time></trkpt><trkpt lat="44.22092427497914" lon="11.3226771356147"><ele>827.25</ele><time>2026-05-02T10:25:16.621Z</time></trkpt><trkpt lat="44.221069497107614" lon="11.322597493796522"><ele>831.5</ele><time>2026-05-02T10:25:17.621Z</time></trkpt><trkpt lat="44.22120425366799" lon="11.322512244460935"><ele>835.75</ele><time>2026-05-02T10:25:18.621Z</time></trkpt><trkpt lat="44.221326160009156" lon="11.322443162665666"><ele>840.0</ele><time>2026-05-02T10:25:19.621Z</time></trkpt><trkpt lat="44.221442879136276" lon="11.322374493180817"><ele>837.75</ele><time>2026-05-02T10:25:20.621Z</time></trkpt><trkpt lat="44.22155622883908" lon="11.322316357715218"><ele>835.5</ele><time>2026-05-02T10:25:21.621Z</time></trkpt><trkpt lat="44.22167287297328" lon="11.322307098384265"><ele>833.25</ele><time>2026-05-02T10:25:22.621Z</time></trkpt><trkpt lat="44.22178546697933" lon="11.322337651164375"><ele>831.0</ele><time>2026-05-02T10:25:23.621Z</time></trkpt><trkpt lat="44.221891297470265" lon="11.322375480186988"><ele>831.0</ele><time>2026-05-02T10:25:24.621Z</time></trkpt><trkpt lat="44.22197834292578" lon="11.322416088259303"><ele>831.0</ele><time>2026-05-02T10:25:25.621Z</time></trkpt><trkpt lat="44.222077819851265" lon="11.32246875895549"><ele>831.0</ele><time>2026-05-02T10:25:26.621Z</time></trkpt><trkpt lat="44.22217850972967" lon="11.322545358839156"><ele>831.0</ele><time>2026-05-02T10:25:27.621Z</time></trkpt><trkpt lat="44.22228091508457" lon="11.322653218250544"><ele>831.0</ele><time>2026-05-02T10:25:28.621Z</time></trkpt><trkpt lat="44.22236557515242" lon="11.32280329295072"><ele>830.75</ele><time>2026-05-02T10:25:29.621Z</time></trkpt><trkpt lat="44.22245313078239" lon="11.32295912760126"><ele>830.5</ele><time>2026-05-02T10:25:30.621Z</time></trkpt><trkpt lat="44.22254357673915" lon="11.323112439177379"><ele>830.25</ele><time>2026-05-02T10:25:31.621Z</time></trkpt><trkpt lat="44.22264735632573" lon="11.32323888897133"><ele>830.0</ele><time>2026-05-02T10:25:32.621Z</time></trkpt><trkpt lat="44.22276895263718" lon="11.323318405333888"><ele>830.0</ele><time>2026-05-02T10:25:33.621Z</time></trkpt><trkpt lat="44.2229011811309" lon="11.323315574586882"><ele>830.0</ele><time>2026-05-02T10:25:34.621Z</time></trkpt><trkpt lat="44.22304145070381" lon="11.323251011628141"><ele>830.0</ele><time>2026-05-02T10:25:35.621Z</time></trkpt><trkpt lat="44.223157555340585" lon="11.32314894118573"><ele>830.0</ele><time>2026-05-02T10:25:36.621Z</time></trkpt><trkpt lat="44.22322612220566" lon="11.322988589400076"><ele>829.75</ele><time>2026-05-02T10:25:37.621Z</time></trkpt><trkpt lat="44.22324202812384" lon="11.322805212971222"><ele>829.5</ele><time>2026-05-02T10:25:38.621Z</time></trkpt><trkpt lat="44.223282274213595" lon="11.322623690671312"><ele>829.25</ele><time>2026-05-02T10:25:39.621Z</time></trkpt><trkpt lat="44.223382900911275" lon="11.322493771409174"><ele>829.0</ele><time>2026-05-02T10:25:40.621Z</time></trkpt><trkpt lat="44.22350696150998" lon="11.322417973222382"><ele>829.0</ele><time>2026-05-02T10:25:41.621Z</time></trkpt><trkpt lat="44.22363823702746" lon="11.322398287453742"><ele>829.0</ele><time>2026-05-02T10:25:42.62Z</time></trkpt><trkpt lat="44.2237500230941" lon="11.322367215217632"><ele>829.0</ele><time>2026-05-02T10:25:43.62Z</time></trkpt><trkpt lat="44.223848375568245" lon="11.322328178117"><ele>829.0</ele><time>2026-05-02T10:25:44.62Z</time></trkpt><trkpt lat="44.22393293524652" lon="11.322300417123152"><ele>829.0</ele><time>2026-05-02T10:25:45.62Z</time></trkpt><trkpt lat="44.224007480190956" lon="11.322278423337725"><ele>830.0</ele><time>2026-05-02T10:25:46.62Z</time></trkpt><trkpt lat="44.22408040951638" lon="11.322257443923943"><ele>831.0</ele><time>2026-05-02T10:25:47.62Z</time></trkpt><trkpt lat="44.22417381522847" lon="11.322267396004083"><ele>832.0</ele><time>2026-05-02T10:25:48.62Z</time></trkpt><trkpt lat="44.22427809927474" lon="11.322302293305118"><ele>833.0</ele><time>2026-05-02T10:25:49.62Z</time></trkpt><trkpt lat="44.224380121622495" lon="11.322372277302048"><ele>834.0</ele><time>2026-05-02T10:25:50.62Z</time></trkpt><trkpt lat="44.22448076128422" lon="11.322476976839452"><ele>834.0</ele><time>2026-05-02T10:25:51.62Z</time></trkpt><trkpt lat="44.224567110290344" lon="11.322604672382585"><ele>834.0</ele><time>2026-05-02T10:25:52.62Z</time></trkpt><trkpt lat="44.22462662986992" lon="11.32275321396824"><ele>834.0</ele><time>2026-05-02T10:25:53.62Z</time></trkpt><trkpt lat="44.224657851886356" lon="11.322927938350636"><ele>834.0</ele><time>2026-05-02T10:25:54.62Z</time></trkpt><trkpt lat="44.224681692881845" lon="11.323112052929392"><ele>834.75</ele><time>2026-05-02T10:25:55.62Z</time></trkpt><trkpt lat="44.22474112634986" lon="11.323264571378443"><ele>835.5</ele><time>2026-05-02T10:25:56.62Z</time></trkpt><trkpt lat="44.224858758604604" lon="11.323339122142439"><ele>836.25</ele><time>2026-05-02T10:25:57.62Z</time></trkpt><trkpt lat="44.22500785530976" lon="11.323347156150756"><ele>837.0</ele><time>2026-05-02T10:25:58.62Z</time></trkpt><trkpt lat="44.22516034850177" lon="11.323352185642431"><ele>837.0</ele><time>2026-05-02T10:25:59.62Z</time></trkpt><trkpt lat="44.225305944667895" lon="11.323351012558932"><ele>837.0</ele><time>2026-05-02T10:26:00.62Z</time></trkpt><trkpt lat="44.22545958260969" lon="11.323350310867001"><ele>837.0</ele><time>2026-05-02T10:26:01.62Z</time></trkpt><trkpt lat="44.22560964465929" lon="11.323364201190683"><ele>835.0</ele><time>2026-05-02T10:26:02.62Z</time></trkpt><trkpt lat="44.2257626580902" lon="11.323403929088887"><ele>833.0</ele><time>2026-05-02T10:26:03.62Z</time></trkpt><trkpt lat="44.22591268345703" lon="11.323462748920452"><ele>831.0</ele><time>2026-05-02T10:26:04.62Z</time></trkpt><trkpt lat="44.22606019723783" lon="11.323527463362383"><ele>831.0</ele><time>2026-05-02T10:26:05.62Z</time></trkpt><trkpt lat="44.2261991602762" lon="11.323592893026625"><ele>831.0</ele><time>2026-05-02T10:26:06.62Z</time></trkpt><trkpt lat="44.22630266883202" lon="11.323718867803096"><ele>831.0</ele><time>2026-05-02T10:26:07.62Z</time></trkpt><trkpt lat="44.22636706846631" lon="11.323897887025868"><ele>831.0</ele><time>2026-05-02T10:26:08.619Z</time></trkpt><trkpt lat="44.22639190546777" lon="11.324114222743804"><ele>836.6666666666667</ele><time>2026-05-02T10:26:09.619Z</time></trkpt><trkpt lat="44.2263791978103" lon="11.324339854518751"><ele>842.3333333333334</ele><time>2026-05-02T10:26:10.619Z</time></trkpt><trkpt lat="44.22633172752856" lon="11.324559723445619"><ele>848.0</ele><time>2026-05-02T10:26:11.619Z</time></trkpt><trkpt lat="44.22628765424839" lon="11.324794384492037"><ele>851.6666666666667</ele><time>2026-05-02T10:26:12.619Z</time></trkpt><trkpt lat="44.22627896827981" lon="11.325032409905543"><ele>855.3333333333333</ele><time>2026-05-02T10:26:13.619Z</time></trkpt><trkpt lat="44.226313617494114" lon="11.325263118686589"><ele>859.0</ele><time>2026-05-02T10:26:14.619Z</time></trkpt><trkpt lat="44.22639029740823" lon="11.325482934541899"><ele>853.0</ele><time>2026-05-02T10:26:15.619Z</time></trkpt><trkpt lat="44.22650078391452" lon="11.325668634237395"><ele>847.0</ele><time>2026-05-02T10:26:16.619Z</time></trkpt><trkpt lat="44.22665975080752" lon="11.325796902527697"><ele>841.0</ele><time>2026-05-02T10:26:17.619Z</time></trkpt><trkpt lat="44.226806552045076" lon="11.325885553939823"><ele>841.0</ele><time>2026-05-02T10:26:18.619Z</time></trkpt><trkpt lat="44.22692475206307" lon="11.325961793410242"><ele>841.0</ele><time>2026-05-02T10:26:19.619Z</time></trkpt><trkpt lat="44.22702472226712" lon="11.326037434683078"><ele>841.0</ele><time>2026-05-02T10:26:20.619Z</time></trkpt><trkpt lat="44.22714634825975" lon="11.326090273063564"><ele>841.0</ele><time>2026-05-02T10:26:21.619Z</time></trkpt><trkpt lat="44.227245417182814" lon="11.326141821717743"><ele>839.0</ele><time>2026-05-02T10:26:22.619Z</time></trkpt><trkpt lat="44.22738810977297" lon="11.32615369823705"><ele>837.0</ele><time>2026-05-02T10:26:23.619Z</time></trkpt><trkpt lat="44.227522220279155" lon="11.326162695279184"><ele>835.0</ele><time>2026-05-02T10:26:24.619Z</time></trkpt><trkpt lat="44.22761522487919" lon="11.326183411369728"><ele>833.0</ele><time>2026-05-02T10:26:25.619Z</time></trkpt><trkpt lat="44.2276816132034" lon="11.326195237116922"><ele>831.0</ele><time>2026-05-02T10:26:26.619Z</time></trkpt><trkpt lat="44.22776640515451" lon="11.326196200946733"><ele>831.0</ele><time>2026-05-02T10:27:01.617Z</time></trkpt><trkpt lat="44.227905201540935" lon="11.326183869782085"><ele>831.0</ele><time>2026-05-02T10:27:03.617Z</time></trkpt><trkpt lat="44.22799392859053" lon="11.326211405068056"><ele>831.0</ele><time>2026-05-02T10:27:04.617Z</time></trkpt><trkpt lat="44.22808658322523" lon="11.326270335596316"><ele>831.0</ele><time>2026-05-02T10:27:05.617Z</time></trkpt><trkpt lat="44.228164211282795" lon="11.326352882289681"><ele>831.0</ele><time>2026-05-02T10:27:06.617Z</time></trkpt><trkpt lat="44.22824233447162" lon="11.326457795394951"><ele>833.75</ele><time>2026-05-02T10:27:07.617Z</time></trkpt><trkpt lat="44.2283336139991" lon="11.326558529312694"><ele>836.5</ele><time>2026-05-02T10:27:08.617Z</time></trkpt><trkpt lat="44.22845251192198" lon="11.326604706128098"><ele>839.25</ele><time>2026-05-02T10:27:09.617Z</time></trkpt><trkpt lat="44.2285756897905" lon="11.32658106842017"><ele>842.0</ele><time>2026-05-02T10:27:10.617Z</time></trkpt><trkpt lat="44.2286901288347" lon="11.326494916286883"><ele>838.5</ele><time>2026-05-02T10:27:11.617Z</time></trkpt><trkpt lat="44.22877545571925" lon="11.326365820749848"><ele>835.0</ele><time>2026-05-02T10:27:12.617Z</time></trkpt><trkpt lat="44.228837127363754" lon="11.326199511846031"><ele>831.5</ele><time>2026-05-02T10:27:13.617Z</time></trkpt><trkpt lat="44.228912107015915" lon="11.326045664448904"><ele>828.0</ele><time>2026-05-02T10:27:14.617Z</time></trkpt><trkpt lat="44.229010455003355" lon="11.325953526052759"><ele>828.0</ele><time>2026-05-02T10:27:15.617Z</time></trkpt><trkpt lat="44.22913066398409" lon="11.325946915439307"><ele>828.0</ele><time>2026-05-02T10:27:16.617Z</time></trkpt><trkpt lat="44.229244946738945" lon="11.326011713217733"><ele>828.0</ele><time>2026-05-02T10:27:17.617Z</time></trkpt><trkpt lat="44.229343474078625" lon="11.32615712352134"><ele>828.0</ele><time>2026-05-02T10:27:18.618Z</time></trkpt><trkpt lat="44.229421093166806" lon="11.326337432768709"><ele>832.6666666666667</ele><time>2026-05-02T10:27:19.618Z</time></trkpt><trkpt lat="44.229502325220885" lon="11.32652185568165"><ele>837.3333333333334</ele><time>2026-05-02T10:27:20.618Z</time></trkpt><trkpt lat="44.22958735341748" lon="11.326723080091776"><ele>842.0</ele><time>2026-05-02T10:27:21.618Z</time></trkpt><trkpt lat="44.229680989374536" lon="11.326915509308613"><ele>842.0</ele><time>2026-05-02T10:27:22.618Z</time></trkpt><trkpt lat="44.22978263963592" lon="11.327104641065555"><ele>842.0</ele><time>2026-05-02T10:27:23.618Z</time></trkpt><trkpt lat="44.22989603842427" lon="11.327278250572443"><ele>842.0</ele><time>2026-05-02T10:27:24.619Z</time></trkpt><trkpt lat="44.23001569707779" lon="11.327445166421676"><ele>839.0</ele><time>2026-05-02T10:27:25.617Z</time></trkpt><trkpt lat="44.23014852074981" lon="11.327604394503688"><ele>836.0</ele><time>2026-05-02T10:27:26.617Z</time></trkpt><trkpt lat="44.23027883483289" lon="11.327753004199058"><ele>833.0</ele><time>2026-05-02T10:27:27.618Z</time></trkpt><trkpt lat="44.230414959406055" lon="11.32786566403982"><ele>833.0</ele><time>2026-05-02T10:27:28.618Z</time></trkpt><trkpt lat="44.23055411255337" lon="11.32791202428528"><ele>833.0</ele><time>2026-05-02T10:27:29.618Z</time></trkpt><trkpt lat="44.23070244821078" lon="11.327874740448006"><ele>833.0</ele><time>2026-05-02T10:27:30.618Z</time></trkpt><trkpt lat="44.23084336819937" lon="11.327752133470858"><ele>830.6666666666667</ele><time>2026-05-02T10:27:31.618Z</time></trkpt><trkpt lat="44.230977423618924" lon="11.327610482708945"><ele>828.3333333333333</ele><time>2026-05-02T10:27:32.618Z</time></trkpt><trkpt lat="44.23111626463567" lon="11.3274780080134"><ele>826.0</ele><time>2026-05-02T10:27:33.618Z</time></trkpt><trkpt lat="44.231272725465" lon="11.327361575029407"><ele>826.0</ele><time>2026-05-02T10:27:34.617Z</time></trkpt><trkpt lat="44.23142552223171" lon="11.327284482140298"><ele>826.0</ele><time>2026-05-02T10:27:35.617Z</time></trkpt><trkpt lat="44.23156899370504" lon="11.327283539606968"><ele>826.0</ele><time>2026-05-02T10:27:36.617Z</time></trkpt><trkpt lat="44.231705215503005" lon="11.327360112039667"><ele>826.0</ele><time>2026-05-02T10:27:37.617Z</time></trkpt><trkpt lat="44.23182169753764" lon="11.327518245646953"><ele>826.0</ele><time>2026-05-02T10:27:38.617Z</time></trkpt><trkpt lat="44.23191571924931" lon="11.327704841345442"><ele>826.0</ele><time>2026-05-02T10:27:39.617Z</time></trkpt><trkpt lat="44.23200316550749" lon="11.327914391164935"><ele>828.6666666666666</ele><time>2026-05-02T10:27:40.617Z</time></trkpt><trkpt lat="44.23202497384916" lon="11.328153163025489"><ele>831.3333333333333</ele><time>2026-05-02T10:27:41.617Z</time></trkpt><trkpt lat="44.23199586157657" lon="11.328399360510078"><ele>834.0</ele><time>2026-05-02T10:27:42.617Z</time></trkpt><trkpt lat="44.231964536010324" lon="11.328640795044958"><ele>834.0</ele><time>2026-05-02T10:27:43.617Z</time></trkpt><trkpt lat="44.232005652344576" lon="11.328886999771978"><ele>834.0</ele><time>2026-05-02T10:27:44.617Z</time></trkpt><trkpt lat="44.23208106299266" lon="11.329119745917238"><ele>834.0</ele><time>2026-05-02T10:27:45.617Z</time></trkpt><trkpt lat="44.2321954113755" lon="11.329330525138507"><ele>832.0</ele><time>2026-05-02T10:27:46.617Z</time></trkpt><trkpt lat="44.23232684537246" lon="11.329517614782317"><ele>830.0</ele><time>2026-05-02T10:27:47.617Z</time></trkpt><trkpt lat="44.23247579183501" lon="11.329691065376748"><ele>828.0</ele><time>2026-05-02T10:27:48.617Z</time></trkpt><trkpt lat="44.232630027702" lon="11.32985067217513"><ele>828.0</ele><time>2026-05-02T10:27:49.617Z</time></trkpt><trkpt lat="44.2327782841233" lon="11.330017613162182"><ele>828.0</ele><time>2026-05-02T10:27:50.617Z</time></trkpt><trkpt lat="44.232923902585924" lon="11.330165469198494"><ele>828.0</ele><time>2026-05-02T10:27:51.617Z</time></trkpt><trkpt lat="44.233051539568244" lon="11.33031859149359"><ele>828.0</ele><time>2026-05-02T10:27:52.617Z</time></trkpt><trkpt lat="44.233116450853" lon="11.330513255964213"><ele>828.0</ele><time>2026-05-02T10:27:53.617Z</time></trkpt><trkpt lat="44.23311213622531" lon="11.330733906868717"><ele>828.0</ele><time>2026-05-02T10:27:54.617Z</time></trkpt><trkpt lat="44.233124614001206" lon="11.330951569494905"><ele>824.0</ele><time>2026-05-02T10:27:55.617Z</time></trkpt><trkpt lat="44.23320272295294" lon="11.331135454918128"><ele>820.0</ele><time>2026-05-02T10:27:56.617Z</time></trkpt><trkpt lat="44.23333638786478" lon="11.331268008648763"><ele>816.0</ele><time>2026-05-02T10:27:57.617Z</time></trkpt><trkpt lat="44.23349346486326" lon="11.331387351717817"><ele>819.3333333333333</ele><time>2026-05-02T10:27:58.617Z</time></trkpt><trkpt lat="44.233599037751375" lon="11.331561435888275"><ele>822.6666666666666</ele><time>2026-05-02T10:27:59.616Z</time></trkpt><trkpt lat="44.23365411997272" lon="11.33177831330418"><ele>826.0</ele><time>2026-05-02T10:28:00.616Z</time></trkpt><trkpt lat="44.233720123382916" lon="11.33196902946323"><ele>826.0</ele><time>2026-05-02T10:28:01.616Z</time></trkpt><trkpt lat="44.233842041743074" lon="11.332083672177118"><ele>826.0</ele><time>2026-05-02T10:28:02.616Z</time></trkpt><trkpt lat="44.233982261266526" lon="11.332103726087029"><ele>826.0</ele><time>2026-05-02T10:28:03.616Z</time></trkpt><trkpt lat="44.234134039484886" lon="11.332023643474757"><ele>822.6666666666666</ele><time>2026-05-02T10:28:04.616Z</time></trkpt><trkpt lat="44.234270693835505" lon="11.331889227964664"><ele>819.3333333333333</ele><time>2026-05-02T10:28:05.616Z</time></trkpt><trkpt lat="44.23436944372115" lon="11.331672175462584"><ele>816.0</ele><time>2026-05-02T10:28:06.616Z</time></trkpt><trkpt lat="44.234443940529154" lon="11.33141099183448"><ele>812.6666666666667</ele><time>2026-05-02T10:28:07.616Z</time></trkpt><trkpt lat="44.2345080183516" lon="11.331140575970199"><ele>809.3333333333334</ele><time>2026-05-02T10:28:08.616Z</time></trkpt><trkpt lat="44.234573555668945" lon="11.330878035488293"><ele>806.0</ele><time>2026-05-02T10:28:09.616Z</time></trkpt><trkpt lat="44.234643021965205" lon="11.330631501385556"><ele>807.6666666666667</ele><time>2026-05-02T10:28:10.616Z</time></trkpt><trkpt lat="44.23472958172427" lon="11.330404551516098"><ele>809.3333333333333</ele><time>2026-05-02T10:28:11.616Z</time></trkpt><trkpt lat="44.23484311904899" lon="11.330223407513524"><ele>811.0</ele><time>2026-05-02T10:28:12.616Z</time></trkpt><trkpt lat="44.23498627050042" lon="11.33008639517753"><ele>811.0</ele><time>2026-05-02T10:28:13.616Z</time></trkpt><trkpt lat="44.235129026300434" lon="11.32992849351609"><ele>811.0</ele><time>2026-05-02T10:28:14.616Z</time></trkpt><trkpt lat="44.23527203031546" lon="11.329763941782689"><ele>811.0</ele><time>2026-05-02T10:28:15.616Z</time></trkpt><trkpt lat="44.23541618592351" lon="11.329600447711066"><ele>809.3333333333333</ele><time>2026-05-02T10:28:16.616Z</time></trkpt><trkpt lat="44.23557182275309" lon="11.32948632492128"><ele>807.6666666666667</ele><time>2026-05-02T10:28:17.616Z</time></trkpt><trkpt lat="44.23572473996367" lon="11.329481696190333"><ele>806.0</ele><time>2026-05-02T10:28:18.616Z</time></trkpt><trkpt lat="44.23589338291378" lon="11.329576149178584"><ele>810.3333333333334</ele><time>2026-05-02T10:28:19.616Z</time></trkpt><trkpt lat="44.2360357589837" lon="11.329765158915167"><ele>814.6666666666667</ele><time>2026-05-02T10:28:20.616Z</time></trkpt><trkpt lat="44.236167911816366" lon="11.329950743437834"><ele>819.0</ele><time>2026-05-02T10:28:21.616Z</time></trkpt><trkpt lat="44.23632289203493" lon="11.330084756381899"><ele>813.3333333333333</ele><time>2026-05-02T10:28:22.616Z</time></trkpt><trkpt lat="44.23648765394971" lon="11.33019327680957"><ele>807.6666666666666</ele><time>2026-05-02T10:28:23.616Z</time></trkpt><trkpt lat="44.23664951607456" lon="11.330304913160305"><ele>802.0</ele><time>2026-05-02T10:28:24.616Z</time></trkpt><trkpt lat="44.23681429023735" lon="11.330435859483945"><ele>807.0</ele><time>2026-05-02T10:28:25.615Z</time></trkpt><trkpt lat="44.236963903861074" lon="11.330602659214215"><ele>812.0</ele><time>2026-05-02T10:28:26.615Z</time></trkpt><trkpt lat="44.2370533696201" lon="11.330811970209652"><ele>817.0</ele><time>2026-05-02T10:28:27.615Z</time></trkpt><trkpt lat="44.23707788170192" lon="11.331044022498896"><ele>817.0</ele><time>2026-05-02T10:28:28.615Z</time></trkpt><trkpt lat="44.23705599983912" lon="11.331284767884634"><ele>817.0</ele><time>2026-05-02T10:28:29.615Z</time></trkpt><trkpt lat="44.237011792385175" lon="11.331530272172241"><ele>817.0</ele><time>2026-05-02T10:28:30.615Z</time></trkpt><trkpt lat="44.23697210618951" lon="11.331794151109701"><ele>820.3333333333333</ele><time>2026-05-02T10:28:31.615Z</time></trkpt><trkpt lat="44.236962260579446" lon="11.332057207386415"><ele>823.6666666666667</ele><time>2026-05-02T10:28:32.615Z</time></trkpt><trkpt lat="44.23700783183536" lon="11.332288248915017"><ele>827.0</ele><time>2026-05-02T10:28:33.615Z</time></trkpt><trkpt lat="44.23710502439228" lon="11.332464075343038"><ele>828.0</ele><time>2026-05-02T10:28:34.615Z</time></trkpt><trkpt lat="44.23726571885108" lon="11.332534723780126"><ele>829.0</ele><time>2026-05-02T10:28:35.615Z</time></trkpt><trkpt lat="44.2374391127201" lon="11.33251576431482"><ele>830.0</ele><time>2026-05-02T10:28:36.615Z</time></trkpt><trkpt lat="44.237608124423566" lon="11.332372067072015"><ele>820.6666666666667</ele><time>2026-05-02T10:28:37.615Z</time></trkpt><trkpt lat="44.237762452848024" lon="11.332191003021345"><ele>811.3333333333333</ele><time>2026-05-02T10:28:38.615Z</time></trkpt><trkpt lat="44.23786563298857" lon="11.332073272731018"><ele>802.0</ele><time>2026-05-02T10:28:39.615Z</time></trkpt><trkpt lat="44.2380117007248" lon="11.332091981505988"><ele>804.0</ele><time>2026-05-02T10:28:40.615Z</time></trkpt><trkpt lat="44.23817117286993" lon="11.332186637425327"><ele>806.0</ele><time>2026-05-02T10:28:41.615Z</time></trkpt><trkpt lat="44.238339548069604" lon="11.332313590310628"><ele>808.0</ele><time>2026-05-02T10:28:42.615Z</time></trkpt><trkpt lat="44.23850923846289" lon="11.332452268598981"><ele>808.0</ele><time>2026-05-02T10:28:43.615Z</time></trkpt><trkpt lat="44.23867222388509" lon="11.332564644655356"><ele>808.0</ele><time>2026-05-02T10:28:44.615Z</time></trkpt><trkpt lat="44.23883883344106" lon="11.332674129202108"><ele>808.0</ele><time>2026-05-02T10:28:45.615Z</time></trkpt><trkpt lat="44.23900227856678" lon="11.332794414642075"><ele>808.6666666666666</ele><time>2026-05-02T10:28:46.615Z</time></trkpt><trkpt lat="44.239175455109056" lon="11.332911139810044"><ele>809.3333333333333</ele><time>2026-05-02T10:28:47.615Z</time></trkpt><trkpt lat="44.2393458686498" lon="11.333036360824567"><ele>810.0</ele><time>2026-05-02T10:28:48.615Z</time></trkpt><trkpt lat="44.23952326962442" lon="11.33316862391193"><ele>810.0</ele><time>2026-05-02T10:28:49.615Z</time></trkpt><trkpt lat="44.23970036705011" lon="11.333303835400917"><ele>810.0</ele><time>2026-05-02T10:28:50.614Z</time></trkpt><trkpt lat="44.239876566080774" lon="11.33343549644503"><ele>810.0</ele><time>2026-05-02T10:28:51.614Z</time></trkpt><trkpt lat="44.24004789881421" lon="11.333553737068256"><ele>809.3333333333333</ele><time>2026-05-02T10:28:52.614Z</time></trkpt><trkpt lat="44.240219835185556" lon="11.33367728437904"><ele>808.6666666666666</ele><time>2026-05-02T10:28:53.614Z</time></trkpt><trkpt lat="44.24037919143666" lon="11.333782031013339"><ele>808.0</ele><time>2026-05-02T10:28:54.614Z</time></trkpt><trkpt lat="44.240527414775734" lon="11.333872714070374"><ele>807.75</ele><time>2026-05-02T10:28:55.614Z</time></trkpt><trkpt lat="44.24066604699482" lon="11.333898662846277"><ele>807.5</ele><time>2026-05-02T10:28:56.614Z</time></trkpt><trkpt lat="44.24080092534482" lon="11.333818187429081"><ele>807.25</ele><time>2026-05-02T10:28:57.614Z</time></trkpt><trkpt lat="44.24091193499285" lon="11.333672212118326"><ele>807.0</ele><time>2026-05-02T10:28:58.614Z</time></trkpt><trkpt lat="44.24096869334378" lon="11.333447410128725"><ele>807.0</ele><time>2026-05-02T10:28:59.614Z</time></trkpt><trkpt lat="44.24097744254461" lon="11.333187213537244"><ele>807.0</ele><time>2026-05-02T10:29:00.614Z</time></trkpt><trkpt lat="44.24093653795205" lon="11.332945763467555"><ele>807.0</ele><time>2026-05-02T10:29:01.614Z</time></trkpt><trkpt lat="44.24087178732089" lon="11.332693443446521"><ele>807.0</ele><time>2026-05-02T10:29:02.614Z</time></trkpt><trkpt lat="44.24081759950861" lon="11.332467893666248"><ele>807.0</ele><time>2026-05-02T10:29:03.614Z</time></trkpt><trkpt lat="44.24077732339573" lon="11.332262938792551"><ele>807.0</ele><time>2026-05-02T10:29:04.614Z</time></trkpt><trkpt lat="44.240778582980504" lon="11.332049599673116"><ele>804.0</ele><time>2026-05-02T10:29:05.614Z</time></trkpt><trkpt lat="44.24082254292451" lon="11.331829499425046"><ele>801.0</ele><time>2026-05-02T10:29:06.614Z</time></trkpt><trkpt lat="44.24089101546576" lon="11.331624474682586"><ele>798.0</ele><time>2026-05-02T10:29:07.614Z</time></trkpt><trkpt lat="44.24099814170541" lon="11.331447994301277"><ele>794.6666666666667</ele><time>2026-05-02T10:29:08.614Z</time></trkpt><trkpt lat="44.241123090675885" lon="11.331296112418695"><ele>791.3333333333334</ele><time>2026-05-02T10:29:09.614Z</time></trkpt><trkpt lat="44.24126954106626" lon="11.331206726796156"><ele>788.0</ele><time>2026-05-02T10:29:10.614Z</time></trkpt><trkpt lat="44.24140362459134" lon="11.3311855324977"><ele>790.0</ele><time>2026-05-02T10:29:11.614Z</time></trkpt><trkpt lat="44.24153354450107" lon="11.331244056568313"><ele>792.0</ele><time>2026-05-02T10:29:12.614Z</time></trkpt><trkpt lat="44.241669277520344" lon="11.331385513501703"><ele>794.0</ele><time>2026-05-02T10:29:13.614Z</time></trkpt><trkpt lat="44.241795684950745" lon="11.33157060587351"><ele>796.3333333333334</ele><time>2026-05-02T10:29:14.614Z</time></trkpt><trkpt lat="44.24191756576991" lon="11.33175892678934"><ele>798.6666666666667</ele><time>2026-05-02T10:29:15.614Z</time></trkpt><trkpt lat="44.242058569391496" lon="11.331917412788984"><ele>801.0</ele><time>2026-05-02T10:29:16.613Z</time></trkpt><trkpt lat="44.242222313458846" lon="11.332045318737148"><ele>798.3333333333333</ele><time>2026-05-02T10:29:17.613Z</time></trkpt><trkpt lat="44.242393075977596" lon="11.332144538891724"><ele>795.6666666666666</ele><time>2026-05-02T10:29:18.613Z</time></trkpt><trkpt lat="44.24255918215798" lon="11.332165454698647"><ele>793.0</ele><time>2026-05-02T10:29:19.613Z</time></trkpt><trkpt lat="44.24270944542089" lon="11.332089084730512"><ele>793.0</ele><time>2026-05-02T10:29:20.613Z</time></trkpt><trkpt lat="44.24283813645367" lon="11.331921450393182"><ele>793.0</ele><time>2026-05-02T10:29:21.613Z</time></trkpt><trkpt lat="44.24298621568847" lon="11.331803108785541"><ele>793.0</ele><time>2026-05-02T10:29:22.613Z</time></trkpt><trkpt lat="44.243150413503336" lon="11.33175401601521"><ele>792.6666666666666</ele><time>2026-05-02T10:29:23.613Z</time></trkpt><trkpt lat="44.243337601031946" lon="11.331763777747408"><ele>792.3333333333333</ele><time>2026-05-02T10:29:24.615Z</time></trkpt><trkpt lat="44.24352465084119" lon="11.331769248825477"><ele>792.0</ele><time>2026-05-02T10:29:25.614Z</time></trkpt><trkpt lat="44.24369929377253" lon="11.33176720245302"><ele>792.0</ele><time>2026-05-02T10:29:26.614Z</time></trkpt><trkpt lat="44.24384416781317" lon="11.331718249983629"><ele>792.0</ele><time>2026-05-02T10:29:27.615Z</time></trkpt><trkpt lat="44.24397672799401" lon="11.331621210439614"><ele>792.0</ele><time>2026-05-02T10:29:28.614Z</time></trkpt><trkpt lat="44.244129775046076" lon="11.331518833077967"><ele>794.0</ele><time>2026-05-02T10:29:29.614Z</time></trkpt><trkpt lat="44.24428728228111" lon="11.331475667931233"><ele>796.0</ele><time>2026-05-02T10:29:30.615Z</time></trkpt><trkpt lat="44.24443914252558" lon="11.33150423024117"><ele>798.0</ele><time>2026-05-02T10:29:31.615Z</time></trkpt><trkpt lat="44.24458975289248" lon="11.331616520494181"><ele>798.0</ele><time>2026-05-02T10:29:32.615Z</time></trkpt><trkpt lat="44.24472428440976" lon="11.331790013235702"><ele>798.0</ele><time>2026-05-02T10:29:33.615Z</time></trkpt><trkpt lat="44.24483261416565" lon="11.33199081930127"><ele>798.0</ele><time>2026-05-02T10:29:34.614Z</time></trkpt><trkpt lat="44.24491321097405" lon="11.332188905678501"><ele>796.75</ele><time>2026-05-02T10:29:35.614Z</time></trkpt><trkpt lat="44.24495308743152" lon="11.332404688498688"><ele>795.5</ele><time>2026-05-02T10:29:36.615Z</time></trkpt><trkpt lat="44.24496809645183" lon="11.332604267677032"><ele>794.25</ele><time>2026-05-02T10:29:37.614Z</time></trkpt><trkpt lat="44.24498507911748" lon="11.33279823661368"><ele>793.0</ele><time>2026-05-02T10:29:38.614Z</time></trkpt><trkpt lat="44.24503064057717" lon="11.33297967819792"><ele>795.0</ele><time>2026-05-02T10:29:39.614Z</time></trkpt><trkpt lat="44.24509788445717" lon="11.333146983644784"><ele>797.0</ele><time>2026-05-02T10:29:40.614Z</time></trkpt><trkpt lat="44.245173752672045" lon="11.333299538140423"><ele>799.0</ele><time>2026-05-02T10:29:41.614Z</time></trkpt><trkpt lat="44.24524984999545" lon="11.333424352369445"><ele>801.0</ele><time>2026-05-02T10:29:42.614Z</time></trkpt><trkpt lat="44.245333449367436" lon="11.333541257310884"><ele>801.0</ele><time>2026-05-02T10:29:43.614Z</time></trkpt><trkpt lat="44.245426365198746" lon="11.333631274781057"><ele>801.0</ele><time>2026-05-02T10:29:44.614Z</time></trkpt><trkpt lat="44.24551955789948" lon="11.333679637897832"><ele>801.0</ele><time>2026-05-02T10:29:45.614Z</time></trkpt><trkpt lat="44.24561497857227" lon="11.333681138842165"><ele>801.0</ele><time>2026-05-02T10:29:46.614Z</time></trkpt><trkpt lat="44.2457117534518" lon="11.333646030620791"><ele>801.0</ele><time>2026-05-02T10:29:47.614Z</time></trkpt><trkpt lat="44.245815761135106" lon="11.333573219703934"><ele>799.5</ele><time>2026-05-02T10:29:48.614Z</time></trkpt><trkpt lat="44.24591693012339" lon="11.333502926603648"><ele>798.0</ele><time>2026-05-02T10:29:49.614Z</time></trkpt><trkpt lat="44.24602464702995" lon="11.333428379681141"><ele>796.5</ele><time>2026-05-02T10:29:50.614Z</time></trkpt><trkpt lat="44.246135621063175" lon="11.333349268454585"><ele>795.0</ele><time>2026-05-02T10:29:51.613Z</time></trkpt><trkpt lat="44.246244762638895" lon="11.333267694633816"><ele>795.0</ele><time>2026-05-02T10:29:52.613Z</time></trkpt><trkpt lat="44.24634737770995" lon="11.333203293174748"><ele>795.0</ele><time>2026-05-02T10:29:53.613Z</time></trkpt><trkpt lat="44.246445028382695" lon="11.333130493264683"><ele>795.0</ele><time>2026-05-02T10:29:54.613Z</time></trkpt><trkpt lat="44.24654708141825" lon="11.333062672774215"><ele>795.0</ele><time>2026-05-02T10:29:55.613Z</time></trkpt><trkpt lat="44.246650017555844" lon="11.332986579630736"><ele>793.8333333333334</ele><time>2026-05-02T10:29:56.613Z</time></trkpt><trkpt lat="44.24673710917565" lon="11.332908591356619"><ele>792.6666666666667</ele><time>2026-05-02T10:29:57.613Z</time></trkpt><trkpt lat="44.246799537531956" lon="11.332824228050663"><ele>791.5</ele><time>2026-05-02T10:29:58.613Z</time></trkpt><trkpt lat="44.24683783948676" lon="11.332723692502277"><ele>790.3333333333334</ele><time>2026-05-02T10:29:59.613Z</time></trkpt><trkpt lat="44.24686125272162" lon="11.332612301231825"><ele>789.1666666666667</ele><time>2026-05-02T10:30:00.613Z</time></trkpt><trkpt lat="44.246871348372174" lon="11.332493821219547"><ele>788.0</ele><time>2026-05-02T10:30:01.613Z</time></trkpt><trkpt lat="44.2468706442117" lon="11.332382756045023"><ele>788.0000000000001</ele><time>2026-05-02T10:30:02.613Z</time></trkpt><trkpt lat="44.24688054940974" lon="11.332271288810905"><ele>788.0</ele><time>2026-05-02T10:30:03.613Z</time></trkpt><trkpt lat="44.24691507025013" lon="11.332161008263792"><ele>788.0</ele><time>2026-05-02T10:30:04.613Z</time></trkpt><trkpt lat="44.24696745480543" lon="11.332074926338805"><ele>788.0</ele><time>2026-05-02T10:30:05.613Z</time></trkpt><trkpt lat="44.247043156246015" lon="11.33200844211433"><ele>788.0000000000001</ele><time>2026-05-02T10:30:06.613Z</time></trkpt><trkpt lat="44.24713834504393" lon="11.331978206805877"><ele>788.0</ele><time>2026-05-02T10:30:07.613Z</time></trkpt><trkpt lat="44.247243328914166" lon="11.33199401123693"><ele>788.25</ele><time>2026-05-02T10:30:08.613Z</time></trkpt><trkpt lat="44.2473490242492" lon="11.332061404732446"><ele>788.5</ele><time>2026-05-02T10:30:09.613Z</time></trkpt><trkpt lat="44.247449278375" lon="11.33215353222496"><ele>788.75</ele><time>2026-05-02T10:30:10.613Z</time></trkpt><trkpt lat="44.24755116898038" lon="11.332250408001354"><ele>789.0</ele><time>2026-05-02T10:30:11.613Z</time></trkpt><trkpt lat="44.24764700781324" lon="11.332337450979695"><ele>790.0</ele><time>2026-05-02T10:30:12.613Z</time></trkpt><trkpt lat="44.247734707987256" lon="11.332413340124546"><ele>791.0</ele><time>2026-05-02T10:30:13.613Z</time></trkpt><trkpt lat="44.24782680335619" lon="11.332467593592005"><ele>792.0</ele><time>2026-05-02T10:30:14.613Z</time></trkpt><trkpt lat="44.24792419623512" lon="11.332483663481387"><ele>793.0</ele><time>2026-05-02T10:30:15.613Z</time></trkpt><trkpt lat="44.2480235105424" lon="11.332467592678857"><ele>794.0</ele><time>2026-05-02T10:30:16.613Z</time></trkpt><trkpt lat="44.248121336146575" lon="11.332433662132841"><ele>793.6</ele><time>2026-05-02T10:30:17.612Z</time></trkpt><trkpt lat="44.24821701412614" lon="11.332387439605505"><ele>793.2</ele><time>2026-05-02T10:30:18.612Z</time></trkpt><trkpt lat="44.24831084190932" lon="11.332341036775395"><ele>792.8000000000001</ele><time>2026-05-02T10:30:19.612Z</time></trkpt><trkpt lat="44.24840347177918" lon="11.332309333657319"><ele>792.4000000000001</ele><time>2026-05-02T10:30:20.612Z</time></trkpt><trkpt lat="44.24850217549723" lon="11.33231681436512"><ele>792.0</ele><time>2026-05-02T10:30:21.612Z</time></trkpt><trkpt lat="44.24859259411022" lon="11.332376639062042"><ele>792.0</ele><time>2026-05-02T10:30:22.612Z</time></trkpt><trkpt lat="44.2486591905581" lon="11.332475581544356"><ele>792.0</ele><time>2026-05-02T10:30:23.612Z</time></trkpt><trkpt lat="44.248705926585096" lon="11.332602557743929"><ele>792.0</ele><time>2026-05-02T10:30:24.612Z</time></trkpt><trkpt lat="44.248737581608495" lon="11.332753211228692"><ele>792.0</ele><time>2026-05-02T10:30:25.612Z</time></trkpt><trkpt lat="44.24876637365187" lon="11.332912624673659"><ele>792.0</ele><time>2026-05-02T10:30:26.612Z</time></trkpt><trkpt lat="44.24880148432358" lon="11.333077372264498"><ele>794.25</ele><time>2026-05-02T10:30:27.612Z</time></trkpt><trkpt lat="44.248843201083886" lon="11.333244433653132"><ele>796.5</ele><time>2026-05-02T10:30:28.612Z</time></trkpt><trkpt lat="44.24890548218915" lon="11.333394038878035"><ele>798.75</ele><time>2026-05-02T10:30:29.612Z</time></trkpt><trkpt lat="44.24897749298963" lon="11.333528479072864"><ele>801.0</ele><time>2026-05-02T10:30:30.612Z</time></trkpt><trkpt lat="44.249052229053156" lon="11.333658725495045"><ele>797.1999999999999</ele><time>2026-05-02T10:30:31.612Z</time></trkpt><trkpt lat="44.24913245928664" lon="11.333771905475057"><ele>793.4</ele><time>2026-05-02T10:30:32.612Z</time></trkpt><trkpt lat="44.249210536862556" lon="11.333882407287442"><ele>789.6</ele><time>2026-05-02T10:30:33.612Z</time></trkpt><trkpt lat="44.24929208401749" lon="11.333986103936311"><ele>785.8</ele><time>2026-05-02T10:30:34.612Z</time></trkpt><trkpt lat="44.24937725692834" lon="11.33407291497506"><ele>782.0</ele><time>2026-05-02T10:30:35.612Z</time></trkpt><trkpt lat="44.24946067286089" lon="11.334135649830266"><ele>782.0</ele><time>2026-05-02T10:30:36.612Z</time></trkpt><trkpt lat="44.249529673514544" lon="11.33416767614446"><ele>782.0</ele><time>2026-05-02T10:30:37.612Z</time></trkpt><trkpt lat="44.249593415870216" lon="11.3341778988865"><ele>782.0</ele><time>2026-05-02T10:30:38.612Z</time></trkpt><trkpt lat="44.249689526434004" lon="11.334154635795075"><ele>782.0</ele><time>2026-05-02T10:30:40.612Z</time></trkpt><trkpt lat="44.24981394124851" lon="11.334052898246794"><ele>782.0</ele><time>2026-05-02T10:30:42.611Z</time></trkpt><trkpt lat="44.249912818276755" lon="11.333986022361596"><ele>781.25</ele><time>2026-05-02T10:30:43.611Z</time></trkpt><trkpt lat="44.250021453066495" lon="11.333893583666073"><ele>780.5</ele><time>2026-05-02T10:30:44.611Z</time></trkpt><trkpt lat="44.25013549935852" lon="11.333778932136317"><ele>779.75</ele><time>2026-05-02T10:30:45.611Z</time></trkpt><trkpt lat="44.250254916558" lon="11.333652292609452"><ele>779.0</ele><time>2026-05-02T10:30:46.611Z</time></trkpt><trkpt lat="44.25037021071772" lon="11.333533587846611"><ele>779.0</ele><time>2026-05-02T10:30:47.611Z</time></trkpt><trkpt lat="44.25048825141591" lon="11.33340980746476"><ele>779.0</ele><time>2026-05-02T10:30:48.611Z</time></trkpt><trkpt lat="44.25061454875508" lon="11.333284610876715"><ele>779.0</ele><time>2026-05-02T10:30:49.611Z</time></trkpt><trkpt lat="44.25075345169666" lon="11.333182095260431"><ele>778.0</ele><time>2026-05-02T10:30:50.611Z</time></trkpt><trkpt lat="44.250902275503435" lon="11.33309731653566"><ele>777.0</ele><time>2026-05-02T10:30:51.611Z</time></trkpt><trkpt lat="44.251048947781925" lon="11.332995677011448"><ele>776.0</ele><time>2026-05-02T10:30:52.611Z</time></trkpt><trkpt lat="44.25117741843393" lon="11.33285460079481"><ele>776.0</ele><time>2026-05-02T10:30:53.611Z</time></trkpt><trkpt lat="44.25128700164206" lon="11.332687380901556"><ele>776.0</ele><time>2026-05-02T10:30:54.611Z</time></trkpt><trkpt lat="44.251382543690674" lon="11.332524773750237"><ele>776.0</ele><time>2026-05-02T10:30:55.611Z</time></trkpt><trkpt lat="44.251501101290344" lon="11.332423427148791"><ele>778.0</ele><time>2026-05-02T10:30:56.611Z</time></trkpt><trkpt lat="44.25165301610819" lon="11.332382907907812"><ele>780.0</ele><time>2026-05-02T10:30:57.611Z</time></trkpt><trkpt lat="44.251825270488105" lon="11.33241948825534"><ele>782.0</ele><time>2026-05-02T10:30:58.611Z</time></trkpt><trkpt lat="44.252006612133485" lon="11.33246794829562"><ele>782.0</ele><time>2026-05-02T10:30:59.611Z</time></trkpt><trkpt lat="44.252199130645536" lon="11.332533552369581"><ele>782.0</ele><time>2026-05-02T10:31:00.611Z</time></trkpt><trkpt lat="44.25240342524262" lon="11.332611039441497"><ele>782.0</ele><time>2026-05-02T10:31:01.611Z</time></trkpt><trkpt lat="44.252602467448554" lon="11.33262174542796"><ele>781.0</ele><time>2026-05-02T10:31:02.611Z</time></trkpt><trkpt lat="44.25278065940576" lon="11.332597172379192"><ele>780.0</ele><time>2026-05-02T10:31:03.611Z</time></trkpt><trkpt lat="44.25297449436485" lon="11.332560385924431"><ele>779.0</ele><time>2026-05-02T10:31:04.611Z</time></trkpt><trkpt lat="44.253174546233225" lon="11.33253042347167"><ele>774.6666666666667</ele><time>2026-05-02T10:31:05.611Z</time></trkpt><trkpt lat="44.25336764142344" lon="11.332484230605054"><ele>770.3333333333334</ele><time>2026-05-02T10:31:06.611Z</time></trkpt><trkpt lat="44.25357152918843" lon="11.332425139747459"><ele>766.0</ele><time>2026-05-02T10:31:07.611Z</time></trkpt><trkpt lat="44.2537876297354" lon="11.332364030668375"><ele>763.0</ele><time>2026-05-02T10:31:08.61Z</time></trkpt><trkpt lat="44.253989851204025" lon="11.3323044957226"><ele>760.0</ele><time>2026-05-02T10:31:09.61Z</time></trkpt><trkpt lat="44.25419574952093" lon="11.332247627861694"><ele>757.0</ele><time>2026-05-02T10:31:10.61Z</time></trkpt><trkpt lat="44.254369060196034" lon="11.332147247587775"><ele>769.0</ele><time>2026-05-02T10:31:11.61Z</time></trkpt><trkpt lat="44.25425779138487" lon="11.333355753026602"><ele>769.0</ele><time>2026-05-02T10:31:12.61Z</time></trkpt><trkpt lat="44.2543909602079" lon="11.33339305779773"><ele>769.0</ele><time>2026-05-02T10:31:13.61Z</time></trkpt><trkpt lat="44.25452552924602" lon="11.333406449507498"><ele>769.0</ele><time>2026-05-02T10:31:14.61Z</time></trkpt><trkpt lat="44.25466455860795" lon="11.333398319924711"><ele>769.0</ele><time>2026-05-02T10:31:15.61Z</time></trkpt><trkpt lat="44.25479683308106" lon="11.333376585544876"><ele>768.6</ele><time>2026-05-02T10:31:16.61Z</time></trkpt><trkpt lat="44.25491832724603" lon="11.333353965724998"><ele>768.2</ele><time>2026-05-02T10:31:17.61Z</time></trkpt><trkpt lat="44.25502676824329" lon="11.333317602449624"><ele>767.8000000000001</ele><time>2026-05-02T10:31:18.61Z</time></trkpt><trkpt lat="44.255120734479355" lon="11.333273444477816"><ele>767.4000000000001</ele><time>2026-05-02T10:31:19.61Z</time></trkpt><trkpt lat="44.25520313013797" lon="11.333194922053586"><ele>767.0</ele><time>2026-05-02T10:31:20.61Z</time></trkpt><trkpt lat="44.25526903624971" lon="11.333077166893279"><ele>767.6</ele><time>2026-05-02T10:31:21.61Z</time></trkpt><trkpt lat="44.25530484665964" lon="11.332935671690022"><ele>768.2</ele><time>2026-05-02T10:31:22.61Z</time></trkpt><trkpt lat="44.25532338138486" lon="11.332780841630514"><ele>768.8</ele><time>2026-05-02T10:31:23.61Z</time></trkpt><trkpt lat="44.25532800539052" lon="11.33262985494675"><ele>769.4</ele><time>2026-05-02T10:31:24.61Z</time></trkpt><trkpt lat="44.25532644045363" lon="11.332471865753364"><ele>770.0</ele><time>2026-05-02T10:31:25.61Z</time></trkpt><trkpt lat="44.25533832552999" lon="11.332330092768377"><ele>769.2</ele><time>2026-05-02T10:31:26.61Z</time></trkpt><trkpt lat="44.255365178225254" lon="11.332194842079975"><ele>768.4</ele><time>2026-05-02T10:31:27.61Z</time></trkpt><trkpt lat="44.255418881539995" lon="11.332078440764194"><ele>767.5999999999999</ele><time>2026-05-02T10:31:28.61Z</time></trkpt><trkpt lat="44.2554983909261" lon="11.331967924945095"><ele>766.8</ele><time>2026-05-02T10:31:29.61Z</time></trkpt><trkpt lat="44.255592824506586" lon="11.33186891470053"><ele>766.0</ele><time>2026-05-02T10:31:30.611Z</time></trkpt><trkpt lat="44.25569788468757" lon="11.3317800415414"><ele>769.0</ele><time>2026-05-02T10:31:31.612Z</time></trkpt><trkpt lat="44.255809922596285" lon="11.331698307016708"><ele>772.0</ele><time>2026-05-02T10:31:32.612Z</time></trkpt><trkpt lat="44.25592154162964" lon="11.33162895854774"><ele>775.0</ele><time>2026-05-02T10:31:33.612Z</time></trkpt><trkpt lat="44.25603761672631" lon="11.331574453324537"><ele>778.0</ele><time>2026-05-02T10:31:34.611Z</time></trkpt><trkpt lat="44.25616586980107" lon="11.331532929108228"><ele>778.0</ele><time>2026-05-02T10:31:35.611Z</time></trkpt><trkpt lat="44.25628713453061" lon="11.331490215786284"><ele>778.0</ele><time>2026-05-02T10:31:36.612Z</time></trkpt><trkpt lat="44.256406308578526" lon="11.331430435010104"><ele>778.0</ele><time>2026-05-02T10:31:37.612Z</time></trkpt><trkpt lat="44.25654931027946" lon="11.331385281582081"><ele>778.0</ele><time>2026-05-02T10:31:38.612Z</time></trkpt><trkpt lat="44.25668712074496" lon="11.33134199665074"><ele>773.25</ele><time>2026-05-02T10:31:39.611Z</time></trkpt><trkpt lat="44.25682927092688" lon="11.331308549487385"><ele>768.5</ele><time>2026-05-02T10:31:40.611Z</time></trkpt><trkpt lat="44.25696594831097" lon="11.33127657774703"><ele>763.75</ele><time>2026-05-02T10:31:41.611Z</time></trkpt><trkpt lat="44.25709911911709" lon="11.331256184343632"><ele>759.0</ele><time>2026-05-02T10:31:42.612Z</time></trkpt><trkpt lat="44.257237757712694" lon="11.331259208903063"><ele>758.25</ele><time>2026-05-02T10:31:43.611Z</time></trkpt><trkpt lat="44.25737223380987" lon="11.331283556966069"><ele>757.5</ele><time>2026-05-02T10:31:44.611Z</time></trkpt><trkpt lat="44.25750681012859" lon="11.331307244139198"><ele>756.75</ele><time>2026-05-02T10:31:45.611Z</time></trkpt><trkpt lat="44.25764189986828" lon="11.33132434223036"><ele>756.0</ele><time>2026-05-02T10:31:46.611Z</time></trkpt><trkpt lat="44.25778104999144" lon="11.331343346704449"><ele>756.0</ele><time>2026-05-02T10:31:47.611Z</time></trkpt><trkpt lat="44.257923248380884" lon="11.331335044825494"><ele>756.0</ele><time>2026-05-02T10:31:48.611Z</time></trkpt><trkpt lat="44.25806091902238" lon="11.331293379550795"><ele>756.0</ele><time>2026-05-02T10:31:49.611Z</time></trkpt><trkpt lat="44.2582337679919" lon="11.33120797786766"><ele>756.0</ele><time>2026-05-02T10:31:50.611Z</time></trkpt><trkpt lat="44.25846237993851" lon="11.331051757509917"><ele>756.0</ele><time>2026-05-02T10:31:51.611Z</time></trkpt><trkpt lat="44.25874252136248" lon="11.330881772225812"><ele>756.5</ele><time>2026-05-02T10:31:52.611Z</time></trkpt><trkpt lat="44.2590167099056" lon="11.33074939566722"><ele>757.0</ele><time>2026-05-02T10:31:53.611Z</time></trkpt><trkpt lat="44.25924707118559" lon="11.33062433491091"><ele>753.0</ele><time>2026-05-02T10:31:54.611Z</time></trkpt><trkpt lat="44.25943955938217" lon="11.330495074307994"><ele>749.0</ele><time>2026-05-02T10:31:55.611Z</time></trkpt><trkpt lat="44.25961228842814" lon="11.33031961920843"><ele>745.0</ele><time>2026-05-02T10:31:56.611Z</time></trkpt><trkpt lat="44.259764006456685" lon="11.330071992400844"><ele>743.6666666666667</ele><time>2026-05-02T10:31:57.611Z</time></trkpt><trkpt lat="44.25988566223096" lon="11.329785555208698"><ele>742.3333333333334</ele><time>2026-05-02T10:31:58.61Z</time></trkpt><trkpt lat="44.26000555862191" lon="11.329554224084314"><ele>741.0</ele><time>2026-05-02T10:31:59.61Z</time></trkpt><trkpt lat="44.26014927142499" lon="11.329371303957485"><ele>741.0</ele><time>2026-05-02T10:32:00.61Z</time></trkpt><trkpt lat="44.260304875018846" lon="11.32921975196955"><ele>741.0</ele><time>2026-05-02T10:32:01.61Z</time></trkpt><trkpt lat="44.26045534917369" lon="11.329060211394559"><ele>741.0</ele><time>2026-05-02T10:32:02.61Z</time></trkpt><trkpt lat="44.260585945696356" lon="11.328890557545858"><ele>741.6666666666666</ele><time>2026-05-02T10:32:03.61Z</time></trkpt><trkpt lat="44.26067195736347" lon="11.32869248587906"><ele>742.3333333333333</ele><time>2026-05-02T10:32:04.61Z</time></trkpt><trkpt lat="44.26071722109799" lon="11.328456590726999"><ele>743.0</ele><time>2026-05-02T10:32:05.61Z</time></trkpt><trkpt lat="44.26074257388072" lon="11.328204079090934"><ele>742.6666666666666</ele><time>2026-05-02T10:32:06.61Z</time></trkpt><trkpt lat="44.260773010626714" lon="11.327971563122393"><ele>742.3333333333334</ele><time>2026-05-02T10:32:07.61Z</time></trkpt><trkpt lat="44.26081314163367" lon="11.327744633608843"><ele>742.0</ele><time>2026-05-02T10:32:08.61Z</time></trkpt><trkpt lat="44.26086550558833" lon="11.327536007726968"><ele>742.0</ele><time>2026-05-02T10:32:09.61Z</time></trkpt><trkpt lat="44.260911435627925" lon="11.327341502602048"><ele>742.0</ele><time>2026-05-02T10:32:10.61Z</time></trkpt><trkpt lat="44.26094803004184" lon="11.327159154779098"><ele>742.0</ele><time>2026-05-02T10:32:11.61Z</time></trkpt><trkpt lat="44.26098888165682" lon="11.326991779422961"><ele>742.0</ele><time>2026-05-02T10:32:12.61Z</time></trkpt><trkpt lat="44.26103454638238" lon="11.326828516425882"><ele>741.8</ele><time>2026-05-02T10:32:13.61Z</time></trkpt><trkpt lat="44.26108316758221" lon="11.326669303660672"><ele>741.6</ele><time>2026-05-02T10:32:14.61Z</time></trkpt><trkpt lat="44.261127845046296" lon="11.326529761149173"><ele>741.4</ele><time>2026-05-02T10:32:15.61Z</time></trkpt><trkpt lat="44.261179750370005" lon="11.326402229381337"><ele>741.1999999999999</ele><time>2026-05-02T10:32:16.61Z</time></trkpt><trkpt lat="44.26122870650361" lon="11.326274044338174"><ele>741.0</ele><time>2026-05-02T10:32:17.61Z</time></trkpt><trkpt lat="44.26126694320456" lon="11.326147761083142"><ele>740.1666666666666</ele><time>2026-05-02T10:32:18.61Z</time></trkpt><trkpt lat="44.2613077414931" lon="11.326035363861328"><ele>739.3333333333334</ele><time>2026-05-02T10:32:19.61Z</time></trkpt><trkpt lat="44.26133050279987" lon="11.325947175212274"><ele>738.5</ele><time>2026-05-02T10:32:20.61Z</time></trkpt><trkpt lat="44.261256019431016" lon="11.325831822278184"><ele>737.6666666666667</ele><time>2026-05-02T10:32:22.61Z</time></trkpt><trkpt lat="44.26119374381337" lon="11.325768220281942"><ele>736.8333333333334</ele><time>2026-05-02T10:32:24.609Z</time></trkpt><trkpt lat="44.26111659266341" lon="11.325720263269911"><ele>736.0</ele><time>2026-05-02T10:32:32.609Z</time></trkpt><trkpt lat="44.26106957159078" lon="11.325613554627916"><ele>735.8333333333334</ele><time>2026-05-02T10:32:34.609Z</time></trkpt><trkpt lat="44.26104815146557" lon="11.325517612358494"><ele>735.6666666666667</ele><time>2026-05-02T10:32:35.609Z</time></trkpt><trkpt lat="44.26102830701099" lon="11.325404818534626"><ele>735.5</ele><time>2026-05-02T10:32:36.609Z</time></trkpt><trkpt lat="44.261006070150074" lon="11.32527658894461"><ele>735.3333333333334</ele><time>2026-05-02T10:32:37.609Z</time></trkpt><trkpt lat="44.260986826001755" lon="11.325142162931094"><ele>735.1666666666666</ele><time>2026-05-02T10:32:38.609Z</time></trkpt><trkpt lat="44.260974433841966" lon="11.325005878304125"><ele>735.0</ele><time>2026-05-02T10:32:39.609Z</time></trkpt><trkpt lat="44.26095345550736" lon="11.324858220143048"><ele>734.25</ele><time>2026-05-02T10:32:40.609Z</time></trkpt><trkpt lat="44.26091486277881" lon="11.324701448555599"><ele>733.5</ele><time>2026-05-02T10:32:41.609Z</time></trkpt><trkpt lat="44.260856929554535" lon="11.324534477670612"><ele>732.75</ele><time>2026-05-02T10:32:42.609Z</time></trkpt><trkpt lat="44.26078526752275" lon="11.324370110456519"><ele>732.0</ele><time>2026-05-02T10:32:43.609Z</time></trkpt><trkpt lat="44.260705238681034" lon="11.324217305843481"><ele>729.0</ele><time>2026-05-02T10:32:44.609Z</time></trkpt><trkpt lat="44.26060605867543" lon="11.324093839006665"><ele>726.0</ele><time>2026-05-02T10:32:45.609Z</time></trkpt><trkpt lat="44.26050394538167" lon="11.323983949099635"><ele>723.0</ele><time>2026-05-02T10:32:46.609Z</time></trkpt><trkpt lat="44.26039945473123" lon="11.323878492194883"><ele>720.0</ele><time>2026-05-02T10:32:47.609Z</time></trkpt><trkpt lat="44.26029934262726" lon="11.323766998252143"><ele>720.0</ele><time>2026-05-02T10:32:48.608Z</time></trkpt><trkpt lat="44.26021118478037" lon="11.323642034453778"><ele>720.0</ele><time>2026-05-02T10:32:49.608Z</time></trkpt><trkpt lat="44.26016850447092" lon="11.323479283395539"><ele>720.0</ele><time>2026-05-02T10:32:50.608Z</time></trkpt><trkpt lat="44.26018012133211" lon="11.323308440890884"><ele>720.0</ele><time>2026-05-02T10:32:51.608Z</time></trkpt><trkpt lat="44.26024733696221" lon="11.32314867332443"><ele>719.6666666666666</ele><time>2026-05-02T10:32:52.608Z</time></trkpt><trkpt lat="44.260356836222684" lon="11.32302487512842"><ele>719.3333333333333</ele><time>2026-05-02T10:32:53.608Z</time></trkpt><trkpt lat="44.260516728765964" lon="11.323004332846445"><ele>719.0</ele><time>2026-05-02T10:32:54.608Z</time></trkpt><trkpt lat="44.26067471573703" lon="11.323025558287"><ele>720.3333333333333</ele><time>2026-05-02T10:32:55.608Z</time></trkpt><trkpt lat="44.26083302468021" lon="11.323060791019618"><ele>721.6666666666666</ele><time>2026-05-02T10:32:56.608Z</time></trkpt><trkpt lat="44.26099429891548" lon="11.32306507728519"><ele>723.0</ele><time>2026-05-02T10:32:57.608Z</time></trkpt><trkpt lat="44.261153594759875" lon="11.323065152842766"><ele>720.0</ele><time>2026-05-02T10:32:58.608Z</time></trkpt><trkpt lat="44.26131111025544" lon="11.3230552027997"><ele>717.0</ele><time>2026-05-02T10:32:59.608Z</time></trkpt><trkpt lat="44.2614746333466" lon="11.32305456497609"><ele>714.0</ele><time>2026-05-02T10:33:00.608Z</time></trkpt><trkpt lat="44.26163665982509" lon="11.323054695631715"><ele>713.25</ele><time>2026-05-02T10:33:01.608Z</time></trkpt><trkpt lat="44.261795398579665" lon="11.32304863586589"><ele>712.5</ele><time>2026-05-02T10:33:02.608Z</time></trkpt><trkpt lat="44.26194345221018" lon="11.3230514575828"><ele>711.75</ele><time>2026-05-02T10:33:03.608Z</time></trkpt><trkpt lat="44.262085932457666" lon="11.323054756534932"><ele>711.0</ele><time>2026-05-02T10:33:04.608Z</time></trkpt><trkpt lat="44.26222214804244" lon="11.323063578236294"><ele>711.75</ele><time>2026-05-02T10:33:05.608Z</time></trkpt><trkpt lat="44.262354268942595" lon="11.323077793392349"><ele>712.5</ele><time>2026-05-02T10:33:06.608Z</time></trkpt><trkpt lat="44.26248738453141" lon="11.323100222306936"><ele>713.25</ele><time>2026-05-02T10:33:07.608Z</time></trkpt><trkpt lat="44.262613070883475" lon="11.323137773338143"><ele>714.0</ele><time>2026-05-02T10:33:08.608Z</time></trkpt><trkpt lat="44.26274565757137" lon="11.323198991603345"><ele>714.0</ele><time>2026-05-02T10:33:09.608Z</time></trkpt><trkpt lat="44.26287155798455" lon="11.323276091813094"><ele>714.0</ele><time>2026-05-02T10:33:10.608Z</time></trkpt><trkpt lat="44.262997841803525" lon="11.323360466750835"><ele>714.0</ele><time>2026-05-02T10:33:11.608Z</time></trkpt><trkpt lat="44.26312884583947" lon="11.32345231064491"><ele>714.0</ele><time>2026-05-02T10:33:12.608Z</time></trkpt><trkpt lat="44.26326515017485" lon="11.32353853057251"><ele>712.0</ele><time>2026-05-02T10:33:13.608Z</time></trkpt><trkpt lat="44.2634049470514" lon="11.32361816037295"><ele>710.0</ele><time>2026-05-02T10:33:14.607Z</time></trkpt><trkpt lat="44.26354572411563" lon="11.32366434504046"><ele>708.0</ele><time>2026-05-02T10:33:15.607Z</time></trkpt><trkpt lat="44.26369278605289" lon="11.323703192645215"><ele>706.0</ele><time>2026-05-02T10:33:16.607Z</time></trkpt><trkpt lat="44.26383692635854" lon="11.323727800530321"><ele>704.3333333333334</ele><time>2026-05-02T10:33:17.607Z</time></trkpt><trkpt lat="44.26398663107053" lon="11.323743096442566"><ele>702.6666666666666</ele><time>2026-05-02T10:33:18.607Z</time></trkpt><trkpt lat="44.2641424839574" lon="11.323741264620109"><ele>701.0</ele><time>2026-05-02T10:33:19.607Z</time></trkpt><trkpt lat="44.264296150215344" lon="11.323729005588559"><ele>701.0</ele><time>2026-05-02T10:33:20.607Z</time></trkpt><trkpt lat="44.26445330125231" lon="11.323715305007092"><ele>701.0</ele><time>2026-05-02T10:33:21.607Z</time></trkpt><trkpt lat="44.26461237012607" lon="11.323707756683785"><ele>701.0</ele><time>2026-05-02T10:33:22.607Z</time></trkpt><trkpt lat="44.26477152455794" lon="11.323701547244692"><ele>701.0</ele><time>2026-05-02T10:33:23.607Z</time></trkpt><trkpt lat="44.26492991810053" lon="11.323699695581098"><ele>701.0</ele><time>2026-05-02T10:33:24.607Z</time></trkpt><trkpt lat="44.265087880488764" lon="11.323700277885065"><ele>701.0</ele><time>2026-05-02T10:33:25.607Z</time></trkpt><trkpt lat="44.26524082784369" lon="11.323704463583976"><ele>701.0</ele><time>2026-05-02T10:33:26.607Z</time></trkpt><trkpt lat="44.265398154174434" lon="11.323696515096826"><ele>701.0</ele><time>2026-05-02T10:33:27.607Z</time></trkpt><trkpt lat="44.26555469989094" lon="11.323677832684663"><ele>701.0</ele><time>2026-05-02T10:33:28.607Z</time></trkpt><trkpt lat="44.2657099260049" lon="11.3236571827939"><ele>699.6666666666666</ele><time>2026-05-02T10:33:29.607Z</time></trkpt><trkpt lat="44.265863580145655" lon="11.323643264638955"><ele>698.3333333333334</ele><time>2026-05-02T10:33:30.607Z</time></trkpt><trkpt lat="44.266017348040855" lon="11.323647873272485"><ele>697.0</ele><time>2026-05-02T10:33:31.607Z</time></trkpt><trkpt lat="44.266169892005124" lon="11.323658701753613"><ele>697.0</ele><time>2026-05-02T10:33:32.607Z</time></trkpt><trkpt lat="44.266322628230334" lon="11.32366827429596"><ele>697.0</ele><time>2026-05-02T10:33:33.607Z</time></trkpt><trkpt lat="44.266476307546306" lon="11.323672416861289"><ele>697.0</ele><time>2026-05-02T10:33:34.607Z</time></trkpt><trkpt lat="44.26663077532939" lon="11.323674131103063"><ele>697.0</ele><time>2026-05-02T10:33:35.609Z</time></trkpt><trkpt lat="44.266780171995684" lon="11.323648703892328"><ele>697.0</ele><time>2026-05-02T10:33:36.609Z</time></trkpt><trkpt lat="44.26692995475641" lon="11.323609039143806"><ele>697.0</ele><time>2026-05-02T10:33:37.609Z</time></trkpt><trkpt lat="44.267072090555935" lon="11.323556142060415"><ele>697.0</ele><time>2026-05-02T10:33:38.608Z</time></trkpt><trkpt lat="44.26721010015405" lon="11.323506618873973"><ele>697.0</ele><time>2026-05-02T10:33:39.608Z</time></trkpt><trkpt lat="44.267346535833745" lon="11.323426758070896"><ele>697.0</ele><time>2026-05-02T10:33:40.608Z</time></trkpt><trkpt lat="44.267479009015254" lon="11.323323102493918"><ele>697.0</ele><time>2026-05-02T10:33:41.608Z</time></trkpt><trkpt lat="44.26759772120491" lon="11.323211451974512"><ele>697.25</ele><time>2026-05-02T10:33:42.609Z</time></trkpt><trkpt lat="44.267710769768556" lon="11.32309343466938"><ele>697.5</ele><time>2026-05-02T10:33:43.608Z</time></trkpt><trkpt lat="44.267809033429806" lon="11.32295159962945"><ele>697.75</ele><time>2026-05-02T10:33:44.608Z</time></trkpt><trkpt lat="44.26789891725661" lon="11.322814286761478"><ele>698.0</ele><time>2026-05-02T10:33:45.608Z</time></trkpt><trkpt lat="44.26798413900936" lon="11.32267589332007"><ele>698.0</ele><time>2026-05-02T10:33:46.608Z</time></trkpt><trkpt lat="44.26807009218769" lon="11.32255924159477"><ele>698.0</ele><time>2026-05-02T10:33:47.608Z</time></trkpt><trkpt lat="44.268159091061925" lon="11.32245775432448"><ele>698.0</ele><time>2026-05-02T10:33:48.608Z</time></trkpt><trkpt lat="44.268246336489874" lon="11.322381852959273"><ele>698.0</ele><time>2026-05-02T10:33:49.608Z</time></trkpt><trkpt lat="44.26833854557277" lon="11.32231821071512"><ele>698.0</ele><time>2026-05-02T10:33:50.608Z</time></trkpt><trkpt lat="44.26842396557195" lon="11.322252004638898"><ele>697.8333333333333</ele><time>2026-05-02T10:33:51.608Z</time></trkpt><trkpt lat="44.26851313690427" lon="11.32220788731345"><ele>697.6666666666666</ele><time>2026-05-02T10:33:52.608Z</time></trkpt><trkpt lat="44.268595807386916" lon="11.32215459711963"><ele>697.5</ele><time>2026-05-02T10:33:53.608Z</time></trkpt><trkpt lat="44.268682159901964" lon="11.322093672220767"><ele>697.3333333333334</ele><time>2026-05-02T10:33:54.608Z</time></trkpt><trkpt lat="44.26876789366748" lon="11.322037228681616"><ele>697.1666666666667</ele><time>2026-05-02T10:33:55.608Z</time></trkpt><trkpt lat="44.26883287465002" lon="11.322001814553461"><ele>697.0</ele><time>2026-05-02T10:33:56.608Z</time></trkpt><trkpt lat="44.26890270308834" lon="11.321975894217985"><ele>698.4000000000001</ele><time>2026-05-02T10:33:57.608Z</time></trkpt><trkpt lat="44.26898053661102" lon="11.321948606624634"><ele>699.8000000000001</ele><time>2026-05-02T10:33:58.608Z</time></trkpt><trkpt lat="44.26906784084602" lon="11.321905641706909"><ele>701.2</ele><time>2026-05-02T10:33:59.608Z</time></trkpt><trkpt lat="44.26915983484731" lon="11.32185325137733"><ele>702.6</ele><time>2026-05-02T10:34:00.608Z</time></trkpt><trkpt lat="44.269250784241024" lon="11.32179998510314"><ele>704.0</ele><time>2026-05-02T10:34:01.608Z</time></trkpt><trkpt lat="44.269350399916625" lon="11.321746515269105"><ele>704.0</ele><time>2026-05-02T10:34:02.608Z</time></trkpt><trkpt lat="44.269453840826785" lon="11.321677114135332"><ele>704.0</ele><time>2026-05-02T10:34:03.608Z</time></trkpt><trkpt lat="44.269556784547156" lon="11.321613815713286"><ele>704.0</ele><time>2026-05-02T10:34:04.608Z</time></trkpt><trkpt lat="44.26966650595068" lon="11.321567748291253"><ele>704.0</ele><time>2026-05-02T10:34:05.608Z</time></trkpt><trkpt lat="44.26977101017245" lon="11.321500278865804"><ele>703.0</ele><time>2026-05-02T10:34:06.608Z</time></trkpt><trkpt lat="44.26987716797397" lon="11.321435890107498"><ele>702.0</ele><time>2026-05-02T10:34:07.608Z</time></trkpt><trkpt lat="44.26999016856299" lon="11.32138377662636"><ele>701.0</ele><time>2026-05-02T10:34:08.608Z</time></trkpt><trkpt lat="44.27010213025123" lon="11.321321680877032"><ele>700.0</ele><time>2026-05-02T10:34:09.607Z</time></trkpt><trkpt lat="44.270220678886474" lon="11.32126186308634"><ele>700.0</ele><time>2026-05-02T10:34:10.607Z</time></trkpt><trkpt lat="44.270329548480476" lon="11.321205774486176"><ele>700.0</ele><time>2026-05-02T10:34:11.607Z</time></trkpt><trkpt lat="44.27043022068059" lon="11.321153991587945"><ele>700.0</ele><time>2026-05-02T10:34:12.607Z</time></trkpt><trkpt lat="44.270526558473634" lon="11.321109220663436"><ele>700.0</ele><time>2026-05-02T10:34:13.607Z</time></trkpt><trkpt lat="44.27061639610814" lon="11.321080303020524"><ele>700.0</ele><time>2026-05-02T10:34:14.607Z</time></trkpt><trkpt lat="44.27071269158984" lon="11.321078964347528"><ele>704.0</ele><time>2026-05-02T10:34:16.607Z</time></trkpt><trkpt lat="44.270783909272616" lon="11.321036272631952"><ele>708.0</ele><time>2026-05-02T10:34:29.607Z</time></trkpt><trkpt lat="44.27086018440819" lon="11.320912128116595"><ele>712.0</ele><time>2026-05-02T10:34:31.607Z</time></trkpt><trkpt lat="44.27090583432812" lon="11.320828995919417"><ele>716.0</ele><time>2026-05-02T10:34:32.607Z</time></trkpt><trkpt lat="44.27095171056555" lon="11.320726942418665"><ele>720.0</ele><time>2026-05-02T10:34:33.607Z</time></trkpt><trkpt lat="44.27101463635061" lon="11.320622662381224"><ele>719.0</ele><time>2026-05-02T10:34:34.607Z</time></trkpt><trkpt lat="44.27106960476433" lon="11.320526396889704"><ele>718.0</ele><time>2026-05-02T10:34:35.606Z</time></trkpt><trkpt lat="44.27112498456537" lon="11.320419052226018"><ele>717.0</ele><time>2026-05-02T10:34:36.606Z</time></trkpt><trkpt lat="44.271168867955815" lon="11.320303845935237"><ele>716.0</ele><time>2026-05-02T10:34:37.606Z</time></trkpt><trkpt lat="44.27118660948759" lon="11.320176782796057"><ele>715.0</ele><time>2026-05-02T10:34:38.606Z</time></trkpt><trkpt lat="44.27115942894742" lon="11.320045558758885"><ele>715.0</ele><time>2026-05-02T10:34:39.606Z</time></trkpt><trkpt lat="44.27110531925421" lon="11.319915071682267"><ele>715.0</ele><time>2026-05-02T10:34:40.606Z</time></trkpt><trkpt lat="44.27105009389338" lon="11.319781486214428"><ele>715.0</ele><time>2026-05-02T10:34:41.606Z</time></trkpt><trkpt lat="44.27103205457462" lon="11.319624638610236"><ele>715.0</ele><time>2026-05-02T10:34:42.606Z</time></trkpt><trkpt lat="44.271078522053514" lon="11.319486619533105"><ele>715.0</ele><time>2026-05-02T10:34:43.606Z</time></trkpt><trkpt lat="44.27117371819685" lon="11.319399823607279"><ele>715.0</ele><time>2026-05-02T10:34:44.606Z</time></trkpt><trkpt lat="44.271293560946255" lon="11.319362271784195"><ele>715.0</ele><time>2026-05-02T10:34:45.606Z</time></trkpt><trkpt lat="44.27142410269911" lon="11.319331518963814"><ele>715.0</ele><time>2026-05-02T10:34:46.606Z</time></trkpt><trkpt lat="44.2715495253923" lon="11.319275654246338"><ele>715.0</ele><time>2026-05-02T10:34:47.606Z</time></trkpt><trkpt lat="44.271661375792426" lon="11.319202402737556"><ele>714.75</ele><time>2026-05-02T10:34:48.606Z</time></trkpt><trkpt lat="44.271757599171806" lon="11.319110319004592"><ele>714.5</ele><time>2026-05-02T10:34:49.606Z</time></trkpt><trkpt lat="44.27183173047669" lon="11.318961907793852"><ele>714.25</ele><time>2026-05-02T10:34:50.606Z</time></trkpt><trkpt lat="44.27188613599967" lon="11.318776567342603"><ele>714.0</ele><time>2026-05-02T10:34:51.606Z</time></trkpt><trkpt lat="44.27191811084342" lon="11.31855640189536"><ele>714.0</ele><time>2026-05-02T10:34:52.606Z</time></trkpt><trkpt lat="44.271959447915805" lon="11.31832667584912"><ele>714.0</ele><time>2026-05-02T10:34:53.606Z</time></trkpt><trkpt lat="44.27200516346914" lon="11.318099891035581"><ele>714.0</ele><time>2026-05-02T10:34:54.606Z</time></trkpt><trkpt lat="44.272041372844114" lon="11.317889470630396"><ele>715.0</ele><time>2026-05-02T10:34:55.606Z</time></trkpt><trkpt lat="44.2720052001394" lon="11.317700054877067"><ele>716.0</ele><time>2026-05-02T10:34:56.606Z</time></trkpt><trkpt lat="44.27191536413281" lon="11.317536224028187"><ele>717.0</ele><time>2026-05-02T10:34:57.606Z</time></trkpt><trkpt lat="44.27179940253745" lon="11.317363881069259"><ele>716.0</ele><time>2026-05-02T10:34:58.606Z</time></trkpt><trkpt lat="44.27172726133181" lon="11.31717364858441"><ele>715.0</ele><time>2026-05-02T10:34:59.606Z</time></trkpt><trkpt lat="44.271663657982735" lon="11.31698098054703"><ele>714.0</ele><time>2026-05-02T10:35:00.605Z</time></trkpt><trkpt lat="44.271705545070915" lon="11.316538471750206"><ele>709.6666666666666</ele><time>2026-05-02T10:35:02.605Z</time></trkpt><trkpt lat="44.27175342288911" lon="11.316280561804403"><ele>705.3333333333333</ele><time>2026-05-02T10:35:03.605Z</time></trkpt><trkpt lat="44.271802877355384" lon="11.316020306348834"><ele>701.0</ele><time>2026-05-02T10:35:04.605Z</time></trkpt><trkpt lat="44.27185094915096" lon="11.31578387086154"><ele>701.0</ele><time>2026-05-02T10:35:05.605Z</time></trkpt><trkpt lat="44.271934739840916" lon="11.315606348837433"><ele>701.0</ele><time>2026-05-02T10:35:06.605Z</time></trkpt><trkpt lat="44.272064459820484" lon="11.315511357557467"><ele>701.0</ele><time>2026-05-02T10:35:07.605Z</time></trkpt><trkpt lat="44.272220932561176" lon="11.315542783708885"><ele>705.3333333333333</ele><time>2026-05-02T10:35:08.605Z</time></trkpt><trkpt lat="44.27237661972245" lon="11.315674087424707"><ele>709.6666666666666</ele><time>2026-05-02T10:35:09.605Z</time></trkpt><trkpt lat="44.272528501788344" lon="11.315892116876544"><ele>714.0</ele><time>2026-05-02T10:35:10.605Z</time></trkpt><trkpt lat="44.27267818216307" lon="11.316103308035276"><ele>714.0</ele><time>2026-05-02T10:35:11.605Z</time></trkpt><trkpt lat="44.272816822697465" lon="11.316269893043437"><ele>714.0</ele><time>2026-05-02T10:35:12.605Z</time></trkpt><trkpt lat="44.272975835390014" lon="11.316348495695337"><ele>714.0</ele><time>2026-05-02T10:35:13.605Z</time></trkpt><trkpt lat="44.27315115763383" lon="11.316326814962563"><ele>712.0</ele><time>2026-05-02T10:35:14.605Z</time></trkpt><trkpt lat="44.273335399293714" lon="11.316210645838444"><ele>710.0</ele><time>2026-05-02T10:35:15.605Z</time></trkpt><trkpt lat="44.27351753312785" lon="11.316036705206276"><ele>708.0</ele><time>2026-05-02T10:35:16.605Z</time></trkpt><trkpt lat="44.2736416571574" lon="11.315859026083771"><ele>708.0</ele><time>2026-05-02T10:35:17.605Z</time></trkpt><trkpt lat="44.27371681132949" lon="11.315655354298386"><ele>708.0</ele><time>2026-05-02T10:35:18.605Z</time></trkpt><trkpt lat="44.27371523595354" lon="11.31542910921018"><ele>708.0</ele><time>2026-05-02T10:35:19.605Z</time></trkpt><trkpt lat="44.27362988086687" lon="11.315210810883451"><ele>706.6666666666666</ele><time>2026-05-02T10:35:20.605Z</time></trkpt><trkpt lat="44.27349259123857" lon="11.31499975268283"><ele>705.3333333333333</ele><time>2026-05-02T10:35:21.605Z</time></trkpt><trkpt lat="44.273367707666715" lon="11.314765048747764"><ele>704.0</ele><time>2026-05-02T10:35:22.605Z</time></trkpt><trkpt lat="44.273304161873284" lon="11.314542182249879"><ele>702.3333333333333</ele><time>2026-05-02T10:35:23.605Z</time></trkpt><trkpt lat="44.27333892874262" lon="11.31431540344596"><ele>700.6666666666666</ele><time>2026-05-02T10:35:24.605Z</time></trkpt><trkpt lat="44.273431727152975" lon="11.314129075032199"><ele>699.0</ele><time>2026-05-02T10:35:25.605Z</time></trkpt><trkpt lat="44.27357958311799" lon="11.314013889529583"><ele>699.0</ele><time>2026-05-02T10:35:26.604Z</time></trkpt><trkpt lat="44.27377330525985" lon="11.313985278570033"><ele>699.0</ele><time>2026-05-02T10:35:27.604Z</time></trkpt><trkpt lat="44.2739752805389" lon="11.313948064367487"><ele>699.0</ele><time>2026-05-02T10:35:28.604Z</time></trkpt><trkpt lat="44.274156423811206" lon="11.313887781063148"><ele>696.3333333333334</ele><time>2026-05-02T10:35:29.604Z</time></trkpt><trkpt lat="44.274307985636504" lon="11.313775141892433"><ele>693.6666666666667</ele><time>2026-05-02T10:35:30.604Z</time></trkpt><trkpt lat="44.27440457625311" lon="11.31358224390993"><ele>691.0</ele><time>2026-05-02T10:35:31.604Z</time></trkpt><trkpt lat="44.27446397459999" lon="11.313353429851192"><ele>691.0</ele><time>2026-05-02T10:35:32.604Z</time></trkpt><trkpt lat="44.2745679432404" lon="11.313183758671208"><ele>691.0</ele><time>2026-05-02T10:35:33.604Z</time></trkpt><trkpt lat="44.27474196946785" lon="11.313115784165378"><ele>691.0</ele><time>2026-05-02T10:35:34.604Z</time></trkpt><trkpt lat="44.27492815913649" lon="11.313137475459284"><ele>688.6666666666667</ele><time>2026-05-02T10:35:35.604Z</time></trkpt><trkpt lat="44.27508777531231" lon="11.313105545837777"><ele>686.3333333333334</ele><time>2026-05-02T10:35:36.604Z</time></trkpt><trkpt lat="44.275212561755005" lon="11.312953853684405"><ele>684.0</ele><time>2026-05-02T10:35:37.604Z</time></trkpt><trkpt lat="44.27531950075895" lon="11.312726639273665"><ele>684.0</ele><time>2026-05-02T10:35:38.604Z</time></trkpt><trkpt lat="44.27541388366537" lon="11.31248605644434"><ele>684.0</ele><time>2026-05-02T10:35:39.604Z</time></trkpt><trkpt lat="44.275535781838464" lon="11.312340794043324"><ele>684.0</ele><time>2026-05-02T10:35:40.604Z</time></trkpt><trkpt lat="44.27567994196137" lon="11.312307904176016"><ele>687.3333333333334</ele><time>2026-05-02T10:35:41.606Z</time></trkpt><trkpt lat="44.27580129843297" lon="11.312393393967199"><ele>690.6666666666667</ele><time>2026-05-02T10:35:42.606Z</time></trkpt><trkpt lat="44.275884772237404" lon="11.312560198325327"><ele>694.0</ele><time>2026-05-02T10:35:43.606Z</time></trkpt><trkpt lat="44.27595380148602" lon="11.312790303517533"><ele>694.0</ele><time>2026-05-02T10:35:44.605Z</time></trkpt><trkpt lat="44.276028956772414" lon="11.31304167173711"><ele>694.0</ele><time>2026-05-02T10:35:45.606Z</time></trkpt><trkpt lat="44.27608048463536" lon="11.31330738421971"><ele>694.0</ele><time>2026-05-02T10:35:46.606Z</time></trkpt><trkpt lat="44.27607518720008" lon="11.31354401165802"><ele>695.0</ele><time>2026-05-02T10:35:47.605Z</time></trkpt><trkpt lat="44.276058762501876" lon="11.313763351333346"><ele>696.0</ele><time>2026-05-02T10:35:48.605Z</time></trkpt><trkpt lat="44.27608827599466" lon="11.313977342178598"><ele>697.0</ele><time>2026-05-02T10:35:49.605Z</time></trkpt><trkpt lat="44.2761208716931" lon="11.314179903647187"><ele>697.0</ele><time>2026-05-02T10:35:50.606Z</time></trkpt><trkpt lat="44.27612358126581" lon="11.314384614806865"><ele>697.0</ele><time>2026-05-02T10:35:51.605Z</time></trkpt><trkpt lat="44.276098145684436" lon="11.3145973559248"><ele>697.0</ele><time>2026-05-02T10:35:52.604Z</time></trkpt><trkpt lat="44.2760797140703" lon="11.314830507672498"><ele>696.3333333333334</ele><time>2026-05-02T10:35:53.605Z</time></trkpt><trkpt lat="44.2760809907322" lon="11.315064233721868"><ele>695.6666666666666</ele><time>2026-05-02T10:35:54.605Z</time></trkpt><trkpt lat="44.27610039772151" lon="11.315275654897347"><ele>695.0</ele><time>2026-05-02T10:35:55.605Z</time></trkpt><trkpt lat="44.276161246698344" lon="11.315467233437312"><ele>697.3333333333333</ele><time>2026-05-02T10:35:56.605Z</time></trkpt><trkpt lat="44.276270249053695" lon="11.31564929292276"><ele>699.6666666666666</ele><time>2026-05-02T10:35:57.605Z</time></trkpt><trkpt lat="44.27639823284364" lon="11.315833741455737"><ele>702.0</ele><time>2026-05-02T10:35:58.605Z</time></trkpt><trkpt lat="44.27653275967797" lon="11.316017963834119"><ele>696.75</ele><time>2026-05-02T10:35:59.605Z</time></trkpt><trkpt lat="44.27665521210912" lon="11.316176174839827"><ele>691.5</ele><time>2026-05-02T10:36:00.605Z</time></trkpt><trkpt lat="44.276750421502065" lon="11.316310551356509"><ele>686.25</ele><time>2026-05-02T10:36:01.605Z</time></trkpt><trkpt lat="44.27677005175128" lon="11.316476454243054"><ele>681.0</ele><time>2026-05-02T10:36:02.605Z</time></trkpt><trkpt lat="44.27671517548925" lon="11.316615317971479"><ele>681.0</ele><time>2026-05-02T10:36:03.604Z</time></trkpt><trkpt lat="44.27659226394612" lon="11.31674706456354"><ele>681.0</ele><time>2026-05-02T10:36:04.604Z</time></trkpt><trkpt lat="44.276436120022524" lon="11.316884244275514"><ele>681.0</ele><time>2026-05-02T10:36:05.604Z</time></trkpt><trkpt lat="44.276275562466374" lon="11.317038691393497"><ele>685.3333333333334</ele><time>2026-05-02T10:36:06.604Z</time></trkpt><trkpt lat="44.276123440794066" lon="11.317192596251711"><ele>689.6666666666667</ele><time>2026-05-02T10:36:07.604Z</time></trkpt><trkpt lat="44.276003801366606" lon="11.317372282062097"><ele>694.0</ele><time>2026-05-02T10:36:08.604Z</time></trkpt><trkpt lat="44.27593360545256" lon="11.317625469245419"><ele>694.0</ele><time>2026-05-02T10:36:09.604Z</time></trkpt><trkpt lat="44.27591138996193" lon="11.31788210216937"><ele>694.0</ele><time>2026-05-02T10:36:10.604Z</time></trkpt><trkpt lat="44.2759038725277" lon="11.318107191206783"><ele>694.0</ele><time>2026-05-02T10:36:11.604Z</time></trkpt><trkpt lat="44.275829120058646" lon="11.318279097713766"><ele>691.2</ele><time>2026-05-02T10:36:12.604Z</time></trkpt><trkpt lat="44.275751939818576" lon="11.318424530758097"><ele>688.4000000000001</ele><time>2026-05-02T10:36:13.604Z</time></trkpt><trkpt lat="44.27569518032015" lon="11.31856696861194"><ele>685.6</ele><time>2026-05-02T10:36:14.604Z</time></trkpt><trkpt lat="44.27564725289871" lon="11.318698292808614"><ele>682.8</ele><time>2026-05-02T10:36:15.604Z</time></trkpt><trkpt lat="44.27563120096742" lon="11.318823634313881"><ele>680.0</ele><time>2026-05-02T10:36:16.604Z</time></trkpt><trkpt lat="44.27563315244568" lon="11.318971051362265"><ele>679.75</ele><time>2026-05-02T10:36:17.604Z</time></trkpt><trkpt lat="44.275665698031425" lon="11.319117738453917"><ele>679.5</ele><time>2026-05-02T10:36:18.604Z</time></trkpt><trkpt lat="44.2757467470834" lon="11.319256104702987"><ele>679.25</ele><time>2026-05-02T10:36:19.604Z</time></trkpt><trkpt lat="44.27590376917325" lon="11.319422615664674"><ele>679.0</ele><time>2026-05-02T10:36:20.604Z</time></trkpt><trkpt lat="44.27606457057751" lon="11.319632338579392"><ele>675.3333333333334</ele><time>2026-05-02T10:36:21.604Z</time></trkpt><trkpt lat="44.276224974923146" lon="11.319813839447638"><ele>671.6666666666666</ele><time>2026-05-02T10:36:22.604Z</time></trkpt><trkpt lat="44.276438283136066" lon="11.31995331981067"><ele>668.0</ele><time>2026-05-02T10:36:23.604Z</time></trkpt><trkpt lat="44.27665526709791" lon="11.320070853864562"><ele>668.0</ele><time>2026-05-02T10:36:24.604Z</time></trkpt><trkpt lat="44.27683417901183" lon="11.320184955600595"><ele>668.0</ele><time>2026-05-02T10:36:25.604Z</time></trkpt><trkpt lat="44.276964142526246" lon="11.32028662079886"><ele>668.0</ele><time>2026-05-02T10:36:26.604Z</time></trkpt><trkpt lat="44.27703085775349" lon="11.320409449856504"><ele>674.6666666666666</ele><time>2026-05-02T10:36:27.604Z</time></trkpt><trkpt lat="44.277012945596546" lon="11.320614013783377"><ele>681.3333333333334</ele><time>2026-05-02T10:36:28.604Z</time></trkpt><trkpt lat="44.276945449447595" lon="11.320823598224356"><ele>688.0</ele><time>2026-05-02T10:36:29.603Z</time></trkpt><trkpt lat="44.27694843960783" lon="11.321039408517997"><ele>688.0</ele><time>2026-05-02T10:36:30.603Z</time></trkpt><trkpt lat="44.27702634612229" lon="11.321281730718017"><ele>688.0</ele><time>2026-05-02T10:36:31.603Z</time></trkpt><trkpt lat="44.27712771700021" lon="11.321526095671183"><ele>688.0</ele><time>2026-05-02T10:36:32.603Z</time></trkpt><trkpt lat="44.277266671889755" lon="11.321710605470688"><ele>679.3333333333334</ele><time>2026-05-02T10:36:33.603Z</time></trkpt><trkpt lat="44.27743810973984" lon="11.321830889051771"><ele>670.6666666666666</ele><time>2026-05-02T10:36:34.603Z</time></trkpt><trkpt lat="44.277590572303666" lon="11.321909185369902"><ele>662.0</ele><time>2026-05-02T10:36:35.603Z</time></trkpt><trkpt lat="44.27775162383617" lon="11.321880837695142"><ele>662.0</ele><time>2026-05-02T10:36:36.603Z</time></trkpt><trkpt lat="44.27792066763877" lon="11.321755661684575"><ele>662.0</ele><time>2026-05-02T10:36:37.603Z</time></trkpt><trkpt lat="44.27809120311057" lon="11.321656730693363"><ele>662.0</ele><time>2026-05-02T10:36:38.603Z</time></trkpt><trkpt lat="44.278244078757595" lon="11.321630523516067"><ele>659.3333333333333</ele><time>2026-05-02T10:36:39.603Z</time></trkpt><trkpt lat="44.27838289667156" lon="11.321731536970747"><ele>656.6666666666666</ele><time>2026-05-02T10:36:40.603Z</time></trkpt><trkpt lat="44.27851487785048" lon="11.321945521716057"><ele>654.0</ele><time>2026-05-02T10:36:41.603Z</time></trkpt><trkpt lat="44.2786462333231" lon="11.322205856607164"><ele>658.0</ele><time>2026-05-02T10:36:42.603Z</time></trkpt><trkpt lat="44.27876165855697" lon="11.322439764645003"><ele>662.0</ele><time>2026-05-02T10:36:43.603Z</time></trkpt><trkpt lat="44.27882325584391" lon="11.322658825323128"><ele>666.0</ele><time>2026-05-02T10:36:44.603Z</time></trkpt><trkpt lat="44.27879375287861" lon="11.322887630245475"><ele>665.6666666666666</ele><time>2026-05-02T10:36:45.603Z</time></trkpt><trkpt lat="44.278721898502845" lon="11.323097877290202"><ele>665.3333333333333</ele><time>2026-05-02T10:36:46.603Z</time></trkpt><trkpt lat="44.278721318855304" lon="11.323283803931988"><ele>665.0</ele><time>2026-05-02T10:36:47.603Z</time></trkpt><trkpt lat="44.2788273731006" lon="11.323441703489268"><ele>661.6666666666666</ele><time>2026-05-02T10:36:48.603Z</time></trkpt><trkpt lat="44.2789918668124" lon="11.32361440879895"><ele>658.3333333333334</ele><time>2026-05-02T10:36:49.603Z</time></trkpt><trkpt lat="44.27917675061423" lon="11.323818605635534"><ele>655.0</ele><time>2026-05-02T10:36:50.603Z</time></trkpt><trkpt lat="44.27932303959999" lon="11.324021755963033"><ele>655.0</ele><time>2026-05-02T10:36:51.603Z</time></trkpt><trkpt lat="44.27945134661406" lon="11.324204402407988"><ele>655.0</ele><time>2026-05-02T10:36:52.603Z</time></trkpt><trkpt lat="44.27958094437251" lon="11.324347084288698"><ele>655.0</ele><time>2026-05-02T10:36:53.603Z</time></trkpt><trkpt lat="44.279688261403045" lon="11.324510007053602"><ele>655.0</ele><time>2026-05-02T10:36:54.602Z</time></trkpt><trkpt lat="44.279752645528944" lon="11.324726804366382"><ele>655.0</ele><time>2026-05-02T10:36:55.602Z</time></trkpt><trkpt lat="44.27978708760379" lon="11.324941260524671"><ele>655.0</ele><time>2026-05-02T10:36:56.602Z</time></trkpt><trkpt lat="44.2798611578265" lon="11.325094805603182"><ele>650.6666666666667</ele><time>2026-05-02T10:36:57.602Z</time></trkpt><trkpt lat="44.27998548339186" lon="11.325156008005287"><ele>646.3333333333334</ele><time>2026-05-02T10:36:58.602Z</time></trkpt><trkpt lat="44.28017684380476" lon="11.325162170676794"><ele>642.0</ele><time>2026-05-02T10:36:59.602Z</time></trkpt><trkpt lat="44.28043413214907" lon="11.32519371172607"><ele>638.0</ele><time>2026-05-02T10:37:00.602Z</time></trkpt><trkpt lat="44.28069829555025" lon="11.325263512343891"><ele>634.0</ele><time>2026-05-02T10:37:01.602Z</time></trkpt><trkpt lat="44.28092107215519" lon="11.325356271264553"><ele>634.0</ele><time>2026-05-02T10:37:02.602Z</time></trkpt><trkpt lat="44.28110798047447" lon="11.325412815415282"><ele>634.0</ele><time>2026-05-02T10:37:03.602Z</time></trkpt><trkpt lat="44.28126427046839" lon="11.325428143611834"><ele>634.0</ele><time>2026-05-02T10:37:04.602Z</time></trkpt><trkpt lat="44.281401897332984" lon="11.325346591056308"><ele>635.0</ele><time>2026-05-02T10:37:05.602Z</time></trkpt><trkpt lat="44.28152604628774" lon="11.32515576075242"><ele>636.0</ele><time>2026-05-02T10:37:06.602Z</time></trkpt><trkpt lat="44.28160598926104" lon="11.324824740727468"><ele>637.0</ele><time>2026-05-02T10:37:07.602Z</time></trkpt><trkpt lat="44.28169579612909" lon="11.324510645979986"><ele>634.3333333333334</ele><time>2026-05-02T10:37:08.602Z</time></trkpt><trkpt lat="44.281772108219926" lon="11.324244791273507"><ele>631.6666666666666</ele><time>2026-05-02T10:37:09.602Z</time></trkpt><trkpt lat="44.281863316533354" lon="11.324031669129022"><ele>629.0</ele><time>2026-05-02T10:37:10.602Z</time></trkpt><trkpt lat="44.28203020785243" lon="11.32384486189968"><ele>628.5</ele><time>2026-05-02T10:37:11.602Z</time></trkpt><trkpt lat="44.282246329649205" lon="11.323693792446258"><ele>628.0</ele><time>2026-05-02T10:37:12.602Z</time></trkpt><trkpt lat="44.28243196054476" lon="11.323482673723927"><ele>628.0</ele><time>2026-05-02T10:37:13.602Z</time></trkpt><trkpt lat="44.28257538799584" lon="11.32319923563659"><ele>628.0</ele><time>2026-05-02T10:37:14.602Z</time></trkpt><trkpt lat="44.28268586939578" lon="11.322858779900141"><ele>624.6666666666667</ele><time>2026-05-02T10:37:15.602Z</time></trkpt><trkpt lat="44.282776698265316" lon="11.322553841164657"><ele>621.3333333333334</ele><time>2026-05-02T10:37:16.602Z</time></trkpt><trkpt lat="44.28282836088895" lon="11.322302769135565"><ele>618.0</ele><time>2026-05-02T10:37:17.602Z</time></trkpt><trkpt lat="44.28288267848911" lon="11.322108239757778"><ele>618.3333333333334</ele><time>2026-05-02T10:37:18.602Z</time></trkpt><trkpt lat="44.28300788030705" lon="11.321941785979574"><ele>618.6666666666667</ele><time>2026-05-02T10:37:19.602Z</time></trkpt><trkpt lat="44.28321978905397" lon="11.32180894505259"><ele>619.0</ele><time>2026-05-02T10:37:20.601Z</time></trkpt><trkpt lat="44.28346390444713" lon="11.321670052978419"><ele>619.0</ele><time>2026-05-02T10:37:21.601Z</time></trkpt><trkpt lat="44.28369009804022" lon="11.321525525633414"><ele>619.0</ele><time>2026-05-02T10:37:22.601Z</time></trkpt><trkpt lat="44.28385800956996" lon="11.321327430041464"><ele>619.3333333333334</ele><time>2026-05-02T10:37:23.601Z</time></trkpt><trkpt lat="44.28399156658194" lon="11.321126333477165"><ele>619.6666666666666</ele><time>2026-05-02T10:37:24.601Z</time></trkpt><trkpt lat="44.28409052557653" lon="11.320968978785265"><ele>620.0</ele><time>2026-05-02T10:37:25.601Z</time></trkpt><trkpt lat="44.284194939114094" lon="11.320882941642589"><ele>620.0</ele><time>2026-05-02T10:37:26.601Z</time></trkpt><trkpt lat="44.284318671970674" lon="11.320899092841472"><ele>620.0</ele><time>2026-05-02T10:37:27.601Z</time></trkpt><trkpt lat="44.28445879083826" lon="11.321024742096265"><ele>620.0</ele><time>2026-05-02T10:37:28.601Z</time></trkpt><trkpt lat="44.28456469459777" lon="11.321183693671697"><ele>620.0</ele><time>2026-05-02T10:37:29.601Z</time></trkpt><trkpt lat="44.28462334823139" lon="11.321358931681702"><ele>620.0</ele><time>2026-05-02T10:37:30.601Z</time></trkpt><trkpt lat="44.28448245001029" lon="11.321604412338258"><ele>620.0</ele><time>2026-05-02T10:37:31.601Z</time></trkpt><trkpt lat="44.2843152065397" lon="11.321820758752212"><ele>620.0</ele><time>2026-05-02T10:37:32.601Z</time></trkpt><trkpt lat="44.2841127417296" lon="11.322053615010615"><ele>620.0</ele><time>2026-05-02T10:37:33.601Z</time></trkpt><trkpt lat="44.28394501606238" lon="11.322323545007034"><ele>624.5</ele><time>2026-05-02T10:37:34.601Z</time></trkpt><trkpt lat="44.28380391405605" lon="11.322599648788396"><ele>629.0</ele><time>2026-05-02T10:37:35.601Z</time></trkpt><trkpt lat="44.28365754099355" lon="11.322831954577662"><ele>629.0</ele><time>2026-05-02T10:37:36.601Z</time></trkpt><trkpt lat="44.28349192476382" lon="11.32299377239322"><ele>629.0</ele><time>2026-05-02T10:37:37.601Z</time></trkpt><trkpt lat="44.28334416918215" lon="11.323149421629905"><ele>629.0</ele><time>2026-05-02T10:37:38.601Z</time></trkpt><trkpt lat="44.28324136101285" lon="11.323330238550747"><ele>623.6666666666666</ele><time>2026-05-02T10:37:39.601Z</time></trkpt><trkpt lat="44.28321992290054" lon="11.323622423182039"><ele>618.3333333333334</ele><time>2026-05-02T10:37:40.601Z</time></trkpt><trkpt lat="44.283228381905474" lon="11.323945592360884"><ele>613.0</ele><time>2026-05-02T10:37:41.601Z</time></trkpt><trkpt lat="44.28320223510409" lon="11.324239268915916"><ele>617.5</ele><time>2026-05-02T10:37:42.601Z</time></trkpt><trkpt lat="44.28310380252067" lon="11.324537326969157"><ele>622.0</ele><time>2026-05-02T10:37:43.601Z</time></trkpt><trkpt lat="44.28294636857097" lon="11.324839562259472"><ele>622.0</ele><time>2026-05-02T10:37:44.601Z</time></trkpt><trkpt lat="44.282795300895465" lon="11.325143484626686"><ele>622.0</ele><time>2026-05-02T10:37:45.6Z</time></trkpt><trkpt lat="44.28269915676448" lon="11.325418021158404"><ele>616.3333333333334</ele><time>2026-05-02T10:37:46.6Z</time></trkpt><trkpt lat="44.28264020200554" lon="11.32565135500779"><ele>610.6666666666666</ele><time>2026-05-02T10:37:47.602Z</time></trkpt><trkpt lat="44.28262470247136" lon="11.325892595651792"><ele>605.0</ele><time>2026-05-02T10:37:48.602Z</time></trkpt><trkpt lat="44.28267794685194" lon="11.326116468089552"><ele>605.0</ele><time>2026-05-02T10:37:49.602Z</time></trkpt><trkpt lat="44.282778775598565" lon="11.326293920869645"><ele>605.0</ele><time>2026-05-02T10:37:50.602Z</time></trkpt><trkpt lat="44.28295397016283" lon="11.326405438616714"><ele>605.0</ele><time>2026-05-02T10:37:51.602Z</time></trkpt><trkpt lat="44.28315225065566" lon="11.326475636391901"><ele>599.6666666666666</ele><time>2026-05-02T10:37:52.602Z</time></trkpt><trkpt lat="44.283357253872744" lon="11.326501912475091"><ele>594.3333333333334</ele><time>2026-05-02T10:37:53.602Z</time></trkpt><trkpt lat="44.28354545588869" lon="11.326559370663295"><ele>589.0</ele><time>2026-05-02T10:37:54.602Z</time></trkpt><trkpt lat="44.283697584436716" lon="11.326663618988372"><ele>589.0</ele><time>2026-05-02T10:37:55.602Z</time></trkpt><trkpt lat="44.28382046725238" lon="11.326786638530216"><ele>589.0</ele><time>2026-05-02T10:37:56.602Z</time></trkpt><trkpt lat="44.28392007959902" lon="11.326927140102146"><ele>589.0</ele><time>2026-05-02T10:37:57.602Z</time></trkpt><trkpt lat="44.28396589280712" lon="11.327101044917505"><ele>589.0</ele><time>2026-05-02T10:37:58.602Z</time></trkpt><trkpt lat="44.283957541828286" lon="11.327287739732355"><ele>588.0</ele><time>2026-05-02T10:37:59.601Z</time></trkpt><trkpt lat="44.2839269683659" lon="11.327464568045443"><ele>587.0</ele><time>2026-05-02T10:38:00.601Z</time></trkpt><trkpt lat="44.28392565477896" lon="11.327625033409445"><ele>586.0</ele><time>2026-05-02T10:38:01.601Z</time></trkpt><trkpt lat="44.28395056485747" lon="11.327791920352212"><ele>585.0</ele><time>2026-05-02T10:38:02.601Z</time></trkpt><trkpt lat="44.28400271799088" lon="11.327962150374342"><ele>584.5</ele><time>2026-05-02T10:38:03.601Z</time></trkpt><trkpt lat="44.28406986207822" lon="11.32813193738367"><ele>584.0</ele><time>2026-05-02T10:38:04.601Z</time></trkpt><trkpt lat="44.28413173504315" lon="11.328315250300507"><ele>583.5</ele><time>2026-05-02T10:38:05.601Z</time></trkpt><trkpt lat="44.284202831386516" lon="11.328493792989095"><ele>583.0</ele><time>2026-05-02T10:38:06.601Z</time></trkpt><trkpt lat="44.28427832487973" lon="11.328652065409257"><ele>583.0</ele><time>2026-05-02T10:38:07.601Z</time></trkpt><trkpt lat="44.28435182314614" lon="11.328799052144035"><ele>583.0</ele><time>2026-05-02T10:38:08.601Z</time></trkpt><trkpt lat="44.28443159466119" lon="11.328941477123948"><ele>583.0</ele><time>2026-05-02T10:38:09.601Z</time></trkpt><trkpt lat="44.28451952004917" lon="11.329080253820878"><ele>583.0</ele><time>2026-05-02T10:38:10.601Z</time></trkpt><trkpt lat="44.284614492375944" lon="11.32922614916599"><ele>583.25</ele><time>2026-05-02T10:38:11.601Z</time></trkpt><trkpt lat="44.284709461831326" lon="11.329381899775072"><ele>583.5</ele><time>2026-05-02T10:38:12.601Z</time></trkpt><trkpt lat="44.284802527258115" lon="11.329543477122149"><ele>583.75</ele><time>2026-05-02T10:38:13.601Z</time></trkpt><trkpt lat="44.2848682138194" lon="11.329714561139891"><ele>584.0</ele><time>2026-05-02T10:38:14.601Z</time></trkpt><trkpt lat="44.28490327927089" lon="11.329899008392076"><ele>582.5</ele><time>2026-05-02T10:38:15.601Z</time></trkpt><trkpt lat="44.284925716679545" lon="11.330078321092671"><ele>581.0</ele><time>2026-05-02T10:38:16.601Z</time></trkpt><trkpt lat="44.28492577656592" lon="11.33026059186882"><ele>579.5</ele><time>2026-05-02T10:38:17.601Z</time></trkpt><trkpt lat="44.28493443877316" lon="11.330465385065052"><ele>578.0</ele><time>2026-05-02T10:38:18.601Z</time></trkpt><trkpt lat="44.28495250200914" lon="11.330688551786979"><ele>577.6666666666666</ele><time>2026-05-02T10:38:19.601Z</time></trkpt><trkpt lat="44.28497313097064" lon="11.330938235796683"><ele>577.3333333333334</ele><time>2026-05-02T10:38:20.601Z</time></trkpt><trkpt lat="44.28499314845868" lon="11.331199243064438"><ele>577.0</ele><time>2026-05-02T10:38:21.6Z</time></trkpt><trkpt lat="44.28501419437031" lon="11.33145090658843"><ele>577.0</ele><time>2026-05-02T10:38:22.6Z</time></trkpt><trkpt lat="44.28505021189333" lon="11.33169538858957"><ele>577.0</ele><time>2026-05-02T10:38:23.6Z</time></trkpt><trkpt lat="44.28506075696357" lon="11.331906315285678"><ele>577.0</ele><time>2026-05-02T10:38:24.6Z</time></trkpt><trkpt lat="44.285046842319396" lon="11.33212992051592"><ele>577.25</ele><time>2026-05-02T10:38:25.6Z</time></trkpt><trkpt lat="44.28501082550849" lon="11.332345059363286"><ele>577.5</ele><time>2026-05-02T10:38:26.6Z</time></trkpt><trkpt lat="44.28495351418765" lon="11.33252953848191"><ele>577.75</ele><time>2026-05-02T10:38:27.6Z</time></trkpt><trkpt lat="44.284858012832544" lon="11.33268524218871"><ele>578.0</ele><time>2026-05-02T10:38:28.6Z</time></trkpt><trkpt lat="44.284717271727956" lon="11.332765131822303"><ele>577.3333333333333</ele><time>2026-05-02T10:38:29.6Z</time></trkpt><trkpt lat="44.28454813637734" lon="11.332779695806979"><ele>576.6666666666666</ele><time>2026-05-02T10:38:30.6Z</time></trkpt><trkpt lat="44.284364998415306" lon="11.33272730532188"><ele>576.0</ele><time>2026-05-02T10:38:31.6Z</time></trkpt><trkpt lat="44.2841892143107" lon="11.332688084197747"><ele>576.0</ele><time>2026-05-02T10:38:32.6Z</time></trkpt><trkpt lat="44.284018761738416" lon="11.332679082415432"><ele>576.0</ele><time>2026-05-02T10:38:33.6Z</time></trkpt><trkpt lat="44.28386165171306" lon="11.332733807438636"><ele>576.0</ele><time>2026-05-02T10:38:34.6Z</time></trkpt><trkpt lat="44.28372192080352" lon="11.332895689287247"><ele>574.3333333333334</ele><time>2026-05-02T10:38:35.6Z</time></trkpt><trkpt lat="44.283612438870165" lon="11.333104505646174"><ele>572.6666666666667</ele><time>2026-05-02T10:38:36.6Z</time></trkpt><trkpt lat="44.28353561753577" lon="11.333282115335704"><ele>571.0</ele><time>2026-05-02T10:38:37.6Z</time></trkpt><trkpt lat="44.28352576855538" lon="11.333493398426887"><ele>571.0</ele><time>2026-05-02T10:38:38.6Z</time></trkpt><trkpt lat="44.28360675553628" lon="11.333694828936432"><ele>571.0</ele><time>2026-05-02T10:38:39.6Z</time></trkpt><trkpt lat="44.28375284389028" lon="11.333831096404131"><ele>571.0</ele><time>2026-05-02T10:38:40.6Z</time></trkpt><trkpt lat="44.2839275463104" lon="11.333940565963202"><ele>575.0</ele><time>2026-05-02T10:38:41.6Z</time></trkpt><trkpt lat="44.28406536202343" lon="11.334044965120253"><ele>579.0</ele><time>2026-05-02T10:38:42.6Z</time></trkpt><trkpt lat="44.28410771843018" lon="11.334247239357449"><ele>583.0</ele><time>2026-05-02T10:38:43.6Z</time></trkpt><trkpt lat="44.284086066347456" lon="11.33446207225939"><ele>583.0</ele><time>2026-05-02T10:38:44.6Z</time></trkpt><trkpt lat="44.284002202183565" lon="11.334624016474557"><ele>583.0</ele><time>2026-05-02T10:38:45.6Z</time></trkpt><trkpt lat="44.28397562244655" lon="11.334875450966344"><ele>583.0</ele><time>2026-05-02T10:38:46.599Z</time></trkpt><trkpt lat="44.28398736109614" lon="11.335132555151437"><ele>583.0</ele><time>2026-05-02T10:38:47.599Z</time></trkpt><trkpt lat="44.284006362886466" lon="11.335398177201405"><ele>583.0</ele><time>2026-05-02T10:38:48.599Z</time></trkpt><trkpt lat="44.28402437008091" lon="11.335667658819215"><ele>583.0</ele><time>2026-05-02T10:38:49.599Z</time></trkpt><trkpt lat="44.28405661053564" lon="11.335954676809116"><ele>583.0</ele><time>2026-05-02T10:38:50.599Z</time></trkpt><trkpt lat="44.284104016500315" lon="11.336226926647955"><ele>583.0</ele><time>2026-05-02T10:38:51.599Z</time></trkpt><trkpt lat="44.284165309150694" lon="11.336473633293183"><ele>583.0</ele><time>2026-05-02T10:38:52.599Z</time></trkpt><trkpt lat="44.28425534290256" lon="11.336683166557929"><ele>580.6666666666667</ele><time>2026-05-02T10:38:53.599Z</time></trkpt><trkpt lat="44.28436900173625" lon="11.336884095613678"><ele>578.3333333333334</ele><time>2026-05-02T10:38:54.599Z</time></trkpt><trkpt lat="44.284468312762584" lon="11.337088281859238"><ele>576.0</ele><time>2026-05-02T10:38:55.599Z</time></trkpt><trkpt lat="44.28451477305774" lon="11.33730761927662"><ele>575.0</ele><time>2026-05-02T10:38:56.599Z</time></trkpt><trkpt lat="44.2844964580272" lon="11.337537086315512"><ele>574.0</ele><time>2026-05-02T10:38:57.599Z</time></trkpt><trkpt lat="44.2844058858057" lon="11.337758944831236"><ele>573.0</ele><time>2026-05-02T10:38:58.599Z</time></trkpt><trkpt lat="44.284276746990905" lon="11.337934135557822"><ele>574.3333333333334</ele><time>2026-05-02T10:38:59.599Z</time></trkpt><trkpt lat="44.284155874960646" lon="11.338068833500953"><ele>575.6666666666667</ele><time>2026-05-02T10:39:00.599Z</time></trkpt><trkpt lat="44.28408754412012" lon="11.338245079702546"><ele>577.0</ele><time>2026-05-02T10:39:01.599Z</time></trkpt><trkpt lat="44.284082350370916" lon="11.338466499512979"><ele>577.0</ele><time>2026-05-02T10:39:02.599Z</time></trkpt><trkpt lat="44.28415191124467" lon="11.338665510056181"><ele>577.0</ele><time>2026-05-02T10:39:03.599Z</time></trkpt><trkpt lat="44.284261194698445" lon="11.338818933446099"><ele>577.0</ele><time>2026-05-02T10:39:04.599Z</time></trkpt><trkpt lat="44.284410897332776" lon="11.338913026764633"><ele>573.3333333333334</ele><time>2026-05-02T10:39:05.599Z</time></trkpt><trkpt lat="44.284578568118455" lon="11.338932646565192"><ele>569.6666666666666</ele><time>2026-05-02T10:39:06.599Z</time></trkpt><trkpt lat="44.284731966152314" lon="11.338979538836378"><ele>566.0</ele><time>2026-05-02T10:39:07.599Z</time></trkpt><trkpt lat="44.28485104281565" lon="11.33910733434657"><ele>569.6666666666666</ele><time>2026-05-02T10:39:08.599Z</time></trkpt><trkpt lat="44.284942891575895" lon="11.339295760524088"><ele>573.3333333333334</ele><time>2026-05-02T10:39:09.599Z</time></trkpt><trkpt lat="44.285028355590846" lon="11.33953220626189"><ele>577.0</ele><time>2026-05-02T10:39:10.599Z</time></trkpt><trkpt lat="44.28510807371979" lon="11.339801968531129"><ele>577.0</ele><time>2026-05-02T10:39:11.599Z</time></trkpt><trkpt lat="44.28517998295578" lon="11.340024123679457"><ele>577.0</ele><time>2026-05-02T10:39:12.598Z</time></trkpt><trkpt lat="44.28525079565112" lon="11.34025137353453"><ele>577.0</ele><time>2026-05-02T10:39:13.598Z</time></trkpt><trkpt lat="44.2852499349069" lon="11.340501566305644"><ele>574.6666666666667</ele><time>2026-05-02T10:39:14.598Z</time></trkpt><trkpt lat="44.28520399974665" lon="11.340773003080368"><ele>572.3333333333334</ele><time>2026-05-02T10:39:15.598Z</time></trkpt><trkpt lat="44.28513479443075" lon="11.341056748130699"><ele>570.0</ele><time>2026-05-02T10:39:16.598Z</time></trkpt><trkpt lat="44.28511554957657" lon="11.341373169075345"><ele>568.3333333333334</ele><time>2026-05-02T10:39:17.598Z</time></trkpt><trkpt lat="44.28514502029057" lon="11.34169005188066"><ele>566.6666666666667</ele><time>2026-05-02T10:39:18.598Z</time></trkpt><trkpt lat="44.28517905817064" lon="11.341970798098107"><ele>565.0</ele><time>2026-05-02T10:39:19.598Z</time></trkpt><trkpt lat="44.28525610294166" lon="11.342189644790242"><ele>566.6666666666667</ele><time>2026-05-02T10:39:20.598Z</time></trkpt><trkpt lat="44.28538683022319" lon="11.342324615460418"><ele>568.3333333333334</ele><time>2026-05-02T10:39:21.598Z</time></trkpt><trkpt lat="44.28558019624894" lon="11.342381286120386"><ele>570.0</ele><time>2026-05-02T10:39:22.598Z</time></trkpt><trkpt lat="44.285821528312155" lon="11.342348762213414"><ele>570.0</ele><time>2026-05-02T10:39:23.598Z</time></trkpt><trkpt lat="44.28605993743323" lon="11.342290503163545"><ele>570.0</ele><time>2026-05-02T10:39:24.598Z</time></trkpt><trkpt lat="44.28628388383346" lon="11.34223759533073"><ele>575.3333333333334</ele><time>2026-05-02T10:39:25.598Z</time></trkpt><trkpt lat="44.28649078009049" lon="11.342182278498761"><ele>580.6666666666667</ele><time>2026-05-02T10:39:26.598Z</time></trkpt><trkpt lat="44.286672100007394" lon="11.342110266264067"><ele>586.0</ele><time>2026-05-02T10:39:27.598Z</time></trkpt><trkpt lat="44.286842191526034" lon="11.342051643500312"><ele>586.0</ele><time>2026-05-02T10:39:28.598Z</time></trkpt><trkpt lat="44.28699135143067" lon="11.34207185146079"><ele>586.0</ele><time>2026-05-02T10:39:29.598Z</time></trkpt><trkpt lat="44.287118689011216" lon="11.34222555421865"><ele>586.0</ele><time>2026-05-02T10:39:30.598Z</time></trkpt><trkpt lat="44.2872546143455" lon="11.342375762070006"><ele>581.0</ele><time>2026-05-02T10:39:31.598Z</time></trkpt><trkpt lat="44.28741842994046" lon="11.342469017392748"><ele>576.0</ele><time>2026-05-02T10:39:32.598Z</time></trkpt><trkpt lat="44.2876083488094" lon="11.342453148630542"><ele>571.0</ele><time>2026-05-02T10:39:33.598Z</time></trkpt><trkpt lat="44.28779522090739" lon="11.342340308752338"><ele>573.5</ele><time>2026-05-02T10:39:34.598Z</time></trkpt><trkpt lat="44.28796952458382" lon="11.34211799594208"><ele>576.0</ele><time>2026-05-02T10:39:35.598Z</time></trkpt><trkpt lat="44.288178480789185" lon="11.341835635116256"><ele>576.0</ele><time>2026-05-02T10:39:36.598Z</time></trkpt><trkpt lat="44.28839241181408" lon="11.341461708027968"><ele>576.0</ele><time>2026-05-02T10:39:37.597Z</time></trkpt><trkpt lat="44.288598111742516" lon="11.341100417466297"><ele>587.0</ele><time>2026-05-02T10:39:38.597Z</time></trkpt><trkpt lat="44.288762526947075" lon="11.340776007930746"><ele>598.0</ele><time>2026-05-02T10:39:39.597Z</time></trkpt><trkpt lat="44.28888750290304" lon="11.340528865539897"><ele>591.3333333333334</ele><time>2026-05-02T10:39:40.597Z</time></trkpt><trkpt lat="44.288995779821114" lon="11.340298615345395"><ele>584.6666666666666</ele><time>2026-05-02T10:39:41.597Z</time></trkpt><trkpt lat="44.289049197933466" lon="11.340024116749198"><ele>578.0</ele><time>2026-05-02T10:39:42.597Z</time></trkpt><trkpt lat="44.289052365731" lon="11.339695180022101"><ele>577.0</ele><time>2026-05-02T10:39:43.597Z</time></trkpt><trkpt lat="44.28904067430793" lon="11.339329281398928"><ele>576.0</ele><time>2026-05-02T10:39:44.597Z</time></trkpt><trkpt lat="44.289113375627274" lon="11.33898715502591"><ele>576.5</ele><time>2026-05-02T10:39:45.597Z</time></trkpt><trkpt lat="44.289271439368285" lon="11.338684832609049"><ele>577.0</ele><time>2026-05-02T10:39:46.597Z</time></trkpt><trkpt lat="44.28945333868459" lon="11.33841954771401"><ele>577.0</ele><time>2026-05-02T10:39:47.597Z</time></trkpt><trkpt lat="44.28962306890473" lon="11.338231777896988"><ele>577.0</ele><time>2026-05-02T10:39:48.597Z</time></trkpt><trkpt lat="44.28977680002749" lon="11.338119008071654"><ele>577.0</ele><time>2026-05-02T10:39:49.597Z</time></trkpt><trkpt lat="44.289948909101156" lon="11.338091194390099"><ele>575.0</ele><time>2026-05-02T10:39:50.597Z</time></trkpt><trkpt lat="44.290152969915205" lon="11.338187112829985"><ele>573.0</ele><time>2026-05-02T10:39:51.597Z</time></trkpt><trkpt lat="44.29040265299904" lon="11.338381846564145"><ele>575.5</ele><time>2026-05-02T10:39:52.597Z</time></trkpt><trkpt lat="44.29066021438049" lon="11.338570093238761"><ele>578.0</ele><time>2026-05-02T10:39:53.599Z</time></trkpt><trkpt lat="44.29087186728014" lon="11.338710002546204"><ele>578.0</ele><time>2026-05-02T10:39:54.599Z</time></trkpt><trkpt lat="44.29105209365215" lon="11.338772036101249"><ele>578.0</ele><time>2026-05-02T10:39:55.599Z</time></trkpt><trkpt lat="44.29124119158928" lon="11.338733962737233"><ele>578.0</ele><time>2026-05-02T10:39:56.599Z</time></trkpt><trkpt lat="44.291491053669596" lon="11.338600969880796"><ele>579.0</ele><time>2026-05-02T10:39:57.599Z</time></trkpt><trkpt lat="44.291743090791805" lon="11.338434428204996"><ele>580.0</ele><time>2026-05-02T10:39:58.599Z</time></trkpt><trkpt lat="44.29196181326435" lon="11.338278026191945"><ele>580.0</ele><time>2026-05-02T10:39:59.599Z</time></trkpt><trkpt lat="44.29215418323737" lon="11.338226992819068"><ele>580.0</ele><time>2026-05-02T10:40:00.599Z</time></trkpt><trkpt lat="44.29236307442214" lon="11.338287642435487"><ele>580.0</ele><time>2026-05-02T10:40:01.599Z</time></trkpt><trkpt lat="44.29257602910168" lon="11.338386375272812"><ele>577.5</ele><time>2026-05-02T10:40:02.599Z</time></trkpt><trkpt lat="44.29283298812063" lon="11.338387729495489"><ele>575.0</ele><time>2026-05-02T10:40:03.599Z</time></trkpt><trkpt lat="44.29306633998677" lon="11.33828151796821"><ele>575.6666666666666</ele><time>2026-05-02T10:40:04.599Z</time></trkpt><trkpt lat="44.293258315846955" lon="11.338204438247507"><ele>576.3333333333334</ele><time>2026-05-02T10:40:05.599Z</time></trkpt><trkpt lat="44.29342508881036" lon="11.338193480154613"><ele>577.0</ele><time>2026-05-02T10:40:06.599Z</time></trkpt><trkpt lat="44.293559971466536" lon="11.33828460977605"><ele>577.0</ele><time>2026-05-02T10:40:07.599Z</time></trkpt><trkpt lat="44.293663090101575" lon="11.338459617132626"><ele>577.0</ele><time>2026-05-02T10:40:08.599Z</time></trkpt><trkpt lat="44.29374626169035" lon="11.338742719718619"><ele>577.0</ele><time>2026-05-02T10:40:09.599Z</time></trkpt><trkpt lat="44.293889552961936" lon="11.338934595751047"><ele>576.3333333333334</ele><time>2026-05-02T10:40:10.599Z</time></trkpt><trkpt lat="44.29406513336224" lon="11.339082151674921"><ele>575.6666666666666</ele><time>2026-05-02T10:40:11.599Z</time></trkpt><trkpt lat="44.294224649621725" lon="11.33919475646578"><ele>575.0</ele><time>2026-05-02T10:40:12.599Z</time></trkpt><trkpt lat="44.294313962243166" lon="11.33938738396867"><ele>575.0</ele><time>2026-05-02T10:40:13.599Z</time></trkpt><trkpt lat="44.29438634175401" lon="11.339530819307083"><ele>575.0</ele><time>2026-05-02T10:40:14.599Z</time></trkpt><trkpt lat="44.29450573030997" lon="11.33955128534261"><ele>575.0</ele><time>2026-05-02T10:40:15.599Z</time></trkpt><trkpt lat="44.294642144490744" lon="11.339428907778844"><ele>575.0</ele><time>2026-05-02T10:40:16.599Z</time></trkpt><trkpt lat="44.29476885954185" lon="11.339157992370355"><ele>573.6666666666666</ele><time>2026-05-02T10:40:17.599Z</time></trkpt><trkpt lat="44.29492700354148" lon="11.339015701475551"><ele>572.3333333333334</ele><time>2026-05-02T10:40:18.599Z</time></trkpt><trkpt lat="44.295140479080686" lon="11.338903839776904"><ele>571.0</ele><time>2026-05-02T10:40:19.599Z</time></trkpt><trkpt lat="44.29539172577896" lon="11.338800739644435"><ele>574.0</ele><time>2026-05-02T10:40:20.599Z</time></trkpt><trkpt lat="44.295642235047644" lon="11.33863835325703"><ele>577.0</ele><time>2026-05-02T10:40:21.598Z</time></trkpt><trkpt lat="44.29585052825032" lon="11.338422374299192"><ele>577.0</ele><time>2026-05-02T10:40:22.598Z</time></trkpt><trkpt lat="44.29606300573651" lon="11.338160754012035"><ele>577.0</ele><time>2026-05-02T10:40:23.598Z</time></trkpt><trkpt lat="44.29627583192614" lon="11.337877801126"><ele>578.0</ele><time>2026-05-02T10:40:24.598Z</time></trkpt><trkpt lat="44.29648772245672" lon="11.3376390072706"><ele>579.0</ele><time>2026-05-02T10:40:25.598Z</time></trkpt><trkpt lat="44.29666056067973" lon="11.337461992767514"><ele>579.0</ele><time>2026-05-02T10:40:26.598Z</time></trkpt><trkpt lat="44.296805186045034" lon="11.337326331211452"><ele>579.0</ele><time>2026-05-02T10:40:27.598Z</time></trkpt><trkpt lat="44.29695526606015" lon="11.337262001946579"><ele>579.0</ele><time>2026-05-02T10:40:28.598Z</time></trkpt><trkpt lat="44.2971128528132" lon="11.337300851635138"><ele>579.0</ele><time>2026-05-02T10:40:29.598Z</time></trkpt><trkpt lat="44.29724176236098" lon="11.337479894253365"><ele>579.0</ele><time>2026-05-02T10:40:30.598Z</time></trkpt><trkpt lat="44.29727371337515" lon="11.337749893022133"><ele>579.0</ele><time>2026-05-02T10:40:31.598Z</time></trkpt><trkpt lat="44.29730751876337" lon="11.337947572595619"><ele>579.0</ele><time>2026-05-02T10:40:32.598Z</time></trkpt><trkpt lat="44.297365591450564" lon="11.338046628406447"><ele>579.0</ele><time>2026-05-02T10:40:33.598Z</time></trkpt><trkpt lat="44.297478294916345" lon="11.338052449339097"><ele>579.0</ele><time>2026-05-02T10:40:34.598Z</time></trkpt><trkpt lat="44.29761657414595" lon="11.337930604848193"><ele>579.0</ele><time>2026-05-02T10:40:35.598Z</time></trkpt><trkpt lat="44.29777071544345" lon="11.337690011474752"><ele>579.0</ele><time>2026-05-02T10:40:36.598Z</time></trkpt><trkpt lat="44.29796535759717" lon="11.33741388404827"><ele>579.0</ele><time>2026-05-02T10:40:37.598Z</time></trkpt><trkpt lat="44.29817643953648" lon="11.337161704180952"><ele>583.0</ele><time>2026-05-02T10:40:38.598Z</time></trkpt><trkpt lat="44.298359497743846" lon="11.336914562358372"><ele>587.0</ele><time>2026-05-02T10:40:39.598Z</time></trkpt><trkpt lat="44.298514310284894" lon="11.336671065349089"><ele>587.0</ele><time>2026-05-02T10:40:40.598Z</time></trkpt><trkpt lat="44.29862084768058" lon="11.336440301702188"><ele>587.0</ele><time>2026-05-02T10:40:41.598Z</time></trkpt><trkpt lat="44.29867964178877" lon="11.336287313120474"><ele>587.0</ele><time>2026-05-02T10:40:42.598Z</time></trkpt><trkpt lat="44.298791058667526" lon="11.336213199028627"><ele>587.0</ele><time>2026-05-02T10:40:43.598Z</time></trkpt><trkpt lat="44.29893515635596" lon="11.33629883196938"><ele>583.3333333333333</ele><time>2026-05-02T10:40:44.598Z</time></trkpt><trkpt lat="44.299085237848324" lon="11.336540404901072"><ele>579.6666666666666</ele><time>2026-05-02T10:40:45.598Z</time></trkpt><trkpt lat="44.29923125122249" lon="11.33672047968314"><ele>576.0</ele><time>2026-05-02T10:40:46.597Z</time></trkpt><trkpt lat="44.29943283502906" lon="11.33675999931827"><ele>576.0</ele><time>2026-05-02T10:40:47.597Z</time></trkpt><trkpt lat="44.29964068872564" lon="11.336663081699456"><ele>576.0</ele><time>2026-05-02T10:40:48.597Z</time></trkpt><trkpt lat="44.29988511519662" lon="11.336432089338166"><ele>583.0</ele><time>2026-05-02T10:40:49.597Z</time></trkpt><trkpt lat="44.300119666968186" lon="11.336183785366275"><ele>590.0</ele><time>2026-05-02T10:40:50.597Z</time></trkpt><trkpt lat="44.30037450044077" lon="11.335918146951562"><ele>581.5</ele><time>2026-05-02T10:40:51.597Z</time></trkpt><trkpt lat="44.30064110163349" lon="11.335724995030416"><ele>573.0</ele><time>2026-05-02T10:40:52.597Z</time></trkpt><trkpt lat="44.30091156890767" lon="11.335560482508923"><ele>584.5</ele><time>2026-05-02T10:40:53.597Z</time></trkpt><trkpt lat="44.30114558957244" lon="11.335412421922246"><ele>596.0</ele><time>2026-05-02T10:40:54.597Z</time></trkpt><trkpt lat="44.30134547075367" lon="11.335321040372872"><ele>590.0</ele><time>2026-05-02T10:40:55.597Z</time></trkpt><trkpt lat="44.30151331116494" lon="11.335285715765345"><ele>584.0</ele><time>2026-05-02T10:40:56.597Z</time></trkpt><trkpt lat="44.30163859197313" lon="11.335216121666273"><ele>578.0</ele><time>2026-05-02T10:40:57.597Z</time></trkpt><trkpt lat="44.30174960079094" lon="11.335022565705996"><ele>578.0</ele><time>2026-05-02T10:40:58.597Z</time></trkpt><trkpt lat="44.301831354652435" lon="11.334749635924236"><ele>578.0</ele><time>2026-05-02T10:40:59.597Z</time></trkpt><trkpt lat="44.30186717282135" lon="11.334431707492739"><ele>578.0</ele><time>2026-05-02T10:41:00.597Z</time></trkpt><trkpt lat="44.30186488340653" lon="11.334149850890167"><ele>578.0</ele><time>2026-05-02T10:41:01.597Z</time></trkpt><trkpt lat="44.30181250302141" lon="11.333932181945835"><ele>578.0</ele><time>2026-05-02T10:41:02.597Z</time></trkpt><trkpt lat="44.301676111600855" lon="11.333737128702584"><ele>578.0</ele><time>2026-05-02T10:41:03.597Z</time></trkpt><trkpt lat="44.30148527465007" lon="11.333541992226918"><ele>583.0</ele><time>2026-05-02T10:41:04.597Z</time></trkpt><trkpt lat="44.30130094243173" lon="11.333309635512094"><ele>588.0</ele><time>2026-05-02T10:41:05.597Z</time></trkpt><trkpt lat="44.3011719051068" lon="11.333083005539478"><ele>587.5</ele><time>2026-05-02T10:41:06.597Z</time></trkpt><trkpt lat="44.301084707268686" lon="11.332895566507975"><ele>587.0</ele><time>2026-05-02T10:41:07.597Z</time></trkpt><trkpt lat="44.30105139238382" lon="11.332725258845462"><ele>586.5</ele><time>2026-05-02T10:41:08.597Z</time></trkpt><trkpt lat="44.3010675840448" lon="11.332553050109514"><ele>586.0</ele><time>2026-05-02T10:41:09.597Z</time></trkpt><trkpt lat="44.30115033901865" lon="11.332334949429052"><ele>590.0</ele><time>2026-05-02T10:41:10.597Z</time></trkpt><trkpt lat="44.301186160052985" lon="11.332079478957732"><ele>594.0</ele><time>2026-05-02T10:41:11.597Z</time></trkpt><trkpt lat="44.301189300155485" lon="11.331881391908688"><ele>598.0</ele><time>2026-05-02T10:41:12.596Z</time></trkpt><trkpt lat="44.301237350779594" lon="11.331740635962989"><ele>602.0</ele><time>2026-05-02T10:41:13.596Z</time></trkpt><trkpt lat="44.30136646911684" lon="11.331679609959124"><ele>591.3333333333333</ele><time>2026-05-02T10:41:14.596Z</time></trkpt><trkpt lat="44.301550343673114" lon="11.331711467284656"><ele>580.6666666666666</ele><time>2026-05-02T10:41:15.596Z</time></trkpt><trkpt lat="44.30169477697274" lon="11.33164599107626"><ele>570.0</ele><time>2026-05-02T10:41:16.596Z</time></trkpt><trkpt lat="44.30179905962181" lon="11.331499415803256"><ele>577.5</ele><time>2026-05-02T10:41:17.596Z</time></trkpt><trkpt lat="44.301828814915126" lon="11.331204999475446"><ele>585.0</ele><time>2026-05-02T10:41:18.596Z</time></trkpt><trkpt lat="44.301838234087846" lon="11.330858586755594"><ele>596.5</ele><time>2026-05-02T10:41:19.596Z</time></trkpt><trkpt lat="44.301902266845126" lon="11.3305068196133"><ele>608.0</ele><time>2026-05-02T10:41:20.596Z</time></trkpt><trkpt lat="44.30200892356029" lon="11.33022622805601"><ele>608.0</ele><time>2026-05-02T10:41:21.596Z</time></trkpt><trkpt lat="44.30216019857687" lon="11.330013476617554"><ele>608.0</ele><time>2026-05-02T10:41:22.596Z</time></trkpt><trkpt lat="44.30234800033025" lon="11.329800979453932"><ele>593.0</ele><time>2026-05-02T10:41:23.596Z</time></trkpt><trkpt lat="44.30248994255094" lon="11.32954886180275"><ele>578.0</ele><time>2026-05-02T10:41:24.596Z</time></trkpt><trkpt lat="44.30258167457012" lon="11.329259639908758"><ele>578.0</ele><time>2026-05-02T10:41:25.596Z</time></trkpt><trkpt lat="44.30258513214067" lon="11.328976626578042"><ele>578.0</ele><time>2026-05-02T10:41:26.596Z</time></trkpt><trkpt lat="44.30254234713274" lon="11.32869777835792"><ele>578.0</ele><time>2026-05-02T10:41:27.596Z</time></trkpt><trkpt lat="44.30248920324365" lon="11.328433596273017"><ele>579.0</ele><time>2026-05-02T10:41:28.596Z</time></trkpt><trkpt lat="44.30247247691476" lon="11.328269261494274"><ele>580.0</ele><time>2026-05-02T10:41:29.596Z</time></trkpt><trkpt lat="44.30255145341389" lon="11.328133647493352"><ele>581.0</ele><time>2026-05-02T10:41:30.596Z</time></trkpt><trkpt lat="44.30269949475748" lon="11.328106839035778"><ele>582.0</ele><time>2026-05-02T10:41:31.596Z</time></trkpt><trkpt lat="44.30283005640897" lon="11.328191910681651"><ele>582.0</ele><time>2026-05-02T10:41:32.596Z</time></trkpt><trkpt lat="44.302976791250025" lon="11.328396306665223"><ele>582.0</ele><time>2026-05-02T10:41:33.596Z</time></trkpt><trkpt lat="44.30310540261631" lon="11.328677624508801"><ele>582.0</ele><time>2026-05-02T10:41:34.596Z</time></trkpt><trkpt lat="44.30323983166006" lon="11.32901427211687"><ele>575.5</ele><time>2026-05-02T10:41:35.596Z</time></trkpt><trkpt lat="44.303325697280385" lon="11.329381559228452"><ele>569.0</ele><time>2026-05-02T10:41:36.596Z</time></trkpt><trkpt lat="44.30337779182829" lon="11.32972765590452"><ele>566.3333333333333</ele><time>2026-05-02T10:41:37.595Z</time></trkpt><trkpt lat="44.303405449182854" lon="11.330051792456754"><ele>563.6666666666666</ele><time>2026-05-02T10:41:38.595Z</time></trkpt><trkpt lat="44.30340549571872" lon="11.330338575701889"><ele>561.0</ele><time>2026-05-02T10:41:39.595Z</time></trkpt><trkpt lat="44.30338313721943" lon="11.330613670214122"><ele>558.6666666666666</ele><time>2026-05-02T10:41:40.595Z</time></trkpt><trkpt lat="44.303384311772724" lon="11.330852086565107"><ele>556.3333333333333</ele><time>2026-05-02T10:41:41.595Z</time></trkpt><trkpt lat="44.303455356878786" lon="11.331075770584604"><ele>554.0</ele><time>2026-05-02T10:41:42.595Z</time></trkpt><trkpt lat="44.30360153933272" lon="11.331264494595024"><ele>554.0</ele><time>2026-05-02T10:41:43.595Z</time></trkpt><trkpt lat="44.30376236329553" lon="11.331357979829855"><ele>554.0</ele><time>2026-05-02T10:41:44.595Z</time></trkpt><trkpt lat="44.303954291341306" lon="11.33128874821371"><ele>554.0</ele><time>2026-05-02T10:41:45.595Z</time></trkpt><trkpt lat="44.304127035271506" lon="11.33118058354064"><ele>556.3333333333333</ele><time>2026-05-02T10:41:46.595Z</time></trkpt><trkpt lat="44.304268460993136" lon="11.331039506858502"><ele>558.6666666666666</ele><time>2026-05-02T10:41:47.595Z</time></trkpt><trkpt lat="44.304359112386116" lon="11.330835800539214"><ele>561.0</ele><time>2026-05-02T10:41:48.595Z</time></trkpt><trkpt lat="44.30439055334708" lon="11.330560934287364"><ele>564.0</ele><time>2026-05-02T10:41:49.595Z</time></trkpt><trkpt lat="44.30439608071563" lon="11.330218897431259"><ele>567.0</ele><time>2026-05-02T10:41:50.595Z</time></trkpt><trkpt lat="44.30441828427179" lon="11.329839872408483"><ele>571.0</ele><time>2026-05-02T10:41:51.595Z</time></trkpt><trkpt lat="44.30446196941611" lon="11.329469784093746"><ele>575.0</ele><time>2026-05-02T10:41:52.595Z</time></trkpt><trkpt lat="44.304535096626076" lon="11.329131209953815"><ele>578.3333333333333</ele><time>2026-05-02T10:41:53.595Z</time></trkpt><trkpt lat="44.30462095223398" lon="11.328865236198878"><ele>581.6666666666666</ele><time>2026-05-02T10:41:54.595Z</time></trkpt><trkpt lat="44.30468808771428" lon="11.328615399719494"><ele>585.0</ele><time>2026-05-02T10:41:55.595Z</time></trkpt><trkpt lat="44.30474956327062" lon="11.328406610125889"><ele>579.75</ele><time>2026-05-02T10:41:56.595Z</time></trkpt><trkpt lat="44.304846559671965" lon="11.32826892830821"><ele>574.5</ele><time>2026-05-02T10:41:57.595Z</time></trkpt><trkpt lat="44.30498169814268" lon="11.328198795719617"><ele>569.25</ele><time>2026-05-02T10:41:58.595Z</time></trkpt><trkpt lat="44.3051291751016" lon="11.328264082374313"><ele>564.0</ele><time>2026-05-02T10:41:59.596Z</time></trkpt><trkpt lat="44.30522570901781" lon="11.32850749066934"><ele>564.0</ele><time>2026-05-02T10:42:00.595Z</time></trkpt><trkpt lat="44.305264202491344" lon="11.328784834932424"><ele>564.0</ele><time>2026-05-02T10:42:01.595Z</time></trkpt><trkpt lat="44.30530005272384" lon="11.329118020057184"><ele>564.0</ele><time>2026-05-02T10:42:02.596Z</time></trkpt><trkpt lat="44.30536259894576" lon="11.32937964665705"><ele>562.25</ele><time>2026-05-02T10:42:03.596Z</time></trkpt><trkpt lat="44.305436429783484" lon="11.329554651823221"><ele>560.5</ele><time>2026-05-02T10:42:04.596Z</time></trkpt><trkpt lat="44.30555266062546" lon="11.329667636453488"><ele>558.75</ele><time>2026-05-02T10:42:05.595Z</time></trkpt><trkpt lat="44.30570171750388" lon="11.329666206582857"><ele>557.0</ele><time>2026-05-02T10:42:06.595Z</time></trkpt><trkpt lat="44.30583471014133" lon="11.329562225242565"><ele>557.0</ele><time>2026-05-02T10:42:07.595Z</time></trkpt><trkpt lat="44.305937656410094" lon="11.32933896374347"><ele>557.0</ele><time>2026-05-02T10:42:08.595Z</time></trkpt><trkpt lat="44.30602319760522" lon="11.329016971947953"><ele>557.0</ele><time>2026-05-02T10:42:09.595Z</time></trkpt><trkpt lat="44.30611452853233" lon="11.328713554988296"><ele>559.25</ele><time>2026-05-02T10:42:10.595Z</time></trkpt><trkpt lat="44.306206772879854" lon="11.328517359934123"><ele>561.5</ele><time>2026-05-02T10:42:11.596Z</time></trkpt><trkpt lat="44.306307688131234" lon="11.328453835538504"><ele>563.75</ele><time>2026-05-02T10:42:12.595Z</time></trkpt><trkpt lat="44.30646009297937" lon="11.32850908657418"><ele>566.0</ele><time>2026-05-02T10:42:13.595Z</time></trkpt><trkpt lat="44.306578774500885" lon="11.3287312490426"><ele>561.3333333333333</ele><time>2026-05-02T10:42:14.595Z</time></trkpt><trkpt lat="44.30663979229938" lon="11.329008667966804"><ele>556.6666666666666</ele><time>2026-05-02T10:42:15.595Z</time></trkpt><trkpt lat="44.30666629725536" lon="11.329265428356132"><ele>552.0</ele><time>2026-05-02T10:42:16.595Z</time></trkpt><trkpt lat="44.30675156906075" lon="11.329445834095127"><ele>552.0</ele><time>2026-05-02T10:42:17.595Z</time></trkpt><trkpt lat="44.306950865415146" lon="11.329577420225588"><ele>552.0</ele><time>2026-05-02T10:42:18.595Z</time></trkpt><trkpt lat="44.30723338355777" lon="11.329688372483776"><ele>549.0</ele><time>2026-05-02T10:42:19.595Z</time></trkpt><trkpt lat="44.30749164363582" lon="11.32983147654933"><ele>546.0</ele><time>2026-05-02T10:42:20.595Z</time></trkpt><trkpt lat="44.30773126484488" lon="11.329920391667033"><ele>546.0</ele><time>2026-05-02T10:42:21.595Z</time></trkpt><trkpt lat="44.30797099042046" lon="11.329939618880466"><ele>546.0</ele><time>2026-05-02T10:42:22.595Z</time></trkpt><trkpt lat="44.30822977803808" lon="11.329925698138991"><ele>545.6666666666666</ele><time>2026-05-02T10:42:23.595Z</time></trkpt><trkpt lat="44.30845272381067" lon="11.329942548832184"><ele>545.3333333333333</ele><time>2026-05-02T10:42:24.595Z</time></trkpt><trkpt lat="44.30866114389438" lon="11.330057775083322"><ele>545.0</ele><time>2026-05-02T10:42:25.595Z</time></trkpt><trkpt lat="44.308887652200404" lon="11.330271344412921"><ele>548.5</ele><time>2026-05-02T10:42:26.595Z</time></trkpt><trkpt lat="44.30915015284784" lon="11.330534063220638"><ele>552.0</ele><time>2026-05-02T10:42:27.595Z</time></trkpt><trkpt lat="44.30940582463384" lon="11.330781709457959"><ele>551.0</ele><time>2026-05-02T10:42:28.595Z</time></trkpt><trkpt lat="44.30963572838765" lon="11.330992475464447"><ele>550.0</ele><time>2026-05-02T10:42:29.595Z</time></trkpt><trkpt lat="44.30984526683106" lon="11.331220757720976"><ele>542.0</ele><time>2026-05-02T10:42:30.595Z</time></trkpt><trkpt lat="44.31002415381023" lon="11.33147162457415"><ele>534.0</ele><time>2026-05-02T10:42:31.595Z</time></trkpt><trkpt lat="44.31015129935164" lon="11.331714433694286"><ele>534.0</ele><time>2026-05-02T10:42:32.595Z</time></trkpt><trkpt lat="44.31024960953928" lon="11.33191066390781"><ele>534.0</ele><time>2026-05-02T10:42:33.595Z</time></trkpt><trkpt lat="44.31035097873941" lon="11.332002990700497"><ele>534.0</ele><time>2026-05-02T10:42:34.595Z</time></trkpt><trkpt lat="44.31049267163171" lon="11.332019132362253"><ele>534.0</ele><time>2026-05-02T10:42:35.595Z</time></trkpt><trkpt lat="44.31069156639632" lon="11.331929916758721"><ele>534.6666666666666</ele><time>2026-05-02T10:42:36.595Z</time></trkpt><trkpt lat="44.31091215146576" lon="11.33182422418822"><ele>535.3333333333333</ele><time>2026-05-02T10:42:37.595Z</time></trkpt><trkpt lat="44.31107091553159" lon="11.33168524921443"><ele>536.0</ele><time>2026-05-02T10:42:38.594Z</time></trkpt><trkpt lat="44.311196049343295" lon="11.331431134427389"><ele>541.5</ele><time>2026-05-02T10:42:39.594Z</time></trkpt><trkpt lat="44.311331606338904" lon="11.3311015818564"><ele>547.0</ele><time>2026-05-02T10:42:40.594Z</time></trkpt><trkpt lat="44.31150976612366" lon="11.330760460214526"><ele>543.0</ele><time>2026-05-02T10:42:41.594Z</time></trkpt><trkpt lat="44.31172715539767" lon="11.330468542269404"><ele>539.0</ele><time>2026-05-02T10:42:42.594Z</time></trkpt><trkpt lat="44.31193725178641" lon="11.330253461261776"><ele>539.0</ele><time>2026-05-02T10:42:43.594Z</time></trkpt><trkpt lat="44.31216519308145" lon="11.330077053544057"><ele>539.0</ele><time>2026-05-02T10:42:44.594Z</time></trkpt><trkpt lat="44.312392026956466" lon="11.329953158845031"><ele>533.0</ele><time>2026-05-02T10:42:45.594Z</time></trkpt><trkpt lat="44.31263252976626" lon="11.32987978284648"><ele>527.0</ele><time>2026-05-02T10:42:46.594Z</time></trkpt><trkpt lat="44.31285680958873" lon="11.329838300023411"><ele>519.5</ele><time>2026-05-02T10:42:47.594Z</time></trkpt><trkpt lat="44.31308563295164" lon="11.329836772097476"><ele>512.0</ele><time>2026-05-02T10:42:48.594Z</time></trkpt><trkpt lat="44.31331257174149" lon="11.32987768118367"><ele>512.0</ele><time>2026-05-02T10:42:49.594Z</time></trkpt><trkpt lat="44.31353099943387" lon="11.329922621559454"><ele>512.0</ele><time>2026-05-02T10:42:50.594Z</time></trkpt><trkpt lat="44.31373658696593" lon="11.32994907464113"><ele>512.0</ele><time>2026-05-02T10:42:51.594Z</time></trkpt><trkpt lat="44.31393618558751" lon="11.329970270896947"><ele>510.66666666666663</ele><time>2026-05-02T10:42:52.594Z</time></trkpt><trkpt lat="44.31412032178983" lon="11.329983756099649"><ele>509.33333333333337</ele><time>2026-05-02T10:42:53.594Z</time></trkpt><trkpt lat="44.314286965798956" lon="11.330015985376562"><ele>508.0</ele><time>2026-05-02T10:42:54.594Z</time></trkpt><trkpt lat="44.31444795227302" lon="11.330114784638575"><ele>508.0</ele><time>2026-05-02T10:42:55.594Z</time></trkpt><trkpt lat="44.31460721793763" lon="11.33025084893367"><ele>508.0</ele><time>2026-05-02T10:42:56.594Z</time></trkpt><trkpt lat="44.314755626128296" lon="11.33041984832665"><ele>508.0</ele><time>2026-05-02T10:42:57.594Z</time></trkpt><trkpt lat="44.31489877279518" lon="11.330620931549038"><ele>507.33333333333337</ele><time>2026-05-02T10:42:58.594Z</time></trkpt><trkpt lat="44.315042751553165" lon="11.330815054031053"><ele>506.66666666666663</ele><time>2026-05-02T10:42:59.594Z</time></trkpt><trkpt lat="44.315181424720734" lon="11.331006233268313"><ele>506.0</ele><time>2026-05-02T10:43:00.594Z</time></trkpt><trkpt lat="44.31532077317016" lon="11.331193081096874"><ele>506.0</ele><time>2026-05-02T10:43:01.594Z</time></trkpt><trkpt lat="44.31547122650697" lon="11.331371610827569"><ele>506.0</ele><time>2026-05-02T10:43:02.594Z</time></trkpt><trkpt lat="44.3156279976385" lon="11.33151972793226"><ele>506.0</ele><time>2026-05-02T10:43:03.593Z</time></trkpt><trkpt lat="44.31578080664336" lon="11.33165333194562"><ele>502.66666666666663</ele><time>2026-05-02T10:43:04.593Z</time></trkpt><trkpt lat="44.31592192502804" lon="11.33178029074859"><ele>499.33333333333337</ele><time>2026-05-02T10:43:05.593Z</time></trkpt><trkpt lat="44.31606603704486" lon="11.331886316819933"><ele>496.0</ele><time>2026-05-02T10:43:06.593Z</time></trkpt><trkpt lat="44.316205345551595" lon="11.331956867179004"><ele>496.0</ele><time>2026-05-02T10:43:07.593Z</time></trkpt><trkpt lat="44.31635680300532" lon="11.332013921971983"><ele>496.0</ele><time>2026-05-02T10:43:08.593Z</time></trkpt><trkpt lat="44.31650653838894" lon="11.33207976009885"><ele>496.0</ele><time>2026-05-02T10:43:09.593Z</time></trkpt><trkpt lat="44.31664482242994" lon="11.332161611642814"><ele>495.0</ele><time>2026-05-02T10:43:10.593Z</time></trkpt><trkpt lat="44.31677947244995" lon="11.332263753724186"><ele>494.0</ele><time>2026-05-02T10:43:11.593Z</time></trkpt><trkpt lat="44.316929819279586" lon="11.332376875807798"><ele>493.0</ele><time>2026-05-02T10:43:12.593Z</time></trkpt><trkpt lat="44.317087146953455" lon="11.332505450081804"><ele>492.6666666666667</ele><time>2026-05-02T10:43:13.593Z</time></trkpt><trkpt lat="44.31725890204495" lon="11.332645900748089"><ele>492.33333333333337</ele><time>2026-05-02T10:43:14.593Z</time></trkpt><trkpt lat="44.31744408602199" lon="11.332778774186144"><ele>492.0</ele><time>2026-05-02T10:43:15.593Z</time></trkpt><trkpt lat="44.31762584978423" lon="11.332917810318254"><ele>492.0</ele><time>2026-05-02T10:43:16.593Z</time></trkpt><trkpt lat="44.31781790137326" lon="11.333055785931707"><ele>492.0</ele><time>2026-05-02T10:43:17.593Z</time></trkpt><trkpt lat="44.318018292937516" lon="11.333187221784165"><ele>492.0</ele><time>2026-05-02T10:43:18.593Z</time></trkpt><trkpt lat="44.3182159572411" lon="11.333318776294048"><ele>492.33333333333337</ele><time>2026-05-02T10:43:19.593Z</time></trkpt><trkpt lat="44.31841665332005" lon="11.333444957458394"><ele>492.6666666666667</ele><time>2026-05-02T10:43:20.593Z</time></trkpt><trkpt lat="44.31861037284294" lon="11.333567264867536"><ele>493.0</ele><time>2026-05-02T10:43:21.593Z</time></trkpt><trkpt lat="44.318806634951514" lon="11.333682189710622"><ele>491.6666666666667</ele><time>2026-05-02T10:43:22.593Z</time></trkpt><trkpt lat="44.319002317590645" lon="11.333803396691268"><ele>490.33333333333337</ele><time>2026-05-02T10:43:23.593Z</time></trkpt><trkpt lat="44.319204453512334" lon="11.333914135084264"><ele>489.0</ele><time>2026-05-02T10:43:24.593Z</time></trkpt><trkpt lat="44.31941378485526" lon="11.33402459533852"><ele>488.5</ele><time>2026-05-02T10:43:25.593Z</time></trkpt><trkpt lat="44.31963351413724" lon="11.33411638382601"><ele>488.0</ele><time>2026-05-02T10:43:26.593Z</time></trkpt><trkpt lat="44.31985039132543" lon="11.334214064088865"><ele>487.66666666666663</ele><time>2026-05-02T10:43:27.593Z</time></trkpt><trkpt lat="44.32005827879459" lon="11.334325363037076"><ele>487.33333333333337</ele><time>2026-05-02T10:43:28.593Z</time></trkpt><trkpt lat="44.32025782940537" lon="11.334458178694337"><ele>487.0</ele><time>2026-05-02T10:43:29.592Z</time></trkpt><trkpt lat="44.320446616358616" lon="11.334609998788139"><ele>489.0</ele><time>2026-05-02T10:43:30.592Z</time></trkpt><trkpt lat="44.32062130899774" lon="11.334752153873936"><ele>491.0</ele><time>2026-05-02T10:43:31.592Z</time></trkpt><trkpt lat="44.32081331174488" lon="11.334844003910431"><ele>493.0</ele><time>2026-05-02T10:43:32.592Z</time></trkpt><trkpt lat="44.32102203693256" lon="11.33485739091418"><ele>493.0</ele><time>2026-05-02T10:43:33.592Z</time></trkpt><trkpt lat="44.32125647821091" lon="11.334786045168858"><ele>493.0</ele><time>2026-05-02T10:43:34.592Z</time></trkpt><trkpt lat="44.32147901399338" lon="11.334713255689225"><ele>494.33333333333337</ele><time>2026-05-02T10:43:35.592Z</time></trkpt><trkpt lat="44.32166834470103" lon="11.334677780435417"><ele>495.66666666666663</ele><time>2026-05-02T10:43:36.592Z</time></trkpt><trkpt lat="44.32182744587916" lon="11.334621247990226"><ele>497.0</ele><time>2026-05-02T10:43:37.592Z</time></trkpt><trkpt lat="44.321945420445694" lon="11.3344765898127"><ele>497.0</ele><time>2026-05-02T10:43:38.592Z</time></trkpt><trkpt lat="44.32206938712987" lon="11.334295217747298"><ele>497.0</ele><time>2026-05-02T10:43:39.592Z</time></trkpt><trkpt lat="44.32220901593571" lon="11.334180135720597"><ele>497.0</ele><time>2026-05-02T10:43:40.592Z</time></trkpt><trkpt lat="44.32237302846166" lon="11.334172430852098"><ele>504.0</ele><time>2026-05-02T10:43:41.592Z</time></trkpt><trkpt lat="44.322544227112395" lon="11.334190888813607"><ele>511.0</ele><time>2026-05-02T10:43:42.592Z</time></trkpt><trkpt lat="44.32269644197532" lon="11.334153388958912"><ele>518.0</ele><time>2026-05-02T10:43:43.592Z</time></trkpt><trkpt lat="44.32282252960624" lon="11.334004677203515"><ele>520.6666666666666</ele><time>2026-05-02T10:43:44.592Z</time></trkpt><trkpt lat="44.32292437781227" lon="11.333775036215771"><ele>523.3333333333334</ele><time>2026-05-02T10:43:45.592Z</time></trkpt><trkpt lat="44.3230389038145" lon="11.333499264529339"><ele>526.0</ele><time>2026-05-02T10:43:46.592Z</time></trkpt><trkpt lat="44.323202464580156" lon="11.333220200213828"><ele>520.3333333333334</ele><time>2026-05-02T10:43:47.592Z</time></trkpt><trkpt lat="44.3233529259104" lon="11.333008121092853"><ele>514.6666666666666</ele><time>2026-05-02T10:43:48.592Z</time></trkpt><trkpt lat="44.32349532566706" lon="11.332799060994581"><ele>509.0</ele><time>2026-05-02T10:43:49.592Z</time></trkpt><trkpt lat="44.32373094636647" lon="11.3325020410428"><ele>512.0</ele><time>2026-05-02T10:43:50.592Z</time></trkpt><trkpt lat="44.32391077434098" lon="11.332356297574673"><ele>515.0</ele><time>2026-05-02T10:43:51.592Z</time></trkpt><trkpt lat="44.324075698135324" lon="11.332242969446252"><ele>518.0</ele><time>2026-05-02T10:43:52.592Z</time></trkpt><trkpt lat="44.324221139646205" lon="11.33206138215014"><ele>518.0</ele><time>2026-05-02T10:43:53.592Z</time></trkpt><trkpt lat="44.32432964940816" lon="11.331809050744559"><ele>518.0</ele><time>2026-05-02T10:43:54.591Z</time></trkpt><trkpt lat="44.32441677124977" lon="11.331566798065012"><ele>518.0</ele><time>2026-05-02T10:43:55.591Z</time></trkpt><trkpt lat="44.32448009813805" lon="11.331338267311517"><ele>519.0</ele><time>2026-05-02T10:43:56.591Z</time></trkpt><trkpt lat="44.32452447516416" lon="11.331152838123984"><ele>520.0</ele><time>2026-05-02T10:43:57.591Z</time></trkpt><trkpt lat="44.324586183232036" lon="11.331000125228105"><ele>521.0</ele><time>2026-05-02T10:43:58.591Z</time></trkpt><trkpt lat="44.32468401454036" lon="11.330915547806638"><ele>522.0</ele><time>2026-05-02T10:43:59.591Z</time></trkpt><trkpt lat="44.32479856139309" lon="11.330885989218181"><ele>522.0</ele><time>2026-05-02T10:44:00.591Z</time></trkpt><trkpt lat="44.32491703552082" lon="11.330864067127365"><ele>522.0</ele><time>2026-05-02T10:44:01.591Z</time></trkpt><trkpt lat="44.3250358628611" lon="11.330839835924293"><ele>522.0</ele><time>2026-05-02T10:44:02.591Z</time></trkpt><trkpt lat="44.32514334330168" lon="11.330823787049516"><ele>522.0</ele><time>2026-05-02T10:44:03.591Z</time></trkpt><trkpt lat="44.325223695591916" lon="11.330942426287361"><ele>522.0</ele><time>2026-05-02T10:44:04.591Z</time></trkpt><trkpt lat="44.32524796532055" lon="11.331121743314906"><ele>522.0</ele><time>2026-05-02T10:44:05.593Z</time></trkpt><trkpt lat="44.32521816648517" lon="11.331311760867175"><ele>522.0</ele><time>2026-05-02T10:44:06.592Z</time></trkpt><trkpt lat="44.32518227627928" lon="11.331505320976898"><ele>522.0</ele><time>2026-05-02T10:44:07.592Z</time></trkpt><trkpt lat="44.32517619877328" lon="11.331726367596174"><ele>524.0</ele><time>2026-05-02T10:44:08.593Z</time></trkpt><trkpt lat="44.32517745982428" lon="11.331961067095582"><ele>526.0</ele><time>2026-05-02T10:44:09.592Z</time></trkpt><trkpt lat="44.32520411354226" lon="11.332203491501335"><ele>528.0</ele><time>2026-05-02T10:44:10.592Z</time></trkpt><trkpt lat="44.32523286448705" lon="11.332462302580472"><ele>528.0</ele><time>2026-05-02T10:44:11.592Z</time></trkpt><trkpt lat="44.32528022625293" lon="11.332710484220577"><ele>528.0</ele><time>2026-05-02T10:44:12.592Z</time></trkpt><trkpt lat="44.32532905376211" lon="11.332995110784122"><ele>528.0</ele><time>2026-05-02T10:44:13.592Z</time></trkpt><trkpt lat="44.32540533210995" lon="11.333206850925398"><ele>528.6666666666666</ele><time>2026-05-02T10:44:14.592Z</time></trkpt><trkpt lat="44.32549443261451" lon="11.333408379914111"><ele>529.3333333333333</ele><time>2026-05-02T10:44:15.592Z</time></trkpt><trkpt lat="44.32562248440003" lon="11.333538695103345"><ele>530.0</ele><time>2026-05-02T10:44:16.592Z</time></trkpt><trkpt lat="44.32582080458503" lon="11.333604861155125"><ele>530.0</ele><time>2026-05-02T10:44:17.592Z</time></trkpt><trkpt lat="44.32604975749762" lon="11.333619484452916"><ele>530.0</ele><time>2026-05-02T10:44:18.592Z</time></trkpt><trkpt lat="44.32628066000519" lon="11.333581937667436"><ele>523.3333333333333</ele><time>2026-05-02T10:44:19.592Z</time></trkpt><trkpt lat="44.32651108458412" lon="11.333529136791253"><ele>516.6666666666666</ele><time>2026-05-02T10:44:20.592Z</time></trkpt><trkpt lat="44.326708701850315" lon="11.333504797934859"><ele>510.0</ele><time>2026-05-02T10:44:21.592Z</time></trkpt><trkpt lat="44.32689948180803" lon="11.333525008272634"><ele>510.0</ele><time>2026-05-02T10:44:22.592Z</time></trkpt><trkpt lat="44.3271229109616" lon="11.333642245630623"><ele>510.0</ele><time>2026-05-02T10:44:23.592Z</time></trkpt><trkpt lat="44.32735870203053" lon="11.333793135087875"><ele>517.0</ele><time>2026-05-02T10:44:24.592Z</time></trkpt><trkpt lat="44.327588529355964" lon="11.333932052482162"><ele>524.0</ele><time>2026-05-02T10:44:25.592Z</time></trkpt><trkpt lat="44.327806953287514" lon="11.33406411712511"><ele>524.0</ele><time>2026-05-02T10:44:26.592Z</time></trkpt><trkpt lat="44.328018619400346" lon="11.334187213298833"><ele>524.0</ele><time>2026-05-02T10:44:27.592Z</time></trkpt><trkpt lat="44.328247392075305" lon="11.334283322003278"><ele>514.0</ele><time>2026-05-02T10:44:28.592Z</time></trkpt><trkpt lat="44.32850205488017" lon="11.334341453857231"><ele>504.0</ele><time>2026-05-02T10:44:29.592Z</time></trkpt><trkpt lat="44.32877998956327" lon="11.334394549292027"><ele>495.0</ele><time>2026-05-02T10:44:30.592Z</time></trkpt><trkpt lat="44.32906900358548" lon="11.334447430048899"><ele>486.0</ele><time>2026-05-02T10:44:31.592Z</time></trkpt><trkpt lat="44.32933513935956" lon="11.334521075340437"><ele>486.0</ele><time>2026-05-02T10:44:32.592Z</time></trkpt><trkpt lat="44.32959820532964" lon="11.334592527934776"><ele>486.0</ele><time>2026-05-02T10:44:33.592Z</time></trkpt><trkpt lat="44.32984476017705" lon="11.334662719706335"><ele>483.33333333333337</ele><time>2026-05-02T10:44:34.592Z</time></trkpt><trkpt lat="44.330070190841475" lon="11.33470907545616"><ele>480.6666666666667</ele><time>2026-05-02T10:44:35.592Z</time></trkpt><trkpt lat="44.330270800439244" lon="11.334753899529366"><ele>478.0</ele><time>2026-05-02T10:44:36.592Z</time></trkpt><trkpt lat="44.33045922696941" lon="11.334801820122197"><ele>477.6666666666667</ele><time>2026-05-02T10:44:37.591Z</time></trkpt><trkpt lat="44.33063206398152" lon="11.33481983022682"><ele>477.33333333333337</ele><time>2026-05-02T10:44:38.591Z</time></trkpt><trkpt lat="44.330801496034574" lon="11.334768295764617"><ele>477.0</ele><time>2026-05-02T10:44:39.591Z</time></trkpt><trkpt lat="44.33097538682206" lon="11.334656810813883"><ele>477.0</ele><time>2026-05-02T10:44:40.591Z</time></trkpt><trkpt lat="44.33115810274071" lon="11.334507975767476"><ele>477.0</ele><time>2026-05-02T10:44:41.591Z</time></trkpt><trkpt lat="44.33133139301357" lon="11.334357499515022"><ele>477.0</ele><time>2026-05-02T10:44:42.591Z</time></trkpt><trkpt lat="44.331518065248254" lon="11.334270729336776"><ele>478.33333333333337</ele><time>2026-05-02T10:44:43.591Z</time></trkpt><trkpt lat="44.33173231775496" lon="11.334248568714113"><ele>479.6666666666667</ele><time>2026-05-02T10:44:44.591Z</time></trkpt><trkpt lat="44.33194848253378" lon="11.334266723981086"><ele>481.0</ele><time>2026-05-02T10:44:45.591Z</time></trkpt><trkpt lat="44.332166605753685" lon="11.334322663377767"><ele>479.6666666666667</ele><time>2026-05-02T10:44:46.591Z</time></trkpt><trkpt lat="44.33236993905088" lon="11.334380599916596"><ele>478.33333333333337</ele><time>2026-05-02T10:44:47.591Z</time></trkpt><trkpt lat="44.332559332419045" lon="11.33444260614982"><ele>477.0</ele><time>2026-05-02T10:44:48.591Z</time></trkpt><trkpt lat="44.332738492142816" lon="11.334562715194252"><ele>480.0</ele><time>2026-05-02T10:44:49.591Z</time></trkpt><trkpt lat="44.33291160858476" lon="11.334803412672322"><ele>483.0</ele><time>2026-05-02T10:44:50.591Z</time></trkpt><trkpt lat="44.33307729554469" lon="11.335079669305275"><ele>477.0</ele><time>2026-05-02T10:44:51.591Z</time></trkpt><trkpt lat="44.333229394737046" lon="11.335308003522336"><ele>471.0</ele><time>2026-05-02T10:44:52.591Z</time></trkpt><trkpt lat="44.33335359255438" lon="11.335473001258416"><ele>465.0</ele><time>2026-05-02T10:44:53.591Z</time></trkpt><trkpt lat="44.333487861838144" lon="11.335575403330079"><ele>465.0</ele><time>2026-05-02T10:44:54.591Z</time></trkpt><trkpt lat="44.33369147806206" lon="11.335606387928514"><ele>465.0</ele><time>2026-05-02T10:44:55.591Z</time></trkpt><trkpt lat="44.33397795573195" lon="11.335552054006016"><ele>459.66666666666663</ele><time>2026-05-02T10:44:56.591Z</time></trkpt><trkpt lat="44.33422681019947" lon="11.335527401003723"><ele>454.3333333333333</ele><time>2026-05-02T10:44:57.591Z</time></trkpt><trkpt lat="44.334398821648314" lon="11.3354826517205"><ele>449.0</ele><time>2026-05-02T10:44:58.591Z</time></trkpt><trkpt lat="44.334544222372045" lon="11.335397632823266"><ele>449.0</ele><time>2026-05-02T10:44:59.591Z</time></trkpt><trkpt lat="44.33467499996881" lon="11.33519303441197"><ele>449.0</ele><time>2026-05-02T10:45:00.591Z</time></trkpt><trkpt lat="44.33475045243159" lon="11.334907460562123"><ele>449.0</ele><time>2026-05-02T10:45:01.591Z</time></trkpt><trkpt lat="44.33482050387881" lon="11.334630781976827"><ele>443.5</ele><time>2026-05-02T10:45:02.59Z</time></trkpt><trkpt lat="44.334968399362275" lon="11.334423546861554"><ele>438.0</ele><time>2026-05-02T10:45:03.59Z</time></trkpt><trkpt lat="44.335192159089765" lon="11.334276373629207"><ele>438.0</ele><time>2026-05-02T10:45:04.59Z</time></trkpt><trkpt lat="44.33540868006363" lon="11.33419889723851"><ele>438.0</ele><time>2026-05-02T10:45:05.59Z</time></trkpt><trkpt lat="44.3356128627032" lon="11.334183434875124"><ele>438.0</ele><time>2026-05-02T10:45:06.59Z</time></trkpt><trkpt lat="44.3358166351347" lon="11.334165481725217"><ele>439.66666666666663</ele><time>2026-05-02T10:45:07.59Z</time></trkpt><trkpt lat="44.33599233492877" lon="11.334077758615809"><ele>441.3333333333333</ele><time>2026-05-02T10:45:08.59Z</time></trkpt><trkpt lat="44.33613425821281" lon="11.333971755382187"><ele>443.0</ele><time>2026-05-02T10:45:09.59Z</time></trkpt><trkpt lat="44.3362527133103" lon="11.333994052911187"><ele>443.0</ele><time>2026-05-02T10:45:10.59Z</time></trkpt><trkpt lat="44.336381943565605" lon="11.334163832104174"><ele>443.0</ele><time>2026-05-02T10:45:11.59Z</time></trkpt><trkpt lat="44.33650202411631" lon="11.334388964580558"><ele>443.0</ele><time>2026-05-02T10:45:12.59Z</time></trkpt><trkpt lat="44.336643274232024" lon="11.334510097605774"><ele>439.0</ele><time>2026-05-02T10:45:13.59Z</time></trkpt><trkpt lat="44.336904142989326" lon="11.334528392643973"><ele>435.0</ele><time>2026-05-02T10:45:14.59Z</time></trkpt><trkpt lat="44.33716977206997" lon="11.334478643906792"><ele>430.0</ele><time>2026-05-02T10:45:15.59Z</time></trkpt><trkpt lat="44.33738056054518" lon="11.334403126196001"><ele>425.0</ele><time>2026-05-02T10:45:16.59Z</time></trkpt><trkpt lat="44.337572360227924" lon="11.33437971551846"><ele>420.0</ele><time>2026-05-02T10:45:17.59Z</time></trkpt><trkpt lat="44.33775101439281" lon="11.334457374076681"><ele>420.0</ele><time>2026-05-02T10:45:18.59Z</time></trkpt><trkpt lat="44.337915276017256" lon="11.334556813198432"><ele>420.0</ele><time>2026-05-02T10:45:19.59Z</time></trkpt><trkpt lat="44.338062781131654" lon="11.334671151454067"><ele>420.0</ele><time>2026-05-02T10:45:20.59Z</time></trkpt><trkpt lat="44.3382041793516" lon="11.334839635997042"><ele>421.0</ele><time>2026-05-02T10:45:21.59Z</time></trkpt><trkpt lat="44.338313647256875" lon="11.335048617229253"><ele>422.0</ele><time>2026-05-02T10:45:22.59Z</time></trkpt><trkpt lat="44.33840788463398" lon="11.335201679689865"><ele>423.0</ele><time>2026-05-02T10:45:23.59Z</time></trkpt><trkpt lat="44.33847307630532" lon="11.335282794994303"><ele>424.0</ele><time>2026-05-02T10:45:24.59Z</time></trkpt><trkpt lat="44.33853549097473" lon="11.33531931817945"><ele>424.0</ele><time>2026-05-02T10:45:25.59Z</time></trkpt><trkpt lat="44.33859833677456" lon="11.335355307367772"><ele>424.0</ele><time>2026-05-02T10:45:27.59Z</time></trkpt><trkpt lat="44.33866797569679" lon="11.335434043173512"><ele>424.0</ele><time>2026-05-02T10:45:59.588Z</time></trkpt><trkpt lat="44.338728039013105" lon="11.335489327115113"><ele>424.0</ele><time>2026-05-02T10:46:00.588Z</time></trkpt><trkpt lat="44.33882268474866" lon="11.33557303124499"><ele>424.0</ele><time>2026-05-02T10:46:01.588Z</time></trkpt><trkpt lat="44.33894917656262" lon="11.335697787358965"><ele>422.33333333333337</ele><time>2026-05-02T10:46:02.588Z</time></trkpt><trkpt lat="44.33908315712397" lon="11.335840702628202"><ele>420.66666666666663</ele><time>2026-05-02T10:46:03.588Z</time></trkpt><trkpt lat="44.33921446971379" lon="11.335969246203527"><ele>419.0</ele><time>2026-05-02T10:46:04.588Z</time></trkpt><trkpt lat="44.33935192921884" lon="11.33608822988644"><ele>419.0</ele><time>2026-05-02T10:46:05.588Z</time></trkpt><trkpt lat="44.33952129252876" lon="11.336124979476933"><ele>419.0</ele><time>2026-05-02T10:46:06.588Z</time></trkpt><trkpt lat="44.33969574456647" lon="11.336094299813702"><ele>419.0</ele><time>2026-05-02T10:46:07.588Z</time></trkpt><trkpt lat="44.33984379558652" lon="11.336062605200814"><ele>418.25</ele><time>2026-05-02T10:46:08.588Z</time></trkpt><trkpt lat="44.33995727428445" lon="11.335991308741304"><ele>417.5</ele><time>2026-05-02T10:46:09.588Z</time></trkpt><trkpt lat="44.340032294339935" lon="11.33584634929968"><ele>416.75</ele><time>2026-05-02T10:46:10.588Z</time></trkpt><trkpt lat="44.34004903848924" lon="11.33559015857346"><ele>416.0</ele><time>2026-05-02T10:46:11.589Z</time></trkpt><trkpt lat="44.34009675311203" lon="11.335325411013278"><ele>416.0</ele><time>2026-05-02T10:46:12.589Z</time></trkpt><trkpt lat="44.34020254734935" lon="11.335108914787295"><ele>416.0</ele><time>2026-05-02T10:46:13.589Z</time></trkpt><trkpt lat="44.340368943434825" lon="11.3349672994528"><ele>416.0</ele><time>2026-05-02T10:46:14.589Z</time></trkpt><trkpt lat="44.34056476044952" lon="11.334867669719896"><ele>409.5</ele><time>2026-05-02T10:46:15.589Z</time></trkpt><trkpt lat="44.34077560104094" lon="11.334771781044731"><ele>403.0</ele><time>2026-05-02T10:46:16.589Z</time></trkpt><trkpt lat="44.340994776333275" lon="11.334668570589283"><ele>403.0</ele><time>2026-05-02T10:46:17.589Z</time></trkpt><trkpt lat="44.341240191617004" lon="11.334564336449526"><ele>403.0</ele><time>2026-05-02T10:46:18.589Z</time></trkpt><trkpt lat="44.34148997262703" lon="11.334491207388945"><ele>396.5</ele><time>2026-05-02T10:46:19.589Z</time></trkpt><trkpt lat="44.341740792774175" lon="11.334478620838723"><ele>390.0</ele><time>2026-05-02T10:46:20.589Z</time></trkpt><trkpt lat="44.34197413096695" lon="11.334496753538849"><ele>390.0</ele><time>2026-05-02T10:46:21.589Z</time></trkpt><trkpt lat="44.34218371685128" lon="11.334517096299235"><ele>390.0</ele><time>2026-05-02T10:46:22.589Z</time></trkpt><trkpt lat="44.34237817144389" lon="11.334516497026936"><ele>390.0</ele><time>2026-05-02T10:46:23.588Z</time></trkpt><trkpt lat="44.34252410355235" lon="11.334471317497817"><ele>387.0</ele><time>2026-05-02T10:46:24.589Z</time></trkpt><trkpt lat="44.34263540401463" lon="11.334365058587546"><ele>384.0</ele><time>2026-05-02T10:46:25.589Z</time></trkpt><trkpt lat="44.34272350107612" lon="11.334165084496856"><ele>381.0</ele><time>2026-05-02T10:46:26.588Z</time></trkpt><trkpt lat="44.34276821303465" lon="11.333858820360472"><ele>381.0</ele><time>2026-05-02T10:46:27.588Z</time></trkpt><trkpt lat="44.3428279125079" lon="11.333559346946048"><ele>381.0</ele><time>2026-05-02T10:46:28.588Z</time></trkpt><trkpt lat="44.34298046808612" lon="11.33330880398608"><ele>370.3333333333333</ele><time>2026-05-02T10:46:29.588Z</time></trkpt><trkpt lat="44.34314861097921" lon="11.333146766780352"><ele>359.66666666666663</ele><time>2026-05-02T10:46:30.588Z</time></trkpt><trkpt lat="44.343322196558844" lon="11.333038271280332"><ele>349.0</ele><time>2026-05-02T10:46:31.588Z</time></trkpt><trkpt lat="44.34350374188688" lon="11.333013817888357"><ele>349.0</ele><time>2026-05-02T10:46:32.588Z</time></trkpt><trkpt lat="44.34369050357337" lon="11.333065567128363"><ele>349.0</ele><time>2026-05-02T10:46:33.588Z</time></trkpt><trkpt lat="44.34388086631789" lon="11.333172075057277"><ele>349.0</ele><time>2026-05-02T10:46:34.588Z</time></trkpt><trkpt lat="44.34401626514236" lon="11.333267937947005"><ele>347.0</ele><time>2026-05-02T10:46:35.588Z</time></trkpt><trkpt lat="44.34408791441784" lon="11.333329655732685"><ele>345.0</ele><time>2026-05-02T10:46:36.588Z</time></trkpt><trkpt lat="44.34419111237943" lon="11.333367065284886"><ele>343.0</ele><time>2026-05-02T10:48:35.585Z</time></trkpt><trkpt lat="44.34428062419199" lon="11.333385153271799"><ele>341.0</ele><time>2026-05-02T10:48:36.585Z</time></trkpt><trkpt lat="44.344395812944114" lon="11.333389163457756"><ele>339.0</ele><time>2026-05-02T10:48:37.585Z</time></trkpt><trkpt lat="44.344528822087376" lon="11.333350009352712"><ele>339.0</ele><time>2026-05-02T10:48:38.585Z</time></trkpt><trkpt lat="44.34465090606575" lon="11.333326177757412"><ele>339.0</ele><time>2026-05-02T10:48:39.585Z</time></trkpt><trkpt lat="44.3447836844436" lon="11.33330105089058"><ele>339.0</ele><time>2026-05-02T10:48:40.585Z</time></trkpt><trkpt lat="44.344934184698936" lon="11.333301445126688"><ele>339.0</ele><time>2026-05-02T10:48:41.585Z</time></trkpt><trkpt lat="44.34509380879778" lon="11.333293962382383"><ele>337.3333333333333</ele><time>2026-05-02T10:48:42.585Z</time></trkpt><trkpt lat="44.34526319080514" lon="11.33327785490857"><ele>335.66666666666663</ele><time>2026-05-02T10:48:43.585Z</time></trkpt><trkpt lat="44.34543819100245" lon="11.333253318128145"><ele>334.0</ele><time>2026-05-02T10:48:44.585Z</time></trkpt><trkpt lat="44.34562247311392" lon="11.3332131022615"><ele>333.0</ele><time>2026-05-02T10:48:45.585Z</time></trkpt><trkpt lat="44.3458029682815" lon="11.333178183291857"><ele>332.0</ele><time>2026-05-02T10:48:46.585Z</time></trkpt><trkpt lat="44.345983249800206" lon="11.333173094783838"><ele>331.0</ele><time>2026-05-02T10:48:47.585Z</time></trkpt><trkpt lat="44.34616518476566" lon="11.333225052480183"><ele>331.0</ele><time>2026-05-02T10:48:48.585Z</time></trkpt><trkpt lat="44.34633697846995" lon="11.333304940172589"><ele>331.0</ele><time>2026-05-02T10:48:49.585Z</time></trkpt><trkpt lat="44.346503518437984" lon="11.333384511252824"><ele>331.0</ele><time>2026-05-02T10:48:50.585Z</time></trkpt><trkpt lat="44.346663506917984" lon="11.333478544800368"><ele>333.66666666666663</ele><time>2026-05-02T10:48:51.585Z</time></trkpt><trkpt lat="44.34681787990266" lon="11.333577678341202"><ele>336.3333333333333</ele><time>2026-05-02T10:48:52.585Z</time></trkpt><trkpt lat="44.34696620418612" lon="11.333688791207988"><ele>339.0</ele><time>2026-05-02T10:48:53.585Z</time></trkpt><trkpt lat="44.3470956086923" lon="11.333833218958128"><ele>340.3333333333333</ele><time>2026-05-02T10:48:54.585Z</time></trkpt><trkpt lat="44.34718735595576" lon="11.334059013205055"><ele>341.66666666666663</ele><time>2026-05-02T10:48:55.585Z</time></trkpt><trkpt lat="44.34730969184713" lon="11.334244572986073"><ele>343.0</ele><time>2026-05-02T10:48:56.584Z</time></trkpt><trkpt lat="44.347464526800074" lon="11.334395776416239"><ele>343.0</ele><time>2026-05-02T10:48:57.584Z</time></trkpt><trkpt lat="44.347631824699576" lon="11.334515200035854"><ele>343.0</ele><time>2026-05-02T10:48:58.584Z</time></trkpt><trkpt lat="44.347789605182555" lon="11.33465957341086"><ele>343.0</ele><time>2026-05-02T10:48:59.584Z</time></trkpt><trkpt lat="44.34794569835682" lon="11.33481980255838"><ele>338.66666666666663</ele><time>2026-05-02T10:49:00.584Z</time></trkpt><trkpt lat="44.348079780731965" lon="11.33501400324703"><ele>334.3333333333333</ele><time>2026-05-02T10:49:01.584Z</time></trkpt><trkpt lat="44.348230735685206" lon="11.335223323174036"><ele>330.0</ele><time>2026-05-02T10:49:02.584Z</time></trkpt><trkpt lat="44.34835166042056" lon="11.335420456638127"><ele>334.0</ele><time>2026-05-02T10:49:03.584Z</time></trkpt><trkpt lat="44.34848442641886" lon="11.335609511212871"><ele>338.0</ele><time>2026-05-02T10:49:04.584Z</time></trkpt><trkpt lat="44.34863037514513" lon="11.33578395700368"><ele>342.0</ele><time>2026-05-02T10:49:05.584Z</time></trkpt><trkpt lat="44.34877844155759" lon="11.335968399923038"><ele>340.6666666666667</ele><time>2026-05-02T10:49:06.584Z</time></trkpt><trkpt lat="44.348942509326044" lon="11.336120401927387"><ele>339.33333333333337</ele><time>2026-05-02T10:49:07.584Z</time></trkpt><trkpt lat="44.349108961049446" lon="11.336272856930268"><ele>338.0</ele><time>2026-05-02T10:49:08.584Z</time></trkpt><trkpt lat="44.34929343753035" lon="11.336390568937396"><ele>338.0</ele><time>2026-05-02T10:49:09.584Z</time></trkpt><trkpt lat="44.34947106926277" lon="11.336490771243115"><ele>338.0</ele><time>2026-05-02T10:49:10.584Z</time></trkpt><trkpt lat="44.349649129011034" lon="11.336555728891128"><ele>338.0</ele><time>2026-05-02T10:49:11.584Z</time></trkpt><trkpt lat="44.34982140487555" lon="11.336593041037888"><ele>337.0</ele><time>2026-05-02T10:49:12.584Z</time></trkpt><trkpt lat="44.349993724454166" lon="11.336624890712343"><ele>336.0</ele><time>2026-05-02T10:49:13.584Z</time></trkpt><trkpt lat="44.35015394242979" lon="11.336637767840207"><ele>335.0</ele><time>2026-05-02T10:49:14.584Z</time></trkpt><trkpt lat="44.350314251765525" lon="11.336679276239426"><ele>335.0</ele><time>2026-05-02T10:49:15.584Z</time></trkpt><trkpt lat="44.350478062572705" lon="11.336703055676754"><ele>335.0</ele><time>2026-05-02T10:49:16.584Z</time></trkpt><trkpt lat="44.35065310013949" lon="11.336732114913593"><ele>335.0</ele><time>2026-05-02T10:49:17.584Z</time></trkpt><trkpt lat="44.35082368424388" lon="11.33670747954169"><ele>339.0</ele><time>2026-05-02T10:49:18.584Z</time></trkpt><trkpt lat="44.35099684812603" lon="11.336658510731557"><ele>343.0</ele><time>2026-05-02T10:49:19.584Z</time></trkpt><trkpt lat="44.35114823106737" lon="11.336615842396542"><ele>347.0</ele><time>2026-05-02T10:49:20.584Z</time></trkpt><trkpt lat="44.35127636184443" lon="11.336596661500296"><ele>346.75</ele><time>2026-05-02T10:49:21.583Z</time></trkpt><trkpt lat="44.35138467815019" lon="11.336627942909073"><ele>346.5</ele><time>2026-05-02T10:49:22.583Z</time></trkpt><trkpt lat="44.351464750718094" lon="11.336802236802395"><ele>346.25</ele><time>2026-05-02T10:49:23.583Z</time></trkpt><trkpt lat="44.35150067392151" lon="11.337023694271016"><ele>346.0</ele><time>2026-05-02T10:49:24.583Z</time></trkpt><trkpt lat="44.35149464600052" lon="11.33726975278955"><ele>347.66666666666663</ele><time>2026-05-02T10:49:25.583Z</time></trkpt><trkpt lat="44.35150231547345" lon="11.337527389026436"><ele>349.3333333333333</ele><time>2026-05-02T10:49:26.583Z</time></trkpt><trkpt lat="44.35155336831665" lon="11.337764946230907"><ele>351.0</ele><time>2026-05-02T10:49:27.583Z</time></trkpt><trkpt lat="44.35163362719901" lon="11.33797607050532"><ele>350.3333333333333</ele><time>2026-05-02T10:49:28.583Z</time></trkpt><trkpt lat="44.35174854220984" lon="11.338128746700376"><ele>349.66666666666663</ele><time>2026-05-02T10:49:29.583Z</time></trkpt><trkpt lat="44.35190788377256" lon="11.33819295094718"><ele>349.0</ele><time>2026-05-02T10:49:30.583Z</time></trkpt><trkpt lat="44.35208218496969" lon="11.338200926891686"><ele>349.0</ele><time>2026-05-02T10:49:31.583Z</time></trkpt><trkpt lat="44.35225466842055" lon="11.338214405627884"><ele>349.0</ele><time>2026-05-02T10:49:32.583Z</time></trkpt><trkpt lat="44.3524252451113" lon="11.338242850115034"><ele>349.0</ele><time>2026-05-02T10:49:33.583Z</time></trkpt><trkpt lat="44.352608033522905" lon="11.338276068288934"><ele>349.0</ele><time>2026-05-02T10:49:34.583Z</time></trkpt><trkpt lat="44.35279065253971" lon="11.338335371229235"><ele>349.0</ele><time>2026-05-02T10:49:35.583Z</time></trkpt><trkpt lat="44.352970164636986" lon="11.33842155324536"><ele>349.0</ele><time>2026-05-02T10:49:36.583Z</time></trkpt><trkpt lat="44.35315078340178" lon="11.33851496632845"><ele>348.66666666666663</ele><time>2026-05-02T10:49:37.583Z</time></trkpt><trkpt lat="44.35333207993483" lon="11.338606377763412"><ele>348.3333333333333</ele><time>2026-05-02T10:49:38.583Z</time></trkpt><trkpt lat="44.35350966177981" lon="11.338685943644524"><ele>348.0</ele><time>2026-05-02T10:49:39.583Z</time></trkpt><trkpt lat="44.353672125771354" lon="11.338784246404275"><ele>349.0</ele><time>2026-05-02T10:49:40.583Z</time></trkpt><trkpt lat="44.35382445842891" lon="11.33893284637287"><ele>350.0</ele><time>2026-05-02T10:49:41.583Z</time></trkpt><trkpt lat="44.35395178575837" lon="11.339131195995561"><ele>351.0</ele><time>2026-05-02T10:49:42.583Z</time></trkpt><trkpt lat="44.35410363120157" lon="11.339294679875845"><ele>351.0</ele><time>2026-05-02T10:49:43.583Z</time></trkpt><trkpt lat="44.35426178548449" lon="11.339441162033507"><ele>351.0</ele><time>2026-05-02T10:49:44.583Z</time></trkpt><trkpt lat="44.354405537261414" lon="11.339622156339715"><ele>351.0</ele><time>2026-05-02T10:49:45.583Z</time></trkpt><trkpt lat="44.354551671191686" lon="11.339783524126377"><ele>350.6666666666667</ele><time>2026-05-02T10:49:46.582Z</time></trkpt><trkpt lat="44.354710654318204" lon="11.339901252544086"><ele>350.33333333333337</ele><time>2026-05-02T10:49:47.582Z</time></trkpt><trkpt lat="44.35490942926873" lon="11.339980326056628"><ele>350.0</ele><time>2026-05-02T10:49:48.582Z</time></trkpt><trkpt lat="44.35510232748765" lon="11.34007181035808"><ele>350.0</ele><time>2026-05-02T10:49:49.582Z</time></trkpt><trkpt lat="44.355283665380654" lon="11.340157661916356"><ele>350.0</ele><time>2026-05-02T10:49:50.582Z</time></trkpt><trkpt lat="44.355432757420125" lon="11.340211050249048"><ele>350.0</ele><time>2026-05-02T10:49:51.582Z</time></trkpt><trkpt lat="44.35558989226249" lon="11.340225162204543"><ele>348.75</ele><time>2026-05-02T10:49:52.582Z</time></trkpt><trkpt lat="44.3557425444726" lon="11.340183775276827"><ele>347.5</ele><time>2026-05-02T10:49:53.582Z</time></trkpt><trkpt lat="44.355871297720775" lon="11.340096912865137"><ele>346.25</ele><time>2026-05-02T10:49:54.582Z</time></trkpt><trkpt lat="44.35597996453469" lon="11.339975133255578"><ele>345.0</ele><time>2026-05-02T10:49:55.582Z</time></trkpt><trkpt lat="44.35605632573079" lon="11.339803439891092"><ele>340.3333333333333</ele><time>2026-05-02T10:49:56.582Z</time></trkpt><trkpt lat="44.356078567044825" lon="11.33957981639509"><ele>335.66666666666663</ele><time>2026-05-02T10:49:57.582Z</time></trkpt><trkpt lat="44.3561117890987" lon="11.33935134684256"><ele>331.0</ele><time>2026-05-02T10:49:58.582Z</time></trkpt><trkpt lat="44.356169641534926" lon="11.339175325047847"><ele>331.0</ele><time>2026-05-02T10:49:59.582Z</time></trkpt><trkpt lat="44.35626125493288" lon="11.339033427797458"><ele>331.0</ele><time>2026-05-02T10:50:00.582Z</time></trkpt><trkpt lat="44.35638816811392" lon="11.338909386609794"><ele>331.0</ele><time>2026-05-02T10:50:01.582Z</time></trkpt><trkpt lat="44.35651050171991" lon="11.338771048077685"><ele>331.0</ele><time>2026-05-02T10:50:02.582Z</time></trkpt><trkpt lat="44.35659768441766" lon="11.338591712825549"><ele>332.0</ele><time>2026-05-02T10:50:03.582Z</time></trkpt><trkpt lat="44.356638200902786" lon="11.338364243046353"><ele>333.0</ele><time>2026-05-02T10:50:04.582Z</time></trkpt><trkpt lat="44.35666478350953" lon="11.338134436520916"><ele>334.0</ele><time>2026-05-02T10:50:05.582Z</time></trkpt><trkpt lat="44.356693373709554" lon="11.337919797150166"><ele>331.6</ele><time>2026-05-02T10:50:06.582Z</time></trkpt><trkpt lat="44.3567165127218" lon="11.337732146229692"><ele>329.2</ele><time>2026-05-02T10:50:07.582Z</time></trkpt><trkpt lat="44.35674491608435" lon="11.337582054311845"><ele>326.8</ele><time>2026-05-02T10:50:08.582Z</time></trkpt><trkpt lat="44.35679858168053" lon="11.33746301741893"><ele>324.40000000000003</ele><time>2026-05-02T10:50:09.582Z</time></trkpt><trkpt lat="44.35689399740279" lon="11.337414000364223"><ele>322.0</ele><time>2026-05-02T10:50:10.582Z</time></trkpt><trkpt lat="44.35699836212335" lon="11.337486964465858"><ele>322.0</ele><time>2026-05-02T10:50:11.582Z</time></trkpt><trkpt lat="44.35708653196187" lon="11.33766037861863"><ele>322.0</ele><time>2026-05-02T10:50:12.581Z</time></trkpt><trkpt lat="44.3571514265433" lon="11.337885857889628"><ele>322.0</ele><time>2026-05-02T10:50:13.581Z</time></trkpt><trkpt lat="44.35721254695211" lon="11.338096663205695"><ele>321.0</ele><time>2026-05-02T10:50:14.581Z</time></trkpt><trkpt lat="44.35728628161156" lon="11.338313397517702"><ele>320.0</ele><time>2026-05-02T10:50:15.581Z</time></trkpt><trkpt lat="44.357368358727975" lon="11.338530049765296"><ele>319.0</ele><time>2026-05-02T10:50:16.581Z</time></trkpt><trkpt lat="44.35744243034891" lon="11.338761954370534"><ele>321.3333333333333</ele><time>2026-05-02T10:50:17.581Z</time></trkpt><trkpt lat="44.35751099251024" lon="11.338984174497444"><ele>323.6666666666667</ele><time>2026-05-02T10:50:18.581Z</time></trkpt><trkpt lat="44.35756919595272" lon="11.33921487881727"><ele>326.0</ele><time>2026-05-02T10:50:19.581Z</time></trkpt><trkpt lat="44.35758601247996" lon="11.339467686432616"><ele>325.6666666666667</ele><time>2026-05-02T10:50:20.581Z</time></trkpt><trkpt lat="44.357565604396655" lon="11.339728105851009"><ele>325.3333333333333</ele><time>2026-05-02T10:50:21.581Z</time></trkpt><trkpt lat="44.357543235566965" lon="11.340002295467588"><ele>325.0</ele><time>2026-05-02T10:50:22.581Z</time></trkpt><trkpt lat="44.357521511073" lon="11.340282484084645"><ele>323.0</ele><time>2026-05-02T10:50:23.583Z</time></trkpt><trkpt lat="44.357511511000745" lon="11.340566087167378"><ele>321.0</ele><time>2026-05-02T10:50:24.582Z</time></trkpt><trkpt lat="44.35750037897524" lon="11.34083689996007"><ele>319.0</ele><time>2026-05-02T10:50:25.582Z</time></trkpt><trkpt lat="44.35748600315848" lon="11.341104098302857"><ele>319.0</ele><time>2026-05-02T10:50:26.582Z</time></trkpt><trkpt lat="44.35746730257915" lon="11.3413748654533"><ele>319.0</ele><time>2026-05-02T10:50:27.583Z</time></trkpt><trkpt lat="44.357428298910094" lon="11.341635425173523"><ele>319.0</ele><time>2026-05-02T10:50:28.582Z</time></trkpt><trkpt lat="44.3573772330769" lon="11.341889023754629"><ele>316.0</ele><time>2026-05-02T10:50:29.582Z</time></trkpt><trkpt lat="44.35732670480709" lon="11.342130575384726"><ele>313.0</ele><time>2026-05-02T10:50:30.582Z</time></trkpt><trkpt lat="44.357286231890726" lon="11.342343886893934"><ele>310.0</ele><time>2026-05-02T10:50:31.582Z</time></trkpt><trkpt lat="44.357267773277044" lon="11.342551245994986"><ele>307.66666666666663</ele><time>2026-05-02T10:50:32.582Z</time></trkpt><trkpt lat="44.35731833381275" lon="11.342720577984482"><ele>305.3333333333333</ele><time>2026-05-02T10:50:33.583Z</time></trkpt><trkpt lat="44.357443367017886" lon="11.34285479810565"><ele>303.0</ele><time>2026-05-02T10:50:34.582Z</time></trkpt><trkpt lat="44.35764467352183" lon="11.34287804478194"><ele>303.0</ele><time>2026-05-02T10:50:35.582Z</time></trkpt><trkpt lat="44.35784217952644" lon="11.342851729065092"><ele>303.0</ele><time>2026-05-02T10:50:36.582Z</time></trkpt><trkpt lat="44.358045331006075" lon="11.342831210322949"><ele>303.0</ele><time>2026-05-02T10:50:37.582Z</time></trkpt><trkpt lat="44.35821745614302" lon="11.342775240159245"><ele>300.6666666666667</ele><time>2026-05-02T10:50:38.582Z</time></trkpt><trkpt lat="44.358356710867916" lon="11.342620118131709"><ele>298.33333333333337</ele><time>2026-05-02T10:50:39.582Z</time></trkpt><trkpt lat="44.35851613063891" lon="11.342442030274869"><ele>296.0</ele><time>2026-05-02T10:50:40.582Z</time></trkpt><trkpt lat="44.35869536266951" lon="11.342335296322956"><ele>296.0</ele><time>2026-05-02T10:50:41.582Z</time></trkpt><trkpt lat="44.35886390154218" lon="11.342252454459892"><ele>296.0</ele><time>2026-05-02T10:50:42.582Z</time></trkpt><trkpt lat="44.35903869502367" lon="11.342139652366065"><ele>296.0</ele><time>2026-05-02T10:50:43.582Z</time></trkpt><trkpt lat="44.35921632766156" lon="11.341988398064814"><ele>293.33333333333337</ele><time>2026-05-02T10:50:44.582Z</time></trkpt><trkpt lat="44.35938546524479" lon="11.341831427079898"><ele>290.6666666666667</ele><time>2026-05-02T10:50:45.582Z</time></trkpt><trkpt lat="44.359558446185005" lon="11.341677365999674"><ele>288.0</ele><time>2026-05-02T10:50:46.581Z</time></trkpt><trkpt lat="44.35973583079989" lon="11.341527878696706"><ele>283.0</ele><time>2026-05-02T10:50:47.581Z</time></trkpt><trkpt lat="44.35991292978923" lon="11.341365822112069"><ele>278.0</ele><time>2026-05-02T10:50:48.581Z</time></trkpt><trkpt lat="44.36008464755893" lon="11.341194545888163"><ele>273.0</ele><time>2026-05-02T10:50:49.581Z</time></trkpt><trkpt lat="44.360237083817616" lon="11.341015604812874"><ele>273.0</ele><time>2026-05-02T10:50:50.581Z</time></trkpt><trkpt lat="44.36038309034365" lon="11.340820013637584"><ele>273.0</ele><time>2026-05-02T10:50:51.581Z</time></trkpt><trkpt lat="44.360513750417724" lon="11.340616233640244"><ele>273.0</ele><time>2026-05-02T10:50:52.581Z</time></trkpt><trkpt lat="44.36063702209222" lon="11.340408488128485"><ele>271.0</ele><time>2026-05-02T10:50:53.581Z</time></trkpt><trkpt lat="44.360745472155834" lon="11.340230575215703"><ele>269.0</ele><time>2026-05-02T10:50:54.581Z</time></trkpt><trkpt lat="44.36086025460861" lon="11.340093039537962"><ele>267.0</ele><time>2026-05-02T10:50:55.581Z</time></trkpt><trkpt lat="44.36099245269815" lon="11.340010786091016"><ele>267.0</ele><time>2026-05-02T10:50:56.581Z</time></trkpt><trkpt lat="44.36113674465485" lon="11.340019391496684"><ele>267.0</ele><time>2026-05-02T10:50:57.581Z</time></trkpt><trkpt lat="44.36129543807879" lon="11.340112778380634"><ele>267.0</ele><time>2026-05-02T10:50:58.581Z</time></trkpt><trkpt lat="44.361465498432096" lon="11.340354761418295"><ele>269.6666666666667</ele><time>2026-05-02T10:50:59.581Z</time></trkpt><trkpt lat="44.36161952992207" lon="11.34055551884567"><ele>272.33333333333337</ele><time>2026-05-02T10:51:00.581Z</time></trkpt><trkpt lat="44.36177868118248" lon="11.340703534301532"><ele>275.0</ele><time>2026-05-02T10:51:01.581Z</time></trkpt><trkpt lat="44.36190532956908" lon="11.340821858951106"><ele>275.0</ele><time>2026-05-02T10:51:02.581Z</time></trkpt><trkpt lat="44.36202586197839" lon="11.340884284525666"><ele>275.0</ele><time>2026-05-02T10:51:03.581Z</time></trkpt><trkpt lat="44.36215881084406" lon="11.340822574102939"><ele>275.0</ele><time>2026-05-02T10:51:04.581Z</time></trkpt><trkpt lat="44.362272391762914" lon="11.340580475742419"><ele>267.33333333333337</ele><time>2026-05-02T10:51:05.581Z</time></trkpt><trkpt lat="44.36236409758516" lon="11.34035423636164"><ele>259.6666666666667</ele><time>2026-05-02T10:51:06.581Z</time></trkpt><trkpt lat="44.36246266785125" lon="11.34017393808321"><ele>252.0</ele><time>2026-05-02T10:51:07.581Z</time></trkpt><trkpt lat="44.36255779696168" lon="11.340083299528237"><ele>252.0</ele><time>2026-05-02T10:51:08.581Z</time></trkpt><trkpt lat="44.3626906327693" lon="11.34012415973028"><ele>252.0</ele><time>2026-05-02T10:51:09.581Z</time></trkpt><trkpt lat="44.36283309204061" lon="11.340252475988633"><ele>252.0</ele><time>2026-05-02T10:51:10.581Z</time></trkpt><trkpt lat="44.36297966740962" lon="11.340439200410325"><ele>251.66666666666669</ele><time>2026-05-02T10:51:11.581Z</time></trkpt><trkpt lat="44.36311796729764" lon="11.34064945416326"><ele>251.33333333333334</ele><time>2026-05-02T10:51:12.58Z</time></trkpt><trkpt lat="44.363262563177926" lon="11.340846436889636"><ele>251.0</ele><time>2026-05-02T10:51:13.58Z</time></trkpt><trkpt lat="44.363416025828194" lon="11.340996161963256"><ele>251.0</ele><time>2026-05-02T10:51:14.58Z</time></trkpt><trkpt lat="44.36356242679246" lon="11.341098070054253"><ele>251.0</ele><time>2026-05-02T10:51:15.58Z</time></trkpt><trkpt lat="44.36370943508791" lon="11.341174665870254"><ele>251.0</ele><time>2026-05-02T10:51:16.58Z</time></trkpt><trkpt lat="44.36385075976896" lon="11.341233674130084"><ele>248.75</ele><time>2026-05-02T10:51:17.58Z</time></trkpt><trkpt lat="44.363985027253854" lon="11.341296080891178"><ele>246.5</ele><time>2026-05-02T10:51:18.58Z</time></trkpt><trkpt lat="44.36411391422196" lon="11.341357383170175"><ele>244.25</ele><time>2026-05-02T10:51:19.58Z</time></trkpt><trkpt lat="44.364259711606024" lon="11.341440064998542"><ele>242.0</ele><time>2026-05-02T10:51:20.58Z</time></trkpt><trkpt lat="44.364428964190004" lon="11.341525671422048"><ele>242.0</ele><time>2026-05-02T10:51:21.58Z</time></trkpt><trkpt lat="44.36460295046684" lon="11.341635047033893"><ele>242.0</ele><time>2026-05-02T10:51:22.58Z</time></trkpt><trkpt lat="44.3647915731437" lon="11.341748501912665"><ele>242.0</ele><time>2026-05-02T10:51:23.58Z</time></trkpt><trkpt lat="44.36500112046238" lon="11.341852079908787"><ele>233.5</ele><time>2026-05-02T10:51:24.58Z</time></trkpt><trkpt lat="44.365220431828185" lon="11.341952673644553"><ele>225.0</ele><time>2026-05-02T10:51:25.58Z</time></trkpt><trkpt lat="44.36543723617938" lon="11.342057190099698"><ele>224.33333333333331</ele><time>2026-05-02T10:51:26.58Z</time></trkpt><trkpt lat="44.36563162656852" lon="11.342167459291458"><ele>223.66666666666666</ele><time>2026-05-02T10:51:27.58Z</time></trkpt><trkpt lat="44.36582699266247" lon="11.34228313104428"><ele>223.0</ele><time>2026-05-02T10:51:28.58Z</time></trkpt><trkpt lat="44.36602661727733" lon="11.342351084129199"><ele>223.0</ele><time>2026-05-02T10:51:29.58Z</time></trkpt><trkpt lat="44.36623998687857" lon="11.342364112512229"><ele>223.0</ele><time>2026-05-02T10:51:30.58Z</time></trkpt><trkpt lat="44.3664537021825" lon="11.342300639359959"><ele>223.0</ele><time>2026-05-02T10:51:31.58Z</time></trkpt><trkpt lat="44.36666515634314" lon="11.342225841755873"><ele>219.0</ele><time>2026-05-02T10:51:32.58Z</time></trkpt><trkpt lat="44.366877461408095" lon="11.342220475279845"><ele>215.0</ele><time>2026-05-02T10:51:33.58Z</time></trkpt><trkpt lat="44.36709619751709" lon="11.342351267817854"><ele>212.5</ele><time>2026-05-02T10:51:34.58Z</time></trkpt><trkpt lat="44.367315589470294" lon="11.342489547403607"><ele>210.0</ele><time>2026-05-02T10:51:35.58Z</time></trkpt><trkpt lat="44.36755358112525" lon="11.342584167127235"><ele>210.0</ele><time>2026-05-02T10:51:36.58Z</time></trkpt><trkpt lat="44.3677987832228" lon="11.34261925982688"><ele>210.0</ele><time>2026-05-02T10:51:37.579Z</time></trkpt><trkpt lat="44.368044486948385" lon="11.342660217291018"><ele>208.0</ele><time>2026-05-02T10:51:38.579Z</time></trkpt><trkpt lat="44.368279687740326" lon="11.342668928829406"><ele>206.0</ele><time>2026-05-02T10:51:39.579Z</time></trkpt><trkpt lat="44.3685161995175" lon="11.342618505373775"><ele>206.0</ele><time>2026-05-02T10:51:40.579Z</time></trkpt><trkpt lat="44.36873273848129" lon="11.342592692523743"><ele>206.0</ele><time>2026-05-02T10:51:41.579Z</time></trkpt><trkpt lat="44.36893313287202" lon="11.342622441884249"><ele>206.0</ele><time>2026-05-02T10:51:42.579Z</time></trkpt><trkpt lat="44.36911167926324" lon="11.342619610672012"><ele>202.66666666666669</ele><time>2026-05-02T10:51:43.579Z</time></trkpt><trkpt lat="44.36927528500159" lon="11.342542674284012"><ele>199.33333333333331</ele><time>2026-05-02T10:51:44.579Z</time></trkpt><trkpt lat="44.369417895169356" lon="11.34237830245012"><ele>196.0</ele><time>2026-05-02T10:51:45.579Z</time></trkpt><trkpt lat="44.369497873045276" lon="11.34212134024286"><ele>196.0</ele><time>2026-05-02T10:51:46.579Z</time></trkpt><trkpt lat="44.36952094770845" lon="11.341809746609991"><ele>196.0</ele><time>2026-05-02T10:51:47.579Z</time></trkpt><trkpt lat="44.3695176477526" lon="11.341529745243397"><ele>196.0</ele><time>2026-05-02T10:51:48.579Z</time></trkpt><trkpt lat="44.369463025860725" lon="11.34130520419758"><ele>193.66666666666666</ele><time>2026-05-02T10:51:49.579Z</time></trkpt><trkpt lat="44.36934612934911" lon="11.341129074525622"><ele>191.33333333333331</ele><time>2026-05-02T10:51:50.579Z</time></trkpt><trkpt lat="44.36918214800588" lon="11.340991872290104"><ele>189.0</ele><time>2026-05-02T10:51:51.579Z</time></trkpt><trkpt lat="44.368990473494875" lon="11.34091134658857"><ele>187.5</ele><time>2026-05-02T10:51:52.579Z</time></trkpt><trkpt lat="44.368817388913655" lon="11.340824165918567"><ele>186.0</ele><time>2026-05-02T10:51:53.579Z</time></trkpt><trkpt lat="44.36868875598579" lon="11.340729236691855"><ele>184.5</ele><time>2026-05-02T10:51:54.579Z</time></trkpt><trkpt lat="44.368599658545094" lon="11.340629568154874"><ele>183.0</ele><time>2026-05-02T10:51:55.579Z</time></trkpt><trkpt lat="44.36854928325816" lon="11.340534716072305"><ele>183.0</ele><time>2026-05-02T10:51:56.579Z</time></trkpt><trkpt lat="44.368566942645444" lon="11.340429162785917"><ele>183.0</ele><time>2026-05-02T10:51:57.579Z</time></trkpt><trkpt lat="44.36863462831003" lon="11.340380837992122"><ele>183.0</ele><time>2026-05-02T10:51:58.579Z</time></trkpt><trkpt lat="44.36872733358225" lon="11.340438205312989"><ele>183.0</ele><time>2026-05-02T10:51:59.579Z</time></trkpt><trkpt lat="44.36882697287922" lon="11.340584176894605"><ele>183.0</ele><time>2026-05-02T10:52:00.579Z</time></trkpt><trkpt lat="44.368954607119484" lon="11.340719699309115"><ele>184.5</ele><time>2026-05-02T10:52:01.579Z</time></trkpt><trkpt lat="44.36907955874836" lon="11.340814719707385"><ele>186.0</ele><time>2026-05-02T10:52:02.578Z</time></trkpt><trkpt lat="44.3692133124179" lon="11.340849684936218"><ele>187.5</ele><time>2026-05-02T10:52:03.578Z</time></trkpt><trkpt lat="44.36934833394382" lon="11.340770439105857"><ele>189.0</ele><time>2026-05-02T10:52:04.578Z</time></trkpt><trkpt lat="44.36947628288691" lon="11.340630751834992"><ele>184.66666666666666</ele><time>2026-05-02T10:52:05.578Z</time></trkpt><trkpt lat="44.36961304787252" lon="11.340475892299356"><ele>180.33333333333331</ele><time>2026-05-02T10:52:06.578Z</time></trkpt><trkpt lat="44.369731698521186" lon="11.34034462649436"><ele>176.0</ele><time>2026-05-02T10:52:07.578Z</time></trkpt><trkpt lat="44.369853476411095" lon="11.340260445612032"><ele>176.0</ele><time>2026-05-02T10:52:08.578Z</time></trkpt><trkpt lat="44.3699765479978" lon="11.340270897025352"><ele>176.0</ele><time>2026-05-02T10:52:09.578Z</time></trkpt><trkpt lat="44.37009823368607" lon="11.340219217237733"><ele>176.0</ele><time>2026-05-02T10:52:10.578Z</time></trkpt><trkpt lat="44.370202167089424" lon="11.340349685335408"><ele>176.0</ele><time>2026-05-02T10:52:11.578Z</time></trkpt><trkpt lat="44.3703001306267" lon="11.340453193394742"><ele>176.0</ele><time>2026-05-02T10:52:12.578Z</time></trkpt><trkpt lat="44.37041173171402" lon="11.340542548583107"><ele>176.0</ele><time>2026-05-02T10:52:13.578Z</time></trkpt><trkpt lat="44.37053095815145" lon="11.34061043937429"><ele>176.0</ele><time>2026-05-02T10:52:14.578Z</time></trkpt><trkpt lat="44.37063509024359" lon="11.340683902093721"><ele>176.0</ele><time>2026-05-02T10:52:15.578Z</time></trkpt><trkpt lat="44.37073400585091" lon="11.34075173383979"><ele>175.85714285714286</ele><time>2026-05-02T10:52:16.578Z</time></trkpt><trkpt lat="44.37082156714447" lon="11.340810816267151"><ele>175.71428571428572</ele><time>2026-05-02T10:52:17.578Z</time></trkpt><trkpt lat="44.37089030479356" lon="11.340864011730718"><ele>175.57142857142856</ele><time>2026-05-02T10:52:18.578Z</time></trkpt><trkpt lat="44.37094860623897" lon="11.340902504251495"><ele>175.42857142857144</ele><time>2026-05-02T10:52:19.578Z</time></trkpt><trkpt lat="44.371028173078905" lon="11.340976046839602"><ele>175.28571428571428</ele><time>2026-05-02T10:52:21.578Z</time></trkpt><trkpt lat="44.37101812323939" lon="11.341076433653914"><ele>175.14285714285714</ele><time>2026-05-02T10:52:24.578Z</time></trkpt><trkpt lat="44.371017805829844" lon="11.341049196388292"><ele>175.0</ele><time>2026-05-02T10:55:03.574Z</time></trkpt><trkpt lat="44.371086337499186" lon="11.341039431019707"><ele>175.0</ele><time>2026-05-02T10:55:07.574Z</time></trkpt><trkpt lat="44.37107129942954" lon="11.340941709146783"><ele>175.0</ele><time>2026-05-02T10:55:13.574Z</time></trkpt><trkpt lat="44.37100579484487" lon="11.340888390946503"><ele>175.0</ele><time>2026-05-02T10:55:15.574Z</time></trkpt><trkpt lat="44.37089225882185" lon="11.340808740530147"><ele>175.0</ele><time>2026-05-02T10:55:17.574Z</time></trkpt><trkpt lat="44.370864454983355" lon="11.340721811598067"><ele>175.0</ele><time>2026-05-02T10:55:19.574Z</time></trkpt><trkpt lat="44.37091797726903" lon="11.340632884467992"><ele>175.0</ele><time>2026-05-02T10:55:21.574Z</time></trkpt><trkpt lat="44.370950671467334" lon="11.340521723558837"><ele>174.5</ele><time>2026-05-02T10:55:24.574Z</time></trkpt><trkpt lat="44.37097392643578" lon="11.340423495250853"><ele>174.0</ele><time>2026-05-02T10:55:26.574Z</time></trkpt><trkpt lat="44.37100960721414" lon="11.34028940289707"><ele>173.5</ele><time>2026-05-02T10:55:28.573Z</time></trkpt><trkpt lat="44.371086438964774" lon="11.340186678391401"><ele>173.0</ele><time>2026-05-02T10:55:30.573Z</time></trkpt><trkpt lat="44.37115714924107" lon="11.340168864586307"><ele>172.5</ele><time>2026-05-02T10:55:31.573Z</time></trkpt><trkpt lat="44.371239971802524" lon="11.340146765759235"><ele>172.0</ele><time>2026-05-02T10:55:32.573Z</time></trkpt><trkpt lat="44.371334336722185" lon="11.340107033221145"><ele>172.0</ele><time>2026-05-02T10:55:33.573Z</time></trkpt><trkpt lat="44.37143593125442" lon="11.340054554597325"><ele>172.0</ele><time>2026-05-02T10:55:34.573Z</time></trkpt><trkpt lat="44.371533031162436" lon="11.339999536074757"><ele>172.0</ele><time>2026-05-02T10:55:35.573Z</time></trkpt><trkpt lat="44.371629723295236" lon="11.339948966750105"><ele>172.0</ele><time>2026-05-02T10:55:36.573Z</time></trkpt><trkpt lat="44.37173671851773" lon="11.339899969954113"><ele>172.0</ele><time>2026-05-02T10:55:37.573Z</time></trkpt><trkpt lat="44.37184735041067" lon="11.339845124823528"><ele>172.0</ele><time>2026-05-02T10:55:38.573Z</time></trkpt><trkpt lat="44.371958302427565" lon="11.339787413546894"><ele>172.0</ele><time>2026-05-02T10:55:39.573Z</time></trkpt><trkpt lat="44.37206562408243" lon="11.339742022542305"><ele>172.0</ele><time>2026-05-02T10:55:40.573Z</time></trkpt><trkpt lat="44.372174863630065" lon="11.339705042551099"><ele>172.0</ele><time>2026-05-02T10:55:41.573Z</time></trkpt><trkpt lat="44.37228455737418" lon="11.339672724269727"><ele>174.5</ele><time>2026-05-02T10:55:42.573Z</time></trkpt><trkpt lat="44.372405643035904" lon="11.339623135384059"><ele>177.0</ele><time>2026-05-02T10:55:43.573Z</time></trkpt><trkpt lat="44.37252556354492" lon="11.339574106769085"><ele>179.5</ele><time>2026-05-02T10:55:44.573Z</time></trkpt><trkpt lat="44.37265740967474" lon="11.339518065343244"><ele>182.0</ele><time>2026-05-02T10:55:45.573Z</time></trkpt><trkpt lat="44.3728037715296" lon="11.339456163182891"><ele>182.0</ele><time>2026-05-02T10:55:46.573Z</time></trkpt><trkpt lat="44.37295539929649" lon="11.339386394043617"><ele>182.0</ele><time>2026-05-02T10:55:47.573Z</time></trkpt><trkpt lat="44.37311262336946" lon="11.339292238018658"><ele>182.0</ele><time>2026-05-02T10:55:48.573Z</time></trkpt><trkpt lat="44.37326753955787" lon="11.339164794266653"><ele>180.66666666666666</ele><time>2026-05-02T10:55:49.573Z</time></trkpt><trkpt lat="44.37342125389365" lon="11.339023585374068"><ele>179.33333333333334</ele><time>2026-05-02T10:55:50.573Z</time></trkpt><trkpt lat="44.37358370037026" lon="11.338878132008189"><ele>178.0</ele><time>2026-05-02T10:55:51.573Z</time></trkpt><trkpt lat="44.37375018223303" lon="11.338756164855422"><ele>175.33333333333334</ele><time>2026-05-02T10:55:52.573Z</time></trkpt><trkpt lat="44.373932898943714" lon="11.338685335079413"><ele>172.66666666666666</ele><time>2026-05-02T10:55:53.572Z</time></trkpt><trkpt lat="44.37413118880404" lon="11.338631537324057"><ele>170.0</ele><time>2026-05-02T10:55:54.572Z</time></trkpt><trkpt lat="44.374329864002256" lon="11.338551121534453"><ele>170.0</ele><time>2026-05-02T10:55:55.572Z</time></trkpt><trkpt lat="44.37450674284008" lon="11.338433575656033"><ele>170.0</ele><time>2026-05-02T10:55:56.572Z</time></trkpt><trkpt lat="44.37466716694278" lon="11.338269074142787"><ele>170.0</ele><time>2026-05-02T10:55:57.572Z</time></trkpt><trkpt lat="44.374822134273884" lon="11.338086456109071"><ele>167.66666666666666</ele><time>2026-05-02T10:55:58.572Z</time></trkpt><trkpt lat="44.37496899397276" lon="11.337899536753193"><ele>165.33333333333334</ele><time>2026-05-02T10:55:59.572Z</time></trkpt><trkpt lat="44.37512994821858" lon="11.337717965143204"><ele>163.0</ele><time>2026-05-02T10:56:00.572Z</time></trkpt><trkpt lat="44.375303496319866" lon="11.337546851964984"><ele>163.0</ele><time>2026-05-02T10:56:01.572Z</time></trkpt><trkpt lat="44.37548279072866" lon="11.337375464888671"><ele>163.0</ele><time>2026-05-02T10:56:02.572Z</time></trkpt><trkpt lat="44.37566459475485" lon="11.337223582387042"><ele>163.0</ele><time>2026-05-02T10:56:03.572Z</time></trkpt><trkpt lat="44.37585053694465" lon="11.337082012323544"><ele>163.0</ele><time>2026-05-02T10:56:04.572Z</time></trkpt><trkpt lat="44.3760467675496" lon="11.336967971945018"><ele>163.0</ele><time>2026-05-02T10:56:05.572Z</time></trkpt><trkpt lat="44.376246895363494" lon="11.33688658421415"><ele>163.0</ele><time>2026-05-02T10:56:06.572Z</time></trkpt><trkpt lat="44.37644314317691" lon="11.336832519736658"><ele>163.0</ele><time>2026-05-02T10:56:07.572Z</time></trkpt><trkpt lat="44.37662790996709" lon="11.336819638130752"><ele>163.0</ele><time>2026-05-02T10:56:08.572Z</time></trkpt><trkpt lat="44.37679937150735" lon="11.336873964174755"><ele>163.0</ele><time>2026-05-02T10:56:09.572Z</time></trkpt><trkpt lat="44.3769666795112" lon="11.336987310699566"><ele>163.0</ele><time>2026-05-02T10:56:10.572Z</time></trkpt><trkpt lat="44.37712543560467" lon="11.337160766741126"><ele>163.0</ele><time>2026-05-02T10:56:11.572Z</time></trkpt><trkpt lat="44.37728519824868" lon="11.337351147404917"><ele>163.0</ele><time>2026-05-02T10:56:12.572Z</time></trkpt><trkpt lat="44.3774489098047" lon="11.337536137580068"><ele>163.33333333333334</ele><time>2026-05-02T10:56:13.572Z</time></trkpt><trkpt lat="44.37761729296491" lon="11.337701615591556"><ele>163.66666666666666</ele><time>2026-05-02T10:56:14.572Z</time></trkpt><trkpt lat="44.37779431327689" lon="11.33783383270527"><ele>164.0</ele><time>2026-05-02T10:56:15.572Z</time></trkpt><trkpt lat="44.3779836722877" lon="11.337927996907805"><ele>167.0</ele><time>2026-05-02T10:56:16.572Z</time></trkpt><trkpt lat="44.378182339095424" lon="11.33797075145274"><ele>170.0</ele><time>2026-05-02T10:56:17.572Z</time></trkpt><trkpt lat="44.378377879950555" lon="11.337968958476324"><ele>173.0</ele><time>2026-05-02T10:56:18.571Z</time></trkpt><trkpt lat="44.37857969443395" lon="11.337940579663785"><ele>173.0</ele><time>2026-05-02T10:56:19.571Z</time></trkpt><trkpt lat="44.37878051719231" lon="11.337910314894632"><ele>173.0</ele><time>2026-05-02T10:56:20.571Z</time></trkpt><trkpt lat="44.37898620504656" lon="11.337866555025569"><ele>173.0</ele><time>2026-05-02T10:56:21.571Z</time></trkpt><trkpt lat="44.37918769503851" lon="11.337798264770234"><ele>171.0</ele><time>2026-05-02T10:56:22.571Z</time></trkpt><trkpt lat="44.379389684263806" lon="11.337719646509127"><ele>169.0</ele><time>2026-05-02T10:56:23.571Z</time></trkpt><trkpt lat="44.379593329328145" lon="11.337661935387068"><ele>167.0</ele><time>2026-05-02T10:56:24.571Z</time></trkpt><trkpt lat="44.37979913601513" lon="11.337624889823903"><ele>164.33333333333331</ele><time>2026-05-02T10:56:25.571Z</time></trkpt><trkpt lat="44.38000677684438" lon="11.337596465805227"><ele>161.66666666666666</ele><time>2026-05-02T10:56:26.571Z</time></trkpt><trkpt lat="44.380215777561844" lon="11.337559036462658"><ele>159.0</ele><time>2026-05-02T10:56:27.571Z</time></trkpt><trkpt lat="44.380424774467144" lon="11.337498135489499"><ele>159.0</ele><time>2026-05-02T10:56:28.571Z</time></trkpt><trkpt lat="44.380627877335655" lon="11.337413905403363"><ele>159.0</ele><time>2026-05-02T10:56:29.571Z</time></trkpt><trkpt lat="44.38082748738525" lon="11.337312697631873"><ele>159.0</ele><time>2026-05-02T10:56:30.571Z</time></trkpt><trkpt lat="44.381028896731436" lon="11.337201934546693"><ele>159.0</ele><time>2026-05-02T10:56:31.571Z</time></trkpt><trkpt lat="44.381229054097666" lon="11.337100818194678"><ele>159.0</ele><time>2026-05-02T10:56:32.571Z</time></trkpt><trkpt lat="44.38142855797903" lon="11.336994965730618"><ele>159.0</ele><time>2026-05-02T10:56:33.571Z</time></trkpt><trkpt lat="44.38162873359268" lon="11.336890721554234"><ele>158.66666666666666</ele><time>2026-05-02T10:56:34.571Z</time></trkpt><trkpt lat="44.38182921943591" lon="11.336786310187101"><ele>158.33333333333331</ele><time>2026-05-02T10:56:35.571Z</time></trkpt><trkpt lat="44.38202983301796" lon="11.336679593329814"><ele>158.0</ele><time>2026-05-02T10:56:36.571Z</time></trkpt><trkpt lat="44.382227691979246" lon="11.336564466155604"><ele>158.0</ele><time>2026-05-02T10:56:37.571Z</time></trkpt><trkpt lat="44.382425996103336" lon="11.33644348525813"><ele>158.0</ele><time>2026-05-02T10:56:38.571Z</time></trkpt><trkpt lat="44.38262640836351" lon="11.336327483815795"><ele>158.0</ele><time>2026-05-02T10:56:39.571Z</time></trkpt><trkpt lat="44.382827170115036" lon="11.336208899013394"><ele>157.0</ele><time>2026-05-02T10:56:40.571Z</time></trkpt><trkpt lat="44.383029836549916" lon="11.33609106804478"><ele>156.0</ele><time>2026-05-02T10:56:41.572Z</time></trkpt><trkpt lat="44.38323137763105" lon="11.335973846570043"><ele>155.0</ele><time>2026-05-02T10:56:42.571Z</time></trkpt><trkpt lat="44.38343392072546" lon="11.335860615596076"><ele>155.0</ele><time>2026-05-02T10:56:43.571Z</time></trkpt><trkpt lat="44.38363610828589" lon="11.335745078037258"><ele>155.0</ele><time>2026-05-02T10:56:44.572Z</time></trkpt><trkpt lat="44.38383638631665" lon="11.335631722348046"><ele>155.0</ele><time>2026-05-02T10:56:45.572Z</time></trkpt><trkpt lat="44.38403868287061" lon="11.335530758203657"><ele>155.0</ele><time>2026-05-02T10:56:46.572Z</time></trkpt><trkpt lat="44.38424374438674" lon="11.335449217055741"><ele>155.0</ele><time>2026-05-02T10:56:47.572Z</time></trkpt><trkpt lat="44.38444556995837" lon="11.335380151160228"><ele>155.0</ele><time>2026-05-02T10:56:48.571Z</time></trkpt><trkpt lat="44.38464702325423" lon="11.335333216998123"><ele>154.66666666666666</ele><time>2026-05-02T10:56:49.571Z</time></trkpt><trkpt lat="44.38485420465889" lon="11.335313220281385"><ele>154.33333333333334</ele><time>2026-05-02T10:56:50.572Z</time></trkpt><trkpt lat="44.38506218376263" lon="11.335301782835417"><ele>154.0</ele><time>2026-05-02T10:56:51.571Z</time></trkpt><trkpt lat="44.38527080055702" lon="11.335299159886638"><ele>154.0</ele><time>2026-05-02T10:56:52.571Z</time></trkpt><trkpt lat="44.385477103486096" lon="11.335293317601344"><ele>154.0</ele><time>2026-05-02T10:56:53.571Z</time></trkpt><trkpt lat="44.385683132830515" lon="11.335287833125365"><ele>154.0</ele><time>2026-05-02T10:56:54.571Z</time></trkpt><trkpt lat="44.38588861087139" lon="11.335285487644104"><ele>154.33333333333334</ele><time>2026-05-02T10:56:55.571Z</time></trkpt><trkpt lat="44.386095837828016" lon="11.33529206300669"><ele>154.66666666666666</ele><time>2026-05-02T10:56:56.571Z</time></trkpt><trkpt lat="44.38629940530798" lon="11.335289504279867"><ele>155.0</ele><time>2026-05-02T10:56:57.571Z</time></trkpt><trkpt lat="44.386504046664086" lon="11.335286028586863"><ele>154.33333333333331</ele><time>2026-05-02T10:56:58.571Z</time></trkpt><trkpt lat="44.386709333672755" lon="11.335275853287923"><ele>153.66666666666666</ele><time>2026-05-02T10:56:59.571Z</time></trkpt><trkpt lat="44.386915094951654" lon="11.3352702464098"><ele>153.0</ele><time>2026-05-02T10:57:00.571Z</time></trkpt><trkpt lat="44.38712015249781" lon="11.335267577074793"><ele>152.0</ele><time>2026-05-02T10:57:01.571Z</time></trkpt><trkpt lat="44.387323270422776" lon="11.335261528927193"><ele>151.0</ele><time>2026-05-02T10:57:02.571Z</time></trkpt><trkpt lat="44.38752891948085" lon="11.335251360476786"><ele>150.0</ele><time>2026-05-02T10:57:03.571Z</time></trkpt><trkpt lat="44.387736346025335" lon="11.335242449039951"><ele>150.0</ele><time>2026-05-02T10:57:04.571Z</time></trkpt><trkpt lat="44.387942270458815" lon="11.335232021553573"><ele>150.0</ele><time>2026-05-02T10:57:05.571Z</time></trkpt><trkpt lat="44.3881476160723" lon="11.335228439013155"><ele>150.0</ele><time>2026-05-02T10:57:06.571Z</time></trkpt><trkpt lat="44.3883526093028" lon="11.335214749244207"><ele>150.0</ele><time>2026-05-02T10:57:07.571Z</time></trkpt><trkpt lat="44.38855851227842" lon="11.335204875262267"><ele>150.0</ele><time>2026-05-02T10:57:08.571Z</time></trkpt><trkpt lat="44.38876615774615" lon="11.335193495525056"><ele>150.0</ele><time>2026-05-02T10:57:09.571Z</time></trkpt><trkpt lat="44.388973175423786" lon="11.335195030544307"><ele>148.66666666666666</ele><time>2026-05-02T10:57:10.571Z</time></trkpt><trkpt lat="44.38917841549499" lon="11.335196700943758"><ele>147.33333333333331</ele><time>2026-05-02T10:57:11.571Z</time></trkpt><trkpt lat="44.3893854463571" lon="11.33520201198698"><ele>146.0</ele><time>2026-05-02T10:57:12.571Z</time></trkpt><trkpt lat="44.38959169775419" lon="11.33521054581084"><ele>147.33333333333331</ele><time>2026-05-02T10:57:13.571Z</time></trkpt><trkpt lat="44.389798781319804" lon="11.335224780034254"><ele>148.66666666666666</ele><time>2026-05-02T10:57:14.571Z</time></trkpt><trkpt lat="44.390008583361904" lon="11.335248581051113"><ele>150.0</ele><time>2026-05-02T10:57:15.57Z</time></trkpt><trkpt lat="44.39020463535279" lon="11.33528103886497"><ele>150.0</ele><time>2026-05-02T10:57:16.57Z</time></trkpt><trkpt lat="44.390398950186245" lon="11.335315267868285"><ele>150.0</ele><time>2026-05-02T10:57:17.57Z</time></trkpt><trkpt lat="44.390596956527666" lon="11.335348336597127"><ele>150.0</ele><time>2026-05-02T10:57:18.57Z</time></trkpt><trkpt lat="44.39079395124009" lon="11.335382922692457"><ele>149.66666666666666</ele><time>2026-05-02T10:57:19.57Z</time></trkpt><trkpt lat="44.39099156513258" lon="11.335415302570226"><ele>149.33333333333331</ele><time>2026-05-02T10:57:20.57Z</time></trkpt><trkpt lat="44.3911920276724" lon="11.335444663771732"><ele>149.0</ele><time>2026-05-02T10:57:21.57Z</time></trkpt><trkpt lat="44.39139523073272" lon="11.335477236244495"><ele>148.33333333333331</ele><time>2026-05-02T10:57:22.57Z</time></trkpt><trkpt lat="44.39160230914057" lon="11.335508641365521"><ele>147.66666666666666</ele><time>2026-05-02T10:57:23.57Z</time></trkpt><trkpt lat="44.39181021379473" lon="11.335539552800977"><ele>147.0</ele><time>2026-05-02T10:57:24.57Z</time></trkpt><trkpt lat="44.39201864354813" lon="11.335569771195146"><ele>146.0</ele><time>2026-05-02T10:57:25.57Z</time></trkpt><trkpt lat="44.392225066873024" lon="11.335599759082335"><ele>145.0</ele><time>2026-05-02T10:57:26.57Z</time></trkpt><trkpt lat="44.3924308598138" lon="11.335630602613557"><ele>144.0</ele><time>2026-05-02T10:57:27.57Z</time></trkpt><trkpt lat="44.39263154049784" lon="11.335657463868014"><ele>144.0</ele><time>2026-05-02T10:57:28.57Z</time></trkpt><trkpt lat="44.39282961087865" lon="11.335685639196807"><ele>144.0</ele><time>2026-05-02T10:57:29.57Z</time></trkpt><trkpt lat="44.393024542225476" lon="11.3357167530468"><ele>144.0</ele><time>2026-05-02T10:57:30.57Z</time></trkpt><trkpt lat="44.39322060432094" lon="11.335750949855496"><ele>144.66666666666666</ele><time>2026-05-02T10:57:31.57Z</time></trkpt><trkpt lat="44.393418516737405" lon="11.335791651150798"><ele>145.33333333333331</ele><time>2026-05-02T10:57:32.57Z</time></trkpt><trkpt lat="44.39362250191011" lon="11.335848977890395"><ele>146.0</ele><time>2026-05-02T10:57:33.57Z</time></trkpt><trkpt lat="44.39381820544143" lon="11.335908944385878"><ele>145.66666666666666</ele><time>2026-05-02T10:57:34.57Z</time></trkpt><trkpt lat="44.39401566338204" lon="11.335973267436188"><ele>145.33333333333334</ele><time>2026-05-02T10:57:35.57Z</time></trkpt><trkpt lat="44.39420982479557" lon="11.336046114828541"><ele>145.0</ele><time>2026-05-02T10:57:36.57Z</time></trkpt><trkpt lat="44.39440282299323" lon="11.336127335191842"><ele>145.0</ele><time>2026-05-02T10:57:37.57Z</time></trkpt><trkpt lat="44.39459725738726" lon="11.336213420193149"><ele>145.0</ele><time>2026-05-02T10:57:38.57Z</time></trkpt><trkpt lat="44.39479101084606" lon="11.33629865684223"><ele>145.0</ele><time>2026-05-02T10:57:39.57Z</time></trkpt><trkpt lat="44.394985076118374" lon="11.336385777628097"><ele>144.33333333333334</ele><time>2026-05-02T10:57:40.57Z</time></trkpt><trkpt lat="44.39518251562693" lon="11.336477795935556"><ele>143.66666666666666</ele><time>2026-05-02T10:57:41.569Z</time></trkpt><trkpt lat="44.39537913521046" lon="11.336569001535334"><ele>143.0</ele><time>2026-05-02T10:57:42.569Z</time></trkpt><trkpt lat="44.39557658108237" lon="11.336658891990966"><ele>143.0</ele><time>2026-05-02T10:57:43.569Z</time></trkpt><trkpt lat="44.395775457639836" lon="11.336748218626408"><ele>143.0</ele><time>2026-05-02T10:57:44.569Z</time></trkpt><trkpt lat="44.395973529396834" lon="11.336837075125992"><ele>143.0</ele><time>2026-05-02T10:57:45.569Z</time></trkpt><trkpt lat="44.39616902833399" lon="11.336924919455289"><ele>142.33333333333331</ele><time>2026-05-02T10:57:46.569Z</time></trkpt><trkpt lat="44.39636835202876" lon="11.33701353814338"><ele>141.66666666666666</ele><time>2026-05-02T10:57:47.569Z</time></trkpt><trkpt lat="44.396566308739104" lon="11.337094624239526"><ele>141.0</ele><time>2026-05-02T10:57:48.569Z</time></trkpt><trkpt lat="44.39676586675963" lon="11.33717025176625"><ele>140.66666666666666</ele><time>2026-05-02T10:57:49.569Z</time></trkpt><trkpt lat="44.396966020942365" lon="11.337242337020022"><ele>140.33333333333331</ele><time>2026-05-02T10:57:50.569Z</time></trkpt><trkpt lat="44.3971664630647" lon="11.337300065598058"><ele>140.0</ele><time>2026-05-02T10:57:51.569Z</time></trkpt><trkpt lat="44.39736441380422" lon="11.337348240393803"><ele>139.66666666666666</ele><time>2026-05-02T10:57:52.569Z</time></trkpt><trkpt lat="44.39756008992862" lon="11.337392364133922"><ele>139.33333333333334</ele><time>2026-05-02T10:57:53.569Z</time></trkpt><trkpt lat="44.397745779516654" lon="11.33743205468832"><ele>139.0</ele><time>2026-05-02T10:57:54.569Z</time></trkpt><trkpt lat="44.39791517009659" lon="11.337456828681931"><ele>139.0</ele><time>2026-05-02T10:57:55.569Z</time></trkpt><trkpt lat="44.39806523641555" lon="11.337470293610904"><ele>139.0</ele><time>2026-05-02T10:57:56.569Z</time></trkpt><trkpt lat="44.39819893726048" lon="11.337470421510144"><ele>139.0</ele><time>2026-05-02T10:57:57.569Z</time></trkpt><trkpt lat="44.3983219515034" lon="11.3374593064438"><ele>139.0</ele><time>2026-05-02T10:57:58.569Z</time></trkpt><trkpt lat="44.39843818676188" lon="11.337477435427004"><ele>139.0</ele><time>2026-05-02T10:57:59.569Z</time></trkpt><trkpt lat="44.398534843371266" lon="11.337538779245182"><ele>139.0</ele><time>2026-05-02T10:58:00.569Z</time></trkpt><trkpt lat="44.39863906337661" lon="11.337590848963082"><ele>139.0</ele><time>2026-05-02T10:58:01.569Z</time></trkpt><trkpt lat="44.39875472965739" lon="11.337625371304751"><ele>139.0</ele><time>2026-05-02T10:58:02.569Z</time></trkpt><trkpt lat="44.39887616421427" lon="11.337663834887927"><ele>138.75</ele><time>2026-05-02T10:58:03.569Z</time></trkpt><trkpt lat="44.399011969556845" lon="11.33770585368939"><ele>138.5</ele><time>2026-05-02T10:58:04.569Z</time></trkpt><trkpt lat="44.39915752045039" lon="11.337743143486666"><ele>138.25</ele><time>2026-05-02T10:58:05.569Z</time></trkpt><trkpt lat="44.399303013814325" lon="11.337777294367198"><ele>138.0</ele><time>2026-05-02T10:58:06.568Z</time></trkpt><trkpt lat="44.399448503342086" lon="11.337810481662164"><ele>138.0</ele><time>2026-05-02T10:58:07.568Z</time></trkpt><trkpt lat="44.39960450951101" lon="11.337834139451061"><ele>138.0</ele><time>2026-05-02T10:58:08.568Z</time></trkpt><trkpt lat="44.39977250965736" lon="11.337863712908694"><ele>138.0</ele><time>2026-05-02T10:58:09.568Z</time></trkpt><trkpt lat="44.39995122696592" lon="11.337892958474317"><ele>138.0</ele><time>2026-05-02T10:58:10.568Z</time></trkpt><trkpt lat="44.400132540484506" lon="11.337926787462036"><ele>138.0</ele><time>2026-05-02T10:58:11.568Z</time></trkpt><trkpt lat="44.40031504950233" lon="11.337965932160527"><ele>138.0</ele><time>2026-05-02T10:58:12.568Z</time></trkpt><trkpt lat="44.4005023391277" lon="11.338002960597116"><ele>137.66666666666666</ele><time>2026-05-02T10:58:13.568Z</time></trkpt><trkpt lat="44.40069046253844" lon="11.338044557181812"><ele>137.33333333333331</ele><time>2026-05-02T10:58:14.568Z</time></trkpt><trkpt lat="44.40089004803322" lon="11.338068499896433"><ele>137.0</ele><time>2026-05-02T10:58:15.568Z</time></trkpt><trkpt lat="44.4010878622811" lon="11.338096610771439"><ele>137.0</ele><time>2026-05-02T10:58:16.568Z</time></trkpt><trkpt lat="44.401285113147246" lon="11.338129024704314"><ele>137.0</ele><time>2026-05-02T10:58:17.568Z</time></trkpt><trkpt lat="44.40148613368028" lon="11.338164251858409"><ele>137.0</ele><time>2026-05-02T10:58:18.568Z</time></trkpt><trkpt lat="44.40169148065882" lon="11.338214326082491"><ele>136.0</ele><time>2026-05-02T10:58:19.568Z</time></trkpt><trkpt lat="44.40189089479781" lon="11.33828694802567"><ele>135.0</ele><time>2026-05-02T10:58:20.568Z</time></trkpt><trkpt lat="44.40208969701639" lon="11.338383229045782"><ele>134.0</ele><time>2026-05-02T10:58:21.568Z</time></trkpt><trkpt lat="44.40227627271035" lon="11.338487201559325"><ele>134.0</ele><time>2026-05-02T10:58:22.568Z</time></trkpt><trkpt lat="44.40246212901246" lon="11.338596525322902"><ele>134.0</ele><time>2026-05-02T10:58:23.568Z</time></trkpt><trkpt lat="44.40264666838349" lon="11.338709612984669"><ele>134.0</ele><time>2026-05-02T10:58:24.568Z</time></trkpt><trkpt lat="44.40282305745144" lon="11.33883030056085"><ele>133.66666666666666</ele><time>2026-05-02T10:58:25.568Z</time></trkpt><trkpt lat="44.40299331851122" lon="11.33895778931783"><ele>133.33333333333334</ele><time>2026-05-02T10:58:26.568Z</time></trkpt><trkpt lat="44.40316341145519" lon="11.339086025207314"><ele>133.0</ele><time>2026-05-02T10:58:27.568Z</time></trkpt><trkpt lat="44.403337548842984" lon="11.339212169802535"><ele>132.66666666666669</ele><time>2026-05-02T10:58:28.568Z</time></trkpt><trkpt lat="44.403513051503744" lon="11.339334400428331"><ele>132.33333333333334</ele><time>2026-05-02T10:58:29.568Z</time></trkpt><trkpt lat="44.40368925612305" lon="11.339457535484017"><ele>132.0</ele><time>2026-05-02T10:58:30.568Z</time></trkpt><trkpt lat="44.403866044260305" lon="11.339579201161722"><ele>131.66666666666666</ele><time>2026-05-02T10:58:31.568Z</time></trkpt><trkpt lat="44.404043363266055" lon="11.339702674025299"><ele>131.33333333333331</ele><time>2026-05-02T10:58:32.567Z</time></trkpt><trkpt lat="44.40422264047026" lon="11.339829017059166"><ele>131.0</ele><time>2026-05-02T10:58:33.567Z</time></trkpt><trkpt lat="44.404402112115605" lon="11.339959240683712"><ele>131.0</ele><time>2026-05-02T10:58:34.567Z</time></trkpt><trkpt lat="44.40458149846187" lon="11.340089196789732"><ele>131.0</ele><time>2026-05-02T10:58:35.567Z</time></trkpt><trkpt lat="44.404764781180575" lon="11.340218855491662"><ele>131.0</ele><time>2026-05-02T10:58:36.567Z</time></trkpt><trkpt lat="44.40494904869565" lon="11.340351395851188"><ele>131.0</ele><time>2026-05-02T10:58:37.567Z</time></trkpt><trkpt lat="44.40513164326155" lon="11.34048814397058"><ele>131.0</ele><time>2026-05-02T10:58:38.567Z</time></trkpt><trkpt lat="44.405318282344126" lon="11.340622341044968"><ele>131.0</ele><time>2026-05-02T10:58:39.567Z</time></trkpt><trkpt lat="44.40550339406906" lon="11.340753706385803"><ele>130.0</ele><time>2026-05-02T10:58:40.567Z</time></trkpt><trkpt lat="44.405692397193164" lon="11.340884738655678"><ele>129.0</ele><time>2026-05-02T10:58:41.567Z</time></trkpt><trkpt lat="44.40588087500507" lon="11.341016993490227"><ele>128.0</ele><time>2026-05-02T10:58:42.567Z</time></trkpt><trkpt lat="44.406069037559824" lon="11.341155740869846"><ele>128.0</ele><time>2026-05-02T10:58:43.567Z</time></trkpt><trkpt lat="44.40626382183322" lon="11.341283798261669"><ele>128.0</ele><time>2026-05-02T10:58:44.567Z</time></trkpt><trkpt lat="44.40644784756662" lon="11.341415428728675"><ele>128.0</ele><time>2026-05-02T10:58:45.567Z</time></trkpt><trkpt lat="44.406634733067314" lon="11.341554661640648"><ele>128.0</ele><time>2026-05-02T10:58:46.567Z</time></trkpt><trkpt lat="44.40682039597149" lon="11.341687708300872"><ele>128.0</ele><time>2026-05-02T10:58:47.568Z</time></trkpt><trkpt lat="44.407005645719984" lon="11.341817820061888"><ele>128.0</ele><time>2026-05-02T10:58:48.569Z</time></trkpt><trkpt lat="44.407189336265624" lon="11.341947848991394"><ele>127.66666666666666</ele><time>2026-05-02T10:58:49.568Z</time></trkpt><trkpt lat="44.40736873141965" lon="11.342076319792662"><ele>127.33333333333334</ele><time>2026-05-02T10:58:50.569Z</time></trkpt><trkpt lat="44.407548225375194" lon="11.34220597765136"><ele>127.0</ele><time>2026-05-02T10:58:51.568Z</time></trkpt><trkpt lat="44.407728505027634" lon="11.34233537441025"><ele>127.0</ele><time>2026-05-02T10:58:52.568Z</time></trkpt><trkpt lat="44.40791198756601" lon="11.342464224336224"><ele>127.0</ele><time>2026-05-02T10:58:53.568Z</time></trkpt><trkpt lat="44.40809342512494" lon="11.342593057561322"><ele>127.0</ele><time>2026-05-02T10:58:54.568Z</time></trkpt><trkpt lat="44.40827443245986" lon="11.342719221484739"><ele>127.33333333333334</ele><time>2026-05-02T10:58:55.568Z</time></trkpt><trkpt lat="44.40845521786647" lon="11.342843975932608"><ele>127.66666666666666</ele><time>2026-05-02T10:58:56.568Z</time></trkpt><trkpt lat="44.40863444131344" lon="11.342978943745935"><ele>128.0</ele><time>2026-05-02T10:58:57.568Z</time></trkpt><trkpt lat="44.40881104348" lon="11.34311292644391"><ele>128.0</ele><time>2026-05-02T10:58:58.568Z</time></trkpt><trkpt lat="44.40899259579196" lon="11.343244495147625"><ele>128.0</ele><time>2026-05-02T10:58:59.568Z</time></trkpt><trkpt lat="44.409173943427774" lon="11.34337677214676"><ele>128.0</ele><time>2026-05-02T10:59:00.568Z</time></trkpt><trkpt lat="44.40935637303231" lon="11.343510426090136"><ele>128.0</ele><time>2026-05-02T10:59:01.568Z</time></trkpt><trkpt lat="44.40954165565521" lon="11.343646926031823"><ele>128.0</ele><time>2026-05-02T10:59:02.568Z</time></trkpt><trkpt lat="44.40972818730928" lon="11.343781670397044"><ele>128.0</ele><time>2026-05-02T10:59:03.568Z</time></trkpt><trkpt lat="44.409912946162635" lon="11.34391449659144"><ele>128.33333333333331</ele><time>2026-05-02T10:59:04.568Z</time></trkpt><trkpt lat="44.41009802078912" lon="11.344047448795855"><ele>128.66666666666666</ele><time>2026-05-02T10:59:05.568Z</time></trkpt><trkpt lat="44.4102855066514" lon="11.344175255643245"><ele>129.0</ele><time>2026-05-02T10:59:06.568Z</time></trkpt><trkpt lat="44.41047470680543" lon="11.344307992897615"><ele>129.33333333333334</ele><time>2026-05-02T10:59:07.567Z</time></trkpt><trkpt lat="44.41066301281587" lon="11.344442379018258"><ele>129.66666666666669</ele><time>2026-05-02T10:59:08.567Z</time></trkpt><trkpt lat="44.41085191142378" lon="11.344573487307716"><ele>130.0</ele><time>2026-05-02T10:59:09.567Z</time></trkpt><trkpt lat="44.41104027507708" lon="11.344702547369778"><ele>129.66666666666669</ele><time>2026-05-02T10:59:10.567Z</time></trkpt><trkpt lat="44.411229224391825" lon="11.344836784696945"><ele>129.33333333333334</ele><time>2026-05-02T10:59:11.567Z</time></trkpt><trkpt lat="44.411418626232525" lon="11.344974953845357"><ele>129.0</ele><time>2026-05-02T10:59:12.567Z</time></trkpt><trkpt lat="44.41160692026219" lon="11.34511046301006"><ele>128.66666666666666</ele><time>2026-05-02T10:59:13.567Z</time></trkpt><trkpt lat="44.411797467556916" lon="11.345232441575023"><ele>128.33333333333331</ele><time>2026-05-02T10:59:14.567Z</time></trkpt><trkpt lat="44.41199372839759" lon="11.345351734152699"><ele>128.0</ele><time>2026-05-02T10:59:15.567Z</time></trkpt><trkpt lat="44.41219495280167" lon="11.345460388942522"><ele>128.0</ele><time>2026-05-02T10:59:16.567Z</time></trkpt><trkpt lat="44.412401428849236" lon="11.34555378579599"><ele>128.0</ele><time>2026-05-02T10:59:17.567Z</time></trkpt><trkpt lat="44.41260703039672" lon="11.345638542897769"><ele>128.0</ele><time>2026-05-02T10:59:18.567Z</time></trkpt><trkpt lat="44.41281446757372" lon="11.345715058741492"><ele>128.0</ele><time>2026-05-02T10:59:19.567Z</time></trkpt><trkpt lat="44.413025834456604" lon="11.345774627201894"><ele>128.0</ele><time>2026-05-02T10:59:20.567Z</time></trkpt><trkpt lat="44.413239957322254" lon="11.345816438318716"><ele>128.0</ele><time>2026-05-02T10:59:21.567Z</time></trkpt><trkpt lat="44.41345562108537" lon="11.34585239352343"><ele>128.0</ele><time>2026-05-02T10:59:22.567Z</time></trkpt><trkpt lat="44.41367184583035" lon="11.345871412153409"><ele>128.0</ele><time>2026-05-02T10:59:23.567Z</time></trkpt><trkpt lat="44.41388931151851" lon="11.345871910275553"><ele>128.0</ele><time>2026-05-02T10:59:24.567Z</time></trkpt><trkpt lat="44.41410555938984" lon="11.345865053364244"><ele>127.66666666666666</ele><time>2026-05-02T10:59:25.567Z</time></trkpt><trkpt lat="44.41432605080124" lon="11.345840098260558"><ele>127.33333333333334</ele><time>2026-05-02T10:59:26.567Z</time></trkpt><trkpt lat="44.414547113649014" lon="11.345810005942608"><ele>127.0</ele><time>2026-05-02T10:59:27.567Z</time></trkpt><trkpt lat="44.414770520333725" lon="11.34577861355988"><ele>126.0</ele><time>2026-05-02T10:59:28.567Z</time></trkpt><trkpt lat="44.41499611741818" lon="11.345751168526661"><ele>125.0</ele><time>2026-05-02T10:59:29.567Z</time></trkpt><trkpt lat="44.41522127552281" lon="11.345720085571424"><ele>125.0</ele><time>2026-05-02T10:59:30.567Z</time></trkpt><trkpt lat="44.41544236271809" lon="11.345691814972072"><ele>125.0</ele><time>2026-05-02T10:59:31.567Z</time></trkpt><trkpt lat="44.415665458414104" lon="11.345666677590199"><ele>125.0</ele><time>2026-05-02T10:59:32.567Z</time></trkpt><trkpt lat="44.415887145664456" lon="11.345641965668285"><ele>123.5</ele><time>2026-05-02T10:59:33.566Z</time></trkpt><trkpt lat="44.41610969720803" lon="11.345620191723453"><ele>122.0</ele><time>2026-05-02T10:59:34.566Z</time></trkpt><trkpt lat="44.4163357855355" lon="11.345601502720855"><ele>122.0</ele><time>2026-05-02T10:59:35.566Z</time></trkpt><trkpt lat="44.416560766785345" lon="11.34558419417813"><ele>122.0</ele><time>2026-05-02T10:59:36.566Z</time></trkpt><trkpt lat="44.41678123206718" lon="11.345574595640468"><ele>122.0</ele><time>2026-05-02T10:59:37.566Z</time></trkpt><trkpt lat="44.41700338805595" lon="11.345565249960952"><ele>121.66666666666666</ele><time>2026-05-02T10:59:38.566Z</time></trkpt><trkpt lat="44.41722265926502" lon="11.345554951627184"><ele>121.33333333333334</ele><time>2026-05-02T10:59:39.566Z</time></trkpt><trkpt lat="44.41744100686302" lon="11.345542958676804"><ele>121.0</ele><time>2026-05-02T10:59:40.566Z</time></trkpt><trkpt lat="44.41765692821378" lon="11.345527064572074"><ele>121.33333333333334</ele><time>2026-05-02T10:59:41.566Z</time></trkpt><trkpt lat="44.41787541977059" lon="11.345514560808049"><ele>121.66666666666666</ele><time>2026-05-02T10:59:42.566Z</time></trkpt><trkpt lat="44.418096626871574" lon="11.34549207917563"><ele>122.0</ele><time>2026-05-02T10:59:43.566Z</time></trkpt><trkpt lat="44.41831591959221" lon="11.345465631462492"><ele>122.0</ele><time>2026-05-02T10:59:44.566Z</time></trkpt><trkpt lat="44.418536124287456" lon="11.34543095765838"><ele>122.0</ele><time>2026-05-02T10:59:45.566Z</time></trkpt><trkpt lat="44.418757141357965" lon="11.345399847179474"><ele>122.0</ele><time>2026-05-02T10:59:46.566Z</time></trkpt><trkpt lat="44.41897735478645" lon="11.34536655313071"><ele>123.66666666666666</ele><time>2026-05-02T10:59:47.566Z</time></trkpt><trkpt lat="44.41919449920682" lon="11.345334145289591"><ele>125.33333333333334</ele><time>2026-05-02T10:59:48.566Z</time></trkpt><trkpt lat="44.41941227851499" lon="11.345310830949693"><ele>127.0</ele><time>2026-05-02T10:59:49.566Z</time></trkpt><trkpt lat="44.419638737680025" lon="11.345276637840653"><ele>125.5</ele><time>2026-05-02T10:59:50.566Z</time></trkpt><trkpt lat="44.419866065117354" lon="11.345244331575094"><ele>124.0</ele><time>2026-05-02T10:59:51.566Z</time></trkpt><trkpt lat="44.42009325617832" lon="11.345216693478182"><ele>124.0</ele><time>2026-05-02T10:59:52.566Z</time></trkpt><trkpt lat="44.42032135830216" lon="11.345185614816913"><ele>124.0</ele><time>2026-05-02T10:59:53.566Z</time></trkpt><trkpt lat="44.42055349801208" lon="11.345152373749121"><ele>119.5</ele><time>2026-05-02T10:59:54.566Z</time></trkpt><trkpt lat="44.42078213220144" lon="11.345116746720262"><ele>115.0</ele><time>2026-05-02T10:59:55.566Z</time></trkpt><trkpt lat="44.421009609399725" lon="11.345086988533748"><ele>115.0</ele><time>2026-05-02T10:59:56.566Z</time></trkpt><trkpt lat="44.42123828317017" lon="11.345061302638111"><ele>115.0</ele><time>2026-05-02T10:59:57.566Z</time></trkpt><trkpt lat="44.4214657102858" lon="11.345033921598324"><ele>116.5</ele><time>2026-05-02T10:59:58.565Z</time></trkpt><trkpt lat="44.42169342413627" lon="11.345021546503574"><ele>118.0</ele><time>2026-05-02T10:59:59.565Z</time></trkpt><trkpt lat="44.421918282387026" lon="11.345017007143595"><ele>118.0</ele><time>2026-05-02T11:00:00.565Z</time></trkpt><trkpt lat="44.4221468010893" lon="11.34502298653949"><ele>118.0</ele><time>2026-05-02T11:00:01.565Z</time></trkpt><trkpt lat="44.422373816699846" lon="11.345045543668949"><ele>117.0</ele><time>2026-05-02T11:00:02.565Z</time></trkpt><trkpt lat="44.42260150784339" lon="11.345079506163998"><ele>116.0</ele><time>2026-05-02T11:00:03.565Z</time></trkpt><trkpt lat="44.4228281474125" lon="11.345124793435003"><ele>118.0</ele><time>2026-05-02T11:00:04.565Z</time></trkpt><trkpt lat="44.423046858913736" lon="11.345184246230497"><ele>120.0</ele><time>2026-05-02T11:00:05.565Z</time></trkpt><trkpt lat="44.42326693656336" lon="11.34525819933299"><ele>122.0</ele><time>2026-05-02T11:00:06.565Z</time></trkpt><trkpt lat="44.42348540246387" lon="11.345342197446445"><ele>122.0</ele><time>2026-05-02T11:00:07.565Z</time></trkpt><trkpt lat="44.423698533797676" lon="11.345440192659023"><ele>122.0</ele><time>2026-05-02T11:00:08.565Z</time></trkpt><trkpt lat="44.423908844155264" lon="11.345542954777594"><ele>122.0</ele><time>2026-05-02T11:00:09.565Z</time></trkpt><trkpt lat="44.42411290898411" lon="11.345660413233073"><ele>121.0</ele><time>2026-05-02T11:00:10.565Z</time></trkpt><trkpt lat="44.4243144416674" lon="11.34578552785493"><ele>120.0</ele><time>2026-05-02T11:00:11.565Z</time></trkpt><trkpt lat="44.42451165228625" lon="11.34592398605855"><ele>119.0</ele><time>2026-05-02T11:00:12.565Z</time></trkpt><trkpt lat="44.42470489918153" lon="11.34607671787309"><ele>119.0</ele><time>2026-05-02T11:00:13.565Z</time></trkpt><trkpt lat="44.42488994158617" lon="11.3462385024462"><ele>119.0</ele><time>2026-05-02T11:00:14.565Z</time></trkpt><trkpt lat="44.425067808640016" lon="11.346410795075379"><ele>119.0</ele><time>2026-05-02T11:00:15.565Z</time></trkpt><trkpt lat="44.42524281834856" lon="11.346589187129355"><ele>119.66666666666666</ele><time>2026-05-02T11:00:16.565Z</time></trkpt><trkpt lat="44.42540432458812" lon="11.346778131690073"><ele>120.33333333333334</ele><time>2026-05-02T11:00:17.565Z</time></trkpt><trkpt lat="44.425542911780234" lon="11.34697051083145"><ele>121.0</ele><time>2026-05-02T11:00:18.565Z</time></trkpt><trkpt lat="44.425674741684126" lon="11.347155462601377"><ele>118.33333333333334</ele><time>2026-05-02T11:00:19.565Z</time></trkpt><trkpt lat="44.42580821397302" lon="11.347334021317897"><ele>115.66666666666666</ele><time>2026-05-02T11:00:20.565Z</time></trkpt><trkpt lat="44.4259470914308" lon="11.347524434151572"><ele>113.0</ele><time>2026-05-02T11:00:21.565Z</time></trkpt><trkpt lat="44.42609167138376" lon="11.34771843652002"><ele>113.0</ele><time>2026-05-02T11:00:22.565Z</time></trkpt><trkpt lat="44.426231142673785" lon="11.347912473200884"><ele>113.0</ele><time>2026-05-02T11:00:23.565Z</time></trkpt><trkpt lat="44.42638047477634" lon="11.348112951927758"><ele>113.0</ele><time>2026-05-02T11:00:24.564Z</time></trkpt><trkpt lat="44.42653444463173" lon="11.348302189195289"><ele>112.66666666666666</ele><time>2026-05-02T11:00:25.564Z</time></trkpt><trkpt lat="44.42670935875159" lon="11.348470386537628"><ele>112.33333333333334</ele><time>2026-05-02T11:00:26.564Z</time></trkpt><trkpt lat="44.42689054784233" lon="11.348619060597763"><ele>112.0</ele><time>2026-05-02T11:00:27.564Z</time></trkpt><trkpt lat="44.4270796106974" lon="11.34875809131921"><ele>112.0</ele><time>2026-05-02T11:00:28.564Z</time></trkpt><trkpt lat="44.42727613215818" lon="11.348871416830384"><ele>112.0</ele><time>2026-05-02T11:00:29.564Z</time></trkpt><trkpt lat="44.427479153024606" lon="11.348972525686213"><ele>112.0</ele><time>2026-05-02T11:00:30.564Z</time></trkpt><trkpt lat="44.42768702891355" lon="11.349068196576198"><ele>111.66666666666667</ele><time>2026-05-02T11:00:31.564Z</time></trkpt><trkpt lat="44.42790018492162" lon="11.349157374792894"><ele>111.33333333333334</ele><time>2026-05-02T11:00:32.564Z</time></trkpt><trkpt lat="44.428116266450765" lon="11.34925272270959"><ele>111.0</ele><time>2026-05-02T11:00:33.564Z</time></trkpt><trkpt lat="44.42832774302474" lon="11.349349039563736"><ele>110.66666666666666</ele><time>2026-05-02T11:00:34.564Z</time></trkpt><trkpt lat="44.42854089115367" lon="11.349445598896438"><ele>110.33333333333333</ele><time>2026-05-02T11:00:35.564Z</time></trkpt><trkpt lat="44.42875326082033" lon="11.34954193125446"><ele>110.0</ele><time>2026-05-02T11:00:36.564Z</time></trkpt><trkpt lat="44.42896400992375" lon="11.349635127908744"><ele>109.66666666666666</ele><time>2026-05-02T11:00:37.564Z</time></trkpt><trkpt lat="44.42917298880447" lon="11.34972547036143"><ele>109.33333333333334</ele><time>2026-05-02T11:00:38.564Z</time></trkpt><trkpt lat="44.4293812700466" lon="11.349819495823835"><ele>109.0</ele><time>2026-05-02T11:00:39.564Z</time></trkpt><trkpt lat="44.42958849410539" lon="11.349915416681975"><ele>109.0</ele><time>2026-05-02T11:00:40.564Z</time></trkpt><trkpt lat="44.42979161742208" lon="11.350018902981413"><ele>109.0</ele><time>2026-05-02T11:00:41.564Z</time></trkpt><trkpt lat="44.429995833135614" lon="11.350122248694069"><ele>109.0</ele><time>2026-05-02T11:00:42.564Z</time></trkpt><trkpt lat="44.43019721577258" lon="11.350221187523688"><ele>109.0</ele><time>2026-05-02T11:00:43.564Z</time></trkpt><trkpt lat="44.43040307942675" lon="11.350316811035349"><ele>109.0</ele><time>2026-05-02T11:00:44.564Z</time></trkpt><trkpt lat="44.43060858762428" lon="11.350407027556486"><ele>109.0</ele><time>2026-05-02T11:00:45.564Z</time></trkpt><trkpt lat="44.430811969943534" lon="11.350502066604957"><ele>109.0</ele><time>2026-05-02T11:00:46.564Z</time></trkpt><trkpt lat="44.43101294756147" lon="11.350601008631035"><ele>109.0</ele><time>2026-05-02T11:00:47.564Z</time></trkpt><trkpt lat="44.43121530421422" lon="11.350703883037834"><ele>109.0</ele><time>2026-05-02T11:00:48.564Z</time></trkpt><trkpt lat="44.43142271723562" lon="11.35080494721496"><ele>110.0</ele><time>2026-05-02T11:00:49.563Z</time></trkpt><trkpt lat="44.431630352221134" lon="11.350905213536326"><ele>111.0</ele><time>2026-05-02T11:00:50.563Z</time></trkpt><trkpt lat="44.4318445787109" lon="11.350996222106314"><ele>112.0</ele><time>2026-05-02T11:00:51.563Z</time></trkpt><trkpt lat="44.43206002336322" lon="11.351087807783529"><ele>116.0</ele><time>2026-05-02T11:00:52.563Z</time></trkpt><trkpt lat="44.432279225046614" lon="11.351174275238499"><ele>120.0</ele><time>2026-05-02T11:00:53.565Z</time></trkpt><trkpt lat="44.43248960371203" lon="11.351276123281258"><ele>113.5</ele><time>2026-05-02T11:00:54.565Z</time></trkpt><trkpt lat="44.432701491845876" lon="11.351377059466126"><ele>107.0</ele><time>2026-05-02T11:00:55.565Z</time></trkpt><trkpt lat="44.432916547934916" lon="11.351474894603916"><ele>107.0</ele><time>2026-05-02T11:00:56.564Z</time></trkpt><trkpt lat="44.43313505222609" lon="11.351552868224136"><ele>107.0</ele><time>2026-05-02T11:00:57.564Z</time></trkpt><trkpt lat="44.43335201803812" lon="11.351605781221087"><ele>107.0</ele><time>2026-05-02T11:00:58.564Z</time></trkpt><trkpt lat="44.43356983550819" lon="11.351639669456786"><ele>107.0</ele><time>2026-05-02T11:00:59.564Z</time></trkpt><trkpt lat="44.43379066645508" lon="11.35166728123709"><ele>107.0</ele><time>2026-05-02T11:01:00.565Z</time></trkpt><trkpt lat="44.43400556776683" lon="11.351687200189934"><ele>107.0</ele><time>2026-05-02T11:01:01.565Z</time></trkpt><trkpt lat="44.43422012123133" lon="11.351707577334347"><ele>107.0</ele><time>2026-05-02T11:01:02.565Z</time></trkpt><trkpt lat="44.43443717458014" lon="11.351730070253355"><ele>107.0</ele><time>2026-05-02T11:01:03.564Z</time></trkpt><trkpt lat="44.43465253355687" lon="11.351749742549744"><ele>107.0</ele><time>2026-05-02T11:01:04.564Z</time></trkpt><trkpt lat="44.434869171451815" lon="11.351770109832351"><ele>107.0</ele><time>2026-05-02T11:01:05.564Z</time></trkpt><trkpt lat="44.435083054278444" lon="11.35178737948429"><ele>107.0</ele><time>2026-05-02T11:01:06.564Z</time></trkpt><trkpt lat="44.4352975506211" lon="11.351804067269509"><ele>107.0</ele><time>2026-05-02T11:01:07.564Z</time></trkpt><trkpt lat="44.43550893535534" lon="11.351825082231178"><ele>106.66666666666666</ele><time>2026-05-02T11:01:08.564Z</time></trkpt><trkpt lat="44.435725523382864" lon="11.351839119771723"><ele>106.33333333333334</ele><time>2026-05-02T11:01:09.564Z</time></trkpt><trkpt lat="44.43593811005787" lon="11.351848621442286"><ele>106.0</ele><time>2026-05-02T11:01:10.564Z</time></trkpt><trkpt lat="44.43615045867447" lon="11.351856272921642"><ele>104.66666666666667</ele><time>2026-05-02T11:01:11.564Z</time></trkpt><trkpt lat="44.43636571391299" lon="11.351842293113691"><ele>103.33333333333334</ele><time>2026-05-02T11:01:12.564Z</time></trkpt><trkpt lat="44.436595174568815" lon="11.351795710901783"><ele>102.0</ele><time>2026-05-02T11:01:13.564Z</time></trkpt><trkpt lat="44.436820848484544" lon="11.351731807101672"><ele>102.0</ele><time>2026-05-02T11:01:14.564Z</time></trkpt><trkpt lat="44.437044354415086" lon="11.351661485112357"><ele>102.0</ele><time>2026-05-02T11:01:15.564Z</time></trkpt><trkpt lat="44.43726195265354" lon="11.351601199004557"><ele>101.0</ele><time>2026-05-02T11:01:16.564Z</time></trkpt><trkpt lat="44.4374622811787" lon="11.351538107702112"><ele>100.0</ele><time>2026-05-02T11:01:17.563Z</time></trkpt><trkpt lat="44.43765332737705" lon="11.351486255977182"><ele>99.0</ele><time>2026-05-02T11:01:18.563Z</time></trkpt><trkpt lat="44.437832299921524" lon="11.351426053464278"><ele>100.33333333333334</ele><time>2026-05-02T11:01:19.563Z</time></trkpt><trkpt lat="44.43802376220423" lon="11.351371871850574"><ele>101.66666666666667</ele><time>2026-05-02T11:01:20.563Z</time></trkpt><trkpt lat="44.43821258526751" lon="11.351341929582793"><ele>103.0</ele><time>2026-05-02T11:01:21.563Z</time></trkpt><trkpt lat="44.43839214009995" lon="11.351348429348317"><ele>102.66666666666667</ele><time>2026-05-02T11:01:22.563Z</time></trkpt><trkpt lat="44.438565217375995" lon="11.351391681654427"><ele>102.33333333333334</ele><time>2026-05-02T11:01:23.563Z</time></trkpt><trkpt lat="44.438746918594106" lon="11.351459486667109"><ele>102.0</ele><time>2026-05-02T11:01:24.563Z</time></trkpt><trkpt lat="44.43890387343496" lon="11.351622531044116"><ele>102.0</ele><time>2026-05-02T11:01:25.563Z</time></trkpt><trkpt lat="44.439009980415854" lon="11.35183553656797"><ele>102.0</ele><time>2026-05-02T11:01:26.563Z</time></trkpt><trkpt lat="44.43915628680257" lon="11.351886498892481"><ele>102.0</ele><time>2026-05-02T11:01:27.563Z</time></trkpt><trkpt lat="44.439296397667455" lon="11.351913671546285"><ele>102.0</ele><time>2026-05-02T11:01:28.563Z</time></trkpt><trkpt lat="44.43942350526475" lon="11.351941357482568"><ele>102.0</ele><time>2026-05-02T11:01:29.563Z</time></trkpt><trkpt lat="44.43952772237812" lon="11.35197044760882"><ele>102.0</ele><time>2026-05-02T11:01:30.563Z</time></trkpt><trkpt lat="44.439614249620995" lon="11.35199522569666"><ele>102.0</ele><time>2026-05-02T11:01:31.563Z</time></trkpt><trkpt lat="44.43967639985813" lon="11.352025272311984"><ele>102.0</ele><time>2026-05-02T11:01:32.563Z</time></trkpt><trkpt lat="44.439741135569896" lon="11.352082563141899"><ele>102.0</ele><time>2026-05-02T11:01:34.563Z</time></trkpt><trkpt lat="44.43975195530745" lon="11.352206081621453"><ele>102.0</ele><time>2026-05-02T11:01:39.563Z</time></trkpt><trkpt lat="44.43981690942705" lon="11.352323393751043"><ele>102.0</ele><time>2026-05-02T11:01:41.563Z</time></trkpt><trkpt lat="44.439858461197794" lon="11.352406193532444"><ele>102.0</ele><time>2026-05-02T11:01:42.563Z</time></trkpt><trkpt lat="44.43988602960678" lon="11.3525072233899"><ele>102.0</ele><time>2026-05-02T11:01:43.562Z</time></trkpt><trkpt lat="44.43990103489204" lon="11.352619295355161"><ele>102.0</ele><time>2026-05-02T11:01:44.562Z</time></trkpt><trkpt lat="44.43991034465866" lon="11.35273585892861"><ele>101.83333333333333</ele><time>2026-05-02T11:01:45.562Z</time></trkpt><trkpt lat="44.43992220436731" lon="11.352838951212684"><ele>101.66666666666666</ele><time>2026-05-02T11:01:46.562Z</time></trkpt><trkpt lat="44.43995954533936" lon="11.352910736932408"><ele>101.5</ele><time>2026-05-02T11:01:47.562Z</time></trkpt><trkpt lat="44.44007301738018" lon="11.352893762332354"><ele>101.33333333333333</ele><time>2026-05-02T11:01:49.562Z</time></trkpt><trkpt lat="44.44010978980008" lon="11.35281908301812"><ele>101.16666666666666</ele><time>2026-05-02T11:01:50.562Z</time></trkpt><trkpt lat="44.4401332083996" lon="11.352726391326824"><ele>101.0</ele><time>2026-05-02T11:01:51.562Z</time></trkpt><trkpt lat="44.44015762726054" lon="11.35264023368057"><ele>101.0</ele><time>2026-05-02T11:01:52.562Z</time></trkpt><trkpt lat="44.44021431995887" lon="11.352524613950154"><ele>101.0</ele><time>2026-05-02T11:01:54.562Z</time></trkpt><trkpt lat="44.44025472655422" lon="11.352444575030246"><ele>101.0</ele><time>2026-05-02T11:01:59.562Z</time></trkpt><trkpt lat="44.440327511373646" lon="11.352435217426795"><ele>101.0</ele><time>2026-05-02T11:02:15.561Z</time></trkpt><trkpt lat="44.440418372665015" lon="11.352451395328512"><ele>101.0</ele><time>2026-05-02T11:04:27.558Z</time></trkpt><trkpt lat="44.44045686410338" lon="11.352716875769095"><ele>100.99999999999999</ele><time>2026-05-02T11:11:06.548Z</time></trkpt><trkpt lat="44.44038846165427" lon="11.352738478113274"><ele>101.0</ele><time>2026-05-02T11:11:08.547Z</time></trkpt><trkpt lat="44.44032006966859" lon="11.35274025674434"><ele>101.0</ele><time>2026-05-02T11:11:09.547Z</time></trkpt><trkpt lat="44.4402364561196" lon="11.3527177181266"><ele>101.0</ele><time>2026-05-02T11:11:10.547Z</time></trkpt><trkpt lat="44.440153373087036" lon="11.352717115184245"><ele>100.99999999999999</ele><time>2026-05-02T11:11:11.547Z</time></trkpt><trkpt lat="44.44008515316074" lon="11.35271749750936"><ele>101.0</ele><time>2026-05-02T11:11:12.547Z</time></trkpt><trkpt lat="44.44003549231227" lon="11.352623170679706"><ele>101.0</ele><time>2026-05-02T11:11:15.547Z</time></trkpt><trkpt lat="44.44003123357055" lon="11.35253108301439"><ele>101.0</ele><time>2026-05-02T11:11:19.547Z</time></trkpt><trkpt lat="44.44004039145308" lon="11.352413009828773"><ele>101.0</ele><time>2026-05-02T11:11:21.547Z</time></trkpt><trkpt lat="44.44007749882858" lon="11.352338356807936"><ele>101.0</ele><time>2026-05-02T11:11:22.547Z</time></trkpt><trkpt lat="44.4401765645249" lon="11.352255996899165"><ele>101.0</ele><time>2026-05-02T11:11:24.548Z</time></trkpt><trkpt lat="44.440303203212444" lon="11.352248840963178"><ele>101.0</ele><time>2026-05-02T11:11:26.548Z</time></trkpt><trkpt lat="44.44037453437709" lon="11.352253996222009"><ele>101.0</ele><time>2026-05-02T11:11:27.548Z</time></trkpt><trkpt lat="44.440438207189594" lon="11.352252660236061"><ele>101.0</ele><time>2026-05-02T11:11:28.548Z</time></trkpt><trkpt lat="44.4405027888858" lon="11.352245309499997"><ele>101.0</ele><time>2026-05-02T11:11:29.548Z</time></trkpt><trkpt lat="44.44056993120075" lon="11.352245653534466"><ele>101.0</ele><time>2026-05-02T11:11:30.547Z</time></trkpt><trkpt lat="44.44063820465791" lon="11.352240216020201"><ele>101.0</ele><time>2026-05-02T11:11:31.547Z</time></trkpt><trkpt lat="44.44070920616463" lon="11.352226581526313"><ele>101.0</ele><time>2026-05-02T11:11:32.548Z</time></trkpt><trkpt lat="44.44077635612074" lon="11.352208810818516"><ele>100.85714285714286</ele><time>2026-05-02T11:11:33.548Z</time></trkpt><trkpt lat="44.44084510873999" lon="11.3521881613166"><ele>100.71428571428571</ele><time>2026-05-02T11:11:34.548Z</time></trkpt><trkpt lat="44.44091464644569" lon="11.352163373899309"><ele>100.57142857142858</ele><time>2026-05-02T11:11:35.547Z</time></trkpt><trkpt lat="44.44097947033561" lon="11.352144860155464"><ele>100.42857142857143</ele><time>2026-05-02T11:11:36.547Z</time></trkpt><trkpt lat="44.44104385846847" lon="11.352125105767529"><ele>100.28571428571429</ele><time>2026-05-02T11:11:37.547Z</time></trkpt><trkpt lat="44.44110500840285" lon="11.352092324756322"><ele>100.14285714285715</ele><time>2026-05-02T11:11:38.547Z</time></trkpt><trkpt lat="44.44116946060354" lon="11.352068947664007"><ele>100.0</ele><time>2026-05-02T11:11:39.547Z</time></trkpt><trkpt lat="44.44123718295837" lon="11.3520384530685"><ele>100.2</ele><time>2026-05-02T11:11:40.547Z</time></trkpt><trkpt lat="44.441303668760945" lon="11.352008946652228"><ele>100.4</ele><time>2026-05-02T11:11:41.547Z</time></trkpt><trkpt lat="44.44137935541264" lon="11.351971870555275"><ele>100.6</ele><time>2026-05-02T11:11:42.547Z</time></trkpt><trkpt lat="44.44147657524275" lon="11.351925501004729"><ele>100.8</ele><time>2026-05-02T11:11:43.547Z</time></trkpt><trkpt lat="44.44158642640906" lon="11.351873295061328"><ele>101.0</ele><time>2026-05-02T11:11:44.547Z</time></trkpt><trkpt lat="44.441712387176594" lon="11.351830205362756"><ele>101.0</ele><time>2026-05-02T11:11:45.547Z</time></trkpt><trkpt lat="44.4418495020648" lon="11.35178988227024"><ele>101.0</ele><time>2026-05-02T11:11:46.547Z</time></trkpt><trkpt lat="44.442000517322775" lon="11.35176145795641"><ele>101.0</ele><time>2026-05-02T11:11:47.547Z</time></trkpt><trkpt lat="44.44215901358879" lon="11.351756260317405"><ele>99.33333333333333</ele><time>2026-05-02T11:11:48.547Z</time></trkpt><trkpt lat="44.442325507275704" lon="11.35176565253594"><ele>97.66666666666666</ele><time>2026-05-02T11:11:49.547Z</time></trkpt><trkpt lat="44.44249643031327" lon="11.351822547765716"><ele>96.0</ele><time>2026-05-02T11:11:50.547Z</time></trkpt><trkpt lat="44.442664359774355" lon="11.351917255083212"><ele>96.0</ele><time>2026-05-02T11:11:51.547Z</time></trkpt><trkpt lat="44.442822986205314" lon="11.352051569366706"><ele>96.0</ele><time>2026-05-02T11:11:52.547Z</time></trkpt><trkpt lat="44.442971355885234" lon="11.352222951717062"><ele>96.0</ele><time>2026-05-02T11:11:53.547Z</time></trkpt><trkpt lat="44.44310127137379" lon="11.35242493252851"><ele>97.33333333333334</ele><time>2026-05-02T11:11:54.547Z</time></trkpt><trkpt lat="44.44321299968074" lon="11.352654961502752"><ele>98.66666666666667</ele><time>2026-05-02T11:11:55.547Z</time></trkpt><trkpt lat="44.44331010792488" lon="11.35288498127621"><ele>100.0</ele><time>2026-05-02T11:11:56.547Z</time></trkpt><trkpt lat="44.443389874745584" lon="11.353116607657752"><ele>100.33333333333334</ele><time>2026-05-02T11:11:57.546Z</time></trkpt><trkpt lat="44.44347937764439" lon="11.35333132906207"><ele>100.66666666666666</ele><time>2026-05-02T11:11:58.546Z</time></trkpt><trkpt lat="44.44358017325601" lon="11.353504284740742"><ele>101.0</ele><time>2026-05-02T11:11:59.546Z</time></trkpt><trkpt lat="44.44368925056589" lon="11.353647943658043"><ele>101.25</ele><time>2026-05-02T11:12:00.546Z</time></trkpt><trkpt lat="44.443807852994816" lon="11.353757171099348"><ele>101.5</ele><time>2026-05-02T11:12:01.546Z</time></trkpt><trkpt lat="44.443891308246926" lon="11.353922161402009"><ele>101.75</ele><time>2026-05-02T11:12:02.546Z</time></trkpt><trkpt lat="44.44396198030401" lon="11.35408043854385"><ele>102.0</ele><time>2026-05-02T11:12:03.546Z</time></trkpt><trkpt lat="44.444032599985505" lon="11.354186718737454"><ele>102.0</ele><time>2026-05-02T11:12:04.546Z</time></trkpt><trkpt lat="44.444139335819635" lon="11.354217420389976"><ele>102.0</ele><time>2026-05-02T11:12:05.546Z</time></trkpt><trkpt lat="44.44426233685056" lon="11.354275659731087"><ele>102.0</ele><time>2026-05-02T11:12:06.546Z</time></trkpt><trkpt lat="44.44438935045245" lon="11.354370391368489"><ele>102.0</ele><time>2026-05-02T11:12:07.546Z</time></trkpt><trkpt lat="44.44449794289642" lon="11.354523286977052"><ele>102.0</ele><time>2026-05-02T11:12:08.546Z</time></trkpt><trkpt lat="44.44460074933214" lon="11.35470103212531"><ele>102.0</ele><time>2026-05-02T11:12:09.546Z</time></trkpt><trkpt lat="44.4447008673153" lon="11.354889118286444"><ele>102.0</ele><time>2026-05-02T11:12:10.546Z</time></trkpt><trkpt lat="44.444787756924505" lon="11.355088856947605"><ele>102.33333333333334</ele><time>2026-05-02T11:12:11.546Z</time></trkpt><trkpt lat="44.44486529360797" lon="11.35531269257688"><ele>102.66666666666667</ele><time>2026-05-02T11:12:12.546Z</time></trkpt><trkpt lat="44.44492504927945" lon="11.355536767949582"><ele>103.0</ele><time>2026-05-02T11:12:13.546Z</time></trkpt><trkpt lat="44.44497640092331" lon="11.35575740046464"><ele>102.33333333333334</ele><time>2026-05-02T11:12:14.546Z</time></trkpt><trkpt lat="44.445036689526034" lon="11.35599386890966"><ele>101.66666666666666</ele><time>2026-05-02T11:12:15.546Z</time></trkpt><trkpt lat="44.44509536472623" lon="11.35623706486445"><ele>101.0</ele><time>2026-05-02T11:12:16.546Z</time></trkpt><trkpt lat="44.44516343246755" lon="11.356482816412901"><ele>100.33333333333333</ele><time>2026-05-02T11:12:17.546Z</time></trkpt><trkpt lat="44.445242801762674" lon="11.356729833989718"><ele>99.66666666666666</ele><time>2026-05-02T11:12:18.546Z</time></trkpt><trkpt lat="44.44533444244088" lon="11.356965616659503"><ele>99.0</ele><time>2026-05-02T11:12:19.546Z</time></trkpt><trkpt lat="44.44543478170942" lon="11.357194524145838"><ele>97.33333333333333</ele><time>2026-05-02T11:12:20.546Z</time></trkpt><trkpt lat="44.44554298307632" lon="11.357418531104658"><ele>95.66666666666666</ele><time>2026-05-02T11:12:21.546Z</time></trkpt><trkpt lat="44.44564637117023" lon="11.35764394240192"><ele>94.0</ele><time>2026-05-02T11:12:22.545Z</time></trkpt><trkpt lat="44.44575466516761" lon="11.357870316416124"><ele>95.0</ele><time>2026-05-02T11:12:23.545Z</time></trkpt><trkpt lat="44.44586244099054" lon="11.358095299084967"><ele>96.0</ele><time>2026-05-02T11:12:24.545Z</time></trkpt><trkpt lat="44.44597013621449" lon="11.358316911175699"><ele>97.0</ele><time>2026-05-02T11:12:25.545Z</time></trkpt><trkpt lat="44.44607604014738" lon="11.358544168571006"><ele>97.0</ele><time>2026-05-02T11:12:26.545Z</time></trkpt><trkpt lat="44.44618260760682" lon="11.358767123729635"><ele>97.0</ele><time>2026-05-02T11:12:27.545Z</time></trkpt><trkpt lat="44.446282455962304" lon="11.358982931321595"><ele>97.0</ele><time>2026-05-02T11:12:28.545Z</time></trkpt><trkpt lat="44.4463745369271" lon="11.35919173966381"><ele>99.66666666666667</ele><time>2026-05-02T11:12:29.545Z</time></trkpt><trkpt lat="44.446466427547264" lon="11.359388313754808"><ele>102.33333333333334</ele><time>2026-05-02T11:12:30.545Z</time></trkpt><trkpt lat="44.44655564624213" lon="11.359581196193192"><ele>105.0</ele><time>2026-05-02T11:12:31.545Z</time></trkpt><trkpt lat="44.446643398782406" lon="11.359772935477547"><ele>105.33333333333334</ele><time>2026-05-02T11:12:32.545Z</time></trkpt><trkpt lat="44.446728191164674" lon="11.359963169154259"><ele>105.66666666666667</ele><time>2026-05-02T11:12:33.545Z</time></trkpt><trkpt lat="44.44681082386788" lon="11.360146861198674"><ele>106.0</ele><time>2026-05-02T11:12:34.545Z</time></trkpt><trkpt lat="44.44689447469565" lon="11.36032794322132"><ele>106.0</ele><time>2026-05-02T11:12:35.545Z</time></trkpt><trkpt lat="44.44697401249739" lon="11.360500682187217"><ele>106.0</ele><time>2026-05-02T11:12:36.545Z</time></trkpt><trkpt lat="44.447052789728254" lon="11.360675125071072"><ele>106.0</ele><time>2026-05-02T11:12:37.545Z</time></trkpt><trkpt lat="44.447129517655284" lon="11.360840586192612"><ele>106.0</ele><time>2026-05-02T11:12:38.545Z</time></trkpt><trkpt lat="44.447202734294805" lon="11.360998226922323"><ele>106.0</ele><time>2026-05-02T11:12:39.545Z</time></trkpt><trkpt lat="44.44727237367123" lon="11.361148927784615"><ele>106.0</ele><time>2026-05-02T11:12:40.545Z</time></trkpt><trkpt lat="44.447342358754156" lon="11.361293757506182"><ele>106.0</ele><time>2026-05-02T11:12:41.545Z</time></trkpt><trkpt lat="44.44741062051667" lon="11.361435682855596"><ele>106.0</ele><time>2026-05-02T11:12:42.545Z</time></trkpt><trkpt lat="44.44747556366139" lon="11.361572120546132"><ele>106.4</ele><time>2026-05-02T11:12:43.545Z</time></trkpt><trkpt lat="44.44753615018465" lon="11.361701945702189"><ele>106.8</ele><time>2026-05-02T11:12:44.545Z</time></trkpt><trkpt lat="44.447595656878136" lon="11.361823438457671"><ele>107.20000000000002</ele><time>2026-05-02T11:12:45.545Z</time></trkpt><trkpt lat="44.44765154764376" lon="11.36193664790008"><ele>107.60000000000001</ele><time>2026-05-02T11:12:46.545Z</time></trkpt><trkpt lat="44.44770132383767" lon="11.362036042630839"><ele>108.0</ele><time>2026-05-02T11:12:47.544Z</time></trkpt><trkpt lat="44.44774874930289" lon="11.362137668863152"><ele>108.16666666666667</ele><time>2026-05-02T11:12:48.544Z</time></trkpt><trkpt lat="44.44778756032921" lon="11.362244873333239"><ele>108.33333333333334</ele><time>2026-05-02T11:12:49.544Z</time></trkpt><trkpt lat="44.44781318784823" lon="11.362356142708899"><ele>108.5</ele><time>2026-05-02T11:12:50.544Z</time></trkpt><trkpt lat="44.44781990483421" lon="11.36247848543266"><ele>108.66666666666667</ele><time>2026-05-02T11:12:51.544Z</time></trkpt><trkpt lat="44.44781852035651" lon="11.362602085460027"><ele>108.83333333333334</ele><time>2026-05-02T11:12:52.544Z</time></trkpt><trkpt lat="44.447826071497275" lon="11.362723015678126"><ele>109.0</ele><time>2026-05-02T11:12:53.544Z</time></trkpt><trkpt lat="44.44786418840392" lon="11.362824048395682"><ele>109.0</ele><time>2026-05-02T11:12:54.544Z</time></trkpt><trkpt lat="44.44792762254332" lon="11.362892251929077"><ele>109.0</ele><time>2026-05-02T11:12:55.544Z</time></trkpt><trkpt lat="44.44800816313379" lon="11.36291960190715"><ele>109.0</ele><time>2026-05-02T11:12:56.544Z</time></trkpt><trkpt lat="44.44810152503197" lon="11.362921407624286"><ele>109.0</ele><time>2026-05-02T11:12:57.544Z</time></trkpt><trkpt lat="44.44821045394229" lon="11.362942911477273"><ele>109.0</ele><time>2026-05-02T11:12:58.544Z</time></trkpt><trkpt lat="44.4483150660385" lon="11.36300691118739"><ele>108.0</ele><time>2026-05-02T11:12:59.544Z</time></trkpt><trkpt lat="44.44842004155398" lon="11.363107659367037"><ele>107.0</ele><time>2026-05-02T11:13:00.544Z</time></trkpt><trkpt lat="44.44852610318282" lon="11.36323067179229"><ele>106.0</ele><time>2026-05-02T11:13:01.544Z</time></trkpt><trkpt lat="44.4486299006353" lon="11.36334804254067"><ele>105.0</ele><time>2026-05-02T11:13:02.544Z</time></trkpt><trkpt lat="44.4487527451819" lon="11.363474702551287"><ele>104.0</ele><time>2026-05-02T11:13:03.544Z</time></trkpt><trkpt lat="44.44888354706491" lon="11.36361762246429"><ele>103.0</ele><time>2026-05-02T11:13:04.544Z</time></trkpt><trkpt lat="44.44902233515276" lon="11.363774170470656"><ele>102.0</ele><time>2026-05-02T11:13:05.544Z</time></trkpt><trkpt lat="44.44916019085548" lon="11.363925554486228"><ele>102.0</ele><time>2026-05-02T11:13:06.544Z</time></trkpt><trkpt lat="44.44930055754018" lon="11.364073512294343"><ele>102.0</ele><time>2026-05-02T11:13:07.544Z</time></trkpt><trkpt lat="44.44944441071744" lon="11.364229791328848"><ele>102.0</ele><time>2026-05-02T11:13:08.544Z</time></trkpt><trkpt lat="44.44959587295081" lon="11.364396018839193"><ele>102.0</ele><time>2026-05-02T11:13:09.544Z</time></trkpt><trkpt lat="44.449753329923425" lon="11.364560977206319"><ele>102.0</ele><time>2026-05-02T11:13:10.544Z</time></trkpt><trkpt lat="44.44990932010598" lon="11.364722784923224"><ele>102.0</ele><time>2026-05-02T11:13:11.544Z</time></trkpt><trkpt lat="44.45006116782353" lon="11.364889209040944"><ele>101.33333333333334</ele><time>2026-05-02T11:13:12.544Z</time></trkpt><trkpt lat="44.4502188071821" lon="11.36505988555813"><ele>100.66666666666667</ele><time>2026-05-02T11:13:13.543Z</time></trkpt><trkpt lat="44.45038041241931" lon="11.365240083339106"><ele>100.0</ele><time>2026-05-02T11:13:14.543Z</time></trkpt><trkpt lat="44.45053673724494" lon="11.365440444962848"><ele>98.66666666666667</ele><time>2026-05-02T11:13:15.543Z</time></trkpt><trkpt lat="44.450685058092176" lon="11.365651411326061"><ele>97.33333333333334</ele><time>2026-05-02T11:13:16.543Z</time></trkpt><trkpt lat="44.4508205672208" lon="11.365861457735694"><ele>96.0</ele><time>2026-05-02T11:13:17.543Z</time></trkpt><trkpt lat="44.45095392475977" lon="11.366077348603893"><ele>96.0</ele><time>2026-05-02T11:13:18.543Z</time></trkpt><trkpt lat="44.45108412066129" lon="11.366304298354205"><ele>96.0</ele><time>2026-05-02T11:13:19.543Z</time></trkpt><trkpt lat="44.45120852512756" lon="11.366540330365325"><ele>96.0</ele><time>2026-05-02T11:13:20.543Z</time></trkpt><trkpt lat="44.45132735966613" lon="11.366784242444623"><ele>94.33333333333333</ele><time>2026-05-02T11:13:21.543Z</time></trkpt><trkpt lat="44.45145222994957" lon="11.367030773066867"><ele>92.66666666666666</ele><time>2026-05-02T11:13:22.543Z</time></trkpt><trkpt lat="44.45157654561807" lon="11.367272229095025"><ele>91.0</ele><time>2026-05-02T11:13:23.543Z</time></trkpt><trkpt lat="44.451704009892445" lon="11.367511149116305"><ele>90.66666666666666</ele><time>2026-05-02T11:13:24.543Z</time></trkpt><trkpt lat="44.451827572338935" lon="11.367757289081565"><ele>90.33333333333333</ele><time>2026-05-02T11:13:25.543Z</time></trkpt><trkpt lat="44.45195363787583" lon="11.36800416620065"><ele>90.0</ele><time>2026-05-02T11:13:26.543Z</time></trkpt><trkpt lat="44.45207725104996" lon="11.368246925513253"><ele>86.33333333333333</ele><time>2026-05-02T11:13:27.543Z</time></trkpt><trkpt lat="44.45220317508622" lon="11.36849485770665"><ele>82.66666666666666</ele><time>2026-05-02T11:13:28.543Z</time></trkpt><trkpt lat="44.45232481374954" lon="11.368735492506834"><ele>79.0</ele><time>2026-05-02T11:13:29.544Z</time></trkpt><trkpt lat="44.45244437339618" lon="11.368966976306554"><ele>79.0</ele><time>2026-05-02T11:13:30.543Z</time></trkpt><trkpt lat="44.45256058538962" lon="11.369183985352045"><ele>79.0</ele><time>2026-05-02T11:13:31.543Z</time></trkpt><trkpt lat="44.45266588956498" lon="11.369390034966086"><ele>79.0</ele><time>2026-05-02T11:13:32.544Z</time></trkpt><trkpt lat="44.45274366216787" lon="11.369586020126835"><ele>79.0</ele><time>2026-05-02T11:13:33.543Z</time></trkpt><trkpt lat="44.45278671739964" lon="11.369769395880205"><ele>79.0</ele><time>2026-05-02T11:13:34.543Z</time></trkpt><trkpt lat="44.45279908777474" lon="11.369941955351104"><ele>79.0</ele><time>2026-05-02T11:13:35.544Z</time></trkpt><trkpt lat="44.4528503222707" lon="11.370079571062256"><ele>79.0</ele><time>2026-05-02T11:13:36.544Z</time></trkpt><trkpt lat="44.452934469028094" lon="11.370173875148298"><ele>79.75</ele><time>2026-05-02T11:13:37.544Z</time></trkpt><trkpt lat="44.453053763476426" lon="11.370227121661094"><ele>80.5</ele><time>2026-05-02T11:13:38.544Z</time></trkpt><trkpt lat="44.45318276420341" lon="11.370310003177773"><ele>81.25</ele><time>2026-05-02T11:13:39.544Z</time></trkpt><trkpt lat="44.45329226727295" lon="11.370451892831214"><ele>82.0</ele><time>2026-05-02T11:13:40.544Z</time></trkpt><trkpt lat="44.453396560361824" lon="11.37062063270568"><ele>82.0</ele><time>2026-05-02T11:13:41.543Z</time></trkpt><trkpt lat="44.45350902897084" lon="11.370795980238153"><ele>82.0</ele><time>2026-05-02T11:13:42.544Z</time></trkpt><trkpt lat="44.45362778256747" lon="11.370984274890398"><ele>82.0</ele><time>2026-05-02T11:13:43.544Z</time></trkpt><trkpt lat="44.453746262666556" lon="11.37117101846459"><ele>82.0</ele><time>2026-05-02T11:13:44.544Z</time></trkpt><trkpt lat="44.45386415943175" lon="11.371352632250481"><ele>82.0</ele><time>2026-05-02T11:13:45.544Z</time></trkpt><trkpt lat="44.453996445112374" lon="11.371527192112413"><ele>82.0</ele><time>2026-05-02T11:13:46.544Z</time></trkpt><trkpt lat="44.45413867667216" lon="11.371694679128845"><ele>82.0</ele><time>2026-05-02T11:13:47.544Z</time></trkpt><trkpt lat="44.454293181753414" lon="11.371849824524544"><ele>82.0</ele><time>2026-05-02T11:13:48.544Z</time></trkpt><trkpt lat="44.45446487644641" lon="11.37199515504053"><ele>82.0</ele><time>2026-05-02T11:13:49.544Z</time></trkpt><trkpt lat="44.454640455950205" lon="11.372122553430327"><ele>81.0</ele><time>2026-05-02T11:13:50.544Z</time></trkpt><trkpt lat="44.45481699212815" lon="11.372237280549495"><ele>80.0</ele><time>2026-05-02T11:13:51.544Z</time></trkpt><trkpt lat="44.45500147270686" lon="11.372342187337424"><ele>79.0</ele><time>2026-05-02T11:13:52.543Z</time></trkpt><trkpt lat="44.4551899957815" lon="11.372443017268749"><ele>79.0</ele><time>2026-05-02T11:13:53.543Z</time></trkpt><trkpt lat="44.45538418967494" lon="11.372549645028725"><ele>79.0</ele><time>2026-05-02T11:13:54.543Z</time></trkpt><trkpt lat="44.4555764095529" lon="11.372657122660065"><ele>79.0</ele><time>2026-05-02T11:13:55.543Z</time></trkpt><trkpt lat="44.45577588019315" lon="11.372771615719458"><ele>79.66666666666666</ele><time>2026-05-02T11:13:56.543Z</time></trkpt><trkpt lat="44.455969042482536" lon="11.372885573833527"><ele>80.33333333333333</ele><time>2026-05-02T11:13:57.543Z</time></trkpt><trkpt lat="44.45616081922444" lon="11.372993594176364"><ele>81.0</ele><time>2026-05-02T11:13:58.543Z</time></trkpt><trkpt lat="44.456358090465116" lon="11.37310087447882"><ele>79.66666666666667</ele><time>2026-05-02T11:13:59.543Z</time></trkpt><trkpt lat="44.45655498664174" lon="11.373197597043848"><ele>78.33333333333334</ele><time>2026-05-02T11:14:00.543Z</time></trkpt><trkpt lat="44.456757370257044" lon="11.373286230557259"><ele>77.0</ele><time>2026-05-02T11:14:01.543Z</time></trkpt><trkpt lat="44.45696610543681" lon="11.373361457562279"><ele>77.66666666666667</ele><time>2026-05-02T11:14:02.543Z</time></trkpt><trkpt lat="44.457174967462066" lon="11.373422339192876"><ele>78.33333333333333</ele><time>2026-05-02T11:14:03.543Z</time></trkpt><trkpt lat="44.45738286504963" lon="11.373468472454492"><ele>79.0</ele><time>2026-05-02T11:14:04.543Z</time></trkpt><trkpt lat="44.45759721694331" lon="11.373511888228775"><ele>79.0</ele><time>2026-05-02T11:14:05.543Z</time></trkpt><trkpt lat="44.45781046991465" lon="11.373558214515985"><ele>79.0</ele><time>2026-05-02T11:14:06.543Z</time></trkpt><trkpt lat="44.458026038361986" lon="11.373608000101942"><ele>79.0</ele><time>2026-05-02T11:14:07.543Z</time></trkpt><trkpt lat="44.45823998342202" lon="11.373659018849402"><ele>78.66666666666666</ele><time>2026-05-02T11:14:08.543Z</time></trkpt><trkpt lat="44.45844890983531" lon="11.37371649670119"><ele>78.33333333333333</ele><time>2026-05-02T11:14:09.543Z</time></trkpt><trkpt lat="44.45864854316621" lon="11.37380066742924"><ele>78.0</ele><time>2026-05-02T11:14:10.543Z</time></trkpt><trkpt lat="44.45882928116257" lon="11.37390426192189"><ele>78.0</ele><time>2026-05-02T11:14:11.543Z</time></trkpt><trkpt lat="44.458995940764794" lon="11.374026215006552"><ele>78.0</ele><time>2026-05-02T11:14:12.543Z</time></trkpt><trkpt lat="44.459145975760514" lon="11.374162815876025"><ele>78.0</ele><time>2026-05-02T11:14:13.543Z</time></trkpt><trkpt lat="44.45927569235374" lon="11.374313507967402"><ele>78.0</ele><time>2026-05-02T11:14:14.543Z</time></trkpt><trkpt lat="44.45938227295044" lon="11.374453048159978"><ele>78.0</ele><time>2026-05-02T11:14:15.543Z</time></trkpt><trkpt lat="44.45944817728507" lon="11.374591245943245"><ele>78.0</ele><time>2026-05-02T11:14:16.543Z</time></trkpt><trkpt lat="44.45947436784868" lon="11.374741041181865"><ele>78.0</ele><time>2026-05-02T11:14:17.542Z</time></trkpt><trkpt lat="44.45946473388979" lon="11.374911182987807"><ele>77.5</ele><time>2026-05-02T11:14:18.542Z</time></trkpt><trkpt lat="44.459462594808585" lon="11.37510040131147"><ele>77.0</ele><time>2026-05-02T11:14:19.542Z</time></trkpt><trkpt lat="44.45952178254086" lon="11.375281635478384"><ele>76.5</ele><time>2026-05-02T11:14:20.542Z</time></trkpt><trkpt lat="44.459617884802945" lon="11.375423742826023"><ele>76.0</ele><time>2026-05-02T11:14:21.542Z</time></trkpt><trkpt lat="44.45973837753265" lon="11.375562221348183"><ele>76.0</ele><time>2026-05-02T11:14:22.542Z</time></trkpt><trkpt lat="44.45984637324474" lon="11.37571952595253"><ele>76.0</ele><time>2026-05-02T11:14:23.542Z</time></trkpt><trkpt lat="44.45991191489005" lon="11.375926225287076"><ele>76.0</ele><time>2026-05-02T11:14:24.542Z</time></trkpt><trkpt lat="44.459965639055014" lon="11.376158315203918"><ele>74.66666666666666</ele><time>2026-05-02T11:14:25.542Z</time></trkpt><trkpt lat="44.4600230587454" lon="11.376400165594905"><ele>73.33333333333333</ele><time>2026-05-02T11:14:26.542Z</time></trkpt><trkpt lat="44.460086438235294" lon="11.376634104663179"><ele>72.0</ele><time>2026-05-02T11:14:27.542Z</time></trkpt><trkpt lat="44.46016765003662" lon="11.376871702499379"><ele>72.0</ele><time>2026-05-02T11:14:28.542Z</time></trkpt><trkpt lat="44.46027255710513" lon="11.377102449619871"><ele>72.0</ele><time>2026-05-02T11:14:29.542Z</time></trkpt><trkpt lat="44.4603897931989" lon="11.377317822586635"><ele>72.0</ele><time>2026-05-02T11:14:30.542Z</time></trkpt><trkpt lat="44.460522585918" lon="11.377507964277534"><ele>73.0</ele><time>2026-05-02T11:14:31.542Z</time></trkpt><trkpt lat="44.460659668936124" lon="11.37770167130299"><ele>74.0</ele><time>2026-05-02T11:14:32.542Z</time></trkpt><trkpt lat="44.46079102886752" lon="11.377896450857984"><ele>75.0</ele><time>2026-05-02T11:14:33.542Z</time></trkpt><trkpt lat="44.46093088071787" lon="11.378093219367255"><ele>75.0</ele><time>2026-05-02T11:14:34.542Z</time></trkpt><trkpt lat="44.46107093104879" lon="11.378282870414061"><ele>75.0</ele><time>2026-05-02T11:14:35.542Z</time></trkpt><trkpt lat="44.46120660947909" lon="11.37846298278621"><ele>75.0</ele><time>2026-05-02T11:14:36.542Z</time></trkpt><trkpt lat="44.461332458284566" lon="11.378629147203911"><ele>75.5</ele><time>2026-05-02T11:14:37.542Z</time></trkpt><trkpt lat="44.461444657631105" lon="11.378784165613007"><ele>76.0</ele><time>2026-05-02T11:14:38.542Z</time></trkpt><trkpt lat="44.46152679548169" lon="11.3789325609507"><ele>76.5</ele><time>2026-05-02T11:14:39.542Z</time></trkpt><trkpt lat="44.46157859322443" lon="11.379074645611697"><ele>77.0</ele><time>2026-05-02T11:14:40.542Z</time></trkpt><trkpt lat="44.461586610117756" lon="11.379227649676539"><ele>76.0</ele><time>2026-05-02T11:14:41.542Z</time></trkpt><trkpt lat="44.461563631146184" lon="11.379383274997364"><ele>75.0</ele><time>2026-05-02T11:14:42.541Z</time></trkpt><trkpt lat="44.461558921198204" lon="11.379552683350688"><ele>74.0</ele><time>2026-05-02T11:14:43.541Z</time></trkpt><trkpt lat="44.46158074601327" lon="11.379724704323035"><ele>73.0</ele><time>2026-05-02T11:14:44.541Z</time></trkpt><trkpt lat="44.4616304799568" lon="11.379886340776526"><ele>72.75</ele><time>2026-05-02T11:14:45.541Z</time></trkpt><trkpt lat="44.46166349989793" lon="11.380059131875496"><ele>72.5</ele><time>2026-05-02T11:14:46.541Z</time></trkpt><trkpt lat="44.46166081466605" lon="11.3802412787463"><ele>72.25</ele><time>2026-05-02T11:14:47.541Z</time></trkpt><trkpt lat="44.46160697210808" lon="11.380409763915791"><ele>72.0</ele><time>2026-05-02T11:14:48.541Z</time></trkpt><trkpt lat="44.46153391462113" lon="11.380575163983153"><ele>71.5</ele><time>2026-05-02T11:14:49.541Z</time></trkpt><trkpt lat="44.46146192937129" lon="11.3807531541285"><ele>71.0</ele><time>2026-05-02T11:14:50.541Z</time></trkpt><trkpt lat="44.46140444220506" lon="11.380945825468961"><ele>70.5</ele><time>2026-05-02T11:14:51.541Z</time></trkpt><trkpt lat="44.46134231961186" lon="11.381134384160184"><ele>70.0</ele><time>2026-05-02T11:14:52.541Z</time></trkpt><trkpt lat="44.46127196104303" lon="11.381327457064664"><ele>71.66666666666666</ele><time>2026-05-02T11:14:53.541Z</time></trkpt><trkpt lat="44.46120143433273" lon="11.38153051581917"><ele>73.33333333333333</ele><time>2026-05-02T11:14:54.541Z</time></trkpt><trkpt lat="44.461131602588964" lon="11.381734870392167"><ele>75.0</ele><time>2026-05-02T11:14:55.541Z</time></trkpt><trkpt lat="44.46107813359712" lon="11.381925844362938"><ele>75.0</ele><time>2026-05-02T11:14:56.541Z</time></trkpt><trkpt lat="44.46103067820261" lon="11.38210505454009"><ele>75.0</ele><time>2026-05-02T11:14:57.541Z</time></trkpt><trkpt lat="44.46100750854425" lon="11.38227462376617"><ele>75.0</ele><time>2026-05-02T11:14:58.541Z</time></trkpt><trkpt lat="44.46098856079195" lon="11.382434280558096"><ele>75.0</ele><time>2026-05-02T11:14:59.541Z</time></trkpt><trkpt lat="44.460978413594354" lon="11.382580967189119"><ele>75.66666666666667</ele><time>2026-05-02T11:15:00.541Z</time></trkpt><trkpt lat="44.46098654900938" lon="11.38271579911499"><ele>76.33333333333333</ele><time>2026-05-02T11:15:01.541Z</time></trkpt><trkpt lat="44.46100357093432" lon="11.382838737007301"><ele>77.0</ele><time>2026-05-02T11:15:02.541Z</time></trkpt><trkpt lat="44.461033285083104" lon="11.382954355026131"><ele>77.66666666666666</ele><time>2026-05-02T11:15:03.541Z</time></trkpt><trkpt lat="44.46106249126985" lon="11.383062926718015"><ele>78.33333333333333</ele><time>2026-05-02T11:15:04.541Z</time></trkpt><trkpt lat="44.461100922134825" lon="11.383163689121028"><ele>79.0</ele><time>2026-05-02T11:15:05.541Z</time></trkpt><trkpt lat="44.46113097212187" lon="11.383271271113873"><ele>79.0</ele><time>2026-05-02T11:15:06.541Z</time></trkpt><trkpt lat="44.46116981414735" lon="11.383379283556875"><ele>79.0</ele><time>2026-05-02T11:15:07.541Z</time></trkpt><trkpt lat="44.46121611316242" lon="11.383480907801708"><ele>79.0</ele><time>2026-05-02T11:15:08.54Z</time></trkpt><trkpt lat="44.46126203981608" lon="11.38358197920141"><ele>79.0</ele><time>2026-05-02T11:15:09.54Z</time></trkpt><trkpt lat="44.4613144677923" lon="11.383675304946316"><ele>79.0</ele><time>2026-05-02T11:15:10.54Z</time></trkpt><trkpt lat="44.461369690742494" lon="11.383764479111168"><ele>79.0</ele><time>2026-05-02T11:15:11.54Z</time></trkpt><trkpt lat="44.46142840243576" lon="11.383850288763684"><ele>79.4</ele><time>2026-05-02T11:15:12.54Z</time></trkpt><trkpt lat="44.461497115224134" lon="11.383951907185363"><ele>79.80000000000001</ele><time>2026-05-02T11:15:13.684Z</time></trkpt><trkpt lat="44.46155905266312" lon="11.38404572277537"><ele>80.19999999999999</ele><time>2026-05-02T11:15:14.683Z</time></trkpt><trkpt lat="44.46162624100409" lon="11.384140082712365"><ele>80.6</ele><time>2026-05-02T11:15:15.683Z</time></trkpt><trkpt lat="44.46169494130644" lon="11.384241549724255"><ele>81.0</ele><time>2026-05-02T11:15:16.684Z</time></trkpt><trkpt lat="44.46176137415933" lon="11.384349331441156"><ele>75.0</ele><time>2026-05-02T11:15:17.684Z</time></trkpt><trkpt lat="44.462287745280726" lon="11.384529215786467"><ele>75.0</ele><time>2026-05-02T11:15:23.54Z</time></trkpt><trkpt lat="44.46234478598787" lon="11.384615167074502"><ele>75.0</ele><time>2026-05-02T11:15:24.54Z</time></trkpt><trkpt lat="44.46245594196781" lon="11.384628802053138"><ele>75.0</ele><time>2026-05-02T11:15:25.54Z</time></trkpt><trkpt lat="44.462529455120176" lon="11.384691249423403"><ele>75.0</ele><time>2026-05-02T11:15:26.54Z</time></trkpt><trkpt lat="44.46260387345829" lon="11.384760100888863"><ele>75.0</ele><time>2026-05-02T11:15:27.54Z</time></trkpt><trkpt lat="44.46267464838522" lon="11.384838645929543"><ele>74.4</ele><time>2026-05-02T11:15:28.54Z</time></trkpt><trkpt lat="44.46275136912769" lon="11.384921111141168"><ele>73.8</ele><time>2026-05-02T11:15:29.54Z</time></trkpt><trkpt lat="44.46282992670314" lon="11.384999369621033"><ele>73.2</ele><time>2026-05-02T11:15:30.54Z</time></trkpt><trkpt lat="44.46291884869446" lon="11.385085366828399"><ele>72.6</ele><time>2026-05-02T11:15:31.54Z</time></trkpt><trkpt lat="44.46302569494379" lon="11.38517633314596"><ele>72.0</ele><time>2026-05-02T11:15:32.54Z</time></trkpt><trkpt lat="44.46313404411353" lon="11.385277534526397"><ele>72.0</ele><time>2026-05-02T11:15:33.539Z</time></trkpt><trkpt lat="44.46325471035767" lon="11.385390258340673"><ele>72.0</ele><time>2026-05-02T11:15:34.539Z</time></trkpt><trkpt lat="44.463383285747085" lon="11.385508789734013"><ele>72.0</ele><time>2026-05-02T11:15:35.54Z</time></trkpt><trkpt lat="44.463522628400966" lon="11.38561627828551"><ele>72.33333333333333</ele><time>2026-05-02T11:15:36.54Z</time></trkpt><trkpt lat="44.46366820409545" lon="11.38571221042184"><ele>72.66666666666666</ele><time>2026-05-02T11:15:37.54Z</time></trkpt><trkpt lat="44.46383169647489" lon="11.385775591834436"><ele>73.0</ele><time>2026-05-02T11:15:38.54Z</time></trkpt><trkpt lat="44.46400298590874" lon="11.385809924478876"><ele>72.33333333333333</ele><time>2026-05-02T11:15:39.54Z</time></trkpt><trkpt lat="44.46417637709267" lon="11.385812708642753"><ele>71.66666666666667</ele><time>2026-05-02T11:15:40.54Z</time></trkpt><trkpt lat="44.46435562453579" lon="11.385810636580603"><ele>71.0</ele><time>2026-05-02T11:15:41.54Z</time></trkpt><trkpt lat="44.46453684949976" lon="11.385816306637631"><ele>70.33333333333334</ele><time>2026-05-02T11:15:42.54Z</time></trkpt><trkpt lat="44.46471711993219" lon="11.3858234167168"><ele>69.66666666666667</ele><time>2026-05-02T11:15:43.54Z</time></trkpt><trkpt lat="44.46489485600949" lon="11.385831338528948"><ele>69.0</ele><time>2026-05-02T11:15:44.539Z</time></trkpt><trkpt lat="44.465063391327014" lon="11.385851797655032"><ele>69.0</ele><time>2026-05-02T11:15:45.54Z</time></trkpt><trkpt lat="44.46522593637144" lon="11.38591160374619"><ele>69.0</ele><time>2026-05-02T11:15:46.54Z</time></trkpt><trkpt lat="44.46537923196138" lon="11.38600383629526"><ele>69.0</ele><time>2026-05-02T11:15:47.54Z</time></trkpt><trkpt lat="44.4655215017371" lon="11.386132411461803"><ele>69.33333333333333</ele><time>2026-05-02T11:15:48.54Z</time></trkpt><trkpt lat="44.465649758421776" lon="11.386290632067587"><ele>69.66666666666666</ele><time>2026-05-02T11:15:49.54Z</time></trkpt><trkpt lat="44.46576318718764" lon="11.386476266097816"><ele>70.0</ele><time>2026-05-02T11:15:50.54Z</time></trkpt><trkpt lat="44.46586835083693" lon="11.386676735622558"><ele>70.66666666666666</ele><time>2026-05-02T11:15:51.54Z</time></trkpt><trkpt lat="44.4659726828419" lon="11.386882004385694"><ele>71.33333333333333</ele><time>2026-05-02T11:15:52.54Z</time></trkpt><trkpt lat="44.46607599451263" lon="11.387086446219302"><ele>72.0</ele><time>2026-05-02T11:15:53.54Z</time></trkpt><trkpt lat="44.46617654114962" lon="11.38729493188345"><ele>73.0</ele><time>2026-05-02T11:15:54.54Z</time></trkpt><trkpt lat="44.466259490643225" lon="11.38751235212872"><ele>74.0</ele><time>2026-05-02T11:15:55.54Z</time></trkpt><trkpt lat="44.46631213763245" lon="11.387748455515304"><ele>75.0</ele><time>2026-05-02T11:15:56.54Z</time></trkpt><trkpt lat="44.46635161070981" lon="11.38798873391255"><ele>73.66666666666667</ele><time>2026-05-02T11:15:57.54Z</time></trkpt><trkpt lat="44.46636922762664" lon="11.388241589363142"><ele>72.33333333333334</ele><time>2026-05-02T11:15:58.54Z</time></trkpt><trkpt lat="44.46638929503021" lon="11.38849453002156"><ele>71.0</ele><time>2026-05-02T11:15:59.54Z</time></trkpt><trkpt lat="44.46640507568794" lon="11.388752334958147"><ele>71.66666666666667</ele><time>2026-05-02T11:16:00.54Z</time></trkpt><trkpt lat="44.46643171403437" lon="11.389027052324632"><ele>72.33333333333333</ele><time>2026-05-02T11:16:01.54Z</time></trkpt><trkpt lat="44.46646731733501" lon="11.38930474400131"><ele>73.0</ele><time>2026-05-02T11:16:02.54Z</time></trkpt><trkpt lat="44.46650786229563" lon="11.389582376650708"><ele>73.0</ele><time>2026-05-02T11:16:03.54Z</time></trkpt><trkpt lat="44.46655567229507" lon="11.389856924649477"><ele>73.0</ele><time>2026-05-02T11:16:04.54Z</time></trkpt><trkpt lat="44.46661224286472" lon="11.390127901848796"><ele>73.0</ele><time>2026-05-02T11:16:05.539Z</time></trkpt><trkpt lat="44.466681532810824" lon="11.390392928302976"><ele>72.0</ele><time>2026-05-02T11:16:06.539Z</time></trkpt><trkpt lat="44.46676457727859" lon="11.390648945906992"><ele>71.0</ele><time>2026-05-02T11:16:07.539Z</time></trkpt><trkpt lat="44.4668640472068" lon="11.390937605078923"><ele>70.0</ele><time>2026-05-02T11:16:08.68Z</time></trkpt><trkpt lat="44.46770171044557" lon="11.392153372796797"><ele>70.5</ele><time>2026-05-02T11:16:14.539Z</time></trkpt><trkpt lat="44.46765272427059" lon="11.392305117960285"><ele>71.0</ele><time>2026-05-02T11:16:15.539Z</time></trkpt><trkpt lat="44.4677472901417" lon="11.392465264428669"><ele>71.5</ele><time>2026-05-02T11:16:16.539Z</time></trkpt><trkpt lat="44.46786691587167" lon="11.392591101959889"><ele>72.0</ele><time>2026-05-02T11:16:17.539Z</time></trkpt><trkpt lat="44.467982252474506" lon="11.392699820707444"><ele>72.0</ele><time>2026-05-02T11:16:18.539Z</time></trkpt><trkpt lat="44.46809417998372" lon="11.392805470168977"><ele>72.0</ele><time>2026-05-02T11:16:19.539Z</time></trkpt><trkpt lat="44.468199038043736" lon="11.39290730753823"><ele>72.0</ele><time>2026-05-02T11:16:20.539Z</time></trkpt><trkpt lat="44.468298888113885" lon="11.393002278867407"><ele>72.0</ele><time>2026-05-02T11:16:21.539Z</time></trkpt><trkpt lat="44.468394261967" lon="11.393091485124785"><ele>71.6</ele><time>2026-05-02T11:16:22.539Z</time></trkpt><trkpt lat="44.468477219843166" lon="11.39317630133411"><ele>71.2</ele><time>2026-05-02T11:16:23.539Z</time></trkpt><trkpt lat="44.468552579195844" lon="11.393262405242604"><ele>70.8</ele><time>2026-05-02T11:16:24.539Z</time></trkpt><trkpt lat="44.46862882166266" lon="11.393349345402774"><ele>70.4</ele><time>2026-05-02T11:16:25.539Z</time></trkpt><trkpt lat="44.468693579842004" lon="11.393450340976262"><ele>70.0</ele><time>2026-05-02T11:16:26.539Z</time></trkpt><trkpt lat="44.468744305768745" lon="11.393574150145"><ele>70.0</ele><time>2026-05-02T11:16:27.539Z</time></trkpt><trkpt lat="44.46876833324526" lon="11.393724398534639"><ele>70.0</ele><time>2026-05-02T11:16:28.539Z</time></trkpt><trkpt lat="44.468781266705754" lon="11.393887671833076"><ele>70.0</ele><time>2026-05-02T11:16:29.539Z</time></trkpt><trkpt lat="44.46879061231936" lon="11.394057524053155"><ele>70.0</ele><time>2026-05-02T11:16:30.538Z</time></trkpt><trkpt lat="44.46881718017308" lon="11.394230741831795"><ele>70.0</ele><time>2026-05-02T11:16:31.538Z</time></trkpt><trkpt lat="44.46885540810042" lon="11.394389282157801"><ele>70.0</ele><time>2026-05-02T11:16:32.538Z</time></trkpt><trkpt lat="44.468912704377544" lon="11.394529168579897"><ele>70.0</ele><time>2026-05-02T11:16:33.538Z</time></trkpt><trkpt lat="44.46898094535487" lon="11.394652036547253"><ele>70.0</ele><time>2026-05-02T11:16:34.538Z</time></trkpt><trkpt lat="44.469072019786914" lon="11.394733684844358"><ele>69.5</ele><time>2026-05-02T11:16:35.538Z</time></trkpt><trkpt lat="44.46917072155748" lon="11.39477012597837"><ele>69.0</ele><time>2026-05-02T11:16:36.538Z</time></trkpt><trkpt lat="44.4692818929556" lon="11.394780635919982"><ele>68.5</ele><time>2026-05-02T11:16:37.538Z</time></trkpt><trkpt lat="44.4693969139544" lon="11.394763046398934"><ele>68.0</ele><time>2026-05-02T11:16:38.538Z</time></trkpt><trkpt lat="44.46951891346052" lon="11.394744292728044"><ele>67.5</ele><time>2026-05-02T11:16:39.538Z</time></trkpt><trkpt lat="44.46964522549177" lon="11.394727080133034"><ele>67.0</ele><time>2026-05-02T11:16:40.538Z</time></trkpt><trkpt lat="44.46977318269149" lon="11.394707474432813"><ele>66.5</ele><time>2026-05-02T11:16:41.538Z</time></trkpt><trkpt lat="44.469898425984205" lon="11.394691966794054"><ele>66.0</ele><time>2026-05-02T11:16:42.538Z</time></trkpt><trkpt lat="44.47001991010377" lon="11.394691128684281"><ele>66.0</ele><time>2026-05-02T11:16:43.538Z</time></trkpt><trkpt lat="44.47014481579967" lon="11.394711406248577"><ele>66.0</ele><time>2026-05-02T11:16:44.538Z</time></trkpt><trkpt lat="44.4702624458499" lon="11.394749862413645"><ele>66.0</ele><time>2026-05-02T11:16:45.538Z</time></trkpt><trkpt lat="44.470382942516366" lon="11.394790671330247"><ele>66.0</ele><time>2026-05-02T11:16:46.538Z</time></trkpt><trkpt lat="44.47049925724572" lon="11.394834622812551"><ele>66.5</ele><time>2026-05-02T11:16:47.538Z</time></trkpt><trkpt lat="44.47061255285339" lon="11.394879375598922"><ele>67.0</ele><time>2026-05-02T11:16:48.538Z</time></trkpt><trkpt lat="44.4707213722889" lon="11.394922008707514"><ele>67.5</ele><time>2026-05-02T11:16:49.538Z</time></trkpt><trkpt lat="44.47082872514202" lon="11.394964685242442"><ele>68.0</ele><time>2026-05-02T11:16:50.538Z</time></trkpt><trkpt lat="44.47093673528918" lon="11.395005264034138"><ele>68.0</ele><time>2026-05-02T11:16:51.538Z</time></trkpt><trkpt lat="44.47104617333832" lon="11.395042257037334"><ele>68.0</ele><time>2026-05-02T11:16:52.538Z</time></trkpt><trkpt lat="44.47115592932918" lon="11.395080610201052"><ele>68.0</ele><time>2026-05-02T11:16:53.538Z</time></trkpt><trkpt lat="44.47126830230608" lon="11.395117778108183"><ele>68.0</ele><time>2026-05-02T11:16:54.538Z</time></trkpt><trkpt lat="44.47138175505954" lon="11.395158078672894"><ele>68.75</ele><time>2026-05-02T11:16:55.538Z</time></trkpt><trkpt lat="44.47149616218591" lon="11.395199760825394"><ele>69.5</ele><time>2026-05-02T11:16:56.537Z</time></trkpt><trkpt lat="44.471612382745874" lon="11.395240870464207"><ele>70.25</ele><time>2026-05-02T11:16:57.537Z</time></trkpt><trkpt lat="44.47172510020396" lon="11.395286472293146"><ele>71.0</ele><time>2026-05-02T11:16:58.537Z</time></trkpt><trkpt lat="44.47183724950924" lon="11.395331398275644"><ele>71.0</ele><time>2026-05-02T11:16:59.537Z</time></trkpt><trkpt lat="44.47195253110487" lon="11.395379125831273"><ele>71.0</ele><time>2026-05-02T11:17:00.537Z</time></trkpt><trkpt lat="44.4720640541302" lon="11.395427085341826"><ele>71.0</ele><time>2026-05-02T11:17:01.537Z</time></trkpt><trkpt lat="44.47217757992759" lon="11.395482886569125"><ele>71.0</ele><time>2026-05-02T11:17:02.537Z</time></trkpt><trkpt lat="44.47229078112833" lon="11.395540729803447"><ele>70.25</ele><time>2026-05-02T11:17:03.537Z</time></trkpt><trkpt lat="44.472403642174456" lon="11.395594933247"><ele>69.5</ele><time>2026-05-02T11:17:04.537Z</time></trkpt><trkpt lat="44.472513218451994" lon="11.39566198149458"><ele>68.75</ele><time>2026-05-02T11:17:05.537Z</time></trkpt><trkpt lat="44.47262046755718" lon="11.395731226895789"><ele>68.0</ele><time>2026-05-02T11:17:06.537Z</time></trkpt><trkpt lat="44.47272863100049" lon="11.395803987070812"><ele>68.0</ele><time>2026-05-02T11:17:07.537Z</time></trkpt><trkpt lat="44.47283567222338" lon="11.395876527376245"><ele>68.0</ele><time>2026-05-02T11:17:08.537Z</time></trkpt><trkpt lat="44.472937624264546" lon="11.395950421026457"><ele>68.0</ele><time>2026-05-02T11:17:09.537Z</time></trkpt><trkpt lat="44.47303587667264" lon="11.396027536122022"><ele>68.0</ele><time>2026-05-02T11:17:10.537Z</time></trkpt><trkpt lat="44.473132510354475" lon="11.396103785428473"><ele>67.6</ele><time>2026-05-02T11:17:11.537Z</time></trkpt><trkpt lat="44.47322874073021" lon="11.396177833392697"><ele>67.19999999999999</ele><time>2026-05-02T11:17:12.537Z</time></trkpt><trkpt lat="44.47332553240316" lon="11.39625168535704"><ele>66.8</ele><time>2026-05-02T11:17:13.537Z</time></trkpt><trkpt lat="44.47341319940266" lon="11.396319113799086"><ele>66.39999999999999</ele><time>2026-05-02T11:17:14.537Z</time></trkpt><trkpt lat="44.473494082095755" lon="11.396380611201593"><ele>66.0</ele><time>2026-05-02T11:17:15.537Z</time></trkpt><trkpt lat="44.473569052530685" lon="11.39643419507504"><ele>66.0</ele><time>2026-05-02T11:17:16.537Z</time></trkpt><trkpt lat="44.47363924758122" lon="11.396484352382013"><ele>66.0</ele><time>2026-05-02T11:17:17.537Z</time></trkpt><trkpt lat="44.47370606233363" lon="11.396529369539923"><ele>66.0</ele><time>2026-05-02T11:17:18.537Z</time></trkpt><trkpt lat="44.47377619235737" lon="11.396577863244497"><ele>66.0</ele><time>2026-05-02T11:17:19.537Z</time></trkpt><trkpt lat="44.47384601171135" lon="11.396623956125188"><ele>66.0</ele><time>2026-05-02T11:17:20.537Z</time></trkpt><trkpt lat="44.47391308864335" lon="11.396678930227205"><ele>66.0</ele><time>2026-05-02T11:17:21.536Z</time></trkpt><trkpt lat="44.47398301900521" lon="11.39673131073037"><ele>65.71428571428571</ele><time>2026-05-02T11:17:22.536Z</time></trkpt><trkpt lat="44.47404574489614" lon="11.396782370801066"><ele>65.42857142857143</ele><time>2026-05-02T11:17:23.536Z</time></trkpt><trkpt lat="44.47411343098381" lon="11.396834954498415"><ele>65.14285714285714</ele><time>2026-05-02T11:17:24.536Z</time></trkpt><trkpt lat="44.47418388122312" lon="11.396890556640711"><ele>64.85714285714286</ele><time>2026-05-02T11:17:25.536Z</time></trkpt><trkpt lat="44.474249452540526" lon="11.396947931731932"><ele>64.57142857142857</ele><time>2026-05-02T11:17:26.536Z</time></trkpt><trkpt lat="44.47430618409893" lon="11.397014952809021"><ele>64.28571428571428</ele><time>2026-05-02T11:17:27.536Z</time></trkpt><trkpt lat="44.47435451718062" lon="11.3970775694434"><ele>64.0</ele><time>2026-05-02T11:17:28.536Z</time></trkpt><trkpt lat="44.47439609772406" lon="11.397159127922912"><ele>63.800000000000004</ele><time>2026-05-02T11:17:29.536Z</time></trkpt><trkpt lat="44.47443590952258" lon="11.397262161860896"><ele>63.60000000000001</ele><time>2026-05-02T11:17:30.536Z</time></trkpt><trkpt lat="44.47447319861552" lon="11.397380558145011"><ele>63.4</ele><time>2026-05-02T11:17:31.536Z</time></trkpt><trkpt lat="44.474508806721666" lon="11.397506482954547"><ele>63.2</ele><time>2026-05-02T11:17:32.536Z</time></trkpt><trkpt lat="44.47455808803537" lon="11.397635148341443"><ele>63.0</ele><time>2026-05-02T11:17:33.536Z</time></trkpt><trkpt lat="44.47462632642426" lon="11.397735050719422"><ele>63.0</ele><time>2026-05-02T11:17:34.536Z</time></trkpt><trkpt lat="44.47471071603712" lon="11.397813888913955"><ele>63.0</ele><time>2026-05-02T11:17:35.536Z</time></trkpt><trkpt lat="44.474806358140334" lon="11.39785176200045"><ele>63.0</ele><time>2026-05-02T11:17:36.536Z</time></trkpt><trkpt lat="44.47489654551042" lon="11.397858578005437"><ele>63.0</ele><time>2026-05-02T11:17:37.536Z</time></trkpt><trkpt lat="44.4749972025505" lon="11.397848854179578"><ele>63.0</ele><time>2026-05-02T11:17:38.536Z</time></trkpt><trkpt lat="44.475102204787525" lon="11.397823640391382"><ele>63.0</ele><time>2026-05-02T11:17:39.536Z</time></trkpt><trkpt lat="44.47521184788379" lon="11.397807459657923"><ele>63.0</ele><time>2026-05-02T11:17:40.536Z</time></trkpt><trkpt lat="44.47532171704665" lon="11.39782138403314"><ele>63.0</ele><time>2026-05-02T11:17:41.537Z</time></trkpt><trkpt lat="44.47544104929699" lon="11.397873858594535"><ele>63.0</ele><time>2026-05-02T11:17:42.536Z</time></trkpt><trkpt lat="44.47555700521129" lon="11.397952129712863"><ele>63.66666666666667</ele><time>2026-05-02T11:17:43.536Z</time></trkpt><trkpt lat="44.4756898005859" lon="11.398054223492394"><ele>64.33333333333334</ele><time>2026-05-02T11:17:44.536Z</time></trkpt><trkpt lat="44.47582632336169" lon="11.398159982934175"><ele>65.0</ele><time>2026-05-02T11:17:45.536Z</time></trkpt><trkpt lat="44.475973906427065" lon="11.398272710176062"><ele>65.0</ele><time>2026-05-02T11:17:46.536Z</time></trkpt><trkpt lat="44.47612847827007" lon="11.398379129853819"><ele>65.0</ele><time>2026-05-02T11:17:47.536Z</time></trkpt><trkpt lat="44.476287519854445" lon="11.398498296851036"><ele>65.0</ele><time>2026-05-02T11:17:48.536Z</time></trkpt><trkpt lat="44.47645186299019" lon="11.39861641560214"><ele>64.66666666666667</ele><time>2026-05-02T11:17:49.536Z</time></trkpt><trkpt lat="44.47661617285011" lon="11.398739430790574"><ele>64.33333333333333</ele><time>2026-05-02T11:17:50.536Z</time></trkpt><trkpt lat="44.476791201011" lon="11.398865983827692"><ele>64.0</ele><time>2026-05-02T11:17:51.536Z</time></trkpt><trkpt lat="44.47696936524156" lon="11.398997497645892"><ele>62.666666666666664</ele><time>2026-05-02T11:17:52.536Z</time></trkpt><trkpt lat="44.47715086010905" lon="11.399132203803957"><ele>61.33333333333333</ele><time>2026-05-02T11:17:53.536Z</time></trkpt><trkpt lat="44.47733761794513" lon="11.39926928356193"><ele>60.0</ele><time>2026-05-02T11:17:54.535Z</time></trkpt><trkpt lat="44.47752410005958" lon="11.399411479428965"><ele>60.0</ele><time>2026-05-02T11:17:55.535Z</time></trkpt><trkpt lat="44.477701280112306" lon="11.399555755751281"><ele>60.0</ele><time>2026-05-02T11:17:56.535Z</time></trkpt><trkpt lat="44.477887445341146" lon="11.399701827039866"><ele>60.0</ele><time>2026-05-02T11:17:57.535Z</time></trkpt><trkpt lat="44.47807415110873" lon="11.39984742571672"><ele>60.0</ele><time>2026-05-02T11:17:58.535Z</time></trkpt><trkpt lat="44.47826250005273" lon="11.399988734120603"><ele>60.0</ele><time>2026-05-02T11:17:59.535Z</time></trkpt><trkpt lat="44.47844975829598" lon="11.400129383547183"><ele>60.0</ele><time>2026-05-02T11:18:00.535Z</time></trkpt><trkpt lat="44.47863349344406" lon="11.400278804868265"><ele>59.66666666666667</ele><time>2026-05-02T11:18:01.535Z</time></trkpt><trkpt lat="44.478810714573775" lon="11.400438493944343"><ele>59.333333333333336</ele><time>2026-05-02T11:18:02.535Z</time></trkpt><trkpt lat="44.4789867627057" lon="11.400610622027623"><ele>59.0</ele><time>2026-05-02T11:18:03.535Z</time></trkpt><trkpt lat="44.47916189817042" lon="11.400772743399108"><ele>59.0</ele><time>2026-05-02T11:18:04.535Z</time></trkpt><trkpt lat="44.479335841745176" lon="11.40093548854545"><ele>59.0</ele><time>2026-05-02T11:18:05.535Z</time></trkpt><trkpt lat="44.47950859799217" lon="11.401097568320042"><ele>59.0</ele><time>2026-05-02T11:18:06.535Z</time></trkpt><trkpt lat="44.479681318890584" lon="11.401260074969233"><ele>58.66666666666667</ele><time>2026-05-02T11:18:07.535Z</time></trkpt><trkpt lat="44.47984930176515" lon="11.401429091179162"><ele>58.33333333333333</ele><time>2026-05-02T11:18:08.535Z</time></trkpt><trkpt lat="44.48001776137619" lon="11.401596979166397"><ele>58.0</ele><time>2026-05-02T11:18:09.535Z</time></trkpt><trkpt lat="44.480189404680246" lon="11.401769649797668"><ele>58.0</ele><time>2026-05-02T11:18:10.535Z</time></trkpt><trkpt lat="44.48036072466946" lon="11.401945276641285"><ele>58.0</ele><time>2026-05-02T11:18:11.535Z</time></trkpt><trkpt lat="44.48052629043966" lon="11.402121091553575"><ele>58.0</ele><time>2026-05-02T11:18:12.535Z</time></trkpt><trkpt lat="44.480691565619686" lon="11.402298918579985"><ele>57.666666666666664</ele><time>2026-05-02T11:18:13.534Z</time></trkpt><trkpt lat="44.48085622286291" lon="11.402479434059748"><ele>57.33333333333333</ele><time>2026-05-02T11:18:14.534Z</time></trkpt><trkpt lat="44.481023684572065" lon="11.402656955424176"><ele>57.0</ele><time>2026-05-02T11:18:15.534Z</time></trkpt><trkpt lat="44.48118927922877" lon="11.402835472500046"><ele>56.33333333333333</ele><time>2026-05-02T11:18:16.534Z</time></trkpt><trkpt lat="44.48135568364445" lon="11.403011519644924"><ele>55.666666666666664</ele><time>2026-05-02T11:18:17.534Z</time></trkpt><trkpt lat="44.481523499508505" lon="11.403190493850333"><ele>55.0</ele><time>2026-05-02T11:18:18.534Z</time></trkpt><trkpt lat="44.48169339907018" lon="11.403369503012524"><ele>55.0</ele><time>2026-05-02T11:18:19.534Z</time></trkpt><trkpt lat="44.48186133278219" lon="11.40355208835221"><ele>55.0</ele><time>2026-05-02T11:18:20.534Z</time></trkpt><trkpt lat="44.48203277871191" lon="11.403734513136376"><ele>55.0</ele><time>2026-05-02T11:18:21.534Z</time></trkpt><trkpt lat="44.48220003932926" lon="11.403921712068325"><ele>55.0</ele><time>2026-05-02T11:18:22.534Z</time></trkpt><trkpt lat="44.48236945723157" lon="11.404103736013735"><ele>55.0</ele><time>2026-05-02T11:18:23.534Z</time></trkpt><trkpt lat="44.48254181998912" lon="11.404281721125503"><ele>55.0</ele><time>2026-05-02T11:18:24.534Z</time></trkpt><trkpt lat="44.482712244840904" lon="11.404461125205236"><ele>55.0</ele><time>2026-05-02T11:18:25.534Z</time></trkpt><trkpt lat="44.48288537489475" lon="11.404631041110056"><ele>55.0</ele><time>2026-05-02T11:18:26.534Z</time></trkpt><trkpt lat="44.483051083618946" lon="11.404807855614026"><ele>55.0</ele><time>2026-05-02T11:18:27.534Z</time></trkpt><trkpt lat="44.48321950522262" lon="11.404983230161527"><ele>54.666666666666664</ele><time>2026-05-02T11:18:28.534Z</time></trkpt><trkpt lat="44.48338616888682" lon="11.405158890148352"><ele>54.33333333333333</ele><time>2026-05-02T11:18:29.534Z</time></trkpt><trkpt lat="44.48354264732274" lon="11.40532591285854"><ele>54.0</ele><time>2026-05-02T11:18:30.534Z</time></trkpt><trkpt lat="44.48369262053409" lon="11.405484614001281"><ele>51.666666666666664</ele><time>2026-05-02T11:18:31.534Z</time></trkpt><trkpt lat="44.48384313410142" lon="11.405644887254473"><ele>49.33333333333333</ele><time>2026-05-02T11:18:32.534Z</time></trkpt><trkpt lat="44.48398197243103" lon="11.405807415591745"><ele>47.0</ele><time>2026-05-02T11:18:33.534Z</time></trkpt><trkpt lat="44.48410664392492" lon="11.405987830122088"><ele>47.0</ele><time>2026-05-02T11:18:34.534Z</time></trkpt><trkpt lat="44.4842080295248" lon="11.406192902809478"><ele>47.0</ele><time>2026-05-02T11:18:35.534Z</time></trkpt><trkpt lat="44.48428398905585" lon="11.406429034671307"><ele>47.0</ele><time>2026-05-02T11:18:36.534Z</time></trkpt><trkpt lat="44.484340522781" lon="11.406681536079965"><ele>47.33333333333333</ele><time>2026-05-02T11:18:37.534Z</time></trkpt><trkpt lat="44.48437960021475" lon="11.406943383856845"><ele>47.666666666666664</ele><time>2026-05-02T11:18:38.534Z</time></trkpt><trkpt lat="44.484411256597845" lon="11.407212882900136"><ele>48.0</ele><time>2026-05-02T11:18:39.533Z</time></trkpt><trkpt lat="44.48443860757794" lon="11.40748828217979"><ele>48.0</ele><time>2026-05-02T11:18:40.533Z</time></trkpt><trkpt lat="44.48447032771886" lon="11.407763923596576"><ele>48.0</ele><time>2026-05-02T11:18:41.533Z</time></trkpt><trkpt lat="44.48451991763439" lon="11.40802675082976"><ele>48.0</ele><time>2026-05-02T11:18:42.533Z</time></trkpt><trkpt lat="44.484608616323754" lon="11.40824593143138"><ele>50.0</ele><time>2026-05-02T11:18:43.533Z</time></trkpt><trkpt lat="44.48474546740574" lon="11.408427958234986"><ele>52.0</ele><time>2026-05-02T11:18:44.533Z</time></trkpt><trkpt lat="44.48491385466184" lon="11.408567839024835"><ele>54.0</ele><time>2026-05-02T11:18:45.533Z</time></trkpt><trkpt lat="44.48509135377998" lon="11.408682584292634"><ele>54.0</ele><time>2026-05-02T11:18:46.533Z</time></trkpt><trkpt lat="44.485272046768564" lon="11.40880055218411"><ele>54.0</ele><time>2026-05-02T11:18:47.533Z</time></trkpt><trkpt lat="44.485451402632116" lon="11.408919662038025"><ele>54.0</ele><time>2026-05-02T11:18:48.533Z</time></trkpt><trkpt lat="44.48563088653408" lon="11.409006094190106"><ele>53.0</ele><time>2026-05-02T11:18:49.533Z</time></trkpt><trkpt lat="44.485818790571244" lon="11.409012176694818"><ele>52.0</ele><time>2026-05-02T11:18:50.533Z</time></trkpt><trkpt lat="44.48600745216128" lon="11.40895290046721"><ele>51.0</ele><time>2026-05-02T11:18:51.533Z</time></trkpt><trkpt lat="44.48620017790232" lon="11.408845220918831"><ele>51.0</ele><time>2026-05-02T11:18:52.533Z</time></trkpt><trkpt lat="44.48638037245212" lon="11.40874535761201"><ele>51.0</ele><time>2026-05-02T11:18:53.533Z</time></trkpt><trkpt lat="44.48654283523567" lon="11.408659989045045"><ele>51.0</ele><time>2026-05-02T11:18:54.533Z</time></trkpt><trkpt lat="44.48669522823654" lon="11.40856039558714"><ele>51.0</ele><time>2026-05-02T11:18:55.533Z</time></trkpt><trkpt lat="44.4868175675423" lon="11.408395886208362"><ele>51.0</ele><time>2026-05-02T11:18:56.533Z</time></trkpt><trkpt lat="44.48689943642447" lon="11.408186135899411"><ele>51.0</ele><time>2026-05-02T11:18:57.533Z</time></trkpt><trkpt lat="44.486929321961" lon="11.407949743970617"><ele>51.33333333333333</ele><time>2026-05-02T11:18:58.533Z</time></trkpt><trkpt lat="44.486889618935734" lon="11.40769573977208"><ele>51.666666666666664</ele><time>2026-05-02T11:18:59.533Z</time></trkpt><trkpt lat="44.48681774761709" lon="11.40743653388495"><ele>52.0</ele><time>2026-05-02T11:19:00.533Z</time></trkpt><trkpt lat="44.48673874372377" lon="11.407180523725426"><ele>51.666666666666664</ele><time>2026-05-02T11:19:01.533Z</time></trkpt><trkpt lat="44.486674816462006" lon="11.406935804100916"><ele>51.33333333333333</ele><time>2026-05-02T11:19:02.533Z</time></trkpt><trkpt lat="44.486622176039816" lon="11.406704969269857"><ele>51.0</ele><time>2026-05-02T11:19:03.533Z</time></trkpt><trkpt lat="44.48658159220661" lon="11.406486028061249"><ele>51.25</ele><time>2026-05-02T11:19:04.532Z</time></trkpt><trkpt lat="44.48656542311876" lon="11.40628215822308"><ele>51.5</ele><time>2026-05-02T11:19:05.532Z</time></trkpt><trkpt lat="44.486565052983146" lon="11.406083272094666"><ele>51.75</ele><time>2026-05-02T11:19:06.532Z</time></trkpt><trkpt lat="44.48656457713429" lon="11.405879629509238"><ele>52.0</ele><time>2026-05-02T11:19:07.532Z</time></trkpt><trkpt lat="44.48658373081618" lon="11.405668428734288"><ele>52.33333333333333</ele><time>2026-05-02T11:19:08.532Z</time></trkpt><trkpt lat="44.48662307196705" lon="11.405447856650897"><ele>52.66666666666667</ele><time>2026-05-02T11:19:09.532Z</time></trkpt><trkpt lat="44.48668335711008" lon="11.405227047226365"><ele>53.0</ele><time>2026-05-02T11:19:10.532Z</time></trkpt><trkpt lat="44.486736114193626" lon="11.405003857817693"><ele>53.0</ele><time>2026-05-02T11:19:11.532Z</time></trkpt><trkpt lat="44.48679219641839" lon="11.404770422323994"><ele>53.0</ele><time>2026-05-02T11:19:12.532Z</time></trkpt><trkpt lat="44.4868590174838" lon="11.404550790729125"><ele>53.0</ele><time>2026-05-02T11:19:13.532Z</time></trkpt><trkpt lat="44.48691920800494" lon="11.404319006875177"><ele>53.0</ele><time>2026-05-02T11:19:14.532Z</time></trkpt><trkpt lat="44.486977945994056" lon="11.404091320172553"><ele>53.0</ele><time>2026-05-02T11:19:15.532Z</time></trkpt><trkpt lat="44.48704061317738" lon="11.403866327871201"><ele>53.0</ele><time>2026-05-02T11:19:16.532Z</time></trkpt><trkpt lat="44.487098957894666" lon="11.403646167181595"><ele>53.0</ele><time>2026-05-02T11:19:17.532Z</time></trkpt><trkpt lat="44.487156263480465" lon="11.403422958260535"><ele>53.0</ele><time>2026-05-02T11:19:18.532Z</time></trkpt><trkpt lat="44.48721564162242" lon="11.403199402218267"><ele>53.0</ele><time>2026-05-02T11:19:19.532Z</time></trkpt><trkpt lat="44.487285991039" lon="11.40298056624071"><ele>53.0</ele><time>2026-05-02T11:19:20.532Z</time></trkpt><trkpt lat="44.48735625804537" lon="11.402758264992453"><ele>53.0</ele><time>2026-05-02T11:19:21.532Z</time></trkpt><trkpt lat="44.48742608150457" lon="11.402530518101495"><ele>53.0</ele><time>2026-05-02T11:19:22.532Z</time></trkpt><trkpt lat="44.4874966085782" lon="11.402297518993235"><ele>53.0</ele><time>2026-05-02T11:19:23.532Z</time></trkpt><trkpt lat="44.48757051218605" lon="11.402068432250832"><ele>53.0</ele><time>2026-05-02T11:19:24.532Z</time></trkpt><trkpt lat="44.48764612339881" lon="11.40182640430888"><ele>53.0</ele><time>2026-05-02T11:19:25.532Z</time></trkpt><trkpt lat="44.48771759507896" lon="11.401586706710702"><ele>53.0</ele><time>2026-05-02T11:19:26.532Z</time></trkpt><trkpt lat="44.48778694921951" lon="11.401346515719807"><ele>53.0</ele><time>2026-05-02T11:19:27.532Z</time></trkpt><trkpt lat="44.48786379654982" lon="11.401110547718552"><ele>53.0</ele><time>2026-05-02T11:19:28.532Z</time></trkpt><trkpt lat="44.487943521786846" lon="11.400866753527461"><ele>52.333333333333336</ele><time>2026-05-02T11:19:29.532Z</time></trkpt><trkpt lat="44.488027016985555" lon="11.400624380442657"><ele>51.66666666666667</ele><time>2026-05-02T11:19:30.531Z</time></trkpt><trkpt lat="44.48810681103863" lon="11.40037316939859"><ele>51.0</ele><time>2026-05-02T11:19:31.531Z</time></trkpt><trkpt lat="44.48818661638788" lon="11.400123257907977"><ele>51.0</ele><time>2026-05-02T11:19:32.531Z</time></trkpt><trkpt lat="44.48826941796102" lon="11.39987588650546"><ele>51.0</ele><time>2026-05-02T11:19:33.531Z</time></trkpt><trkpt lat="44.48835460275939" lon="11.399625127811074"><ele>51.0</ele><time>2026-05-02T11:19:34.531Z</time></trkpt><trkpt lat="44.48843574623223" lon="11.399372674127886"><ele>51.33333333333333</ele><time>2026-05-02T11:19:35.531Z</time></trkpt><trkpt lat="44.48851897041106" lon="11.399116531892727"><ele>51.666666666666664</ele><time>2026-05-02T11:19:36.531Z</time></trkpt><trkpt lat="44.48860380320058" lon="11.398859743802833"><ele>52.0</ele><time>2026-05-02T11:19:37.531Z</time></trkpt><trkpt lat="44.48868878326034" lon="11.398605213901494"><ele>52.33333333333333</ele><time>2026-05-02T11:19:38.531Z</time></trkpt><trkpt lat="44.488776581043204" lon="11.398349285944585"><ele>52.66666666666667</ele><time>2026-05-02T11:19:39.531Z</time></trkpt><trkpt lat="44.48886328305469" lon="11.3980985997532"><ele>53.0</ele><time>2026-05-02T11:19:40.531Z</time></trkpt><trkpt lat="44.488952895783555" lon="11.397845935370661"><ele>53.0</ele><time>2026-05-02T11:19:41.531Z</time></trkpt><trkpt lat="44.48904154974696" lon="11.397593321596942"><ele>53.0</ele><time>2026-05-02T11:19:42.531Z</time></trkpt><trkpt lat="44.48913214184612" lon="11.39734250398749"><ele>53.0</ele><time>2026-05-02T11:19:43.531Z</time></trkpt><trkpt lat="44.48922550364043" lon="11.397086336321975"><ele>52.66666666666667</ele><time>2026-05-02T11:19:44.531Z</time></trkpt><trkpt lat="44.48932404333908" lon="11.396833652299938"><ele>52.33333333333333</ele><time>2026-05-02T11:19:45.531Z</time></trkpt><trkpt lat="44.48942711749263" lon="11.396588161830174"><ele>52.0</ele><time>2026-05-02T11:19:46.531Z</time></trkpt><trkpt lat="44.48953368054052" lon="11.396345972063115"><ele>52.0</ele><time>2026-05-02T11:19:47.532Z</time></trkpt><trkpt lat="44.48964572716732" lon="11.396106654212682"><ele>52.0</ele><time>2026-05-02T11:19:48.532Z</time></trkpt><trkpt lat="44.48976229602345" lon="11.39586551569813"><ele>52.0</ele><time>2026-05-02T11:19:49.532Z</time></trkpt><trkpt lat="44.48988206681434" lon="11.395625924687277"><ele>52.33333333333333</ele><time>2026-05-02T11:19:50.532Z</time></trkpt><trkpt lat="44.49000528391154" lon="11.395391233233157"><ele>52.66666666666667</ele><time>2026-05-02T11:19:51.532Z</time></trkpt><trkpt lat="44.490135642711714" lon="11.395159063411741"><ele>53.0</ele><time>2026-05-02T11:19:52.532Z</time></trkpt><trkpt lat="44.49026968625074" lon="11.394932536847188"><ele>53.0</ele><time>2026-05-02T11:19:53.532Z</time></trkpt><trkpt lat="44.49041026204178" lon="11.394711047734528"><ele>53.0</ele><time>2026-05-02T11:19:54.531Z</time></trkpt><trkpt lat="44.49055490609837" lon="11.394492842048262"><ele>53.0</ele><time>2026-05-02T11:19:55.531Z</time></trkpt><trkpt lat="44.490703540686766" lon="11.394272515079065"><ele>53.333333333333336</ele><time>2026-05-02T11:19:56.532Z</time></trkpt><trkpt lat="44.49085320583462" lon="11.39404683687335"><ele>53.66666666666667</ele><time>2026-05-02T11:19:57.532Z</time></trkpt><trkpt lat="44.49101346301241" lon="11.393832214770093"><ele>54.0</ele><time>2026-05-02T11:19:58.532Z</time></trkpt><trkpt lat="44.49117890697764" lon="11.393629234081716"><ele>53.0</ele><time>2026-05-02T11:19:59.532Z</time></trkpt><trkpt lat="44.4913547114174" lon="11.393427164102158"><ele>52.0</ele><time>2026-05-02T11:20:00.532Z</time></trkpt><trkpt lat="44.49153139991182" lon="11.393227098226568"><ele>52.0</ele><time>2026-05-02T11:20:01.532Z</time></trkpt><trkpt lat="44.49171323508951" lon="11.393036515087967"><ele>52.0</ele><time>2026-05-02T11:20:02.532Z</time></trkpt><trkpt lat="44.49190038041279" lon="11.392856915143296"><ele>52.0</ele><time>2026-05-02T11:20:03.532Z</time></trkpt><trkpt lat="44.49208493536577" lon="11.392678627066607"><ele>52.0</ele><time>2026-05-02T11:20:04.532Z</time></trkpt><trkpt lat="44.49227753323303" lon="11.392508392263387"><ele>52.5</ele><time>2026-05-02T11:20:05.532Z</time></trkpt><trkpt lat="44.492465191062166" lon="11.392325138848367"><ele>53.0</ele><time>2026-05-02T11:20:06.532Z</time></trkpt><trkpt lat="44.4926530899828" lon="11.39213618811301"><ele>53.0</ele><time>2026-05-02T11:20:07.532Z</time></trkpt><trkpt lat="44.492842194978756" lon="11.39195449555635"><ele>53.0</ele><time>2026-05-02T11:20:08.532Z</time></trkpt><trkpt lat="44.49302971694298" lon="11.391777633240263"><ele>52.0</ele><time>2026-05-02T11:20:09.532Z</time></trkpt><trkpt lat="44.4932088778931" lon="11.391583133704575"><ele>51.0</ele><time>2026-05-02T11:20:10.532Z</time></trkpt><trkpt lat="44.493388750413274" lon="11.391379080399187"><ele>51.0</ele><time>2026-05-02T11:20:11.532Z</time></trkpt><trkpt lat="44.49356210767483" lon="11.391165895666273"><ele>51.0</ele><time>2026-05-02T11:20:12.532Z</time></trkpt><trkpt lat="44.49373291242216" lon="11.390955969377986"><ele>51.0</ele><time>2026-05-02T11:20:13.532Z</time></trkpt><trkpt lat="44.49390817256485" lon="11.390721549609054"><ele>51.0</ele><time>2026-05-02T11:20:14.531Z</time></trkpt><trkpt lat="44.494090882120474" lon="11.390498176741264"><ele>51.0</ele><time>2026-05-02T11:20:15.531Z</time></trkpt><trkpt lat="44.494262654229544" lon="11.390264819448447"><ele>51.0</ele><time>2026-05-02T11:20:16.531Z</time></trkpt><trkpt lat="44.494450472224095" lon="11.390053058490539"><ele>49.5</ele><time>2026-05-02T11:20:17.531Z</time></trkpt><trkpt lat="44.494643412435586" lon="11.389881670333477"><ele>48.0</ele><time>2026-05-02T11:20:18.531Z</time></trkpt><trkpt lat="44.49485216608603" lon="11.389760093364966"><ele>48.0</ele><time>2026-05-02T11:20:19.531Z</time></trkpt><trkpt lat="44.49506858590675" lon="11.389645427822812"><ele>48.0</ele><time>2026-05-02T11:20:20.531Z</time></trkpt><trkpt lat="44.49527474066072" lon="11.38951967122251"><ele>49.0</ele><time>2026-05-02T11:20:21.531Z</time></trkpt><trkpt lat="44.49547931701175" lon="11.389383434591341"><ele>50.0</ele><time>2026-05-02T11:20:22.531Z</time></trkpt><trkpt lat="44.495697303730694" lon="11.38929125958763"><ele>50.0</ele><time>2026-05-02T11:20:23.531Z</time></trkpt><trkpt lat="44.49590224497965" lon="11.389158759764848"><ele>50.0</ele><time>2026-05-02T11:20:24.531Z</time></trkpt><trkpt lat="44.496103186670126" lon="11.389016362967828"><ele>49.333333333333336</ele><time>2026-05-02T11:20:25.531Z</time></trkpt><trkpt lat="44.49630932750832" lon="11.38889229056452"><ele>48.66666666666667</ele><time>2026-05-02T11:20:26.531Z</time></trkpt><trkpt lat="44.4965146632183" lon="11.3887736784615"><ele>48.0</ele><time>2026-05-02T11:20:27.531Z</time></trkpt><trkpt lat="44.49672175934388" lon="11.388651777018172"><ele>48.0</ele><time>2026-05-02T11:20:28.531Z</time></trkpt><trkpt lat="44.49692919649886" lon="11.38851545809634"><ele>48.0</ele><time>2026-05-02T11:20:29.531Z</time></trkpt><trkpt lat="44.49713354935934" lon="11.388365147264098"><ele>49.0</ele><time>2026-05-02T11:20:30.531Z</time></trkpt><trkpt lat="44.4973285145815" lon="11.388188035038333"><ele>50.0</ele><time>2026-05-02T11:20:31.531Z</time></trkpt><trkpt lat="44.497498976473096" lon="11.387954518035041"><ele>50.0</ele><time>2026-05-02T11:20:32.531Z</time></trkpt><trkpt lat="44.49768785663774" lon="11.387765751852301"><ele>50.0</ele><time>2026-05-02T11:20:33.531Z</time></trkpt><trkpt lat="44.49788401074035" lon="11.387579787936358"><ele>49.0</ele><time>2026-05-02T11:20:34.531Z</time></trkpt><trkpt lat="44.49808421509219" lon="11.387389415952004"><ele>48.0</ele><time>2026-05-02T11:20:35.531Z</time></trkpt><trkpt lat="44.49828141114416" lon="11.387199646613649"><ele>50.5</ele><time>2026-05-02T11:20:36.531Z</time></trkpt><trkpt lat="44.49848255894677" lon="11.387008679281273"><ele>53.0</ele><time>2026-05-02T11:20:37.531Z</time></trkpt><trkpt lat="44.49868629130189" lon="11.386821833689714"><ele>51.5</ele><time>2026-05-02T11:20:38.531Z</time></trkpt><trkpt lat="44.49889355428191" lon="11.38664283292578"><ele>50.0</ele><time>2026-05-02T11:20:39.531Z</time></trkpt><trkpt lat="44.49910249901976" lon="11.386465343125478"><ele>50.5</ele><time>2026-05-02T11:20:40.53Z</time></trkpt><trkpt lat="44.49931076546274" lon="11.386290161912417"><ele>51.0</ele><time>2026-05-02T11:20:41.53Z</time></trkpt><trkpt lat="44.499519097913605" lon="11.386114287928493"><ele>48.5</ele><time>2026-05-02T11:20:42.53Z</time></trkpt><trkpt lat="44.4997271960536" lon="11.385930705407402"><ele>46.0</ele><time>2026-05-02T11:20:43.53Z</time></trkpt><trkpt lat="44.49993683226839" lon="11.385753159277227"><ele>46.0</ele><time>2026-05-02T11:20:44.53Z</time></trkpt><trkpt lat="44.50014664718331" lon="11.385574411223484"><ele>46.0</ele><time>2026-05-02T11:20:45.53Z</time></trkpt><trkpt lat="44.50035568777229" lon="11.38539349748253"><ele>47.5</ele><time>2026-05-02T11:20:46.53Z</time></trkpt><trkpt lat="44.500564967365214" lon="11.385211255769706"><ele>49.0</ele><time>2026-05-02T11:20:47.53Z</time></trkpt><trkpt lat="44.50077502343304" lon="11.385028731477039"><ele>49.0</ele><time>2026-05-02T11:20:48.53Z</time></trkpt><trkpt lat="44.50098738485466" lon="11.384849187722173"><ele>49.0</ele><time>2026-05-02T11:20:49.53Z</time></trkpt><trkpt lat="44.50119861047919" lon="11.384667600801247"><ele>48.0</ele><time>2026-05-02T11:20:50.53Z</time></trkpt><trkpt lat="44.50139916692982" lon="11.384473252959078"><ele>47.0</ele><time>2026-05-02T11:20:51.53Z</time></trkpt><trkpt lat="44.5016076955741" lon="11.384286286781537"><ele>47.0</ele><time>2026-05-02T11:20:52.53Z</time></trkpt><trkpt lat="44.501819012021585" lon="11.38410228942726"><ele>47.0</ele><time>2026-05-02T11:20:53.53Z</time></trkpt><trkpt lat="44.50203100073437" lon="11.383916908570761"><ele>47.5</ele><time>2026-05-02T11:20:54.53Z</time></trkpt><trkpt lat="44.50224512673588" lon="11.383727221622252"><ele>48.0</ele><time>2026-05-02T11:20:55.53Z</time></trkpt><trkpt lat="44.50248016205589" lon="11.383525479689418"><ele>48.0</ele><time>2026-05-02T11:20:56.53Z</time></trkpt><trkpt lat="44.50273143618191" lon="11.383298032337633"><ele>48.0</ele><time>2026-05-02T11:20:57.53Z</time></trkpt><trkpt lat="44.502993250025646" lon="11.383060547022932"><ele>46.0</ele><time>2026-05-02T11:20:58.53Z</time></trkpt><trkpt lat="44.503272175953846" lon="11.382853817061509"><ele>44.0</ele><time>2026-05-02T11:20:59.53Z</time></trkpt><trkpt lat="44.50354511601332" lon="11.382664209887587"><ele>45.0</ele><time>2026-05-02T11:21:00.53Z</time></trkpt><trkpt lat="44.50380840132449" lon="11.382492586709656"><ele>46.0</ele><time>2026-05-02T11:21:01.53Z</time></trkpt><trkpt lat="44.50406367814387" lon="11.382340481219838"><ele>46.0</ele><time>2026-05-02T11:21:02.53Z</time></trkpt><trkpt lat="44.50431178410734" lon="11.382209797366919"><ele>46.0</ele><time>2026-05-02T11:21:03.53Z</time></trkpt><trkpt lat="44.504558715307425" lon="11.382100607751669"><ele>46.0</ele><time>2026-05-02T11:21:04.53Z</time></trkpt><trkpt lat="44.50480974407308" lon="11.382010099008617"><ele>46.0</ele><time>2026-05-02T11:21:05.529Z</time></trkpt><trkpt lat="44.505056251293055" lon="11.38193244332679"><ele>46.0</ele><time>2026-05-02T11:21:06.529Z</time></trkpt><trkpt lat="44.50531162137226" lon="11.38187067378683"><ele>46.0</ele><time>2026-05-02T11:21:07.529Z</time></trkpt><trkpt lat="44.50557157041761" lon="11.381824546025364"><ele>46.0</ele><time>2026-05-02T11:21:08.529Z</time></trkpt><trkpt lat="44.50583370418153" lon="11.381794454970578"><ele>46.0</ele><time>2026-05-02T11:21:09.529Z</time></trkpt><trkpt lat="44.506084674373156" lon="11.381776236179862"><ele>45.5</ele><time>2026-05-02T11:21:10.529Z</time></trkpt><trkpt lat="44.506323182468044" lon="11.381746801492737"><ele>45.0</ele><time>2026-05-02T11:21:11.529Z</time></trkpt><trkpt lat="44.506561345064355" lon="11.381713174952207"><ele>45.0</ele><time>2026-05-02T11:21:12.529Z</time></trkpt><trkpt lat="44.50679847678412" lon="11.381695628903286"><ele>45.0</ele><time>2026-05-02T11:21:13.529Z</time></trkpt><trkpt lat="44.50703064833914" lon="11.381676799277384"><ele>44.5</ele><time>2026-05-02T11:21:14.529Z</time></trkpt><trkpt lat="44.50725868196524" lon="11.381656684181904"><ele>44.0</ele><time>2026-05-02T11:21:15.529Z</time></trkpt><trkpt lat="44.50749080548046" lon="11.381632415515439"><ele>44.0</ele><time>2026-05-02T11:21:16.529Z</time></trkpt><trkpt lat="44.50772025298291" lon="11.381610492157545"><ele>44.0</ele><time>2026-05-02T11:21:17.529Z</time></trkpt><trkpt lat="44.50794787743713" lon="11.381586685580041"><ele>43.5</ele><time>2026-05-02T11:21:18.529Z</time></trkpt><trkpt lat="44.50817504977778" lon="11.38156723394179"><ele>43.0</ele><time>2026-05-02T11:21:19.529Z</time></trkpt><trkpt lat="44.508401851689726" lon="11.381542997359338"><ele>43.0</ele><time>2026-05-02T11:21:20.529Z</time></trkpt><trkpt lat="44.50862575481925" lon="11.381511782697892"><ele>43.0</ele><time>2026-05-02T11:21:21.529Z</time></trkpt><trkpt lat="44.50885094267125" lon="11.381471742278917"><ele>44.0</ele><time>2026-05-02T11:21:22.529Z</time></trkpt><trkpt lat="44.509077956680294" lon="11.38141924912004"><ele>45.0</ele><time>2026-05-02T11:21:23.529Z</time></trkpt><trkpt lat="44.50930197522398" lon="11.38135056059995"><ele>46.0</ele><time>2026-05-02T11:21:24.529Z</time></trkpt><trkpt lat="44.50952581273749" lon="11.38127273227165"><ele>47.0</ele><time>2026-05-02T11:21:25.529Z</time></trkpt><trkpt lat="44.50974580226526" lon="11.381183199952543"><ele>45.666666666666664</ele><time>2026-05-02T11:21:26.529Z</time></trkpt><trkpt lat="44.50995899982483" lon="11.381085712391725"><ele>44.333333333333336</ele><time>2026-05-02T11:21:27.529Z</time></trkpt><trkpt lat="44.51017090179165" lon="11.380978814811202"><ele>43.0</ele><time>2026-05-02T11:21:28.529Z</time></trkpt><trkpt lat="44.51037876603551" lon="11.380859285648233"><ele>44.0</ele><time>2026-05-02T11:21:29.529Z</time></trkpt><trkpt lat="44.510591229443854" lon="11.380724238639607"><ele>45.0</ele><time>2026-05-02T11:21:30.528Z</time></trkpt><trkpt lat="44.51081012606307" lon="11.380581685089725"><ele>43.5</ele><time>2026-05-02T11:21:31.528Z</time></trkpt><trkpt lat="44.51102223678807" lon="11.380435272973319"><ele>42.0</ele><time>2026-05-02T11:21:32.528Z</time></trkpt><trkpt lat="44.511230970813145" lon="11.38028471366453"><ele>42.0</ele><time>2026-05-02T11:21:33.528Z</time></trkpt><trkpt lat="44.511434295914356" lon="11.380120303729074"><ele>42.0</ele><time>2026-05-02T11:21:34.528Z</time></trkpt><trkpt lat="44.51163742403422" lon="11.379958075388496"><ele>42.0</ele><time>2026-05-02T11:21:35.528Z</time></trkpt><trkpt lat="44.51183912860248" lon="11.379798938172797"><ele>42.0</ele><time>2026-05-02T11:21:36.528Z</time></trkpt><trkpt lat="44.51204324593857" lon="11.379634820499188"><ele>43.0</ele><time>2026-05-02T11:21:37.528Z</time></trkpt><trkpt lat="44.51224895761386" lon="11.379471232764985"><ele>44.0</ele><time>2026-05-02T11:21:38.528Z</time></trkpt><trkpt lat="44.512454545585506" lon="11.379307957702443"><ele>44.0</ele><time>2026-05-02T11:21:39.528Z</time></trkpt><trkpt lat="44.512660807338605" lon="11.379145070604418"><ele>44.0</ele><time>2026-05-02T11:21:40.528Z</time></trkpt><trkpt lat="44.51286782828265" lon="11.378985364781512"><ele>42.5</ele><time>2026-05-02T11:21:41.528Z</time></trkpt><trkpt lat="44.513072921475434" lon="11.378825962563466"><ele>41.0</ele><time>2026-05-02T11:21:42.528Z</time></trkpt><trkpt lat="44.513279102971154" lon="11.378668833972105"><ele>41.0</ele><time>2026-05-02T11:21:43.528Z</time></trkpt><trkpt lat="44.51348609255963" lon="11.378505731110495"><ele>41.0</ele><time>2026-05-02T11:21:44.528Z</time></trkpt><trkpt lat="44.51369230503151" lon="11.378341167932131"><ele>41.0</ele><time>2026-05-02T11:21:45.528Z</time></trkpt><trkpt lat="44.51390023228073" lon="11.378175449536498"><ele>41.0</ele><time>2026-05-02T11:21:46.528Z</time></trkpt><trkpt lat="44.514107973491186" lon="11.378010044943073"><ele>41.0</ele><time>2026-05-02T11:21:47.528Z</time></trkpt><trkpt lat="44.514312565808886" lon="11.377845539105483"><ele>41.0</ele><time>2026-05-02T11:21:48.528Z</time></trkpt><trkpt lat="44.51451830126393" lon="11.377690498222735"><ele>41.5</ele><time>2026-05-02T11:21:49.528Z</time></trkpt><trkpt lat="44.51472278002106" lon="11.377531972395587"><ele>42.0</ele><time>2026-05-02T11:21:50.528Z</time></trkpt><trkpt lat="44.514928912794204" lon="11.377369041898222"><ele>42.0</ele><time>2026-05-02T11:21:51.528Z</time></trkpt><trkpt lat="44.51513957856318" lon="11.377203381441316"><ele>42.0</ele><time>2026-05-02T11:21:52.528Z</time></trkpt><trkpt lat="44.515346931300954" lon="11.377038140004133"><ele>42.0</ele><time>2026-05-02T11:21:53.529Z</time></trkpt><trkpt lat="44.515544916798355" lon="11.376882604801027"><ele>42.0</ele><time>2026-05-02T11:21:54.528Z</time></trkpt><trkpt lat="44.51573847546081" lon="11.37673585985477"><ele>42.0</ele><time>2026-05-02T11:21:55.528Z</time></trkpt><trkpt lat="44.51592765835588" lon="11.376579071298194"><ele>42.0</ele><time>2026-05-02T11:21:56.528Z</time></trkpt><trkpt lat="44.51612281173307" lon="11.376432144899148"><ele>42.0</ele><time>2026-05-02T11:21:57.528Z</time></trkpt><trkpt lat="44.51632383275327" lon="11.376276885784462"><ele>40.0</ele><time>2026-05-02T11:21:58.528Z</time></trkpt><trkpt lat="44.516525292583154" lon="11.376118298762647"><ele>38.0</ele><time>2026-05-02T11:21:59.528Z</time></trkpt><trkpt lat="44.5167263879267" lon="11.37595478627411"><ele>38.0</ele><time>2026-05-02T11:22:00.528Z</time></trkpt><trkpt lat="44.51692937292476" lon="11.375783820197414"><ele>38.0</ele><time>2026-05-02T11:22:01.528Z</time></trkpt><trkpt lat="44.5171260094929" lon="11.375597259542912"><ele>36.5</ele><time>2026-05-02T11:22:02.528Z</time></trkpt><trkpt lat="44.51731721495945" lon="11.375406531587881"><ele>35.0</ele><time>2026-05-02T11:22:03.528Z</time></trkpt><trkpt lat="44.517506062716826" lon="11.375210878473728"><ele>35.0</ele><time>2026-05-02T11:22:04.528Z</time></trkpt><trkpt lat="44.51769410083507" lon="11.375007610628165"><ele>35.0</ele><time>2026-05-02T11:22:05.528Z</time></trkpt><trkpt lat="44.517877013259735" lon="11.374794388089004"><ele>35.0</ele><time>2026-05-02T11:22:06.527Z</time></trkpt><trkpt lat="44.518054059657" lon="11.374571039287385"><ele>35.0</ele><time>2026-05-02T11:22:07.527Z</time></trkpt><trkpt lat="44.518222619661955" lon="11.374336412737529"><ele>35.0</ele><time>2026-05-02T11:22:08.527Z</time></trkpt><trkpt lat="44.51838437132607" lon="11.374092633821085"><ele>35.0</ele><time>2026-05-02T11:22:09.527Z</time></trkpt><trkpt lat="44.51854532532125" lon="11.373841095220639"><ele>35.5</ele><time>2026-05-02T11:22:10.527Z</time></trkpt><trkpt lat="44.51869330543063" lon="11.373579410842959"><ele>36.0</ele><time>2026-05-02T11:22:11.527Z</time></trkpt><trkpt lat="44.51883943055608" lon="11.37331263717639"><ele>36.0</ele><time>2026-05-02T11:22:12.527Z</time></trkpt><trkpt lat="44.518984361863694" lon="11.373037901486267"><ele>36.0</ele><time>2026-05-02T11:22:13.527Z</time></trkpt><trkpt lat="44.51912962126895" lon="11.372771327687683"><ele>37.0</ele><time>2026-05-02T11:22:14.527Z</time></trkpt><trkpt lat="44.51926614609031" lon="11.372510946403958"><ele>38.0</ele><time>2026-05-02T11:22:15.527Z</time></trkpt><trkpt lat="44.51940015617003" lon="11.372248292096883"><ele>38.0</ele><time>2026-05-02T11:22:16.527Z</time></trkpt><trkpt lat="44.5195343617759" lon="11.37197263989286"><ele>38.0</ele><time>2026-05-02T11:22:17.526Z</time></trkpt><trkpt lat="44.51967345999161" lon="11.371693043023852"><ele>38.5</ele><time>2026-05-02T11:22:18.526Z</time></trkpt><trkpt lat="44.519806149330535" lon="11.371417435094294"><ele>39.0</ele><time>2026-05-02T11:22:19.526Z</time></trkpt><trkpt lat="44.51993127814991" lon="11.371145853559948"><ele>39.5</ele><time>2026-05-02T11:22:20.526Z</time></trkpt><trkpt lat="44.52004472866617" lon="11.370864221964847"><ele>40.0</ele><time>2026-05-02T11:22:21.526Z</time></trkpt><trkpt lat="44.520151119049466" lon="11.370573806602684"><ele>39.0</ele><time>2026-05-02T11:22:22.526Z</time></trkpt><trkpt lat="44.520252718408884" lon="11.370280135026917"><ele>38.0</ele><time>2026-05-02T11:22:23.526Z</time></trkpt><trkpt lat="44.52035163552696" lon="11.369984408932433"><ele>37.5</ele><time>2026-05-02T11:22:24.526Z</time></trkpt><trkpt lat="44.52045133485151" lon="11.369678339517675"><ele>37.0</ele><time>2026-05-02T11:22:25.526Z</time></trkpt><trkpt lat="44.52054518230638" lon="11.369376982125031"><ele>37.0</ele><time>2026-05-02T11:22:26.526Z</time></trkpt><trkpt lat="44.52064068087749" lon="11.36907578989749"><ele>37.0</ele><time>2026-05-02T11:22:27.526Z</time></trkpt><trkpt lat="44.5207459325432" lon="11.36878513025778"><ele>36.5</ele><time>2026-05-02T11:22:28.526Z</time></trkpt><trkpt lat="44.5208608003709" lon="11.368502961686191"><ele>36.0</ele><time>2026-05-02T11:22:29.526Z</time></trkpt><trkpt lat="44.52097363419726" lon="11.368219817086327"><ele>36.5</ele><time>2026-05-02T11:22:30.526Z</time></trkpt><trkpt lat="44.521093442755905" lon="11.367942548455028"><ele>37.0</ele><time>2026-05-02T11:22:31.526Z</time></trkpt><trkpt lat="44.521224401952054" lon="11.367675456910934"><ele>37.0</ele><time>2026-05-02T11:22:32.526Z</time></trkpt><trkpt lat="44.521355553557676" lon="11.36740792694991"><ele>37.0</ele><time>2026-05-02T11:22:33.526Z</time></trkpt><trkpt lat="44.5214832925383" lon="11.367139132489926"><ele>37.0</ele><time>2026-05-02T11:22:34.526Z</time></trkpt><trkpt lat="44.52160940756597" lon="11.366871880248619"><ele>37.0</ele><time>2026-05-02T11:22:35.526Z</time></trkpt><trkpt lat="44.52173362457263" lon="11.366620044402966"><ele>37.0</ele><time>2026-05-02T11:22:36.526Z</time></trkpt><trkpt lat="44.521854410009695" lon="11.36637239587511"><ele>37.0</ele><time>2026-05-02T11:22:37.526Z</time></trkpt><trkpt lat="44.52197448168111" lon="11.36612108652678"><ele>37.0</ele><time>2026-05-02T11:22:38.526Z</time></trkpt><trkpt lat="44.52209625366549" lon="11.365871573438447"><ele>37.0</ele><time>2026-05-02T11:22:39.526Z</time></trkpt><trkpt lat="44.52221631302271" lon="11.365623223250614"><ele>37.66666666666667</ele><time>2026-05-02T11:22:40.526Z</time></trkpt><trkpt lat="44.522335367340425" lon="11.36537608802356"><ele>38.333333333333336</ele><time>2026-05-02T11:22:41.526Z</time></trkpt><trkpt lat="44.52245393732964" lon="11.365130986350776"><ele>39.0</ele><time>2026-05-02T11:22:42.526Z</time></trkpt><trkpt lat="44.52256828384466" lon="11.364884920459899"><ele>39.0</ele><time>2026-05-02T11:22:43.525Z</time></trkpt><trkpt lat="44.52268494908542" lon="11.364643716443892"><ele>39.0</ele><time>2026-05-02T11:22:44.525Z</time></trkpt><trkpt lat="44.52280726715382" lon="11.364389789282377"><ele>39.0</ele><time>2026-05-02T11:22:45.525Z</time></trkpt><trkpt lat="44.522931394803464" lon="11.364128953132422"><ele>37.5</ele><time>2026-05-02T11:22:46.525Z</time></trkpt><trkpt lat="44.52305690603179" lon="11.363866764088947"><ele>36.0</ele><time>2026-05-02T11:22:47.525Z</time></trkpt><trkpt lat="44.52318663754799" lon="11.363603191562234"><ele>36.0</ele><time>2026-05-02T11:22:48.525Z</time></trkpt><trkpt lat="44.52332089197919" lon="11.363333441442963"><ele>36.0</ele><time>2026-05-02T11:22:49.525Z</time></trkpt><trkpt lat="44.52345919422692" lon="11.363055125892345"><ele>35.5</ele><time>2026-05-02T11:22:50.525Z</time></trkpt><trkpt lat="44.523603058221056" lon="11.362773379567201"><ele>35.0</ele><time>2026-05-02T11:22:51.525Z</time></trkpt><trkpt lat="44.52374040165609" lon="11.362491798596956"><ele>35.0</ele><time>2026-05-02T11:22:52.525Z</time></trkpt><trkpt lat="44.52387485432998" lon="11.362209762165044"><ele>35.0</ele><time>2026-05-02T11:22:53.525Z</time></trkpt><trkpt lat="44.52400653061982" lon="11.361933238481098"><ele>35.5</ele><time>2026-05-02T11:22:54.525Z</time></trkpt><trkpt lat="44.5241386753623" lon="11.361655957979593"><ele>36.0</ele><time>2026-05-02T11:22:55.525Z</time></trkpt><trkpt lat="44.52427020295619" lon="11.361383354731327"><ele>36.5</ele><time>2026-05-02T11:22:56.525Z</time></trkpt><trkpt lat="44.52440226615665" lon="11.361112337062071"><ele>37.0</ele><time>2026-05-02T11:22:57.525Z</time></trkpt><trkpt lat="44.52453105887177" lon="11.360858930141356"><ele>36.66666666666667</ele><time>2026-05-02T11:22:58.525Z</time></trkpt><trkpt lat="44.524656398874264" lon="11.360619722955054"><ele>36.333333333333336</ele><time>2026-05-02T11:22:59.525Z</time></trkpt><trkpt lat="44.52478027880976" lon="11.360409205589047"><ele>36.0</ele><time>2026-05-02T11:23:00.525Z</time></trkpt><trkpt lat="44.5248913435338" lon="11.360224997238085"><ele>36.75</ele><time>2026-05-02T11:23:01.525Z</time></trkpt><trkpt lat="44.5249979224692" lon="11.360078790975809"><ele>37.5</ele><time>2026-05-02T11:23:02.525Z</time></trkpt><trkpt lat="44.525093280282675" lon="11.35995898843913"><ele>38.25</ele><time>2026-05-02T11:23:03.525Z</time></trkpt><trkpt lat="44.52518082197263" lon="11.359854249049636"><ele>39.0</ele><time>2026-05-02T11:23:04.525Z</time></trkpt><trkpt lat="44.525261406664484" lon="11.359762300345011"><ele>39.0</ele><time>2026-05-02T11:23:05.525Z</time></trkpt><trkpt lat="44.52534548670535" lon="11.359683991688561"><ele>39.0</ele><time>2026-05-02T11:23:06.525Z</time></trkpt><trkpt lat="44.52542991427987" lon="11.359615437659416"><ele>39.0</ele><time>2026-05-02T11:23:07.525Z</time></trkpt><trkpt lat="44.52550835154775" lon="11.359524306926502"><ele>39.0</ele><time>2026-05-02T11:23:08.524Z</time></trkpt><trkpt lat="44.525606350466255" lon="11.359478941730105"><ele>39.0</ele><time>2026-05-02T11:23:09.524Z</time></trkpt><trkpt lat="44.525720996219555" lon="11.359404036828034"><ele>38.5</ele><time>2026-05-02T11:23:10.524Z</time></trkpt><trkpt lat="44.525847048700655" lon="11.359326950215694"><ele>38.0</ele><time>2026-05-02T11:23:11.524Z</time></trkpt><trkpt lat="44.52598427618978" lon="11.359254282056591"><ele>37.5</ele><time>2026-05-02T11:23:12.524Z</time></trkpt><trkpt lat="44.52613902293059" lon="11.35918805179883"><ele>37.0</ele><time>2026-05-02T11:23:13.524Z</time></trkpt><trkpt lat="44.52631119436717" lon="11.359140416652085"><ele>34.0</ele><time>2026-05-02T11:23:14.524Z</time></trkpt><trkpt lat="44.52666760117079" lon="11.359072552464983"><ele>31.0</ele><time>2026-05-02T11:23:16.524Z</time></trkpt><trkpt lat="44.52685042307882" lon="11.359041955761269"><ele>31.0</ele><time>2026-05-02T11:23:17.524Z</time></trkpt><trkpt lat="44.52703261805744" lon="11.359007307443653"><ele>31.0</ele><time>2026-05-02T11:23:18.524Z</time></trkpt><trkpt lat="44.52721453604476" lon="11.358985246001794"><ele>31.0</ele><time>2026-05-02T11:23:19.524Z</time></trkpt><trkpt lat="44.52739848518175" lon="11.358976006757947"><ele>32.66666666666667</ele><time>2026-05-02T11:23:20.524Z</time></trkpt><trkpt lat="44.527571537888285" lon="11.358979366205707"><ele>34.333333333333336</ele><time>2026-05-02T11:23:21.524Z</time></trkpt><trkpt lat="44.527732050750856" lon="11.358994223666276"><ele>36.0</ele><time>2026-05-02T11:23:22.524Z</time></trkpt><trkpt lat="44.52789536614178" lon="11.359019012148112"><ele>36.0</ele><time>2026-05-02T11:23:23.524Z</time></trkpt><trkpt lat="44.528060947928076" lon="11.359053997540263"><ele>36.0</ele><time>2026-05-02T11:23:24.524Z</time></trkpt><trkpt lat="44.528230556882235" lon="11.359100435699322"><ele>36.0</ele><time>2026-05-02T11:23:25.524Z</time></trkpt><trkpt lat="44.528400291568985" lon="11.35916333583358"><ele>36.0</ele><time>2026-05-02T11:23:26.524Z</time></trkpt><trkpt lat="44.52857194620927" lon="11.35924694728186"><ele>36.0</ele><time>2026-05-02T11:23:27.524Z</time></trkpt><trkpt lat="44.528742205964726" lon="11.359341891272276"><ele>36.0</ele><time>2026-05-02T11:23:28.524Z</time></trkpt><trkpt lat="44.52890815877785" lon="11.35944453803653"><ele>35.666666666666664</ele><time>2026-05-02T11:23:29.524Z</time></trkpt><trkpt lat="44.52906841513236" lon="11.359555185263522"><ele>35.33333333333333</ele><time>2026-05-02T11:23:30.524Z</time></trkpt><trkpt lat="44.52921878987205" lon="11.359677902256461"><ele>35.0</ele><time>2026-05-02T11:23:31.524Z</time></trkpt><trkpt lat="44.52936024914019" lon="11.359809299644215"><ele>35.0</ele><time>2026-05-02T11:23:32.524Z</time></trkpt><trkpt lat="44.529503882968704" lon="11.359939319644047"><ele>35.0</ele><time>2026-05-02T11:23:33.524Z</time></trkpt><trkpt lat="44.529640398741456" lon="11.360057130414454"><ele>35.0</ele><time>2026-05-02T11:23:34.523Z</time></trkpt><trkpt lat="44.52978439268189" lon="11.360156921747588"><ele>35.0</ele><time>2026-05-02T11:23:35.523Z</time></trkpt><trkpt lat="44.52991229299685" lon="11.360247350575712"><ele>35.0</ele><time>2026-05-02T11:23:36.523Z</time></trkpt><trkpt lat="44.53002994483264" lon="11.360323305157822"><ele>35.0</ele><time>2026-05-02T11:23:37.523Z</time></trkpt><trkpt lat="44.53013206808435" lon="11.360392895439892"><ele>35.0</ele><time>2026-05-02T11:23:38.523Z</time></trkpt><trkpt lat="44.530212839756395" lon="11.360452537461336"><ele>35.0</ele><time>2026-05-02T11:23:39.523Z</time></trkpt><trkpt lat="44.530274870058506" lon="11.360503180333811"><ele>35.0</ele><time>2026-05-02T11:23:40.523Z</time></trkpt><trkpt lat="44.53037180166705" lon="11.360563979204247"><ele>35.0</ele><time>2026-05-02T11:23:42.523Z</time></trkpt><trkpt lat="44.53047329862502" lon="11.360615538911691"><ele>35.0</ele><time>2026-05-02T11:24:21.522Z</time></trkpt><trkpt lat="44.53054118776907" lon="11.360655836502874"><ele>35.0</ele><time>2026-05-02T11:24:22.522Z</time></trkpt><trkpt lat="44.530630854175605" lon="11.360709621668827"><ele>34.5</ele><time>2026-05-02T11:24:23.522Z</time></trkpt><trkpt lat="44.530717296099795" lon="11.360771063690496"><ele>34.0</ele><time>2026-05-02T11:24:24.522Z</time></trkpt><trkpt lat="44.53077984846069" lon="11.360828894845925"><ele>33.5</ele><time>2026-05-02T11:24:25.522Z</time></trkpt><trkpt lat="44.53084806406555" lon="11.360895824274252"><ele>33.0</ele><time>2026-05-02T11:24:47.521Z</time></trkpt><trkpt lat="44.53090414169421" lon="11.360940293448996"><ele>32.5</ele><time>2026-05-02T11:24:48.521Z</time></trkpt><trkpt lat="44.53097812422989" lon="11.361012242736752"><ele>32.0</ele><time>2026-05-02T11:24:49.521Z</time></trkpt><trkpt lat="44.53106742523582" lon="11.36109861479449"><ele>32.0</ele><time>2026-05-02T11:24:50.521Z</time></trkpt><trkpt lat="44.531169851533136" lon="11.361191430403089"><ele>32.0</ele><time>2026-05-02T11:24:51.521Z</time></trkpt><trkpt lat="44.531280058618464" lon="11.36130838006287"><ele>32.0</ele><time>2026-05-02T11:24:52.521Z</time></trkpt><trkpt lat="44.531395187502234" lon="11.361447837475911"><ele>32.0</ele><time>2026-05-02T11:24:53.521Z</time></trkpt><trkpt lat="44.53151205758085" lon="11.361605809951588"><ele>32.0</ele><time>2026-05-02T11:24:54.521Z</time></trkpt><trkpt lat="44.53164114929255" lon="11.361784312227218"><ele>32.0</ele><time>2026-05-02T11:24:55.521Z</time></trkpt><trkpt lat="44.53176714588434" lon="11.361966211523395"><ele>32.0</ele><time>2026-05-02T11:24:56.521Z</time></trkpt><trkpt lat="44.53189284609741" lon="11.362147314702982"><ele>32.33333333333333</ele><time>2026-05-02T11:24:57.521Z</time></trkpt><trkpt lat="44.53202393330877" lon="11.36232101762002"><ele>32.666666666666664</ele><time>2026-05-02T11:24:58.521Z</time></trkpt><trkpt lat="44.532168988731" lon="11.362464588235184"><ele>33.0</ele><time>2026-05-02T11:24:59.521Z</time></trkpt><trkpt lat="44.53232889009352" lon="11.362569042163553"><ele>31.666666666666664</ele><time>2026-05-02T11:25:00.521Z</time></trkpt><trkpt lat="44.53250136698756" lon="11.362627622858469"><ele>30.333333333333332</ele><time>2026-05-02T11:25:01.521Z</time></trkpt><trkpt lat="44.53266691286739" lon="11.36264906067252"><ele>29.0</ele><time>2026-05-02T11:25:02.521Z</time></trkpt><trkpt lat="44.532820786089125" lon="11.36263411032932"><ele>29.666666666666664</ele><time>2026-05-02T11:25:03.521Z</time></trkpt><trkpt lat="44.532974410964336" lon="11.36260201241475"><ele>30.333333333333336</ele><time>2026-05-02T11:25:04.521Z</time></trkpt><trkpt lat="44.533125970392774" lon="11.362567198272766"><ele>31.0</ele><time>2026-05-02T11:25:05.521Z</time></trkpt><trkpt lat="44.53327829659454" lon="11.362542309887113"><ele>31.0</ele><time>2026-05-02T11:25:06.521Z</time></trkpt><trkpt lat="44.53343218670459" lon="11.36253033536427"><ele>31.0</ele><time>2026-05-02T11:25:07.521Z</time></trkpt><trkpt lat="44.53358795040526" lon="11.362541959009988"><ele>31.0</ele><time>2026-05-02T11:25:08.521Z</time></trkpt><trkpt lat="44.53374956152464" lon="11.362576441631692"><ele>30.333333333333336</ele><time>2026-05-02T11:25:09.521Z</time></trkpt><trkpt lat="44.53391190893857" lon="11.362622521616329"><ele>29.666666666666664</ele><time>2026-05-02T11:25:10.521Z</time></trkpt><trkpt lat="44.534069064742674" lon="11.362688767497247"><ele>29.0</ele><time>2026-05-02T11:25:11.521Z</time></trkpt><trkpt lat="44.53422385313998" lon="11.362779830140125"><ele>29.0</ele><time>2026-05-02T11:25:12.52Z</time></trkpt><trkpt lat="44.53437875841874" lon="11.36288438802261"><ele>29.0</ele><time>2026-05-02T11:25:13.52Z</time></trkpt><trkpt lat="44.534540310980546" lon="11.36299613275825"><ele>29.0</ele><time>2026-05-02T11:25:14.52Z</time></trkpt><trkpt lat="44.534709506569776" lon="11.363102218302533"><ele>29.666666666666664</ele><time>2026-05-02T11:25:15.52Z</time></trkpt><trkpt lat="44.534881624729955" lon="11.363209125669778"><ele>30.333333333333336</ele><time>2026-05-02T11:25:16.52Z</time></trkpt><trkpt lat="44.535056710125694" lon="11.363323985789899"><ele>31.0</ele><time>2026-05-02T11:25:17.52Z</time></trkpt><trkpt lat="44.5352359287084" lon="11.363439329716217"><ele>30.666666666666668</ele><time>2026-05-02T11:25:18.52Z</time></trkpt><trkpt lat="44.535419054972586" lon="11.363555362215797"><ele>30.333333333333336</ele><time>2026-05-02T11:25:19.52Z</time></trkpt><trkpt lat="44.535606028616286" lon="11.363671495233863"><ele>30.0</ele><time>2026-05-02T11:25:20.52Z</time></trkpt><trkpt lat="44.535795075240166" lon="11.363792229519992"><ele>30.333333333333336</ele><time>2026-05-02T11:25:21.52Z</time></trkpt><trkpt lat="44.53598642363222" lon="11.363916542061675"><ele>30.666666666666668</ele><time>2026-05-02T11:25:22.52Z</time></trkpt><trkpt lat="44.53617628491775" lon="11.364043929773676"><ele>31.0</ele><time>2026-05-02T11:25:23.52Z</time></trkpt><trkpt lat="44.53636701029551" lon="11.364173067432546"><ele>30.333333333333336</ele><time>2026-05-02T11:25:24.52Z</time></trkpt><trkpt lat="44.53656245955493" lon="11.364297219415905"><ele>29.666666666666664</ele><time>2026-05-02T11:25:25.52Z</time></trkpt><trkpt lat="44.53675815966232" lon="11.364423166075142"><ele>29.0</ele><time>2026-05-02T11:25:26.52Z</time></trkpt><trkpt lat="44.53695625943775" lon="11.36454618882765"><ele>29.333333333333332</ele><time>2026-05-02T11:25:27.52Z</time></trkpt><trkpt lat="44.53715949311906" lon="11.364672381872566"><ele>29.666666666666664</ele><time>2026-05-02T11:25:28.52Z</time></trkpt><trkpt lat="44.53735783208116" lon="11.364798407686889"><ele>30.0</ele><time>2026-05-02T11:25:29.52Z</time></trkpt><trkpt lat="44.53756364968478" lon="11.364932083083296"><ele>30.0</ele><time>2026-05-02T11:25:30.52Z</time></trkpt><trkpt lat="44.53776791324503" lon="11.365070144766998"><ele>30.0</ele><time>2026-05-02T11:25:31.52Z</time></trkpt><trkpt lat="44.537974347048035" lon="11.365211752454815"><ele>29.5</ele><time>2026-05-02T11:25:32.52Z</time></trkpt><trkpt lat="44.53818273856597" lon="11.365341227258721"><ele>29.0</ele><time>2026-05-02T11:25:33.52Z</time></trkpt><trkpt lat="44.538390074301525" lon="11.36547404815878"><ele>29.0</ele><time>2026-05-02T11:25:34.52Z</time></trkpt><trkpt lat="44.538592893056524" lon="11.36561449936039"><ele>29.0</ele><time>2026-05-02T11:25:35.52Z</time></trkpt><trkpt lat="44.53879217183503" lon="11.365755499585399"><ele>29.0</ele><time>2026-05-02T11:25:36.52Z</time></trkpt><trkpt lat="44.539003472623484" lon="11.365878226534491"><ele>29.0</ele><time>2026-05-02T11:25:37.52Z</time></trkpt><trkpt lat="44.53921102985399" lon="11.36601492535499"><ele>29.0</ele><time>2026-05-02T11:25:38.519Z</time></trkpt><trkpt lat="44.53942421246275" lon="11.36614977337639"><ele>28.5</ele><time>2026-05-02T11:25:39.519Z</time></trkpt><trkpt lat="44.5396350114834" lon="11.366282385993681"><ele>28.0</ele><time>2026-05-02T11:25:40.519Z</time></trkpt><trkpt lat="44.53984114264783" lon="11.366412267139564"><ele>28.0</ele><time>2026-05-02T11:25:41.519Z</time></trkpt><trkpt lat="44.54004482456094" lon="11.366542596145589"><ele>28.0</ele><time>2026-05-02T11:25:42.519Z</time></trkpt><trkpt lat="44.54025060087965" lon="11.366677154771969"><ele>28.5</ele><time>2026-05-02T11:25:43.519Z</time></trkpt><trkpt lat="44.54046284544082" lon="11.366814455710113"><ele>29.0</ele><time>2026-05-02T11:25:44.519Z</time></trkpt><trkpt lat="44.54067647954275" lon="11.366956572320419"><ele>29.0</ele><time>2026-05-02T11:25:45.519Z</time></trkpt><trkpt lat="44.54089699036382" lon="11.367102059804543"><ele>29.0</ele><time>2026-05-02T11:25:46.519Z</time></trkpt><trkpt lat="44.541118245531194" lon="11.36724705123231"><ele>30.5</ele><time>2026-05-02T11:25:47.519Z</time></trkpt><trkpt lat="44.5413435381263" lon="11.367392433469544"><ele>32.0</ele><time>2026-05-02T11:25:48.519Z</time></trkpt><trkpt lat="44.54156945268956" lon="11.367541007586322"><ele>32.0</ele><time>2026-05-02T11:25:49.519Z</time></trkpt><trkpt lat="44.54179547852345" lon="11.36769480019509"><ele>32.0</ele><time>2026-05-02T11:25:50.519Z</time></trkpt><trkpt lat="44.54202243876471" lon="11.367843771984708"><ele>31.0</ele><time>2026-05-02T11:25:51.519Z</time></trkpt><trkpt lat="44.54225076968176" lon="11.367995163648727"><ele>30.0</ele><time>2026-05-02T11:25:52.519Z</time></trkpt><trkpt lat="44.54248080765319" lon="11.368142868348889"><ele>30.0</ele><time>2026-05-02T11:25:53.519Z</time></trkpt><trkpt lat="44.542707205352166" lon="11.36829066455015"><ele>30.0</ele><time>2026-05-02T11:25:54.519Z</time></trkpt><trkpt lat="44.54293237130769" lon="11.368439306037386"><ele>29.0</ele><time>2026-05-02T11:25:55.519Z</time></trkpt><trkpt lat="44.54315683014965" lon="11.368586418764513"><ele>28.0</ele><time>2026-05-02T11:25:56.519Z</time></trkpt><trkpt lat="44.543377893361885" lon="11.3687325740177"><ele>28.5</ele><time>2026-05-02T11:25:57.519Z</time></trkpt><trkpt lat="44.543598528556934" lon="11.368875648595973"><ele>29.0</ele><time>2026-05-02T11:25:58.519Z</time></trkpt><trkpt lat="44.54381903370204" lon="11.369017407739149"><ele>29.0</ele><time>2026-05-02T11:25:59.519Z</time></trkpt><trkpt lat="44.54403900265201" lon="11.369159844076753"><ele>29.0</ele><time>2026-05-02T11:26:00.519Z</time></trkpt><trkpt lat="44.544258733500875" lon="11.369306116970582"><ele>29.0</ele><time>2026-05-02T11:26:01.519Z</time></trkpt><trkpt lat="44.54447894316813" lon="11.369453817928951"><ele>29.0</ele><time>2026-05-02T11:26:02.519Z</time></trkpt><trkpt lat="44.54470060999613" lon="11.36960022646724"><ele>28.5</ele><time>2026-05-02T11:26:03.518Z</time></trkpt><trkpt lat="44.54492198333817" lon="11.369742754261289"><ele>28.0</ele><time>2026-05-02T11:26:04.52Z</time></trkpt><trkpt lat="44.545143505496625" lon="11.369886575919933"><ele>28.0</ele><time>2026-05-02T11:26:05.519Z</time></trkpt><trkpt lat="44.545364858426844" lon="11.370028788090634"><ele>28.0</ele><time>2026-05-02T11:26:06.519Z</time></trkpt><trkpt lat="44.54558679075192" lon="11.370165239941233"><ele>29.0</ele><time>2026-05-02T11:26:07.52Z</time></trkpt><trkpt lat="44.545805262997554" lon="11.370306553914046"><ele>30.0</ele><time>2026-05-02T11:26:08.52Z</time></trkpt><trkpt lat="44.54602458618397" lon="11.370448255916166"><ele>30.5</ele><time>2026-05-02T11:26:09.52Z</time></trkpt><trkpt lat="44.54624606721688" lon="11.370591987037095"><ele>31.0</ele><time>2026-05-02T11:26:10.52Z</time></trkpt><trkpt lat="44.54646897349532" lon="11.37074613623511"><ele>31.0</ele><time>2026-05-02T11:26:11.52Z</time></trkpt><trkpt lat="44.5466985571528" lon="11.370901782236505"><ele>31.0</ele><time>2026-05-02T11:26:12.52Z</time></trkpt><trkpt lat="44.54693569557691" lon="11.371056487416547"><ele>30.5</ele><time>2026-05-02T11:26:13.52Z</time></trkpt><trkpt lat="44.547179748358545" lon="11.371210584238876"><ele>30.0</ele><time>2026-05-02T11:26:14.52Z</time></trkpt><trkpt lat="44.54741602146164" lon="11.371362372006757"><ele>30.0</ele><time>2026-05-02T11:26:15.52Z</time></trkpt><trkpt lat="44.547656839403565" lon="11.371516785900468"><ele>30.0</ele><time>2026-05-02T11:26:16.519Z</time></trkpt><trkpt lat="44.54790031737838" lon="11.37167616970962"><ele>30.5</ele><time>2026-05-02T11:26:17.519Z</time></trkpt><trkpt lat="44.548142686703464" lon="11.371831092645538"><ele>31.0</ele><time>2026-05-02T11:26:18.519Z</time></trkpt><trkpt lat="44.54838624690182" lon="11.37199072311819"><ele>31.0</ele><time>2026-05-02T11:26:19.519Z</time></trkpt><trkpt lat="44.548625117785114" lon="11.372145957997368"><ele>31.0</ele><time>2026-05-02T11:26:20.519Z</time></trkpt><trkpt lat="44.54886535928565" lon="11.372302951126311"><ele>29.5</ele><time>2026-05-02T11:26:21.519Z</time></trkpt><trkpt lat="44.54910469537067" lon="11.372459953448805"><ele>28.0</ele><time>2026-05-02T11:26:22.519Z</time></trkpt><trkpt lat="44.549342541729125" lon="11.372612903722128"><ele>28.0</ele><time>2026-05-02T11:26:23.519Z</time></trkpt><trkpt lat="44.54958030499926" lon="11.372768370467643"><ele>28.0</ele><time>2026-05-02T11:26:24.519Z</time></trkpt><trkpt lat="44.54981797736914" lon="11.37292540673266"><ele>27.5</ele><time>2026-05-02T11:26:25.519Z</time></trkpt><trkpt lat="44.550054403747495" lon="11.373081482855891"><ele>27.0</ele><time>2026-05-02T11:26:26.519Z</time></trkpt><trkpt lat="44.55029176672997" lon="11.373239308550646"><ele>27.5</ele><time>2026-05-02T11:26:27.519Z</time></trkpt><trkpt lat="44.550528773090576" lon="11.373395153573734"><ele>28.0</ele><time>2026-05-02T11:26:28.519Z</time></trkpt><trkpt lat="44.55076755312056" lon="11.373546937025266"><ele>28.0</ele><time>2026-05-02T11:26:29.519Z</time></trkpt><trkpt lat="44.551006068083495" lon="11.373701334010743"><ele>28.0</ele><time>2026-05-02T11:26:30.519Z</time></trkpt><trkpt lat="44.551247714159786" lon="11.373858718515464"><ele>28.5</ele><time>2026-05-02T11:26:31.519Z</time></trkpt><trkpt lat="44.55149092549076" lon="11.37401691235054"><ele>29.0</ele><time>2026-05-02T11:26:32.519Z</time></trkpt><trkpt lat="44.55173062328982" lon="11.374176560522606"><ele>29.0</ele><time>2026-05-02T11:26:33.519Z</time></trkpt><trkpt lat="44.55197772105624" lon="11.37433607038157"><ele>29.0</ele><time>2026-05-02T11:26:34.519Z</time></trkpt><trkpt lat="44.55222019007728" lon="11.374494167304185"><ele>29.0</ele><time>2026-05-02T11:26:35.519Z</time></trkpt><trkpt lat="44.552463106229325" lon="11.374651471916835"><ele>29.0</ele><time>2026-05-02T11:26:36.519Z</time></trkpt><trkpt lat="44.55270109771825" lon="11.37481414629692"><ele>28.0</ele><time>2026-05-02T11:26:37.519Z</time></trkpt><trkpt lat="44.552946892872605" lon="11.374973480014951"><ele>27.0</ele><time>2026-05-02T11:26:38.518Z</time></trkpt><trkpt lat="44.55319115804314" lon="11.375132283153079"><ele>27.0</ele><time>2026-05-02T11:26:39.518Z</time></trkpt><trkpt lat="44.55343352620248" lon="11.375289631222014"><ele>27.0</ele><time>2026-05-02T11:26:40.518Z</time></trkpt><trkpt lat="44.553672906082284" lon="11.375447885617085"><ele>26.5</ele><time>2026-05-02T11:26:41.518Z</time></trkpt><trkpt lat="44.55391192349902" lon="11.375603717835048"><ele>26.0</ele><time>2026-05-02T11:26:42.518Z</time></trkpt><trkpt lat="44.55415133670369" lon="11.375759878315668"><ele>26.0</ele><time>2026-05-02T11:26:43.518Z</time></trkpt><trkpt lat="44.55438784205123" lon="11.375919620686428"><ele>26.0</ele><time>2026-05-02T11:26:44.518Z</time></trkpt><trkpt lat="44.55462638393524" lon="11.376075731208001"><ele>26.5</ele><time>2026-05-02T11:26:45.518Z</time></trkpt><trkpt lat="44.55486513565052" lon="11.37623019144456"><ele>27.0</ele><time>2026-05-02T11:26:46.518Z</time></trkpt><trkpt lat="44.5551063791384" lon="11.376390025089034"><ele>27.0</ele><time>2026-05-02T11:26:47.518Z</time></trkpt><trkpt lat="44.55534802795723" lon="11.376545807019912"><ele>27.0</ele><time>2026-05-02T11:26:48.518Z</time></trkpt><trkpt lat="44.55558861605893" lon="11.376701743688578"><ele>26.0</ele><time>2026-05-02T11:26:49.518Z</time></trkpt><trkpt lat="44.555829456343936" lon="11.37685483614692"><ele>25.0</ele><time>2026-05-02T11:26:50.518Z</time></trkpt><trkpt lat="44.55607023247684" lon="11.377014095958007"><ele>25.5</ele><time>2026-05-02T11:26:51.518Z</time></trkpt><trkpt lat="44.55631047475853" lon="11.377175619694803"><ele>26.0</ele><time>2026-05-02T11:26:52.518Z</time></trkpt><trkpt lat="44.55654790086612" lon="11.3773341713774"><ele>26.0</ele><time>2026-05-02T11:26:53.518Z</time></trkpt><trkpt lat="44.556789976461765" lon="11.377500582032303"><ele>26.0</ele><time>2026-05-02T11:26:54.518Z</time></trkpt><trkpt lat="44.55703160332193" lon="11.377662055588244"><ele>26.5</ele><time>2026-05-02T11:26:55.518Z</time></trkpt><trkpt lat="44.55727455500928" lon="11.377818049331204"><ele>27.0</ele><time>2026-05-02T11:26:56.518Z</time></trkpt><trkpt lat="44.55751486057962" lon="11.37797870864645"><ele>27.0</ele><time>2026-05-02T11:26:57.518Z</time></trkpt><trkpt lat="44.55775861551697" lon="11.378139424693178"><ele>27.0</ele><time>2026-05-02T11:26:58.518Z</time></trkpt><trkpt lat="44.558006044693926" lon="11.378301440183215"><ele>27.0</ele><time>2026-05-02T11:26:59.518Z</time></trkpt><trkpt lat="44.55824765011972" lon="11.378454883581298"><ele>27.0</ele><time>2026-05-02T11:27:00.518Z</time></trkpt><trkpt lat="44.55849197355904" lon="11.378612946063578"><ele>27.0</ele><time>2026-05-02T11:27:01.518Z</time></trkpt><trkpt lat="44.558734629768416" lon="11.378774193076891"><ele>27.0</ele><time>2026-05-02T11:27:02.518Z</time></trkpt><trkpt lat="44.55897471189945" lon="11.378937063187074"><ele>25.5</ele><time>2026-05-02T11:27:03.518Z</time></trkpt><trkpt lat="44.559222022313186" lon="11.379094441784792"><ele>24.0</ele><time>2026-05-02T11:27:04.517Z</time></trkpt><trkpt lat="44.559463026245034" lon="11.379254157239616"><ele>25.0</ele><time>2026-05-02T11:27:05.517Z</time></trkpt><trkpt lat="44.55970596479626" lon="11.37941445555123"><ele>26.0</ele><time>2026-05-02T11:27:06.517Z</time></trkpt><trkpt lat="44.55994743306287" lon="11.37957551102983"><ele>25.5</ele><time>2026-05-02T11:27:07.517Z</time></trkpt><trkpt lat="44.560187935025404" lon="11.379733616457296"><ele>25.0</ele><time>2026-05-02T11:27:08.517Z</time></trkpt><trkpt lat="44.56042938876533" lon="11.379891428889811"><ele>25.0</ele><time>2026-05-02T11:27:09.517Z</time></trkpt><trkpt lat="44.56066945010828" lon="11.38004951251517"><ele>25.0</ele><time>2026-05-02T11:27:10.517Z</time></trkpt><trkpt lat="44.560909336762876" lon="11.380207357256586"><ele>25.0</ele><time>2026-05-02T11:27:11.517Z</time></trkpt><trkpt lat="44.56114879183359" lon="11.38036641840757"><ele>25.0</ele><time>2026-05-02T11:27:12.517Z</time></trkpt><trkpt lat="44.561388746320326" lon="11.380522565729704"><ele>24.0</ele><time>2026-05-02T11:27:13.517Z</time></trkpt><trkpt lat="44.56162561462502" lon="11.380676244255953"><ele>23.0</ele><time>2026-05-02T11:27:14.517Z</time></trkpt><trkpt lat="44.56185942651572" lon="11.38082875326845"><ele>24.0</ele><time>2026-05-02T11:27:15.517Z</time></trkpt><trkpt lat="44.562093132515635" lon="11.380982649310488"><ele>25.0</ele><time>2026-05-02T11:27:16.517Z</time></trkpt><trkpt lat="44.56232496672565" lon="11.381138211500996"><ele>25.0</ele><time>2026-05-02T11:27:17.517Z</time></trkpt><trkpt lat="44.562561856439096" lon="11.381294534813032"><ele>25.0</ele><time>2026-05-02T11:27:18.517Z</time></trkpt><trkpt lat="44.562798933267196" lon="11.381452683698079"><ele>25.0</ele><time>2026-05-02T11:27:19.517Z</time></trkpt><trkpt lat="44.56304012416785" lon="11.381610060109892"><ele>25.0</ele><time>2026-05-02T11:27:20.517Z</time></trkpt><trkpt lat="44.56328097954873" lon="11.381771017412069"><ele>25.0</ele><time>2026-05-02T11:27:21.517Z</time></trkpt><trkpt lat="44.56352114996577" lon="11.38193150532589"><ele>25.0</ele><time>2026-05-02T11:27:22.517Z</time></trkpt><trkpt lat="44.563769434294784" lon="11.382092191468416"><ele>24.5</ele><time>2026-05-02T11:27:23.517Z</time></trkpt><trkpt lat="44.56401940085241" lon="11.382256343685702"><ele>24.0</ele><time>2026-05-02T11:27:24.517Z</time></trkpt><trkpt lat="44.56426188917554" lon="11.382411182733625"><ele>24.0</ele><time>2026-05-02T11:27:25.517Z</time></trkpt><trkpt lat="44.564504756223954" lon="11.382569973602621"><ele>24.0</ele><time>2026-05-02T11:27:26.517Z</time></trkpt><trkpt lat="44.564752000972945" lon="11.38273250748925"><ele>24.0</ele><time>2026-05-02T11:27:27.517Z</time></trkpt><trkpt lat="44.56499769142941" lon="11.38289403724275"><ele>24.0</ele><time>2026-05-02T11:27:28.517Z</time></trkpt><trkpt lat="44.56524198997831" lon="11.38305552974686"><ele>23.5</ele><time>2026-05-02T11:27:29.516Z</time></trkpt><trkpt lat="44.565484451396834" lon="11.383218108133189"><ele>23.0</ele><time>2026-05-02T11:27:30.516Z</time></trkpt><trkpt lat="44.565725142519575" lon="11.383382239099628"><ele>23.0</ele><time>2026-05-02T11:27:31.516Z</time></trkpt><trkpt lat="44.56596743513018" lon="11.383544432942918"><ele>23.0</ele><time>2026-05-02T11:27:32.516Z</time></trkpt><trkpt lat="44.56620878985847" lon="11.383705368853152"><ele>23.0</ele><time>2026-05-02T11:27:33.516Z</time></trkpt><trkpt lat="44.56645378362752" lon="11.383861157519542"><ele>23.0</ele><time>2026-05-02T11:27:34.516Z</time></trkpt><trkpt lat="44.566694041746054" lon="11.384015575416822"><ele>23.0</ele><time>2026-05-02T11:27:35.516Z</time></trkpt><trkpt lat="44.566932492915896" lon="11.38417088555977"><ele>23.0</ele><time>2026-05-02T11:27:36.516Z</time></trkpt><trkpt lat="44.56717323024672" lon="11.384324186291801"><ele>23.0</ele><time>2026-05-02T11:27:37.516Z</time></trkpt><trkpt lat="44.567409663400724" lon="11.38447863283436"><ele>23.0</ele><time>2026-05-02T11:27:38.516Z</time></trkpt><trkpt lat="44.567647959705596" lon="11.38463710035029"><ele>23.0</ele><time>2026-05-02T11:27:39.516Z</time></trkpt><trkpt lat="44.56788759605657" lon="11.384799281245089"><ele>23.0</ele><time>2026-05-02T11:27:40.516Z</time></trkpt><trkpt lat="44.56812741308946" lon="11.384957976014809"><ele>23.0</ele><time>2026-05-02T11:27:41.516Z</time></trkpt><trkpt lat="44.56837093391218" lon="11.385116138989684"><ele>23.0</ele><time>2026-05-02T11:27:42.516Z</time></trkpt><trkpt lat="44.56861497121282" lon="11.385272784779108"><ele>23.0</ele><time>2026-05-02T11:27:43.516Z</time></trkpt><trkpt lat="44.568860134334145" lon="11.38542595095761"><ele>23.0</ele><time>2026-05-02T11:27:44.516Z</time></trkpt><trkpt lat="44.56910687432057" lon="11.385585169008404"><ele>23.0</ele><time>2026-05-02T11:27:45.516Z</time></trkpt><trkpt lat="44.569348884760714" lon="11.385745895504883"><ele>23.0</ele><time>2026-05-02T11:27:46.516Z</time></trkpt><trkpt lat="44.56959504479228" lon="11.38591207815191"><ele>23.5</ele><time>2026-05-02T11:27:47.516Z</time></trkpt><trkpt lat="44.5698369091413" lon="11.38607921379329"><ele>24.0</ele><time>2026-05-02T11:27:48.516Z</time></trkpt><trkpt lat="44.57007950791796" lon="11.38623414972005"><ele>24.0</ele><time>2026-05-02T11:27:49.516Z</time></trkpt><trkpt lat="44.570324912707605" lon="11.386397071544296"><ele>24.0</ele><time>2026-05-02T11:27:50.516Z</time></trkpt><trkpt lat="44.57057043565847" lon="11.386564897319314"><ele>24.5</ele><time>2026-05-02T11:27:51.516Z</time></trkpt><trkpt lat="44.57080959261745" lon="11.386724506681803"><ele>25.0</ele><time>2026-05-02T11:27:52.516Z</time></trkpt><trkpt lat="44.57105313427204" lon="11.386879288076198"><ele>24.5</ele><time>2026-05-02T11:27:53.516Z</time></trkpt><trkpt lat="44.57129249008676" lon="11.387034759406392"><ele>24.0</ele><time>2026-05-02T11:27:54.516Z</time></trkpt><trkpt lat="44.571531744500945" lon="11.387193346574357"><ele>22.5</ele><time>2026-05-02T11:27:55.515Z</time></trkpt><trkpt lat="44.571769679171105" lon="11.387351696054482"><ele>21.0</ele><time>2026-05-02T11:27:56.515Z</time></trkpt><trkpt lat="44.5720041441442" lon="11.3875068316561"><ele>21.5</ele><time>2026-05-02T11:27:57.515Z</time></trkpt><trkpt lat="44.57223907086699" lon="11.387661243912245"><ele>22.0</ele><time>2026-05-02T11:27:58.515Z</time></trkpt><trkpt lat="44.572472652935254" lon="11.38781481054001"><ele>22.0</ele><time>2026-05-02T11:27:59.515Z</time></trkpt><trkpt lat="44.572705782834326" lon="11.387970291685047"><ele>22.0</ele><time>2026-05-02T11:28:00.515Z</time></trkpt><trkpt lat="44.57294095864992" lon="11.388122669362515"><ele>22.0</ele><time>2026-05-02T11:28:01.515Z</time></trkpt><trkpt lat="44.573175381417435" lon="11.388274087083525"><ele>22.0</ele><time>2026-05-02T11:28:02.515Z</time></trkpt><trkpt lat="44.573410613224866" lon="11.388426617178682"><ele>22.0</ele><time>2026-05-02T11:28:03.515Z</time></trkpt><trkpt lat="44.57364717323682" lon="11.38858224982542"><ele>22.0</ele><time>2026-05-02T11:28:04.515Z</time></trkpt><trkpt lat="44.573884892939304" lon="11.388740839138448"><ele>22.5</ele><time>2026-05-02T11:28:05.515Z</time></trkpt><trkpt lat="44.574121682324844" lon="11.388900440677439"><ele>23.0</ele><time>2026-05-02T11:28:06.515Z</time></trkpt><trkpt lat="44.57436315743855" lon="11.389061039521067"><ele>22.0</ele><time>2026-05-02T11:28:07.515Z</time></trkpt><trkpt lat="44.57460175510592" lon="11.3892217812179"><ele>21.0</ele><time>2026-05-02T11:28:08.515Z</time></trkpt><trkpt lat="44.574841317697924" lon="11.389380987472288"><ele>21.0</ele><time>2026-05-02T11:28:09.515Z</time></trkpt><trkpt lat="44.575084735959585" lon="11.389538887692122"><ele>21.0</ele><time>2026-05-02T11:28:10.516Z</time></trkpt><trkpt lat="44.57532450713746" lon="11.389698610184185"><ele>22.5</ele><time>2026-05-02T11:28:11.515Z</time></trkpt><trkpt lat="44.57556739664311" lon="11.389854953362375"><ele>24.0</ele><time>2026-05-02T11:28:12.515Z</time></trkpt><trkpt lat="44.575807034384574" lon="11.390011525556512"><ele>24.0</ele><time>2026-05-02T11:28:13.516Z</time></trkpt><trkpt lat="44.57604715376339" lon="11.390167980865657"><ele>24.0</ele><time>2026-05-02T11:28:14.516Z</time></trkpt><trkpt lat="44.57628637341938" lon="11.390322556215535"><ele>24.0</ele><time>2026-05-02T11:28:15.516Z</time></trkpt><trkpt lat="44.57652961732658" lon="11.390481958439672"><ele>24.0</ele><time>2026-05-02T11:28:16.516Z</time></trkpt><trkpt lat="44.5767720578325" lon="11.390640744287474"><ele>24.0</ele><time>2026-05-02T11:28:17.515Z</time></trkpt><trkpt lat="44.577011875641084" lon="11.390802873053529"><ele>24.0</ele><time>2026-05-02T11:28:18.515Z</time></trkpt><trkpt lat="44.57725399459581" lon="11.39096405424222"><ele>22.5</ele><time>2026-05-02T11:28:19.516Z</time></trkpt><trkpt lat="44.577497332866606" lon="11.391122302370716"><ele>21.0</ele><time>2026-05-02T11:28:20.516Z</time></trkpt><trkpt lat="44.57773808324069" lon="11.391279216323355"><ele>20.5</ele><time>2026-05-02T11:28:21.516Z</time></trkpt><trkpt lat="44.577980866316" lon="11.391435934133275"><ele>20.0</ele><time>2026-05-02T11:28:22.516Z</time></trkpt><trkpt lat="44.57822483528376" lon="11.39159397465982"><ele>20.0</ele><time>2026-05-02T11:28:23.515Z</time></trkpt><trkpt lat="44.57846619692313" lon="11.391750042179131"><ele>20.0</ele><time>2026-05-02T11:28:24.515Z</time></trkpt><trkpt lat="44.5787091196486" lon="11.39190506279997"><ele>19.5</ele><time>2026-05-02T11:28:25.515Z</time></trkpt><trkpt lat="44.57895207139862" lon="11.392060594683803"><ele>19.0</ele><time>2026-05-02T11:28:26.515Z</time></trkpt><trkpt lat="44.57919353661589" lon="11.392217093861777"><ele>20.0</ele><time>2026-05-02T11:28:27.515Z</time></trkpt><trkpt lat="44.579435665668896" lon="11.392378984817816"><ele>21.0</ele><time>2026-05-02T11:28:28.515Z</time></trkpt><trkpt lat="44.57967453537012" lon="11.392539621792391"><ele>21.0</ele><time>2026-05-02T11:28:29.515Z</time></trkpt><trkpt lat="44.57991459411719" lon="11.392701743796826"><ele>21.0</ele><time>2026-05-02T11:28:30.515Z</time></trkpt><trkpt lat="44.58015313873508" lon="11.392860906938905"><ele>20.5</ele><time>2026-05-02T11:28:31.515Z</time></trkpt><trkpt lat="44.580393062342296" lon="11.393017397150258"><ele>20.0</ele><time>2026-05-02T11:28:32.515Z</time></trkpt><trkpt lat="44.5806298798409" lon="11.393174622919735"><ele>20.0</ele><time>2026-05-02T11:28:33.515Z</time></trkpt><trkpt lat="44.5808686795954" lon="11.393330786679902"><ele>20.0</ele><time>2026-05-02T11:28:34.515Z</time></trkpt><trkpt lat="44.58110619864618" lon="11.393486148044863"><ele>20.5</ele><time>2026-05-02T11:28:35.515Z</time></trkpt><trkpt lat="44.58134469503845" lon="11.393640490204511"><ele>21.0</ele><time>2026-05-02T11:28:36.515Z</time></trkpt><trkpt lat="44.58158299951645" lon="11.393793819555116"><ele>21.0</ele><time>2026-05-02T11:28:37.515Z</time></trkpt><trkpt lat="44.58182102260201" lon="11.39394902051436"><ele>21.0</ele><time>2026-05-02T11:28:38.515Z</time></trkpt><trkpt lat="44.58205800225888" lon="11.394109766041252"><ele>21.5</ele><time>2026-05-02T11:28:39.515Z</time></trkpt><trkpt lat="44.582300615329395" lon="11.394270922228603"><ele>22.0</ele><time>2026-05-02T11:28:40.515Z</time></trkpt><trkpt lat="44.58254457653926" lon="11.394431387359397"><ele>22.0</ele><time>2026-05-02T11:28:41.515Z</time></trkpt><trkpt lat="44.58279289579994" lon="11.39460010681987"><ele>22.0</ele><time>2026-05-02T11:28:42.515Z</time></trkpt><trkpt lat="44.58304042680818" lon="11.394758549143713"><ele>23.0</ele><time>2026-05-02T11:28:43.515Z</time></trkpt><trkpt lat="44.58328954281957" lon="11.394915335148848"><ele>24.0</ele><time>2026-05-02T11:28:44.515Z</time></trkpt><trkpt lat="44.58353826556455" lon="11.395079768009055"><ele>23.5</ele><time>2026-05-02T11:28:45.515Z</time></trkpt><trkpt lat="44.583785933519756" lon="11.395244819640029"><ele>23.0</ele><time>2026-05-02T11:28:46.515Z</time></trkpt><trkpt lat="44.58403848769945" lon="11.395409836228216"><ele>23.0</ele><time>2026-05-02T11:28:47.515Z</time></trkpt><trkpt lat="44.58429076895916" lon="11.395570946883147"><ele>23.0</ele><time>2026-05-02T11:28:48.514Z</time></trkpt><trkpt lat="44.584546790990295" lon="11.395726655706719"><ele>22.5</ele><time>2026-05-02T11:28:49.514Z</time></trkpt><trkpt lat="44.584801710834945" lon="11.39588269639374"><ele>22.0</ele><time>2026-05-02T11:28:50.514Z</time></trkpt><trkpt lat="44.58505352843476" lon="11.396037159228886"><ele>22.0</ele><time>2026-05-02T11:28:51.514Z</time></trkpt><trkpt lat="44.58530285721621" lon="11.396197587080193"><ele>22.0</ele><time>2026-05-02T11:28:52.514Z</time></trkpt><trkpt lat="44.58554931321715" lon="11.3963620676134"><ele>22.0</ele><time>2026-05-02T11:28:53.514Z</time></trkpt><trkpt lat="44.585791778198" lon="11.396525388614288"><ele>22.0</ele><time>2026-05-02T11:28:54.514Z</time></trkpt><trkpt lat="44.586034500228145" lon="11.3966854620589"><ele>20.5</ele><time>2026-05-02T11:28:55.514Z</time></trkpt><trkpt lat="44.58627522409349" lon="11.396846308045191"><ele>19.0</ele><time>2026-05-02T11:28:56.514Z</time></trkpt><trkpt lat="44.5865150467513" lon="11.397006188496272"><ele>19.0</ele><time>2026-05-02T11:28:57.514Z</time></trkpt><trkpt lat="44.58675579273242" lon="11.397164592215676"><ele>19.0</ele><time>2026-05-02T11:28:58.514Z</time></trkpt><trkpt lat="44.58699484946947" lon="11.397320803034816"><ele>20.5</ele><time>2026-05-02T11:28:59.514Z</time></trkpt><trkpt lat="44.58723485586065" lon="11.397476339213206"><ele>22.0</ele><time>2026-05-02T11:29:00.514Z</time></trkpt><trkpt lat="44.58748008814642" lon="11.397632821419428"><ele>22.0</ele><time>2026-05-02T11:29:01.514Z</time></trkpt><trkpt lat="44.587715191947794" lon="11.397788060021172"><ele>22.0</ele><time>2026-05-02T11:29:02.514Z</time></trkpt><trkpt lat="44.58794973982512" lon="11.397942281744877"><ele>21.5</ele><time>2026-05-02T11:29:03.514Z</time></trkpt><trkpt lat="44.58818992227387" lon="11.398102393871227"><ele>21.0</ele><time>2026-05-02T11:29:04.514Z</time></trkpt><trkpt lat="44.58842757711475" lon="11.398261391200958"><ele>21.0</ele><time>2026-05-02T11:29:05.514Z</time></trkpt><trkpt lat="44.58866581568981" lon="11.398417329269899"><ele>21.0</ele><time>2026-05-02T11:29:06.514Z</time></trkpt><trkpt lat="44.58890016538863" lon="11.398568834244772"><ele>21.0</ele><time>2026-05-02T11:29:07.514Z</time></trkpt><trkpt lat="44.58913550373418" lon="11.398722540166368"><ele>21.0</ele><time>2026-05-02T11:29:08.514Z</time></trkpt><trkpt lat="44.58937215394193" lon="11.398877093830075"><ele>21.0</ele><time>2026-05-02T11:29:09.514Z</time></trkpt><trkpt lat="44.58961001879834" lon="11.399032447792809"><ele>21.0</ele><time>2026-05-02T11:29:10.514Z</time></trkpt><trkpt lat="44.58984728635274" lon="11.399188969126214"><ele>21.0</ele><time>2026-05-02T11:29:11.514Z</time></trkpt><trkpt lat="44.59008311791258" lon="11.399342242784504"><ele>21.0</ele><time>2026-05-02T11:29:12.514Z</time></trkpt><trkpt lat="44.59032520560885" lon="11.39949456187735"><ele>21.5</ele><time>2026-05-02T11:29:13.514Z</time></trkpt><trkpt lat="44.590560958043994" lon="11.399652929021226"><ele>22.0</ele><time>2026-05-02T11:29:14.513Z</time></trkpt><trkpt lat="44.590793929210946" lon="11.399807860735729"><ele>22.0</ele><time>2026-05-02T11:29:15.513Z</time></trkpt><trkpt lat="44.591030235663126" lon="11.399962018555648"><ele>22.0</ele><time>2026-05-02T11:29:16.513Z</time></trkpt><trkpt lat="44.59126723085525" lon="11.40011583861585"><ele>22.0</ele><time>2026-05-02T11:29:17.513Z</time></trkpt><trkpt lat="44.591498844632895" lon="11.40027344852594"><ele>22.0</ele><time>2026-05-02T11:29:18.513Z</time></trkpt><trkpt lat="44.59172375814299" lon="11.400440262742851"><ele>21.5</ele><time>2026-05-02T11:29:19.513Z</time></trkpt><trkpt lat="44.59194993152696" lon="11.400607867179795"><ele>21.0</ele><time>2026-05-02T11:29:20.513Z</time></trkpt><trkpt lat="44.592180661985985" lon="11.400770076353545"><ele>20.5</ele><time>2026-05-02T11:29:21.513Z</time></trkpt><trkpt lat="44.59241207376551" lon="11.400923577823626"><ele>20.0</ele><time>2026-05-02T11:29:22.513Z</time></trkpt><trkpt lat="44.592646302520826" lon="11.4010791080506"><ele>20.0</ele><time>2026-05-02T11:29:23.513Z</time></trkpt><trkpt lat="44.59288037805786" lon="11.401238502970138"><ele>20.0</ele><time>2026-05-02T11:29:24.513Z</time></trkpt><trkpt lat="44.59311668849372" lon="11.401399126496054"><ele>20.5</ele><time>2026-05-02T11:29:25.513Z</time></trkpt><trkpt lat="44.59335747844167" lon="11.401554610963558"><ele>21.0</ele><time>2026-05-02T11:29:26.513Z</time></trkpt><trkpt lat="44.593599749692146" lon="11.401715377729865"><ele>20.5</ele><time>2026-05-02T11:29:27.513Z</time></trkpt><trkpt lat="44.59384118357487" lon="11.401876510831947"><ele>20.0</ele><time>2026-05-02T11:29:28.513Z</time></trkpt><trkpt lat="44.59408026776222" lon="11.402036237231986"><ele>19.5</ele><time>2026-05-02T11:29:29.513Z</time></trkpt><trkpt lat="44.59431929821797" lon="11.402191346669394"><ele>19.0</ele><time>2026-05-02T11:29:30.513Z</time></trkpt><trkpt lat="44.59455725919441" lon="11.402348729703073"><ele>19.0</ele><time>2026-05-02T11:29:31.513Z</time></trkpt><trkpt lat="44.59479338322789" lon="11.402503603541625"><ele>19.0</ele><time>2026-05-02T11:29:32.513Z</time></trkpt><trkpt lat="44.5950327955646" lon="11.402661439079171"><ele>19.0</ele><time>2026-05-02T11:29:33.513Z</time></trkpt><trkpt lat="44.595272971049575" lon="11.402820889165298"><ele>19.0</ele><time>2026-05-02T11:29:34.513Z</time></trkpt><trkpt lat="44.59551435739656" lon="11.402978464807363"><ele>18.5</ele><time>2026-05-02T11:29:35.513Z</time></trkpt><trkpt lat="44.595755997125536" lon="11.403139845940546"><ele>18.0</ele><time>2026-05-02T11:29:36.513Z</time></trkpt><trkpt lat="44.59599722412472" lon="11.403304529835788"><ele>19.0</ele><time>2026-05-02T11:29:37.513Z</time></trkpt><trkpt lat="44.59624090326826" lon="11.403468304003452"><ele>20.0</ele><time>2026-05-02T11:29:38.513Z</time></trkpt><trkpt lat="44.59648577135785" lon="11.403630577615761"><ele>20.0</ele><time>2026-05-02T11:29:39.512Z</time></trkpt><trkpt lat="44.596731942932166" lon="11.403788798512442"><ele>20.0</ele><time>2026-05-02T11:29:40.512Z</time></trkpt><trkpt lat="44.59697674586288" lon="11.40394863346904"><ele>20.0</ele><time>2026-05-02T11:29:41.512Z</time></trkpt><trkpt lat="44.59722318282277" lon="11.404107523710339"><ele>20.0</ele><time>2026-05-02T11:29:42.512Z</time></trkpt><trkpt lat="44.59746903487102" lon="11.404265876549768"><ele>20.0</ele><time>2026-05-02T11:29:43.512Z</time></trkpt><trkpt lat="44.59771380775325" lon="11.404423692258572"><ele>20.0</ele><time>2026-05-02T11:29:44.512Z</time></trkpt><trkpt lat="44.597956602199645" lon="11.404581745857474"><ele>19.5</ele><time>2026-05-02T11:29:45.512Z</time></trkpt><trkpt lat="44.5981978440809" lon="11.40474140957045"><ele>19.0</ele><time>2026-05-02T11:29:46.512Z</time></trkpt><trkpt lat="44.598437901020006" lon="11.404899780444646"><ele>18.5</ele><time>2026-05-02T11:29:47.512Z</time></trkpt><trkpt lat="44.59867653799671" lon="11.40505924136685"><ele>18.0</ele><time>2026-05-02T11:29:48.512Z</time></trkpt><trkpt lat="44.59891461811973" lon="11.405216753264003"><ele>18.0</ele><time>2026-05-02T11:29:49.512Z</time></trkpt><trkpt lat="44.599148935272446" lon="11.40537242468122"><ele>18.0</ele><time>2026-05-02T11:29:50.512Z</time></trkpt><trkpt lat="44.59938244992242" lon="11.405522814714747"><ele>18.0</ele><time>2026-05-02T11:29:51.512Z</time></trkpt><trkpt lat="44.59961629952637" lon="11.405676414272785"><ele>18.0</ele><time>2026-05-02T11:29:52.512Z</time></trkpt><trkpt lat="44.599851955211925" lon="11.405831795973047"><ele>18.0</ele><time>2026-05-02T11:29:53.512Z</time></trkpt><trkpt lat="44.60008574931104" lon="11.405987943699474"><ele>18.0</ele><time>2026-05-02T11:29:54.512Z</time></trkpt><trkpt lat="44.600321367105124" lon="11.406143068601159"><ele>18.0</ele><time>2026-05-02T11:29:55.512Z</time></trkpt><trkpt lat="44.60055794602511" lon="11.406297094308009"><ele>18.0</ele><time>2026-05-02T11:29:56.512Z</time></trkpt><trkpt lat="44.60079219040941" lon="11.406455501996321"><ele>18.0</ele><time>2026-05-02T11:29:57.512Z</time></trkpt><trkpt lat="44.60102554486722" lon="11.40661510820383"><ele>18.0</ele><time>2026-05-02T11:29:58.512Z</time></trkpt><trkpt lat="44.601262682262295" lon="11.406771163792019"><ele>18.5</ele><time>2026-05-02T11:29:59.512Z</time></trkpt><trkpt lat="44.60149917301952" lon="11.406925870156298"><ele>19.0</ele><time>2026-05-02T11:30:00.512Z</time></trkpt><trkpt lat="44.601733217158134" lon="11.407080751008387"><ele>19.5</ele><time>2026-05-02T11:30:01.512Z</time></trkpt><trkpt lat="44.60196699386039" lon="11.407234169145406"><ele>20.0</ele><time>2026-05-02T11:30:02.512Z</time></trkpt><trkpt lat="44.602200309262194" lon="11.407388577598212"><ele>20.0</ele><time>2026-05-02T11:30:03.512Z</time></trkpt><trkpt lat="44.602434920404555" lon="11.407545886942223"><ele>20.0</ele><time>2026-05-02T11:30:04.511Z</time></trkpt><trkpt lat="44.60266976628156" lon="11.40770388373871"><ele>19.5</ele><time>2026-05-02T11:30:05.511Z</time></trkpt><trkpt lat="44.602907049493524" lon="11.407857843893643"><ele>19.0</ele><time>2026-05-02T11:30:06.511Z</time></trkpt><trkpt lat="44.603144524796036" lon="11.408010548564237"><ele>18.5</ele><time>2026-05-02T11:30:07.511Z</time></trkpt><trkpt lat="44.603383511094705" lon="11.408172435069083"><ele>18.0</ele><time>2026-05-02T11:30:08.511Z</time></trkpt><trkpt lat="44.60361979496014" lon="11.408329714744102"><ele>17.5</ele><time>2026-05-02T11:30:09.511Z</time></trkpt><trkpt lat="44.603854969355346" lon="11.408482178349336"><ele>17.0</ele><time>2026-05-02T11:30:10.511Z</time></trkpt><trkpt lat="44.604090744900944" lon="11.408636642043072"><ele>17.0</ele><time>2026-05-02T11:30:11.511Z</time></trkpt><trkpt lat="44.604323230559174" lon="11.40879156144623"><ele>17.0</ele><time>2026-05-02T11:30:12.511Z</time></trkpt><trkpt lat="44.604562047067276" lon="11.408947954544969"><ele>16.5</ele><time>2026-05-02T11:30:13.511Z</time></trkpt><trkpt lat="44.60480109676212" lon="11.409104716089276"><ele>16.0</ele><time>2026-05-02T11:30:14.511Z</time></trkpt><trkpt lat="44.6050410861138" lon="11.409260901396502"><ele>16.0</ele><time>2026-05-02T11:30:15.511Z</time></trkpt><trkpt lat="44.60528153045683" lon="11.40941531064969"><ele>16.0</ele><time>2026-05-02T11:30:16.513Z</time></trkpt><trkpt lat="44.60552228848171" lon="11.409566650777943"><ele>16.5</ele><time>2026-05-02T11:30:17.512Z</time></trkpt><trkpt lat="44.60576021033224" lon="11.409723324053127"><ele>17.0</ele><time>2026-05-02T11:30:18.512Z</time></trkpt><trkpt lat="44.60600101881022" lon="11.409876387138963"><ele>18.0</ele><time>2026-05-02T11:30:19.512Z</time></trkpt><trkpt lat="44.60624302046907" lon="11.41002921441304"><ele>19.0</ele><time>2026-05-02T11:30:20.512Z</time></trkpt><trkpt lat="44.60648447390609" lon="11.410183489573436"><ele>19.0</ele><time>2026-05-02T11:30:21.512Z</time></trkpt><trkpt lat="44.606727180646196" lon="11.4103353619337"><ele>19.0</ele><time>2026-05-02T11:30:22.512Z</time></trkpt><trkpt lat="44.60697056335806" lon="11.41048572842014"><ele>17.5</ele><time>2026-05-02T11:30:23.512Z</time></trkpt><trkpt lat="44.607209889118145" lon="11.410633945958894"><ele>16.0</ele><time>2026-05-02T11:30:24.512Z</time></trkpt><trkpt lat="44.607448839194475" lon="11.410777633724013"><ele>16.0</ele><time>2026-05-02T11:30:25.512Z</time></trkpt><trkpt lat="44.60768564867206" lon="11.410917043054383"><ele>16.0</ele><time>2026-05-02T11:30:26.512Z</time></trkpt><trkpt lat="44.60792135232689" lon="11.411053036034046"><ele>16.0</ele><time>2026-05-02T11:30:27.512Z</time></trkpt><trkpt lat="44.60815322623516" lon="11.411188889296163"><ele>16.0</ele><time>2026-05-02T11:30:28.512Z</time></trkpt><trkpt lat="44.60838507455739" lon="11.411324726166798"><ele>16.0</ele><time>2026-05-02T11:30:29.512Z</time></trkpt><trkpt lat="44.608616167802026" lon="11.41146734348998"><ele>16.0</ele><time>2026-05-02T11:30:30.512Z</time></trkpt><trkpt lat="44.608848110527084" lon="11.411609715970044"><ele>16.0</ele><time>2026-05-02T11:30:31.512Z</time></trkpt><trkpt lat="44.609080915360984" lon="11.411749872960543"><ele>16.0</ele><time>2026-05-02T11:30:32.512Z</time></trkpt><trkpt lat="44.60931707009788" lon="11.41189308453995"><ele>16.0</ele><time>2026-05-02T11:30:33.512Z</time></trkpt><trkpt lat="44.60955482166974" lon="11.412033615262825"><ele>16.0</ele><time>2026-05-02T11:30:34.512Z</time></trkpt><trkpt lat="44.609791092751934" lon="11.412176985654026"><ele>17.0</ele><time>2026-05-02T11:30:35.512Z</time></trkpt><trkpt lat="44.61003042692909" lon="11.412319975413878"><ele>18.0</ele><time>2026-05-02T11:30:36.512Z</time></trkpt><trkpt lat="44.610273863504005" lon="11.412459310886097"><ele>17.5</ele><time>2026-05-02T11:30:37.512Z</time></trkpt><trkpt lat="44.6105194928403" lon="11.412601560293133"><ele>17.0</ele><time>2026-05-02T11:30:38.512Z</time></trkpt><trkpt lat="44.610762703916016" lon="11.412745635719592"><ele>17.0</ele><time>2026-05-02T11:30:39.512Z</time></trkpt><trkpt lat="44.61100860102589" lon="11.412891476631263"><ele>17.0</ele><time>2026-05-02T11:30:40.512Z</time></trkpt><trkpt lat="44.61125443318826" lon="11.413037668002664"><ele>16.0</ele><time>2026-05-02T11:30:41.512Z</time></trkpt><trkpt lat="44.61150005112043" lon="11.413184641687186"><ele>15.0</ele><time>2026-05-02T11:30:42.511Z</time></trkpt><trkpt lat="44.61174535081773" lon="11.413328012373132"><ele>14.5</ele><time>2026-05-02T11:30:43.511Z</time></trkpt><trkpt lat="44.61199142362794" lon="11.413471399271424"><ele>14.0</ele><time>2026-05-02T11:30:44.511Z</time></trkpt><trkpt lat="44.61223623808846" lon="11.41361750516815"><ele>14.0</ele><time>2026-05-02T11:30:45.511Z</time></trkpt><trkpt lat="44.612481469651556" lon="11.41376304205253"><ele>14.0</ele><time>2026-05-02T11:30:46.511Z</time></trkpt><trkpt lat="44.612727921156065" lon="11.413910674729946"><ele>15.5</ele><time>2026-05-02T11:30:47.511Z</time></trkpt><trkpt lat="44.61297391483272" lon="11.414053915655805"><ele>17.0</ele><time>2026-05-02T11:30:48.511Z</time></trkpt><trkpt lat="44.61321823150367" lon="11.414201560507783"><ele>17.0</ele><time>2026-05-02T11:30:49.511Z</time></trkpt><trkpt lat="44.613462019517684" lon="11.414349495310782"><ele>17.0</ele><time>2026-05-02T11:30:50.511Z</time></trkpt><trkpt lat="44.613709123868794" lon="11.414492903250098"><ele>16.5</ele><time>2026-05-02T11:30:51.511Z</time></trkpt><trkpt lat="44.6139568684304" lon="11.41463803900197"><ele>16.0</ele><time>2026-05-02T11:30:52.511Z</time></trkpt><trkpt lat="44.61420176927591" lon="11.414784385949112"><ele>16.0</ele><time>2026-05-02T11:30:53.511Z</time></trkpt><trkpt lat="44.614451842710835" lon="11.414927462558417"><ele>16.0</ele><time>2026-05-02T11:30:54.511Z</time></trkpt><trkpt lat="44.614697245654156" lon="11.415073145926184"><ele>15.5</ele><time>2026-05-02T11:30:55.511Z</time></trkpt><trkpt lat="44.61494223561745" lon="11.41521763455999"><ele>15.0</ele><time>2026-05-02T11:30:56.511Z</time></trkpt><trkpt lat="44.61518840590141" lon="11.41536732946218"><ele>15.0</ele><time>2026-05-02T11:30:57.511Z</time></trkpt><trkpt lat="44.61543247096938" lon="11.415519548208398"><ele>15.0</ele><time>2026-05-02T11:30:58.511Z</time></trkpt><trkpt lat="44.61567544660635" lon="11.415670053605245"><ele>15.0</ele><time>2026-05-02T11:30:59.511Z</time></trkpt><trkpt lat="44.61591765381597" lon="11.415816437286665"><ele>15.0</ele><time>2026-05-02T11:31:00.511Z</time></trkpt><trkpt lat="44.616161154366644" lon="11.415961155717747"><ele>14.5</ele><time>2026-05-02T11:31:01.511Z</time></trkpt><trkpt lat="44.6164037226191" lon="11.416106744501127"><ele>14.0</ele><time>2026-05-02T11:31:02.511Z</time></trkpt><trkpt lat="44.61664325847308" lon="11.416248696521915"><ele>14.0</ele><time>2026-05-02T11:31:03.511Z</time></trkpt><trkpt lat="44.61688588118159" lon="11.416390747476989"><ele>14.0</ele><time>2026-05-02T11:31:04.511Z</time></trkpt><trkpt lat="44.61713059543868" lon="11.416535700821301"><ele>14.0</ele><time>2026-05-02T11:31:05.511Z</time></trkpt><trkpt lat="44.61737259447981" lon="11.416680181262215"><ele>14.0</ele><time>2026-05-02T11:31:06.511Z</time></trkpt><trkpt lat="44.617614546788225" lon="11.41682802764668"><ele>13.0</ele><time>2026-05-02T11:31:07.51Z</time></trkpt><trkpt lat="44.6178572456876" lon="11.416974292272746"><ele>12.0</ele><time>2026-05-02T11:31:08.51Z</time></trkpt><trkpt lat="44.618098590169865" lon="11.417118423587219"><ele>12.0</ele><time>2026-05-02T11:31:09.51Z</time></trkpt><trkpt lat="44.61834479300158" lon="11.417267659440958"><ele>12.0</ele><time>2026-05-02T11:31:10.51Z</time></trkpt><trkpt lat="44.618589901582254" lon="11.417417423963839"><ele>12.5</ele><time>2026-05-02T11:31:11.51Z</time></trkpt><trkpt lat="44.61883633468461" lon="11.417568563990075"><ele>13.0</ele><time>2026-05-02T11:31:12.51Z</time></trkpt><trkpt lat="44.61908422434818" lon="11.417720933375948"><ele>13.0</ele><time>2026-05-02T11:31:13.51Z</time></trkpt><trkpt lat="44.61932945341334" lon="11.417875865407158"><ele>13.0</ele><time>2026-05-02T11:31:14.51Z</time></trkpt><trkpt lat="44.61957376098729" lon="11.418033025226697"><ele>14.5</ele><time>2026-05-02T11:31:15.51Z</time></trkpt><trkpt lat="44.61981126083704" lon="11.41819767464702"><ele>16.0</ele><time>2026-05-02T11:31:16.51Z</time></trkpt><trkpt lat="44.620046670273545" lon="11.41836438672621"><ele>16.0</ele><time>2026-05-02T11:31:17.51Z</time></trkpt><trkpt lat="44.62028149962889" lon="11.418538593515558"><ele>16.0</ele><time>2026-05-02T11:31:18.51Z</time></trkpt><trkpt lat="44.620516203071354" lon="11.418715962155321"><ele>15.5</ele><time>2026-05-02T11:31:19.51Z</time></trkpt><trkpt lat="44.620749332025206" lon="11.418897139180665"><ele>15.0</ele><time>2026-05-02T11:31:20.51Z</time></trkpt><trkpt lat="44.62098273050847" lon="11.419081022526644"><ele>16.0</ele><time>2026-05-02T11:31:21.51Z</time></trkpt><trkpt lat="44.62121317029064" lon="11.419266445239028"><ele>17.0</ele><time>2026-05-02T11:31:22.51Z</time></trkpt><trkpt lat="44.6214438221065" lon="11.419458537994757"><ele>16.5</ele><time>2026-05-02T11:31:23.51Z</time></trkpt><trkpt lat="44.62167385837873" lon="11.419650742738689"><ele>16.0</ele><time>2026-05-02T11:31:24.51Z</time></trkpt><trkpt lat="44.62190105025083" lon="11.419846498144697"><ele>15.5</ele><time>2026-05-02T11:31:25.51Z</time></trkpt><trkpt lat="44.622124719523384" lon="11.420041753659007"><ele>15.0</ele><time>2026-05-02T11:31:26.51Z</time></trkpt><trkpt lat="44.622350860619605" lon="11.42024266141789"><ele>15.0</ele><time>2026-05-02T11:31:27.51Z</time></trkpt><trkpt lat="44.622577499027955" lon="11.420445362809795"><ele>15.0</ele><time>2026-05-02T11:31:28.51Z</time></trkpt><trkpt lat="44.62280706783996" lon="11.420649186470635"><ele>15.5</ele><time>2026-05-02T11:31:29.51Z</time></trkpt><trkpt lat="44.6230356022148" lon="11.420847775814993"><ele>16.0</ele><time>2026-05-02T11:31:30.51Z</time></trkpt><trkpt lat="44.623265882179155" lon="11.421041994466563"><ele>16.0</ele><time>2026-05-02T11:31:31.51Z</time></trkpt><trkpt lat="44.623493001367336" lon="11.421240826118726"><ele>16.0</ele><time>2026-05-02T11:31:32.509Z</time></trkpt><trkpt lat="44.62371774061506" lon="11.421444009350529"><ele>17.0</ele><time>2026-05-02T11:31:33.509Z</time></trkpt><trkpt lat="44.62394369184524" lon="11.421644378196186"><ele>18.0</ele><time>2026-05-02T11:31:34.509Z</time></trkpt><trkpt lat="44.62416940516778" lon="11.421844559944091"><ele>18.0</ele><time>2026-05-02T11:31:35.509Z</time></trkpt><trkpt lat="44.624395690103654" lon="11.422044133771895"><ele>18.0</ele><time>2026-05-02T11:31:36.509Z</time></trkpt><trkpt lat="44.62462224196323" lon="11.422244332513344"><ele>16.5</ele><time>2026-05-02T11:31:37.509Z</time></trkpt><trkpt lat="44.62484836426513" lon="11.422448518172681"><ele>15.0</ele><time>2026-05-02T11:31:38.509Z</time></trkpt><trkpt lat="44.62507444941692" lon="11.422647771113807"><ele>15.0</ele><time>2026-05-02T11:31:39.509Z</time></trkpt><trkpt lat="44.62529912976122" lon="11.4228476398628"><ele>15.0</ele><time>2026-05-02T11:31:40.509Z</time></trkpt><trkpt lat="44.62552281678843" lon="11.423045751489523"><ele>15.0</ele><time>2026-05-02T11:31:41.509Z</time></trkpt><trkpt lat="44.625748794400664" lon="11.423243283006396"><ele>15.0</ele><time>2026-05-02T11:31:42.509Z</time></trkpt><trkpt lat="44.62597556286234" lon="11.423439019944437"><ele>14.5</ele><time>2026-05-02T11:31:43.509Z</time></trkpt><trkpt lat="44.626198974045145" lon="11.423635046659374"><ele>14.0</ele><time>2026-05-02T11:31:44.509Z</time></trkpt><trkpt lat="44.62642281358226" lon="11.423833882935492"><ele>14.0</ele><time>2026-05-02T11:31:45.509Z</time></trkpt><trkpt lat="44.62664774899967" lon="11.424036302578996"><ele>14.0</ele><time>2026-05-02T11:31:46.509Z</time></trkpt><trkpt lat="44.62687320080321" lon="11.424239560379077"><ele>13.5</ele><time>2026-05-02T11:31:47.509Z</time></trkpt><trkpt lat="44.627095605319184" lon="11.424442151600505"><ele>13.0</ele><time>2026-05-02T11:31:48.509Z</time></trkpt><trkpt lat="44.62732233602089" lon="11.424642406904423"><ele>13.5</ele><time>2026-05-02T11:31:49.509Z</time></trkpt><trkpt lat="44.6275477807997" lon="11.4248439598227"><ele>14.0</ele><time>2026-05-02T11:31:50.509Z</time></trkpt><trkpt lat="44.627773291633154" lon="11.425043230812621"><ele>14.0</ele><time>2026-05-02T11:31:51.509Z</time></trkpt><trkpt lat="44.62799803051292" lon="11.425241484383392"><ele>14.0</ele><time>2026-05-02T11:31:52.509Z</time></trkpt><trkpt lat="44.628222579321246" lon="11.425437766796355"><ele>13.5</ele><time>2026-05-02T11:31:53.509Z</time></trkpt><trkpt lat="44.62844882391343" lon="11.425634324156851"><ele>13.0</ele><time>2026-05-02T11:31:54.509Z</time></trkpt><trkpt lat="44.62867140190203" lon="11.42583089678405"><ele>13.0</ele><time>2026-05-02T11:31:55.509Z</time></trkpt><trkpt lat="44.62889279290151" lon="11.426025466312883"><ele>13.0</ele><time>2026-05-02T11:31:56.509Z</time></trkpt><trkpt lat="44.629113783577836" lon="11.426221299943018"><ele>13.5</ele><time>2026-05-02T11:31:57.509Z</time></trkpt><trkpt lat="44.62933585491126" lon="11.426418847624525"><ele>14.0</ele><time>2026-05-02T11:31:58.508Z</time></trkpt><trkpt lat="44.62955590281474" lon="11.426610655172599"><ele>13.0</ele><time>2026-05-02T11:31:59.508Z</time></trkpt><trkpt lat="44.629779990512006" lon="11.42680234033403"><ele>12.0</ele><time>2026-05-02T11:32:00.508Z</time></trkpt><trkpt lat="44.63000283488002" lon="11.426999428361478"><ele>12.5</ele><time>2026-05-02T11:32:01.508Z</time></trkpt><trkpt lat="44.63022384274565" lon="11.427194008850012"><ele>13.0</ele><time>2026-05-02T11:32:02.508Z</time></trkpt><trkpt lat="44.63044751806455" lon="11.427394407957737"><ele>12.0</ele><time>2026-05-02T11:32:03.508Z</time></trkpt><trkpt lat="44.6306718079389" lon="11.427594903363751"><ele>11.0</ele><time>2026-05-02T11:32:04.508Z</time></trkpt><trkpt lat="44.63089895867784" lon="11.427793192649206"><ele>12.0</ele><time>2026-05-02T11:32:05.508Z</time></trkpt><trkpt lat="44.63112728313577" lon="11.427993853213472"><ele>13.0</ele><time>2026-05-02T11:32:06.508Z</time></trkpt><trkpt lat="44.631355557944836" lon="11.428191425305114"><ele>13.5</ele><time>2026-05-02T11:32:07.508Z</time></trkpt><trkpt lat="44.63158349949044" lon="11.428388899515847"><ele>14.0</ele><time>2026-05-02T11:32:08.508Z</time></trkpt><trkpt lat="44.631809934157864" lon="11.428583165383888"><ele>13.0</ele><time>2026-05-02T11:32:09.508Z</time></trkpt><trkpt lat="44.632034026515434" lon="11.42878149105294"><ele>12.0</ele><time>2026-05-02T11:32:10.508Z</time></trkpt><trkpt lat="44.63225729817152" lon="11.428980381077631"><ele>12.0</ele><time>2026-05-02T11:32:11.508Z</time></trkpt><trkpt lat="44.63248043853999" lon="11.429181112063628"><ele>12.0</ele><time>2026-05-02T11:32:12.508Z</time></trkpt><trkpt lat="44.63270245384599" lon="11.429379088187535"><ele>12.5</ele><time>2026-05-02T11:32:13.508Z</time></trkpt><trkpt lat="44.63292438527949" lon="11.4295753010974"><ele>13.0</ele><time>2026-05-02T11:32:14.508Z</time></trkpt><trkpt lat="44.63314963038842" lon="11.429775194238898"><ele>13.0</ele><time>2026-05-02T11:32:15.508Z</time></trkpt><trkpt lat="44.63337142727915" lon="11.42997459042083"><ele>13.0</ele><time>2026-05-02T11:32:16.508Z</time></trkpt><trkpt lat="44.633594290873894" lon="11.43017677653978"><ele>13.5</ele><time>2026-05-02T11:32:17.508Z</time></trkpt><trkpt lat="44.6338192707802" lon="11.430380544489186"><ele>14.0</ele><time>2026-05-02T11:32:18.508Z</time></trkpt><trkpt lat="44.63404643950001" lon="11.430583700574218"><ele>14.0</ele><time>2026-05-02T11:32:19.508Z</time></trkpt><trkpt lat="44.63427393464347" lon="11.4307859193893"><ele>14.0</ele><time>2026-05-02T11:32:20.508Z</time></trkpt><trkpt lat="44.63450441296905" lon="11.430984122411491"><ele>14.0</ele><time>2026-05-02T11:32:21.508Z</time></trkpt><trkpt lat="44.634733192496434" lon="11.431181899554213"><ele>14.0</ele><time>2026-05-02T11:32:22.509Z</time></trkpt><trkpt lat="44.63496217870178" lon="11.431383335053747"><ele>13.5</ele><time>2026-05-02T11:32:23.508Z</time></trkpt><trkpt lat="44.63519253866197" lon="11.431584635411031"><ele>13.0</ele><time>2026-05-02T11:32:24.508Z</time></trkpt><trkpt lat="44.635422390261574" lon="11.431781101124185"><ele>13.0</ele><time>2026-05-02T11:32:25.509Z</time></trkpt><trkpt lat="44.635651933675135" lon="11.431978426934268"><ele>13.0</ele><time>2026-05-02T11:32:26.508Z</time></trkpt><trkpt lat="44.63587950797077" lon="11.432173681607797"><ele>13.0</ele><time>2026-05-02T11:32:27.508Z</time></trkpt><trkpt lat="44.63610774688721" lon="11.432363534845718"><ele>13.0</ele><time>2026-05-02T11:32:28.509Z</time></trkpt><trkpt lat="44.63633189040645" lon="11.432554678653167"><ele>12.0</ele><time>2026-05-02T11:32:29.508Z</time></trkpt><trkpt lat="44.63655257439767" lon="11.432750774877471"><ele>11.0</ele><time>2026-05-02T11:32:30.508Z</time></trkpt><trkpt lat="44.636768272009775" lon="11.432949683830635"><ele>12.0</ele><time>2026-05-02T11:32:31.508Z</time></trkpt><trkpt lat="44.63697849595226" lon="11.433142551931336"><ele>13.0</ele><time>2026-05-02T11:32:32.508Z</time></trkpt><trkpt lat="44.63717887664809" lon="11.433325431638101"><ele>13.0</ele><time>2026-05-02T11:32:33.508Z</time></trkpt><trkpt lat="44.637373628597" lon="11.433495080217464"><ele>13.0</ele><time>2026-05-02T11:32:34.509Z</time></trkpt><trkpt lat="44.637561524916705" lon="11.433665599789474"><ele>13.333333333333332</ele><time>2026-05-02T11:32:35.509Z</time></trkpt><trkpt lat="44.63774426251118" lon="11.433826367198654"><ele>13.666666666666668</ele><time>2026-05-02T11:32:36.509Z</time></trkpt><trkpt lat="44.63793536537152" lon="11.433983179145349"><ele>14.0</ele><time>2026-05-02T11:32:37.509Z</time></trkpt><trkpt lat="44.63813728721531" lon="11.434146879586445"><ele>12.5</ele><time>2026-05-02T11:32:38.508Z</time></trkpt><trkpt lat="44.63834340136377" lon="11.434334342464934"><ele>11.0</ele><time>2026-05-02T11:32:39.508Z</time></trkpt><trkpt lat="44.63855629380938" lon="11.434526325057373"><ele>10.5</ele><time>2026-05-02T11:32:40.508Z</time></trkpt><trkpt lat="44.63876962337501" lon="11.434722489913485"><ele>10.0</ele><time>2026-05-02T11:32:41.508Z</time></trkpt><trkpt lat="44.63898929125183" lon="11.434918515726821"><ele>10.0</ele><time>2026-05-02T11:32:42.508Z</time></trkpt><trkpt lat="44.63921910364799" lon="11.435109736268613"><ele>10.0</ele><time>2026-05-02T11:32:43.508Z</time></trkpt><trkpt lat="44.639444517156925" lon="11.43531941973174"><ele>9.0</ele><time>2026-05-02T11:32:44.508Z</time></trkpt><trkpt lat="44.63966492330785" lon="11.435532708726072"><ele>8.0</ele><time>2026-05-02T11:32:45.508Z</time></trkpt><trkpt lat="44.63988048099579" lon="11.435745891036744"><ele>8.0</ele><time>2026-05-02T11:32:46.508Z</time></trkpt><trkpt lat="44.640097838868705" lon="11.435945958096086"><ele>8.0</ele><time>2026-05-02T11:32:47.508Z</time></trkpt><trkpt lat="44.64031897051188" lon="11.436138477818833"><ele>8.0</ele><time>2026-05-02T11:32:48.508Z</time></trkpt><trkpt lat="44.64054083685133" lon="11.436323987573417"><ele>8.0</ele><time>2026-05-02T11:32:49.508Z</time></trkpt><trkpt lat="44.64076314952595" lon="11.43651073385556"><ele>8.0</ele><time>2026-05-02T11:32:50.508Z</time></trkpt><trkpt lat="44.64098627642231" lon="11.436706103124225"><ele>8.0</ele><time>2026-05-02T11:32:51.508Z</time></trkpt><trkpt lat="44.64120627962054" lon="11.436898822410315"><ele>8.5</ele><time>2026-05-02T11:32:52.508Z</time></trkpt><trkpt lat="44.64142397225911" lon="11.437089477267175"><ele>9.0</ele><time>2026-05-02T11:32:53.508Z</time></trkpt><trkpt lat="44.64164212341947" lon="11.437285290007436"><ele>9.5</ele><time>2026-05-02T11:32:54.508Z</time></trkpt><trkpt lat="44.64186078265681" lon="11.437484038445074"><ele>10.0</ele><time>2026-05-02T11:32:55.508Z</time></trkpt><trkpt lat="44.64208049844195" lon="11.437680938388512"><ele>10.0</ele><time>2026-05-02T11:32:56.508Z</time></trkpt><trkpt lat="44.64229873304298" lon="11.437878334186802"><ele>10.0</ele><time>2026-05-02T11:32:57.508Z</time></trkpt><trkpt lat="44.64251628760083" lon="11.438079939245577"><ele>10.5</ele><time>2026-05-02T11:32:58.508Z</time></trkpt><trkpt lat="44.642738019669466" lon="11.43829021707711"><ele>11.0</ele><time>2026-05-02T11:32:59.508Z</time></trkpt><trkpt lat="44.64296061477387" lon="11.438502908997163"><ele>10.5</ele><time>2026-05-02T11:33:00.508Z</time></trkpt><trkpt lat="44.643186253457635" lon="11.438720659008231"><ele>10.0</ele><time>2026-05-02T11:33:01.508Z</time></trkpt><trkpt lat="44.64341392206085" lon="11.438942729768332"><ele>10.5</ele><time>2026-05-02T11:33:02.508Z</time></trkpt><trkpt lat="44.643639950261885" lon="11.439163448935222"><ele>11.0</ele><time>2026-05-02T11:33:03.507Z</time></trkpt><trkpt lat="44.64386748879292" lon="11.439382096325838"><ele>11.0</ele><time>2026-05-02T11:33:04.507Z</time></trkpt><trkpt lat="44.64409686673499" lon="11.439604005569642"><ele>11.0</ele><time>2026-05-02T11:33:05.507Z</time></trkpt><trkpt lat="44.644323551781945" lon="11.439822931314735"><ele>10.5</ele><time>2026-05-02T11:33:06.507Z</time></trkpt><trkpt lat="44.64454868394062" lon="11.44004063264619"><ele>10.0</ele><time>2026-05-02T11:33:07.507Z</time></trkpt><trkpt lat="44.64477469032768" lon="11.44026188574234"><ele>10.0</ele><time>2026-05-02T11:33:08.507Z</time></trkpt><trkpt lat="44.64500213516132" lon="11.44047870538518"><ele>10.0</ele><time>2026-05-02T11:33:09.507Z</time></trkpt><trkpt lat="44.64522747498133" lon="11.440700956396357"><ele>10.5</ele><time>2026-05-02T11:33:10.507Z</time></trkpt><trkpt lat="44.64545482330977" lon="11.44092091974698"><ele>11.0</ele><time>2026-05-02T11:33:11.507Z</time></trkpt><trkpt lat="44.645678991844974" lon="11.441142273048515"><ele>10.5</ele><time>2026-05-02T11:33:12.507Z</time></trkpt><trkpt lat="44.645905785232614" lon="11.441364971668577"><ele>10.0</ele><time>2026-05-02T11:33:13.507Z</time></trkpt><trkpt lat="44.646132250347364" lon="11.441585762196372"><ele>9.5</ele><time>2026-05-02T11:33:14.507Z</time></trkpt><trkpt lat="44.64635732417675" lon="11.44180302485045"><ele>9.0</ele><time>2026-05-02T11:33:15.507Z</time></trkpt><trkpt lat="44.646584623222004" lon="11.44202696182117"><ele>9.0</ele><time>2026-05-02T11:33:16.507Z</time></trkpt><trkpt lat="44.64680996893657" lon="11.442247117158965"><ele>9.0</ele><time>2026-05-02T11:33:17.507Z</time></trkpt><trkpt lat="44.64703668356938" lon="11.442467523375408"><ele>8.5</ele><time>2026-05-02T11:33:18.507Z</time></trkpt><trkpt lat="44.64726458550785" lon="11.442685980297963"><ele>8.0</ele><time>2026-05-02T11:33:19.507Z</time></trkpt><trkpt lat="44.64749248270147" lon="11.44290468796764"><ele>8.5</ele><time>2026-05-02T11:33:20.507Z</time></trkpt><trkpt lat="44.64771854139961" lon="11.443125871343897"><ele>9.0</ele><time>2026-05-02T11:33:21.507Z</time></trkpt><trkpt lat="44.647944489485006" lon="11.443344908843821"><ele>9.5</ele><time>2026-05-02T11:33:22.507Z</time></trkpt><trkpt lat="44.64816598838295" lon="11.443559062511632"><ele>10.0</ele><time>2026-05-02T11:33:23.507Z</time></trkpt><trkpt lat="44.64838545127835" lon="11.443775438367807"><ele>9.5</ele><time>2026-05-02T11:33:24.507Z</time></trkpt><trkpt lat="44.648605492756026" lon="11.443994053296885"><ele>9.0</ele><time>2026-05-02T11:33:25.507Z</time></trkpt><trkpt lat="44.64882630293196" lon="11.444215468768771"><ele>9.0</ele><time>2026-05-02T11:33:26.507Z</time></trkpt><trkpt lat="44.649051424386506" lon="11.444434479286828"><ele>9.0</ele><time>2026-05-02T11:33:27.507Z</time></trkpt><trkpt lat="44.6492745210135" lon="11.444647693021466"><ele>8.5</ele><time>2026-05-02T11:33:28.506Z</time></trkpt><trkpt lat="44.64950020729614" lon="11.4448626660019"><ele>8.0</ele><time>2026-05-02T11:33:29.506Z</time></trkpt><trkpt lat="44.64972696393017" lon="11.44508001549839"><ele>8.0</ele><time>2026-05-02T11:33:30.506Z</time></trkpt><trkpt lat="44.649952510112385" lon="11.445295337894166"><ele>8.0</ele><time>2026-05-02T11:33:31.506Z</time></trkpt><trkpt lat="44.65017857339149" lon="11.445514063924252"><ele>9.0</ele><time>2026-05-02T11:33:32.506Z</time></trkpt><trkpt lat="44.65040185739014" lon="11.445730121163475"><ele>10.0</ele><time>2026-05-02T11:33:33.506Z</time></trkpt><trkpt lat="44.65062173305471" lon="11.44594704650895"><ele>10.0</ele><time>2026-05-02T11:33:34.506Z</time></trkpt><trkpt lat="44.650845375424424" lon="11.446168621314106"><ele>10.0</ele><time>2026-05-02T11:33:35.506Z</time></trkpt><trkpt lat="44.651068899713316" lon="11.446385813457802"><ele>9.5</ele><time>2026-05-02T11:33:36.506Z</time></trkpt><trkpt lat="44.6512944738272" lon="11.446601260976392"><ele>9.0</ele><time>2026-05-02T11:33:37.506Z</time></trkpt><trkpt lat="44.6515184165605" lon="11.446817581682467"><ele>9.0</ele><time>2026-05-02T11:33:38.506Z</time></trkpt><trkpt lat="44.65173862230741" lon="11.447037672275512"><ele>9.0</ele><time>2026-05-02T11:33:39.506Z</time></trkpt><trkpt lat="44.651963604053876" lon="11.447257126451035"><ele>9.0</ele><time>2026-05-02T11:33:40.506Z</time></trkpt><trkpt lat="44.65218951232661" lon="11.447477152076583"><ele>9.0</ele><time>2026-05-02T11:33:41.506Z</time></trkpt><trkpt lat="44.65241530609541" lon="11.447696753352437"><ele>9.0</ele><time>2026-05-02T11:33:42.506Z</time></trkpt><trkpt lat="44.65264264758525" lon="11.447916831256581"><ele>9.0</ele><time>2026-05-02T11:33:43.506Z</time></trkpt><trkpt lat="44.652871196656086" lon="11.448138958625465"><ele>8.5</ele><time>2026-05-02T11:33:44.506Z</time></trkpt><trkpt lat="44.65310124050363" lon="11.448361805222982"><ele>8.0</ele><time>2026-05-02T11:33:45.506Z</time></trkpt><trkpt lat="44.65333054758811" lon="11.448585590283614"><ele>7.5</ele><time>2026-05-02T11:33:46.506Z</time></trkpt><trkpt lat="44.653560451364676" lon="11.448807945424287"><ele>7.0</ele><time>2026-05-02T11:33:47.506Z</time></trkpt><trkpt lat="44.65379122280388" lon="11.449031189066593"><ele>8.0</ele><time>2026-05-02T11:33:48.506Z</time></trkpt><trkpt lat="44.65402012617922" lon="11.44925574783886"><ele>9.0</ele><time>2026-05-02T11:33:49.506Z</time></trkpt><trkpt lat="44.65425006125046" lon="11.449479143801248"><ele>9.0</ele><time>2026-05-02T11:33:50.506Z</time></trkpt><trkpt lat="44.654479252058515" lon="11.449701106934471"><ele>9.0</ele><time>2026-05-02T11:33:51.506Z</time></trkpt><trkpt lat="44.654709420917165" lon="11.449920342446793"><ele>9.0</ele><time>2026-05-02T11:33:52.506Z</time></trkpt><trkpt lat="44.65494206983187" lon="11.450144346452793"><ele>9.0</ele><time>2026-05-02T11:33:53.506Z</time></trkpt><trkpt lat="44.655169147034506" lon="11.450370432333207"><ele>8.5</ele><time>2026-05-02T11:33:54.505Z</time></trkpt><trkpt lat="44.65539642152131" lon="11.450600516208675"><ele>8.0</ele><time>2026-05-02T11:33:55.505Z</time></trkpt><trkpt lat="44.65562313526953" lon="11.450821203473906"><ele>8.0</ele><time>2026-05-02T11:33:56.505Z</time></trkpt><trkpt lat="44.65585027539427" lon="11.451038879575208"><ele>8.0</ele><time>2026-05-02T11:33:57.505Z</time></trkpt><trkpt lat="44.656077197163455" lon="11.451259298372904"><ele>9.0</ele><time>2026-05-02T11:33:58.505Z</time></trkpt><trkpt lat="44.6563017783464" lon="11.451480579272546"><ele>10.0</ele><time>2026-05-02T11:33:59.505Z</time></trkpt><trkpt lat="44.65652421490823" lon="11.451698955584842"><ele>10.0</ele><time>2026-05-02T11:34:00.505Z</time></trkpt><trkpt lat="44.65674594867004" lon="11.451918969372"><ele>10.0</ele><time>2026-05-02T11:34:01.505Z</time></trkpt><trkpt lat="44.65696616937454" lon="11.452137108463726"><ele>9.5</ele><time>2026-05-02T11:34:02.505Z</time></trkpt><trkpt lat="44.65718853742237" lon="11.452350288512216"><ele>9.0</ele><time>2026-05-02T11:34:03.505Z</time></trkpt><trkpt lat="44.65740795293252" lon="11.452564631154088"><ele>9.0</ele><time>2026-05-02T11:34:04.505Z</time></trkpt><trkpt lat="44.65763120728333" lon="11.452780216971702"><ele>9.0</ele><time>2026-05-02T11:34:05.505Z</time></trkpt><trkpt lat="44.657856386193664" lon="11.452995661419823"><ele>9.5</ele><time>2026-05-02T11:34:06.505Z</time></trkpt><trkpt lat="44.65808421977191" lon="11.453212925951728"><ele>10.0</ele><time>2026-05-02T11:34:07.505Z</time></trkpt><trkpt lat="44.65831063069615" lon="11.45343059531577"><ele>10.0</ele><time>2026-05-02T11:34:08.505Z</time></trkpt><trkpt lat="44.6585370325253" lon="11.453648404561372"><ele>10.0</ele><time>2026-05-02T11:34:09.505Z</time></trkpt><trkpt lat="44.6587644621663" lon="11.453867579796404"><ele>9.0</ele><time>2026-05-02T11:34:10.505Z</time></trkpt><trkpt lat="44.65899004348355" lon="11.454088020748948"><ele>8.0</ele><time>2026-05-02T11:34:11.505Z</time></trkpt><trkpt lat="44.65921950286553" lon="11.454305503542189"><ele>8.0</ele><time>2026-05-02T11:34:12.505Z</time></trkpt><trkpt lat="44.65944784206778" lon="11.454526517281684"><ele>8.0</ele><time>2026-05-02T11:34:13.505Z</time></trkpt><trkpt lat="44.659673309006095" lon="11.45474897972826"><ele>8.0</ele><time>2026-05-02T11:34:14.505Z</time></trkpt><trkpt lat="44.659898727841096" lon="11.45497080100955"><ele>8.0</ele><time>2026-05-02T11:34:15.505Z</time></trkpt><trkpt lat="44.660123259031494" lon="11.45518960248966"><ele>7.5</ele><time>2026-05-02T11:34:16.505Z</time></trkpt><trkpt lat="44.660347347340426" lon="11.455410870922275"><ele>7.0</ele><time>2026-05-02T11:34:17.505Z</time></trkpt><trkpt lat="44.660570883467706" lon="11.455626695033315"><ele>8.0</ele><time>2026-05-02T11:34:18.505Z</time></trkpt><trkpt lat="44.66079504634949" lon="11.45584674419117"><ele>9.0</ele><time>2026-05-02T11:34:19.504Z</time></trkpt><trkpt lat="44.66101863645923" lon="11.456069460080617"><ele>8.5</ele><time>2026-05-02T11:34:20.504Z</time></trkpt><trkpt lat="44.66124401635528" lon="11.45629333393691"><ele>8.0</ele><time>2026-05-02T11:34:21.504Z</time></trkpt><trkpt lat="44.66147095551348" lon="11.456516055816206"><ele>8.0</ele><time>2026-05-02T11:34:22.504Z</time></trkpt><trkpt lat="44.66170276955353" lon="11.456736685619935"><ele>8.0</ele><time>2026-05-02T11:34:23.504Z</time></trkpt><trkpt lat="44.661931175790045" lon="11.456959395097515"><ele>8.0</ele><time>2026-05-02T11:34:24.504Z</time></trkpt><trkpt lat="44.66216124173155" lon="11.45718613841665"><ele>8.0</ele><time>2026-05-02T11:34:25.504Z</time></trkpt><trkpt lat="44.66239033549605" lon="11.457415726582635"><ele>8.0</ele><time>2026-05-02T11:34:26.504Z</time></trkpt><trkpt lat="44.6626267164503" lon="11.457640213354924"><ele>8.0</ele><time>2026-05-02T11:34:27.504Z</time></trkpt><trkpt lat="44.66286131665856" lon="11.457864441550539"><ele>8.0</ele><time>2026-05-02T11:34:28.505Z</time></trkpt><trkpt lat="44.66309340235215" lon="11.45809009487884"><ele>8.0</ele><time>2026-05-02T11:34:29.505Z</time></trkpt><trkpt lat="44.663325149052966" lon="11.45831897773447"><ele>8.0</ele><time>2026-05-02T11:34:30.505Z</time></trkpt><trkpt lat="44.66355861044851" lon="11.458548435394816"><ele>8.0</ele><time>2026-05-02T11:34:31.506Z</time></trkpt><trkpt lat="44.66379191353551" lon="11.458775998164315"><ele>8.0</ele><time>2026-05-02T11:34:32.505Z</time></trkpt><trkpt lat="44.66402468205047" lon="11.458999975649887"><ele>8.0</ele><time>2026-05-02T11:34:33.505Z</time></trkpt><trkpt lat="44.66425738226335" lon="11.459222525908777"><ele>7.5</ele><time>2026-05-02T11:34:34.505Z</time></trkpt><trkpt lat="44.664487595787456" lon="11.459445523059264"><ele>7.0</ele><time>2026-05-02T11:34:35.505Z</time></trkpt><trkpt lat="44.6647203141272" lon="11.459667285927289"><ele>7.0</ele><time>2026-05-02T11:34:36.505Z</time></trkpt><trkpt lat="44.66495312852612" lon="11.45988953175849"><ele>7.0</ele><time>2026-05-02T11:34:37.505Z</time></trkpt><trkpt lat="44.66518487567409" lon="11.460112804870585"><ele>6.5</ele><time>2026-05-02T11:34:38.505Z</time></trkpt><trkpt lat="44.665417072280064" lon="11.460332536897193"><ele>6.0</ele><time>2026-05-02T11:34:39.505Z</time></trkpt><trkpt lat="44.66565009449953" lon="11.46054777353077"><ele>7.0</ele><time>2026-05-02T11:34:40.505Z</time></trkpt><trkpt lat="44.66588200728629" lon="11.460768171514676"><ele>8.0</ele><time>2026-05-02T11:34:41.504Z</time></trkpt><trkpt lat="44.66611515390815" lon="11.460982172501504"><ele>8.0</ele><time>2026-05-02T11:34:42.504Z</time></trkpt><trkpt lat="44.66634913945222" lon="11.461198607954104"><ele>8.0</ele><time>2026-05-02T11:34:43.504Z</time></trkpt><trkpt lat="44.66658226411407" lon="11.46141931674368"><ele>8.0</ele><time>2026-05-02T11:34:44.504Z</time></trkpt><trkpt lat="44.66681523316066" lon="11.461643826523332"><ele>8.0</ele><time>2026-05-02T11:34:45.504Z</time></trkpt><trkpt lat="44.66704707650245" lon="11.461873592956414"><ele>8.0</ele><time>2026-05-02T11:34:46.504Z</time></trkpt><trkpt lat="44.66727904008538" lon="11.462103473515588"><ele>8.0</ele><time>2026-05-02T11:34:47.504Z</time></trkpt><trkpt lat="44.6675120518345" lon="11.462331052609146"><ele>7.5</ele><time>2026-05-02T11:34:48.504Z</time></trkpt><trkpt lat="44.667744085027614" lon="11.46255900536065"><ele>7.0</ele><time>2026-05-02T11:34:49.504Z</time></trkpt><trkpt lat="44.66797943021098" lon="11.462786888002912"><ele>7.0</ele><time>2026-05-02T11:34:50.504Z</time></trkpt><trkpt lat="44.66821527514355" lon="11.46301696536607"><ele>7.0</ele><time>2026-05-02T11:34:51.504Z</time></trkpt><trkpt lat="44.668452352795256" lon="11.463248132173796"><ele>8.0</ele><time>2026-05-02T11:34:52.504Z</time></trkpt><trkpt lat="44.66868682285666" lon="11.463481037094164"><ele>9.0</ele><time>2026-05-02T11:34:53.504Z</time></trkpt><trkpt lat="44.66891904147832" lon="11.463713986534438"><ele>9.0</ele><time>2026-05-02T11:34:54.504Z</time></trkpt><trkpt lat="44.669152082144755" lon="11.463944989592262"><ele>9.0</ele><time>2026-05-02T11:34:55.504Z</time></trkpt><trkpt lat="44.66938513654355" lon="11.464175273616416"><ele>9.0</ele><time>2026-05-02T11:34:56.504Z</time></trkpt><trkpt lat="44.66961828748055" lon="11.464401772409532"><ele>9.0</ele><time>2026-05-02T11:34:57.504Z</time></trkpt><trkpt lat="44.669848585989804" lon="11.464629381216591"><ele>9.0</ele><time>2026-05-02T11:34:58.504Z</time></trkpt><trkpt lat="44.67007833278356" lon="11.464857381480373"><ele>9.0</ele><time>2026-05-02T11:34:59.504Z</time></trkpt><trkpt lat="44.670306050550025" lon="11.46508438573674"><ele>9.0</ele><time>2026-05-02T11:35:00.504Z</time></trkpt><trkpt lat="44.67053030314021" lon="11.465312408133643"><ele>9.0</ele><time>2026-05-02T11:35:01.504Z</time></trkpt><trkpt lat="44.6707533207564" lon="11.465546950270136"><ele>9.0</ele><time>2026-05-02T11:35:02.504Z</time></trkpt><trkpt lat="44.670977634198934" lon="11.465786624659595"><ele>9.0</ele><time>2026-05-02T11:35:03.504Z</time></trkpt><trkpt lat="44.671205709428534" lon="11.466025120619587"><ele>9.0</ele><time>2026-05-02T11:35:04.503Z</time></trkpt><trkpt lat="44.671435357554564" lon="11.466257157337221"><ele>9.0</ele><time>2026-05-02T11:35:05.503Z</time></trkpt><trkpt lat="44.67166890415589" lon="11.466479335228419"><ele>9.0</ele><time>2026-05-02T11:35:06.503Z</time></trkpt><trkpt lat="44.67190106597481" lon="11.466701284059148"><ele>9.0</ele><time>2026-05-02T11:35:07.503Z</time></trkpt><trkpt lat="44.67213280999862" lon="11.466924880145353"><ele>9.0</ele><time>2026-05-02T11:35:08.503Z</time></trkpt><trkpt lat="44.67236460347337" lon="11.467151533943287"><ele>9.0</ele><time>2026-05-02T11:35:09.503Z</time></trkpt><trkpt lat="44.67259692664741" lon="11.467378033298244"><ele>9.0</ele><time>2026-05-02T11:35:10.503Z</time></trkpt><trkpt lat="44.672831234729124" lon="11.467601536914783"><ele>9.0</ele><time>2026-05-02T11:35:11.503Z</time></trkpt><trkpt lat="44.67306436468941" lon="11.467826209834492"><ele>9.0</ele><time>2026-05-02T11:35:12.503Z</time></trkpt><trkpt lat="44.673295077163" lon="11.4680485336908"><ele>9.0</ele><time>2026-05-02T11:35:13.503Z</time></trkpt><trkpt lat="44.67352690112592" lon="11.468267729267708"><ele>9.0</ele><time>2026-05-02T11:35:14.503Z</time></trkpt><trkpt lat="44.67376118132513" lon="11.468480817155754"><ele>9.0</ele><time>2026-05-02T11:35:15.503Z</time></trkpt><trkpt lat="44.67400046624087" lon="11.468690556228738"><ele>8.0</ele><time>2026-05-02T11:35:16.503Z</time></trkpt><trkpt lat="44.67423927901821" lon="11.468898587303828"><ele>7.0</ele><time>2026-05-02T11:35:17.503Z</time></trkpt><trkpt lat="44.674479150693436" lon="11.469099594504222"><ele>7.0</ele><time>2026-05-02T11:35:18.503Z</time></trkpt><trkpt lat="44.67471908107129" lon="11.469302798615798"><ele>7.0</ele><time>2026-05-02T11:35:19.503Z</time></trkpt><trkpt lat="44.67495987555813" lon="11.469504604449963"><ele>7.5</ele><time>2026-05-02T11:35:20.503Z</time></trkpt><trkpt lat="44.67520021796181" lon="11.469709017491477"><ele>8.0</ele><time>2026-05-02T11:35:21.503Z</time></trkpt><trkpt lat="44.67544752514611" lon="11.469908485449613"><ele>8.0</ele><time>2026-05-02T11:35:22.503Z</time></trkpt><trkpt lat="44.67568983670127" lon="11.470110778284758"><ele>8.0</ele><time>2026-05-02T11:35:23.503Z</time></trkpt><trkpt lat="44.675934278336904" lon="11.470311046018914"><ele>9.0</ele><time>2026-05-02T11:35:24.503Z</time></trkpt><trkpt lat="44.676177836117006" lon="11.470507152691605"><ele>10.0</ele><time>2026-05-02T11:35:25.503Z</time></trkpt><trkpt lat="44.67642126932832" lon="11.470699330703034"><ele>10.0</ele><time>2026-05-02T11:35:26.503Z</time></trkpt><trkpt lat="44.67666401760737" lon="11.470891284080261"><ele>10.0</ele><time>2026-05-02T11:35:27.503Z</time></trkpt><trkpt lat="44.67690379672177" lon="11.471084379603763"><ele>9.0</ele><time>2026-05-02T11:35:28.503Z</time></trkpt><trkpt lat="44.67714433702833" lon="11.471275561078196"><ele>8.0</ele><time>2026-05-02T11:35:29.503Z</time></trkpt><trkpt lat="44.677383227008725" lon="11.471468970148099"><ele>8.0</ele><time>2026-05-02T11:35:30.502Z</time></trkpt><trkpt lat="44.67762327159734" lon="11.47166278243661"><ele>8.0</ele><time>2026-05-02T11:35:31.502Z</time></trkpt><trkpt lat="44.67786694559848" lon="11.47185469186292"><ele>9.0</ele><time>2026-05-02T11:35:32.502Z</time></trkpt><trkpt lat="44.67811035158645" lon="11.472049462034295"><ele>10.0</ele><time>2026-05-02T11:35:33.502Z</time></trkpt><trkpt lat="44.6783546426205" lon="11.47224681787288"><ele>8.5</ele><time>2026-05-02T11:35:34.502Z</time></trkpt><trkpt lat="44.67860297527073" lon="11.472441959343392"><ele>7.0</ele><time>2026-05-02T11:35:35.502Z</time></trkpt><trkpt lat="44.6788493838078" lon="11.472644472031723"><ele>7.0</ele><time>2026-05-02T11:35:36.502Z</time></trkpt><trkpt lat="44.67909502161355" lon="11.472848523036404"><ele>7.0</ele><time>2026-05-02T11:35:37.502Z</time></trkpt><trkpt lat="44.67934159488484" lon="11.473051820563507"><ele>5.5</ele><time>2026-05-02T11:35:38.502Z</time></trkpt><trkpt lat="44.6795909655101" lon="11.473253445965938"><ele>4.0</ele><time>2026-05-02T11:35:39.502Z</time></trkpt><trkpt lat="44.67984031660397" lon="11.473453136989999"><ele>4.0</ele><time>2026-05-02T11:35:40.502Z</time></trkpt><trkpt lat="44.680087703924784" lon="11.473648712096157"><ele>4.0</ele><time>2026-05-02T11:35:41.502Z</time></trkpt><trkpt lat="44.68033289902516" lon="11.473847717493712"><ele>6.0</ele><time>2026-05-02T11:35:42.502Z</time></trkpt><trkpt lat="44.68057776413281" lon="11.474048321642865"><ele>8.0</ele><time>2026-05-02T11:35:43.502Z</time></trkpt><trkpt lat="44.68082604309867" lon="11.47425074585287"><ele>8.0</ele><time>2026-05-02T11:35:44.502Z</time></trkpt><trkpt lat="44.681073350014586" lon="11.474453349754677"><ele>8.0</ele><time>2026-05-02T11:35:45.502Z</time></trkpt><trkpt lat="44.68131930900711" lon="11.474651529593265"><ele>8.5</ele><time>2026-05-02T11:35:46.502Z</time></trkpt><trkpt lat="44.68156085017637" lon="11.474845249445863"><ele>9.0</ele><time>2026-05-02T11:35:47.502Z</time></trkpt><trkpt lat="44.68180218237269" lon="11.475034437641996"><ele>6.5</ele><time>2026-05-02T11:35:48.502Z</time></trkpt><trkpt lat="44.682045255378235" lon="11.475226338826184"><ele>4.0</ele><time>2026-05-02T11:35:49.502Z</time></trkpt><trkpt lat="44.682287876169056" lon="11.475421316715659"><ele>4.5</ele><time>2026-05-02T11:35:50.502Z</time></trkpt><trkpt lat="44.68252995217873" lon="11.475609694564351"><ele>5.0</ele><time>2026-05-02T11:35:51.502Z</time></trkpt><trkpt lat="44.68277075996707" lon="11.475797528104437"><ele>5.0</ele><time>2026-05-02T11:35:52.502Z</time></trkpt><trkpt lat="44.68301442692545" lon="11.475992058978834"><ele>5.0</ele><time>2026-05-02T11:35:53.502Z</time></trkpt><trkpt lat="44.683255529192806" lon="11.476185151583275"><ele>5.0</ele><time>2026-05-02T11:35:54.502Z</time></trkpt><trkpt lat="44.683497603753686" lon="11.476383176663356"><ele>5.0</ele><time>2026-05-02T11:35:55.501Z</time></trkpt><trkpt lat="44.68373690740718" lon="11.476576049727504"><ele>5.0</ele><time>2026-05-02T11:35:56.501Z</time></trkpt><trkpt lat="44.6839761814512" lon="11.476770165119603"><ele>5.0</ele><time>2026-05-02T11:35:57.501Z</time></trkpt><trkpt lat="44.68421362038198" lon="11.476962696034066"><ele>6.0</ele><time>2026-05-02T11:35:58.501Z</time></trkpt><trkpt lat="44.68445491952007" lon="11.47715171095144"><ele>7.0</ele><time>2026-05-02T11:35:59.501Z</time></trkpt><trkpt lat="44.684692995547366" lon="11.47734025469662"><ele>7.0</ele><time>2026-05-02T11:36:00.501Z</time></trkpt><trkpt lat="44.68493054911083" lon="11.477527035129095"><ele>7.0</ele><time>2026-05-02T11:36:01.501Z</time></trkpt><trkpt lat="44.68516623464352" lon="11.477715921506661"><ele>8.0</ele><time>2026-05-02T11:36:02.501Z</time></trkpt><trkpt lat="44.68540369568722" lon="11.477909034146926"><ele>9.0</ele><time>2026-05-02T11:36:03.501Z</time></trkpt><trkpt lat="44.685640331310076" lon="11.478102939852821"><ele>9.0</ele><time>2026-05-02T11:36:04.501Z</time></trkpt><trkpt lat="44.685875973870104" lon="11.478298412731025"><ele>9.0</ele><time>2026-05-02T11:36:05.501Z</time></trkpt><trkpt lat="44.68611490054768" lon="11.47848998085145"><ele>8.5</ele><time>2026-05-02T11:36:06.501Z</time></trkpt><trkpt lat="44.68635096855758" lon="11.478684792990146"><ele>8.0</ele><time>2026-05-02T11:36:07.501Z</time></trkpt><trkpt lat="44.68658973020022" lon="11.478879670156077"><ele>7.5</ele><time>2026-05-02T11:36:08.501Z</time></trkpt><trkpt lat="44.686828903191326" lon="11.479078037669089"><ele>7.0</ele><time>2026-05-02T11:36:09.501Z</time></trkpt><trkpt lat="44.68706996147755" lon="11.479273262937307"><ele>7.0</ele><time>2026-05-02T11:36:10.501Z</time></trkpt><trkpt lat="44.687310464421024" lon="11.47946642668275"><ele>7.0</ele><time>2026-05-02T11:36:11.501Z</time></trkpt><trkpt lat="44.68755439110216" lon="11.479658246783755"><ele>7.0</ele><time>2026-05-02T11:36:12.501Z</time></trkpt><trkpt lat="44.687797272392956" lon="11.479855175015796"><ele>7.0</ele><time>2026-05-02T11:36:13.501Z</time></trkpt><trkpt lat="44.688045147830444" lon="11.480054810429856"><ele>7.0</ele><time>2026-05-02T11:36:14.501Z</time></trkpt><trkpt lat="44.68829047970232" lon="11.480248754715488"><ele>7.0</ele><time>2026-05-02T11:36:15.501Z</time></trkpt><trkpt lat="44.688534459519424" lon="11.48044169520824"><ele>6.0</ele><time>2026-05-02T11:36:16.501Z</time></trkpt><trkpt lat="44.68877697399609" lon="11.480631818218649"><ele>5.0</ele><time>2026-05-02T11:36:17.501Z</time></trkpt><trkpt lat="44.689020578505804" lon="11.480823445660674"><ele>5.0</ele><time>2026-05-02T11:36:18.501Z</time></trkpt><trkpt lat="44.689259481364594" lon="11.48101652259327"><ele>5.0</ele><time>2026-05-02T11:36:19.501Z</time></trkpt><trkpt lat="44.689496816999494" lon="11.48121047449451"><ele>5.0</ele><time>2026-05-02T11:36:20.501Z</time></trkpt><trkpt lat="44.68973502990387" lon="11.48140563132553"><ele>5.0</ele><time>2026-05-02T11:36:21.5Z</time></trkpt><trkpt lat="44.68997314070396" lon="11.48160098205907"><ele>5.0</ele><time>2026-05-02T11:36:22.5Z</time></trkpt><trkpt lat="44.69020736378101" lon="11.48179755957361"><ele>5.0</ele><time>2026-05-02T11:36:23.5Z</time></trkpt><trkpt lat="44.690442690989684" lon="11.481991176170343"><ele>5.0</ele><time>2026-05-02T11:36:24.5Z</time></trkpt><trkpt lat="44.69067963565607" lon="11.482181436979003"><ele>5.0</ele><time>2026-05-02T11:36:25.5Z</time></trkpt><trkpt lat="44.69091855534974" lon="11.482370432634722"><ele>5.5</ele><time>2026-05-02T11:36:26.5Z</time></trkpt><trkpt lat="44.69115833971931" lon="11.482560415728502"><ele>6.0</ele><time>2026-05-02T11:36:27.5Z</time></trkpt><trkpt lat="44.69139788922273" lon="11.482750201349983"><ele>6.5</ele><time>2026-05-02T11:36:28.5Z</time></trkpt><trkpt lat="44.69163717394332" lon="11.482942849438622"><ele>7.0</ele><time>2026-05-02T11:36:29.5Z</time></trkpt><trkpt lat="44.69187584844698" lon="11.483136454011357"><ele>7.0</ele><time>2026-05-02T11:36:30.5Z</time></trkpt><trkpt lat="44.69211682813071" lon="11.483329159292254"><ele>7.0</ele><time>2026-05-02T11:36:31.5Z</time></trkpt><trkpt lat="44.692359278261264" lon="11.483523200987145"><ele>7.0</ele><time>2026-05-02T11:36:32.5Z</time></trkpt><trkpt lat="44.69259754749271" lon="11.483717036911862"><ele>7.0</ele><time>2026-05-02T11:36:33.5Z</time></trkpt><trkpt lat="44.69283829773483" lon="11.483906693666572"><ele>7.5</ele><time>2026-05-02T11:36:34.502Z</time></trkpt><trkpt lat="44.69307598263182" lon="11.484094267178447"><ele>8.0</ele><time>2026-05-02T11:36:35.501Z</time></trkpt><trkpt lat="44.69331286924801" lon="11.484283593289744"><ele>8.0</ele><time>2026-05-02T11:36:36.501Z</time></trkpt><trkpt lat="44.693550422972685" lon="11.484476676186162"><ele>8.0</ele><time>2026-05-02T11:36:37.501Z</time></trkpt><trkpt lat="44.69379485808454" lon="11.484669373978473"><ele>8.5</ele><time>2026-05-02T11:36:38.502Z</time></trkpt><trkpt lat="44.694040175252766" lon="11.484862027290626"><ele>9.0</ele><time>2026-05-02T11:36:39.502Z</time></trkpt><trkpt lat="44.69427882321345" lon="11.485061990868768"><ele>9.0</ele><time>2026-05-02T11:36:40.502Z</time></trkpt><trkpt lat="44.69452066378278" lon="11.485259323115686"><ele>9.0</ele><time>2026-05-02T11:36:41.502Z</time></trkpt><trkpt lat="44.694759296459324" lon="11.485451228753956"><ele>9.0</ele><time>2026-05-02T11:36:42.502Z</time></trkpt><trkpt lat="44.694994426977296" lon="11.485642409065115"><ele>9.0</ele><time>2026-05-02T11:36:43.501Z</time></trkpt><trkpt lat="44.69522964497699" lon="11.485832053316363"><ele>9.0</ele><time>2026-05-02T11:36:44.501Z</time></trkpt><trkpt lat="44.69546635421223" lon="11.486016944863197"><ele>9.0</ele><time>2026-05-02T11:36:45.501Z</time></trkpt><trkpt lat="44.695704048482995" lon="11.486203773566455"><ele>10.0</ele><time>2026-05-02T11:36:46.501Z</time></trkpt><trkpt lat="44.695940199774334" lon="11.486394552458895"><ele>11.0</ele><time>2026-05-02T11:36:47.502Z</time></trkpt><trkpt lat="44.69617865531185" lon="11.486586807209903"><ele>11.0</ele><time>2026-05-02T11:36:48.502Z</time></trkpt><trkpt lat="44.69641964129448" lon="11.486783667199367"><ele>11.0</ele><time>2026-05-02T11:36:49.502Z</time></trkpt><trkpt lat="44.696659229487956" lon="11.48697802179651"><ele>10.5</ele><time>2026-05-02T11:36:50.502Z</time></trkpt><trkpt lat="44.6968988709078" lon="11.487170540237049"><ele>10.0</ele><time>2026-05-02T11:36:51.501Z</time></trkpt><trkpt lat="44.69713999433598" lon="11.48735987853328"><ele>9.5</ele><time>2026-05-02T11:36:52.501Z</time></trkpt><trkpt lat="44.69737680856875" lon="11.487550722904878"><ele>9.0</ele><time>2026-05-02T11:36:53.501Z</time></trkpt><trkpt lat="44.697613568308974" lon="11.48773785487418"><ele>9.5</ele><time>2026-05-02T11:36:54.501Z</time></trkpt><trkpt lat="44.697849509395695" lon="11.487926684024938"><ele>10.0</ele><time>2026-05-02T11:36:55.501Z</time></trkpt><trkpt lat="44.69808294906734" lon="11.488115678027128"><ele>10.0</ele><time>2026-05-02T11:36:56.501Z</time></trkpt><trkpt lat="44.69831067709906" lon="11.4883091394896"><ele>10.0</ele><time>2026-05-02T11:36:57.501Z</time></trkpt><trkpt lat="44.6985424599089" lon="11.488507984536891"><ele>9.5</ele><time>2026-05-02T11:36:58.501Z</time></trkpt><trkpt lat="44.69879688782511" lon="11.488697840859283"><ele>9.0</ele><time>2026-05-02T11:36:59.501Z</time></trkpt><trkpt lat="44.69904842293849" lon="11.488890510729322"><ele>9.0</ele><time>2026-05-02T11:37:00.501Z</time></trkpt><trkpt lat="44.699286662071955" lon="11.489086925526706"><ele>9.0</ele><time>2026-05-02T11:37:01.501Z</time></trkpt><trkpt lat="44.6995328453672" lon="11.489283483161193"><ele>9.0</ele><time>2026-05-02T11:37:02.501Z</time></trkpt><trkpt lat="44.69977966298343" lon="11.489479302569894"><ele>9.0</ele><time>2026-05-02T11:37:03.501Z</time></trkpt><trkpt lat="44.70002126377199" lon="11.489678103596727"><ele>8.0</ele><time>2026-05-02T11:37:04.501Z</time></trkpt><trkpt lat="44.700257461059316" lon="11.489871379183906"><ele>7.0</ele><time>2026-05-02T11:37:05.501Z</time></trkpt><trkpt lat="44.70049426504833" lon="11.49006341133177"><ele>7.0</ele><time>2026-05-02T11:37:06.501Z</time></trkpt><trkpt lat="44.70073128741349" lon="11.490254162992754"><ele>7.0</ele><time>2026-05-02T11:37:07.501Z</time></trkpt><trkpt lat="44.70096805885376" lon="11.490444079377884"><ele>7.5</ele><time>2026-05-02T11:37:08.501Z</time></trkpt><trkpt lat="44.7012040867142" lon="11.49063388170211"><ele>8.0</ele><time>2026-05-02T11:37:09.501Z</time></trkpt><trkpt lat="44.70144139486963" lon="11.490824518646923"><ele>8.0</ele><time>2026-05-02T11:37:10.501Z</time></trkpt><trkpt lat="44.70168054344776" lon="11.491017962936203"><ele>8.0</ele><time>2026-05-02T11:37:11.501Z</time></trkpt><trkpt lat="44.7019208493234" lon="11.491212662145172"><ele>8.0</ele><time>2026-05-02T11:37:12.501Z</time></trkpt><trkpt lat="44.70216313031097" lon="11.491406410510786"><ele>8.0</ele><time>2026-05-02T11:37:13.501Z</time></trkpt><trkpt lat="44.70240566136799" lon="11.49160253043132"><ele>8.0</ele><time>2026-05-02T11:37:14.501Z</time></trkpt><trkpt lat="44.702646205878146" lon="11.491798518146972"><ele>8.0</ele><time>2026-05-02T11:37:15.501Z</time></trkpt><trkpt lat="44.702887024847456" lon="11.491992890711659"><ele>9.0</ele><time>2026-05-02T11:37:16.5Z</time></trkpt><trkpt lat="44.70312698431791" lon="11.492188189843878"><ele>10.0</ele><time>2026-05-02T11:37:17.5Z</time></trkpt><trkpt lat="44.703366278243216" lon="11.492378152400358"><ele>9.0</ele><time>2026-05-02T11:37:18.5Z</time></trkpt><trkpt lat="44.70360444799623" lon="11.492569812118884"><ele>8.0</ele><time>2026-05-02T11:37:19.5Z</time></trkpt><trkpt lat="44.70384227439118" lon="11.492758962942252"><ele>9.0</ele><time>2026-05-02T11:37:20.5Z</time></trkpt><trkpt lat="44.70408210974838" lon="11.49294690527903"><ele>10.0</ele><time>2026-05-02T11:37:21.5Z</time></trkpt><trkpt lat="44.70432109552348" lon="11.493139462876435"><ele>10.0</ele><time>2026-05-02T11:37:22.5Z</time></trkpt><trkpt lat="44.704557712218204" lon="11.493335514621444"><ele>10.0</ele><time>2026-05-02T11:37:23.5Z</time></trkpt><trkpt lat="44.70479508433299" lon="11.493528255121197"><ele>10.0</ele><time>2026-05-02T11:37:24.5Z</time></trkpt><trkpt lat="44.70503092260117" lon="11.493719321275378"><ele>10.0</ele><time>2026-05-02T11:37:25.5Z</time></trkpt><trkpt lat="44.705271362342344" lon="11.493913801776355"><ele>8.5</ele><time>2026-05-02T11:37:26.5Z</time></trkpt><trkpt lat="44.705514386825556" lon="11.494102989816627"><ele>7.0</ele><time>2026-05-02T11:37:27.5Z</time></trkpt><trkpt lat="44.70575830760646" lon="11.494294729048372"><ele>7.0</ele><time>2026-05-02T11:37:28.5Z</time></trkpt><trkpt lat="44.70599742441139" lon="11.494489735155636"><ele>7.0</ele><time>2026-05-02T11:37:29.5Z</time></trkpt><trkpt lat="44.70623635816712" lon="11.4946847543545"><ele>6.5</ele><time>2026-05-02T11:37:30.5Z</time></trkpt><trkpt lat="44.70647757780072" lon="11.494878611216757"><ele>6.0</ele><time>2026-05-02T11:37:31.5Z</time></trkpt><trkpt lat="44.70671569235651" lon="11.495073551917152"><ele>6.0</ele><time>2026-05-02T11:37:32.5Z</time></trkpt><trkpt lat="44.706953717902124" lon="11.495266038222379"><ele>6.0</ele><time>2026-05-02T11:37:33.5Z</time></trkpt><trkpt lat="44.70719256777386" lon="11.495455578239774"><ele>6.0</ele><time>2026-05-02T11:37:34.5Z</time></trkpt><trkpt lat="44.707431048197876" lon="11.49564707991906"><ele>6.0</ele><time>2026-05-02T11:37:35.5Z</time></trkpt><trkpt lat="44.70767116615267" lon="11.495838367221676"><ele>6.5</ele><time>2026-05-02T11:37:36.5Z</time></trkpt><trkpt lat="44.70791335738537" lon="11.496029259825681"><ele>7.0</ele><time>2026-05-02T11:37:37.5Z</time></trkpt><trkpt lat="44.708154768588244" lon="11.496224312073135"><ele>6.5</ele><time>2026-05-02T11:37:38.5Z</time></trkpt><trkpt lat="44.70839586727265" lon="11.49641989028246"><ele>6.0</ele><time>2026-05-02T11:37:39.5Z</time></trkpt><trkpt lat="44.708634181957656" lon="11.496615661443823"><ele>6.0</ele><time>2026-05-02T11:37:40.5Z</time></trkpt><trkpt lat="44.70887290626203" lon="11.496809447750758"><ele>6.0</ele><time>2026-05-02T11:37:41.499Z</time></trkpt><trkpt lat="44.70911176871871" lon="11.49700227735871"><ele>6.5</ele><time>2026-05-02T11:37:42.499Z</time></trkpt><trkpt lat="44.709348901339325" lon="11.497190946508368"><ele>7.0</ele><time>2026-05-02T11:37:43.499Z</time></trkpt><trkpt lat="44.70958658205129" lon="11.497379539607726"><ele>6.0</ele><time>2026-05-02T11:37:44.499Z</time></trkpt><trkpt lat="44.70982119202493" lon="11.49756999737801"><ele>5.0</ele><time>2026-05-02T11:37:45.499Z</time></trkpt><trkpt lat="44.710056936041546" lon="11.497759255753587"><ele>6.5</ele><time>2026-05-02T11:37:46.499Z</time></trkpt><trkpt lat="44.710291700431874" lon="11.497949477310517"><ele>8.0</ele><time>2026-05-02T11:37:47.499Z</time></trkpt><trkpt lat="44.7105266807206" lon="11.498140324695157"><ele>8.0</ele><time>2026-05-02T11:37:48.499Z</time></trkpt><trkpt lat="44.71075805835647" lon="11.498330646950151"><ele>8.0</ele><time>2026-05-02T11:37:49.499Z</time></trkpt><trkpt lat="44.710991678383415" lon="11.498520819518903"><ele>7.5</ele><time>2026-05-02T11:37:50.499Z</time></trkpt><trkpt lat="44.71122894475406" lon="11.498715197749968"><ele>7.0</ele><time>2026-05-02T11:37:51.499Z</time></trkpt><trkpt lat="44.71146706650141" lon="11.498908636006815"><ele>7.0</ele><time>2026-05-02T11:37:52.499Z</time></trkpt><trkpt lat="44.711708544416" lon="11.499100002640995"><ele>7.0</ele><time>2026-05-02T11:37:53.499Z</time></trkpt><trkpt lat="44.71195315025845" lon="11.499291389728008"><ele>6.5</ele><time>2026-05-02T11:37:54.499Z</time></trkpt><trkpt lat="44.712194884955665" lon="11.499488640968364"><ele>6.0</ele><time>2026-05-02T11:37:55.499Z</time></trkpt><trkpt lat="44.71243547813139" lon="11.499682871332606"><ele>6.0</ele><time>2026-05-02T11:37:56.499Z</time></trkpt><trkpt lat="44.71267633088308" lon="11.499879608606506"><ele>6.0</ele><time>2026-05-02T11:37:57.499Z</time></trkpt><trkpt lat="44.71291545535759" lon="11.500073422063217"><ele>6.5</ele><time>2026-05-02T11:37:58.499Z</time></trkpt><trkpt lat="44.71315307858403" lon="11.500266681531464"><ele>7.0</ele><time>2026-05-02T11:37:59.499Z</time></trkpt><trkpt lat="44.7133904014334" lon="11.500455745167322"><ele>7.0</ele><time>2026-05-02T11:38:00.499Z</time></trkpt><trkpt lat="44.71362922840517" lon="11.500647999046562"><ele>7.0</ele><time>2026-05-02T11:38:01.499Z</time></trkpt><trkpt lat="44.71386401188636" lon="11.500837539317285"><ele>7.0</ele><time>2026-05-02T11:38:02.499Z</time></trkpt><trkpt lat="44.71409817710937" lon="11.501023988014182"><ele>7.0</ele><time>2026-05-02T11:38:03.499Z</time></trkpt><trkpt lat="44.714336093285915" lon="11.501211154813973"><ele>8.5</ele><time>2026-05-02T11:38:04.499Z</time></trkpt><trkpt lat="44.7145758837064" lon="11.50139780170851"><ele>10.0</ele><time>2026-05-02T11:38:05.499Z</time></trkpt><trkpt lat="44.71481301510537" lon="11.501589609429237"><ele>10.0</ele><time>2026-05-02T11:38:06.499Z</time></trkpt><trkpt lat="44.71505138926586" lon="11.501782197860662"><ele>10.0</ele><time>2026-05-02T11:38:07.498Z</time></trkpt><trkpt lat="44.71529029844406" lon="11.501975038341858"><ele>8.5</ele><time>2026-05-02T11:38:08.498Z</time></trkpt><trkpt lat="44.71552538237522" lon="11.50216951655492"><ele>7.0</ele><time>2026-05-02T11:38:09.498Z</time></trkpt><trkpt lat="44.715761800171755" lon="11.502360824159332"><ele>7.0</ele><time>2026-05-02T11:38:10.498Z</time></trkpt><trkpt lat="44.716002550995384" lon="11.502551705515707"><ele>7.0</ele><time>2026-05-02T11:38:11.498Z</time></trkpt><trkpt lat="44.71624525153597" lon="11.502743302559484"><ele>6.5</ele><time>2026-05-02T11:38:12.498Z</time></trkpt><trkpt lat="44.71648445221939" lon="11.502933757751077"><ele>6.0</ele><time>2026-05-02T11:38:13.498Z</time></trkpt><trkpt lat="44.71672469420876" lon="11.50312694409613"><ele>5.5</ele><time>2026-05-02T11:38:14.498Z</time></trkpt><trkpt lat="44.71696502941421" lon="11.503321830519601"><ele>5.0</ele><time>2026-05-02T11:38:15.498Z</time></trkpt><trkpt lat="44.71720364663578" lon="11.503515406588239"><ele>5.0</ele><time>2026-05-02T11:38:16.498Z</time></trkpt><trkpt lat="44.7174403990484" lon="11.503709116753576"><ele>5.0</ele><time>2026-05-02T11:38:17.498Z</time></trkpt><trkpt lat="44.717677552546526" lon="11.503901653900016"><ele>6.0</ele><time>2026-05-02T11:38:18.498Z</time></trkpt><trkpt lat="44.71791452630158" lon="11.504093873540382"><ele>7.0</ele><time>2026-05-02T11:38:19.498Z</time></trkpt><trkpt lat="44.718149422242995" lon="11.504284439556601"><ele>7.0</ele><time>2026-05-02T11:38:20.498Z</time></trkpt><trkpt lat="44.71838635715848" lon="11.504476975826671"><ele>7.0</ele><time>2026-05-02T11:38:21.498Z</time></trkpt><trkpt lat="44.718625198874236" lon="11.504669909835629"><ele>6.5</ele><time>2026-05-02T11:38:22.498Z</time></trkpt><trkpt lat="44.71886123148768" lon="11.504861001595522"><ele>6.0</ele><time>2026-05-02T11:38:23.498Z</time></trkpt><trkpt lat="44.719099663867006" lon="11.505046140657722"><ele>6.0</ele><time>2026-05-02T11:38:24.498Z</time></trkpt><trkpt lat="44.719339226915785" lon="11.505234774306976"><ele>6.0</ele><time>2026-05-02T11:38:25.498Z</time></trkpt><trkpt lat="44.71957390159011" lon="11.505429651735012"><ele>6.5</ele><time>2026-05-02T11:38:26.498Z</time></trkpt><trkpt lat="44.71981276203469" lon="11.505621368576607"><ele>7.0</ele><time>2026-05-02T11:38:27.498Z</time></trkpt><trkpt lat="44.720052143080245" lon="11.505813708584004"><ele>7.5</ele><time>2026-05-02T11:38:28.498Z</time></trkpt><trkpt lat="44.72028899954433" lon="11.506006972888208"><ele>8.0</ele><time>2026-05-02T11:38:29.498Z</time></trkpt><trkpt lat="44.7205263201374" lon="11.50620036364023"><ele>8.0</ele><time>2026-05-02T11:38:30.498Z</time></trkpt><trkpt lat="44.720763524525864" lon="11.50639578990548"><ele>8.0</ele><time>2026-05-02T11:38:31.498Z</time></trkpt><trkpt lat="44.72100286336874" lon="11.506588984046324"><ele>8.0</ele><time>2026-05-02T11:38:32.497Z</time></trkpt><trkpt lat="44.72123862864086" lon="11.506782093329504"><ele>8.0</ele><time>2026-05-02T11:38:33.497Z</time></trkpt><trkpt lat="44.72147661954473" lon="11.506972269471746"><ele>8.0</ele><time>2026-05-02T11:38:34.497Z</time></trkpt><trkpt lat="44.72171538505114" lon="11.507161265145315"><ele>8.0</ele><time>2026-05-02T11:38:35.497Z</time></trkpt><trkpt lat="44.72195555147004" lon="11.507349855741614"><ele>8.0</ele><time>2026-05-02T11:38:36.497Z</time></trkpt><trkpt lat="44.722188462657144" lon="11.50754028374286"><ele>8.0</ele><time>2026-05-02T11:38:37.497Z</time></trkpt><trkpt lat="44.72242267190934" lon="11.507728417277344"><ele>8.0</ele><time>2026-05-02T11:38:38.497Z</time></trkpt><trkpt lat="44.722657982188636" lon="11.50791539141799"><ele>8.0</ele><time>2026-05-02T11:38:39.497Z</time></trkpt><trkpt lat="44.72289624038128" lon="11.508102001108108"><ele>8.0</ele><time>2026-05-02T11:38:40.498Z</time></trkpt><trkpt lat="44.723133134361056" lon="11.508289907708559"><ele>8.0</ele><time>2026-05-02T11:38:41.498Z</time></trkpt><trkpt lat="44.72337017524223" lon="11.508480658969775"><ele>8.0</ele><time>2026-05-02T11:38:42.498Z</time></trkpt><trkpt lat="44.72360775176704" lon="11.508670936417923"><ele>8.0</ele><time>2026-05-02T11:38:43.498Z</time></trkpt><trkpt lat="44.72384451423894" lon="11.508861551046374"><ele>8.0</ele><time>2026-05-02T11:38:44.498Z</time></trkpt><trkpt lat="44.72408129720878" lon="11.509050504628657"><ele>8.0</ele><time>2026-05-02T11:38:45.498Z</time></trkpt><trkpt lat="44.724321380148716" lon="11.509241106517107"><ele>8.0</ele><time>2026-05-02T11:38:46.499Z</time></trkpt><trkpt lat="44.7245560649793" lon="11.509431868620556"><ele>8.0</ele><time>2026-05-02T11:38:47.498Z</time></trkpt><trkpt lat="44.72478778259257" lon="11.509621159320055"><ele>8.0</ele><time>2026-05-02T11:38:48.498Z</time></trkpt><trkpt lat="44.725022020850396" lon="11.50980818839783"><ele>8.0</ele><time>2026-05-02T11:38:49.498Z</time></trkpt><trkpt lat="44.72525104860781" lon="11.509997532178112"><ele>8.5</ele><time>2026-05-02T11:38:50.497Z</time></trkpt><trkpt lat="44.72548367704153" lon="11.510182236032563"><ele>9.0</ele><time>2026-05-02T11:38:51.497Z</time></trkpt><trkpt lat="44.72571539957804" lon="11.510369195383744"><ele>9.0</ele><time>2026-05-02T11:38:52.498Z</time></trkpt><trkpt lat="44.725945620576624" lon="11.510560861330974"><ele>9.0</ele><time>2026-05-02T11:38:53.498Z</time></trkpt><trkpt lat="44.72617800885343" lon="11.51074822186878"><ele>9.0</ele><time>2026-05-02T11:38:54.498Z</time></trkpt><trkpt lat="44.726408091108155" lon="11.510935745025705"><ele>9.0</ele><time>2026-05-02T11:38:55.498Z</time></trkpt><trkpt lat="44.72664160746494" lon="11.511122426305455"><ele>9.0</ele><time>2026-05-02T11:38:56.498Z</time></trkpt><trkpt lat="44.726873411739255" lon="11.511308651034534"><ele>9.0</ele><time>2026-05-02T11:38:57.498Z</time></trkpt><trkpt lat="44.727105987165054" lon="11.511497314953976"><ele>8.5</ele><time>2026-05-02T11:38:58.498Z</time></trkpt><trkpt lat="44.72733632152256" lon="11.511687494584805"><ele>8.0</ele><time>2026-05-02T11:38:59.498Z</time></trkpt><trkpt lat="44.72756974062575" lon="11.511870587064754"><ele>8.0</ele><time>2026-05-02T11:39:00.498Z</time></trkpt><trkpt lat="44.72780969103155" lon="11.512059655182616"><ele>8.0</ele><time>2026-05-02T11:39:01.498Z</time></trkpt><trkpt lat="44.728048686521845" lon="11.512254262989737"><ele>8.5</ele><time>2026-05-02T11:39:02.498Z</time></trkpt><trkpt lat="44.72828583853639" lon="11.51244626470599"><ele>9.0</ele><time>2026-05-02T11:39:03.498Z</time></trkpt><trkpt lat="44.72852622101396" lon="11.51263547037264"><ele>8.5</ele><time>2026-05-02T11:39:04.498Z</time></trkpt><trkpt lat="44.728762515281176" lon="11.512828013644029"><ele>8.0</ele><time>2026-05-02T11:39:05.498Z</time></trkpt><trkpt lat="44.728999718820944" lon="11.513016467426878"><ele>8.0</ele><time>2026-05-02T11:39:06.498Z</time></trkpt><trkpt lat="44.72923886108375" lon="11.513206864379564"><ele>8.0</ele><time>2026-05-02T11:39:07.498Z</time></trkpt><trkpt lat="44.72947648110689" lon="11.513392917281482"><ele>8.0</ele><time>2026-05-02T11:39:08.498Z</time></trkpt><trkpt lat="44.72971237599096" lon="11.513581230977525"><ele>8.0</ele><time>2026-05-02T11:39:09.497Z</time></trkpt><trkpt lat="44.72995196065928" lon="11.513766993009957"><ele>9.0</ele><time>2026-05-02T11:39:10.497Z</time></trkpt><trkpt lat="44.730182551689694" lon="11.513956455407365"><ele>10.0</ele><time>2026-05-02T11:39:11.497Z</time></trkpt><trkpt lat="44.73041605799476" lon="11.51414319298211"><ele>10.0</ele><time>2026-05-02T11:39:12.497Z</time></trkpt><trkpt lat="44.73065045007212" lon="11.514328092239294"><ele>10.0</ele><time>2026-05-02T11:39:13.497Z</time></trkpt><trkpt lat="44.73088332757574" lon="11.514525996611678"><ele>10.0</ele><time>2026-05-02T11:39:14.497Z</time></trkpt><trkpt lat="44.73111241273418" lon="11.51472383865496"><ele>10.0</ele><time>2026-05-02T11:39:15.497Z</time></trkpt><trkpt lat="44.7313463668162" lon="11.514919091967856"><ele>10.0</ele><time>2026-05-02T11:39:16.497Z</time></trkpt><trkpt lat="44.73157910948345" lon="11.515105577070731"><ele>10.0</ele><time>2026-05-02T11:39:17.497Z</time></trkpt><trkpt lat="44.731818141011594" lon="11.515294387903145"><ele>11.0</ele><time>2026-05-02T11:39:18.497Z</time></trkpt><trkpt lat="44.732056252653" lon="11.515484371346773"><ele>12.0</ele><time>2026-05-02T11:39:19.497Z</time></trkpt><trkpt lat="44.73229500480721" lon="11.515674446621773"><ele>12.0</ele><time>2026-05-02T11:39:20.497Z</time></trkpt><trkpt lat="44.73253541382025" lon="11.515869475057857"><ele>12.0</ele><time>2026-05-02T11:39:21.497Z</time></trkpt><trkpt lat="44.73277308564539" lon="11.516060482524388"><ele>12.0</ele><time>2026-05-02T11:39:22.497Z</time></trkpt><trkpt lat="44.73300791243084" lon="11.5162482061344"><ele>12.0</ele><time>2026-05-02T11:39:23.497Z</time></trkpt><trkpt lat="44.73324326510006" lon="11.516436405818437"><ele>12.0</ele><time>2026-05-02T11:39:24.497Z</time></trkpt><trkpt lat="44.73347433906337" lon="11.516627120090323"><ele>12.0</ele><time>2026-05-02T11:39:25.497Z</time></trkpt><trkpt lat="44.733711282950566" lon="11.516816314803481"><ele>12.0</ele><time>2026-05-02T11:39:26.497Z</time></trkpt><trkpt lat="44.73394673652357" lon="11.517005926554466"><ele>12.0</ele><time>2026-05-02T11:39:27.497Z</time></trkpt><trkpt lat="44.73418600718977" lon="11.517194951764461"><ele>13.0</ele><time>2026-05-02T11:39:28.497Z</time></trkpt><trkpt lat="44.734424021950225" lon="11.517386030578315"><ele>14.0</ele><time>2026-05-02T11:39:29.497Z</time></trkpt><trkpt lat="44.73466332276847" lon="11.517585026351783"><ele>14.0</ele><time>2026-05-02T11:39:30.497Z</time></trkpt><trkpt lat="44.73490362280123" lon="11.517776338539349"><ele>14.0</ele><time>2026-05-02T11:39:31.497Z</time></trkpt><trkpt lat="44.735143071954795" lon="11.517963937994809"><ele>12.5</ele><time>2026-05-02T11:39:32.497Z</time></trkpt><trkpt lat="44.73538667651696" lon="11.518146487230553"><ele>11.0</ele><time>2026-05-02T11:39:33.497Z</time></trkpt><trkpt lat="44.735630872269056" lon="11.518332072698664"><ele>11.0</ele><time>2026-05-02T11:39:34.497Z</time></trkpt><trkpt lat="44.73587328118961" lon="11.518521064084913"><ele>11.0</ele><time>2026-05-02T11:39:35.496Z</time></trkpt><trkpt lat="44.73611528021064" lon="11.518716142281821"><ele>11.0</ele><time>2026-05-02T11:39:36.496Z</time></trkpt><trkpt lat="44.736357195730314" lon="11.518909504271022"><ele>11.0</ele><time>2026-05-02T11:39:37.496Z</time></trkpt><trkpt lat="44.736599825202184" lon="11.51910279384373"><ele>11.0</ele><time>2026-05-02T11:39:38.496Z</time></trkpt><trkpt lat="44.736842152713294" lon="11.519294245859449"><ele>11.0</ele><time>2026-05-02T11:39:39.496Z</time></trkpt><trkpt lat="44.73708401607368" lon="11.519483674901846"><ele>10.5</ele><time>2026-05-02T11:39:40.496Z</time></trkpt><trkpt lat="44.73732142938605" lon="11.519677388514014"><ele>10.0</ele><time>2026-05-02T11:39:41.496Z</time></trkpt><trkpt lat="44.73756002444233" lon="11.519877671982714"><ele>9.0</ele><time>2026-05-02T11:39:42.496Z</time></trkpt><trkpt lat="44.73779705344104" lon="11.520084078391921"><ele>8.0</ele><time>2026-05-02T11:39:43.496Z</time></trkpt><trkpt lat="44.73803451389869" lon="11.520286385072765"><ele>8.0</ele><time>2026-05-02T11:39:44.496Z</time></trkpt><trkpt lat="44.738271477522964" lon="11.520485135321668"><ele>8.0</ele><time>2026-05-02T11:39:45.496Z</time></trkpt><trkpt lat="44.73850830367783" lon="11.520681514648523"><ele>7.5</ele><time>2026-05-02T11:39:46.496Z</time></trkpt><trkpt lat="44.73874913022105" lon="11.520873960839642"><ele>7.0</ele><time>2026-05-02T11:39:47.496Z</time></trkpt><trkpt lat="44.7389970403658" lon="11.521065293935171"><ele>7.0</ele><time>2026-05-02T11:39:48.496Z</time></trkpt><trkpt lat="44.73923945993773" lon="11.521258647409306"><ele>7.0</ele><time>2026-05-02T11:39:49.496Z</time></trkpt><trkpt lat="44.739480522713805" lon="11.521456930062836"><ele>7.5</ele><time>2026-05-02T11:39:50.496Z</time></trkpt><trkpt lat="44.73972029366139" lon="11.5216532854862"><ele>8.0</ele><time>2026-05-02T11:39:51.496Z</time></trkpt><trkpt lat="44.739959386941" lon="11.521848369488241"><ele>8.0</ele><time>2026-05-02T11:39:52.496Z</time></trkpt><trkpt lat="44.74019648915281" lon="11.522045013806183"><ele>8.0</ele><time>2026-05-02T11:39:53.496Z</time></trkpt><trkpt lat="44.74043178369692" lon="11.522235405489969"><ele>8.0</ele><time>2026-05-02T11:39:54.496Z</time></trkpt><trkpt lat="44.74066946329361" lon="11.522421403915464"><ele>8.0</ele><time>2026-05-02T11:39:55.496Z</time></trkpt><trkpt lat="44.74090479305638" lon="11.522613883477641"><ele>8.0</ele><time>2026-05-02T11:39:56.496Z</time></trkpt><trkpt lat="44.741134603520194" lon="11.522803956671956"><ele>8.0</ele><time>2026-05-02T11:39:57.496Z</time></trkpt><trkpt lat="44.74136364142559" lon="11.522986697436378"><ele>8.5</ele><time>2026-05-02T11:39:58.496Z</time></trkpt><trkpt lat="44.74158634711849" lon="11.523173484844943"><ele>9.0</ele><time>2026-05-02T11:39:59.496Z</time></trkpt><trkpt lat="44.7418052726994" lon="11.523356470154981"><ele>8.0</ele><time>2026-05-02T11:40:00.495Z</time></trkpt><trkpt lat="44.74202387203311" lon="11.523527030999958"><ele>7.0</ele><time>2026-05-02T11:40:01.495Z</time></trkpt><trkpt lat="44.74225195855017" lon="11.523706220624153"><ele>7.0</ele><time>2026-05-02T11:40:02.495Z</time></trkpt><trkpt lat="44.74247582160528" lon="11.523888789381436"><ele>7.0</ele><time>2026-05-02T11:40:03.495Z</time></trkpt><trkpt lat="44.7427091676881" lon="11.524059070853891"><ele>7.0</ele><time>2026-05-02T11:40:04.495Z</time></trkpt><trkpt lat="44.742949122815695" lon="11.524230024033136"><ele>7.0</ele><time>2026-05-02T11:40:05.495Z</time></trkpt><trkpt lat="44.74319497406918" lon="11.524413065986183"><ele>7.5</ele><time>2026-05-02T11:40:06.495Z</time></trkpt><trkpt lat="44.74343625801133" lon="11.524605630987473"><ele>8.0</ele><time>2026-05-02T11:40:07.495Z</time></trkpt><trkpt lat="44.743678118007224" lon="11.524803962074646"><ele>8.5</ele><time>2026-05-02T11:40:08.495Z</time></trkpt><trkpt lat="44.743922149285126" lon="11.524997431265671"><ele>9.0</ele><time>2026-05-02T11:40:09.495Z</time></trkpt><trkpt lat="44.744162935033266" lon="11.525191622095267"><ele>7.0</ele><time>2026-05-02T11:40:10.495Z</time></trkpt><trkpt lat="44.74440699572936" lon="11.525380601034886"><ele>5.0</ele><time>2026-05-02T11:40:11.495Z</time></trkpt><trkpt lat="44.74465386360316" lon="11.525565592514614"><ele>5.0</ele><time>2026-05-02T11:40:12.495Z</time></trkpt><trkpt lat="44.74490277363087" lon="11.52574829058384"><ele>5.0</ele><time>2026-05-02T11:40:13.495Z</time></trkpt><trkpt lat="44.74515634338185" lon="11.52593853673863"><ele>6.0</ele><time>2026-05-02T11:40:14.495Z</time></trkpt><trkpt lat="44.74540224121078" lon="11.52613843844484"><ele>7.0</ele><time>2026-05-02T11:40:15.495Z</time></trkpt><trkpt lat="44.74564694357148" lon="11.526334016481226"><ele>7.0</ele><time>2026-05-02T11:40:16.495Z</time></trkpt><trkpt lat="44.745890433682305" lon="11.526512161792922"><ele>7.0</ele><time>2026-05-02T11:40:17.495Z</time></trkpt><trkpt lat="44.74614070385433" lon="11.526677309875774"><ele>7.5</ele><time>2026-05-02T11:40:18.495Z</time></trkpt><trkpt lat="44.74639872868954" lon="11.526839077450738"><ele>8.0</ele><time>2026-05-02T11:40:19.495Z</time></trkpt><trkpt lat="44.746661171110524" lon="11.527005853198865"><ele>7.0</ele><time>2026-05-02T11:40:20.495Z</time></trkpt><trkpt lat="44.74692138445827" lon="11.52717802410001"><ele>6.0</ele><time>2026-05-02T11:40:21.495Z</time></trkpt><trkpt lat="44.74717972792701" lon="11.527345287448851"><ele>6.0</ele><time>2026-05-02T11:40:22.495Z</time></trkpt><trkpt lat="44.74744158339673" lon="11.527508899664566"><ele>6.0</ele><time>2026-05-02T11:40:23.495Z</time></trkpt><trkpt lat="44.747701573533085" lon="11.527674821196005"><ele>6.0</ele><time>2026-05-02T11:40:24.495Z</time></trkpt><trkpt lat="44.74795187539208" lon="11.527846861213721"><ele>6.0</ele><time>2026-05-02T11:40:25.495Z</time></trkpt><trkpt lat="44.74819935412348" lon="11.528013078635214"><ele>6.0</ele><time>2026-05-02T11:40:26.494Z</time></trkpt><trkpt lat="44.7484441261055" lon="11.52817898750543"><ele>6.0</ele><time>2026-05-02T11:40:27.494Z</time></trkpt><trkpt lat="44.74868538628104" lon="11.528343478071532"><ele>7.0</ele><time>2026-05-02T11:40:28.494Z</time></trkpt><trkpt lat="44.748933074943956" lon="11.528503705093605"><ele>8.0</ele><time>2026-05-02T11:40:29.494Z</time></trkpt><trkpt lat="44.74917913911895" lon="11.528658855148633"><ele>8.0</ele><time>2026-05-02T11:40:30.494Z</time></trkpt><trkpt lat="44.749426979320695" lon="11.528817229764451"><ele>8.0</ele><time>2026-05-02T11:40:31.494Z</time></trkpt><trkpt lat="44.74967879174924" lon="11.528974824835176"><ele>8.0</ele><time>2026-05-02T11:40:32.494Z</time></trkpt><trkpt lat="44.7499293859273" lon="11.529138861714582"><ele>8.0</ele><time>2026-05-02T11:40:33.494Z</time></trkpt><trkpt lat="44.75018047284422" lon="11.529303941110257"><ele>7.5</ele><time>2026-05-02T11:40:34.494Z</time></trkpt><trkpt lat="44.75043371373049" lon="11.529470008368042"><ele>7.0</ele><time>2026-05-02T11:40:35.494Z</time></trkpt><trkpt lat="44.75068218342796" lon="11.529643522291082"><ele>6.0</ele><time>2026-05-02T11:40:36.494Z</time></trkpt><trkpt lat="44.75092371432755" lon="11.529808505050509"><ele>5.0</ele><time>2026-05-02T11:40:37.494Z</time></trkpt><trkpt lat="44.751163965605215" lon="11.529966151384665"><ele>5.0</ele><time>2026-05-02T11:40:38.494Z</time></trkpt><trkpt lat="44.75140583308298" lon="11.530121690418884"><ele>5.0</ele><time>2026-05-02T11:40:39.494Z</time></trkpt><trkpt lat="44.751650708624425" lon="11.530279394903234"><ele>6.5</ele><time>2026-05-02T11:40:40.494Z</time></trkpt><trkpt lat="44.751900688321484" lon="11.530444264026812"><ele>8.0</ele><time>2026-05-02T11:40:41.494Z</time></trkpt><trkpt lat="44.75214994201261" lon="11.530610001747705"><ele>8.0</ele><time>2026-05-02T11:40:42.494Z</time></trkpt><trkpt lat="44.75240059330712" lon="11.530772048854805"><ele>8.0</ele><time>2026-05-02T11:40:43.494Z</time></trkpt><trkpt lat="44.75265420662963" lon="11.530931357801485"><ele>7.0</ele><time>2026-05-02T11:40:44.494Z</time></trkpt><trkpt lat="44.752903354405646" lon="11.531090510024402"><ele>6.0</ele><time>2026-05-02T11:40:45.494Z</time></trkpt><trkpt lat="44.75315126110721" lon="11.531256402932788"><ele>6.0</ele><time>2026-05-02T11:40:46.495Z</time></trkpt><trkpt lat="44.75340803825359" lon="11.53142231367139"><ele>6.0</ele><time>2026-05-02T11:40:47.494Z</time></trkpt><trkpt lat="44.753662289328204" lon="11.53158977880133"><ele>6.0</ele><time>2026-05-02T11:40:48.494Z</time></trkpt><trkpt lat="44.75392055259202" lon="11.53175616384739"><ele>6.0</ele><time>2026-05-02T11:40:49.495Z</time></trkpt><trkpt lat="44.75417553253043" lon="11.531926124094534"><ele>6.0</ele><time>2026-05-02T11:40:50.495Z</time></trkpt><trkpt lat="44.754432367139735" lon="11.532091857281861"><ele>6.0</ele><time>2026-05-02T11:40:51.495Z</time></trkpt><trkpt lat="44.754691814527625" lon="11.532258539960251"><ele>6.0</ele><time>2026-05-02T11:40:52.494Z</time></trkpt><trkpt lat="44.75495122378589" lon="11.532430033857265"><ele>6.0</ele><time>2026-05-02T11:40:53.495Z</time></trkpt><trkpt lat="44.75521357449927" lon="11.532598890837722"><ele>6.5</ele><time>2026-05-02T11:40:54.495Z</time></trkpt><trkpt lat="44.75547477761723" lon="11.532768578068701"><ele>7.0</ele><time>2026-05-02T11:40:55.495Z</time></trkpt><trkpt lat="44.755739563937276" lon="11.532935177955224"><ele>7.0</ele><time>2026-05-02T11:40:56.495Z</time></trkpt><trkpt lat="44.756001013126905" lon="11.533103323813139"><ele>7.0</ele><time>2026-05-02T11:40:57.495Z</time></trkpt><trkpt lat="44.756269551343586" lon="11.533270566985825"><ele>6.0</ele><time>2026-05-02T11:40:58.495Z</time></trkpt><trkpt lat="44.75653432585075" lon="11.533443560497288"><ele>5.0</ele><time>2026-05-02T11:40:59.494Z</time></trkpt><trkpt lat="44.756788649339526" lon="11.533620107882397"><ele>4.5</ele><time>2026-05-02T11:41:00.494Z</time></trkpt><trkpt lat="44.757041801294264" lon="11.53379464645122"><ele>4.0</ele><time>2026-05-02T11:41:01.494Z</time></trkpt><trkpt lat="44.757284353319484" lon="11.533959828593941"><ele>4.0</ele><time>2026-05-02T11:41:02.494Z</time></trkpt><trkpt lat="44.757521261911585" lon="11.534110488979548"><ele>4.0</ele><time>2026-05-02T11:41:03.494Z</time></trkpt><trkpt lat="44.75774865400968" lon="11.534264063963608"><ele>4.5</ele><time>2026-05-02T11:41:04.494Z</time></trkpt><trkpt lat="44.75797027384053" lon="11.53440337940051"><ele>5.0</ele><time>2026-05-02T11:41:05.494Z</time></trkpt><trkpt lat="44.75819097181007" lon="11.534543079464171"><ele>5.5</ele><time>2026-05-02T11:41:06.494Z</time></trkpt><trkpt lat="44.758413107895805" lon="11.534684158934693"><ele>6.0</ele><time>2026-05-02T11:41:07.494Z</time></trkpt><trkpt lat="44.75863518783631" lon="11.534822798852403"><ele>6.0</ele><time>2026-05-02T11:41:08.494Z</time></trkpt><trkpt lat="44.75885853707411" lon="11.534962615241987"><ele>6.0</ele><time>2026-05-02T11:41:09.494Z</time></trkpt><trkpt lat="44.759096002328235" lon="11.53510878668097"><ele>6.0</ele><time>2026-05-02T11:41:10.494Z</time></trkpt><trkpt lat="44.759336218420266" lon="11.53526878518733"><ele>6.0</ele><time>2026-05-02T11:41:11.494Z</time></trkpt><trkpt lat="44.75957614722202" lon="11.535430019635589"><ele>5.5</ele><time>2026-05-02T11:41:12.494Z</time></trkpt><trkpt lat="44.75982453457629" lon="11.535575412607326"><ele>5.0</ele><time>2026-05-02T11:41:13.494Z</time></trkpt><trkpt lat="44.760082085378315" lon="11.53572227147705"><ele>4.0</ele><time>2026-05-02T11:41:14.494Z</time></trkpt><trkpt lat="44.76034177200516" lon="11.5358856884637"><ele>3.0</ele><time>2026-05-02T11:41:15.494Z</time></trkpt><trkpt lat="44.76059865563362" lon="11.536061244194189"><ele>3.5</ele><time>2026-05-02T11:41:16.494Z</time></trkpt><trkpt lat="44.76085085078096" lon="11.536249866628731"><ele>4.0</ele><time>2026-05-02T11:41:17.494Z</time></trkpt><trkpt lat="44.76110438212935" lon="11.536441213972628"><ele>4.0</ele><time>2026-05-02T11:41:18.494Z</time></trkpt><trkpt lat="44.76135464430473" lon="11.53662232768466"><ele>4.0</ele><time>2026-05-02T11:41:19.494Z</time></trkpt><trkpt lat="44.761609106606656" lon="11.536794972289224"><ele>4.0</ele><time>2026-05-02T11:41:20.493Z</time></trkpt><trkpt lat="44.76186590745852" lon="11.536958425325027"><ele>4.0</ele><time>2026-05-02T11:41:21.493Z</time></trkpt><trkpt lat="44.76212304829536" lon="11.53712280864445"><ele>4.0</ele><time>2026-05-02T11:41:22.493Z</time></trkpt><trkpt lat="44.76237931017114" lon="11.537290700564386"><ele>4.0</ele><time>2026-05-02T11:41:23.493Z</time></trkpt><trkpt lat="44.76263694508609" lon="11.537456146546724"><ele>4.0</ele><time>2026-05-02T11:41:24.493Z</time></trkpt><trkpt lat="44.76289396740276" lon="11.537616719307433"><ele>4.0</ele><time>2026-05-02T11:41:25.493Z</time></trkpt><trkpt lat="44.763152337187" lon="11.537783237661369"><ele>4.0</ele><time>2026-05-02T11:41:26.493Z</time></trkpt><trkpt lat="44.76340873819266" lon="11.537951286224427"><ele>4.0</ele><time>2026-05-02T11:41:27.493Z</time></trkpt><trkpt lat="44.76366767109095" lon="11.538120525703244"><ele>4.5</ele><time>2026-05-02T11:41:28.493Z</time></trkpt><trkpt lat="44.76392474183626" lon="11.53828824207615"><ele>5.0</ele><time>2026-05-02T11:41:29.493Z</time></trkpt><trkpt lat="44.764183311724615" lon="11.538457988317644"><ele>5.0</ele><time>2026-05-02T11:41:30.493Z</time></trkpt><trkpt lat="44.76443931038643" lon="11.538626029702597"><ele>5.0</ele><time>2026-05-02T11:41:31.493Z</time></trkpt><trkpt lat="44.76468753824946" lon="11.538788917686244"><ele>5.0</ele><time>2026-05-02T11:41:32.493Z</time></trkpt><trkpt lat="44.76493113908996" lon="11.538952102085977"><ele>5.0</ele><time>2026-05-02T11:41:33.493Z</time></trkpt><trkpt lat="44.76517404461628" lon="11.539112317772666"><ele>5.0</ele><time>2026-05-02T11:41:34.493Z</time></trkpt><trkpt lat="44.76543106755822" lon="11.5392675626554"><ele>5.0</ele><time>2026-05-02T11:41:35.493Z</time></trkpt><trkpt lat="44.765683709319184" lon="11.539423632267786"><ele>4.5</ele><time>2026-05-02T11:41:36.493Z</time></trkpt><trkpt lat="44.765935079552115" lon="11.539584868832423"><ele>4.0</ele><time>2026-05-02T11:41:37.493Z</time></trkpt><trkpt lat="44.76617794743134" lon="11.539754393052489"><ele>4.0</ele><time>2026-05-02T11:41:38.493Z</time></trkpt><trkpt lat="44.76642263997368" lon="11.53991962301368"><ele>4.0</ele><time>2026-05-02T11:41:39.493Z</time></trkpt><trkpt lat="44.76666373011426" lon="11.54008084528996"><ele>4.0</ele><time>2026-05-02T11:41:40.493Z</time></trkpt><trkpt lat="44.766909028714316" lon="11.540240463312625"><ele>4.0</ele><time>2026-05-02T11:41:41.493Z</time></trkpt><trkpt lat="44.76715353928132" lon="11.54040118560379"><ele>4.0</ele><time>2026-05-02T11:41:42.493Z</time></trkpt><trkpt lat="44.7673994558049" lon="11.540564497675335"><ele>4.0</ele><time>2026-05-02T11:41:43.493Z</time></trkpt><trkpt lat="44.76764703152359" lon="11.540727334854349"><ele>3.5</ele><time>2026-05-02T11:41:44.493Z</time></trkpt><trkpt lat="44.76789564976997" lon="11.540889765625872"><ele>3.0</ele><time>2026-05-02T11:41:45.493Z</time></trkpt><trkpt lat="44.76814386857129" lon="11.54105211848844"><ele>3.0</ele><time>2026-05-02T11:41:46.492Z</time></trkpt><trkpt lat="44.76839014026921" lon="11.54121314186756"><ele>3.0</ele><time>2026-05-02T11:41:47.492Z</time></trkpt><trkpt lat="44.768639286679" lon="11.541374684407721"><ele>4.0</ele><time>2026-05-02T11:41:48.492Z</time></trkpt><trkpt lat="44.76888731886966" lon="11.541539140687453"><ele>5.0</ele><time>2026-05-02T11:41:49.492Z</time></trkpt><trkpt lat="44.769134855085504" lon="11.541704772609624"><ele>5.5</ele><time>2026-05-02T11:41:50.492Z</time></trkpt><trkpt lat="44.76938440000356" lon="11.541870687969032"><ele>6.0</ele><time>2026-05-02T11:41:51.492Z</time></trkpt><trkpt lat="44.769634005261345" lon="11.542035559077457"><ele>6.5</ele><time>2026-05-02T11:41:52.492Z</time></trkpt><trkpt lat="44.7698858418422" lon="11.54219923068116"><ele>7.0</ele><time>2026-05-02T11:41:53.492Z</time></trkpt><trkpt lat="44.77013631548649" lon="11.542364881638452"><ele>6.5</ele><time>2026-05-02T11:41:54.492Z</time></trkpt><trkpt lat="44.77038981361398" lon="11.542528769527243"><ele>6.0</ele><time>2026-05-02T11:41:55.492Z</time></trkpt><trkpt lat="44.77064141452784" lon="11.542693177022118"><ele>6.0</ele><time>2026-05-02T11:41:56.492Z</time></trkpt><trkpt lat="44.770893357635025" lon="11.542857793240632"><ele>6.0</ele><time>2026-05-02T11:41:57.492Z</time></trkpt><trkpt lat="44.7711436625793" lon="11.543021258014363"><ele>6.0</ele><time>2026-05-02T11:41:58.492Z</time></trkpt><trkpt lat="44.771399672384014" lon="11.543187015200969"><ele>6.0</ele><time>2026-05-02T11:41:59.492Z</time></trkpt><trkpt lat="44.77165212295443" lon="11.543351139811469"><ele>6.5</ele><time>2026-05-02T11:42:00.492Z</time></trkpt><trkpt lat="44.77190374526894" lon="11.543511224939788"><ele>7.0</ele><time>2026-05-02T11:42:01.492Z</time></trkpt><trkpt lat="44.772157583167214" lon="11.543671476481354"><ele>6.5</ele><time>2026-05-02T11:42:02.492Z</time></trkpt><trkpt lat="44.77240948297947" lon="11.543834824132299"><ele>6.0</ele><time>2026-05-02T11:42:03.492Z</time></trkpt><trkpt lat="44.77265771247717" lon="11.543995427929884"><ele>6.5</ele><time>2026-05-02T11:42:04.492Z</time></trkpt><trkpt lat="44.77290278709791" lon="11.544153814522002"><ele>7.0</ele><time>2026-05-02T11:42:05.492Z</time></trkpt><trkpt lat="44.77314600714706" lon="11.544310959958814"><ele>7.0</ele><time>2026-05-02T11:42:06.492Z</time></trkpt><trkpt lat="44.77339256372603" lon="11.544469740466877"><ele>7.0</ele><time>2026-05-02T11:42:07.492Z</time></trkpt><trkpt lat="44.77364179720141" lon="11.544629582990785"><ele>6.5</ele><time>2026-05-02T11:42:08.492Z</time></trkpt><trkpt lat="44.773892121923595" lon="11.544790124095396"><ele>6.0</ele><time>2026-05-02T11:42:09.492Z</time></trkpt><trkpt lat="44.774141659474544" lon="11.544950152051445"><ele>6.0</ele><time>2026-05-02T11:42:10.492Z</time></trkpt><trkpt lat="44.77438673565663" lon="11.545112656380109"><ele>6.0</ele><time>2026-05-02T11:42:11.491Z</time></trkpt><trkpt lat="44.77463533591294" lon="11.545273235496023"><ele>5.5</ele><time>2026-05-02T11:42:12.491Z</time></trkpt><trkpt lat="44.77488242749984" lon="11.54543607037664"><ele>5.0</ele><time>2026-05-02T11:42:13.491Z</time></trkpt><trkpt lat="44.77512907381327" lon="11.545597436793646"><ele>5.5</ele><time>2026-05-02T11:42:14.491Z</time></trkpt><trkpt lat="44.77537781851756" lon="11.545758566572307"><ele>6.0</ele><time>2026-05-02T11:42:15.491Z</time></trkpt><trkpt lat="44.77562894494185" lon="11.545921060904204"><ele>6.0</ele><time>2026-05-02T11:42:16.491Z</time></trkpt><trkpt lat="44.77587645173352" lon="11.546086779854686"><ele>6.0</ele><time>2026-05-02T11:42:17.491Z</time></trkpt><trkpt lat="44.776120543269535" lon="11.546255355298715"><ele>6.5</ele><time>2026-05-02T11:42:18.491Z</time></trkpt><trkpt lat="44.776366732352976" lon="11.546416009842867"><ele>7.0</ele><time>2026-05-02T11:42:19.491Z</time></trkpt><trkpt lat="44.776609834717874" lon="11.546577941371831"><ele>8.5</ele><time>2026-05-02T11:42:20.491Z</time></trkpt><trkpt lat="44.776853840833134" lon="11.546738823156534"><ele>10.0</ele><time>2026-05-02T11:42:21.491Z</time></trkpt><trkpt lat="44.777094260977535" lon="11.546895703634462"><ele>9.5</ele><time>2026-05-02T11:42:22.491Z</time></trkpt><trkpt lat="44.77734117348738" lon="11.54705371028281"><ele>9.0</ele><time>2026-05-02T11:42:23.491Z</time></trkpt><trkpt lat="44.777588983740756" lon="11.547212311616486"><ele>8.0</ele><time>2026-05-02T11:42:24.491Z</time></trkpt><trkpt lat="44.77784143708937" lon="11.54737303754577"><ele>7.0</ele><time>2026-05-02T11:42:25.491Z</time></trkpt><trkpt lat="44.778092567704924" lon="11.547538613124184"><ele>7.0</ele><time>2026-05-02T11:42:26.491Z</time></trkpt><trkpt lat="44.77834148150733" lon="11.547702405592966"><ele>7.0</ele><time>2026-05-02T11:42:27.491Z</time></trkpt><trkpt lat="44.77859113235747" lon="11.547864968925916"><ele>7.5</ele><time>2026-05-02T11:42:28.491Z</time></trkpt><trkpt lat="44.77883722491177" lon="11.548029655923079"><ele>8.0</ele><time>2026-05-02T11:42:29.491Z</time></trkpt><trkpt lat="44.779085059590294" lon="11.548191360046161"><ele>8.0</ele><time>2026-05-02T11:42:30.491Z</time></trkpt><trkpt lat="44.77933227261462" lon="11.548352907380284"><ele>8.0</ele><time>2026-05-02T11:42:31.491Z</time></trkpt><trkpt lat="44.77958124723481" lon="11.548512973766002"><ele>8.0</ele><time>2026-05-02T11:42:32.491Z</time></trkpt><trkpt lat="44.77982933720853" lon="11.548672183494663"><ele>8.0</ele><time>2026-05-02T11:42:33.491Z</time></trkpt><trkpt lat="44.78007959166703" lon="11.548832428141841"><ele>8.0</ele><time>2026-05-02T11:42:34.491Z</time></trkpt><trkpt lat="44.78033714269031" lon="11.548993201847843"><ele>8.0</ele><time>2026-05-02T11:42:35.491Z</time></trkpt><trkpt lat="44.780591125554906" lon="11.549164982488893"><ele>8.0</ele><time>2026-05-02T11:42:36.491Z</time></trkpt><trkpt lat="44.78083968396786" lon="11.549328929542318"><ele>8.0</ele><time>2026-05-02T11:42:37.49Z</time></trkpt><trkpt lat="44.78108792431006" lon="11.549486241496975"><ele>7.5</ele><time>2026-05-02T11:42:38.49Z</time></trkpt><trkpt lat="44.78133375496625" lon="11.54964673819205"><ele>7.0</ele><time>2026-05-02T11:42:39.49Z</time></trkpt><trkpt lat="44.781579134585954" lon="11.549815682024198"><ele>7.0</ele><time>2026-05-02T11:42:40.49Z</time></trkpt><trkpt lat="44.78182179803922" lon="11.549983710491588"><ele>7.0</ele><time>2026-05-02T11:42:41.49Z</time></trkpt><trkpt lat="44.782069546068946" lon="11.550144706749409"><ele>7.0</ele><time>2026-05-02T11:42:42.49Z</time></trkpt><trkpt lat="44.782321752248365" lon="11.550305441389261"><ele>7.0</ele><time>2026-05-02T11:42:43.49Z</time></trkpt><trkpt lat="44.78256675086707" lon="11.550469801113245"><ele>7.0</ele><time>2026-05-02T11:42:44.49Z</time></trkpt><trkpt lat="44.78281037661599" lon="11.55063259092933"><ele>7.0</ele><time>2026-05-02T11:42:45.49Z</time></trkpt><trkpt lat="44.78305194228857" lon="11.550787422016"><ele>7.0</ele><time>2026-05-02T11:42:46.49Z</time></trkpt><trkpt lat="44.7832943364825" lon="11.55093986562443"><ele>7.0</ele><time>2026-05-02T11:42:47.49Z</time></trkpt><trkpt lat="44.78353867711286" lon="11.55108842975192"><ele>7.0</ele><time>2026-05-02T11:42:48.49Z</time></trkpt><trkpt lat="44.78378525385172" lon="11.551222853671291"><ele>7.0</ele><time>2026-05-02T11:42:49.49Z</time></trkpt><trkpt lat="44.78403807132154" lon="11.55134987685784"><ele>7.0</ele><time>2026-05-02T11:42:50.49Z</time></trkpt><trkpt lat="44.784293144270364" lon="11.551467113083925"><ele>7.0</ele><time>2026-05-02T11:42:51.49Z</time></trkpt><trkpt lat="44.784549633994075" lon="11.551579950714634"><ele>7.5</ele><time>2026-05-02T11:42:52.491Z</time></trkpt><trkpt lat="44.78480661308071" lon="11.551685678076964"><ele>8.0</ele><time>2026-05-02T11:42:53.491Z</time></trkpt><trkpt lat="44.78506605431952" lon="11.551779519697487"><ele>8.0</ele><time>2026-05-02T11:42:54.491Z</time></trkpt><trkpt lat="44.785328897370846" lon="11.551864205238676"><ele>8.0</ele><time>2026-05-02T11:42:55.491Z</time></trkpt><trkpt lat="44.78559250636548" lon="11.55194107614177"><ele>8.0</ele><time>2026-05-02T11:42:56.491Z</time></trkpt><trkpt lat="44.785855579401485" lon="11.552007170785528"><ele>8.0</ele><time>2026-05-02T11:42:57.491Z</time></trkpt><trkpt lat="44.78612304145926" lon="11.552065842386375"><ele>9.0</ele><time>2026-05-02T11:42:58.491Z</time></trkpt><trkpt lat="44.7863944898184" lon="11.552115381866095"><ele>10.0</ele><time>2026-05-02T11:42:59.491Z</time></trkpt><trkpt lat="44.7866683722102" lon="11.55215613932265"><ele>10.0</ele><time>2026-05-02T11:43:00.491Z</time></trkpt><trkpt lat="44.786938165966035" lon="11.552190973440247"><ele>10.0</ele><time>2026-05-02T11:43:01.491Z</time></trkpt><trkpt lat="44.78720623476775" lon="11.552216691710557"><ele>10.0</ele><time>2026-05-02T11:43:02.492Z</time></trkpt><trkpt lat="44.78747464091312" lon="11.552238130016415"><ele>10.0</ele><time>2026-05-02T11:43:03.491Z</time></trkpt><trkpt lat="44.787743169358485" lon="11.55226233758607"><ele>9.5</ele><time>2026-05-02T11:43:04.49Z</time></trkpt><trkpt lat="44.78801201806722" lon="11.552286637620071"><ele>9.0</ele><time>2026-05-02T11:43:05.491Z</time></trkpt><trkpt lat="44.788280385459665" lon="11.552316845426933"><ele>8.5</ele><time>2026-05-02T11:43:06.491Z</time></trkpt><trkpt lat="44.78855042829374" lon="11.55234433010007"><ele>8.0</ele><time>2026-05-02T11:43:07.491Z</time></trkpt><trkpt lat="44.78882166104221" lon="11.552369891555658"><ele>8.0</ele><time>2026-05-02T11:43:08.491Z</time></trkpt><trkpt lat="44.78909547357625" lon="11.55239315849709"><ele>8.0</ele><time>2026-05-02T11:43:09.491Z</time></trkpt><trkpt lat="44.78937068930734" lon="11.55241959493697"><ele>8.0</ele><time>2026-05-02T11:43:10.491Z</time></trkpt><trkpt lat="44.78964646493427" lon="11.552445485499062"><ele>8.0</ele><time>2026-05-02T11:43:11.491Z</time></trkpt><trkpt lat="44.78992453852883" lon="11.552470843870664"><ele>9.0</ele><time>2026-05-02T11:43:12.491Z</time></trkpt><trkpt lat="44.790200792155396" lon="11.552497148357027"><ele>10.0</ele><time>2026-05-02T11:43:13.491Z</time></trkpt><trkpt lat="44.790475398586416" lon="11.552526668072227"><ele>10.0</ele><time>2026-05-02T11:43:14.491Z</time></trkpt><trkpt lat="44.79074996412564" lon="11.552555629150039"><ele>10.0</ele><time>2026-05-02T11:43:15.491Z</time></trkpt><trkpt lat="44.7910315381196" lon="11.552579988354545"><ele>10.0</ele><time>2026-05-02T11:43:16.491Z</time></trkpt><trkpt lat="44.7913068993335" lon="11.552606670559982"><ele>10.0</ele><time>2026-05-02T11:43:17.491Z</time></trkpt><trkpt lat="44.79157934758653" lon="11.552635117821854"><ele>9.0</ele><time>2026-05-02T11:43:18.491Z</time></trkpt><trkpt lat="44.79184477959752" lon="11.55266360792036"><ele>8.0</ele><time>2026-05-02T11:43:19.491Z</time></trkpt><trkpt lat="44.79211462794692" lon="11.552692091428097"><ele>8.0</ele><time>2026-05-02T11:43:20.491Z</time></trkpt><trkpt lat="44.79238715125694" lon="11.552718106614357"><ele>8.0</ele><time>2026-05-02T11:43:21.49Z</time></trkpt><trkpt lat="44.79265924694968" lon="11.552742981442812"><ele>8.0</ele><time>2026-05-02T11:43:22.49Z</time></trkpt><trkpt lat="44.79293069691315" lon="11.552770129145792"><ele>8.0</ele><time>2026-05-02T11:43:23.49Z</time></trkpt><trkpt lat="44.79320353516498" lon="11.552794941056321"><ele>8.0</ele><time>2026-05-02T11:43:24.49Z</time></trkpt><trkpt lat="44.79347463317482" lon="11.552825536539826"><ele>8.0</ele><time>2026-05-02T11:43:25.49Z</time></trkpt><trkpt lat="44.793744255700425" lon="11.552850760452714"><ele>9.0</ele><time>2026-05-02T11:43:26.49Z</time></trkpt><trkpt lat="44.79401612719945" lon="11.552878799919705"><ele>10.0</ele><time>2026-05-02T11:43:27.49Z</time></trkpt><trkpt lat="44.7942899380282" lon="11.552903463860728"><ele>9.5</ele><time>2026-05-02T11:43:28.49Z</time></trkpt><trkpt lat="44.79456492660877" lon="11.552929077302592"><ele>9.0</ele><time>2026-05-02T11:43:29.49Z</time></trkpt><trkpt lat="44.794840240063444" lon="11.552953861551249"><ele>9.0</ele><time>2026-05-02T11:43:30.49Z</time></trkpt><trkpt lat="44.7951187182824" lon="11.552974845297415"><ele>9.0</ele><time>2026-05-02T11:43:31.49Z</time></trkpt><trkpt lat="44.79539557026256" lon="11.55299995110166"><ele>10.5</ele><time>2026-05-02T11:43:32.49Z</time></trkpt><trkpt lat="44.79567127259476" lon="11.553021314265562"><ele>12.0</ele><time>2026-05-02T11:43:33.49Z</time></trkpt><trkpt lat="44.795948641264864" lon="11.553047302435605"><ele>11.0</ele><time>2026-05-02T11:43:34.49Z</time></trkpt><trkpt lat="44.79622652576602" lon="11.553074980285906"><ele>10.0</ele><time>2026-05-02T11:43:35.49Z</time></trkpt><trkpt lat="44.79650573647382" lon="11.553103795896075"><ele>10.0</ele><time>2026-05-02T11:43:36.49Z</time></trkpt><trkpt lat="44.79678136913531" lon="11.553129700969018"><ele>10.0</ele><time>2026-05-02T11:43:37.49Z</time></trkpt><trkpt lat="44.79705851845385" lon="11.553159475362062"><ele>10.5</ele><time>2026-05-02T11:43:38.49Z</time></trkpt><trkpt lat="44.797336666938556" lon="11.553191218054522"><ele>11.0</ele><time>2026-05-02T11:43:39.49Z</time></trkpt><trkpt lat="44.79761593323545" lon="11.55322298075511"><ele>11.0</ele><time>2026-05-02T11:43:40.49Z</time></trkpt><trkpt lat="44.79789565567874" lon="11.553255609279896"><ele>11.0</ele><time>2026-05-02T11:43:41.49Z</time></trkpt><trkpt lat="44.79817570853095" lon="11.553279160566523"><ele>11.0</ele><time>2026-05-02T11:43:42.49Z</time></trkpt><trkpt lat="44.79845245591041" lon="11.553304361172684"><ele>11.0</ele><time>2026-05-02T11:43:43.49Z</time></trkpt><trkpt lat="44.7987300878807" lon="11.553330827889903"><ele>11.0</ele><time>2026-05-02T11:43:44.49Z</time></trkpt><trkpt lat="44.799010559604724" lon="11.55335385330942"><ele>11.0</ele><time>2026-05-02T11:43:45.49Z</time></trkpt><trkpt lat="44.799289494423476" lon="11.553380151869108"><ele>11.5</ele><time>2026-05-02T11:43:46.489Z</time></trkpt><trkpt lat="44.79957026532949" lon="11.553405192589313"><ele>12.0</ele><time>2026-05-02T11:43:47.489Z</time></trkpt><trkpt lat="44.79985079688236" lon="11.553428342651031"><ele>12.0</ele><time>2026-05-02T11:43:48.489Z</time></trkpt><trkpt lat="44.80013076812671" lon="11.553456694465488"><ele>12.0</ele><time>2026-05-02T11:43:49.489Z</time></trkpt><trkpt lat="44.80040900490402" lon="11.55348538654119"><ele>12.0</ele><time>2026-05-02T11:43:50.489Z</time></trkpt><trkpt lat="44.80068718182996" lon="11.553510260118829"><ele>12.0</ele><time>2026-05-02T11:43:51.489Z</time></trkpt><trkpt lat="44.80096596295549" lon="11.553536638377645"><ele>11.0</ele><time>2026-05-02T11:43:52.489Z</time></trkpt><trkpt lat="44.80124409772989" lon="11.553563423384517"><ele>10.0</ele><time>2026-05-02T11:43:53.489Z</time></trkpt><trkpt lat="44.80152397425314" lon="11.553591915462036"><ele>10.0</ele><time>2026-05-02T11:43:54.489Z</time></trkpt><trkpt lat="44.80180671401633" lon="11.553621554563284"><ele>10.0</ele><time>2026-05-02T11:43:55.489Z</time></trkpt><trkpt lat="44.80209254596586" lon="11.553647848517736"><ele>10.0</ele><time>2026-05-02T11:43:56.489Z</time></trkpt><trkpt lat="44.802376559993434" lon="11.553671443790213"><ele>10.0</ele><time>2026-05-02T11:43:57.489Z</time></trkpt><trkpt lat="44.80265780068401" lon="11.55369829141501"><ele>10.0</ele><time>2026-05-02T11:43:58.489Z</time></trkpt><trkpt lat="44.80293879309232" lon="11.553729330432898"><ele>10.0</ele><time>2026-05-02T11:43:59.489Z</time></trkpt><trkpt lat="44.80321758385787" lon="11.553759936115528"><ele>10.0</ele><time>2026-05-02T11:44:00.489Z</time></trkpt><trkpt lat="44.80349450467163" lon="11.553789062498915"><ele>10.0</ele><time>2026-05-02T11:44:01.489Z</time></trkpt><trkpt lat="44.803770736723926" lon="11.553815273691034"><ele>10.5</ele><time>2026-05-02T11:44:02.489Z</time></trkpt><trkpt lat="44.804048285526754" lon="11.553845223584004"><ele>11.0</ele><time>2026-05-02T11:44:03.489Z</time></trkpt><trkpt lat="44.80432687175118" lon="11.553874824134642"><ele>11.5</ele><time>2026-05-02T11:44:04.489Z</time></trkpt><trkpt lat="44.8046042414913" lon="11.553902193659741"><ele>12.0</ele><time>2026-05-02T11:44:05.489Z</time></trkpt><trkpt lat="44.80488381991231" lon="11.553924396580973"><ele>12.0</ele><time>2026-05-02T11:44:06.489Z</time></trkpt><trkpt lat="44.80516433276816" lon="11.553949403942934"><ele>12.0</ele><time>2026-05-02T11:44:07.489Z</time></trkpt><trkpt lat="44.805444240347" lon="11.553975540802933"><ele>12.0</ele><time>2026-05-02T11:44:08.489Z</time></trkpt><trkpt lat="44.8057231869346" lon="11.554002039956828"><ele>12.0</ele><time>2026-05-02T11:44:09.489Z</time></trkpt><trkpt lat="44.80599892947528" lon="11.554029147283309"><ele>13.0</ele><time>2026-05-02T11:44:10.489Z</time></trkpt><trkpt lat="44.806275641013826" lon="11.554056818319054"><ele>14.0</ele><time>2026-05-02T11:44:11.489Z</time></trkpt><trkpt lat="44.806549732061754" lon="11.55407954354257"><ele>14.0</ele><time>2026-05-02T11:44:12.488Z</time></trkpt><trkpt lat="44.80682743300578" lon="11.554103431564672"><ele>14.0</ele><time>2026-05-02T11:44:13.488Z</time></trkpt><trkpt lat="44.80710291890753" lon="11.554126530494269"><ele>13.0</ele><time>2026-05-02T11:44:14.488Z</time></trkpt><trkpt lat="44.8073777948439" lon="11.554151658648344"><ele>12.0</ele><time>2026-05-02T11:44:15.488Z</time></trkpt><trkpt lat="44.807649251776745" lon="11.554178528282778"><ele>12.5</ele><time>2026-05-02T11:44:16.488Z</time></trkpt><trkpt lat="44.807925987654635" lon="11.554206327720019"><ele>13.0</ele><time>2026-05-02T11:44:17.488Z</time></trkpt><trkpt lat="44.808201853191" lon="11.554236108233013"><ele>13.0</ele><time>2026-05-02T11:44:18.488Z</time></trkpt><trkpt lat="44.80848430004888" lon="11.554265360017169"><ele>13.0</ele><time>2026-05-02T11:44:19.488Z</time></trkpt><trkpt lat="44.80876377878359" lon="11.554290803104454"><ele>12.0</ele><time>2026-05-02T11:44:20.488Z</time></trkpt><trkpt lat="44.80904277104208" lon="11.554314891091712"><ele>11.0</ele><time>2026-05-02T11:44:21.488Z</time></trkpt><trkpt lat="44.80932474486536" lon="11.554340579051638"><ele>10.0</ele><time>2026-05-02T11:44:22.488Z</time></trkpt><trkpt lat="44.809608947733814" lon="11.55436611283204"><ele>9.0</ele><time>2026-05-02T11:44:23.488Z</time></trkpt><trkpt lat="44.809891665905" lon="11.55439483041304"><ele>9.5</ele><time>2026-05-02T11:44:24.488Z</time></trkpt><trkpt lat="44.81017293693072" lon="11.554425635631485"><ele>10.0</ele><time>2026-05-02T11:44:25.488Z</time></trkpt><trkpt lat="44.81045178749997" lon="11.554455832728442"><ele>10.0</ele><time>2026-05-02T11:44:26.488Z</time></trkpt><trkpt lat="44.81073004495947" lon="11.554482462206904"><ele>10.0</ele><time>2026-05-02T11:44:27.488Z</time></trkpt><trkpt lat="44.811006065464724" lon="11.554506367350978"><ele>10.0</ele><time>2026-05-02T11:44:28.488Z</time></trkpt><trkpt lat="44.81128428171369" lon="11.55453252683364"><ele>10.0</ele><time>2026-05-02T11:44:29.488Z</time></trkpt><trkpt lat="44.81156095444579" lon="11.554560947644333"><ele>10.0</ele><time>2026-05-02T11:44:30.488Z</time></trkpt><trkpt lat="44.811837005776205" lon="11.55458810825903"><ele>10.0</ele><time>2026-05-02T11:44:31.488Z</time></trkpt><trkpt lat="44.81211199772267" lon="11.554615350850849"><ele>10.0</ele><time>2026-05-02T11:44:32.488Z</time></trkpt><trkpt lat="44.812387245742705" lon="11.554642772989391"><ele>10.0</ele><time>2026-05-02T11:44:33.488Z</time></trkpt><trkpt lat="44.81266184019394" lon="11.554667814569882"><ele>10.0</ele><time>2026-05-02T11:44:34.488Z</time></trkpt><trkpt lat="44.812936124574776" lon="11.5546920624129"><ele>10.0</ele><time>2026-05-02T11:44:35.488Z</time></trkpt><trkpt lat="44.81320829869608" lon="11.554718946708999"><ele>10.0</ele><time>2026-05-02T11:44:36.488Z</time></trkpt><trkpt lat="44.81348034753168" lon="11.554748088008898"><ele>10.0</ele><time>2026-05-02T11:44:37.487Z</time></trkpt><trkpt lat="44.81375353881534" lon="11.554777631644392"><ele>11.5</ele><time>2026-05-02T11:44:38.487Z</time></trkpt><trkpt lat="44.814026886241784" lon="11.554809344184058"><ele>13.0</ele><time>2026-05-02T11:44:39.487Z</time></trkpt><trkpt lat="44.81430103372802" lon="11.554842549058545"><ele>12.5</ele><time>2026-05-02T11:44:40.487Z</time></trkpt><trkpt lat="44.81457520045118" lon="11.554878922359746"><ele>12.0</ele><time>2026-05-02T11:44:41.487Z</time></trkpt><trkpt lat="44.814854742672985" lon="11.554921797916696"><ele>12.0</ele><time>2026-05-02T11:44:42.487Z</time></trkpt><trkpt lat="44.815125702896346" lon="11.554970511430586"><ele>12.0</ele><time>2026-05-02T11:44:43.487Z</time></trkpt><trkpt lat="44.8154001191015" lon="11.555025400302267"><ele>11.0</ele><time>2026-05-02T11:44:44.487Z</time></trkpt><trkpt lat="44.815671130027255" lon="11.555084822791745"><ele>10.0</ele><time>2026-05-02T11:44:45.487Z</time></trkpt><trkpt lat="44.81594293498421" lon="11.555146441669107"><ele>12.0</ele><time>2026-05-02T11:44:46.487Z</time></trkpt><trkpt lat="44.816214484269445" lon="11.55521133925406"><ele>14.0</ele><time>2026-05-02T11:44:47.487Z</time></trkpt><trkpt lat="44.816483800691856" lon="11.555283414962824"><ele>14.0</ele><time>2026-05-02T11:44:48.487Z</time></trkpt><trkpt lat="44.8167547188497" lon="11.555361213258967"><ele>14.0</ele><time>2026-05-02T11:44:49.487Z</time></trkpt><trkpt lat="44.81702321443243" lon="11.555444132525864"><ele>13.0</ele><time>2026-05-02T11:44:50.487Z</time></trkpt><trkpt lat="44.81729641904759" lon="11.55552629502345"><ele>12.0</ele><time>2026-05-02T11:44:51.487Z</time></trkpt><trkpt lat="44.81756378789452" lon="11.555612280077689"><ele>12.0</ele><time>2026-05-02T11:44:52.487Z</time></trkpt><trkpt lat="44.81783431930895" lon="11.555702868350945"><ele>12.0</ele><time>2026-05-02T11:44:53.487Z</time></trkpt><trkpt lat="44.818105224774435" lon="11.555797925986969"><ele>12.0</ele><time>2026-05-02T11:44:54.487Z</time></trkpt><trkpt lat="44.81837419682867" lon="11.555887049172497"><ele>12.0</ele><time>2026-05-02T11:44:55.487Z</time></trkpt><trkpt lat="44.81864058375249" lon="11.555979513355034"><ele>11.5</ele><time>2026-05-02T11:44:56.487Z</time></trkpt><trkpt lat="44.81890783811157" lon="11.55606531023915"><ele>11.0</ele><time>2026-05-02T11:44:57.487Z</time></trkpt><trkpt lat="44.81917245811664" lon="11.556150779359482"><ele>10.5</ele><time>2026-05-02T11:44:58.487Z</time></trkpt><trkpt lat="44.819435617770935" lon="11.5562467186364"><ele>10.0</ele><time>2026-05-02T11:44:59.488Z</time></trkpt><trkpt lat="44.819698906520344" lon="11.556338848539996"><ele>10.0</ele><time>2026-05-02T11:45:00.488Z</time></trkpt><trkpt lat="44.8199647077639" lon="11.556436518436708"><ele>10.0</ele><time>2026-05-02T11:45:01.488Z</time></trkpt><trkpt lat="44.82023024905784" lon="11.556533853201762"><ele>11.0</ele><time>2026-05-02T11:45:02.487Z</time></trkpt><trkpt lat="44.82049701297084" lon="11.556631144901147"><ele>12.0</ele><time>2026-05-02T11:45:03.487Z</time></trkpt><trkpt lat="44.82076370846967" lon="11.556724641900832"><ele>11.0</ele><time>2026-05-02T11:45:04.488Z</time></trkpt><trkpt lat="44.8210328259929" lon="11.556817209879176"><ele>10.0</ele><time>2026-05-02T11:45:05.488Z</time></trkpt><trkpt lat="44.82130500518269" lon="11.556908769749036"><ele>10.0</ele><time>2026-05-02T11:45:06.488Z</time></trkpt><trkpt lat="44.821574068695384" lon="11.5570028302801"><ele>10.0</ele><time>2026-05-02T11:45:07.487Z</time></trkpt><trkpt lat="44.82184089687205" lon="11.557100752249454"><ele>10.0</ele><time>2026-05-02T11:45:08.487Z</time></trkpt><trkpt lat="44.822108806638234" lon="11.557196487183784"><ele>10.0</ele><time>2026-05-02T11:45:09.487Z</time></trkpt><trkpt lat="44.82237594146546" lon="11.557294778400337"><ele>10.0</ele><time>2026-05-02T11:45:10.487Z</time></trkpt><trkpt lat="44.822644332505206" lon="11.557387883109561"><ele>10.0</ele><time>2026-05-02T11:45:11.488Z</time></trkpt><trkpt lat="44.822913237421176" lon="11.55748214574183"><ele>10.0</ele><time>2026-05-02T11:45:12.488Z</time></trkpt><trkpt lat="44.823180378436014" lon="11.55757750066092"><ele>10.0</ele><time>2026-05-02T11:45:13.488Z</time></trkpt><trkpt lat="44.82345056765424" lon="11.557672165953518"><ele>9.5</ele><time>2026-05-02T11:45:14.488Z</time></trkpt><trkpt lat="44.82371879333591" lon="11.557766972867961"><ele>9.0</ele><time>2026-05-02T11:45:15.487Z</time></trkpt><trkpt lat="44.823987977144" lon="11.557863237930654"><ele>9.0</ele><time>2026-05-02T11:45:16.487Z</time></trkpt><trkpt lat="44.82425912731862" lon="11.557959967423638"><ele>9.0</ele><time>2026-05-02T11:45:17.487Z</time></trkpt><trkpt lat="44.82452854103772" lon="11.558058776021062"><ele>9.0</ele><time>2026-05-02T11:45:18.487Z</time></trkpt><trkpt lat="44.82480062623263" lon="11.558155326121573"><ele>9.0</ele><time>2026-05-02T11:45:19.487Z</time></trkpt><trkpt lat="44.82507361323607" lon="11.558255444715375"><ele>8.5</ele><time>2026-05-02T11:45:20.487Z</time></trkpt><trkpt lat="44.82534598297536" lon="11.558352723474123"><ele>8.0</ele><time>2026-05-02T11:45:21.487Z</time></trkpt><trkpt lat="44.825617469245046" lon="11.558448725449189"><ele>8.0</ele><time>2026-05-02T11:45:22.487Z</time></trkpt><trkpt lat="44.82589428875567" lon="11.558543968627868"><ele>8.0</ele><time>2026-05-02T11:45:23.487Z</time></trkpt><trkpt lat="44.8261694494076" lon="11.558640119360325"><ele>8.0</ele><time>2026-05-02T11:45:24.487Z</time></trkpt><trkpt lat="44.826443717848484" lon="11.558734894564484"><ele>8.0</ele><time>2026-05-02T11:45:25.487Z</time></trkpt><trkpt lat="44.8267185911501" lon="11.558829205421496"><ele>8.0</ele><time>2026-05-02T11:45:26.487Z</time></trkpt><trkpt lat="44.82699226362608" lon="11.5589257542827"><ele>8.0</ele><time>2026-05-02T11:45:27.487Z</time></trkpt><trkpt lat="44.82726884390439" lon="11.55902352799324"><ele>8.0</ele><time>2026-05-02T11:45:28.487Z</time></trkpt><trkpt lat="44.82754263577766" lon="11.559122269215866"><ele>8.0</ele><time>2026-05-02T11:45:29.487Z</time></trkpt><trkpt lat="44.82781627504425" lon="11.559219750039233"><ele>8.5</ele><time>2026-05-02T11:45:30.487Z</time></trkpt><trkpt lat="44.8280889420378" lon="11.559314856607918"><ele>9.0</ele><time>2026-05-02T11:45:31.487Z</time></trkpt><trkpt lat="44.82836449947492" lon="11.559409554016462"><ele>9.0</ele><time>2026-05-02T11:45:32.487Z</time></trkpt><trkpt lat="44.828638729913884" lon="11.559507829374867"><ele>9.0</ele><time>2026-05-02T11:45:33.487Z</time></trkpt><trkpt lat="44.82891142074107" lon="11.559602921167803"><ele>9.0</ele><time>2026-05-02T11:45:34.487Z</time></trkpt><trkpt lat="44.829186087371006" lon="11.559699952137183"><ele>9.0</ele><time>2026-05-02T11:45:35.487Z</time></trkpt><trkpt lat="44.829455462937005" lon="11.559797821605459"><ele>9.0</ele><time>2026-05-02T11:45:36.487Z</time></trkpt><trkpt lat="44.82972551543793" lon="11.55989286647389"><ele>9.0</ele><time>2026-05-02T11:45:37.487Z</time></trkpt><trkpt lat="44.82999462089641" lon="11.559983530767134"><ele>9.0</ele><time>2026-05-02T11:45:38.487Z</time></trkpt><trkpt lat="44.83025975371278" lon="11.56007828460562"><ele>9.0</ele><time>2026-05-02T11:45:39.487Z</time></trkpt><trkpt lat="44.83052455328511" lon="11.560173304502577"><ele>9.0</ele><time>2026-05-02T11:45:40.486Z</time></trkpt><trkpt lat="44.8307902849759" lon="11.560267985455239"><ele>9.0</ele><time>2026-05-02T11:45:41.486Z</time></trkpt><trkpt lat="44.83105312444067" lon="11.560357736921961"><ele>9.5</ele><time>2026-05-02T11:45:42.486Z</time></trkpt><trkpt lat="44.83132545316909" lon="11.560459174324851"><ele>10.0</ele><time>2026-05-02T11:45:43.486Z</time></trkpt><trkpt lat="44.83158991969985" lon="11.560557297332926"><ele>10.5</ele><time>2026-05-02T11:45:44.486Z</time></trkpt><trkpt lat="44.831856952396194" lon="11.56065984726171"><ele>11.0</ele><time>2026-05-02T11:45:45.486Z</time></trkpt><trkpt lat="44.83211890733419" lon="11.560747684782694"><ele>11.0</ele><time>2026-05-02T11:45:46.486Z</time></trkpt><trkpt lat="44.83238622110981" lon="11.560842678605388"><ele>11.0</ele><time>2026-05-02T11:45:47.486Z</time></trkpt><trkpt lat="44.83265128692603" lon="11.56093636512281"><ele>10.5</ele><time>2026-05-02T11:45:48.486Z</time></trkpt><trkpt lat="44.83291647432598" lon="11.561028956143506"><ele>10.0</ele><time>2026-05-02T11:45:49.486Z</time></trkpt><trkpt lat="44.83318435783539" lon="11.561126208766728"><ele>10.0</ele><time>2026-05-02T11:45:50.486Z</time></trkpt><trkpt lat="44.833448266289516" lon="11.561220334318339"><ele>10.0</ele><time>2026-05-02T11:45:51.486Z</time></trkpt><trkpt lat="44.83371131281237" lon="11.56131328972052"><ele>10.0</ele><time>2026-05-02T11:45:52.486Z</time></trkpt><trkpt lat="44.83397231251796" lon="11.561407650411729"><ele>10.0</ele><time>2026-05-02T11:45:53.486Z</time></trkpt><trkpt lat="44.834230282014424" lon="11.561499041390578"><ele>9.5</ele><time>2026-05-02T11:45:54.486Z</time></trkpt><trkpt lat="44.83448835979123" lon="11.561591310465793"><ele>9.0</ele><time>2026-05-02T11:45:55.486Z</time></trkpt><trkpt lat="44.83474269332825" lon="11.56167914487706"><ele>9.0</ele><time>2026-05-02T11:45:56.486Z</time></trkpt><trkpt lat="44.8349937474848" lon="11.561767644578604"><ele>9.0</ele><time>2026-05-02T11:45:57.486Z</time></trkpt><trkpt lat="44.835241159552275" lon="11.561862787967977"><ele>8.5</ele><time>2026-05-02T11:45:58.486Z</time></trkpt><trkpt lat="44.835489972071066" lon="11.561952045487558"><ele>8.0</ele><time>2026-05-02T11:45:59.486Z</time></trkpt><trkpt lat="44.835740414175895" lon="11.562034130503688"><ele>8.5</ele><time>2026-05-02T11:46:00.486Z</time></trkpt><trkpt lat="44.83599451496072" lon="11.562116334595583"><ele>9.0</ele><time>2026-05-02T11:46:01.486Z</time></trkpt><trkpt lat="44.83624664522964" lon="11.562201734765901"><ele>9.0</ele><time>2026-05-02T11:46:02.486Z</time></trkpt><trkpt lat="44.836504195060414" lon="11.5622874821746"><ele>9.0</ele><time>2026-05-02T11:46:03.486Z</time></trkpt><trkpt lat="44.83675860515068" lon="11.562375866956074"><ele>8.5</ele><time>2026-05-02T11:46:04.486Z</time></trkpt><trkpt lat="44.8370163803028" lon="11.562467308464445"><ele>8.0</ele><time>2026-05-02T11:46:05.486Z</time></trkpt><trkpt lat="44.83727286308322" lon="11.562556863901886"><ele>8.0</ele><time>2026-05-02T11:46:06.485Z</time></trkpt><trkpt lat="44.83752725057472" lon="11.562645352990467"><ele>8.0</ele><time>2026-05-02T11:46:07.485Z</time></trkpt><trkpt lat="44.837785997789474" lon="11.56274125088198"><ele>8.0</ele><time>2026-05-02T11:46:08.485Z</time></trkpt><trkpt lat="44.83804205825575" lon="11.562835327849667"><ele>8.0</ele><time>2026-05-02T11:46:09.485Z</time></trkpt><trkpt lat="44.838297561327416" lon="11.562924382572833"><ele>9.0</ele><time>2026-05-02T11:46:10.485Z</time></trkpt><trkpt lat="44.83855383648545" lon="11.563014033349756"><ele>10.0</ele><time>2026-05-02T11:46:11.485Z</time></trkpt><trkpt lat="44.83881188582838" lon="11.563107362342572"><ele>10.0</ele><time>2026-05-02T11:46:12.485Z</time></trkpt><trkpt lat="44.83906608037037" lon="11.563200308790147"><ele>10.0</ele><time>2026-05-02T11:46:13.485Z</time></trkpt><trkpt lat="44.83932330105037" lon="11.563290623861988"><ele>10.0</ele><time>2026-05-02T11:46:14.485Z</time></trkpt><trkpt lat="44.839580360021074" lon="11.563379926122796"><ele>10.0</ele><time>2026-05-02T11:46:15.485Z</time></trkpt><trkpt lat="44.8398344579113" lon="11.563469495558717"><ele>10.0</ele><time>2026-05-02T11:46:16.485Z</time></trkpt><trkpt lat="44.84008788792405" lon="11.563558808877989"><ele>10.0</ele><time>2026-05-02T11:46:17.485Z</time></trkpt><trkpt lat="44.84033891632203" lon="11.563644246400386"><ele>9.5</ele><time>2026-05-02T11:46:18.485Z</time></trkpt><trkpt lat="44.840590373490016" lon="11.563731323087465"><ele>9.0</ele><time>2026-05-02T11:46:19.485Z</time></trkpt><trkpt lat="44.84083864392635" lon="11.563820221254867"><ele>10.0</ele><time>2026-05-02T11:46:20.485Z</time></trkpt><trkpt lat="44.8410945348195" lon="11.56391243556353"><ele>11.0</ele><time>2026-05-02T11:46:21.485Z</time></trkpt><trkpt lat="44.84134567305976" lon="11.563999119560737"><ele>11.0</ele><time>2026-05-02T11:46:22.485Z</time></trkpt><trkpt lat="44.84159856877356" lon="11.564077888373166"><ele>11.0</ele><time>2026-05-02T11:46:23.485Z</time></trkpt><trkpt lat="44.84185167744813" lon="11.564169528559608"><ele>11.0</ele><time>2026-05-02T11:46:24.485Z</time></trkpt><trkpt lat="44.84210744535082" lon="11.564261185964744"><ele>11.0</ele><time>2026-05-02T11:46:25.485Z</time></trkpt><trkpt lat="44.842370440503224" lon="11.564355088826145"><ele>10.5</ele><time>2026-05-02T11:46:26.485Z</time></trkpt><trkpt lat="44.842638297989765" lon="11.564446918638973"><ele>10.0</ele><time>2026-05-02T11:46:27.485Z</time></trkpt><trkpt lat="44.842903406764705" lon="11.56453922270753"><ele>10.0</ele><time>2026-05-02T11:46:28.485Z</time></trkpt><trkpt lat="44.843172800413065" lon="11.564636390598041"><ele>10.0</ele><time>2026-05-02T11:46:29.485Z</time></trkpt><trkpt lat="44.84344115693358" lon="11.56472988794029"><ele>9.5</ele><time>2026-05-02T11:46:30.485Z</time></trkpt><trkpt lat="44.84371097471667" lon="11.564816725159854"><ele>9.0</ele><time>2026-05-02T11:46:31.484Z</time></trkpt><trkpt lat="44.84398032688555" lon="11.564908261009263"><ele>9.0</ele><time>2026-05-02T11:46:32.484Z</time></trkpt><trkpt lat="44.84424866949838" lon="11.565003780567908"><ele>9.0</ele><time>2026-05-02T11:46:33.484Z</time></trkpt><trkpt lat="44.84451717063766" lon="11.565105547185555"><ele>9.5</ele><time>2026-05-02T11:46:34.484Z</time></trkpt><trkpt lat="44.844783430098744" lon="11.565199796902588"><ele>10.0</ele><time>2026-05-02T11:46:35.484Z</time></trkpt><trkpt lat="44.84504590587365" lon="11.565291785727668"><ele>9.5</ele><time>2026-05-02T11:46:36.484Z</time></trkpt><trkpt lat="44.84530712937973" lon="11.56538281806087"><ele>9.0</ele><time>2026-05-02T11:46:37.484Z</time></trkpt><trkpt lat="44.84556820026412" lon="11.565471909281255"><ele>9.0</ele><time>2026-05-02T11:46:38.484Z</time></trkpt><trkpt lat="44.84583076200272" lon="11.565561226544137"><ele>9.0</ele><time>2026-05-02T11:46:39.484Z</time></trkpt><trkpt lat="44.84609144711916" lon="11.565654136874896"><ele>9.0</ele><time>2026-05-02T11:46:40.484Z</time></trkpt><trkpt lat="44.846351671851444" lon="11.565747707283808"><ele>9.0</ele><time>2026-05-02T11:46:41.484Z</time></trkpt><trkpt lat="44.846610957528206" lon="11.565837253709853"><ele>9.0</ele><time>2026-05-02T11:46:42.484Z</time></trkpt><trkpt lat="44.84686635871747" lon="11.565926565658554"><ele>9.0</ele><time>2026-05-02T11:46:43.484Z</time></trkpt><trkpt lat="44.84711976346275" lon="11.566017866689927"><ele>9.0</ele><time>2026-05-02T11:46:44.484Z</time></trkpt><trkpt lat="44.847372359304515" lon="11.56610312276267"><ele>9.0</ele><time>2026-05-02T11:46:45.484Z</time></trkpt><trkpt lat="44.847620419637124" lon="11.566193103107992"><ele>9.5</ele><time>2026-05-02T11:46:46.484Z</time></trkpt><trkpt lat="44.84787368419652" lon="11.566283690468213"><ele>10.0</ele><time>2026-05-02T11:46:47.484Z</time></trkpt><trkpt lat="44.848129778558956" lon="11.566370545417394"><ele>10.0</ele><time>2026-05-02T11:46:48.484Z</time></trkpt><trkpt lat="44.84838781317591" lon="11.566460830856355"><ele>10.0</ele><time>2026-05-02T11:46:49.484Z</time></trkpt><trkpt lat="44.84864515994543" lon="11.56654933100484"><ele>9.5</ele><time>2026-05-02T11:46:50.484Z</time></trkpt><trkpt lat="44.84890392995734" lon="11.566639137644938"><ele>9.0</ele><time>2026-05-02T11:46:51.484Z</time></trkpt><trkpt lat="44.84916597551094" lon="11.566728716356248"><ele>7.5</ele><time>2026-05-02T11:46:52.484Z</time></trkpt><trkpt lat="44.84942849765346" lon="11.566822185317449"><ele>6.0</ele><time>2026-05-02T11:46:53.484Z</time></trkpt><trkpt lat="44.84968800724002" lon="11.566918883779103"><ele>6.0</ele><time>2026-05-02T11:46:54.484Z</time></trkpt><trkpt lat="44.84994875964321" lon="11.56701140479827"><ele>6.0</ele><time>2026-05-02T11:46:55.484Z</time></trkpt><trkpt lat="44.850205207661936" lon="11.567101069619309"><ele>8.0</ele><time>2026-05-02T11:46:56.483Z</time></trkpt><trkpt lat="44.85046437494259" lon="11.567194048313379"><ele>10.0</ele><time>2026-05-02T11:46:57.483Z</time></trkpt><trkpt lat="44.85072546897282" lon="11.567283116353721"><ele>8.5</ele><time>2026-05-02T11:46:58.483Z</time></trkpt><trkpt lat="44.85098632866453" lon="11.567376507539299"><ele>7.0</ele><time>2026-05-02T11:46:59.483Z</time></trkpt><trkpt lat="44.85124590980878" lon="11.567470307179779"><ele>7.0</ele><time>2026-05-02T11:47:00.483Z</time></trkpt><trkpt lat="44.851503898402115" lon="11.567563326001794"><ele>7.0</ele><time>2026-05-02T11:47:01.483Z</time></trkpt><trkpt lat="44.85176194925431" lon="11.567652230736982"><ele>5.5</ele><time>2026-05-02T11:47:02.483Z</time></trkpt><trkpt lat="44.852018439963274" lon="11.567743020696748"><ele>4.0</ele><time>2026-05-02T11:47:03.483Z</time></trkpt><trkpt lat="44.85227617749446" lon="11.567832941139965"><ele>3.5</ele><time>2026-05-02T11:47:04.484Z</time></trkpt><trkpt lat="44.85253501993862" lon="11.567922817485897"><ele>3.0</ele><time>2026-05-02T11:47:05.484Z</time></trkpt><trkpt lat="44.85279067509634" lon="11.56801313450779"><ele>3.0</ele><time>2026-05-02T11:47:06.484Z</time></trkpt><trkpt lat="44.85305080117012" lon="11.568105144625306"><ele>3.0</ele><time>2026-05-02T11:47:07.484Z</time></trkpt><trkpt lat="44.853306724059934" lon="11.568197921844265"><ele>4.5</ele><time>2026-05-02T11:47:08.484Z</time></trkpt><trkpt lat="44.85355725554415" lon="11.568291361119684"><ele>6.0</ele><time>2026-05-02T11:47:09.483Z</time></trkpt><trkpt lat="44.85381167193325" lon="11.568383472628327"><ele>6.0</ele><time>2026-05-02T11:47:10.484Z</time></trkpt><trkpt lat="44.854065983167956" lon="11.568472694896897"><ele>6.0</ele><time>2026-05-02T11:47:11.483Z</time></trkpt><trkpt lat="44.85432193339886" lon="11.56856080178824"><ele>6.0</ele><time>2026-05-02T11:47:12.483Z</time></trkpt><trkpt lat="44.854581052365454" lon="11.568646833147644"><ele>6.0</ele><time>2026-05-02T11:47:13.483Z</time></trkpt><trkpt lat="44.85483742718428" lon="11.56873577821474"><ele>5.5</ele><time>2026-05-02T11:47:14.483Z</time></trkpt><trkpt lat="44.85509489599559" lon="11.568821306279386"><ele>5.0</ele><time>2026-05-02T11:47:15.483Z</time></trkpt><trkpt lat="44.855355419858505" lon="11.568912204284258"><ele>3.0</ele><time>2026-05-02T11:47:16.483Z</time></trkpt><trkpt lat="44.85561564123565" lon="11.569007163250975"><ele>1.0</ele><time>2026-05-02T11:47:17.483Z</time></trkpt><trkpt lat="44.855877039559324" lon="11.569095496105126"><ele>0.5</ele><time>2026-05-02T11:47:18.483Z</time></trkpt><trkpt lat="44.85613375245193" lon="11.569189233776925"><ele>0.0</ele><time>2026-05-02T11:47:19.483Z</time></trkpt><trkpt lat="44.85639177171991" lon="11.569282180050665"><ele>0.0</ele><time>2026-05-02T11:47:20.483Z</time></trkpt><trkpt lat="44.85665201987869" lon="11.569374213033628"><ele>0.0</ele><time>2026-05-02T11:47:21.483Z</time></trkpt><trkpt lat="44.85690606910264" lon="11.569463615768345"><ele>1.5</ele><time>2026-05-02T11:47:22.483Z</time></trkpt><trkpt lat="44.857162573171976" lon="11.56954884509978"><ele>3.0</ele><time>2026-05-02T11:47:23.483Z</time></trkpt><trkpt lat="44.85741636175842" lon="11.569625746302874"><ele>2.5</ele><time>2026-05-02T11:47:24.483Z</time></trkpt><trkpt lat="44.85767348428158" lon="11.569700199127258"><ele>2.0</ele><time>2026-05-02T11:47:25.483Z</time></trkpt><trkpt lat="44.85792591535004" lon="11.569765595643752"><ele>2.0</ele><time>2026-05-02T11:47:26.483Z</time></trkpt><trkpt lat="44.85817955776348" lon="11.569825386939065"><ele>2.0</ele><time>2026-05-02T11:47:27.483Z</time></trkpt><trkpt lat="44.858438867039744" lon="11.569878071925743"><ele>4.5</ele><time>2026-05-02T11:47:28.483Z</time></trkpt><trkpt lat="44.858696520062836" lon="11.569929195803981"><ele>7.0</ele><time>2026-05-02T11:47:29.483Z</time></trkpt><trkpt lat="44.858954762017966" lon="11.569976720291047"><ele>7.0</ele><time>2026-05-02T11:47:30.483Z</time></trkpt><trkpt lat="44.85921706488609" lon="11.570010242163615"><ele>7.0</ele><time>2026-05-02T11:47:31.483Z</time></trkpt><trkpt lat="44.859480657430936" lon="11.570032989572056"><ele>6.0</ele><time>2026-05-02T11:47:32.483Z</time></trkpt><trkpt lat="44.85974719110797" lon="11.570055961466252"><ele>5.0</ele><time>2026-05-02T11:47:33.483Z</time></trkpt><trkpt lat="44.86001436151697" lon="11.57007028062673"><ele>5.5</ele><time>2026-05-02T11:47:34.483Z</time></trkpt><trkpt lat="44.86028297526787" lon="11.570078124629594"><ele>6.0</ele><time>2026-05-02T11:47:35.483Z</time></trkpt><trkpt lat="44.86054945592479" lon="11.57007774628167"><ele>6.0</ele><time>2026-05-02T11:47:36.483Z</time></trkpt><trkpt lat="44.86081872038485" lon="11.570079681074096"><ele>6.0</ele><time>2026-05-02T11:47:37.483Z</time></trkpt><trkpt lat="44.861087971084956" lon="11.570074680460458"><ele>5.0</ele><time>2026-05-02T11:47:38.483Z</time></trkpt><trkpt lat="44.861355775047095" lon="11.57007182692378"><ele>4.0</ele><time>2026-05-02T11:47:39.483Z</time></trkpt><trkpt lat="44.86162431915919" lon="11.570069594228226"><ele>4.5</ele><time>2026-05-02T11:47:40.483Z</time></trkpt><trkpt lat="44.861886701970214" lon="11.570071185316648"><ele>5.0</ele><time>2026-05-02T11:47:41.482Z</time></trkpt><trkpt lat="44.86214528783764" lon="11.570077646441854"><ele>5.0</ele><time>2026-05-02T11:47:42.482Z</time></trkpt><trkpt lat="44.86239892148555" lon="11.57008659665092"><ele>5.0</ele><time>2026-05-02T11:47:43.482Z</time></trkpt><trkpt lat="44.86265751221902" lon="11.570093689619505"><ele>5.0</ele><time>2026-05-02T11:47:44.482Z</time></trkpt><trkpt lat="44.86291406182274" lon="11.57009824586589"><ele>5.0</ele><time>2026-05-02T11:47:45.482Z</time></trkpt><trkpt lat="44.86317038850063" lon="11.570102069287328"><ele>5.0</ele><time>2026-05-02T11:47:46.482Z</time></trkpt><trkpt lat="44.86342912405241" lon="11.57009874162966"><ele>5.0</ele><time>2026-05-02T11:47:47.482Z</time></trkpt><trkpt lat="44.863690542763415" lon="11.570094944131556"><ele>4.0</ele><time>2026-05-02T11:47:48.482Z</time></trkpt><trkpt lat="44.863947754630864" lon="11.570101266053765"><ele>3.0</ele><time>2026-05-02T11:47:49.482Z</time></trkpt><trkpt lat="44.86420462212421" lon="11.570099071878628"><ele>4.5</ele><time>2026-05-02T11:47:50.482Z</time></trkpt><trkpt lat="44.864462382816015" lon="11.570099662060214"><ele>6.0</ele><time>2026-05-02T11:47:51.482Z</time></trkpt><trkpt lat="44.864720768233234" lon="11.570097807066055"><ele>6.0</ele><time>2026-05-02T11:47:52.482Z</time></trkpt><trkpt lat="44.864980444781985" lon="11.570094545737396"><ele>6.0</ele><time>2026-05-02T11:47:53.482Z</time></trkpt><trkpt lat="44.865240391731376" lon="11.570093960288919"><ele>6.0</ele><time>2026-05-02T11:47:54.482Z</time></trkpt><trkpt lat="44.865501478674766" lon="11.570091125666814"><ele>6.0</ele><time>2026-05-02T11:47:55.482Z</time></trkpt><trkpt lat="44.865761691374985" lon="11.570090320273614"><ele>3.0</ele><time>2026-05-02T11:47:56.482Z</time></trkpt><trkpt lat="44.86602385099652" lon="11.57009368624531"><ele>0.0</ele><time>2026-05-02T11:47:57.482Z</time></trkpt><trkpt lat="44.86628770126528" lon="11.570096534577699"><ele>0.0</ele><time>2026-05-02T11:47:58.482Z</time></trkpt><trkpt lat="44.86655092301481" lon="11.570097425053538"><ele>0.0</ele><time>2026-05-02T11:47:59.482Z</time></trkpt><trkpt lat="44.86682001883303" lon="11.57010408811855"><ele>1.5</ele><time>2026-05-02T11:48:00.482Z</time></trkpt><trkpt lat="44.86708864248446" lon="11.570104823328778"><ele>3.0</ele><time>2026-05-02T11:48:01.482Z</time></trkpt><trkpt lat="44.86735774285476" lon="11.570100856049448"><ele>3.5</ele><time>2026-05-02T11:48:02.482Z</time></trkpt><trkpt lat="44.867630158082534" lon="11.570105593378695"><ele>4.0</ele><time>2026-05-02T11:48:03.482Z</time></trkpt><trkpt lat="44.867899673714945" lon="11.570108798311026"><ele>4.0</ele><time>2026-05-02T11:48:04.482Z</time></trkpt><trkpt lat="44.86817372756925" lon="11.57011135981403"><ele>4.0</ele><time>2026-05-02T11:48:05.482Z</time></trkpt><trkpt lat="44.86844668079766" lon="11.570113389366268"><ele>5.0</ele><time>2026-05-02T11:48:06.481Z</time></trkpt><trkpt lat="44.86871514500817" lon="11.570115784765948"><ele>6.0</ele><time>2026-05-02T11:48:07.481Z</time></trkpt><trkpt lat="44.8689823005505" lon="11.57012231479091"><ele>6.0</ele><time>2026-05-02T11:48:08.481Z</time></trkpt><trkpt lat="44.86924860926542" lon="11.570128411226026"><ele>6.0</ele><time>2026-05-02T11:48:09.481Z</time></trkpt><trkpt lat="44.86951610134349" lon="11.570132707844696"><ele>6.0</ele><time>2026-05-02T11:48:10.481Z</time></trkpt><trkpt lat="44.8697844468064" lon="11.570135066612306"><ele>6.0</ele><time>2026-05-02T11:48:11.481Z</time></trkpt><trkpt lat="44.870050887313724" lon="11.570136446573633"><ele>5.0</ele><time>2026-05-02T11:48:12.481Z</time></trkpt><trkpt lat="44.87031337435857" lon="11.570138774751326"><ele>4.0</ele><time>2026-05-02T11:48:13.481Z</time></trkpt><trkpt lat="44.870581903023606" lon="11.570142121383277"><ele>4.0</ele><time>2026-05-02T11:48:14.481Z</time></trkpt><trkpt lat="44.87085460105349" lon="11.570143335222463"><ele>4.0</ele><time>2026-05-02T11:48:15.481Z</time></trkpt><trkpt lat="44.871126249022986" lon="11.57014430901869"><ele>3.5</ele><time>2026-05-02T11:48:16.481Z</time></trkpt><trkpt lat="44.87139717643346" lon="11.570134710462845"><ele>3.0</ele><time>2026-05-02T11:48:17.481Z</time></trkpt><trkpt lat="44.87167019187909" lon="11.57013168196305"><ele>2.5</ele><time>2026-05-02T11:48:18.481Z</time></trkpt><trkpt lat="44.871939658199494" lon="11.57013157747717"><ele>2.0</ele><time>2026-05-02T11:48:19.481Z</time></trkpt><trkpt lat="44.87220908381657" lon="11.57013162381201"><ele>2.0</ele><time>2026-05-02T11:48:20.481Z</time></trkpt><trkpt lat="44.87247119572421" lon="11.570132644883737"><ele>2.0</ele><time>2026-05-02T11:48:21.481Z</time></trkpt><trkpt lat="44.87273156165436" lon="11.570137895036044"><ele>1.5</ele><time>2026-05-02T11:48:22.481Z</time></trkpt><trkpt lat="44.87299202978169" lon="11.57013727101933"><ele>1.0</ele><time>2026-05-02T11:48:23.481Z</time></trkpt><trkpt lat="44.873254810075615" lon="11.570134071092472"><ele>1.5</ele><time>2026-05-02T11:48:24.481Z</time></trkpt><trkpt lat="44.87351863448829" lon="11.57012984745319"><ele>2.0</ele><time>2026-05-02T11:48:25.481Z</time></trkpt><trkpt lat="44.873780213891294" lon="11.570128285072652"><ele>2.0</ele><time>2026-05-02T11:48:26.481Z</time></trkpt><trkpt lat="44.87404581422751" lon="11.570127256665023"><ele>2.0</ele><time>2026-05-02T11:48:27.481Z</time></trkpt><trkpt lat="44.87430750927132" lon="11.570125190450138"><ele>3.5</ele><time>2026-05-02T11:48:28.481Z</time></trkpt><trkpt lat="44.87457499901464" lon="11.570128525871349"><ele>5.0</ele><time>2026-05-02T11:48:29.481Z</time></trkpt><trkpt lat="44.87483999208938" lon="11.570134755045155"><ele>3.5</ele><time>2026-05-02T11:48:30.481Z</time></trkpt><trkpt lat="44.8751088051366" lon="11.570130226507532"><ele>2.0</ele><time>2026-05-02T11:48:31.481Z</time></trkpt><trkpt lat="44.875376147011586" lon="11.570132692064348"><ele>2.0</ele><time>2026-05-02T11:48:32.48Z</time></trkpt><trkpt lat="44.87564395008946" lon="11.570128500533768"><ele>2.0</ele><time>2026-05-02T11:48:33.48Z</time></trkpt><trkpt lat="44.87591552498219" lon="11.570126216489768"><ele>2.0</ele><time>2026-05-02T11:48:34.48Z</time></trkpt><trkpt lat="44.87618496812952" lon="11.570126158854844"><ele>2.0</ele><time>2026-05-02T11:48:35.48Z</time></trkpt><trkpt lat="44.876454986391934" lon="11.570123385484333"><ele>2.0</ele><time>2026-05-02T11:48:36.48Z</time></trkpt><trkpt lat="44.87672125706883" lon="11.570126217689682"><ele>2.0</ele><time>2026-05-02T11:48:37.48Z</time></trkpt><trkpt lat="44.87698826779977" lon="11.570129654202079"><ele>2.0</ele><time>2026-05-02T11:48:38.48Z</time></trkpt><trkpt lat="44.87725673545782" lon="11.57013177554503"><ele>2.0</ele><time>2026-05-02T11:48:39.48Z</time></trkpt><trkpt lat="44.87752468568204" lon="11.570135054938993"><ele>3.0</ele><time>2026-05-02T11:48:40.48Z</time></trkpt><trkpt lat="44.87779148558902" lon="11.570140242550986"><ele>4.0</ele><time>2026-05-02T11:48:41.48Z</time></trkpt><trkpt lat="44.87806193864188" lon="11.570143118883786"><ele>4.0</ele><time>2026-05-02T11:48:42.48Z</time></trkpt><trkpt lat="44.878332681355786" lon="11.570140532023848"><ele>4.0</ele><time>2026-05-02T11:48:43.48Z</time></trkpt><trkpt lat="44.878602166353694" lon="11.570141462328461"><ele>5.0</ele><time>2026-05-02T11:48:44.48Z</time></trkpt><trkpt lat="44.87887345480548" lon="11.570147690127287"><ele>6.0</ele><time>2026-05-02T11:48:45.48Z</time></trkpt><trkpt lat="44.879142110311555" lon="11.570150469903076"><ele>5.0</ele><time>2026-05-02T11:48:46.48Z</time></trkpt><trkpt lat="44.87940947773331" lon="11.570149746674458"><ele>4.0</ele><time>2026-05-02T11:48:47.48Z</time></trkpt><trkpt lat="44.87967425597705" lon="11.57015200749049"><ele>4.0</ele><time>2026-05-02T11:48:48.48Z</time></trkpt><trkpt lat="44.87993876878667" lon="11.570150205194912"><ele>4.0</ele><time>2026-05-02T11:48:49.48Z</time></trkpt><trkpt lat="44.880209297471474" lon="11.57014974650009"><ele>3.5</ele><time>2026-05-02T11:48:50.48Z</time></trkpt><trkpt lat="44.88047866881799" lon="11.570150019347832"><ele>3.0</ele><time>2026-05-02T11:48:51.48Z</time></trkpt><trkpt lat="44.880745812179676" lon="11.570148082477079"><ele>4.0</ele><time>2026-05-02T11:48:52.48Z</time></trkpt><trkpt lat="44.88100953540977" lon="11.570144896450822"><ele>5.0</ele><time>2026-05-02T11:48:53.48Z</time></trkpt><trkpt lat="44.88127688077033" lon="11.570144567876557"><ele>5.0</ele><time>2026-05-02T11:48:54.48Z</time></trkpt><trkpt lat="44.88154372702932" lon="11.570143979166543"><ele>5.0</ele><time>2026-05-02T11:48:55.48Z</time></trkpt><trkpt lat="44.88180936897967" lon="11.57014214709374"><ele>4.5</ele><time>2026-05-02T11:48:56.48Z</time></trkpt><trkpt lat="44.882076745986865" lon="11.570140316325784"><ele>4.0</ele><time>2026-05-02T11:48:57.479Z</time></trkpt><trkpt lat="44.88233800454708" lon="11.57014160141913"><ele>4.0</ele><time>2026-05-02T11:48:58.479Z</time></trkpt><trkpt lat="44.882600786316296" lon="11.570143773970631"><ele>4.0</ele><time>2026-05-02T11:48:59.479Z</time></trkpt><trkpt lat="44.88286460093185" lon="11.570147032178944"><ele>4.0</ele><time>2026-05-02T11:49:00.479Z</time></trkpt><trkpt lat="44.88312818837183" lon="11.57015477044936"><ele>4.0</ele><time>2026-05-02T11:49:01.479Z</time></trkpt><trkpt lat="44.88339063560926" lon="11.570160484522884"><ele>4.0</ele><time>2026-05-02T11:49:02.479Z</time></trkpt><trkpt lat="44.88365104966148" lon="11.570158427703639"><ele>4.0</ele><time>2026-05-02T11:49:03.479Z</time></trkpt><trkpt lat="44.88391365734119" lon="11.570156285096523"><ele>4.0</ele><time>2026-05-02T11:49:04.479Z</time></trkpt><trkpt lat="44.88417523037518" lon="11.570154848892109"><ele>4.0</ele><time>2026-05-02T11:49:05.479Z</time></trkpt><trkpt lat="44.88443873297372" lon="11.570154802574072"><ele>4.0</ele><time>2026-05-02T11:49:06.479Z</time></trkpt><trkpt lat="44.8847001666536" lon="11.570155608937009"><ele>4.0</ele><time>2026-05-02T11:49:07.479Z</time></trkpt><trkpt lat="44.884964787470366" lon="11.570158418921816"><ele>4.0</ele><time>2026-05-02T11:49:08.479Z</time></trkpt><trkpt lat="44.885237125834394" lon="11.570160169637656"><ele>4.0</ele><time>2026-05-02T11:49:09.479Z</time></trkpt><trkpt lat="44.88551230432575" lon="11.570162297884337"><ele>4.0</ele><time>2026-05-02T11:49:10.48Z</time></trkpt><trkpt lat="44.8857902862707" lon="11.570160360053064"><ele>4.0</ele><time>2026-05-02T11:49:11.48Z</time></trkpt><trkpt lat="44.886066567850534" lon="11.570158913793874"><ele>4.5</ele><time>2026-05-02T11:49:12.48Z</time></trkpt><trkpt lat="44.88633936191212" lon="11.570159040358583"><ele>5.0</ele><time>2026-05-02T11:49:13.481Z</time></trkpt><trkpt lat="44.886608857568" lon="11.570165205735835"><ele>4.0</ele><time>2026-05-02T11:49:14.48Z</time></trkpt><trkpt lat="44.886865608950565" lon="11.570174047673547"><ele>3.0</ele><time>2026-05-02T11:49:15.48Z</time></trkpt><trkpt lat="44.88712407033217" lon="11.570177005011676"><ele>3.0</ele><time>2026-05-02T11:49:16.48Z</time></trkpt><trkpt lat="44.88738404984481" lon="11.570172691333424"><ele>3.0</ele><time>2026-05-02T11:49:17.479Z</time></trkpt><trkpt lat="44.88764441889143" lon="11.570168110673112"><ele>3.5</ele><time>2026-05-02T11:49:18.479Z</time></trkpt><trkpt lat="44.88790321287184" lon="11.570170433609718"><ele>4.0</ele><time>2026-05-02T11:49:19.48Z</time></trkpt><trkpt lat="44.88816669636241" lon="11.570175181928253"><ele>5.0</ele><time>2026-05-02T11:49:20.48Z</time></trkpt><trkpt lat="44.888427839951355" lon="11.57018331229588"><ele>6.0</ele><time>2026-05-02T11:49:21.48Z</time></trkpt><trkpt lat="44.88868999135466" lon="11.570181021170814"><ele>6.0</ele><time>2026-05-02T11:49:22.48Z</time></trkpt><trkpt lat="44.88894739092665" lon="11.57017930977171"><ele>6.0</ele><time>2026-05-02T11:49:23.48Z</time></trkpt><trkpt lat="44.88920549627145" lon="11.570183991537904"><ele>6.0</ele><time>2026-05-02T11:49:24.48Z</time></trkpt><trkpt lat="44.88945397682227" lon="11.570180647929451"><ele>6.0</ele><time>2026-05-02T11:49:25.48Z</time></trkpt><trkpt lat="44.88970274790929" lon="11.570184219873983"><ele>6.0</ele><time>2026-05-02T11:49:26.48Z</time></trkpt><trkpt lat="44.889952534801424" lon="11.570189507555137"><ele>6.0</ele><time>2026-05-02T11:49:27.48Z</time></trkpt><trkpt lat="44.89020415593166" lon="11.570190428228699"><ele>5.5</ele><time>2026-05-02T11:49:28.48Z</time></trkpt><trkpt lat="44.890458414716825" lon="11.57019285091083"><ele>5.0</ele><time>2026-05-02T11:49:29.48Z</time></trkpt><trkpt lat="44.89071007625362" lon="11.570188724161598"><ele>4.0</ele><time>2026-05-02T11:49:30.48Z</time></trkpt><trkpt lat="44.890946404950135" lon="11.570189358143182"><ele>3.0</ele><time>2026-05-02T11:49:31.48Z</time></trkpt><trkpt lat="44.891178217037485" lon="11.570190311821982"><ele>3.0</ele><time>2026-05-02T11:49:32.48Z</time></trkpt><trkpt lat="44.891403381372086" lon="11.570194215019022"><ele>3.0</ele><time>2026-05-02T11:49:33.48Z</time></trkpt><trkpt lat="44.89163439057369" lon="11.570206131347131"><ele>4.0</ele><time>2026-05-02T11:49:34.48Z</time></trkpt><trkpt lat="44.891868981945144" lon="11.57021480663138"><ele>5.0</ele><time>2026-05-02T11:49:35.479Z</time></trkpt><trkpt lat="44.89210338630428" lon="11.570221986650457"><ele>5.0</ele><time>2026-05-02T11:49:36.479Z</time></trkpt><trkpt lat="44.892343857636185" lon="11.570241138090719"><ele>5.0</ele><time>2026-05-02T11:49:37.479Z</time></trkpt><trkpt lat="44.89258856797324" lon="11.570253083251025"><ele>4.0</ele><time>2026-05-02T11:49:38.479Z</time></trkpt><trkpt lat="44.8928333022095" lon="11.570264971428994"><ele>3.0</ele><time>2026-05-02T11:49:39.479Z</time></trkpt><trkpt lat="44.89307956934528" lon="11.570267880913029"><ele>3.0</ele><time>2026-05-02T11:49:40.479Z</time></trkpt><trkpt lat="44.893340545765355" lon="11.570248085547826"><ele>3.0</ele><time>2026-05-02T11:49:41.479Z</time></trkpt><trkpt lat="44.89358914061283" lon="11.570240209840527"><ele>4.5</ele><time>2026-05-02T11:49:42.479Z</time></trkpt><trkpt lat="44.89383930587485" lon="11.570229910910825"><ele>6.0</ele><time>2026-05-02T11:49:43.479Z</time></trkpt><trkpt lat="44.89408695716464" lon="11.57022354360445"><ele>5.5</ele><time>2026-05-02T11:49:44.479Z</time></trkpt><trkpt lat="44.894331916346566" lon="11.570221556559192"><ele>5.0</ele><time>2026-05-02T11:49:45.479Z</time></trkpt><trkpt lat="44.894578580464795" lon="11.570218486967352"><ele>5.0</ele><time>2026-05-02T11:49:46.479Z</time></trkpt><trkpt lat="44.89482494598588" lon="11.570219710150047"><ele>5.0</ele><time>2026-05-02T11:49:47.479Z</time></trkpt><trkpt lat="44.89507290440728" lon="11.570220507080023"><ele>5.0</ele><time>2026-05-02T11:49:48.479Z</time></trkpt><trkpt lat="44.895323445435054" lon="11.570222331154023"><ele>5.0</ele><time>2026-05-02T11:49:49.479Z</time></trkpt><trkpt lat="44.89557902194621" lon="11.570219389908628"><ele>5.0</ele><time>2026-05-02T11:49:50.479Z</time></trkpt><trkpt lat="44.89583423685664" lon="11.57022109091229"><ele>5.0</ele><time>2026-05-02T11:49:51.479Z</time></trkpt><trkpt lat="44.896086474846584" lon="11.570219465353903"><ele>4.5</ele><time>2026-05-02T11:49:52.479Z</time></trkpt><trkpt lat="44.896342540132906" lon="11.57021636813591"><ele>4.0</ele><time>2026-05-02T11:49:53.479Z</time></trkpt><trkpt lat="44.89660058128998" lon="11.570215650876033"><ele>4.5</ele><time>2026-05-02T11:49:54.479Z</time></trkpt><trkpt lat="44.896856822927916" lon="11.570215340617832"><ele>5.0</ele><time>2026-05-02T11:49:55.479Z</time></trkpt><trkpt lat="44.897114470527505" lon="11.570217823631623"><ele>5.0</ele><time>2026-05-02T11:49:56.479Z</time></trkpt><trkpt lat="44.89737345561903" lon="11.570216361389624"><ele>5.0</ele><time>2026-05-02T11:49:57.479Z</time></trkpt><trkpt lat="44.89763299576838" lon="11.570209253351548"><ele>4.5</ele><time>2026-05-02T11:49:58.479Z</time></trkpt><trkpt lat="44.89789596492826" lon="11.570196248176602"><ele>4.0</ele><time>2026-05-02T11:49:59.479Z</time></trkpt><trkpt lat="44.898162332443604" lon="11.570184280607661"><ele>5.0</ele><time>2026-05-02T11:50:00.479Z</time></trkpt><trkpt lat="44.89842917150263" lon="11.570180908766536"><ele>6.0</ele><time>2026-05-02T11:50:01.478Z</time></trkpt><trkpt lat="44.89869224931694" lon="11.570184308963483"><ele>6.0</ele><time>2026-05-02T11:50:02.478Z</time></trkpt><trkpt lat="44.89895519627222" lon="11.570188537154255"><ele>6.0</ele><time>2026-05-02T11:50:03.478Z</time></trkpt><trkpt lat="44.89921553956851" lon="11.570190261923914"><ele>5.5</ele><time>2026-05-02T11:50:04.478Z</time></trkpt><trkpt lat="44.89947571566866" lon="11.570191365837202"><ele>5.0</ele><time>2026-05-02T11:50:05.478Z</time></trkpt><trkpt lat="44.899741194153066" lon="11.570187511694554"><ele>5.0</ele><time>2026-05-02T11:50:06.478Z</time></trkpt><trkpt lat="44.90001096163709" lon="11.570182546891402"><ele>5.0</ele><time>2026-05-02T11:50:07.478Z</time></trkpt><trkpt lat="44.90028224035578" lon="11.570180644626536"><ele>6.0</ele><time>2026-05-02T11:50:08.478Z</time></trkpt><trkpt lat="44.900554659841475" lon="11.570182141678664"><ele>7.0</ele><time>2026-05-02T11:50:09.478Z</time></trkpt><trkpt lat="44.90082945716306" lon="11.570178700654942"><ele>5.5</ele><time>2026-05-02T11:50:10.478Z</time></trkpt><trkpt lat="44.901107422924454" lon="11.570175039180738"><ele>4.0</ele><time>2026-05-02T11:50:11.478Z</time></trkpt><trkpt lat="44.90138301263625" lon="11.570172659406346"><ele>4.0</ele><time>2026-05-02T11:50:12.478Z</time></trkpt><trkpt lat="44.9016543795796" lon="11.570170593082668"><ele>4.0</ele><time>2026-05-02T11:50:13.478Z</time></trkpt><trkpt lat="44.901918478567595" lon="11.570176996746424"><ele>4.5</ele><time>2026-05-02T11:50:14.478Z</time></trkpt><trkpt lat="44.90218334923729" lon="11.570193308172865"><ele>5.0</ele><time>2026-05-02T11:50:15.478Z</time></trkpt><trkpt lat="44.90243666889046" lon="11.570217242068727"><ele>4.5</ele><time>2026-05-02T11:50:16.478Z</time></trkpt><trkpt lat="44.902700561984744" lon="11.57023576754288"><ele>4.0</ele><time>2026-05-02T11:50:17.478Z</time></trkpt><trkpt lat="44.90296591369002" lon="11.570244142414515"><ele>4.0</ele><time>2026-05-02T11:50:18.478Z</time></trkpt><trkpt lat="44.90323380566404" lon="11.57024482614465"><ele>4.0</ele><time>2026-05-02T11:50:19.478Z</time></trkpt><trkpt lat="44.90350333922384" lon="11.570245668755097"><ele>4.5</ele><time>2026-05-02T11:50:20.478Z</time></trkpt><trkpt lat="44.90377335828171" lon="11.57024610018382"><ele>5.0</ele><time>2026-05-02T11:50:21.478Z</time></trkpt><trkpt lat="44.9040436006216" lon="11.570246550508093"><ele>5.5</ele><time>2026-05-02T11:50:22.478Z</time></trkpt><trkpt lat="44.9043135968718" lon="11.570246712632125"><ele>6.0</ele><time>2026-05-02T11:50:23.478Z</time></trkpt><trkpt lat="44.904584762701006" lon="11.570247495613335"><ele>6.0</ele><time>2026-05-02T11:50:24.478Z</time></trkpt><trkpt lat="44.90485519803377" lon="11.570252189982185"><ele>6.0</ele><time>2026-05-02T11:50:25.478Z</time></trkpt><trkpt lat="44.905128011336025" lon="11.570256748198126"><ele>6.0</ele><time>2026-05-02T11:50:26.477Z</time></trkpt><trkpt lat="44.90539838739914" lon="11.57026561622688"><ele>6.0</ele><time>2026-05-02T11:50:27.477Z</time></trkpt><trkpt lat="44.90566765245663" lon="11.570281326939794"><ele>5.0</ele><time>2026-05-02T11:50:28.477Z</time></trkpt><trkpt lat="44.905935511629195" lon="11.570301751545845"><ele>4.0</ele><time>2026-05-02T11:50:29.477Z</time></trkpt><trkpt lat="44.90620405099842" lon="11.570336123644342"><ele>4.0</ele><time>2026-05-02T11:50:30.477Z</time></trkpt><trkpt lat="44.90647167573082" lon="11.570394360987976"><ele>4.0</ele><time>2026-05-02T11:50:31.477Z</time></trkpt><trkpt lat="44.90673790217967" lon="11.570457487194743"><ele>4.5</ele><time>2026-05-02T11:50:32.477Z</time></trkpt><trkpt lat="44.90699528388155" lon="11.57053065501672"><ele>5.0</ele><time>2026-05-02T11:50:33.477Z</time></trkpt><trkpt lat="44.90725423678693" lon="11.570610836277273"><ele>5.0</ele><time>2026-05-02T11:50:34.477Z</time></trkpt><trkpt lat="44.90751209785635" lon="11.570702505696238"><ele>5.0</ele><time>2026-05-02T11:50:35.477Z</time></trkpt><trkpt lat="44.90776828274478" lon="11.570808529478462"><ele>5.5</ele><time>2026-05-02T11:50:36.477Z</time></trkpt><trkpt lat="44.908022161181556" lon="11.570927391805993"><ele>6.0</ele><time>2026-05-02T11:50:37.477Z</time></trkpt><trkpt lat="44.90827207923527" lon="11.571057673950094"><ele>6.0</ele><time>2026-05-02T11:50:38.477Z</time></trkpt><trkpt lat="44.908520527375316" lon="11.571198468577178"><ele>6.0</ele><time>2026-05-02T11:50:39.477Z</time></trkpt><trkpt lat="44.908768286206396" lon="11.571348765957389"><ele>6.0</ele><time>2026-05-02T11:50:40.477Z</time></trkpt><trkpt lat="44.909013992157305" lon="11.571507600621242"><ele>6.0</ele><time>2026-05-02T11:50:41.477Z</time></trkpt><trkpt lat="44.9092581622387" lon="11.571676811910637"><ele>5.5</ele><time>2026-05-02T11:50:42.477Z</time></trkpt><trkpt lat="44.909498794845106" lon="11.571859109549072"><ele>5.0</ele><time>2026-05-02T11:50:43.477Z</time></trkpt><trkpt lat="44.90973690459293" lon="11.57205450781515"><ele>5.0</ele><time>2026-05-02T11:50:44.477Z</time></trkpt><trkpt lat="44.90997439125014" lon="11.5722577617262"><ele>5.0</ele><time>2026-05-02T11:50:45.477Z</time></trkpt><trkpt lat="44.91021205714158" lon="11.572473495004488"><ele>5.0</ele><time>2026-05-02T11:50:46.477Z</time></trkpt><trkpt lat="44.910447010954435" lon="11.572701593616836"><ele>5.0</ele><time>2026-05-02T11:50:47.477Z</time></trkpt><trkpt lat="44.91067748979397" lon="11.572947461380988"><ele>5.5</ele><time>2026-05-02T11:50:48.477Z</time></trkpt><trkpt lat="44.91090154377221" lon="11.573201583419785"><ele>6.0</ele><time>2026-05-02T11:50:49.477Z</time></trkpt><trkpt lat="44.911114968949" lon="11.57345666617108"><ele>7.5</ele><time>2026-05-02T11:50:50.477Z</time></trkpt><trkpt lat="44.91131854440058" lon="11.573722310195038"><ele>9.0</ele><time>2026-05-02T11:50:51.477Z</time></trkpt><trkpt lat="44.91151248856709" lon="11.573987558242349"><ele>9.0</ele><time>2026-05-02T11:50:52.476Z</time></trkpt><trkpt lat="44.91170596823701" lon="11.574248063708556"><ele>9.0</ele><time>2026-05-02T11:50:53.476Z</time></trkpt><trkpt lat="44.9119029795386" lon="11.574506864942665"><ele>9.0</ele><time>2026-05-02T11:50:54.476Z</time></trkpt><trkpt lat="44.912104307837865" lon="11.574770561477434"><ele>9.0</ele><time>2026-05-02T11:50:55.476Z</time></trkpt><trkpt lat="44.91230995445824" lon="11.575034256939988"><ele>9.0</ele><time>2026-05-02T11:50:56.476Z</time></trkpt><trkpt lat="44.91251562924919" lon="11.575298811349862"><ele>9.0</ele><time>2026-05-02T11:50:57.476Z</time></trkpt><trkpt lat="44.912723543261016" lon="11.575568402554767"><ele>10.0</ele><time>2026-05-02T11:50:58.476Z</time></trkpt><trkpt lat="44.91293401877123" lon="11.57583861716803"><ele>11.0</ele><time>2026-05-02T11:50:59.476Z</time></trkpt><trkpt lat="44.913141683844756" lon="11.576107789085222"><ele>12.0</ele><time>2026-05-02T11:51:00.476Z</time></trkpt><trkpt lat="44.91334725668288" lon="11.576376155887655"><ele>13.0</ele><time>2026-05-02T11:51:01.476Z</time></trkpt><trkpt lat="44.91355587231181" lon="11.576644640981721"><ele>13.0</ele><time>2026-05-02T11:51:02.476Z</time></trkpt><trkpt lat="44.91376398441704" lon="11.576911440588729"><ele>13.0</ele><time>2026-05-02T11:51:03.476Z</time></trkpt><trkpt lat="44.913970874664635" lon="11.577179088542"><ele>14.0</ele><time>2026-05-02T11:51:04.476Z</time></trkpt><trkpt lat="44.914177741520476" lon="11.577449777971813"><ele>15.0</ele><time>2026-05-02T11:51:05.476Z</time></trkpt><trkpt lat="44.91438233257923" lon="11.577718559900193"><ele>14.0</ele><time>2026-05-02T11:51:06.476Z</time></trkpt><trkpt lat="44.914586551164206" lon="11.577987322133195"><ele>13.0</ele><time>2026-05-02T11:51:07.476Z</time></trkpt><trkpt lat="44.91479326136156" lon="11.578259053742446"><ele>13.0</ele><time>2026-05-02T11:51:08.476Z</time></trkpt><trkpt lat="44.915000836975665" lon="11.578530787693333"><ele>13.0</ele><time>2026-05-02T11:51:09.476Z</time></trkpt><trkpt lat="44.91521115900628" lon="11.578805696519801"><ele>7.5</ele><time>2026-05-02T11:51:10.476Z</time></trkpt><trkpt lat="44.91541995893804" lon="11.579077321635848"><ele>2.0</ele><time>2026-05-02T11:51:11.476Z</time></trkpt><trkpt lat="44.91562744214644" lon="11.579350470122039"><ele>2.0</ele><time>2026-05-02T11:51:12.476Z</time></trkpt><trkpt lat="44.91583362306447" lon="11.579620134230069"><ele>2.0</ele><time>2026-05-02T11:51:13.476Z</time></trkpt><trkpt lat="44.91604228925534" lon="11.579887470586476"><ele>2.0</ele><time>2026-05-02T11:51:14.476Z</time></trkpt><trkpt lat="44.916250876300886" lon="11.580156735166295"><ele>2.0</ele><time>2026-05-02T11:51:15.476Z</time></trkpt><trkpt lat="44.916454206493974" lon="11.580426454340362"><ele>2.0</ele><time>2026-05-02T11:51:16.477Z</time></trkpt><trkpt lat="44.91665734589038" lon="11.580695529227915"><ele>2.0</ele><time>2026-05-02T11:51:17.477Z</time></trkpt><trkpt lat="44.91686048085607" lon="11.580962487104488"><ele>5.0</ele><time>2026-05-02T11:51:18.477Z</time></trkpt><trkpt lat="44.91706393905135" lon="11.581230188951082"><ele>8.0</ele><time>2026-05-02T11:51:19.476Z</time></trkpt><trkpt lat="44.9172642747997" lon="11.581492444773236"><ele>8.0</ele><time>2026-05-02T11:51:20.476Z</time></trkpt><trkpt lat="44.91746244938746" lon="11.581751010318078"><ele>8.0</ele><time>2026-05-02T11:51:21.476Z</time></trkpt><trkpt lat="44.91766177101809" lon="11.582006897290189"><ele>8.0</ele><time>2026-05-02T11:51:22.477Z</time></trkpt><trkpt lat="44.9178676690636" lon="11.582267291454135"><ele>8.0</ele><time>2026-05-02T11:51:23.476Z</time></trkpt><trkpt lat="44.91806773409661" lon="11.582526530161417"><ele>8.0</ele><time>2026-05-02T11:51:24.476Z</time></trkpt><trkpt lat="44.91826141562411" lon="11.582788334410218"><ele>8.0</ele><time>2026-05-02T11:51:25.476Z</time></trkpt><trkpt lat="44.91844957432019" lon="11.583052397523769"><ele>8.5</ele><time>2026-05-02T11:51:26.476Z</time></trkpt><trkpt lat="44.918636666597635" lon="11.583315717353225"><ele>9.0</ele><time>2026-05-02T11:51:27.476Z</time></trkpt><trkpt lat="44.91882369842676" lon="11.583590248972534"><ele>9.0</ele><time>2026-05-02T11:51:28.476Z</time></trkpt><trkpt lat="44.91901113684199" lon="11.583872517571065"><ele>9.0</ele><time>2026-05-02T11:51:29.476Z</time></trkpt><trkpt lat="44.91919437030765" lon="11.584157583388109"><ele>8.0</ele><time>2026-05-02T11:51:30.476Z</time></trkpt><trkpt lat="44.91938270266655" lon="11.584455725551814"><ele>7.0</ele><time>2026-05-02T11:51:31.476Z</time></trkpt><trkpt lat="44.91956445532503" lon="11.584744630971718"><ele>7.0</ele><time>2026-05-02T11:51:32.476Z</time></trkpt><trkpt lat="44.91974474168953" lon="11.585043273268631"><ele>7.0</ele><time>2026-05-02T11:51:33.476Z</time></trkpt><trkpt lat="44.91992613711897" lon="11.585342586751176"><ele>7.0</ele><time>2026-05-02T11:51:34.476Z</time></trkpt><trkpt lat="44.920102991900194" lon="11.585644229369723"><ele>7.0</ele><time>2026-05-02T11:51:35.476Z</time></trkpt><trkpt lat="44.920276374458226" lon="11.585956325179392"><ele>7.0</ele><time>2026-05-02T11:51:36.476Z</time></trkpt><trkpt lat="44.92044966155406" lon="11.586269348393724"><ele>7.0</ele><time>2026-05-02T11:51:37.476Z</time></trkpt><trkpt lat="44.92062173176518" lon="11.586582310525799"><ele>7.0</ele><time>2026-05-02T11:51:38.475Z</time></trkpt><trkpt lat="44.920794221703765" lon="11.586892809550264"><ele>7.0</ele><time>2026-05-02T11:51:39.475Z</time></trkpt><trkpt lat="44.920967129478726" lon="11.587203338412076"><ele>7.5</ele><time>2026-05-02T11:51:40.475Z</time></trkpt><trkpt lat="44.92113712979314" lon="11.587512224280486"><ele>8.0</ele><time>2026-05-02T11:51:41.475Z</time></trkpt><trkpt lat="44.92130390588192" lon="11.587818841540077"><ele>7.0</ele><time>2026-05-02T11:51:42.475Z</time></trkpt><trkpt lat="44.921468817813505" lon="11.588123349216884"><ele>6.0</ele><time>2026-05-02T11:51:43.475Z</time></trkpt><trkpt lat="44.92163516045249" lon="11.588423029126076"><ele>7.0</ele><time>2026-05-02T11:51:44.475Z</time></trkpt><trkpt lat="44.92180050666294" lon="11.588723645020606"><ele>8.0</ele><time>2026-05-02T11:51:45.475Z</time></trkpt><trkpt lat="44.92196450155183" lon="11.589022854780897"><ele>8.0</ele><time>2026-05-02T11:51:46.475Z</time></trkpt><trkpt lat="44.92213077395979" lon="11.589320185742515"><ele>8.0</ele><time>2026-05-02T11:51:47.475Z</time></trkpt><trkpt lat="44.92230033843998" lon="11.58962271215565"><ele>8.0</ele><time>2026-05-02T11:51:48.475Z</time></trkpt><trkpt lat="44.922470227526986" lon="11.589928173449632"><ele>8.0</ele><time>2026-05-02T11:51:49.475Z</time></trkpt><trkpt lat="44.92263934042116" lon="11.59023701882997"><ele>7.0</ele><time>2026-05-02T11:51:50.475Z</time></trkpt><trkpt lat="44.92281313191179" lon="11.590545779086682"><ele>6.0</ele><time>2026-05-02T11:51:51.475Z</time></trkpt><trkpt lat="44.922983292569114" lon="11.590847168880689"><ele>6.0</ele><time>2026-05-02T11:51:52.475Z</time></trkpt><trkpt lat="44.92314439619574" lon="11.591148615335216"><ele>6.0</ele><time>2026-05-02T11:51:53.475Z</time></trkpt><trkpt lat="44.923308011260175" lon="11.591448015519022"><ele>6.0</ele><time>2026-05-02T11:51:54.475Z</time></trkpt><trkpt lat="44.923471790771295" lon="11.591753030365574"><ele>6.0</ele><time>2026-05-02T11:51:55.475Z</time></trkpt><trkpt lat="44.92364432348472" lon="11.592058981931714"><ele>6.0</ele><time>2026-05-02T11:51:56.475Z</time></trkpt><trkpt lat="44.92381474188479" lon="11.592366712853751"><ele>6.0</ele><time>2026-05-02T11:51:57.475Z</time></trkpt><trkpt lat="44.92398449116778" lon="11.592672385274923"><ele>6.0</ele><time>2026-05-02T11:51:58.475Z</time></trkpt><trkpt lat="44.92415619081866" lon="11.592985363274616"><ele>6.0</ele><time>2026-05-02T11:51:59.475Z</time></trkpt><trkpt lat="44.92432950573461" lon="11.593298281336507"><ele>6.0</ele><time>2026-05-02T11:52:00.475Z</time></trkpt><trkpt lat="44.924499851557094" lon="11.593610265998795"><ele>6.0</ele><time>2026-05-02T11:52:01.475Z</time></trkpt><trkpt lat="44.924672180892784" lon="11.593922233615988"><ele>6.0</ele><time>2026-05-02T11:52:02.475Z</time></trkpt><trkpt lat="44.92484234368753" lon="11.594231295258684"><ele>6.0</ele><time>2026-05-02T11:52:03.474Z</time></trkpt><trkpt lat="44.92500889842214" lon="11.594539347995823"><ele>5.5</ele><time>2026-05-02T11:52:04.474Z</time></trkpt><trkpt lat="44.92517406176704" lon="11.594846820669133"><ele>5.0</ele><time>2026-05-02T11:52:05.474Z</time></trkpt><trkpt lat="44.92534066260557" lon="11.595145858559416"><ele>5.5</ele><time>2026-05-02T11:52:06.474Z</time></trkpt><trkpt lat="44.925509167780966" lon="11.595445825733995"><ele>6.0</ele><time>2026-05-02T11:52:07.474Z</time></trkpt><trkpt lat="44.925677208290026" lon="11.595748121001135"><ele>6.0</ele><time>2026-05-02T11:52:08.474Z</time></trkpt><trkpt lat="44.92584222656728" lon="11.59605005363922"><ele>6.0</ele><time>2026-05-02T11:52:09.474Z</time></trkpt><trkpt lat="44.92600455025785" lon="11.596348393582263"><ele>6.0</ele><time>2026-05-02T11:52:10.474Z</time></trkpt><trkpt lat="44.92616627922468" lon="11.596646391184926"><ele>6.0</ele><time>2026-05-02T11:52:11.474Z</time></trkpt><trkpt lat="44.92632510692124" lon="11.596945340125268"><ele>5.5</ele><time>2026-05-02T11:52:12.474Z</time></trkpt><trkpt lat="44.92648716028322" lon="11.597238550062878"><ele>5.0</ele><time>2026-05-02T11:52:13.474Z</time></trkpt><trkpt lat="44.9266529052677" lon="11.597536233595934"><ele>4.0</ele><time>2026-05-02T11:52:14.474Z</time></trkpt><trkpt lat="44.92681720323488" lon="11.59783300628814"><ele>3.0</ele><time>2026-05-02T11:52:15.474Z</time></trkpt><trkpt lat="44.926979199894674" lon="11.59812807005664"><ele>3.0</ele><time>2026-05-02T11:52:16.474Z</time></trkpt><trkpt lat="44.927142309018734" lon="11.59842520292656"><ele>3.0</ele><time>2026-05-02T11:52:17.474Z</time></trkpt><trkpt lat="44.92730540552385" lon="11.598722719444822"><ele>3.0</ele><time>2026-05-02T11:52:18.474Z</time></trkpt><trkpt lat="44.92746790214337" lon="11.59901703562827"><ele>3.0</ele><time>2026-05-02T11:52:19.474Z</time></trkpt><trkpt lat="44.92763198358627" lon="11.599310009412092"><ele>2.0</ele><time>2026-05-02T11:52:20.474Z</time></trkpt><trkpt lat="44.9277953030499" lon="11.599599840936126"><ele>1.0</ele><time>2026-05-02T11:52:21.474Z</time></trkpt><trkpt lat="44.927958328074375" lon="11.599893653039189"><ele>1.0</ele><time>2026-05-02T11:52:22.474Z</time></trkpt><trkpt lat="44.92812227247094" lon="11.600188993612882"><ele>1.0</ele><time>2026-05-02T11:52:23.474Z</time></trkpt><trkpt lat="44.92828616142784" lon="11.600485574638526"><ele>2.5</ele><time>2026-05-02T11:52:24.474Z</time></trkpt><trkpt lat="44.92844775221635" lon="11.600785557698062"><ele>4.0</ele><time>2026-05-02T11:52:25.474Z</time></trkpt><trkpt lat="44.928610718640186" lon="11.60108440286083"><ele>3.5</ele><time>2026-05-02T11:52:26.474Z</time></trkpt><trkpt lat="44.92877509478236" lon="11.601384413558604"><ele>3.0</ele><time>2026-05-02T11:52:27.474Z</time></trkpt><trkpt lat="44.92893853176119" lon="11.60168450697383"><ele>3.0</ele><time>2026-05-02T11:52:28.474Z</time></trkpt><trkpt lat="44.92910362653414" lon="11.601987342979067"><ele>3.0</ele><time>2026-05-02T11:52:29.473Z</time></trkpt><trkpt lat="44.92926995859832" lon="11.602290721725165"><ele>3.0</ele><time>2026-05-02T11:52:30.473Z</time></trkpt><trkpt lat="44.929436824988976" lon="11.602593563664664"><ele>3.0</ele><time>2026-05-02T11:52:31.473Z</time></trkpt><trkpt lat="44.929604008808624" lon="11.602896114607633"><ele>3.0</ele><time>2026-05-02T11:52:32.473Z</time></trkpt><trkpt lat="44.92977306825633" lon="11.603197722661532"><ele>3.0</ele><time>2026-05-02T11:52:33.473Z</time></trkpt><trkpt lat="44.92994239920122" lon="11.603498082313449"><ele>4.0</ele><time>2026-05-02T11:52:34.473Z</time></trkpt><trkpt lat="44.93011284300042" lon="11.60379664443803"><ele>5.0</ele><time>2026-05-02T11:52:35.473Z</time></trkpt><trkpt lat="44.93028394057944" lon="11.604098145946109"><ele>5.0</ele><time>2026-05-02T11:52:36.473Z</time></trkpt><trkpt lat="44.93045295205152" lon="11.604401817066325"><ele>5.0</ele><time>2026-05-02T11:52:37.473Z</time></trkpt><trkpt lat="44.93062075569461" lon="11.604710726706925"><ele>5.0</ele><time>2026-05-02T11:52:38.473Z</time></trkpt><trkpt lat="44.93078667834261" lon="11.605019743855964"><ele>5.0</ele><time>2026-05-02T11:52:39.473Z</time></trkpt><trkpt lat="44.93095227646373" lon="11.605325283796514"><ele>4.5</ele><time>2026-05-02T11:52:40.473Z</time></trkpt><trkpt lat="44.931114510582354" lon="11.605645762795126"><ele>4.0</ele><time>2026-05-02T11:52:41.473Z</time></trkpt><trkpt lat="44.93128412231177" lon="11.605950946020984"><ele>3.5</ele><time>2026-05-02T11:52:42.473Z</time></trkpt><trkpt lat="44.93145012694494" lon="11.606262042516367"><ele>3.0</ele><time>2026-05-02T11:52:43.473Z</time></trkpt><trkpt lat="44.93161663878817" lon="11.606565950776222"><ele>3.0</ele><time>2026-05-02T11:52:44.473Z</time></trkpt><trkpt lat="44.93178580528284" lon="11.606867197259328"><ele>3.0</ele><time>2026-05-02T11:52:45.473Z</time></trkpt><trkpt lat="44.93195487281582" lon="11.607170582081382"><ele>3.0</ele><time>2026-05-02T11:52:46.473Z</time></trkpt><trkpt lat="44.93212242278846" lon="11.607471866260429"><ele>3.0</ele><time>2026-05-02T11:52:47.473Z</time></trkpt><trkpt lat="44.93228724378682" lon="11.607771248141018"><ele>2.5</ele><time>2026-05-02T11:52:48.473Z</time></trkpt><trkpt lat="44.93245480737061" lon="11.608074471847466"><ele>2.0</ele><time>2026-05-02T11:52:49.473Z</time></trkpt><trkpt lat="44.93262429253958" lon="11.608380976302849"><ele>2.0</ele><time>2026-05-02T11:52:50.473Z</time></trkpt><trkpt lat="44.9327951947858" lon="11.60868609564943"><ele>2.0</ele><time>2026-05-02T11:52:51.473Z</time></trkpt><trkpt lat="44.932966895104656" lon="11.608994519072413"><ele>2.0</ele><time>2026-05-02T11:52:52.473Z</time></trkpt><trkpt lat="44.933135265729796" lon="11.60930047529456"><ele>2.0</ele><time>2026-05-02T11:52:53.473Z</time></trkpt><trkpt lat="44.93330129956183" lon="11.609606099499242"><ele>2.0</ele><time>2026-05-02T11:52:54.472Z</time></trkpt><trkpt lat="44.93346908187059" lon="11.609914714861121"><ele>2.0</ele><time>2026-05-02T11:52:55.472Z</time></trkpt><trkpt lat="44.933633829411384" lon="11.610215682744872"><ele>1.5</ele><time>2026-05-02T11:52:56.472Z</time></trkpt><trkpt lat="44.933800223202084" lon="11.610518918835579"><ele>1.0</ele><time>2026-05-02T11:52:57.472Z</time></trkpt><trkpt lat="44.93396771032802" lon="11.610820915132015"><ele>1.0</ele><time>2026-05-02T11:52:58.472Z</time></trkpt><trkpt lat="44.93413280518629" lon="11.611119264183628"><ele>1.0</ele><time>2026-05-02T11:52:59.472Z</time></trkpt><trkpt lat="44.93429926458442" lon="11.61141230150159"><ele>1.5</ele><time>2026-05-02T11:53:00.472Z</time></trkpt><trkpt lat="44.93446410160396" lon="11.61170887515827"><ele>2.0</ele><time>2026-05-02T11:53:01.472Z</time></trkpt><trkpt lat="44.934626731268565" lon="11.612005420900758"><ele>2.5</ele><time>2026-05-02T11:53:02.472Z</time></trkpt><trkpt lat="44.934788911852145" lon="11.61230620475819"><ele>3.0</ele><time>2026-05-02T11:53:03.472Z</time></trkpt><trkpt lat="44.934952168614984" lon="11.612609050381414"><ele>2.5</ele><time>2026-05-02T11:53:04.472Z</time></trkpt><trkpt lat="44.935117359963925" lon="11.612909836184038"><ele>2.0</ele><time>2026-05-02T11:53:05.472Z</time></trkpt><trkpt lat="44.93528425675459" lon="11.613209384766803"><ele>2.0</ele><time>2026-05-02T11:53:06.472Z</time></trkpt><trkpt lat="44.93545009369758" lon="11.613507834517506"><ele>2.0</ele><time>2026-05-02T11:53:07.472Z</time></trkpt><trkpt lat="44.935616606177625" lon="11.6138090947965"><ele>2.5</ele><time>2026-05-02T11:53:08.472Z</time></trkpt><trkpt lat="44.93578312222398" lon="11.614115375279102"><ele>3.0</ele><time>2026-05-02T11:53:09.472Z</time></trkpt><trkpt lat="44.93594958737234" lon="11.614421591098209"><ele>3.0</ele><time>2026-05-02T11:53:10.472Z</time></trkpt><trkpt lat="44.9361141753925" lon="11.614726016695718"><ele>3.0</ele><time>2026-05-02T11:53:11.472Z</time></trkpt><trkpt lat="44.93627941355487" lon="11.615024452952685"><ele>3.0</ele><time>2026-05-02T11:53:12.472Z</time></trkpt><trkpt lat="44.9364438992997" lon="11.61531956527909"><ele>3.0</ele><time>2026-05-02T11:53:13.472Z</time></trkpt><trkpt lat="44.93660671884343" lon="11.615617361887043"><ele>2.5</ele><time>2026-05-02T11:53:14.472Z</time></trkpt><trkpt lat="44.936769223368564" lon="11.61591597760642"><ele>2.0</ele><time>2026-05-02T11:53:15.472Z</time></trkpt><trkpt lat="44.936931930180116" lon="11.616213989888253"><ele>3.5</ele><time>2026-05-02T11:53:16.472Z</time></trkpt><trkpt lat="44.93709743150813" lon="11.616510050848992"><ele>5.0</ele><time>2026-05-02T11:53:17.472Z</time></trkpt><trkpt lat="44.93726728893153" lon="11.616806835322555"><ele>5.0</ele><time>2026-05-02T11:53:18.472Z</time></trkpt><trkpt lat="44.93743223561362" lon="11.61710864516707"><ele>5.0</ele><time>2026-05-02T11:53:19.471Z</time></trkpt><trkpt lat="44.937595081433464" lon="11.617417229396843"><ele>4.5</ele><time>2026-05-02T11:53:20.471Z</time></trkpt><trkpt lat="44.93775926568397" lon="11.617726740500324"><ele>4.0</ele><time>2026-05-02T11:53:21.471Z</time></trkpt><trkpt lat="44.93792606503382" lon="11.618032128726737"><ele>4.0</ele><time>2026-05-02T11:53:23Z</time></trkpt><trkpt lat="44.93809754725813" lon="11.618335759343541"><ele>4.0</ele><time>2026-05-02T11:53:24Z</time></trkpt><trkpt lat="44.938265558987524" lon="11.618633800009482"><ele>3.5</ele><time>2026-05-02T11:53:25Z</time></trkpt><trkpt lat="44.938430536312275" lon="11.618933590584454"><ele>3.0</ele><time>2026-05-02T11:53:26Z</time></trkpt><trkpt lat="44.938588204934184" lon="11.619230322255632"><ele>3.0</ele><time>2026-05-02T11:53:27Z</time></trkpt><trkpt lat="44.938754085845744" lon="11.61953685933143"><ele>3.0</ele><time>2026-05-02T11:53:28Z</time></trkpt><trkpt lat="44.93892019578891" lon="11.61983494057634"><ele>3.0</ele><time>2026-05-02T11:53:29Z</time></trkpt><trkpt lat="44.939088051739446" lon="11.620136800668822"><ele>3.0</ele><time>2026-05-02T11:53:30Z</time></trkpt><trkpt lat="44.9392557398686" lon="11.620432500713958"><ele>3.5</ele><time>2026-05-02T11:53:31Z</time></trkpt><trkpt lat="44.9394257441551" lon="11.620734110138281"><ele>4.0</ele><time>2026-05-02T11:53:32Z</time></trkpt><trkpt lat="44.93959238800479" lon="11.621040256422758"><ele>4.0</ele><time>2026-05-02T11:53:33Z</time></trkpt><trkpt lat="44.9397593037505" lon="11.621350693606972"><ele>4.0</ele><time>2026-05-02T11:53:34Z</time></trkpt><trkpt lat="44.939923467240384" lon="11.621662944559164"><ele>3.5</ele><time>2026-05-02T11:53:35Z</time></trkpt><trkpt lat="44.94008845744907" lon="11.621967741650806"><ele>3.0</ele><time>2026-05-02T11:53:36Z</time></trkpt><trkpt lat="44.94025677361222" lon="11.622264427899099"><ele>3.0</ele><time>2026-05-02T11:53:37Z</time></trkpt><trkpt lat="44.94042275793401" lon="11.622557949384431"><ele>3.0</ele><time>2026-05-02T11:53:38Z</time></trkpt><trkpt lat="44.94058872857767" lon="11.6228550660497"><ele>3.0</ele><time>2026-05-02T11:53:39Z</time></trkpt><trkpt lat="44.94075145750145" lon="11.623151376668309"><ele>3.0</ele><time>2026-05-02T11:53:40Z</time></trkpt><trkpt lat="44.940913988123306" lon="11.623449251323379"><ele>3.0</ele><time>2026-05-02T11:53:41Z</time></trkpt><trkpt lat="44.94107566436244" lon="11.623747259084915"><ele>3.0</ele><time>2026-05-02T11:53:42Z</time></trkpt><trkpt lat="44.941240059033966" lon="11.624040928828252"><ele>3.0</ele><time>2026-05-02T11:53:43Z</time></trkpt><trkpt lat="44.94140509405333" lon="11.624337605705575"><ele>3.0</ele><time>2026-05-02T11:53:44Z</time></trkpt><trkpt lat="44.94157126890626" lon="11.624636109694942"><ele>4.5</ele><time>2026-05-02T11:53:45Z</time></trkpt><trkpt lat="44.94174099562418" lon="11.62493785764634"><ele>6.0</ele><time>2026-05-02T11:53:46Z</time></trkpt><trkpt lat="44.941912637972656" lon="11.625246024559782"><ele>6.0</ele><time>2026-05-02T11:53:47Z</time></trkpt><trkpt lat="44.94208259738352" lon="11.62555158997308"><ele>6.0</ele><time>2026-05-02T11:53:48Z</time></trkpt><trkpt lat="44.9422514678475" lon="11.625861713067236"><ele>5.0</ele><time>2026-05-02T11:53:49Z</time></trkpt><trkpt lat="44.942420239358015" lon="11.626173293776676"><ele>4.0</ele><time>2026-05-02T11:53:50Z</time></trkpt><trkpt lat="44.94258010598366" lon="11.626487472695501"><ele>4.0</ele><time>2026-05-02T11:53:51Z</time></trkpt><trkpt lat="44.942754194773" lon="11.626801302453154"><ele>4.0</ele><time>2026-05-02T11:53:52Z</time></trkpt><trkpt lat="44.9429271851067" lon="11.627111309767946"><ele>4.0</ele><time>2026-05-02T11:53:53Z</time></trkpt><trkpt lat="44.94309788037825" lon="11.627421706402782"><ele>4.0</ele><time>2026-05-02T11:53:54Z</time></trkpt><trkpt lat="44.94326925550263" lon="11.627727953928666"><ele>5.0</ele><time>2026-05-02T11:53:55Z</time></trkpt><trkpt lat="44.9434422441161" lon="11.628037666534034"><ele>6.0</ele><time>2026-05-02T11:53:56Z</time></trkpt><trkpt lat="44.94361366256745" lon="11.628345473004947"><ele>5.5</ele><time>2026-05-02T11:53:57Z</time></trkpt><trkpt lat="44.94378360365107" lon="11.628651884680657"><ele>5.0</ele><time>2026-05-02T11:53:58Z</time></trkpt><trkpt lat="44.94395126227807" lon="11.628957918744582"><ele>5.0</ele><time>2026-05-02T11:53:59Z</time></trkpt><trkpt lat="44.94412042583249" lon="11.629271378286049"><ele>5.0</ele><time>2026-05-02T11:54:00Z</time></trkpt><trkpt lat="44.944290738050405" lon="11.629585381248104"><ele>5.0</ele><time>2026-05-02T11:54:01Z</time></trkpt><trkpt lat="44.94446406555464" lon="11.62990174827474"><ele>5.0</ele><time>2026-05-02T11:54:02Z</time></trkpt><trkpt lat="44.944638005421986" lon="11.630213287404075"><ele>5.0</ele><time>2026-05-02T11:54:03Z</time></trkpt><trkpt lat="44.944810974851656" lon="11.630523306160889"><ele>5.0</ele><time>2026-05-02T11:54:04Z</time></trkpt><trkpt lat="44.9449865521252" lon="11.630834115385195"><ele>4.0</ele><time>2026-05-02T11:54:05Z</time></trkpt><trkpt lat="44.94515981380784" lon="11.631142219483719"><ele>3.0</ele><time>2026-05-02T11:54:06Z</time></trkpt><trkpt lat="44.9453301829887" lon="11.631450659456851"><ele>3.0</ele><time>2026-05-02T11:54:07Z</time></trkpt><trkpt lat="44.94549861377559" lon="11.63176239734184"><ele>3.0</ele><time>2026-05-02T11:54:08Z</time></trkpt><trkpt lat="44.9456668060964" lon="11.63207406585902"><ele>4.0</ele><time>2026-05-02T11:54:09Z</time></trkpt><trkpt lat="44.9458367183123" lon="11.63238390393381"><ele>5.0</ele><time>2026-05-02T11:54:10Z</time></trkpt><trkpt lat="44.94600846817346" lon="11.632689806110815"><ele>5.5</ele><time>2026-05-02T11:54:11Z</time></trkpt><trkpt lat="44.94618434279194" lon="11.632986378295598"><ele>6.0</ele><time>2026-05-02T11:54:12Z</time></trkpt><trkpt lat="44.946365260760444" lon="11.633276232365423"><ele>6.0</ele><time>2026-05-02T11:54:13Z</time></trkpt><trkpt lat="44.94655422140664" lon="11.633562568160626"><ele>6.0</ele><time>2026-05-02T11:54:14Z</time></trkpt><trkpt lat="44.94675230389925" lon="11.633845695632145"><ele>4.5</ele><time>2026-05-02T11:54:15Z</time></trkpt><trkpt lat="44.94696147409049" lon="11.634105909255203"><ele>3.0</ele><time>2026-05-02T11:54:16Z</time></trkpt><trkpt lat="44.94716812268304" lon="11.63436837288975"><ele>3.0</ele><time>2026-05-02T11:54:17Z</time></trkpt><trkpt lat="44.94738153015267" lon="11.63462063170828"><ele>3.0</ele><time>2026-05-02T11:54:18Z</time></trkpt><trkpt lat="44.94759920819227" lon="11.634863802720218"><ele>3.0</ele><time>2026-05-02T11:54:19Z</time></trkpt><trkpt lat="44.94782353532" lon="11.635095108544947"><ele>3.0</ele><time>2026-05-02T11:54:20Z</time></trkpt><trkpt lat="44.94805196740915" lon="11.635322438104907"><ele>3.0</ele><time>2026-05-02T11:54:21Z</time></trkpt><trkpt lat="44.9482849055509" lon="11.635541546186337"><ele>3.0</ele><time>2026-05-02T11:54:22Z</time></trkpt><trkpt lat="44.94851922293245" lon="11.635744911379343"><ele>2.5</ele><time>2026-05-02T11:54:23Z</time></trkpt><trkpt lat="44.94875961745896" lon="11.635938203031529"><ele>2.0</ele><time>2026-05-02T11:54:24Z</time></trkpt><trkpt lat="44.94900464269946" lon="11.636121848943821"><ele>2.0</ele><time>2026-05-02T11:54:25Z</time></trkpt><trkpt lat="44.94925170736273" lon="11.636296263482286"><ele>2.0</ele><time>2026-05-02T11:54:26Z</time></trkpt><trkpt lat="44.94949682412276" lon="11.63646914457144"><ele>2.0</ele><time>2026-05-02T11:54:27Z</time></trkpt><trkpt lat="44.94974733331457" lon="11.636637787999216"><ele>2.0</ele><time>2026-05-02T11:54:28Z</time></trkpt><trkpt lat="44.94999948656591" lon="11.636803426987655"><ele>2.0</ele><time>2026-05-02T11:54:29Z</time></trkpt><trkpt lat="44.95025200844318" lon="11.636967874828457"><ele>2.0</ele><time>2026-05-02T11:54:30Z</time></trkpt><trkpt lat="44.95050313610444" lon="11.63713290474659"><ele>2.0</ele><time>2026-05-02T11:54:31Z</time></trkpt><trkpt lat="44.95075442327113" lon="11.637299660069976"><ele>2.0</ele><time>2026-05-02T11:54:32Z</time></trkpt><trkpt lat="44.95100510547982" lon="11.637467724593312"><ele>2.5</ele><time>2026-05-02T11:54:33Z</time></trkpt><trkpt lat="44.95125596491948" lon="11.637633708524442"><ele>3.0</ele><time>2026-05-02T11:54:34Z</time></trkpt><trkpt lat="44.95150713212308" lon="11.637798225500761"><ele>3.0</ele><time>2026-05-02T11:54:35Z</time></trkpt><trkpt lat="44.9517578163631" lon="11.637960194323961"><ele>3.0</ele><time>2026-05-02T11:54:36Z</time></trkpt><trkpt lat="44.95200868172332" lon="11.638121956745104"><ele>3.0</ele><time>2026-05-02T11:54:37Z</time></trkpt><trkpt lat="44.952259075378606" lon="11.638283868258819"><ele>3.0</ele><time>2026-05-02T11:54:38Z</time></trkpt><trkpt lat="44.95251254515871" lon="11.638445917132707"><ele>3.5</ele><time>2026-05-02T11:54:39Z</time></trkpt><trkpt lat="44.952761381810994" lon="11.638605783579354"><ele>4.0</ele><time>2026-05-02T11:54:40Z</time></trkpt><trkpt lat="44.95301005716703" lon="11.638766965466422"><ele>3.5</ele><time>2026-05-02T11:54:41Z</time></trkpt><trkpt lat="44.95326035874318" lon="11.638930592831803"><ele>3.0</ele><time>2026-05-02T11:54:42Z</time></trkpt><trkpt lat="44.953509268439" lon="11.639094944138959"><ele>3.0</ele><time>2026-05-02T11:54:43Z</time></trkpt><trkpt lat="44.95375714358689" lon="11.639258969923103"><ele>3.0</ele><time>2026-05-02T11:54:44Z</time></trkpt><trkpt lat="44.954005898688884" lon="11.639422783612103"><ele>3.0</ele><time>2026-05-02T11:54:45Z</time></trkpt><trkpt lat="44.954253552580745" lon="11.639585942731923"><ele>3.0</ele><time>2026-05-02T11:54:46Z</time></trkpt><trkpt lat="44.954500132220346" lon="11.63974785736901"><ele>3.0</ele><time>2026-05-02T11:54:47Z</time></trkpt><trkpt lat="44.95474785779156" lon="11.639910155010984"><ele>3.0</ele><time>2026-05-02T11:54:48Z</time></trkpt><trkpt lat="44.95499531743742" lon="11.640071979470688"><ele>3.0</ele><time>2026-05-02T11:54:49Z</time></trkpt><trkpt lat="44.95524021469743" lon="11.640233950127424"><ele>3.0</ele><time>2026-05-02T11:54:50Z</time></trkpt><trkpt lat="44.95548668130332" lon="11.640396428842386"><ele>3.0</ele><time>2026-05-02T11:54:51Z</time></trkpt><trkpt lat="44.95573848015617" lon="11.640555896677848"><ele>3.0</ele><time>2026-05-02T11:54:52Z</time></trkpt><trkpt lat="44.95598620118171" lon="11.640719411396862"><ele>3.0</ele><time>2026-05-02T11:54:53Z</time></trkpt><trkpt lat="44.956237823097545" lon="11.640881100137054"><ele>3.0</ele><time>2026-05-02T11:54:54Z</time></trkpt><trkpt lat="44.956490213786665" lon="11.641042505129066"><ele>2.5</ele><time>2026-05-02T11:54:55Z</time></trkpt><trkpt lat="44.956740242547404" lon="11.641203962864484"><ele>2.0</ele><time>2026-05-02T11:54:56Z</time></trkpt><trkpt lat="44.95698912083435" lon="11.641369647644302"><ele>2.0</ele><time>2026-05-02T11:54:57Z</time></trkpt><trkpt lat="44.957236055214025" lon="11.641536108747253"><ele>2.0</ele><time>2026-05-02T11:54:58Z</time></trkpt><trkpt lat="44.95748382444904" lon="11.641703777974245"><ele>1.5</ele><time>2026-05-02T11:54:59Z</time></trkpt><trkpt lat="44.95773167399961" lon="11.641867561518534"><ele>1.0</ele><time>2026-05-02T11:55:00Z</time></trkpt><trkpt lat="44.95798025834717" lon="11.64202931804385"><ele>2.0</ele><time>2026-05-02T11:55:01Z</time></trkpt><trkpt lat="44.95822912316524" lon="11.642192756187205"><ele>3.0</ele><time>2026-05-02T11:55:02Z</time></trkpt><trkpt lat="44.95847525393335" lon="11.6423538010941"><ele>3.0</ele><time>2026-05-02T11:55:03Z</time></trkpt><trkpt lat="44.958725116393424" lon="11.642516062437808"><ele>3.0</ele><time>2026-05-02T11:55:04Z</time></trkpt><trkpt lat="44.95897455696888" lon="11.642679946112855"><ele>3.0</ele><time>2026-05-02T11:55:05Z</time></trkpt><trkpt lat="44.95922603720121" lon="11.642844569053324"><ele>3.0</ele><time>2026-05-02T11:55:06Z</time></trkpt><trkpt lat="44.959476656207" lon="11.643008521082058"><ele>3.0</ele><time>2026-05-02T11:55:07Z</time></trkpt><trkpt lat="44.95972990471537" lon="11.643170462292108"><ele>3.0</ele><time>2026-05-02T11:55:08Z</time></trkpt><trkpt lat="44.95998311882122" lon="11.64333404585737"><ele>3.5</ele><time>2026-05-02T11:55:09Z</time></trkpt><trkpt lat="44.96023443963466" lon="11.64349588718379"><ele>4.0</ele><time>2026-05-02T11:55:10Z</time></trkpt><trkpt lat="44.9604842124088" lon="11.643659927123318"><ele>4.0</ele><time>2026-05-02T11:55:11Z</time></trkpt><trkpt lat="44.96073489777754" lon="11.643824307789448"><ele>4.0</ele><time>2026-05-02T11:55:12Z</time></trkpt><trkpt lat="44.96098228202755" lon="11.643984753483238"><ele>4.0</ele><time>2026-05-02T11:55:13Z</time></trkpt><trkpt lat="44.961229837675695" lon="11.64414540239815"><ele>4.0</ele><time>2026-05-02T11:55:14Z</time></trkpt><trkpt lat="44.961475754693474" lon="11.64430423650085"><ele>3.0</ele><time>2026-05-02T11:55:15Z</time></trkpt><trkpt lat="44.9617239603327" lon="11.64446720345732"><ele>2.0</ele><time>2026-05-02T11:55:16Z</time></trkpt><trkpt lat="44.961969203611616" lon="11.644626436867513"><ele>2.0</ele><time>2026-05-02T11:55:17Z</time></trkpt><trkpt lat="44.962210919275996" lon="11.644786534979572"><ele>2.0</ele><time>2026-05-02T11:55:18Z</time></trkpt><trkpt lat="44.96245648351359" lon="11.644950460750708"><ele>2.0</ele><time>2026-05-02T11:55:19Z</time></trkpt><trkpt lat="44.96270206267417" lon="11.645112923075004"><ele>2.0</ele><time>2026-05-02T11:55:20Z</time></trkpt><trkpt lat="44.962948303645604" lon="11.645275746811212"><ele>2.5</ele><time>2026-05-02T11:55:21Z</time></trkpt><trkpt lat="44.963198815507255" lon="11.64544061669187"><ele>3.0</ele><time>2026-05-02T11:55:22Z</time></trkpt><trkpt lat="44.96344815528363" lon="11.64560128216014"><ele>3.0</ele><time>2026-05-02T11:55:23Z</time></trkpt><trkpt lat="44.96369933819641" lon="11.64576108985936"><ele>3.0</ele><time>2026-05-02T11:55:24Z</time></trkpt><trkpt lat="44.96395086688673" lon="11.645922529219801"><ele>2.5</ele><time>2026-05-02T11:55:25Z</time></trkpt><trkpt lat="44.96420068240417" lon="11.646086858927509"><ele>2.0</ele><time>2026-05-02T11:55:26Z</time></trkpt><trkpt lat="44.96444873503293" lon="11.64624984255615"><ele>2.0</ele><time>2026-05-02T11:55:27Z</time></trkpt><trkpt lat="44.96469749712796" lon="11.646412879673896"><ele>2.0</ele><time>2026-05-02T11:55:28Z</time></trkpt><trkpt lat="44.96494295557321" lon="11.646576490995075"><ele>2.5</ele><time>2026-05-02T11:55:29.001Z</time></trkpt><trkpt lat="44.96518758148373" lon="11.646744203170368"><ele>3.0</ele><time>2026-05-02T11:55:30.001Z</time></trkpt><trkpt lat="44.96542824228838" lon="11.646913307866845"><ele>3.0</ele><time>2026-05-02T11:55:31.001Z</time></trkpt><trkpt lat="44.96566690535125" lon="11.647086157357508"><ele>3.0</ele><time>2026-05-02T11:55:32.001Z</time></trkpt><trkpt lat="44.965906071291485" lon="11.647258808880494"><ele>2.5</ele><time>2026-05-02T11:55:33.001Z</time></trkpt><trkpt lat="44.96614469093131" lon="11.647434975645492"><ele>2.0</ele><time>2026-05-02T11:55:34.001Z</time></trkpt><trkpt lat="44.966380522057385" lon="11.647613281586205"><ele>2.5</ele><time>2026-05-02T11:55:35.001Z</time></trkpt><trkpt lat="44.96661551042207" lon="11.64779498723429"><ele>3.0</ele><time>2026-05-02T11:55:36.001Z</time></trkpt><trkpt lat="44.96685182897121" lon="11.64797873939633"><ele>3.0</ele><time>2026-05-02T11:55:37.001Z</time></trkpt><trkpt lat="44.96708621000191" lon="11.648163883861182"><ele>3.0</ele><time>2026-05-02T11:55:38.001Z</time></trkpt><trkpt lat="44.96731796436826" lon="11.648348083144198"><ele>2.5</ele><time>2026-05-02T11:55:39.001Z</time></trkpt><trkpt lat="44.96755043493468" lon="11.648535825520785"><ele>2.0</ele><time>2026-05-02T11:55:40.001Z</time></trkpt><trkpt lat="44.96778339306266" lon="11.648723588765662"><ele>3.5</ele><time>2026-05-02T11:55:41.001Z</time></trkpt><trkpt lat="44.96801554010953" lon="11.648912341823303"><ele>5.0</ele><time>2026-05-02T11:55:42.001Z</time></trkpt><trkpt lat="44.968248792501505" lon="11.64910108264414"><ele>5.5</ele><time>2026-05-02T11:55:43.001Z</time></trkpt><trkpt lat="44.96848365706648" lon="11.649289884339805"><ele>6.0</ele><time>2026-05-02T11:55:44.001Z</time></trkpt><trkpt lat="44.96871974090779" lon="11.649478899035396"><ele>6.0</ele><time>2026-05-02T11:55:45.001Z</time></trkpt><trkpt lat="44.96895573044247" lon="11.649669756822044"><ele>6.0</ele><time>2026-05-02T11:55:46.001Z</time></trkpt><trkpt lat="44.969192974116694" lon="11.649859329362016"><ele>4.5</ele><time>2026-05-02T11:55:47.001Z</time></trkpt><trkpt lat="44.96942703673831" lon="11.650051218148064"><ele>3.0</ele><time>2026-05-02T11:55:48.001Z</time></trkpt><trkpt lat="44.96966276430073" lon="11.650247725574983"><ele>3.0</ele><time>2026-05-02T11:55:49.001Z</time></trkpt><trkpt lat="44.96989791314006" lon="11.650447379417148"><ele>3.0</ele><time>2026-05-02T11:55:50.001Z</time></trkpt><trkpt lat="44.97013571987398" lon="11.650643480682419"><ele>2.0</ele><time>2026-05-02T11:55:51.001Z</time></trkpt><trkpt lat="44.97037407516495" lon="11.650838002925706"><ele>1.0</ele><time>2026-05-02T11:55:52.001Z</time></trkpt><trkpt lat="44.97060991817254" lon="11.651030621502837"><ele>1.5</ele><time>2026-05-02T11:55:53.001Z</time></trkpt><trkpt lat="44.970847990483655" lon="11.65122363684345"><ele>2.0</ele><time>2026-05-02T11:55:54.001Z</time></trkpt><trkpt lat="44.97109008399348" lon="11.651415911681196"><ele>2.0</ele><time>2026-05-02T11:55:55.001Z</time></trkpt><trkpt lat="44.97133319336488" lon="11.651611756081715"><ele>2.0</ele><time>2026-05-02T11:55:56.001Z</time></trkpt><trkpt lat="44.97157566024179" lon="11.651806213449238"><ele>2.5</ele><time>2026-05-02T11:55:57.001Z</time></trkpt><trkpt lat="44.971816764881574" lon="11.652002464929772"><ele>3.0</ele><time>2026-05-02T11:55:58.001Z</time></trkpt><trkpt lat="44.97205947496663" lon="11.652200573155213"><ele>3.0</ele><time>2026-05-02T11:55:59.001Z</time></trkpt><trkpt lat="44.97230266702544" lon="11.652397416266123"><ele>3.0</ele><time>2026-05-02T11:56:00.001Z</time></trkpt><trkpt lat="44.97254592772573" lon="11.652591731637559"><ele>2.5</ele><time>2026-05-02T11:56:01.001Z</time></trkpt><trkpt lat="44.9727846630565" lon="11.652786393065009"><ele>2.0</ele><time>2026-05-02T11:56:02Z</time></trkpt><trkpt lat="44.97302197461143" lon="11.652976363747923"><ele>2.0</ele><time>2026-05-02T11:56:03Z</time></trkpt><trkpt lat="44.97325569967" lon="11.653166893178064"><ele>2.0</ele><time>2026-05-02T11:56:04Z</time></trkpt><trkpt lat="44.97348702328508" lon="11.653357240454273"><ele>2.0</ele><time>2026-05-02T11:56:05Z</time></trkpt><trkpt lat="44.97371709457861" lon="11.653546128240102"><ele>2.0</ele><time>2026-05-02T11:56:06Z</time></trkpt><trkpt lat="44.973943008895134" lon="11.65373026398956"><ele>1.5</ele><time>2026-05-02T11:56:07Z</time></trkpt><trkpt lat="44.97416858643009" lon="11.653906242962929"><ele>1.0</ele><time>2026-05-02T11:56:08Z</time></trkpt><trkpt lat="44.97439383220569" lon="11.65408242009638"><ele>1.0</ele><time>2026-05-02T11:56:09Z</time></trkpt><trkpt lat="44.97461856960978" lon="11.654265483845679"><ele>1.0</ele><time>2026-05-02T11:56:10Z</time></trkpt><trkpt lat="44.97484225264546" lon="11.65444942052935"><ele>1.5</ele><time>2026-05-02T11:56:11Z</time></trkpt><trkpt lat="44.975067518652445" lon="11.654634272156988"><ele>2.0</ele><time>2026-05-02T11:56:12Z</time></trkpt><trkpt lat="44.97529373443039" lon="11.65481219227424"><ele>2.0</ele><time>2026-05-02T11:56:13Z</time></trkpt><trkpt lat="44.975519095650476" lon="11.654987407235042"><ele>2.0</ele><time>2026-05-02T11:56:14Z</time></trkpt><trkpt lat="44.975744111808304" lon="11.655166523472687"><ele>1.5</ele><time>2026-05-02T11:56:15Z</time></trkpt><trkpt lat="44.975968033666575" lon="11.655346839762982"><ele>1.0</ele><time>2026-05-02T11:56:16Z</time></trkpt><trkpt lat="44.97618987144016" lon="11.655526201800143"><ele>1.0</ele><time>2026-05-02T11:56:17Z</time></trkpt><trkpt lat="44.9764106910489" lon="11.655703322701155"><ele>1.0</ele><time>2026-05-02T11:56:18Z</time></trkpt><trkpt lat="44.97662964519177" lon="11.655882728072616"><ele>2.0</ele><time>2026-05-02T11:56:19Z</time></trkpt><trkpt lat="44.97684871773439" lon="11.656061302248585"><ele>3.0</ele><time>2026-05-02T11:56:20Z</time></trkpt><trkpt lat="44.977067397357445" lon="11.656240268332319"><ele>3.5</ele><time>2026-05-02T11:56:21Z</time></trkpt><trkpt lat="44.977286756470704" lon="11.656422224526436"><ele>4.0</ele><time>2026-05-02T11:56:22Z</time></trkpt><trkpt lat="44.977508609465616" lon="11.656601493342595"><ele>3.0</ele><time>2026-05-02T11:56:23Z</time></trkpt><trkpt lat="44.97773236436856" lon="11.656777498340396"><ele>2.0</ele><time>2026-05-02T11:56:24Z</time></trkpt><trkpt lat="44.97796009214856" lon="11.656953498638083"><ele>2.0</ele><time>2026-05-02T11:56:25Z</time></trkpt><trkpt lat="44.97819446500036" lon="11.657133826715471"><ele>2.0</ele><time>2026-05-02T11:56:26Z</time></trkpt><trkpt lat="44.97843107932759" lon="11.657321332293115"><ele>2.0</ele><time>2026-05-02T11:56:27Z</time></trkpt><trkpt lat="44.97866562707763" lon="11.657515696962037"><ele>2.0</ele><time>2026-05-02T11:56:28Z</time></trkpt><trkpt lat="44.97890154690294" lon="11.657718859551613"><ele>2.0</ele><time>2026-05-02T11:56:29Z</time></trkpt><trkpt lat="44.979139195348445" lon="11.65793122729655"><ele>2.0</ele><time>2026-05-02T11:56:30Z</time></trkpt><trkpt lat="44.97937286652312" lon="11.65813367376485"><ele>2.0</ele><time>2026-05-02T11:56:31Z</time></trkpt><trkpt lat="44.97962021343462" lon="11.658321474090625"><ele>2.0</ele><time>2026-05-02T11:56:32Z</time></trkpt><trkpt lat="44.97985885797257" lon="11.658513717371536"><ele>2.0</ele><time>2026-05-02T11:56:33Z</time></trkpt><trkpt lat="44.9800969984873" lon="11.658699991676203"><ele>2.0</ele><time>2026-05-02T11:56:34Z</time></trkpt><trkpt lat="44.9803340991064" lon="11.6588884130035"><ele>2.0</ele><time>2026-05-02T11:56:35Z</time></trkpt><trkpt lat="44.980568733918545" lon="11.65907704120752"><ele>2.0</ele><time>2026-05-02T11:56:36Z</time></trkpt><trkpt lat="44.980798465846746" lon="11.65926524318926"><ele>2.0</ele><time>2026-05-02T11:56:37Z</time></trkpt><trkpt lat="44.981027527243775" lon="11.659450626661823"><ele>2.0</ele><time>2026-05-02T11:56:38Z</time></trkpt><trkpt lat="44.98125390595769" lon="11.659637205586144"><ele>2.0</ele><time>2026-05-02T11:56:39Z</time></trkpt><trkpt lat="44.98147591307634" lon="11.659819102763585"><ele>2.0</ele><time>2026-05-02T11:56:40Z</time></trkpt><trkpt lat="44.98169980548752" lon="11.65999733224498"><ele>1.5</ele><time>2026-05-02T11:56:41Z</time></trkpt><trkpt lat="44.98192075572229" lon="11.660175621098107"><ele>1.0</ele><time>2026-05-02T11:56:42Z</time></trkpt><trkpt lat="44.982141518118034" lon="11.660350364900824"><ele>1.0</ele><time>2026-05-02T11:56:43Z</time></trkpt><trkpt lat="44.982360990702254" lon="11.66052690419567"><ele>1.0</ele><time>2026-05-02T11:56:44Z</time></trkpt><trkpt lat="44.982580444762874" lon="11.660704293506573"><ele>1.0</ele><time>2026-05-02T11:56:45Z</time></trkpt><trkpt lat="44.982796884484365" lon="11.660881254458415"><ele>1.0</ele><time>2026-05-02T11:56:46Z</time></trkpt><trkpt lat="44.98301389227566" lon="11.661057411785757"><ele>1.0</ele><time>2026-05-02T11:56:47Z</time></trkpt><trkpt lat="44.98322742546692" lon="11.661235600837955"><ele>1.0</ele><time>2026-05-02T11:56:48Z</time></trkpt><trkpt lat="44.9834442237728" lon="11.661413927536257"><ele>1.0</ele><time>2026-05-02T11:56:49Z</time></trkpt><trkpt lat="44.983661963896786" lon="11.661591022000984"><ele>1.0</ele><time>2026-05-02T11:56:50Z</time></trkpt><trkpt lat="44.98388112468776" lon="11.661768986775199"><ele>1.0</ele><time>2026-05-02T11:56:51Z</time></trkpt><trkpt lat="44.98409884914531" lon="11.661946829311653"><ele>1.0</ele><time>2026-05-02T11:56:52Z</time></trkpt><trkpt lat="44.984318747601655" lon="11.662124686009985"><ele>2.0</ele><time>2026-05-02T11:56:53Z</time></trkpt><trkpt lat="44.98454020509422" lon="11.66230202627313"><ele>3.0</ele><time>2026-05-02T11:56:54Z</time></trkpt><trkpt lat="44.98476207371443" lon="11.662477565155482"><ele>3.0</ele><time>2026-05-02T11:56:55Z</time></trkpt><trkpt lat="44.98498522468529" lon="11.662654450573395"><ele>3.0</ele><time>2026-05-02T11:56:56Z</time></trkpt><trkpt lat="44.98521237845821" lon="11.662835245177085"><ele>3.0</ele><time>2026-05-02T11:56:57Z</time></trkpt><trkpt lat="44.98543931901797" lon="11.663017835788578"><ele>3.0</ele><time>2026-05-02T11:56:58Z</time></trkpt><trkpt lat="44.985667956487006" lon="11.663205028625102"><ele>4.5</ele><time>2026-05-02T11:56:59Z</time></trkpt><trkpt lat="44.98589611047222" lon="11.663394668054774"><ele>6.0</ele><time>2026-05-02T11:57:00Z</time></trkpt><trkpt lat="44.98611992789836" lon="11.663581219868156"><ele>5.0</ele><time>2026-05-02T11:57:01Z</time></trkpt><trkpt lat="44.98634552074987" lon="11.663768141213644"><ele>4.0</ele><time>2026-05-02T11:57:02Z</time></trkpt><trkpt lat="44.98657055562584" lon="11.6639537065522"><ele>3.5</ele><time>2026-05-02T11:57:03Z</time></trkpt><trkpt lat="44.98679684133979" lon="11.664136524692866"><ele>3.0</ele><time>2026-05-02T11:57:04Z</time></trkpt><trkpt lat="44.98701890608049" lon="11.664317173685914"><ele>3.0</ele><time>2026-05-02T11:57:05Z</time></trkpt><trkpt lat="44.98724617638787" lon="11.664496780829287"><ele>3.0</ele><time>2026-05-02T11:57:06Z</time></trkpt><trkpt lat="44.98747285575179" lon="11.664678363447301"><ele>3.0</ele><time>2026-05-02T11:57:07Z</time></trkpt><trkpt lat="44.98769873537416" lon="11.664859029376832"><ele>3.0</ele><time>2026-05-02T11:57:08Z</time></trkpt><trkpt lat="44.98792577017477" lon="11.665042885287049"><ele>3.0</ele><time>2026-05-02T11:57:09Z</time></trkpt><trkpt lat="44.98815113157179" lon="11.665229299862068"><ele>3.0</ele><time>2026-05-02T11:57:10Z</time></trkpt><trkpt lat="44.988378016828044" lon="11.66541631469838"><ele>2.5</ele><time>2026-05-02T11:57:11Z</time></trkpt><trkpt lat="44.988606443195884" lon="11.66560199811364"><ele>2.0</ele><time>2026-05-02T11:57:12Z</time></trkpt><trkpt lat="44.98883372986142" lon="11.665784817130232"><ele>2.0</ele><time>2026-05-02T11:57:13Z</time></trkpt><trkpt lat="44.98906349253387" lon="11.665967118772407"><ele>2.0</ele><time>2026-05-02T11:57:14Z</time></trkpt><trkpt lat="44.9892909725773" lon="11.666149746241294"><ele>3.0</ele><time>2026-05-02T11:57:15Z</time></trkpt><trkpt lat="44.989520380026114" lon="11.666332140107482"><ele>4.0</ele><time>2026-05-02T11:57:16Z</time></trkpt><trkpt lat="44.98974582160434" lon="11.666514518111697"><ele>4.0</ele><time>2026-05-02T11:57:17Z</time></trkpt><trkpt lat="44.98997022378266" lon="11.666700654166902"><ele>4.0</ele><time>2026-05-02T11:57:18Z</time></trkpt><trkpt lat="44.990194339496284" lon="11.666884126392942"><ele>4.0</ele><time>2026-05-02T11:57:19Z</time></trkpt><trkpt lat="44.99042069835629" lon="11.667067235916322"><ele>4.0</ele><time>2026-05-02T11:57:20Z</time></trkpt><trkpt lat="44.99064477470904" lon="11.66724851729083"><ele>3.0</ele><time>2026-05-02T11:57:21Z</time></trkpt><trkpt lat="44.990871229548134" lon="11.667427331804152"><ele>2.0</ele><time>2026-05-02T11:57:22Z</time></trkpt><trkpt lat="44.991094660540824" lon="11.667607791899142"><ele>3.0</ele><time>2026-05-02T11:57:23Z</time></trkpt><trkpt lat="44.99131829928482" lon="11.667785804248327"><ele>4.0</ele><time>2026-05-02T11:57:24Z</time></trkpt><trkpt lat="44.9915423581655" lon="11.667967849963167"><ele>3.5</ele><time>2026-05-02T11:57:25Z</time></trkpt><trkpt lat="44.991769857261474" lon="11.668152721622034"><ele>3.0</ele><time>2026-05-02T11:57:26Z</time></trkpt><trkpt lat="44.99199410078926" lon="11.668337708916384"><ele>3.0</ele><time>2026-05-02T11:57:27Z</time></trkpt><trkpt lat="44.99222116355013" lon="11.668521309391497"><ele>3.0</ele><time>2026-05-02T11:57:28Z</time></trkpt><trkpt lat="44.99245100005574" lon="11.66870695504628"><ele>3.0</ele><time>2026-05-02T11:57:29Z</time></trkpt><trkpt lat="44.99268030099723" lon="11.668891086666282"><ele>3.0</ele><time>2026-05-02T11:57:30Z</time></trkpt><trkpt lat="44.992911013329355" lon="11.669076894868976"><ele>3.0</ele><time>2026-05-02T11:57:31Z</time></trkpt><trkpt lat="44.993141172343" lon="11.669261916787429"><ele>3.0</ele><time>2026-05-02T11:57:32Z</time></trkpt><trkpt lat="44.99337160269541" lon="11.669447242295773"><ele>3.0</ele><time>2026-05-02T11:57:33Z</time></trkpt><trkpt lat="44.99360263868321" lon="11.669632370657558"><ele>3.0</ele><time>2026-05-02T11:57:34.001Z</time></trkpt><trkpt lat="44.99382934857703" lon="11.669815551412537"><ele>3.0</ele><time>2026-05-02T11:57:35.001Z</time></trkpt><trkpt lat="44.99405502634032" lon="11.669993535874386"><ele>3.0</ele><time>2026-05-02T11:57:36.001Z</time></trkpt><trkpt lat="44.99428093783921" lon="11.670172699710823"><ele>3.5</ele><time>2026-05-02T11:57:37.001Z</time></trkpt><trkpt lat="44.99450844634301" lon="11.670352568215174"><ele>4.0</ele><time>2026-05-02T11:57:38.001Z</time></trkpt><trkpt lat="44.994731329232756" lon="11.67053287235682"><ele>4.0</ele><time>2026-05-02T11:57:39.001Z</time></trkpt><trkpt lat="44.99495442374696" lon="11.670713273274766"><ele>4.0</ele><time>2026-05-02T11:57:40.001Z</time></trkpt><trkpt lat="44.99517833544649" lon="11.670895407444354"><ele>4.0</ele><time>2026-05-02T11:57:41.001Z</time></trkpt><trkpt lat="44.99540017089508" lon="11.671074694051674"><ele>4.0</ele><time>2026-05-02T11:57:42.001Z</time></trkpt><trkpt lat="44.99562640853612" lon="11.67125704101085"><ele>3.5</ele><time>2026-05-02T11:57:43.001Z</time></trkpt><trkpt lat="44.99584817836731" lon="11.671434685061833"><ele>3.0</ele><time>2026-05-02T11:57:44Z</time></trkpt><trkpt lat="44.996077409507" lon="11.671624972753882"><ele>3.0</ele><time>2026-05-02T11:57:45Z</time></trkpt><trkpt lat="44.99629816017416" lon="11.671805790503127"><ele>3.0</ele><time>2026-05-02T11:57:46Z</time></trkpt><trkpt lat="44.9965225542763" lon="11.671990455612022"><ele>2.5</ele><time>2026-05-02T11:57:47.001Z</time></trkpt><trkpt lat="44.996747006110716" lon="11.672171468560787"><ele>2.0</ele><time>2026-05-02T11:57:48.001Z</time></trkpt><trkpt lat="44.99697122786027" lon="11.672350730018684"><ele>2.0</ele><time>2026-05-02T11:57:49.001Z</time></trkpt><trkpt lat="44.99719584069617" lon="11.672528300578655"><ele>2.0</ele><time>2026-05-02T11:57:50.001Z</time></trkpt><trkpt lat="44.997425655766904" lon="11.672707784689353"><ele>3.0</ele><time>2026-05-02T11:57:51.001Z</time></trkpt><trkpt lat="44.9976551971094" lon="11.672888937502401"><ele>4.0</ele><time>2026-05-02T11:57:52Z</time></trkpt><trkpt lat="44.99788188571015" lon="11.673068909319204"><ele>4.0</ele><time>2026-05-02T11:57:53Z</time></trkpt><trkpt lat="44.998106575797486" lon="11.67325173118587"><ele>4.0</ele><time>2026-05-02T11:57:54Z</time></trkpt><trkpt lat="44.99833429027563" lon="11.67343412652784"><ele>4.0</ele><time>2026-05-02T11:57:55Z</time></trkpt><trkpt lat="44.99856137214786" lon="11.673622206944923"><ele>4.0</ele><time>2026-05-02T11:57:56Z</time></trkpt><trkpt lat="44.99878829765556" lon="11.673807117452004"><ele>4.0</ele><time>2026-05-02T11:57:57Z</time></trkpt><trkpt lat="44.999016695215516" lon="11.673990933366822"><ele>4.0</ele><time>2026-05-02T11:57:58Z</time></trkpt><trkpt lat="44.9992441904809" lon="11.674174514571224"><ele>4.0</ele><time>2026-05-02T11:57:59Z</time></trkpt><trkpt lat="44.99947253953541" lon="11.674358112498323"><ele>4.0</ele><time>2026-05-02T11:58:00Z</time></trkpt><trkpt lat="44.99970092544109" lon="11.674540385607576"><ele>4.0</ele><time>2026-05-02T11:58:01Z</time></trkpt><trkpt lat="44.99992882104352" lon="11.674724899627353"><ele>4.0</ele><time>2026-05-02T11:58:02Z</time></trkpt><trkpt lat="45.000158282928936" lon="11.67491217857237"><ele>4.0</ele><time>2026-05-02T11:58:03Z</time></trkpt><trkpt lat="45.00038918519246" lon="11.67510028233958"><ele>4.0</ele><time>2026-05-02T11:58:04Z</time></trkpt><trkpt lat="45.00062022660436" lon="11.675288892905165"><ele>4.0</ele><time>2026-05-02T11:58:05Z</time></trkpt><trkpt lat="45.000851167279016" lon="11.67547765726576"><ele>4.0</ele><time>2026-05-02T11:58:06Z</time></trkpt><trkpt lat="45.001082784773175" lon="11.675664516683664"><ele>4.0</ele><time>2026-05-02T11:58:07Z</time></trkpt><trkpt lat="45.001311524196915" lon="11.67584795431139"><ele>4.0</ele><time>2026-05-02T11:58:08Z</time></trkpt><trkpt lat="45.0015400065625" lon="11.676032608321096"><ele>4.5</ele><time>2026-05-02T11:58:09Z</time></trkpt><trkpt lat="45.00176655321785" lon="11.676216666198044"><ele>5.0</ele><time>2026-05-02T11:58:10Z</time></trkpt><trkpt lat="45.00199441446036" lon="11.676400202220321"><ele>5.0</ele><time>2026-05-02T11:58:11Z</time></trkpt><trkpt lat="45.00222185634291" lon="11.676582473051763"><ele>5.0</ele><time>2026-05-02T11:58:12Z</time></trkpt><trkpt lat="45.002449116678235" lon="11.676767543606397"><ele>4.5</ele><time>2026-05-02T11:58:13Z</time></trkpt><trkpt lat="45.00267545771247" lon="11.676958943386449"><ele>4.0</ele><time>2026-05-02T11:58:14Z</time></trkpt><trkpt lat="45.002899367040946" lon="11.67714904808619"><ele>4.0</ele><time>2026-05-02T11:58:15Z</time></trkpt><trkpt lat="45.00312602811886" lon="11.677337090762432"><ele>4.0</ele><time>2026-05-02T11:58:16Z</time></trkpt><trkpt lat="45.00335229554677" lon="11.6775215371434"><ele>4.0</ele><time>2026-05-02T11:58:17Z</time></trkpt><trkpt lat="45.00357922098373" lon="11.67770529220485"><ele>4.0</ele><time>2026-05-02T11:58:18Z</time></trkpt><trkpt lat="45.00380866809158" lon="11.677889903980041"><ele>4.0</ele><time>2026-05-02T11:58:19Z</time></trkpt><trkpt lat="45.004039894659265" lon="11.678076403627829"><ele>4.0</ele><time>2026-05-02T11:58:20Z</time></trkpt><trkpt lat="45.004270228649695" lon="11.678264017704649"><ele>4.0</ele><time>2026-05-02T11:58:21Z</time></trkpt><trkpt lat="45.004499501505485" lon="11.67845058681057"><ele>4.0</ele><time>2026-05-02T11:58:22Z</time></trkpt><trkpt lat="45.00472761913359" lon="11.678637299605805"><ele>4.0</ele><time>2026-05-02T11:58:23Z</time></trkpt><trkpt lat="45.00495458316779" lon="11.678824824057767"><ele>4.0</ele><time>2026-05-02T11:58:24Z</time></trkpt><trkpt lat="45.005179946158876" lon="11.679013729941255"><ele>4.5</ele><time>2026-05-02T11:58:25Z</time></trkpt><trkpt lat="45.00540370911652" lon="11.679190803387476"><ele>5.0</ele><time>2026-05-02T11:58:26Z</time></trkpt><trkpt lat="45.005630092799905" lon="11.679363581289081"><ele>5.0</ele><time>2026-05-02T11:58:27Z</time></trkpt><trkpt lat="45.00585191369078" lon="11.679546063409326"><ele>5.0</ele><time>2026-05-02T11:58:28Z</time></trkpt><trkpt lat="45.00607296748133" lon="11.679727767366359"><ele>5.0</ele><time>2026-05-02T11:58:29Z</time></trkpt><trkpt lat="45.00629474971894" lon="11.679905077417622"><ele>5.0</ele><time>2026-05-02T11:58:30Z</time></trkpt><trkpt lat="45.006517220156276" lon="11.68008038993402"><ele>5.0</ele><time>2026-05-02T11:58:31Z</time></trkpt><trkpt lat="45.006741629675425" lon="11.680258338841504"><ele>5.0</ele><time>2026-05-02T11:58:32Z</time></trkpt><trkpt lat="45.00696517935874" lon="11.6804391960414"><ele>5.0</ele><time>2026-05-02T11:58:33Z</time></trkpt><trkpt lat="45.00718730498403" lon="11.680621751466118"><ele>5.0</ele><time>2026-05-02T11:58:34Z</time></trkpt><trkpt lat="45.00741312951766" lon="11.68080493423035"><ele>5.0</ele><time>2026-05-02T11:58:35Z</time></trkpt><trkpt lat="45.007642561988234" lon="11.680990339811036"><ele>5.0</ele><time>2026-05-02T11:58:36Z</time></trkpt><trkpt lat="45.00787280025436" lon="11.681174491129664"><ele>4.5</ele><time>2026-05-02T11:58:37Z</time></trkpt><trkpt lat="45.00810009953036" lon="11.681359765762968"><ele>4.0</ele><time>2026-05-02T11:58:38Z</time></trkpt><trkpt lat="45.00832627551685" lon="11.681539433782403"><ele>4.5</ele><time>2026-05-02T11:58:39Z</time></trkpt><trkpt lat="45.008553077196595" lon="11.68172470347404"><ele>5.0</ele><time>2026-05-02T11:58:40Z</time></trkpt><trkpt lat="45.0087822882078" lon="11.681912815754274"><ele>5.0</ele><time>2026-05-02T11:58:41Z</time></trkpt><trkpt lat="45.00901099733523" lon="11.682101060345744"><ele>5.0</ele><time>2026-05-02T11:58:42Z</time></trkpt><trkpt lat="45.0092421729047" lon="11.682290291617099"><ele>5.0</ele><time>2026-05-02T11:58:43Z</time></trkpt><trkpt lat="45.00947335522759" lon="11.682478813548252"><ele>5.0</ele><time>2026-05-02T11:58:44Z</time></trkpt><trkpt lat="45.00970502839408" lon="11.682666355678498"><ele>4.5</ele><time>2026-05-02T11:58:45Z</time></trkpt><trkpt lat="45.009935835114874" lon="11.682850168723009"><ele>4.0</ele><time>2026-05-02T11:58:46Z</time></trkpt><trkpt lat="45.01016781922628" lon="11.683034787826431"><ele>4.0</ele><time>2026-05-02T11:58:47Z</time></trkpt><trkpt lat="45.01039377583725" lon="11.683221163342356"><ele>4.0</ele><time>2026-05-02T11:58:48Z</time></trkpt><trkpt lat="45.010620513780836" lon="11.683403630592574"><ele>4.0</ele><time>2026-05-02T11:58:49Z</time></trkpt><trkpt lat="45.01084772644119" lon="11.683585487206997"><ele>4.0</ele><time>2026-05-02T11:58:50Z</time></trkpt><trkpt lat="45.01108032972182" lon="11.683771080880435"><ele>4.0</ele><time>2026-05-02T11:58:51Z</time></trkpt><trkpt lat="45.011310800682885" lon="11.68395713458323"><ele>4.0</ele><time>2026-05-02T11:58:52Z</time></trkpt><trkpt lat="45.01154183689997" lon="11.684141853252392"><ele>4.0</ele><time>2026-05-02T11:58:53Z</time></trkpt><trkpt lat="45.011771475948386" lon="11.684325191195825"><ele>4.0</ele><time>2026-05-02T11:58:54Z</time></trkpt><trkpt lat="45.011999256250114" lon="11.684510983001022"><ele>3.5</ele><time>2026-05-02T11:58:55Z</time></trkpt><trkpt lat="45.01222612816926" lon="11.684698241371196"><ele>3.0</ele><time>2026-05-02T11:58:56Z</time></trkpt><trkpt lat="45.01245017904633" lon="11.684884635409531"><ele>3.0</ele><time>2026-05-02T11:58:57Z</time></trkpt><trkpt lat="45.012676041740555" lon="11.685072473127605"><ele>3.0</ele><time>2026-05-02T11:58:58Z</time></trkpt><trkpt lat="45.0129016409635" lon="11.685259766321696"><ele>3.5</ele><time>2026-05-02T11:58:59Z</time></trkpt><trkpt lat="45.01312691643507" lon="11.685448232403003"><ele>4.0</ele><time>2026-05-02T11:59:00Z</time></trkpt><trkpt lat="45.01335508610916" lon="11.685639879236524"><ele>4.0</ele><time>2026-05-02T11:59:01Z</time></trkpt><trkpt lat="45.013584555193916" lon="11.68583477759644"><ele>4.0</ele><time>2026-05-02T11:59:02Z</time></trkpt><trkpt lat="45.01381533013279" lon="11.686031168886224"><ele>4.0</ele><time>2026-05-02T11:59:03Z</time></trkpt><trkpt lat="45.01404566763717" lon="11.686229980910698"><ele>4.0</ele><time>2026-05-02T11:59:04Z</time></trkpt><trkpt lat="45.01427615561121" lon="11.686434304075991"><ele>4.0</ele><time>2026-05-02T11:59:05Z</time></trkpt><trkpt lat="45.014500646715" lon="11.686642175951583"><ele>4.0</ele><time>2026-05-02T11:59:06Z</time></trkpt><trkpt lat="45.014724255460386" lon="11.686855468174736"><ele>4.5</ele><time>2026-05-02T11:59:07Z</time></trkpt><trkpt lat="45.01494953542736" lon="11.68706878210833"><ele>5.0</ele><time>2026-05-02T11:59:08Z</time></trkpt><trkpt lat="45.01517361991511" lon="11.687275584249091"><ele>6.0</ele><time>2026-05-02T11:59:09Z</time></trkpt><trkpt lat="45.01539551972016" lon="11.687480800823648"><ele>7.0</ele><time>2026-05-02T11:59:10Z</time></trkpt><trkpt lat="45.01562312038728" lon="11.68768500671143"><ele>5.5</ele><time>2026-05-02T11:59:11Z</time></trkpt><trkpt lat="45.01585664971145" lon="11.687894182335498"><ele>4.0</ele><time>2026-05-02T11:59:12Z</time></trkpt><trkpt lat="45.016084695705764" lon="11.688106163086424"><ele>4.0</ele><time>2026-05-02T11:59:13Z</time></trkpt><trkpt lat="45.01630313249242" lon="11.688317042230212"><ele>4.0</ele><time>2026-05-02T11:59:13.999Z</time></trkpt><trkpt lat="45.01652367812953" lon="11.688531925607128"><ele>4.5</ele><time>2026-05-02T11:59:14.999Z</time></trkpt><trkpt lat="45.01674604509894" lon="11.688742817561387"><ele>5.0</ele><time>2026-05-02T11:59:15.999Z</time></trkpt><trkpt lat="45.01696395030894" lon="11.68895029405106"><ele>5.0</ele><time>2026-05-02T11:59:16.999Z</time></trkpt><trkpt lat="45.017185476673674" lon="11.689158631608487"><ele>5.0</ele><time>2026-05-02T11:59:17.999Z</time></trkpt><trkpt lat="45.01740880119461" lon="11.689368123486885"><ele>5.5</ele><time>2026-05-02T11:59:18.999Z</time></trkpt><trkpt lat="45.01763253998078" lon="11.689574347022296"><ele>6.0</ele><time>2026-05-02T11:59:19.999Z</time></trkpt><trkpt lat="45.01785855678627" lon="11.689780726741375"><ele>6.0</ele><time>2026-05-02T11:59:20.999Z</time></trkpt><trkpt lat="45.01808398741543" lon="11.68998719122304"><ele>6.0</ele><time>2026-05-02T11:59:21.999Z</time></trkpt><trkpt lat="45.01830788904379" lon="11.690196805489805"><ele>5.5</ele><time>2026-05-02T11:59:22.999Z</time></trkpt><trkpt lat="45.018533147326146" lon="11.690407865410833"><ele>5.0</ele><time>2026-05-02T11:59:23.999Z</time></trkpt><trkpt lat="45.018756866834686" lon="11.6906108240158"><ele>5.0</ele><time>2026-05-02T11:59:24.999Z</time></trkpt><trkpt lat="45.01897367341448" lon="11.690825199384504"><ele>5.0</ele><time>2026-05-02T11:59:25.999Z</time></trkpt><trkpt lat="45.019192344722605" lon="11.691031192508603"><ele>4.0</ele><time>2026-05-02T11:59:26.999Z</time></trkpt><trkpt lat="45.019411860143514" lon="11.691236221043344"><ele>3.0</ele><time>2026-05-02T11:59:27.999Z</time></trkpt><trkpt lat="45.019633878459175" lon="11.691443062813924"><ele>3.0</ele><time>2026-05-02T11:59:28.999Z</time></trkpt><trkpt lat="45.01985902090087" lon="11.69165588695634"><ele>3.0</ele><time>2026-05-02T11:59:29.999Z</time></trkpt><trkpt lat="45.02008023888982" lon="11.691867052587048"><ele>2.5</ele><time>2026-05-02T11:59:30.999Z</time></trkpt><trkpt lat="45.020300445225914" lon="11.692076351179587"><ele>2.0</ele><time>2026-05-02T11:59:31.999Z</time></trkpt><trkpt lat="45.02052317868221" lon="11.692285208533443"><ele>2.0</ele><time>2026-05-02T11:59:32.999Z</time></trkpt><trkpt lat="45.020746149047746" lon="11.692493298024973"><ele>2.0</ele><time>2026-05-02T11:59:33.999Z</time></trkpt><trkpt lat="45.02097895403235" lon="11.692700697446117"><ele>2.0</ele><time>2026-05-02T11:59:34.999Z</time></trkpt><trkpt lat="45.02121439688524" lon="11.692898310595854"><ele>2.0</ele><time>2026-05-02T11:59:35.999Z</time></trkpt><trkpt lat="45.02144135803182" lon="11.693100568604043"><ele>3.0</ele><time>2026-05-02T11:59:36.999Z</time></trkpt><trkpt lat="45.02165432540346" lon="11.693315156428861"><ele>4.0</ele><time>2026-05-02T11:59:37.999Z</time></trkpt><trkpt lat="45.021862970659086" lon="11.693527656958942"><ele>3.5</ele><time>2026-05-02T11:59:38.999Z</time></trkpt><trkpt lat="45.02208257654454" lon="11.693743193358761"><ele>3.0</ele><time>2026-05-02T11:59:40.001Z</time></trkpt><trkpt lat="45.02230200149309" lon="11.693947865191783"><ele>2.5</ele><time>2026-05-02T11:59:41Z</time></trkpt><trkpt lat="45.02251669243782" lon="11.694155463414955"><ele>2.0</ele><time>2026-05-02T11:59:42Z</time></trkpt><trkpt lat="45.022734365144395" lon="11.694359771052175"><ele>1.5</ele><time>2026-05-02T11:59:43.001Z</time></trkpt><trkpt lat="45.022950471307894" lon="11.69456861734073"><ele>1.0</ele><time>2026-05-02T11:59:44Z</time></trkpt><trkpt lat="45.023166091837105" lon="11.694771839358053"><ele>0.5</ele><time>2026-05-02T11:59:45Z</time></trkpt><trkpt lat="45.023378774163106" lon="11.694972534442222"><ele>0.0</ele><time>2026-05-02T11:59:46Z</time></trkpt><trkpt lat="45.02358801908325" lon="11.695170757111935"><ele>0.0</ele><time>2026-05-02T11:59:47Z</time></trkpt><trkpt lat="45.02379606316618" lon="11.69537078262629"><ele>0.0</ele><time>2026-05-02T11:59:48Z</time></trkpt><trkpt lat="45.02400051015758" lon="11.695570833170065"><ele>0.5</ele><time>2026-05-02T11:59:49Z</time></trkpt><trkpt lat="45.02421503731899" lon="11.695773873921999"><ele>1.0</ele><time>2026-05-02T11:59:50Z</time></trkpt><trkpt lat="45.02443716739434" lon="11.695972831715238"><ele>1.0</ele><time>2026-05-02T11:59:51Z</time></trkpt><trkpt lat="45.02466118821854" lon="11.696178827895322"><ele>1.0</ele><time>2026-05-02T11:59:52Z</time></trkpt><trkpt lat="45.02488572761744" lon="11.69638688648521"><ele>1.0</ele><time>2026-05-02T11:59:53Z</time></trkpt><trkpt lat="45.02511181651185" lon="11.696597498331768"><ele>1.0</ele><time>2026-05-02T11:59:54Z</time></trkpt><trkpt lat="45.025335494562" lon="11.696809758564907"><ele>1.0</ele><time>2026-05-02T11:59:55Z</time></trkpt><trkpt lat="45.02555583389051" lon="11.697026708989293"><ele>1.0</ele><time>2026-05-02T11:59:56Z</time></trkpt><trkpt lat="45.02577755703598" lon="11.697233314708098"><ele>0.5</ele><time>2026-05-02T11:59:57Z</time></trkpt><trkpt lat="45.02599807496814" lon="11.69744024574924"><ele>0.0</ele><time>2026-05-02T11:59:58Z</time></trkpt><trkpt lat="45.026218482081504" lon="11.69764906951247"><ele>0.5</ele><time>2026-05-02T11:59:59Z</time></trkpt><trkpt lat="45.026438856925274" lon="11.697857713235729"><ele>1.0</ele><time>2026-05-02T12:00:00Z</time></trkpt><trkpt lat="45.02665839192011" lon="11.698065906291651"><ele>1.0</ele><time>2026-05-02T12:00:01Z</time></trkpt><trkpt lat="45.02687935854187" lon="11.698272441746385"><ele>1.0</ele><time>2026-05-02T12:00:02Z</time></trkpt><trkpt lat="45.02710286813433" lon="11.69848030656859"><ele>0.5</ele><time>2026-05-02T12:00:03Z</time></trkpt><trkpt lat="45.02733067251251" lon="11.698691200372318"><ele>0.0</ele><time>2026-05-02T12:00:04Z</time></trkpt><trkpt lat="45.027559514921094" lon="11.69890400888767"><ele>0.0</ele><time>2026-05-02T12:00:05Z</time></trkpt><trkpt lat="45.02778797455948" lon="11.699116266390511"><ele>0.0</ele><time>2026-05-02T12:00:06Z</time></trkpt><trkpt lat="45.02801649968085" lon="11.69932949869221"><ele>0.0</ele><time>2026-05-02T12:00:07Z</time></trkpt><trkpt lat="45.02824352386136" lon="11.69954796319823"><ele>0.0</ele><time>2026-05-02T12:00:08Z</time></trkpt><trkpt lat="45.02846841121105" lon="11.699767216090166"><ele>0.0</ele><time>2026-05-02T12:00:09Z</time></trkpt><trkpt lat="45.02869035151936" lon="11.699984428260027"><ele>0.0</ele><time>2026-05-02T12:00:10Z</time></trkpt><trkpt lat="45.02890582198968" lon="11.700196970268097"><ele>-0.5</ele><time>2026-05-02T12:00:11Z</time></trkpt><trkpt lat="45.02912331737068" lon="11.70039135918798"><ele>-1.0</ele><time>2026-05-02T12:00:12Z</time></trkpt><trkpt lat="45.02934379290552" lon="11.700581761776029"><ele>-1.0</ele><time>2026-05-02T12:00:13Z</time></trkpt><trkpt lat="45.02956937827911" lon="11.70077140189613"><ele>-1.0</ele><time>2026-05-02T12:00:14Z</time></trkpt><trkpt lat="45.02979361908776" lon="11.700961209723078"><ele>-0.5</ele><time>2026-05-02T12:00:15Z</time></trkpt><trkpt lat="45.030018478148165" lon="11.701149508643196"><ele>0.0</ele><time>2026-05-02T12:00:16Z</time></trkpt><trkpt lat="45.03024503655299" lon="11.70133863302464"><ele>0.0</ele><time>2026-05-02T12:00:17Z</time></trkpt><trkpt lat="45.030473575738775" lon="11.70152558872121"><ele>0.0</ele><time>2026-05-02T12:00:18Z</time></trkpt><trkpt lat="45.03070465552832" lon="11.701713562964592"><ele>0.5</ele><time>2026-05-02T12:00:19Z</time></trkpt><trkpt lat="45.03093364347174" lon="11.701900120975987"><ele>1.0</ele><time>2026-05-02T12:00:20Z</time></trkpt><trkpt lat="45.031162612236564" lon="11.702082962928635"><ele>1.5</ele><time>2026-05-02T12:00:21Z</time></trkpt><trkpt lat="45.031392221974855" lon="11.702265542088412"><ele>2.0</ele><time>2026-05-02T12:00:22Z</time></trkpt><trkpt lat="45.03162033300867" lon="11.702448121585945"><ele>1.0</ele><time>2026-05-02T12:00:23Z</time></trkpt><trkpt lat="45.031849627832585" lon="11.702627758395414"><ele>0.0</ele><time>2026-05-02T12:00:24Z</time></trkpt><trkpt lat="45.032078821460466" lon="11.702806224492543"><ele>0.0</ele><time>2026-05-02T12:00:25Z</time></trkpt><trkpt lat="45.03230794452783" lon="11.702983142873094"><ele>0.0</ele><time>2026-05-02T12:00:26Z</time></trkpt><trkpt lat="45.03253401093513" lon="11.703160708862702"><ele>0.0</ele><time>2026-05-02T12:00:27Z</time></trkpt><trkpt lat="45.032764090184806" lon="11.703339125032176"><ele>0.0</ele><time>2026-05-02T12:00:28Z</time></trkpt><trkpt lat="45.03299561573097" lon="11.703520108185417"><ele>0.0</ele><time>2026-05-02T12:00:29Z</time></trkpt><trkpt lat="45.033223950107946" lon="11.703695793137321"><ele>0.0</ele><time>2026-05-02T12:00:30Z</time></trkpt><trkpt lat="45.03344889183881" lon="11.703872243039957"><ele>0.5</ele><time>2026-05-02T12:00:31Z</time></trkpt><trkpt lat="45.03367305636656" lon="11.704047811028609"><ele>1.0</ele><time>2026-05-02T12:00:32Z</time></trkpt><trkpt lat="45.03389664113508" lon="11.7042216436301"><ele>1.0</ele><time>2026-05-02T12:00:33Z</time></trkpt><trkpt lat="45.0341221850399" lon="11.704394719320353"><ele>1.0</ele><time>2026-05-02T12:00:34Z</time></trkpt><trkpt lat="45.03434921769525" lon="11.7045678472905"><ele>2.5</ele><time>2026-05-02T12:00:35Z</time></trkpt><trkpt lat="45.03457511974141" lon="11.704740224130365"><ele>4.0</ele><time>2026-05-02T12:00:36Z</time></trkpt><trkpt lat="45.03480366605967" lon="11.704924360382224"><ele>3.0</ele><time>2026-05-02T12:00:37Z</time></trkpt><trkpt lat="45.03502519179623" lon="11.705112788153041"><ele>2.0</ele><time>2026-05-02T12:00:38Z</time></trkpt><trkpt lat="45.03524864412274" lon="11.7052944870131"><ele>1.5</ele><time>2026-05-02T12:00:39Z</time></trkpt><trkpt lat="45.03547323292251" lon="11.705475001207878"><ele>1.0</ele><time>2026-05-02T12:00:40Z</time></trkpt><trkpt lat="45.0357006722565" lon="11.705654873813822"><ele>0.0</ele><time>2026-05-02T12:00:41Z</time></trkpt><trkpt lat="45.03592768297428" lon="11.705834038264424"><ele>-1.0</ele><time>2026-05-02T12:00:42Z</time></trkpt><trkpt lat="45.03615584659803" lon="11.706011694306255"><ele>-1.0</ele><time>2026-05-02T12:00:43Z</time></trkpt><trkpt lat="45.03638537040251" lon="11.706186897127576"><ele>-1.0</ele><time>2026-05-02T12:00:44Z</time></trkpt><trkpt lat="45.03661622631975" lon="11.706363739388944"><ele>0.5</ele><time>2026-05-02T12:00:45Z</time></trkpt><trkpt lat="45.03684993865523" lon="11.706540865714636"><ele>2.0</ele><time>2026-05-02T12:00:46Z</time></trkpt><trkpt lat="45.037081892357996" lon="11.706719723076091"><ele>2.0</ele><time>2026-05-02T12:00:47Z</time></trkpt><trkpt lat="45.03731288801201" lon="11.706897787296352"><ele>2.0</ele><time>2026-05-02T12:00:48Z</time></trkpt><trkpt lat="45.03754292908777" lon="11.707076548825746"><ele>2.5</ele><time>2026-05-02T12:00:49Z</time></trkpt><trkpt lat="45.03776740773415" lon="11.707256487497737"><ele>3.0</ele><time>2026-05-02T12:00:50Z</time></trkpt><trkpt lat="45.037991202489536" lon="11.707435456997018"><ele>3.0</ele><time>2026-05-02T12:00:51Z</time></trkpt><trkpt lat="45.03821560541385" lon="11.707613110289167"><ele>3.0</ele><time>2026-05-02T12:00:52Z</time></trkpt><trkpt lat="45.03843947952243" lon="11.707790470821921"><ele>3.5</ele><time>2026-05-02T12:00:53Z</time></trkpt><trkpt lat="45.03866183073321" lon="11.707967247298123"><ele>4.0</ele><time>2026-05-02T12:00:54Z</time></trkpt><trkpt lat="45.03888350940092" lon="11.708139549443276"><ele>4.0</ele><time>2026-05-02T12:00:54.999Z</time></trkpt><trkpt lat="45.039097093274876" lon="11.708314383495257"><ele>4.0</ele><time>2026-05-02T12:00:55.999Z</time></trkpt><trkpt lat="45.03930675804123" lon="11.708490101844106"><ele>4.0</ele><time>2026-05-02T12:00:56.999Z</time></trkpt><trkpt lat="45.0395013407984" lon="11.708661289129147"><ele>4.0</ele><time>2026-05-02T12:00:57.999Z</time></trkpt><trkpt lat="45.039692836116195" lon="11.708816252926582"><ele>4.0</ele><time>2026-05-02T12:00:58.999Z</time></trkpt><trkpt lat="45.0398718144527" lon="11.708960680040816"><ele>4.0</ele><time>2026-05-02T12:00:59.999Z</time></trkpt><trkpt lat="45.04004395911767" lon="11.709096596369557"><ele>4.0</ele><time>2026-05-02T12:01:00.999Z</time></trkpt><trkpt lat="45.04020624686729" lon="11.709239357109235"><ele>3.6666666666666665</ele><time>2026-05-02T12:01:01.999Z</time></trkpt><trkpt lat="45.04034580065871" lon="11.709395524648219"><ele>3.333333333333333</ele><time>2026-05-02T12:01:02.999Z</time></trkpt><trkpt lat="45.04046893078035" lon="11.709569922444395"><ele>3.0</ele><time>2026-05-02T12:01:03.999Z</time></trkpt><trkpt lat="45.0405692651653" lon="11.709755845135428"><ele>3.0</ele><time>2026-05-02T12:01:04.999Z</time></trkpt><trkpt lat="45.04068158718555" lon="11.70991701431797"><ele>3.0</ele><time>2026-05-02T12:01:05.999Z</time></trkpt><trkpt lat="45.04080671023724" lon="11.710034202288373"><ele>3.0</ele><time>2026-05-02T12:01:06.999Z</time></trkpt><trkpt lat="45.04090486917437" lon="11.710160141649522"><ele>3.0</ele><time>2026-05-02T12:01:07.999Z</time></trkpt><trkpt lat="45.04098607025892" lon="11.71029879061337"><ele>3.2</ele><time>2026-05-02T12:01:08.999Z</time></trkpt><trkpt lat="45.04107057643818" lon="11.710419384133406"><ele>3.4</ele><time>2026-05-02T12:01:09.999Z</time></trkpt><trkpt lat="45.04116154460656" lon="11.710507591134812"><ele>3.6000000000000005</ele><time>2026-05-02T12:01:10.999Z</time></trkpt><trkpt lat="45.041236300097204" lon="11.710567354664525"><ele>3.8000000000000003</ele><time>2026-05-02T12:01:11.999Z</time></trkpt><trkpt lat="45.04129177322329" lon="11.710628946099204"><ele>4.0</ele><time>2026-05-02T12:01:12.999Z</time></trkpt><trkpt lat="45.04137933582757" lon="11.710740836880534"><ele>3.9999999999999996</ele><time>2026-05-02T12:01:14.999Z</time></trkpt><trkpt lat="45.041473986068944" lon="11.710824660399796"><ele>4.0</ele><time>2026-05-02T12:01:16.999Z</time></trkpt><trkpt lat="45.04155557831478" lon="11.710906716264496"><ele>4.0</ele><time>2026-05-02T12:01:18.999Z</time></trkpt><trkpt lat="45.04161860448357" lon="11.710965900604284"><ele>4.0</ele><time>2026-05-02T12:01:20.999Z</time></trkpt><trkpt lat="45.04167834702165" lon="11.711003424115829"><ele>3.9999999999999996</ele><time>2026-05-02T12:01:22.999Z</time></trkpt><trkpt lat="45.041760891829774" lon="11.710982365241025"><ele>4.0</ele><time>2026-05-02T12:01:25.999Z</time></trkpt><trkpt lat="45.04179268137822" lon="11.711062880150898"><ele>3.0</ele><time>2026-05-02T12:01:27.999Z</time></trkpt><trkpt lat="45.041763723202926" lon="11.711146506051687"><ele>2.0</ele><time>2026-05-02T12:01:29.999Z</time></trkpt></trkseg><trkseg><trkpt lat="45.04950262935076" lon="11.71645633320411"><ele>3.0</ele><time>2026-05-02T12:21:09Z</time></trkpt><trkpt lat="45.04973894484826" lon="11.71663251994916"><ele>3.0</ele><time>2026-05-02T12:21:10Z</time></trkpt><trkpt lat="45.04997076740482" lon="11.71680494324053"><ele>3.0</ele><time>2026-05-02T12:21:11Z</time></trkpt><trkpt lat="45.05020593375438" lon="11.716993511244333"><ele>3.0</ele><time>2026-05-02T12:21:12Z</time></trkpt><trkpt lat="45.05044617373334" lon="11.71718402321131"><ele>3.0</ele><time>2026-05-02T12:21:13Z</time></trkpt><trkpt lat="45.05068192385245" lon="11.71736809708913"><ele>3.0</ele><time>2026-05-02T12:21:14Z</time></trkpt><trkpt lat="45.05091481393414" lon="11.717554554341207"><ele>3.0</ele><time>2026-05-02T12:21:15Z</time></trkpt><trkpt lat="45.051145001363665" lon="11.717740980340952"><ele>3.0</ele><time>2026-05-02T12:21:16Z</time></trkpt><trkpt lat="45.05137694544162" lon="11.71792820717098"><ele>3.0</ele><time>2026-05-02T12:21:17Z</time></trkpt><trkpt lat="45.05160834875601" lon="11.718112412973749"><ele>3.0</ele><time>2026-05-02T12:21:18Z</time></trkpt><trkpt lat="45.051841673949724" lon="11.718296513072863"><ele>3.5</ele><time>2026-05-02T12:21:19Z</time></trkpt><trkpt lat="45.052076745790586" lon="11.71847717414118"><ele>4.0</ele><time>2026-05-02T12:21:20Z</time></trkpt><trkpt lat="45.052313367277414" lon="11.71865658482281"><ele>4.0</ele><time>2026-05-02T12:21:21Z</time></trkpt><trkpt lat="45.052550406886844" lon="11.718833529605126"><ele>4.0</ele><time>2026-05-02T12:21:22Z</time></trkpt><trkpt lat="45.05278798231686" lon="11.719019256139287"><ele>4.0</ele><time>2026-05-02T12:21:23Z</time></trkpt><trkpt lat="45.05302225179834" lon="11.719204052809996"><ele>4.0</ele><time>2026-05-02T12:21:24Z</time></trkpt><trkpt lat="45.053256409430595" lon="11.71938962070883"><ele>3.5</ele><time>2026-05-02T12:21:24.999Z</time></trkpt><trkpt lat="45.05349041713584" lon="11.719573671890275"><ele>3.0</ele><time>2026-05-02T12:21:25.999Z</time></trkpt><trkpt lat="45.053724333619066" lon="11.719757610259311"><ele>3.0</ele><time>2026-05-02T12:21:26.999Z</time></trkpt><trkpt lat="45.053955135891385" lon="11.719937234187448"><ele>3.0</ele><time>2026-05-02T12:21:27.999Z</time></trkpt><trkpt lat="45.05418657388381" lon="11.720118960500354"><ele>3.0</ele><time>2026-05-02T12:21:28.999Z</time></trkpt><trkpt lat="45.05442113165638" lon="11.720300701006607"><ele>3.0</ele><time>2026-05-02T12:21:29.999Z</time></trkpt><trkpt lat="45.05465453909994" lon="11.720485174077549"><ele>3.0</ele><time>2026-05-02T12:21:30.999Z</time></trkpt><trkpt lat="45.054891379896965" lon="11.72067218274225"><ele>3.0</ele><time>2026-05-02T12:21:31.999Z</time></trkpt><trkpt lat="45.0551268528139" lon="11.720853778774618"><ele>2.5</ele><time>2026-05-02T12:21:32.999Z</time></trkpt><trkpt lat="45.05536638194609" lon="11.721042227036127"><ele>2.0</ele><time>2026-05-02T12:21:33.999Z</time></trkpt><trkpt lat="45.0556125064547" lon="11.72122734086374"><ele>2.0</ele><time>2026-05-02T12:21:34.999Z</time></trkpt><trkpt lat="45.055856114624675" lon="11.72141396802672"><ele>2.0</ele><time>2026-05-02T12:21:35.999Z</time></trkpt><trkpt lat="45.05609439475529" lon="11.721603470638247"><ele>2.0</ele><time>2026-05-02T12:21:36.999Z</time></trkpt><trkpt lat="45.05633088547332" lon="11.721788105468029"><ele>2.0</ele><time>2026-05-02T12:21:37.999Z</time></trkpt><trkpt lat="45.05657239224254" lon="11.72197571762885"><ele>2.0</ele><time>2026-05-02T12:21:38.999Z</time></trkpt><trkpt lat="45.056815513878" lon="11.722162132556099"><ele>2.0</ele><time>2026-05-02T12:21:39.999Z</time></trkpt><trkpt lat="45.057059131845804" lon="11.7223532078892"><ele>2.0</ele><time>2026-05-02T12:21:40.999Z</time></trkpt><trkpt lat="45.05730402428122" lon="11.722545565741505"><ele>2.0</ele><time>2026-05-02T12:21:41.999Z</time></trkpt><trkpt lat="45.05754667121509" lon="11.722738222859448"><ele>1.5</ele><time>2026-05-02T12:21:42.999Z</time></trkpt><trkpt lat="45.05778839075435" lon="11.722926784540395"><ele>1.0</ele><time>2026-05-02T12:21:43.999Z</time></trkpt><trkpt lat="45.05803168219418" lon="11.723117121139122"><ele>1.0</ele><time>2026-05-02T12:21:44.999Z</time></trkpt><trkpt lat="45.05827569614496" lon="11.723305202383601"><ele>1.0</ele><time>2026-05-02T12:21:45.999Z</time></trkpt><trkpt lat="45.05852026734708" lon="11.723497168338973"><ele>1.5</ele><time>2026-05-02T12:21:46.999Z</time></trkpt><trkpt lat="45.0587643327791" lon="11.723683460551229"><ele>2.0</ele><time>2026-05-02T12:21:47.999Z</time></trkpt><trkpt lat="45.0590088171904" lon="11.723874951430115"><ele>2.0</ele><time>2026-05-02T12:21:48.999Z</time></trkpt><trkpt lat="45.05925034758404" lon="11.724065072062752"><ele>2.0</ele><time>2026-05-02T12:21:49.999Z</time></trkpt><trkpt lat="45.05949370424251" lon="11.724257642772383"><ele>1.5</ele><time>2026-05-02T12:21:50.999Z</time></trkpt><trkpt lat="45.059735662855026" lon="11.724450035301373"><ele>1.0</ele><time>2026-05-02T12:21:51.999Z</time></trkpt><trkpt lat="45.059972707699835" lon="11.724632697449001"><ele>1.0</ele><time>2026-05-02T12:21:52.999Z</time></trkpt><trkpt lat="45.06021096501815" lon="11.724819718075258"><ele>1.0</ele><time>2026-05-02T12:21:53.999Z</time></trkpt><trkpt lat="45.06045104512761" lon="11.725012850350991"><ele>1.0</ele><time>2026-05-02T12:21:54.999Z</time></trkpt><trkpt lat="45.06069260943279" lon="11.725197334518555"><ele>1.0</ele><time>2026-05-02T12:21:55.999Z</time></trkpt><trkpt lat="45.06093098059379" lon="11.725381560513043"><ele>0.5</ele><time>2026-05-02T12:21:56.999Z</time></trkpt><trkpt lat="45.061166977579205" lon="11.725565858147156"><ele>0.0</ele><time>2026-05-02T12:21:57.999Z</time></trkpt><trkpt lat="45.06140525057285" lon="11.725747812344094"><ele>0.0</ele><time>2026-05-02T12:21:58.999Z</time></trkpt><trkpt lat="45.0616454662208" lon="11.725933776872116"><ele>0.0</ele><time>2026-05-02T12:21:59.999Z</time></trkpt><trkpt lat="45.06188447377473" lon="11.726120773244293"><ele>1.0</ele><time>2026-05-02T12:22:00.999Z</time></trkpt><trkpt lat="45.062123155199956" lon="11.72631132201414"><ele>2.0</ele><time>2026-05-02T12:22:01.999Z</time></trkpt><trkpt lat="45.062358444177626" lon="11.726496337199459"><ele>3.0</ele><time>2026-05-02T12:22:02.999Z</time></trkpt><trkpt lat="45.062598850205625" lon="11.726683193656811"><ele>4.0</ele><time>2026-05-02T12:22:03.999Z</time></trkpt><trkpt lat="45.06283800493987" lon="11.726868474289523"><ele>3.5</ele><time>2026-05-02T12:22:04.999Z</time></trkpt><trkpt lat="45.06307721657118" lon="11.727057284365934"><ele>3.0</ele><time>2026-05-02T12:22:05.999Z</time></trkpt><trkpt lat="45.0633178881951" lon="11.727248424614308"><ele>2.5</ele><time>2026-05-02T12:22:06.999Z</time></trkpt><trkpt lat="45.0635588359161" lon="11.727436227077488"><ele>2.0</ele><time>2026-05-02T12:22:07.999Z</time></trkpt><trkpt lat="45.0637984731631" lon="11.727620144477209"><ele>2.0</ele><time>2026-05-02T12:22:08.999Z</time></trkpt><trkpt lat="45.0640360461784" lon="11.727802372732128"><ele>2.0</ele><time>2026-05-02T12:22:09.999Z</time></trkpt><trkpt lat="45.06427426550431" lon="11.727988966833058"><ele>1.0</ele><time>2026-05-02T12:22:10.999Z</time></trkpt><trkpt lat="45.064512212647564" lon="11.728178776144786"><ele>0.0</ele><time>2026-05-02T12:22:11.999Z</time></trkpt><trkpt lat="45.0647547435385" lon="11.728368498977794"><ele>0.0</ele><time>2026-05-02T12:22:12.999Z</time></trkpt><trkpt lat="45.065000872737855" lon="11.728559068333322"><ele>0.0</ele><time>2026-05-02T12:22:13.999Z</time></trkpt><trkpt lat="45.06524923757439" lon="11.728749856266587"><ele>0.0</ele><time>2026-05-02T12:22:14.999Z</time></trkpt><trkpt lat="45.06549489377652" lon="11.728946523704858"><ele>0.0</ele><time>2026-05-02T12:22:15.999Z</time></trkpt><trkpt lat="45.06573822738618" lon="11.729144938942191"><ele>0.0</ele><time>2026-05-02T12:22:16.999Z</time></trkpt><trkpt lat="45.06598396007882" lon="11.72934270214643"><ele>0.0</ele><time>2026-05-02T12:22:17.999Z</time></trkpt><trkpt lat="45.06622764555302" lon="11.729536877267694"><ele>0.0</ele><time>2026-05-02T12:22:18.999Z</time></trkpt><trkpt lat="45.066470768609335" lon="11.729729268896465"><ele>0.0</ele><time>2026-05-02T12:22:19.999Z</time></trkpt><trkpt lat="45.066712386215706" lon="11.729918109079616"><ele>-0.5</ele><time>2026-05-02T12:22:20.999Z</time></trkpt><trkpt lat="45.066953900254504" lon="11.73010502646023"><ele>-1.0</ele><time>2026-05-02T12:22:21.999Z</time></trkpt><trkpt lat="45.06719220953737" lon="11.730290072555896"><ele>0.0</ele><time>2026-05-02T12:22:22.999Z</time></trkpt><trkpt lat="45.067429379433115" lon="11.730475365590058"><ele>1.0</ele><time>2026-05-02T12:22:23.999Z</time></trkpt><trkpt lat="45.06766753778189" lon="11.730659577606543"><ele>1.5</ele><time>2026-05-02T12:22:24.999Z</time></trkpt><trkpt lat="45.067903535746716" lon="11.73083989088565"><ele>2.0</ele><time>2026-05-02T12:22:25.999Z</time></trkpt><trkpt lat="45.06813856215985" lon="11.731016235425061"><ele>1.0</ele><time>2026-05-02T12:22:26.999Z</time></trkpt><trkpt lat="45.06837525932608" lon="11.731194261129577"><ele>0.0</ele><time>2026-05-02T12:22:27.999Z</time></trkpt><trkpt lat="45.06861241076218" lon="11.73137523703148"><ele>0.0</ele><time>2026-05-02T12:22:28.999Z</time></trkpt><trkpt lat="45.06884972647098" lon="11.731556474976891"><ele>0.0</ele><time>2026-05-02T12:22:29.999Z</time></trkpt><trkpt lat="45.06908763085283" lon="11.731737516783852"><ele>0.5</ele><time>2026-05-02T12:22:30.999Z</time></trkpt><trkpt lat="45.06932654616786" lon="11.731919975011253"><ele>1.0</ele><time>2026-05-02T12:22:31.999Z</time></trkpt><trkpt lat="45.069566122663076" lon="11.732105694663357"><ele>1.0</ele><time>2026-05-02T12:22:32.999Z</time></trkpt><trkpt lat="45.069807594194096" lon="11.732294498789146"><ele>1.0</ele><time>2026-05-02T12:22:33.999Z</time></trkpt><trkpt lat="45.07004653731641" lon="11.732482024083431"><ele>1.0</ele><time>2026-05-02T12:22:34.999Z</time></trkpt><trkpt lat="45.07028884670719" lon="11.732672141927345"><ele>1.0</ele><time>2026-05-02T12:22:35.999Z</time></trkpt><trkpt lat="45.070530619030265" lon="11.732862143231378"><ele>1.0</ele><time>2026-05-02T12:22:36.999Z</time></trkpt><trkpt lat="45.070771085280846" lon="11.733050372689705"><ele>1.0</ele><time>2026-05-02T12:22:37.999Z</time></trkpt><trkpt lat="45.07101339788727" lon="11.73323987785903"><ele>2.0</ele><time>2026-05-02T12:22:38.999Z</time></trkpt><trkpt lat="45.071255483492706" lon="11.733429611543583"><ele>3.0</ele><time>2026-05-02T12:22:39.998Z</time></trkpt><trkpt lat="45.07149869531531" lon="11.733618566544424"><ele>4.5</ele><time>2026-05-02T12:22:40.998Z</time></trkpt><trkpt lat="45.07173797476244" lon="11.733806443973148"><ele>6.0</ele><time>2026-05-02T12:22:41.998Z</time></trkpt><trkpt lat="45.0719786139279" lon="11.73399409164625"><ele>6.0</ele><time>2026-05-02T12:22:42.998Z</time></trkpt><trkpt lat="45.07221870353232" lon="11.73418293708073"><ele>6.0</ele><time>2026-05-02T12:22:43.998Z</time></trkpt><trkpt lat="45.07245338895026" lon="11.734370284006811"><ele>5.5</ele><time>2026-05-02T12:22:45Z</time></trkpt><trkpt lat="45.072687978103616" lon="11.734557393015205"><ele>5.0</ele><time>2026-05-02T12:22:46Z</time></trkpt><trkpt lat="45.07292206018767" lon="11.734743318786435"><ele>5.0</ele><time>2026-05-02T12:22:47Z</time></trkpt><trkpt lat="45.07315818831586" lon="11.73493073939574"><ele>5.0</ele><time>2026-05-02T12:22:48Z</time></trkpt><trkpt lat="45.07339414006034" lon="11.735115814890266"><ele>4.0</ele><time>2026-05-02T12:22:49Z</time></trkpt><trkpt lat="45.07363240936637" lon="11.735303609827504"><ele>3.0</ele><time>2026-05-02T12:22:50Z</time></trkpt><trkpt lat="45.0738717499507" lon="11.735491932641908"><ele>3.0</ele><time>2026-05-02T12:22:51Z</time></trkpt><trkpt lat="45.07410939296554" lon="11.735679037221168"><ele>3.0</ele><time>2026-05-02T12:22:52Z</time></trkpt><trkpt lat="45.0743478363296" lon="11.73586609212918"><ele>3.0</ele><time>2026-05-02T12:22:53Z</time></trkpt><trkpt lat="45.07459022777898" lon="11.736049432084735"><ele>3.0</ele><time>2026-05-02T12:22:54Z</time></trkpt><trkpt lat="45.074833306242994" lon="11.736233797564815"><ele>2.0</ele><time>2026-05-02T12:22:55Z</time></trkpt><trkpt lat="45.07507194928878" lon="11.736422459749265"><ele>1.0</ele><time>2026-05-02T12:22:56Z</time></trkpt><trkpt lat="45.07531091787791" lon="11.736609325455586"><ele>1.0</ele><time>2026-05-02T12:22:57Z</time></trkpt><trkpt lat="45.07554726223412" lon="11.736796133790909"><ele>1.0</ele><time>2026-05-02T12:22:58Z</time></trkpt><trkpt lat="45.07578479969535" lon="11.73698337815475"><ele>1.0</ele><time>2026-05-02T12:22:59Z</time></trkpt><trkpt lat="45.076024829959" lon="11.737169980980282"><ele>1.0</ele><time>2026-05-02T12:23:00Z</time></trkpt><trkpt lat="45.07626577038139" lon="11.737356807634125"><ele>1.0</ele><time>2026-05-02T12:23:01Z</time></trkpt><trkpt lat="45.07650551916387" lon="11.737543747355561"><ele>1.0</ele><time>2026-05-02T12:23:02Z</time></trkpt><trkpt lat="45.076745703557435" lon="11.737728180910588"><ele>1.0</ele><time>2026-05-02T12:23:03Z</time></trkpt><trkpt lat="45.076985224139634" lon="11.73791227257661"><ele>1.0</ele><time>2026-05-02T12:23:04Z</time></trkpt><trkpt lat="45.07721813080574" lon="11.738097783167765"><ele>1.5</ele><time>2026-05-02T12:23:05Z</time></trkpt><trkpt lat="45.07745294402255" lon="11.738283875106525"><ele>2.0</ele><time>2026-05-02T12:23:06Z</time></trkpt><trkpt lat="45.077688222763605" lon="11.738469132597706"><ele>1.5</ele><time>2026-05-02T12:23:07Z</time></trkpt><trkpt lat="45.077922123297924" lon="11.73865482454799"><ele>1.0</ele><time>2026-05-02T12:23:08Z</time></trkpt><trkpt lat="45.07815679067441" lon="11.738838367440188"><ele>1.5</ele><time>2026-05-02T12:23:09Z</time></trkpt><trkpt lat="45.07839390608524" lon="11.739022128232245"><ele>2.0</ele><time>2026-05-02T12:23:10Z</time></trkpt><trkpt lat="45.07863109257612" lon="11.739205349547936"><ele>1.5</ele><time>2026-05-02T12:23:11Z</time></trkpt><trkpt lat="45.07887081885165" lon="11.739394270560162"><ele>1.0</ele><time>2026-05-02T12:23:12Z</time></trkpt><trkpt lat="45.07911330709932" lon="11.739586315964132"><ele>2.5</ele><time>2026-05-02T12:23:13Z</time></trkpt><trkpt lat="45.07935215027728" lon="11.739772844702081"><ele>4.0</ele><time>2026-05-02T12:23:14Z</time></trkpt><trkpt lat="45.0795968410466" lon="11.739957478414256"><ele>4.0</ele><time>2026-05-02T12:23:15Z</time></trkpt><trkpt lat="45.07983910028709" lon="11.740150546455101"><ele>4.0</ele><time>2026-05-02T12:23:16Z</time></trkpt><trkpt lat="45.08007962103241" lon="11.740340969684873"><ele>3.0</ele><time>2026-05-02T12:23:17Z</time></trkpt><trkpt lat="45.080319477288775" lon="11.740525767032636"><ele>2.0</ele><time>2026-05-02T12:23:18Z</time></trkpt><trkpt lat="45.080556570831476" lon="11.74070847512256"><ele>2.0</ele><time>2026-05-02T12:23:19Z</time></trkpt><trkpt lat="45.08079362324663" lon="11.740891544080633"><ele>2.0</ele><time>2026-05-02T12:23:20Z</time></trkpt><trkpt lat="45.08103200863453" lon="11.741078408915676"><ele>2.0</ele><time>2026-05-02T12:23:21Z</time></trkpt><trkpt lat="45.081274293166445" lon="11.741265525753949"><ele>2.0</ele><time>2026-05-02T12:23:22Z</time></trkpt><trkpt lat="45.08152022159888" lon="11.741459048506965"><ele>1.5</ele><time>2026-05-02T12:23:23Z</time></trkpt><trkpt lat="45.08176185006235" lon="11.74165097135089"><ele>1.0</ele><time>2026-05-02T12:23:24Z</time></trkpt><trkpt lat="45.08201015735824" lon="11.741855338271712"><ele>1.5</ele><time>2026-05-02T12:23:25Z</time></trkpt><trkpt lat="45.08224445614792" lon="11.74203663076915"><ele>2.0</ele><time>2026-05-02T12:23:26Z</time></trkpt><trkpt lat="45.08248446383143" lon="11.742223190224392"><ele>2.5</ele><time>2026-05-02T12:23:26.999Z</time></trkpt><trkpt lat="45.082726751403065" lon="11.742411501540102"><ele>3.0</ele><time>2026-05-02T12:23:27.999Z</time></trkpt><trkpt lat="45.08296726154133" lon="11.742599012619353"><ele>3.0</ele><time>2026-05-02T12:23:28.999Z</time></trkpt><trkpt lat="45.08320534095487" lon="11.742784601622908"><ele>3.0</ele><time>2026-05-02T12:23:29.999Z</time></trkpt><trkpt lat="45.08344029053909" lon="11.742970849377219"><ele>3.5</ele><time>2026-05-02T12:23:30.999Z</time></trkpt><trkpt lat="45.083676918474026" lon="11.74315810524801"><ele>4.0</ele><time>2026-05-02T12:23:31.999Z</time></trkpt><trkpt lat="45.08391336567971" lon="11.743344136128032"><ele>2.5</ele><time>2026-05-02T12:23:32.999Z</time></trkpt><trkpt lat="45.084150699933566" lon="11.743529663760002"><ele>1.0</ele><time>2026-05-02T12:23:33.999Z</time></trkpt><trkpt lat="45.08438896702383" lon="11.743713431149375"><ele>1.0</ele><time>2026-05-02T12:23:34.999Z</time></trkpt><trkpt lat="45.08463151541721" lon="11.743899176627059"><ele>1.0</ele><time>2026-05-02T12:23:35.999Z</time></trkpt><trkpt lat="45.08487380618378" lon="11.744088034458755"><ele>1.5</ele><time>2026-05-02T12:23:36.999Z</time></trkpt><trkpt lat="45.08511725967566" lon="11.744278498617689"><ele>2.0</ele><time>2026-05-02T12:23:37.999Z</time></trkpt><trkpt lat="45.08536035572612" lon="11.744468216337417"><ele>2.5</ele><time>2026-05-02T12:23:38.999Z</time></trkpt><trkpt lat="45.08560504569358" lon="11.744663546244682"><ele>3.0</ele><time>2026-05-02T12:23:39.999Z</time></trkpt><trkpt lat="45.085850996161014" lon="11.744858431230266"><ele>3.0</ele><time>2026-05-02T12:23:40.999Z</time></trkpt><trkpt lat="45.08609753241483" lon="11.745047792226572"><ele>3.0</ele><time>2026-05-02T12:23:41.999Z</time></trkpt><trkpt lat="45.08634802762131" lon="11.745237381276118"><ele>2.5</ele><time>2026-05-02T12:23:42.999Z</time></trkpt><trkpt lat="45.086600632439804" lon="11.745426072933732"><ele>2.0</ele><time>2026-05-02T12:23:43.999Z</time></trkpt><trkpt lat="45.08685249163191" lon="11.74560979016652"><ele>2.0</ele><time>2026-05-02T12:23:44.999Z</time></trkpt><trkpt lat="45.08710382635499" lon="11.745787021123734"><ele>2.0</ele><time>2026-05-02T12:23:45.999Z</time></trkpt><trkpt lat="45.08735612008927" lon="11.745960523521646"><ele>2.5</ele><time>2026-05-02T12:23:46.999Z</time></trkpt><trkpt lat="45.08761049835265" lon="11.746129172888889"><ele>3.0</ele><time>2026-05-02T12:23:47.999Z</time></trkpt><trkpt lat="45.087862454044476" lon="11.74629377477369"><ele>3.0</ele><time>2026-05-02T12:23:48.999Z</time></trkpt><trkpt lat="45.088112312418396" lon="11.746454989109646"><ele>3.0</ele><time>2026-05-02T12:23:49.999Z</time></trkpt><trkpt lat="45.08836027506728" lon="11.746613338427489"><ele>2.5</ele><time>2026-05-02T12:23:50.999Z</time></trkpt><trkpt lat="45.08860916854576" lon="11.746771065909318"><ele>2.0</ele><time>2026-05-02T12:23:51.999Z</time></trkpt><trkpt lat="45.08885881511822" lon="11.746924657151485"><ele>2.0</ele><time>2026-05-02T12:23:52.999Z</time></trkpt><trkpt lat="45.089108379608355" lon="11.747076931471572"><ele>2.0</ele><time>2026-05-02T12:23:53.999Z</time></trkpt><trkpt lat="45.089359612993235" lon="11.747224843975337"><ele>2.0</ele><time>2026-05-02T12:23:54.999Z</time></trkpt><trkpt lat="45.089613574794605" lon="11.747369051426764"><ele>2.0</ele><time>2026-05-02T12:23:55.999Z</time></trkpt><trkpt lat="45.089867374115" lon="11.747517425542103"><ele>2.0</ele><time>2026-05-02T12:23:56.999Z</time></trkpt><trkpt lat="45.09012108792702" lon="11.747661884974132"><ele>2.0</ele><time>2026-05-02T12:23:57.999Z</time></trkpt><trkpt lat="45.090375881333685" lon="11.747808667660541"><ele>2.5</ele><time>2026-05-02T12:23:58.999Z</time></trkpt><trkpt lat="45.09062877815489" lon="11.747954506374287"><ele>3.0</ele><time>2026-05-02T12:23:59.999Z</time></trkpt><trkpt lat="45.09088253633664" lon="11.748102749771226"><ele>3.5</ele><time>2026-05-02T12:24:00.999Z</time></trkpt><trkpt lat="45.09113592349056" lon="11.74825553195612"><ele>4.0</ele><time>2026-05-02T12:24:01.999Z</time></trkpt><trkpt lat="45.09138816779265" lon="11.748403268781294"><ele>4.0</ele><time>2026-05-02T12:24:02.999Z</time></trkpt><trkpt lat="45.09163879474991" lon="11.748549728051223"><ele>4.0</ele><time>2026-05-02T12:24:03.999Z</time></trkpt><trkpt lat="45.091890961369955" lon="11.74869609384881"><ele>4.0</ele><time>2026-05-02T12:24:04.999Z</time></trkpt><trkpt lat="45.09214125656371" lon="11.748839942602103"><ele>4.0</ele><time>2026-05-02T12:24:05.999Z</time></trkpt><trkpt lat="45.09239237396101" lon="11.748984782260521"><ele>3.5</ele><time>2026-05-02T12:24:06.999Z</time></trkpt><trkpt lat="45.092645792961875" lon="11.74912874645593"><ele>3.0</ele><time>2026-05-02T12:24:07.999Z</time></trkpt><trkpt lat="45.09290014744801" lon="11.74927739674868"><ele>3.0</ele><time>2026-05-02T12:24:08.999Z</time></trkpt><trkpt lat="45.09315024088967" lon="11.749423885520786"><ele>3.0</ele><time>2026-05-02T12:24:09.999Z</time></trkpt><trkpt lat="45.09340316810335" lon="11.749574491089646"><ele>3.5</ele><time>2026-05-02T12:24:10.999Z</time></trkpt><trkpt lat="45.09365802696968" lon="11.749720704620142"><ele>4.0</ele><time>2026-05-02T12:24:11.999Z</time></trkpt><trkpt lat="45.09391281887383" lon="11.749866418758897"><ele>4.0</ele><time>2026-05-02T12:24:12.999Z</time></trkpt><trkpt lat="45.09416841441919" lon="11.750012362920774"><ele>4.0</ele><time>2026-05-02T12:24:13.999Z</time></trkpt><trkpt lat="45.094424038952944" lon="11.750159465389851"><ele>3.5</ele><time>2026-05-02T12:24:14.999Z</time></trkpt><trkpt lat="45.09468011192148" lon="11.750308577105956"><ele>3.0</ele><time>2026-05-02T12:24:15.999Z</time></trkpt><trkpt lat="45.09493077486165" lon="11.750455031586625"><ele>2.5</ele><time>2026-05-02T12:24:16.999Z</time></trkpt><trkpt lat="45.09517800789052" lon="11.750598433755595"><ele>2.0</ele><time>2026-05-02T12:24:17.999Z</time></trkpt><trkpt lat="45.09542527037149" lon="11.75074072701188"><ele>2.0</ele><time>2026-05-02T12:24:18.999Z</time></trkpt><trkpt lat="45.095673485628055" lon="11.750883503592027"><ele>2.0</ele><time>2026-05-02T12:24:19.999Z</time></trkpt><trkpt lat="45.095921193357896" lon="11.751026102062905"><ele>5.5</ele><time>2026-05-02T12:24:20.999Z</time></trkpt><trkpt lat="45.09617076082484" lon="11.751174169420946"><ele>9.0</ele><time>2026-05-02T12:24:21.999Z</time></trkpt><trkpt lat="45.09642130150427" lon="11.751324925911725"><ele>7.0</ele><time>2026-05-02T12:24:22.999Z</time></trkpt><trkpt lat="45.09667489935171" lon="11.751472240553337"><ele>5.0</ele><time>2026-05-02T12:24:23.999Z</time></trkpt><trkpt lat="45.09693218815191" lon="11.751619371626452"><ele>5.0</ele><time>2026-05-02T12:24:24.999Z</time></trkpt><trkpt lat="45.09719016530215" lon="11.75176757353336"><ele>5.0</ele><time>2026-05-02T12:24:25.999Z</time></trkpt><trkpt lat="45.09744323064037" lon="11.751919247309031"><ele>5.5</ele><time>2026-05-02T12:24:26.999Z</time></trkpt><trkpt lat="45.09769387318372" lon="11.752065587533158"><ele>6.0</ele><time>2026-05-02T12:24:27.999Z</time></trkpt><trkpt lat="45.09794384772488" lon="11.75220662897699"><ele>6.0</ele><time>2026-05-02T12:24:28.999Z</time></trkpt><trkpt lat="45.09819402095444" lon="11.752350464352585"><ele>6.0</ele><time>2026-05-02T12:24:29.999Z</time></trkpt><trkpt lat="45.09844770231092" lon="11.752496611300487"><ele>5.0</ele><time>2026-05-02T12:24:30.999Z</time></trkpt><trkpt lat="45.098701564131225" lon="11.75264341527709"><ele>4.0</ele><time>2026-05-02T12:24:31.999Z</time></trkpt><trkpt lat="45.09895821867249" lon="11.752796123601973"><ele>4.0</ele><time>2026-05-02T12:24:32.999Z</time></trkpt><trkpt lat="45.099212202116085" lon="11.752945672454057"><ele>4.0</ele><time>2026-05-02T12:24:33.999Z</time></trkpt><trkpt lat="45.09946719603488" lon="11.753091043017447"><ele>4.0</ele><time>2026-05-02T12:24:34.999Z</time></trkpt><trkpt lat="45.09972197631806" lon="11.753237898937456"><ele>4.0</ele><time>2026-05-02T12:24:35.999Z</time></trkpt><trkpt lat="45.09997411743962" lon="11.753389549353297"><ele>3.5</ele><time>2026-05-02T12:24:36.999Z</time></trkpt><trkpt lat="45.10022738516739" lon="11.753540813359994"><ele>3.0</ele><time>2026-05-02T12:24:37.999Z</time></trkpt><trkpt lat="45.100482280789976" lon="11.75369306876491"><ele>3.0</ele><time>2026-05-02T12:24:38.999Z</time></trkpt><trkpt lat="45.10073588093508" lon="11.753838665104489"><ele>3.0</ele><time>2026-05-02T12:24:39.999Z</time></trkpt><trkpt lat="45.100987400719724" lon="11.75398315912733"><ele>3.0</ele><time>2026-05-02T12:24:40.999Z</time></trkpt><trkpt lat="45.101238545022305" lon="11.75413598159546"><ele>3.0</ele><time>2026-05-02T12:24:41.998Z</time></trkpt><trkpt lat="45.101488662099186" lon="11.754282643451276"><ele>2.0</ele><time>2026-05-02T12:24:42.998Z</time></trkpt><trkpt lat="45.10173498366677" lon="11.754424454054764"><ele>1.0</ele><time>2026-05-02T12:24:43.998Z</time></trkpt><trkpt lat="45.10198378701994" lon="11.754565295767206"><ele>1.0</ele><time>2026-05-02T12:24:44.998Z</time></trkpt><trkpt lat="45.102235367783294" lon="11.754705223045715"><ele>1.0</ele><time>2026-05-02T12:24:45.998Z</time></trkpt><trkpt lat="45.102489109966264" lon="11.754844343927878"><ele>4.0</ele><time>2026-05-02T12:24:46.998Z</time></trkpt><trkpt lat="45.10299512305397" lon="11.755141735490854"><ele>3.0</ele><time>2026-05-02T12:24:48.998Z</time></trkpt><trkpt lat="45.10324878812842" lon="11.755295840367108"><ele>2.0</ele><time>2026-05-02T12:24:49.998Z</time></trkpt><trkpt lat="45.10350066759128" lon="11.755455341468526"><ele>2.0</ele><time>2026-05-02T12:24:51Z</time></trkpt><trkpt lat="45.103751477458076" lon="11.75561773183797"><ele>2.0</ele><time>2026-05-02T12:24:52Z</time></trkpt><trkpt lat="45.10400272895029" lon="11.755787120053483"><ele>2.5</ele><time>2026-05-02T12:24:53Z</time></trkpt><trkpt lat="45.10425194197995" lon="11.75596034591278"><ele>3.0</ele><time>2026-05-02T12:24:54Z</time></trkpt><trkpt lat="45.10449926804842" lon="11.756138528668625"><ele>3.0</ele><time>2026-05-02T12:24:55Z</time></trkpt><trkpt lat="45.104744059017115" lon="11.756322676974586"><ele>3.0</ele><time>2026-05-02T12:24:56Z</time></trkpt><trkpt lat="45.10498677304301" lon="11.756503460444744"><ele>2.5</ele><time>2026-05-02T12:24:57Z</time></trkpt><trkpt lat="45.10522331064507" lon="11.756695274476611"><ele>2.0</ele><time>2026-05-02T12:24:58Z</time></trkpt><trkpt lat="45.105460322098466" lon="11.756890258293208"><ele>1.5</ele><time>2026-05-02T12:24:59Z</time></trkpt><trkpt lat="45.10569444789998" lon="11.757087972168883"><ele>1.0</ele><time>2026-05-02T12:25:00Z</time></trkpt><trkpt lat="45.10593095467642" lon="11.757290532994338"><ele>2.5</ele><time>2026-05-02T12:25:01Z</time></trkpt><trkpt lat="45.10616823753497" lon="11.757492665052874"><ele>4.0</ele><time>2026-05-02T12:25:02Z</time></trkpt><trkpt lat="45.10640242081996" lon="11.757696153730546"><ele>3.5</ele><time>2026-05-02T12:25:03Z</time></trkpt><trkpt lat="45.10663549233082" lon="11.7579029813348"><ele>3.0</ele><time>2026-05-02T12:25:04Z</time></trkpt><trkpt lat="45.10686824553327" lon="11.758113292099583"><ele>3.0</ele><time>2026-05-02T12:25:05Z</time></trkpt><trkpt lat="45.10710081760054" lon="11.758325650104906"><ele>3.0</ele><time>2026-05-02T12:25:06Z</time></trkpt><trkpt lat="45.10733308372584" lon="11.758537597126203"><ele>3.0</ele><time>2026-05-02T12:25:07Z</time></trkpt><trkpt lat="45.107564805019386" lon="11.758747119797816"><ele>3.0</ele><time>2026-05-02T12:25:08Z</time></trkpt><trkpt lat="45.10779650014378" lon="11.758957136848517"><ele>3.0</ele><time>2026-05-02T12:25:09Z</time></trkpt><trkpt lat="45.108029158050044" lon="11.759166196153066"><ele>3.0</ele><time>2026-05-02T12:25:10Z</time></trkpt><trkpt lat="45.10826141616083" lon="11.75937385550894"><ele>2.5</ele><time>2026-05-02T12:25:11Z</time></trkpt><trkpt lat="45.108491445937865" lon="11.75957916277315"><ele>2.0</ele><time>2026-05-02T12:25:12Z</time></trkpt><trkpt lat="45.108718587706136" lon="11.759785197907847"><ele>2.0</ele><time>2026-05-02T12:25:13Z</time></trkpt><trkpt lat="45.108943965156165" lon="11.75999188733239"><ele>2.0</ele><time>2026-05-02T12:25:14Z</time></trkpt><trkpt lat="45.10916721652037" lon="11.760193195838768"><ele>2.0</ele><time>2026-05-02T12:25:15Z</time></trkpt><trkpt lat="45.10939111909195" lon="11.760394598263469"><ele>2.0</ele><time>2026-05-02T12:25:16Z</time></trkpt><trkpt lat="45.10961354643263" lon="11.760594881994866"><ele>2.0</ele><time>2026-05-02T12:25:17Z</time></trkpt><trkpt lat="45.109837712611636" lon="11.760794230251369"><ele>2.0</ele><time>2026-05-02T12:25:18Z</time></trkpt><trkpt lat="45.110062697927106" lon="11.760997858355669"><ele>2.0</ele><time>2026-05-02T12:25:19Z</time></trkpt><trkpt lat="45.11028705099937" lon="11.761198382889834"><ele>2.0</ele><time>2026-05-02T12:25:20Z</time></trkpt><trkpt lat="45.11051217352217" lon="11.761401807037391"><ele>2.0</ele><time>2026-05-02T12:25:21Z</time></trkpt><trkpt lat="45.110736342311434" lon="11.761604157537084"><ele>2.0</ele><time>2026-05-02T12:25:22Z</time></trkpt><trkpt lat="45.11096497934669" lon="11.7618095876235"><ele>3.0</ele><time>2026-05-02T12:25:23Z</time></trkpt><trkpt lat="45.11119391473206" lon="11.762015635371863"><ele>4.0</ele><time>2026-05-02T12:25:24Z</time></trkpt><trkpt lat="45.11142243752184" lon="11.762218540673414"><ele>4.0</ele><time>2026-05-02T12:25:25Z</time></trkpt><trkpt lat="45.11165113628203" lon="11.762427285296294"><ele>4.0</ele><time>2026-05-02T12:25:26Z</time></trkpt><trkpt lat="45.1118807566862" lon="11.762636151986433"><ele>3.5</ele><time>2026-05-02T12:25:27Z</time></trkpt><trkpt lat="45.112114649493876" lon="11.762845099124911"><ele>3.0</ele><time>2026-05-02T12:25:28Z</time></trkpt><trkpt lat="45.11234648194042" lon="11.763054657089645"><ele>4.0</ele><time>2026-05-02T12:25:29Z</time></trkpt><trkpt lat="45.11257832656357" lon="11.763269101574943"><ele>5.0</ele><time>2026-05-02T12:25:30Z</time></trkpt><trkpt lat="45.11280757784965" lon="11.763479544392542"><ele>4.5</ele><time>2026-05-02T12:25:30.999Z</time></trkpt><trkpt lat="45.113038836958395" lon="11.763684192162367"><ele>4.0</ele><time>2026-05-02T12:25:31.999Z</time></trkpt><trkpt lat="45.113268664879875" lon="11.763891791526987"><ele>4.0</ele><time>2026-05-02T12:25:32.999Z</time></trkpt><trkpt lat="45.11350294737305" lon="11.764101613901387"><ele>4.0</ele><time>2026-05-02T12:25:33.999Z</time></trkpt><trkpt lat="45.11373495013093" lon="11.764309333962037"><ele>4.0</ele><time>2026-05-02T12:25:34.999Z</time></trkpt><trkpt lat="45.113964687481655" lon="11.764513861232263"><ele>4.0</ele><time>2026-05-02T12:25:35.999Z</time></trkpt><trkpt lat="45.1141948205721" lon="11.764717822997364"><ele>4.0</ele><time>2026-05-02T12:25:36.999Z</time></trkpt><trkpt lat="45.114423709688126" lon="11.764921127177505"><ele>4.0</ele><time>2026-05-02T12:25:37.999Z</time></trkpt><trkpt lat="45.11465090056436" lon="11.765127918869009"><ele>3.0</ele><time>2026-05-02T12:25:38.999Z</time></trkpt><trkpt lat="45.11488013023735" lon="11.76534047069641"><ele>2.0</ele><time>2026-05-02T12:25:39.999Z</time></trkpt><trkpt lat="45.11511149289009" lon="11.765551153151533"><ele>2.0</ele><time>2026-05-02T12:25:40.999Z</time></trkpt><trkpt lat="45.11534420210209" lon="11.765759042989623"><ele>2.0</ele><time>2026-05-02T12:25:41.999Z</time></trkpt><trkpt lat="45.11557799237547" lon="11.765965709665439"><ele>2.5</ele><time>2026-05-02T12:25:42.999Z</time></trkpt><trkpt lat="45.11581215461678" lon="11.766174444913174"><ele>3.0</ele><time>2026-05-02T12:25:43.999Z</time></trkpt><trkpt lat="45.11604542066147" lon="11.766384201519902"><ele>3.0</ele><time>2026-05-02T12:25:44.999Z</time></trkpt><trkpt lat="45.116276978806" lon="11.766594586228587"><ele>3.0</ele><time>2026-05-02T12:25:45.999Z</time></trkpt><trkpt lat="45.116509073576324" lon="11.766807386541382"><ele>4.0</ele><time>2026-05-02T12:25:46.999Z</time></trkpt><trkpt lat="45.11674111406963" lon="11.767019251938704"><ele>5.0</ele><time>2026-05-02T12:25:47.999Z</time></trkpt><trkpt lat="45.116970266295816" lon="11.767226382495402"><ele>5.0</ele><time>2026-05-02T12:25:48.999Z</time></trkpt><trkpt lat="45.11719926428105" lon="11.767434354971977"><ele>5.0</ele><time>2026-05-02T12:25:49.999Z</time></trkpt><trkpt lat="45.11742965788835" lon="11.767641114307683"><ele>4.0</ele><time>2026-05-02T12:25:50.999Z</time></trkpt><trkpt lat="45.11765853687215" lon="11.76784810131088"><ele>3.0</ele><time>2026-05-02T12:25:51.999Z</time></trkpt><trkpt lat="45.11788798682876" lon="11.768056431481412"><ele>3.0</ele><time>2026-05-02T12:25:52.999Z</time></trkpt><trkpt lat="45.118116462475825" lon="11.768265341575663"><ele>3.0</ele><time>2026-05-02T12:25:53.999Z</time></trkpt><trkpt lat="45.11834431366364" lon="11.768466827067552"><ele>2.0</ele><time>2026-05-02T12:25:54.999Z</time></trkpt><trkpt lat="45.11857071689028" lon="11.768664511021512"><ele>1.0</ele><time>2026-05-02T12:25:55.999Z</time></trkpt><trkpt lat="45.11879825823231" lon="11.768865091877895"><ele>1.0</ele><time>2026-05-02T12:25:56.999Z</time></trkpt><trkpt lat="45.11902282241013" lon="11.769066832599616"><ele>1.0</ele><time>2026-05-02T12:25:57.999Z</time></trkpt><trkpt lat="45.11924427175683" lon="11.769270674619943"><ele>1.5</ele><time>2026-05-02T12:25:58.999Z</time></trkpt><trkpt lat="45.11946347305155" lon="11.769473653420663"><ele>2.0</ele><time>2026-05-02T12:25:59.999Z</time></trkpt><trkpt lat="45.11968380487891" lon="11.76967661700875"><ele>3.5</ele><time>2026-05-02T12:26:00.999Z</time></trkpt><trkpt lat="45.11990543872584" lon="11.76987730887408"><ele>5.0</ele><time>2026-05-02T12:26:01.999Z</time></trkpt><trkpt lat="45.12012459665008" lon="11.770076706417894"><ele>4.0</ele><time>2026-05-02T12:26:02.999Z</time></trkpt><trkpt lat="45.120342876710325" lon="11.770275490061076"><ele>3.0</ele><time>2026-05-02T12:26:03.999Z</time></trkpt><trkpt lat="45.120565752257285" lon="11.770473827160492"><ele>3.0</ele><time>2026-05-02T12:26:04.999Z</time></trkpt><trkpt lat="45.12078736781837" lon="11.770670484572927"><ele>3.0</ele><time>2026-05-02T12:26:05.999Z</time></trkpt><trkpt lat="45.12100871513481" lon="11.77086881629669"><ele>2.5</ele><time>2026-05-02T12:26:06.999Z</time></trkpt><trkpt lat="45.121232839560065" lon="11.771067660732376"><ele>2.0</ele><time>2026-05-02T12:26:07.999Z</time></trkpt><trkpt lat="45.12146413845062" lon="11.771265202250035"><ele>3.0</ele><time>2026-05-02T12:26:08.999Z</time></trkpt><trkpt lat="45.12169677312735" lon="11.77145092658013"><ele>4.0</ele><time>2026-05-02T12:26:09.999Z</time></trkpt><trkpt lat="45.12193261448703" lon="11.771622082993645"><ele>4.0</ele><time>2026-05-02T12:26:10.999Z</time></trkpt><trkpt lat="45.12217413471891" lon="11.771784713682381"><ele>4.0</ele><time>2026-05-02T12:26:11.999Z</time></trkpt><trkpt lat="45.12242009576284" lon="11.771940490018418"><ele>3.5</ele><time>2026-05-02T12:26:12.999Z</time></trkpt><trkpt lat="45.122669229345874" lon="11.772085474670464"><ele>3.0</ele><time>2026-05-02T12:26:13.999Z</time></trkpt><trkpt lat="45.12292162084128" lon="11.77221932849298"><ele>3.0</ele><time>2026-05-02T12:26:14.999Z</time></trkpt><trkpt lat="45.12317627156971" lon="11.772348303295109"><ele>3.0</ele><time>2026-05-02T12:26:15.999Z</time></trkpt><trkpt lat="45.1234324067317" lon="11.772475653236429"><ele>2.5</ele><time>2026-05-02T12:26:16.999Z</time></trkpt><trkpt lat="45.12369121684797" lon="11.772587885619757"><ele>2.0</ele><time>2026-05-02T12:26:17.999Z</time></trkpt><trkpt lat="45.12395289364628" lon="11.772688648810835"><ele>1.5</ele><time>2026-05-02T12:26:18.999Z</time></trkpt><trkpt lat="45.12421622951162" lon="11.772775301848961"><ele>1.0</ele><time>2026-05-02T12:26:19.999Z</time></trkpt><trkpt lat="45.1244800750391" lon="11.772849777223056"><ele>1.0</ele><time>2026-05-02T12:26:20.999Z</time></trkpt><trkpt lat="45.1247470238734" lon="11.772916246858774"><ele>1.0</ele><time>2026-05-02T12:26:21.999Z</time></trkpt><trkpt lat="45.1250143952476" lon="11.772972626466208"><ele>1.5</ele><time>2026-05-02T12:26:22.999Z</time></trkpt><trkpt lat="45.12528456899402" lon="11.773029950648912"><ele>2.0</ele><time>2026-05-02T12:26:23.999Z</time></trkpt><trkpt lat="45.12555724440829" lon="11.773093264684931"><ele>2.5</ele><time>2026-05-02T12:26:24.999Z</time></trkpt><trkpt lat="45.12583262267229" lon="11.773157970455651"><ele>3.0</ele><time>2026-05-02T12:26:25.999Z</time></trkpt><trkpt lat="45.126106950898205" lon="11.773218300553806"><ele>3.0</ele><time>2026-05-02T12:26:26.999Z</time></trkpt><trkpt lat="45.12637989355332" lon="11.77327317316612"><ele>3.0</ele><time>2026-05-02T12:26:27.999Z</time></trkpt><trkpt lat="45.12665218720523" lon="11.773328603740241"><ele>3.0</ele><time>2026-05-02T12:26:28.999Z</time></trkpt><trkpt lat="45.1269246094074" lon="11.773385565894658"><ele>3.0</ele><time>2026-05-02T12:26:29.999Z</time></trkpt><trkpt lat="45.127197479878426" lon="11.773446084173568"><ele>2.5</ele><time>2026-05-02T12:26:30.999Z</time></trkpt><trkpt lat="45.127465433722776" lon="11.773504601948472"><ele>2.0</ele><time>2026-05-02T12:26:31.999Z</time></trkpt><trkpt lat="45.127729892034175" lon="11.773560505251309"><ele>2.0</ele><time>2026-05-02T12:26:32.999Z</time></trkpt><trkpt lat="45.127995971199255" lon="11.77362058532605"><ele>2.0</ele><time>2026-05-02T12:26:33.999Z</time></trkpt><trkpt lat="45.128262956303374" lon="11.773679896021287"><ele>2.5</ele><time>2026-05-02T12:26:34.999Z</time></trkpt><trkpt lat="45.12852835369443" lon="11.77373976220353"><ele>3.0</ele><time>2026-05-02T12:26:35.999Z</time></trkpt><trkpt lat="45.12880326926856" lon="11.773793795280406"><ele>2.5</ele><time>2026-05-02T12:26:36.999Z</time></trkpt><trkpt lat="45.12906890092024" lon="11.773850176274594"><ele>2.0</ele><time>2026-05-02T12:26:37.999Z</time></trkpt><trkpt lat="45.129337124778516" lon="11.773907080573057"><ele>2.0</ele><time>2026-05-02T12:26:38.999Z</time></trkpt><trkpt lat="45.12960600838827" lon="11.773965986012511"><ele>2.0</ele><time>2026-05-02T12:26:39.999Z</time></trkpt><trkpt lat="45.12987405932409" lon="11.774027919205029"><ele>1.5</ele><time>2026-05-02T12:26:40.999Z</time></trkpt><trkpt lat="45.130140415590404" lon="11.774085535875209"><ele>1.0</ele><time>2026-05-02T12:26:41.999Z</time></trkpt><trkpt lat="45.13041350353022" lon="11.774144590521994"><ele>1.0</ele><time>2026-05-02T12:26:42.999Z</time></trkpt><trkpt lat="45.13068748038263" lon="11.774204760837208"><ele>1.0</ele><time>2026-05-02T12:26:43.999Z</time></trkpt><trkpt lat="45.13096060681794" lon="11.774264354665146"><ele>1.0</ele><time>2026-05-02T12:26:44.999Z</time></trkpt><trkpt lat="45.13123331664115" lon="11.774324967672328"><ele>1.0</ele><time>2026-05-02T12:26:45.999Z</time></trkpt><trkpt lat="45.13150434707732" lon="11.774386382652024"><ele>1.0</ele><time>2026-05-02T12:26:46.999Z</time></trkpt><trkpt lat="45.131774286488884" lon="11.77444290540339"><ele>1.0</ele><time>2026-05-02T12:26:47.998Z</time></trkpt><trkpt lat="45.13204471043676" lon="11.774500860326953"><ele>1.0</ele><time>2026-05-02T12:26:48.998Z</time></trkpt><trkpt lat="45.132312758104206" lon="11.77455895119128"><ele>1.0</ele><time>2026-05-02T12:26:49.998Z</time></trkpt><trkpt lat="45.13257974679351" lon="11.77461720727469"><ele>1.0</ele><time>2026-05-02T12:26:50.998Z</time></trkpt><trkpt lat="45.132843701921395" lon="11.774672463991257"><ele>1.0</ele><time>2026-05-02T12:26:51.998Z</time></trkpt><trkpt lat="45.13310798556086" lon="11.774724830737714"><ele>1.5</ele><time>2026-05-02T12:26:52.998Z</time></trkpt><trkpt lat="45.133372702644415" lon="11.774771500684976"><ele>2.0</ele><time>2026-05-02T12:26:53.998Z</time></trkpt><trkpt lat="45.133638763881514" lon="11.774812649178244"><ele>2.0</ele><time>2026-05-02T12:26:54.998Z</time></trkpt><trkpt lat="45.13390353528502" lon="11.774851653013707"><ele>2.0</ele><time>2026-05-02T12:26:55.998Z</time></trkpt><trkpt lat="45.134165782636394" lon="11.774890323715278"><ele>1.5</ele><time>2026-05-02T12:26:57Z</time></trkpt><trkpt lat="45.13442980383986" lon="11.774923216165766"><ele>1.0</ele><time>2026-05-02T12:26:58Z</time></trkpt><trkpt lat="45.134696079670825" lon="11.7749543919018"><ele>1.0</ele><time>2026-05-02T12:26:59Z</time></trkpt><trkpt lat="45.13496433444743" lon="11.77498145034424"><ele>1.0</ele><time>2026-05-02T12:27:00Z</time></trkpt><trkpt lat="45.135233463659205" lon="11.775005907219812"><ele>1.0</ele><time>2026-05-02T12:27:01Z</time></trkpt><trkpt lat="45.13550280589458" lon="11.775028341263443"><ele>1.0</ele><time>2026-05-02T12:27:02Z</time></trkpt><trkpt lat="45.13577491914313" lon="11.775045921847088"><ele>1.0</ele><time>2026-05-02T12:27:03Z</time></trkpt><trkpt lat="45.13604657729523" lon="11.775058825144113"><ele>1.0</ele><time>2026-05-02T12:27:04Z</time></trkpt><trkpt lat="45.13631783405345" lon="11.775065864369788"><ele>1.5</ele><time>2026-05-02T12:27:05Z</time></trkpt><trkpt lat="45.13658773397334" lon="11.77506995876535"><ele>2.0</ele><time>2026-05-02T12:27:06Z</time></trkpt><trkpt lat="45.13685836495535" lon="11.775075650679886"><ele>2.0</ele><time>2026-05-02T12:27:07Z</time></trkpt><trkpt lat="45.13712889423462" lon="11.775083802390743"><ele>2.0</ele><time>2026-05-02T12:27:08Z</time></trkpt><trkpt lat="45.13739659549912" lon="11.775092262167211"><ele>2.0</ele><time>2026-05-02T12:27:09Z</time></trkpt><trkpt lat="45.137664462780286" lon="11.775098630793293"><ele>2.0</ele><time>2026-05-02T12:27:10Z</time></trkpt><trkpt lat="45.137931306227436" lon="11.775104871496165"><ele>2.0</ele><time>2026-05-02T12:27:11Z</time></trkpt><trkpt lat="45.13819979511896" lon="11.775113274274567"><ele>2.0</ele><time>2026-05-02T12:27:12Z</time></trkpt><trkpt lat="45.13846649031462" lon="11.77512187380039"><ele>3.0</ele><time>2026-05-02T12:27:13Z</time></trkpt><trkpt lat="45.13873334051357" lon="11.775132488001335"><ele>4.0</ele><time>2026-05-02T12:27:14Z</time></trkpt><trkpt lat="45.138996384177695" lon="11.775144688745538"><ele>4.0</ele><time>2026-05-02T12:27:15Z</time></trkpt><trkpt lat="45.139258794375785" lon="11.775155059422369"><ele>4.0</ele><time>2026-05-02T12:27:16Z</time></trkpt><trkpt lat="45.13952514940546" lon="11.775166404561459"><ele>4.0</ele><time>2026-05-02T12:27:17Z</time></trkpt><trkpt lat="45.13978660841572" lon="11.775172720125823"><ele>4.0</ele><time>2026-05-02T12:27:18Z</time></trkpt><trkpt lat="45.14005091862947" lon="11.775179211279944"><ele>4.0</ele><time>2026-05-02T12:27:19Z</time></trkpt><trkpt lat="45.14031745441662" lon="11.77518548385947"><ele>4.0</ele><time>2026-05-02T12:27:20Z</time></trkpt><trkpt lat="45.14058242731838" lon="11.775191594703283"><ele>3.5</ele><time>2026-05-02T12:27:21Z</time></trkpt><trkpt lat="45.140847785548104" lon="11.775198170179431"><ele>3.0</ele><time>2026-05-02T12:27:22Z</time></trkpt><trkpt lat="45.14111410962711" lon="11.775205790546641"><ele>3.0</ele><time>2026-05-02T12:27:23Z</time></trkpt><trkpt lat="45.141380267778" lon="11.775211803494809"><ele>3.0</ele><time>2026-05-02T12:27:24Z</time></trkpt><trkpt lat="45.141650736573325" lon="11.775216832287516"><ele>3.0</ele><time>2026-05-02T12:27:25Z</time></trkpt><trkpt lat="45.141921053469794" lon="11.77522180532052"><ele>3.0</ele><time>2026-05-02T12:27:26Z</time></trkpt><trkpt lat="45.14219201700356" lon="11.775231467506494"><ele>3.5</ele><time>2026-05-02T12:27:27Z</time></trkpt><trkpt lat="45.142462543666596" lon="11.775240763715967"><ele>4.0</ele><time>2026-05-02T12:27:28Z</time></trkpt><trkpt lat="45.14273375351598" lon="11.775250735224501"><ele>4.0</ele><time>2026-05-02T12:27:29Z</time></trkpt><trkpt lat="45.14300915291153" lon="11.775262547002466"><ele>4.0</ele><time>2026-05-02T12:27:30Z</time></trkpt><trkpt lat="45.14328256690136" lon="11.77527563456039"><ele>4.5</ele><time>2026-05-02T12:27:31Z</time></trkpt><trkpt lat="45.14355304941849" lon="11.775291401296386"><ele>5.0</ele><time>2026-05-02T12:27:32Z</time></trkpt><trkpt lat="45.14381990509006" lon="11.775305084379534"><ele>4.0</ele><time>2026-05-02T12:27:33Z</time></trkpt><trkpt lat="45.14408579629932" lon="11.775311213594392"><ele>3.0</ele><time>2026-05-02T12:27:34Z</time></trkpt><trkpt lat="45.14435275884436" lon="11.775315565752708"><ele>3.0</ele><time>2026-05-02T12:27:35Z</time></trkpt><trkpt lat="45.144622646021965" lon="11.77531993058951"><ele>3.0</ele><time>2026-05-02T12:27:36Z</time></trkpt><trkpt lat="45.14489139827539" lon="11.775329006850283"><ele>3.0</ele><time>2026-05-02T12:27:37Z</time></trkpt><trkpt lat="45.145162830515424" lon="11.775343737067718"><ele>3.0</ele><time>2026-05-02T12:27:38Z</time></trkpt><trkpt lat="45.14543909722478" lon="11.775354449111612"><ele>3.0</ele><time>2026-05-02T12:27:39Z</time></trkpt><trkpt lat="45.1457103877903" lon="11.775362440823484"><ele>3.0</ele><time>2026-05-02T12:27:40Z</time></trkpt><trkpt lat="45.14598316980103" lon="11.775371431520592"><ele>2.0</ele><time>2026-05-02T12:27:40.999Z</time></trkpt><trkpt lat="45.146255671442326" lon="11.775374617129675"><ele>1.0</ele><time>2026-05-02T12:27:41.999Z</time></trkpt><trkpt lat="45.146531883935246" lon="11.775384704966804"><ele>1.0</ele><time>2026-05-02T12:27:42.999Z</time></trkpt><trkpt lat="45.14680998860484" lon="11.77539574975287"><ele>1.0</ele><time>2026-05-02T12:27:43.999Z</time></trkpt><trkpt lat="45.147083283968314" lon="11.775404319695744"><ele>1.0</ele><time>2026-05-02T12:27:44.999Z</time></trkpt><trkpt lat="45.14735324543223" lon="11.775411051216192"><ele>1.0</ele><time>2026-05-02T12:27:45.999Z</time></trkpt><trkpt lat="45.14761925273598" lon="11.775420549746347"><ele>1.5</ele><time>2026-05-02T12:27:46.999Z</time></trkpt><trkpt lat="45.14788463196937" lon="11.77542944282073"><ele>2.0</ele><time>2026-05-02T12:27:47.999Z</time></trkpt><trkpt lat="45.14815053396963" lon="11.77544013824392"><ele>1.5</ele><time>2026-05-02T12:27:48.999Z</time></trkpt><trkpt lat="45.148414902386754" lon="11.77544942152861"><ele>1.0</ele><time>2026-05-02T12:27:49.999Z</time></trkpt><trkpt lat="45.14867693787649" lon="11.775459036448359"><ele>1.0</ele><time>2026-05-02T12:27:50.999Z</time></trkpt><trkpt lat="45.14894292359202" lon="11.775463594893399"><ele>1.0</ele><time>2026-05-02T12:27:51.999Z</time></trkpt><trkpt lat="45.149209863048526" lon="11.775468497144834"><ele>1.5</ele><time>2026-05-02T12:27:52.999Z</time></trkpt><trkpt lat="45.14947743548204" lon="11.775473577421355"><ele>2.0</ele><time>2026-05-02T12:27:53.999Z</time></trkpt><trkpt lat="45.14974527486349" lon="11.775483584680366"><ele>2.0</ele><time>2026-05-02T12:27:54.999Z</time></trkpt><trkpt lat="45.15001295960643" lon="11.775492626369116"><ele>2.0</ele><time>2026-05-02T12:27:55.999Z</time></trkpt><trkpt lat="45.15027990270221" lon="11.775507118102633"><ele>2.0</ele><time>2026-05-02T12:27:56.999Z</time></trkpt><trkpt lat="45.15054465034899" lon="11.775519129034544"><ele>2.0</ele><time>2026-05-02T12:27:57.999Z</time></trkpt><trkpt lat="45.15080966319659" lon="11.775528305722023"><ele>2.5</ele><time>2026-05-02T12:27:58.999Z</time></trkpt><trkpt lat="45.151076738862656" lon="11.775536071594672"><ele>3.0</ele><time>2026-05-02T12:27:59.999Z</time></trkpt><trkpt lat="45.151340411990546" lon="11.775541343793833"><ele>2.5</ele><time>2026-05-02T12:28:00.999Z</time></trkpt><trkpt lat="45.15160772004573" lon="11.775543927916605"><ele>2.0</ele><time>2026-05-02T12:28:01.999Z</time></trkpt><trkpt lat="45.15187730435938" lon="11.775547922173894"><ele>2.0</ele><time>2026-05-02T12:28:02.999Z</time></trkpt><trkpt lat="45.15214373137099" lon="11.775557413451073"><ele>2.0</ele><time>2026-05-02T12:28:03.999Z</time></trkpt><trkpt lat="45.152409497758256" lon="11.77556979236048"><ele>3.0</ele><time>2026-05-02T12:28:04.999Z</time></trkpt><trkpt lat="45.1526772343444" lon="11.775584468498792"><ele>4.0</ele><time>2026-05-02T12:28:05.999Z</time></trkpt><trkpt lat="45.15294427708771" lon="11.775596295714001"><ele>2.5</ele><time>2026-05-02T12:28:06.999Z</time></trkpt><trkpt lat="45.15321226343189" lon="11.775608292841781"><ele>1.0</ele><time>2026-05-02T12:28:07.999Z</time></trkpt><trkpt lat="45.15347752383552" lon="11.775617911039026"><ele>1.0</ele><time>2026-05-02T12:28:08.999Z</time></trkpt><trkpt lat="45.153742416496634" lon="11.77562523120949"><ele>1.0</ele><time>2026-05-02T12:28:09.999Z</time></trkpt><trkpt lat="45.15400469553009" lon="11.775629300910078"><ele>1.5</ele><time>2026-05-02T12:28:10.999Z</time></trkpt><trkpt lat="45.1542659942368" lon="11.775634284159763"><ele>2.0</ele><time>2026-05-02T12:28:11.999Z</time></trkpt><trkpt lat="45.1545274151865" lon="11.775642543940922"><ele>2.0</ele><time>2026-05-02T12:28:12.999Z</time></trkpt><trkpt lat="45.15479129830249" lon="11.775653924205267"><ele>2.0</ele><time>2026-05-02T12:28:13.999Z</time></trkpt><trkpt lat="45.155054993824855" lon="11.775660563779825"><ele>2.5</ele><time>2026-05-02T12:28:14.999Z</time></trkpt><trkpt lat="45.155316410111276" lon="11.775669338556284"><ele>3.0</ele><time>2026-05-02T12:28:15.999Z</time></trkpt><trkpt lat="45.15557759758956" lon="11.775676765253463"><ele>3.5</ele><time>2026-05-02T12:28:16.999Z</time></trkpt><trkpt lat="45.15583844178263" lon="11.775682458722452"><ele>4.0</ele><time>2026-05-02T12:28:17.999Z</time></trkpt><trkpt lat="45.15609978242933" lon="11.775688270999488"><ele>4.0</ele><time>2026-05-02T12:28:18.999Z</time></trkpt><trkpt lat="45.156358013633344" lon="11.775699656448147"><ele>4.0</ele><time>2026-05-02T12:28:19.999Z</time></trkpt><trkpt lat="45.15662107178665" lon="11.77571261866075"><ele>2.0</ele><time>2026-05-02T12:28:20.999Z</time></trkpt><trkpt lat="45.156885059817974" lon="11.77572354835999"><ele>0.0</ele><time>2026-05-02T12:28:21.999Z</time></trkpt><trkpt lat="45.15715352548029" lon="11.775732427305915"><ele>-0.5</ele><time>2026-05-02T12:28:22.999Z</time></trkpt><trkpt lat="45.157423078580024" lon="11.775742716862919"><ele>-1.0</ele><time>2026-05-02T12:28:23.999Z</time></trkpt><trkpt lat="45.15769514736149" lon="11.77575054924538"><ele>-1.0</ele><time>2026-05-02T12:28:24.999Z</time></trkpt><trkpt lat="45.157965694759795" lon="11.775758158817546"><ele>-1.0</ele><time>2026-05-02T12:28:25.999Z</time></trkpt><trkpt lat="45.15823362357879" lon="11.775763682120667"><ele>-1.5</ele><time>2026-05-02T12:28:26.999Z</time></trkpt><trkpt lat="45.15850150767007" lon="11.775773165447909"><ele>-2.0</ele><time>2026-05-02T12:28:27.999Z</time></trkpt><trkpt lat="45.15876954248159" lon="11.775783502964938"><ele>-2.0</ele><time>2026-05-02T12:28:28.999Z</time></trkpt><trkpt lat="45.15903104410367" lon="11.775794141435993"><ele>-2.0</ele><time>2026-05-02T12:28:29.999Z</time></trkpt><trkpt lat="45.15928642490053" lon="11.77580196136486"><ele>-1.0</ele><time>2026-05-02T12:28:30.999Z</time></trkpt><trkpt lat="45.15954087924071" lon="11.775808221060917"><ele>0.0</ele><time>2026-05-02T12:28:31.999Z</time></trkpt><trkpt lat="45.159795366949574" lon="11.775816014493556"><ele>-0.5</ele><time>2026-05-02T12:28:32.999Z</time></trkpt><trkpt lat="45.160051135098236" lon="11.775826477922909"><ele>-1.0</ele><time>2026-05-02T12:28:33.999Z</time></trkpt><trkpt lat="45.160311633973414" lon="11.775837140528601"><ele>-1.0</ele><time>2026-05-02T12:28:34.999Z</time></trkpt><trkpt lat="45.160573849626815" lon="11.7758455402785"><ele>-1.0</ele><time>2026-05-02T12:28:35.999Z</time></trkpt><trkpt lat="45.16083787016158" lon="11.775854502465602"><ele>-0.5</ele><time>2026-05-02T12:28:36.999Z</time></trkpt><trkpt lat="45.16110327752439" lon="11.775862445764737"><ele>0.0</ele><time>2026-05-02T12:28:37.999Z</time></trkpt><trkpt lat="45.16137240618206" lon="11.775869309539445"><ele>0.0</ele><time>2026-05-02T12:28:38.999Z</time></trkpt><trkpt lat="45.161641302366824" lon="11.775874817110612"><ele>0.0</ele><time>2026-05-02T12:28:39.999Z</time></trkpt><trkpt lat="45.1619105286537" lon="11.77588214353156"><ele>0.0</ele><time>2026-05-02T12:28:40.999Z</time></trkpt><trkpt lat="45.16217697034176" lon="11.775889371576282"><ele>0.0</ele><time>2026-05-02T12:28:41.999Z</time></trkpt><trkpt lat="45.162444727357396" lon="11.77589727590791"><ele>0.5</ele><time>2026-05-02T12:28:42.999Z</time></trkpt><trkpt lat="45.16271209621333" lon="11.775903525318743"><ele>1.0</ele><time>2026-05-02T12:28:43.999Z</time></trkpt><trkpt lat="45.16298130587711" lon="11.775910579545286"><ele>0.5</ele><time>2026-05-02T12:28:44.999Z</time></trkpt><trkpt lat="45.16324899685429" lon="11.775919242181706"><ele>0.0</ele><time>2026-05-02T12:28:45.999Z</time></trkpt><trkpt lat="45.16351647277488" lon="11.775927059177741"><ele>0.0</ele><time>2026-05-02T12:28:46.999Z</time></trkpt><trkpt lat="45.16378349145362" lon="11.775935458803675"><ele>0.0</ele><time>2026-05-02T12:28:47.999Z</time></trkpt><trkpt lat="45.16404783114651" lon="11.77594300988571"><ele>0.0</ele><time>2026-05-02T12:28:48.999Z</time></trkpt><trkpt lat="45.16431098396476" lon="11.775950260378776"><ele>0.0</ele><time>2026-05-02T12:28:49.999Z</time></trkpt><trkpt lat="45.164573984645216" lon="11.775956785337494"><ele>0.0</ele><time>2026-05-02T12:28:50.999Z</time></trkpt><trkpt lat="45.16483771142694" lon="11.775965684941982"><ele>0.0</ele><time>2026-05-02T12:28:51.999Z</time></trkpt><trkpt lat="45.16510006881981" lon="11.775974929973593"><ele>0.0</ele><time>2026-05-02T12:28:52.999Z</time></trkpt><trkpt lat="45.165361685580095" lon="11.775982958495705"><ele>0.0</ele><time>2026-05-02T12:28:53.999Z</time></trkpt><trkpt lat="45.165624944348615" lon="11.775990673424257"><ele>0.5</ele><time>2026-05-02T12:28:54.999Z</time></trkpt><trkpt lat="45.16588919310622" lon="11.775999366602306"><ele>1.0</ele><time>2026-05-02T12:28:55.999Z</time></trkpt><trkpt lat="45.16615099812465" lon="11.776006213157872"><ele>1.0</ele><time>2026-05-02T12:28:56.999Z</time></trkpt><trkpt lat="45.16641605117228" lon="11.776016171925678"><ele>1.0</ele><time>2026-05-02T12:28:57.999Z</time></trkpt><trkpt lat="45.16668377023902" lon="11.776025189400416"><ele>0.5</ele><time>2026-05-02T12:28:58.998Z</time></trkpt><trkpt lat="45.16695331464103" lon="11.776033054550462"><ele>0.0</ele><time>2026-05-02T12:28:59.998Z</time></trkpt><trkpt lat="45.16722260676874" lon="11.77604073765445"><ele>0.0</ele><time>2026-05-02T12:29:00.998Z</time></trkpt><trkpt lat="45.167492089632105" lon="11.77604714982459"><ele>0.0</ele><time>2026-05-02T12:29:01.998Z</time></trkpt><trkpt lat="45.16776291289266" lon="11.776057375787147"><ele>0.0</ele><time>2026-05-02T12:29:03Z</time></trkpt><trkpt lat="45.16803187437574" lon="11.776067092046551"><ele>0.0</ele><time>2026-05-02T12:29:04Z</time></trkpt><trkpt lat="45.16830013735523" lon="11.776077391411446"><ele>1.0</ele><time>2026-05-02T12:29:05Z</time></trkpt><trkpt lat="45.16856871238832" lon="11.776087474075497"><ele>2.0</ele><time>2026-05-02T12:29:06Z</time></trkpt><trkpt lat="45.168839583362946" lon="11.776103324663476"><ele>1.0</ele><time>2026-05-02T12:29:07Z</time></trkpt><trkpt lat="45.169108659664914" lon="11.776114163220642"><ele>0.0</ele><time>2026-05-02T12:29:08Z</time></trkpt><trkpt lat="45.169379403985246" lon="11.776124330106818"><ele>0.0</ele><time>2026-05-02T12:29:09Z</time></trkpt><trkpt lat="45.169649211160994" lon="11.776132223613848"><ele>0.0</ele><time>2026-05-02T12:29:10Z</time></trkpt><trkpt lat="45.1699177829762" lon="11.77613959137966"><ele>0.5</ele><time>2026-05-02T12:29:11Z</time></trkpt><trkpt lat="45.17018470959992" lon="11.776144597295337"><ele>1.0</ele><time>2026-05-02T12:29:12Z</time></trkpt><trkpt lat="45.17045165517737" lon="11.77614778993041"><ele>0.0</ele><time>2026-05-02T12:29:13Z</time></trkpt><trkpt lat="45.17071975029594" lon="11.77615146753763"><ele>-1.0</ele><time>2026-05-02T12:29:14Z</time></trkpt><trkpt lat="45.17098275099901" lon="11.776157566636034"><ele>-1.0</ele><time>2026-05-02T12:29:15Z</time></trkpt><trkpt lat="45.17124666769376" lon="11.776166199308758"><ele>-1.0</ele><time>2026-05-02T12:29:16Z</time></trkpt><trkpt lat="45.17150790614127" lon="11.776175726040622"><ele>-0.5</ele><time>2026-05-02T12:29:17Z</time></trkpt><trkpt lat="45.1717691076099" lon="11.776188695534502"><ele>0.0</ele><time>2026-05-02T12:29:18Z</time></trkpt><trkpt lat="45.17202898068049" lon="11.776203412644087"><ele>0.0</ele><time>2026-05-02T12:29:19Z</time></trkpt><trkpt lat="45.17229130734641" lon="11.776220035951688"><ele>0.0</ele><time>2026-05-02T12:29:20Z</time></trkpt><trkpt lat="45.17255408204534" lon="11.77623159062179"><ele>0.0</ele><time>2026-05-02T12:29:21Z</time></trkpt><trkpt lat="45.17281242690505" lon="11.776239429672708"><ele>0.0</ele><time>2026-05-02T12:29:22Z</time></trkpt><trkpt lat="45.17306873424279" lon="11.77624506191835"><ele>0.0</ele><time>2026-05-02T12:29:23Z</time></trkpt><trkpt lat="45.17332605166902" lon="11.776254387991708"><ele>0.0</ele><time>2026-05-02T12:29:24Z</time></trkpt><trkpt lat="45.17358143423894" lon="11.776263183676935"><ele>0.0</ele><time>2026-05-02T12:29:25Z</time></trkpt><trkpt lat="45.17383702806545" lon="11.776268126305743"><ele>0.0</ele><time>2026-05-02T12:29:26Z</time></trkpt><trkpt lat="45.174091571004716" lon="11.776275986455353"><ele>0.0</ele><time>2026-05-02T12:29:27Z</time></trkpt><trkpt lat="45.17434643446789" lon="11.776280887159919"><ele>0.0</ele><time>2026-05-02T12:29:28Z</time></trkpt><trkpt lat="45.17460172775466" lon="11.776290354486651"><ele>0.5</ele><time>2026-05-02T12:29:29Z</time></trkpt><trkpt lat="45.174859565967445" lon="11.776299521665942"><ele>1.0</ele><time>2026-05-02T12:29:30Z</time></trkpt><trkpt lat="45.175118904841135" lon="11.77630709883791"><ele>1.0</ele><time>2026-05-02T12:29:31Z</time></trkpt><trkpt lat="45.17537910919152" lon="11.776313490903343"><ele>1.0</ele><time>2026-05-02T12:29:32Z</time></trkpt><trkpt lat="45.17564199186441" lon="11.776319557226401"><ele>1.0</ele><time>2026-05-02T12:29:33Z</time></trkpt><trkpt lat="45.17590492299766" lon="11.776322987775442"><ele>1.0</ele><time>2026-05-02T12:29:34Z</time></trkpt><trkpt lat="45.17617023585741" lon="11.776327709616302"><ele>1.0</ele><time>2026-05-02T12:29:35Z</time></trkpt><trkpt lat="45.17643508532011" lon="11.776332165706892"><ele>1.0</ele><time>2026-05-02T12:29:36Z</time></trkpt><trkpt lat="45.17670251676729" lon="11.776341572914957"><ele>1.5</ele><time>2026-05-02T12:29:37Z</time></trkpt><trkpt lat="45.1769687768013" lon="11.776344623005293"><ele>2.0</ele><time>2026-05-02T12:29:38Z</time></trkpt><trkpt lat="45.17723037505442" lon="11.776350232822562"><ele>1.0</ele><time>2026-05-02T12:29:39Z</time></trkpt><trkpt lat="45.17749448132497" lon="11.776361537915538"><ele>0.0</ele><time>2026-05-02T12:29:40Z</time></trkpt><trkpt lat="45.17775828980153" lon="11.776372975970894"><ele>0.0</ele><time>2026-05-02T12:29:41Z</time></trkpt><trkpt lat="45.17802504707516" lon="11.776385462777512"><ele>0.0</ele><time>2026-05-02T12:29:42Z</time></trkpt><trkpt lat="45.17829029185879" lon="11.776394762549467"><ele>0.5</ele><time>2026-05-02T12:29:43Z</time></trkpt><trkpt lat="45.17855579199394" lon="11.776406184025227"><ele>1.0</ele><time>2026-05-02T12:29:44Z</time></trkpt><trkpt lat="45.1788216369289" lon="11.776417443377053"><ele>0.5</ele><time>2026-05-02T12:29:45Z</time></trkpt><trkpt lat="45.17908746485186" lon="11.776429333229231"><ele>0.0</ele><time>2026-05-02T12:29:46Z</time></trkpt><trkpt lat="45.17935505658916" lon="11.77644123235957"><ele>0.0</ele><time>2026-05-02T12:29:47Z</time></trkpt><trkpt lat="45.17962314190737" lon="11.776450315679162"><ele>0.0</ele><time>2026-05-02T12:29:47.999Z</time></trkpt><trkpt lat="45.17989025956825" lon="11.776455558767669"><ele>2.0</ele><time>2026-05-02T12:29:48.999Z</time></trkpt><trkpt lat="45.18015707095736" lon="11.776460252042996"><ele>4.0</ele><time>2026-05-02T12:29:49.999Z</time></trkpt><trkpt lat="45.18041981403545" lon="11.776464888520925"><ele>4.0</ele><time>2026-05-02T12:29:50.999Z</time></trkpt><trkpt lat="45.180676981647764" lon="11.776469305954684"><ele>4.0</ele><time>2026-05-02T12:29:51.999Z</time></trkpt><trkpt lat="45.180931701628985" lon="11.776483358736034"><ele>3.5</ele><time>2026-05-02T12:29:52.999Z</time></trkpt><trkpt lat="45.181190432946245" lon="11.776496685114862"><ele>3.0</ele><time>2026-05-02T12:29:53.999Z</time></trkpt><trkpt lat="45.18145243240766" lon="11.77650981146088"><ele>3.5</ele><time>2026-05-02T12:29:54.999Z</time></trkpt><trkpt lat="45.1817179480624" lon="11.776521896047496"><ele>4.0</ele><time>2026-05-02T12:29:55.999Z</time></trkpt><trkpt lat="45.18198407751046" lon="11.776533054604949"><ele>4.0</ele><time>2026-05-02T12:29:56.999Z</time></trkpt><trkpt lat="45.182250544812405" lon="11.77654108202981"><ele>4.0</ele><time>2026-05-02T12:29:57.999Z</time></trkpt><trkpt lat="45.182516688526825" lon="11.776549495463428"><ele>3.0</ele><time>2026-05-02T12:29:58.999Z</time></trkpt><trkpt lat="45.18277974037191" lon="11.776555977477576"><ele>2.0</ele><time>2026-05-02T12:29:59.999Z</time></trkpt><trkpt lat="45.183043377937274" lon="11.776561054536835"><ele>3.5</ele><time>2026-05-02T12:30:00.999Z</time></trkpt><trkpt lat="45.183305964114865" lon="11.776566080694577"><ele>5.0</ele><time>2026-05-02T12:30:01.999Z</time></trkpt><trkpt lat="45.18357030185814" lon="11.77657370673122"><ele>5.0</ele><time>2026-05-02T12:30:02.999Z</time></trkpt><trkpt lat="45.18383410387036" lon="11.776580390302689"><ele>5.0</ele><time>2026-05-02T12:30:03.999Z</time></trkpt><trkpt lat="45.18409840128798" lon="11.776584908518883"><ele>5.0</ele><time>2026-05-02T12:30:04.999Z</time></trkpt><trkpt lat="45.184368275132655" lon="11.77658577246814"><ele>5.0</ele><time>2026-05-02T12:30:05.999Z</time></trkpt><trkpt lat="45.18463025952709" lon="11.776582408387101"><ele>5.0</ele><time>2026-05-02T12:30:06.999Z</time></trkpt><trkpt lat="45.1848885157344" lon="11.776572333602408"><ele>5.0</ele><time>2026-05-02T12:30:07.999Z</time></trkpt><trkpt lat="45.18515142423841" lon="11.776564935976404"><ele>5.0</ele><time>2026-05-02T12:30:08.999Z</time></trkpt><trkpt lat="45.18541387046865" lon="11.776551907300068"><ele>5.0</ele><time>2026-05-02T12:30:09.999Z</time></trkpt><trkpt lat="45.18567210049616" lon="11.776537947457696"><ele>4.0</ele><time>2026-05-02T12:30:10.999Z</time></trkpt><trkpt lat="45.185930681838464" lon="11.776518747660397"><ele>3.0</ele><time>2026-05-02T12:30:11.999Z</time></trkpt><trkpt lat="45.18619075855072" lon="11.7764964238584"><ele>3.0</ele><time>2026-05-02T12:30:12.999Z</time></trkpt><trkpt lat="45.18645228698067" lon="11.77647225132967"><ele>3.0</ele><time>2026-05-02T12:30:13.999Z</time></trkpt><trkpt lat="45.18671426096626" lon="11.77644674586346"><ele>2.5</ele><time>2026-05-02T12:30:14.999Z</time></trkpt><trkpt lat="45.18697610774361" lon="11.776413721557171"><ele>2.0</ele><time>2026-05-02T12:30:15.999Z</time></trkpt><trkpt lat="45.18723711385549" lon="11.776372057481856"><ele>2.0</ele><time>2026-05-02T12:30:16.999Z</time></trkpt><trkpt lat="45.18749507296996" lon="11.776324730729588"><ele>2.0</ele><time>2026-05-02T12:30:17.999Z</time></trkpt><trkpt lat="45.18774709458641" lon="11.776281470360738"><ele>2.0</ele><time>2026-05-02T12:30:18.999Z</time></trkpt><trkpt lat="45.18800379424198" lon="11.776250340907172"><ele>2.0</ele><time>2026-05-02T12:30:19.999Z</time></trkpt><trkpt lat="45.18826317838639" lon="11.776221986233125"><ele>3.0</ele><time>2026-05-02T12:30:20.999Z</time></trkpt><trkpt lat="45.18850987821336" lon="11.77618239867329"><ele>4.0</ele><time>2026-05-02T12:30:21.999Z</time></trkpt><trkpt lat="45.188762252004615" lon="11.776147576334475"><ele>3.5</ele><time>2026-05-02T12:30:22.999Z</time></trkpt><trkpt lat="45.18901712505223" lon="11.776113551233058"><ele>3.0</ele><time>2026-05-02T12:30:23.999Z</time></trkpt><trkpt lat="45.1892768072165" lon="11.776080164960359"><ele>3.0</ele><time>2026-05-02T12:30:24.999Z</time></trkpt><trkpt lat="45.18953957437969" lon="11.77604974459202"><ele>3.0</ele><time>2026-05-02T12:30:25.999Z</time></trkpt><trkpt lat="45.189803510366296" lon="11.776028304190088"><ele>1.5</ele><time>2026-05-02T12:30:26.999Z</time></trkpt><trkpt lat="45.19006898775672" lon="11.776003549145827"><ele>0.0</ele><time>2026-05-02T12:30:27.999Z</time></trkpt><trkpt lat="45.19033389821128" lon="11.77597459279067"><ele>0.0</ele><time>2026-05-02T12:30:28.999Z</time></trkpt><trkpt lat="45.190598864877664" lon="11.77594616539614"><ele>0.0</ele><time>2026-05-02T12:30:29.999Z</time></trkpt><trkpt lat="45.190863663558225" lon="11.775920151763337"><ele>0.5</ele><time>2026-05-02T12:30:30.999Z</time></trkpt><trkpt lat="45.19112886153383" lon="11.775890486723881"><ele>1.0</ele><time>2026-05-02T12:30:31.999Z</time></trkpt><trkpt lat="45.19139241348081" lon="11.775862223744507"><ele>2.5</ele><time>2026-05-02T12:30:32.999Z</time></trkpt><trkpt lat="45.19165498265793" lon="11.775830990129123"><ele>4.0</ele><time>2026-05-02T12:30:33.999Z</time></trkpt><trkpt lat="45.19191756023497" lon="11.775799412077244"><ele>4.0</ele><time>2026-05-02T12:30:34.999Z</time></trkpt><trkpt lat="45.19217822538571" lon="11.775768033526639"><ele>4.0</ele><time>2026-05-02T12:30:35.999Z</time></trkpt><trkpt lat="45.192432291768185" lon="11.775737201380366"><ele>3.0</ele><time>2026-05-02T12:30:36.999Z</time></trkpt><trkpt lat="45.192689445003055" lon="11.775708516726842"><ele>2.0</ele><time>2026-05-02T12:30:37.999Z</time></trkpt><trkpt lat="45.192947079563815" lon="11.775677653152567"><ele>2.0</ele><time>2026-05-02T12:30:38.999Z</time></trkpt><trkpt lat="45.19320620590407" lon="11.775645497995686"><ele>2.0</ele><time>2026-05-02T12:30:39.999Z</time></trkpt><trkpt lat="45.19346574252111" lon="11.775611668590301"><ele>2.0</ele><time>2026-05-02T12:30:40.999Z</time></trkpt><trkpt lat="45.19372339643949" lon="11.775574722623123"><ele>2.0</ele><time>2026-05-02T12:30:41.999Z</time></trkpt><trkpt lat="45.193984263530304" lon="11.775540081314485"><ele>0.5</ele><time>2026-05-02T12:30:42.999Z</time></trkpt><trkpt lat="45.19424647055147" lon="11.775507542468885"><ele>-1.0</ele><time>2026-05-02T12:30:43.999Z</time></trkpt><trkpt lat="45.19450850101042" lon="11.775469745784756"><ele>-1.0</ele><time>2026-05-02T12:30:44.999Z</time></trkpt><trkpt lat="45.194772181478086" lon="11.77543482729254"><ele>-1.0</ele><time>2026-05-02T12:30:45.999Z</time></trkpt><trkpt lat="45.19503596801261" lon="11.775395389062869"><ele>0.0</ele><time>2026-05-02T12:30:46.999Z</time></trkpt><trkpt lat="45.1952946323696" lon="11.775356860832499"><ele>1.0</ele><time>2026-05-02T12:30:47.999Z</time></trkpt><trkpt lat="45.19555136775901" lon="11.77532248409677"><ele>1.0</ele><time>2026-05-02T12:30:48.999Z</time></trkpt><trkpt lat="45.19580777155246" lon="11.77529189139039"><ele>1.0</ele><time>2026-05-02T12:30:49.999Z</time></trkpt><trkpt lat="45.1960653969716" lon="11.775265329071908"><ele>1.0</ele><time>2026-05-02T12:30:50.999Z</time></trkpt><trkpt lat="45.19632148536935" lon="11.775237052591406"><ele>1.0</ele><time>2026-05-02T12:30:51.999Z</time></trkpt><trkpt lat="45.19657930337584" lon="11.775208305916287"><ele>2.0</ele><time>2026-05-02T12:30:52.999Z</time></trkpt><trkpt lat="45.19683712980589" lon="11.775177629628514"><ele>3.0</ele><time>2026-05-02T12:30:53.999Z</time></trkpt><trkpt lat="45.19709605724155" lon="11.775148959285008"><ele>5.0</ele><time>2026-05-02T12:30:54.999Z</time></trkpt><trkpt lat="45.197354725891074" lon="11.775116341660668"><ele>7.0</ele><time>2026-05-02T12:30:55.999Z</time></trkpt><trkpt lat="45.19761623390882" lon="11.77508812018354"><ele>7.0</ele><time>2026-05-02T12:30:56.999Z</time></trkpt><trkpt lat="45.19787874332535" lon="11.775058279896074"><ele>7.0</ele><time>2026-05-02T12:30:57.999Z</time></trkpt><trkpt lat="45.19814336406779" lon="11.775018706017745"><ele>5.0</ele><time>2026-05-02T12:30:58.999Z</time></trkpt><trkpt lat="45.19840759332175" lon="11.774986474570671"><ele>3.0</ele><time>2026-05-02T12:30:59.999Z</time></trkpt><trkpt lat="45.198675449331425" lon="11.77496162335781"><ele>3.0</ele><time>2026-05-02T12:31:00.999Z</time></trkpt><trkpt lat="45.19894283511334" lon="11.774934689009667"><ele>3.0</ele><time>2026-05-02T12:31:01.999Z</time></trkpt><trkpt lat="45.1992107807699" lon="11.774909117132134"><ele>3.0</ele><time>2026-05-02T12:31:02.999Z</time></trkpt><trkpt lat="45.19947469727545" lon="11.774886231354731"><ele>3.0</ele><time>2026-05-02T12:31:03.999Z</time></trkpt><trkpt lat="45.19973667561897" lon="11.774867155338113"><ele>2.5</ele><time>2026-05-02T12:31:04.999Z</time></trkpt><trkpt lat="45.19999928285526" lon="11.774851507056148"><ele>2.0</ele><time>2026-05-02T12:31:05.999Z</time></trkpt><trkpt lat="45.20026403531613" lon="11.774839513728876"><ele>2.0</ele><time>2026-05-02T12:31:06.998Z</time></trkpt><trkpt lat="45.20052374361996" lon="11.774826752036729"><ele>2.0</ele><time>2026-05-02T12:31:07.998Z</time></trkpt><trkpt lat="45.200783831859965" lon="11.774819266096664"><ele>1.5</ele><time>2026-05-02T12:31:09Z</time></trkpt><trkpt lat="45.20104341147666" lon="11.774812390096482"><ele>1.0</ele><time>2026-05-02T12:31:10Z</time></trkpt><trkpt lat="45.201302433412025" lon="11.774807850262771"><ele>1.0</ele><time>2026-05-02T12:31:11Z</time></trkpt><trkpt lat="45.20155787650217" lon="11.774802659369549"><ele>1.0</ele><time>2026-05-02T12:31:12Z</time></trkpt><trkpt lat="45.2018135580243" lon="11.774803036549864"><ele>1.0</ele><time>2026-05-02T12:31:13Z</time></trkpt><trkpt lat="45.20207044153056" lon="11.774805187729424"><ele>1.0</ele><time>2026-05-02T12:31:14Z</time></trkpt><trkpt lat="45.202330285711554" lon="11.774809303551116"><ele>-0.5</ele><time>2026-05-02T12:31:15Z</time></trkpt><trkpt lat="45.20258823713993" lon="11.774812123914728"><ele>-2.0</ele><time>2026-05-02T12:31:16Z</time></trkpt><trkpt lat="45.20284515074324" lon="11.774812062620045"><ele>-2.0</ele><time>2026-05-02T12:31:17Z</time></trkpt><trkpt lat="45.203102643681625" lon="11.774814831440166"><ele>-2.0</ele><time>2026-05-02T12:31:18Z</time></trkpt><trkpt lat="45.203361481701606" lon="11.774818424103799"><ele>0.0</ele><time>2026-05-02T12:31:19Z</time></trkpt><trkpt lat="45.20362286232739" lon="11.774819598601828"><ele>2.0</ele><time>2026-05-02T12:31:20Z</time></trkpt><trkpt lat="45.20388285968455" lon="11.774817420125814"><ele>2.5</ele><time>2026-05-02T12:31:21Z</time></trkpt><trkpt lat="45.20414153147774" lon="11.774815423404446"><ele>3.0</ele><time>2026-05-02T12:31:22Z</time></trkpt><trkpt lat="45.204400858820655" lon="11.774815817717435"><ele>3.0</ele><time>2026-05-02T12:31:23Z</time></trkpt><trkpt lat="45.20466117575515" lon="11.77481760491922"><ele>3.0</ele><time>2026-05-02T12:31:24Z</time></trkpt><trkpt lat="45.2049189557847" lon="11.7748145950173"><ele>3.5</ele><time>2026-05-02T12:31:25Z</time></trkpt><trkpt lat="45.205176872998685" lon="11.774813058585632"><ele>4.0</ele><time>2026-05-02T12:31:26Z</time></trkpt><trkpt lat="45.20544042360444" lon="11.774812779675605"><ele>5.0</ele><time>2026-05-02T12:31:27Z</time></trkpt><trkpt lat="45.205702486695024" lon="11.7748029907483"><ele>6.0</ele><time>2026-05-02T12:31:28Z</time></trkpt><trkpt lat="45.20596476224446" lon="11.774787652164001"><ele>6.0</ele><time>2026-05-02T12:31:29Z</time></trkpt><trkpt lat="45.20622277903197" lon="11.774768648363464"><ele>6.0</ele><time>2026-05-02T12:31:30Z</time></trkpt><trkpt lat="45.20647982438077" lon="11.77475022131492"><ele>5.0</ele><time>2026-05-02T12:31:31Z</time></trkpt><trkpt lat="45.20673617919181" lon="11.774736433316038"><ele>4.0</ele><time>2026-05-02T12:31:32Z</time></trkpt><trkpt lat="45.206991655325645" lon="11.774727379274328"><ele>4.0</ele><time>2026-05-02T12:31:33Z</time></trkpt><trkpt lat="45.20724955031487" lon="11.774727228341332"><ele>4.0</ele><time>2026-05-02T12:31:34Z</time></trkpt><trkpt lat="45.207512121187904" lon="11.774728531943838"><ele>2.5</ele><time>2026-05-02T12:31:35Z</time></trkpt><trkpt lat="45.20777305122359" lon="11.774726472447915"><ele>1.0</ele><time>2026-05-02T12:31:36Z</time></trkpt><trkpt lat="45.20803382920713" lon="11.77472155846938"><ele>1.5</ele><time>2026-05-02T12:31:37Z</time></trkpt><trkpt lat="45.20829828434348" lon="11.77471958444524"><ele>2.0</ele><time>2026-05-02T12:31:38Z</time></trkpt><trkpt lat="45.20856528058693" lon="11.774721699507818"><ele>2.0</ele><time>2026-05-02T12:31:39Z</time></trkpt><trkpt lat="45.20882887415436" lon="11.774721012386097"><ele>2.0</ele><time>2026-05-02T12:31:40Z</time></trkpt><trkpt lat="45.20909159111944" lon="11.774721635590556"><ele>3.5</ele><time>2026-05-02T12:31:41Z</time></trkpt><trkpt lat="45.20935063781389" lon="11.77472359697169"><ele>5.0</ele><time>2026-05-02T12:31:42Z</time></trkpt><trkpt lat="45.209607773179194" lon="11.774726563715722"><ele>5.0</ele><time>2026-05-02T12:31:43Z</time></trkpt><trkpt lat="45.209862747114926" lon="11.774728756387873"><ele>5.0</ele><time>2026-05-02T12:31:44Z</time></trkpt><trkpt lat="45.210117890095454" lon="11.774728451396152"><ele>5.0</ele><time>2026-05-02T12:31:45Z</time></trkpt><trkpt lat="45.21036828570902" lon="11.774734687596709"><ele>5.0</ele><time>2026-05-02T12:31:46Z</time></trkpt><trkpt lat="45.21062513334891" lon="11.774750007632697"><ele>4.5</ele><time>2026-05-02T12:31:47Z</time></trkpt><trkpt lat="45.21089185525601" lon="11.774766464145936"><ele>4.0</ele><time>2026-05-02T12:31:47.999Z</time></trkpt><trkpt lat="45.211157868049774" lon="11.774779373533951"><ele>4.0</ele><time>2026-05-02T12:31:48.999Z</time></trkpt><trkpt lat="45.21141825560449" lon="11.774779070679772"><ele>4.0</ele><time>2026-05-02T12:31:49.999Z</time></trkpt><trkpt lat="45.21167156605834" lon="11.774774916505189"><ele>3.5</ele><time>2026-05-02T12:31:50.999Z</time></trkpt><trkpt lat="45.21192285010608" lon="11.774774141166038"><ele>3.0</ele><time>2026-05-02T12:31:51.999Z</time></trkpt><trkpt lat="45.212176125381085" lon="11.774774296539984"><ele>2.5</ele><time>2026-05-02T12:31:52.999Z</time></trkpt><trkpt lat="45.21242865085286" lon="11.7747734416199"><ele>2.0</ele><time>2026-05-02T12:31:53.999Z</time></trkpt><trkpt lat="45.21268036376608" lon="11.774775133754428"><ele>2.0</ele><time>2026-05-02T12:31:54.999Z</time></trkpt><trkpt lat="45.2129304768598" lon="11.774772839413696"><ele>2.0</ele><time>2026-05-02T12:31:55.999Z</time></trkpt><trkpt lat="45.21318092406193" lon="11.774775035077006"><ele>2.5</ele><time>2026-05-02T12:31:56.999Z</time></trkpt><trkpt lat="45.21343084086529" lon="11.774774707995993"><ele>3.0</ele><time>2026-05-02T12:31:57.999Z</time></trkpt><trkpt lat="45.213682760495985" lon="11.774773472846366"><ele>3.0</ele><time>2026-05-02T12:31:58.999Z</time></trkpt><trkpt lat="45.21393409945754" lon="11.774768991717627"><ele>3.0</ele><time>2026-05-02T12:31:59.999Z</time></trkpt><trkpt lat="45.21418550354217" lon="11.774768920430287"><ele>3.5</ele><time>2026-05-02T12:32:00.999Z</time></trkpt><trkpt lat="45.21443562706472" lon="11.774772275412989"><ele>4.0</ele><time>2026-05-02T12:32:01.999Z</time></trkpt><trkpt lat="45.21468622233689" lon="11.774774943507115"><ele>4.0</ele><time>2026-05-02T12:32:02.999Z</time></trkpt><trkpt lat="45.2149481100752" lon="11.774773423039973"><ele>4.0</ele><time>2026-05-02T12:32:03.999Z</time></trkpt><trkpt lat="45.215209492493805" lon="11.774769455553567"><ele>4.0</ele><time>2026-05-02T12:32:04.999Z</time></trkpt><trkpt lat="45.21546431748277" lon="11.77476807835579"><ele>4.0</ele><time>2026-05-02T12:32:05.999Z</time></trkpt><trkpt lat="45.21572202017073" lon="11.774765970259345"><ele>4.0</ele><time>2026-05-02T12:32:06.999Z</time></trkpt><trkpt lat="45.21597986999905" lon="11.774769906515228"><ele>4.0</ele><time>2026-05-02T12:32:07.999Z</time></trkpt><trkpt lat="45.21623353533862" lon="11.774769690302552"><ele>3.0</ele><time>2026-05-02T12:32:08.999Z</time></trkpt><trkpt lat="45.21648879772122" lon="11.774772932926016"><ele>2.0</ele><time>2026-05-02T12:32:09.999Z</time></trkpt><trkpt lat="45.21674397866206" lon="11.774775495296666"><ele>2.0</ele><time>2026-05-02T12:32:10.999Z</time></trkpt><trkpt lat="45.216999911325495" lon="11.774774766706965"><ele>2.0</ele><time>2026-05-02T12:32:11.999Z</time></trkpt><trkpt lat="45.217254875351" lon="11.774772815194288"><ele>2.0</ele><time>2026-05-02T12:32:12.999Z</time></trkpt><trkpt lat="45.21750772843859" lon="11.774770987809175"><ele>2.0</ele><time>2026-05-02T12:32:13.999Z</time></trkpt><trkpt lat="45.217759966195466" lon="11.774766213499444"><ele>2.0</ele><time>2026-05-02T12:32:14.999Z</time></trkpt><trkpt lat="45.21801365179959" lon="11.774762954413172"><ele>2.0</ele><time>2026-05-02T12:32:15.999Z</time></trkpt><trkpt lat="45.2182650618544" lon="11.774758988683864"><ele>2.5</ele><time>2026-05-02T12:32:16.999Z</time></trkpt><trkpt lat="45.21851791334193" lon="11.774754049575229"><ele>3.0</ele><time>2026-05-02T12:32:17.999Z</time></trkpt><trkpt lat="45.218768531472016" lon="11.77474942596592"><ele>4.0</ele><time>2026-05-02T12:32:18.999Z</time></trkpt><trkpt lat="45.219017127226344" lon="11.774746322529936"><ele>5.0</ele><time>2026-05-02T12:32:19.999Z</time></trkpt><trkpt lat="45.2192637938702" lon="11.774741380779133"><ele>5.0</ele><time>2026-05-02T12:32:20.999Z</time></trkpt><trkpt lat="45.219513669748636" lon="11.774743336506258"><ele>5.0</ele><time>2026-05-02T12:32:21.999Z</time></trkpt><trkpt lat="45.219766025576234" lon="11.774743311665448"><ele>5.5</ele><time>2026-05-02T12:32:22.999Z</time></trkpt><trkpt lat="45.22001629268139" lon="11.774745456224988"><ele>6.0</ele><time>2026-05-02T12:32:23.999Z</time></trkpt><trkpt lat="45.220265063713256" lon="11.7747448414945"><ele>6.0</ele><time>2026-05-02T12:32:24.999Z</time></trkpt><trkpt lat="45.220514998562926" lon="11.774742895762328"><ele>6.0</ele><time>2026-05-02T12:32:25.999Z</time></trkpt><trkpt lat="45.22076432747454" lon="11.774740630913275"><ele>6.0</ele><time>2026-05-02T12:32:26.999Z</time></trkpt><trkpt lat="45.22101203115989" lon="11.774738140451822"><ele>6.0</ele><time>2026-05-02T12:32:27.999Z</time></trkpt><trkpt lat="45.22125637382267" lon="11.774735987134335"><ele>4.5</ele><time>2026-05-02T12:32:28.999Z</time></trkpt><trkpt lat="45.221506051841914" lon="11.774729253729305"><ele>3.0</ele><time>2026-05-02T12:32:29.999Z</time></trkpt><trkpt lat="45.22175546211894" lon="11.774730996902049"><ele>3.0</ele><time>2026-05-02T12:32:30.999Z</time></trkpt><trkpt lat="45.222005683514105" lon="11.774731842033708"><ele>3.0</ele><time>2026-05-02T12:32:31.999Z</time></trkpt><trkpt lat="45.22225254443995" lon="11.774728605606535"><ele>3.0</ele><time>2026-05-02T12:32:32.999Z</time></trkpt><trkpt lat="45.22250703103099" lon="11.774736896452286"><ele>3.0</ele><time>2026-05-02T12:32:33.999Z</time></trkpt><trkpt lat="45.22276256023969" lon="11.774743330604261"><ele>3.0</ele><time>2026-05-02T12:32:34.999Z</time></trkpt><trkpt lat="45.2230215712082" lon="11.774747074727447"><ele>3.0</ele><time>2026-05-02T12:32:35.999Z</time></trkpt><trkpt lat="45.22327467989893" lon="11.774749647135366"><ele>4.0</ele><time>2026-05-02T12:32:36.999Z</time></trkpt><trkpt lat="45.223528823707824" lon="11.774751854344517"><ele>5.0</ele><time>2026-05-02T12:32:37.999Z</time></trkpt><trkpt lat="45.22378548971441" lon="11.774753605615272"><ele>6.0</ele><time>2026-05-02T12:32:38.999Z</time></trkpt><trkpt lat="45.2240436738594" lon="11.774756066148234"><ele>7.0</ele><time>2026-05-02T12:32:39.999Z</time></trkpt><trkpt lat="45.22429678077285" lon="11.774753376958003"><ele>7.0</ele><time>2026-05-02T12:32:40.999Z</time></trkpt><trkpt lat="45.22454778186718" lon="11.774749391290166"><ele>7.0</ele><time>2026-05-02T12:32:41.999Z</time></trkpt><trkpt lat="45.224795703318875" lon="11.774753953121559"><ele>7.0</ele><time>2026-05-02T12:32:42.999Z</time></trkpt><trkpt lat="45.22503478787667" lon="11.774751769277788"><ele>7.0</ele><time>2026-05-02T12:32:43.999Z</time></trkpt><trkpt lat="45.22527438565641" lon="11.774749356425959"><ele>7.0</ele><time>2026-05-02T12:32:44.999Z</time></trkpt><trkpt lat="45.225509214111455" lon="11.774748340733092"><ele>7.0</ele><time>2026-05-02T12:32:45.999Z</time></trkpt><trkpt lat="45.22574555613099" lon="11.774746327845259"><ele>5.5</ele><time>2026-05-02T12:32:46.999Z</time></trkpt><trkpt lat="45.22598820445387" lon="11.774747661515045"><ele>4.0</ele><time>2026-05-02T12:32:47.999Z</time></trkpt><trkpt lat="45.22623183044017" lon="11.774746263370188"><ele>4.0</ele><time>2026-05-02T12:32:48.999Z</time></trkpt><trkpt lat="45.22647536398113" lon="11.774741357160668"><ele>4.0</ele><time>2026-05-02T12:32:49.999Z</time></trkpt><trkpt lat="45.22671924032779" lon="11.774738073638176"><ele>3.0</ele><time>2026-05-02T12:32:50.999Z</time></trkpt><trkpt lat="45.22696312587063" lon="11.774737136647838"><ele>2.0</ele><time>2026-05-02T12:32:51.999Z</time></trkpt><trkpt lat="45.22720821763207" lon="11.7747356776241"><ele>2.0</ele><time>2026-05-02T12:32:52.999Z</time></trkpt><trkpt lat="45.227455459818835" lon="11.774734156362934"><ele>2.0</ele><time>2026-05-02T12:32:53.999Z</time></trkpt><trkpt lat="45.22770497766308" lon="11.77473327678035"><ele>2.0</ele><time>2026-05-02T12:32:54.999Z</time></trkpt><trkpt lat="45.227955423680086" lon="11.774735311267454"><ele>2.0</ele><time>2026-05-02T12:32:55.999Z</time></trkpt><trkpt lat="45.22820609062474" lon="11.774731244522888"><ele>2.0</ele><time>2026-05-02T12:32:56.999Z</time></trkpt><trkpt lat="45.22845395872982" lon="11.774728532235624"><ele>2.0</ele><time>2026-05-02T12:32:57.999Z</time></trkpt><trkpt lat="45.228704059821304" lon="11.774728200685596"><ele>2.0</ele><time>2026-05-02T12:32:58.999Z</time></trkpt><trkpt lat="45.228953541429235" lon="11.77472452928821"><ele>2.0</ele><time>2026-05-02T12:32:59.999Z</time></trkpt><trkpt lat="45.22920550938124" lon="11.774721530692712"><ele>3.0</ele><time>2026-05-02T12:33:00.999Z</time></trkpt><trkpt lat="45.22945442731154" lon="11.774718030625193"><ele>4.0</ele><time>2026-05-02T12:33:01.999Z</time></trkpt><trkpt lat="45.2297035250546" lon="11.77471391618003"><ele>4.0</ele><time>2026-05-02T12:33:02.999Z</time></trkpt><trkpt lat="45.22995280018963" lon="11.77471078087579"><ele>4.0</ele><time>2026-05-02T12:33:03.999Z</time></trkpt><trkpt lat="45.230198966270486" lon="11.774710484617879"><ele>4.0</ele><time>2026-05-02T12:33:04.999Z</time></trkpt><trkpt lat="45.23044554719307" lon="11.77471096596895"><ele>4.0</ele><time>2026-05-02T12:33:05.999Z</time></trkpt><trkpt lat="45.23069049660232" lon="11.77471540190804"><ele>4.0</ele><time>2026-05-02T12:33:06.999Z</time></trkpt><trkpt lat="45.230937520883685" lon="11.774718899463847"><ele>4.0</ele><time>2026-05-02T12:33:07.999Z</time></trkpt><trkpt lat="45.231181992775916" lon="11.77471824361708"><ele>4.0</ele><time>2026-05-02T12:33:08.998Z</time></trkpt><trkpt lat="45.23142584947698" lon="11.774717418522311"><ele>4.0</ele><time>2026-05-02T12:33:09.998Z</time></trkpt><trkpt lat="45.231669493434794" lon="11.774716414500066"><ele>4.0</ele><time>2026-05-02T12:33:10.998Z</time></trkpt><trkpt lat="45.23191424633938" lon="11.77471429128015"><ele>4.0</ele><time>2026-05-02T12:33:11.998Z</time></trkpt><trkpt lat="45.23215920797088" lon="11.7747130118272"><ele>4.5</ele><time>2026-05-02T12:33:12.998Z</time></trkpt><trkpt lat="45.232400334055896" lon="11.774711014651139"><ele>5.0</ele><time>2026-05-02T12:33:13.998Z</time></trkpt><trkpt lat="45.23264592997065" lon="11.774710803585839"><ele>5.0</ele><time>2026-05-02T12:33:15Z</time></trkpt><trkpt lat="45.232891162211516" lon="11.774710091318298"><ele>5.0</ele><time>2026-05-02T12:33:16Z</time></trkpt><trkpt lat="45.23313608676878" lon="11.774711473955481"><ele>5.5</ele><time>2026-05-02T12:33:17Z</time></trkpt><trkpt lat="45.23338304828489" lon="11.774713308132643"><ele>6.0</ele><time>2026-05-02T12:33:18Z</time></trkpt><trkpt lat="45.23363206571121" lon="11.774714879532182"><ele>6.0</ele><time>2026-05-02T12:33:19Z</time></trkpt><trkpt lat="45.23388304572299" lon="11.774715786742862"><ele>6.0</ele><time>2026-05-02T12:33:20Z</time></trkpt><trkpt lat="45.23412915688986" lon="11.774713783813295"><ele>6.5</ele><time>2026-05-02T12:33:21Z</time></trkpt><trkpt lat="45.23437511838454" lon="11.774713972378919"><ele>7.0</ele><time>2026-05-02T12:33:22Z</time></trkpt><trkpt lat="45.23462478292759" lon="11.77471682270155"><ele>6.0</ele><time>2026-05-02T12:33:23Z</time></trkpt><trkpt lat="45.23487563332999" lon="11.774720277315346"><ele>5.0</ele><time>2026-05-02T12:33:24Z</time></trkpt><trkpt lat="45.23512190360085" lon="11.77471810798199"><ele>5.0</ele><time>2026-05-02T12:33:25Z</time></trkpt><trkpt lat="45.23535808734458" lon="11.774710102686598"><ele>5.0</ele><time>2026-05-02T12:33:26Z</time></trkpt><trkpt lat="45.23558596257121" lon="11.774702747723488"><ele>5.5</ele><time>2026-05-02T12:33:27Z</time></trkpt><trkpt lat="45.23581065395747" lon="11.774694635694248"><ele>6.0</ele><time>2026-05-02T12:33:28Z</time></trkpt><trkpt lat="45.236040934778025" lon="11.774692670651067"><ele>6.0</ele><time>2026-05-02T12:33:29Z</time></trkpt><trkpt lat="45.23627158539457" lon="11.774693242487675"><ele>6.0</ele><time>2026-05-02T12:33:30Z</time></trkpt><trkpt lat="45.23650304201871" lon="11.774690855237651"><ele>5.5</ele><time>2026-05-02T12:33:31Z</time></trkpt><trkpt lat="45.23673666077123" lon="11.774690561103515"><ele>5.0</ele><time>2026-05-02T12:33:32Z</time></trkpt><trkpt lat="45.23697127897398" lon="11.774689996914242"><ele>5.0</ele><time>2026-05-02T12:33:33Z</time></trkpt><trkpt lat="45.237206299582105" lon="11.77469374801766"><ele>5.0</ele><time>2026-05-02T12:33:34Z</time></trkpt><trkpt lat="45.237442883953044" lon="11.774696504333829"><ele>5.5</ele><time>2026-05-02T12:33:35Z</time></trkpt><trkpt lat="45.23768160773379" lon="11.77469782354101"><ele>6.0</ele><time>2026-05-02T12:33:36Z</time></trkpt><trkpt lat="45.2379243952245" lon="11.774696650309599"><ele>6.5</ele><time>2026-05-02T12:33:37Z</time></trkpt><trkpt lat="45.23816786109572" lon="11.774696642931703"><ele>7.0</ele><time>2026-05-02T12:33:38Z</time></trkpt><trkpt lat="45.2384125363396" lon="11.774694944575456"><ele>7.0</ele><time>2026-05-02T12:33:39Z</time></trkpt><trkpt lat="45.238659428655446" lon="11.774693106034071"><ele>7.0</ele><time>2026-05-02T12:33:40Z</time></trkpt><trkpt lat="45.23890528721575" lon="11.774689820895505"><ele>6.5</ele><time>2026-05-02T12:33:41Z</time></trkpt><trkpt lat="45.23915382880926" lon="11.774689886536573"><ele>6.0</ele><time>2026-05-02T12:33:42Z</time></trkpt><trkpt lat="45.23940317421284" lon="11.774688642625827"><ele>6.0</ele><time>2026-05-02T12:33:43Z</time></trkpt><trkpt lat="45.23965360474193" lon="11.774688010700594"><ele>6.0</ele><time>2026-05-02T12:33:44Z</time></trkpt><trkpt lat="45.2399056790185" lon="11.774686574879661"><ele>4.5</ele><time>2026-05-02T12:33:45Z</time></trkpt><trkpt lat="45.24015708954686" lon="11.774686252618343"><ele>3.0</ele><time>2026-05-02T12:33:46Z</time></trkpt><trkpt lat="45.24040331055429" lon="11.774689970408287"><ele>3.0</ele><time>2026-05-02T12:33:46.999Z</time></trkpt><trkpt lat="45.24065301406851" lon="11.774688344372077"><ele>3.0</ele><time>2026-05-02T12:33:47.999Z</time></trkpt><trkpt lat="45.240900205897006" lon="11.774682853575527"><ele>3.0</ele><time>2026-05-02T12:33:48.999Z</time></trkpt><trkpt lat="45.241143609788416" lon="11.774680252484915"><ele>3.0</ele><time>2026-05-02T12:33:49.999Z</time></trkpt><trkpt lat="45.2413890874197" lon="11.774677804477548"><ele>3.5</ele><time>2026-05-02T12:33:50.999Z</time></trkpt><trkpt lat="45.24163443816706" lon="11.774682281310634"><ele>4.0</ele><time>2026-05-02T12:33:51.999Z</time></trkpt><trkpt lat="45.24187955432682" lon="11.774682780867655"><ele>4.0</ele><time>2026-05-02T12:33:52.999Z</time></trkpt><trkpt lat="45.24212868715933" lon="11.774683344138834"><ele>4.0</ele><time>2026-05-02T12:33:53.999Z</time></trkpt><trkpt lat="45.24237884082561" lon="11.77468073905395"><ele>4.0</ele><time>2026-05-02T12:33:54.999Z</time></trkpt><trkpt lat="45.24262731980526" lon="11.774674529139084"><ele>4.0</ele><time>2026-05-02T12:33:55.999Z</time></trkpt><trkpt lat="45.242873820311736" lon="11.774666880356971"><ele>4.0</ele><time>2026-05-02T12:33:56.999Z</time></trkpt><trkpt lat="45.24312240786918" lon="11.774663710642754"><ele>4.0</ele><time>2026-05-02T12:33:57.999Z</time></trkpt><trkpt lat="45.243374490988685" lon="11.774666017806453"><ele>4.5</ele><time>2026-05-02T12:33:58.999Z</time></trkpt><trkpt lat="45.24363062588263" lon="11.774670569626569"><ele>5.0</ele><time>2026-05-02T12:33:59.999Z</time></trkpt><trkpt lat="45.24388423216359" lon="11.774666388807223"><ele>5.5</ele><time>2026-05-02T12:34:00.999Z</time></trkpt><trkpt lat="45.24413635489191" lon="11.774668558267246"><ele>6.0</ele><time>2026-05-02T12:34:01.999Z</time></trkpt><trkpt lat="45.244390790244736" lon="11.774660105284502"><ele>6.0</ele><time>2026-05-02T12:34:02.999Z</time></trkpt><trkpt lat="45.24464538274912" lon="11.774655359143134"><ele>6.0</ele><time>2026-05-02T12:34:03.999Z</time></trkpt><trkpt lat="45.244900146601324" lon="11.774651967616785"><ele>6.0</ele><time>2026-05-02T12:34:04.999Z</time></trkpt><trkpt lat="45.24515812798576" lon="11.774654269538567"><ele>6.0</ele><time>2026-05-02T12:34:05.999Z</time></trkpt><trkpt lat="45.24541538618585" lon="11.774651697677024"><ele>5.0</ele><time>2026-05-02T12:34:06.999Z</time></trkpt><trkpt lat="45.24567139456707" lon="11.77465329629631"><ele>4.0</ele><time>2026-05-02T12:34:07.999Z</time></trkpt><trkpt lat="45.245923012169975" lon="11.774651753508051"><ele>4.0</ele><time>2026-05-02T12:34:08.999Z</time></trkpt><trkpt lat="45.246177142627225" lon="11.774652586278775"><ele>4.0</ele><time>2026-05-02T12:34:09.999Z</time></trkpt><trkpt lat="45.2464306324009" lon="11.774655269443105"><ele>5.5</ele><time>2026-05-02T12:34:10.999Z</time></trkpt><trkpt lat="45.24668311303049" lon="11.7746584585741"><ele>7.0</ele><time>2026-05-02T12:34:11.999Z</time></trkpt><trkpt lat="45.24693573546743" lon="11.774662733891015"><ele>7.0</ele><time>2026-05-02T12:34:12.999Z</time></trkpt><trkpt lat="45.247190570645586" lon="11.774666597881195"><ele>7.0</ele><time>2026-05-02T12:34:13.999Z</time></trkpt><trkpt lat="45.24744714980093" lon="11.774664783515929"><ele>7.5</ele><time>2026-05-02T12:34:14.999Z</time></trkpt><trkpt lat="45.247699378044345" lon="11.774660528742416"><ele>8.0</ele><time>2026-05-02T12:34:15.999Z</time></trkpt><trkpt lat="45.247954433649305" lon="11.774661089558442"><ele>6.5</ele><time>2026-05-02T12:34:16.999Z</time></trkpt><trkpt lat="45.2482099210627" lon="11.774661398549783"><ele>5.0</ele><time>2026-05-02T12:34:17.999Z</time></trkpt><trkpt lat="45.248465965381016" lon="11.774659609407234"><ele>5.0</ele><time>2026-05-02T12:34:18.999Z</time></trkpt><trkpt lat="45.248721684386425" lon="11.77465725460182"><ele>5.0</ele><time>2026-05-02T12:34:19.999Z</time></trkpt><trkpt lat="45.24897646310847" lon="11.774660023575164"><ele>5.0</ele><time>2026-05-02T12:34:20.999Z</time></trkpt><trkpt lat="45.249232353255614" lon="11.774658737221516"><ele>5.0</ele><time>2026-05-02T12:34:21.999Z</time></trkpt><trkpt lat="45.24948587713078" lon="11.774660751748213"><ele>5.0</ele><time>2026-05-02T12:34:22.999Z</time></trkpt><trkpt lat="45.24973995509663" lon="11.774662228859821"><ele>5.0</ele><time>2026-05-02T12:34:23.999Z</time></trkpt><trkpt lat="45.24999565237135" lon="11.774665966598684"><ele>5.0</ele><time>2026-05-02T12:34:24.999Z</time></trkpt><trkpt lat="45.25025047394846" lon="11.774669122899235"><ele>5.0</ele><time>2026-05-02T12:34:25.999Z</time></trkpt><trkpt lat="45.250504310523745" lon="11.774674659877197"><ele>5.0</ele><time>2026-05-02T12:34:26.999Z</time></trkpt><trkpt lat="45.25075469838083" lon="11.774686455006192"><ele>5.0</ele><time>2026-05-02T12:34:27.999Z</time></trkpt><trkpt lat="45.25100745632117" lon="11.774703494157936"><ele>5.0</ele><time>2026-05-02T12:34:28.999Z</time></trkpt><trkpt lat="45.25126445938485" lon="11.77472653275126"><ele>5.0</ele><time>2026-05-02T12:34:29.999Z</time></trkpt><trkpt lat="45.25152594153261" lon="11.774755302890718"><ele>5.5</ele><time>2026-05-02T12:34:30.999Z</time></trkpt><trkpt lat="45.25178754658421" lon="11.774790956403288"><ele>6.0</ele><time>2026-05-02T12:34:31.999Z</time></trkpt><trkpt lat="45.2520466523718" lon="11.77483192014795"><ele>6.0</ele><time>2026-05-02T12:34:32.999Z</time></trkpt><trkpt lat="45.252304313302986" lon="11.774879268641923"><ele>6.0</ele><time>2026-05-02T12:34:33.999Z</time></trkpt><trkpt lat="45.25256318413254" lon="11.774933392756044"><ele>6.0</ele><time>2026-05-02T12:34:34.999Z</time></trkpt><trkpt lat="45.25281945514098" lon="11.774995050209833"><ele>6.0</ele><time>2026-05-02T12:34:35.999Z</time></trkpt><trkpt lat="45.253072861384034" lon="11.775064196435347"><ele>6.0</ele><time>2026-05-02T12:34:36.999Z</time></trkpt><trkpt lat="45.253323179613915" lon="11.775144967879815"><ele>6.0</ele><time>2026-05-02T12:34:37.999Z</time></trkpt><trkpt lat="45.25357526649288" lon="11.775233504328074"><ele>6.0</ele><time>2026-05-02T12:34:38.999Z</time></trkpt><trkpt lat="45.25382899498313" lon="11.775327402967086"><ele>6.0</ele><time>2026-05-02T12:34:39.999Z</time></trkpt><trkpt lat="45.254080051634396" lon="11.775425622782965"><ele>6.0</ele><time>2026-05-02T12:34:40.999Z</time></trkpt><trkpt lat="45.25433000225427" lon="11.775529607608416"><ele>6.0</ele><time>2026-05-02T12:34:41.999Z</time></trkpt><trkpt lat="45.2545787864893" lon="11.77563885743236"><ele>6.0</ele><time>2026-05-02T12:34:42.999Z</time></trkpt><trkpt lat="45.25482216869628" lon="11.77575265188929"><ele>6.0</ele><time>2026-05-02T12:34:43.999Z</time></trkpt><trkpt lat="45.25506407613079" lon="11.775870455970766"><ele>6.0</ele><time>2026-05-02T12:34:44.999Z</time></trkpt><trkpt lat="45.2553059092412" lon="11.775994215625566"><ele>6.0</ele><time>2026-05-02T12:34:45.999Z</time></trkpt><trkpt lat="45.25554870806492" lon="11.776117816038898"><ele>5.5</ele><time>2026-05-02T12:34:46.999Z</time></trkpt><trkpt lat="45.25579191559058" lon="11.776244695072725"><ele>5.0</ele><time>2026-05-02T12:34:47.999Z</time></trkpt><trkpt lat="45.25603393716158" lon="11.776369247703412"><ele>5.0</ele><time>2026-05-02T12:34:48.999Z</time></trkpt><trkpt lat="45.256277028844984" lon="11.77649375575834"><ele>5.0</ele><time>2026-05-02T12:34:49.999Z</time></trkpt><trkpt lat="45.25651747347054" lon="11.776616750486129"><ele>5.0</ele><time>2026-05-02T12:34:50.999Z</time></trkpt><trkpt lat="45.25675712332618" lon="11.776729363531974"><ele>5.0</ele><time>2026-05-02T12:34:51.999Z</time></trkpt><trkpt lat="45.2569937562431" lon="11.77685752456366"><ele>5.0</ele><time>2026-05-02T12:34:52.999Z</time></trkpt><trkpt lat="45.25723054469091" lon="11.776976117534918"><ele>5.0</ele><time>2026-05-02T12:34:53.999Z</time></trkpt><trkpt lat="45.257470925051436" lon="11.777099945076435"><ele>5.0</ele><time>2026-05-02T12:34:54.999Z</time></trkpt><trkpt lat="45.257709807350935" lon="11.77722417547114"><ele>5.0</ele><time>2026-05-02T12:34:55.999Z</time></trkpt><trkpt lat="45.25795008713635" lon="11.77735061507129"><ele>6.0</ele><time>2026-05-02T12:34:56.999Z</time></trkpt><trkpt lat="45.25818910615333" lon="11.777478516038009"><ele>7.0</ele><time>2026-05-02T12:34:57.999Z</time></trkpt><trkpt lat="45.25843061880394" lon="11.777604371185104"><ele>7.0</ele><time>2026-05-02T12:34:58.999Z</time></trkpt><trkpt lat="45.25867251163145" lon="11.777728783737665"><ele>7.0</ele><time>2026-05-02T12:34:59.999Z</time></trkpt><trkpt lat="45.25891226154174" lon="11.777851980040964"><ele>8.0</ele><time>2026-05-02T12:35:00.999Z</time></trkpt><trkpt lat="45.25915164563847" lon="11.777975191497253"><ele>9.0</ele><time>2026-05-02T12:35:01.999Z</time></trkpt><trkpt lat="45.259391931413745" lon="11.778099271969754"><ele>9.0</ele><time>2026-05-02T12:35:02.999Z</time></trkpt><trkpt lat="45.25963016077041" lon="11.778223814602246"><ele>9.0</ele><time>2026-05-02T12:35:03.999Z</time></trkpt><trkpt lat="45.259868364125786" lon="11.778350347329038"><ele>8.0</ele><time>2026-05-02T12:35:04.999Z</time></trkpt><trkpt lat="45.26010913444137" lon="11.778475320540254"><ele>7.0</ele><time>2026-05-02T12:35:05.999Z</time></trkpt><trkpt lat="45.26035092291551" lon="11.778600116526253"><ele>7.0</ele><time>2026-05-02T12:35:06.999Z</time></trkpt><trkpt lat="45.260592998212836" lon="11.778725534870443"><ele>7.0</ele><time>2026-05-02T12:35:07.999Z</time></trkpt><trkpt lat="45.26083271389102" lon="11.778847459495713"><ele>6.5</ele><time>2026-05-02T12:35:08.999Z</time></trkpt><trkpt lat="45.26106945588207" lon="11.778967672693813"><ele>6.0</ele><time>2026-05-02T12:35:09.999Z</time></trkpt><trkpt lat="45.26130387769577" lon="11.779085764595274"><ele>6.0</ele><time>2026-05-02T12:35:10.999Z</time></trkpt><trkpt lat="45.26153930553934" lon="11.779207688963432"><ele>6.0</ele><time>2026-05-02T12:35:11.998Z</time></trkpt><trkpt lat="45.26177401267585" lon="11.779332291919687"><ele>5.0</ele><time>2026-05-02T12:35:12.998Z</time></trkpt><trkpt lat="45.26201147075921" lon="11.779457469944974"><ele>4.0</ele><time>2026-05-02T12:35:13.998Z</time></trkpt><trkpt lat="45.262248384297884" lon="11.779579207890828"><ele>5.5</ele><time>2026-05-02T12:35:14.998Z</time></trkpt><trkpt lat="45.262485490381884" lon="11.779702461984542"><ele>7.0</ele><time>2026-05-02T12:35:15.998Z</time></trkpt><trkpt lat="45.262724053645194" lon="11.779828503577102"><ele>7.0</ele><time>2026-05-02T12:35:16.998Z</time></trkpt><trkpt lat="45.26296584311738" lon="11.779956696118198"><ele>7.0</ele><time>2026-05-02T12:35:17.998Z</time></trkpt><trkpt lat="45.26320931003012" lon="11.780084649823667"><ele>6.0</ele><time>2026-05-02T12:35:18.998Z</time></trkpt><trkpt lat="45.26345182558382" lon="11.780213827968465"><ele>5.0</ele><time>2026-05-02T12:35:19.998Z</time></trkpt><trkpt lat="45.26369679759282" lon="11.780344801909614"><ele>5.0</ele><time>2026-05-02T12:35:21Z</time></trkpt><trkpt lat="45.26394459085381" lon="11.780473359763178"><ele>5.0</ele><time>2026-05-02T12:35:22Z</time></trkpt><trkpt lat="45.26419106975075" lon="11.78060111263772"><ele>4.5</ele><time>2026-05-02T12:35:23Z</time></trkpt><trkpt lat="45.26443475306859" lon="11.780726870731897"><ele>4.0</ele><time>2026-05-02T12:35:24Z</time></trkpt><trkpt lat="45.26467634804204" lon="11.78084836586761"><ele>4.0</ele><time>2026-05-02T12:35:25Z</time></trkpt><trkpt lat="45.26491554223302" lon="11.780972451239363"><ele>4.0</ele><time>2026-05-02T12:35:26Z</time></trkpt><trkpt lat="45.26515541282087" lon="11.781094097686"><ele>4.0</ele><time>2026-05-02T12:35:27Z</time></trkpt><trkpt lat="45.265392824020864" lon="11.781217843272886"><ele>4.0</ele><time>2026-05-02T12:35:28Z</time></trkpt><trkpt lat="45.26562953947703" lon="11.781340530985096"><ele>4.0</ele><time>2026-05-02T12:35:29Z</time></trkpt><trkpt lat="45.26586747873211" lon="11.781464298801211"><ele>4.0</ele><time>2026-05-02T12:35:30Z</time></trkpt><trkpt lat="45.266110540923606" lon="11.781587297610637"><ele>4.0</ele><time>2026-05-02T12:35:31Z</time></trkpt><trkpt lat="45.266351440640975" lon="11.781710488257731"><ele>4.0</ele><time>2026-05-02T12:35:32Z</time></trkpt><trkpt lat="45.266593348346525" lon="11.781833144287948"><ele>5.5</ele><time>2026-05-02T12:35:33Z</time></trkpt><trkpt lat="45.266833174890984" lon="11.781957086728497"><ele>7.0</ele><time>2026-05-02T12:35:34Z</time></trkpt><trkpt lat="45.26707897046375" lon="11.782086871782044"><ele>7.0</ele><time>2026-05-02T12:35:35Z</time></trkpt><trkpt lat="45.267325876069805" lon="11.782215813377025"><ele>7.0</ele><time>2026-05-02T12:35:36Z</time></trkpt><trkpt lat="45.26757495032538" lon="11.782346432565978"><ele>7.0</ele><time>2026-05-02T12:35:37Z</time></trkpt><trkpt lat="45.267824494607005" lon="11.782474444717469"><ele>7.0</ele><time>2026-05-02T12:35:38Z</time></trkpt><trkpt lat="45.26806759549887" lon="11.782599553510869"><ele>5.0</ele><time>2026-05-02T12:35:39Z</time></trkpt><trkpt lat="45.26831097353924" lon="11.78272246717643"><ele>3.0</ele><time>2026-05-02T12:35:40Z</time></trkpt><trkpt lat="45.268555279539534" lon="11.782849601790938"><ele>3.0</ele><time>2026-05-02T12:35:41Z</time></trkpt><trkpt lat="45.268799605312374" lon="11.78297589595425"><ele>3.0</ele><time>2026-05-02T12:35:42Z</time></trkpt><trkpt lat="45.269043555986975" lon="11.783102830580523"><ele>4.0</ele><time>2026-05-02T12:35:43Z</time></trkpt><trkpt lat="45.26928653573238" lon="11.783227314573265"><ele>5.0</ele><time>2026-05-02T12:35:44Z</time></trkpt><trkpt lat="45.26953151134122" lon="11.7833515313611"><ele>4.5</ele><time>2026-05-02T12:35:45Z</time></trkpt><trkpt lat="45.269777272993444" lon="11.783478336690603"><ele>4.0</ele><time>2026-05-02T12:35:46Z</time></trkpt><trkpt lat="45.27001654617999" lon="11.783601796051432"><ele>4.0</ele><time>2026-05-02T12:35:47Z</time></trkpt><trkpt lat="45.27025516243925" lon="11.783723711254197"><ele>4.0</ele><time>2026-05-02T12:35:48Z</time></trkpt><trkpt lat="45.2704900191795" lon="11.783847671888255"><ele>3.5</ele><time>2026-05-02T12:35:49Z</time></trkpt><trkpt lat="45.270721721336386" lon="11.78397885149958"><ele>3.0</ele><time>2026-05-02T12:35:50Z</time></trkpt><trkpt lat="45.27095314236001" lon="11.784113895288222"><ele>3.0</ele><time>2026-05-02T12:35:51Z</time></trkpt><trkpt lat="45.27118325660521" lon="11.784250912251936"><ele>3.0</ele><time>2026-05-02T12:35:52Z</time></trkpt><trkpt lat="45.2714096642314" lon="11.784391568609637"><ele>3.5</ele><time>2026-05-02T12:35:53Z</time></trkpt><trkpt lat="45.27164043856919" lon="11.78454018534942"><ele>4.0</ele><time>2026-05-02T12:35:54Z</time></trkpt><trkpt lat="45.27187400630677" lon="11.784693025887547"><ele>4.0</ele><time>2026-05-02T12:35:55Z</time></trkpt><trkpt lat="45.272106496033786" lon="11.784851437841626"><ele>4.0</ele><time>2026-05-02T12:35:56Z</time></trkpt><trkpt lat="45.272341117030344" lon="11.78501346553106"><ele>3.5</ele><time>2026-05-02T12:35:57Z</time></trkpt><trkpt lat="45.272576977956426" lon="11.785181299105712"><ele>3.0</ele><time>2026-05-02T12:35:57.999Z</time></trkpt><trkpt lat="45.27280653254456" lon="11.785347806160475"><ele>3.0</ele><time>2026-05-02T12:35:58.999Z</time></trkpt><trkpt lat="45.27303328030507" lon="11.785517539436633"><ele>3.0</ele><time>2026-05-02T12:35:59.999Z</time></trkpt><trkpt lat="45.273257219413615" lon="11.78569240683658"><ele>3.0</ele><time>2026-05-02T12:36:00.999Z</time></trkpt><trkpt lat="45.27348131821862" lon="11.785876741079623"><ele>3.0</ele><time>2026-05-02T12:36:01.999Z</time></trkpt><trkpt lat="45.27370323336878" lon="11.786058574398325"><ele>3.0</ele><time>2026-05-02T12:36:02.999Z</time></trkpt><trkpt lat="45.27392508484825" lon="11.786247341342914"><ele>3.0</ele><time>2026-05-02T12:36:03.999Z</time></trkpt><trkpt lat="45.27414261669079" lon="11.786437799771784"><ele>4.0</ele><time>2026-05-02T12:36:04.999Z</time></trkpt><trkpt lat="45.27436112793919" lon="11.78662806349311"><ele>5.0</ele><time>2026-05-02T12:36:05.999Z</time></trkpt><trkpt lat="45.27457308811191" lon="11.786819677648662"><ele>4.5</ele><time>2026-05-02T12:36:06.999Z</time></trkpt><trkpt lat="45.274783623551244" lon="11.787011981989695"><ele>4.0</ele><time>2026-05-02T12:36:07.999Z</time></trkpt><trkpt lat="45.27499155939369" lon="11.787206607302725"><ele>4.0</ele><time>2026-05-02T12:36:08.999Z</time></trkpt><trkpt lat="45.27519017099507" lon="11.787393829575493"><ele>4.0</ele><time>2026-05-02T12:36:09.999Z</time></trkpt><trkpt lat="45.27539038544291" lon="11.78758088810658"><ele>4.0</ele><time>2026-05-02T12:36:10.999Z</time></trkpt><trkpt lat="45.27559279940961" lon="11.787773660416713"><ele>4.0</ele><time>2026-05-02T12:36:11.999Z</time></trkpt><trkpt lat="45.27579592206666" lon="11.787964143118401"><ele>4.5</ele><time>2026-05-02T12:36:12.999Z</time></trkpt><trkpt lat="45.27600184956891" lon="11.788151920110774"><ele>5.0</ele><time>2026-05-02T12:36:13.999Z</time></trkpt><trkpt lat="45.27621305334572" lon="11.788341778596855"><ele>4.5</ele><time>2026-05-02T12:36:14.999Z</time></trkpt><trkpt lat="45.2764206261722" lon="11.788539323645374"><ele>4.0</ele><time>2026-05-02T12:36:15.999Z</time></trkpt><trkpt lat="45.276630953734276" lon="11.788744937317247"><ele>4.0</ele><time>2026-05-02T12:36:16.999Z</time></trkpt><trkpt lat="45.276838787587074" lon="11.788942628562765"><ele>4.0</ele><time>2026-05-02T12:36:17.999Z</time></trkpt><trkpt lat="45.277051633182666" lon="11.789133283685706"><ele>4.0</ele><time>2026-05-02T12:36:18.999Z</time></trkpt><trkpt lat="45.27726455730423" lon="11.78932978905484"><ele>4.0</ele><time>2026-05-02T12:36:19.999Z</time></trkpt><trkpt lat="45.27747974847419" lon="11.78952824975441"><ele>4.0</ele><time>2026-05-02T12:36:20.999Z</time></trkpt><trkpt lat="45.27769475664922" lon="11.789726022353458"><ele>4.0</ele><time>2026-05-02T12:36:21.999Z</time></trkpt><trkpt lat="45.27790950145095" lon="11.78992447529649"><ele>4.5</ele><time>2026-05-02T12:36:22.999Z</time></trkpt><trkpt lat="45.278122238509376" lon="11.790117408267786"><ele>5.0</ele><time>2026-05-02T12:36:23.999Z</time></trkpt><trkpt lat="45.27833340748572" lon="11.79031477387446"><ele>6.0</ele><time>2026-05-02T12:36:24.999Z</time></trkpt><trkpt lat="45.27854802629936" lon="11.790515459956836"><ele>7.0</ele><time>2026-05-02T12:36:25.999Z</time></trkpt><trkpt lat="45.27875662212076" lon="11.790704798118274"><ele>7.5</ele><time>2026-05-02T12:36:26.999Z</time></trkpt><trkpt lat="45.278970348845" lon="11.790901786746524"><ele>8.0</ele><time>2026-05-02T12:36:27.999Z</time></trkpt><trkpt lat="45.27918504853984" lon="11.791102808241844"><ele>6.5</ele><time>2026-05-02T12:36:28.999Z</time></trkpt><trkpt lat="45.27939581842295" lon="11.79130071440101"><ele>5.0</ele><time>2026-05-02T12:36:29.999Z</time></trkpt><trkpt lat="45.2796083531177" lon="11.791500592778311"><ele>5.5</ele><time>2026-05-02T12:36:30.999Z</time></trkpt><trkpt lat="45.2798201845773" lon="11.79169991488087"><ele>6.0</ele><time>2026-05-02T12:36:31.999Z</time></trkpt><trkpt lat="45.280034200096786" lon="11.791897076335703"><ele>6.0</ele><time>2026-05-02T12:36:32.999Z</time></trkpt><trkpt lat="45.28025028953547" lon="11.792092727142288"><ele>6.0</ele><time>2026-05-02T12:36:33.999Z</time></trkpt><trkpt lat="45.28046447267663" lon="11.792289723129969"><ele>6.5</ele><time>2026-05-02T12:36:34.999Z</time></trkpt><trkpt lat="45.28068257316791" lon="11.79249166197258"><ele>7.0</ele><time>2026-05-02T12:36:35.999Z</time></trkpt><trkpt lat="45.280901178441226" lon="11.792695601281773"><ele>7.0</ele><time>2026-05-02T12:36:36.999Z</time></trkpt><trkpt lat="45.28111990373895" lon="11.792900924949276"><ele>7.0</ele><time>2026-05-02T12:36:37.999Z</time></trkpt><trkpt lat="45.281339291463276" lon="11.793104642046956"><ele>6.0</ele><time>2026-05-02T12:36:38.999Z</time></trkpt><trkpt lat="45.28156013853026" lon="11.793310388641464"><ele>5.0</ele><time>2026-05-02T12:36:39.999Z</time></trkpt><trkpt lat="45.28177949176084" lon="11.793514931310222"><ele>4.0</ele><time>2026-05-02T12:36:40.999Z</time></trkpt><trkpt lat="45.2819986383057" lon="11.793717265914273"><ele>3.0</ele><time>2026-05-02T12:36:41.999Z</time></trkpt><trkpt lat="45.2822185288714" lon="11.793921156544544"><ele>3.0</ele><time>2026-05-02T12:36:42.999Z</time></trkpt><trkpt lat="45.28243443421332" lon="11.79412288662159"><ele>3.0</ele><time>2026-05-02T12:36:43.999Z</time></trkpt><trkpt lat="45.28265021308346" lon="11.794324899669176"><ele>3.5</ele><time>2026-05-02T12:36:44.999Z</time></trkpt><trkpt lat="45.28286463380223" lon="11.794526670524577"><ele>4.0</ele><time>2026-05-02T12:36:45.999Z</time></trkpt><trkpt lat="45.283077368323795" lon="11.794725520700442"><ele>4.5</ele><time>2026-05-02T12:36:46.999Z</time></trkpt><trkpt lat="45.28328862409877" lon="11.794922274484163"><ele>5.0</ele><time>2026-05-02T12:36:47.999Z</time></trkpt><trkpt lat="45.283497522865645" lon="11.795117642244428"><ele>5.5</ele><time>2026-05-02T12:36:48.999Z</time></trkpt><trkpt lat="45.28370643536042" lon="11.795311184859539"><ele>6.0</ele><time>2026-05-02T12:36:49.999Z</time></trkpt><trkpt lat="45.28391510868147" lon="11.795502585794802"><ele>6.5</ele><time>2026-05-02T12:36:50.999Z</time></trkpt><trkpt lat="45.284125092243436" lon="11.795694910885183"><ele>7.0</ele><time>2026-05-02T12:36:51.999Z</time></trkpt><trkpt lat="45.28433760493726" lon="11.795892720085574"><ele>7.0</ele><time>2026-05-02T12:36:52.999Z</time></trkpt><trkpt lat="45.28454845913818" lon="11.796089844776107"><ele>7.0</ele><time>2026-05-02T12:36:53.999Z</time></trkpt><trkpt lat="45.28475959356146" lon="11.796287365894978"><ele>7.0</ele><time>2026-05-02T12:36:54.999Z</time></trkpt><trkpt lat="45.28497187528681" lon="11.796485482014583"><ele>7.0</ele><time>2026-05-02T12:36:55.999Z</time></trkpt><trkpt lat="45.285185086803736" lon="11.796681538433964"><ele>6.5</ele><time>2026-05-02T12:36:56.999Z</time></trkpt><trkpt lat="45.285396695733525" lon="11.796882659747855"><ele>6.0</ele><time>2026-05-02T12:36:57.999Z</time></trkpt><trkpt lat="45.285607885761465" lon="11.797081082004658"><ele>5.5</ele><time>2026-05-02T12:36:58.999Z</time></trkpt><trkpt lat="45.28581972057585" lon="11.7972774833623"><ele>5.0</ele><time>2026-05-02T12:36:59.999Z</time></trkpt><trkpt lat="45.286032590783535" lon="11.797474826329465"><ele>4.5</ele><time>2026-05-02T12:37:00.999Z</time></trkpt><trkpt lat="45.28624362279338" lon="11.797670113466902"><ele>4.0</ele><time>2026-05-02T12:37:01.999Z</time></trkpt><trkpt lat="45.2864560562038" lon="11.79786592634546"><ele>4.0</ele><time>2026-05-02T12:37:02.999Z</time></trkpt><trkpt lat="45.28666516870001" lon="11.798061335902476"><ele>4.0</ele><time>2026-05-02T12:37:03.999Z</time></trkpt><trkpt lat="45.28687626234515" lon="11.798258543239225"><ele>4.0</ele><time>2026-05-02T12:37:04.999Z</time></trkpt><trkpt lat="45.28708738249737" lon="11.798456760034664"><ele>4.0</ele><time>2026-05-02T12:37:05.999Z</time></trkpt><trkpt lat="45.28729933826665" lon="11.798656434223656"><ele>3.5</ele><time>2026-05-02T12:37:06.999Z</time></trkpt><trkpt lat="45.28751138183628" lon="11.798854018043981"><ele>3.0</ele><time>2026-05-02T12:37:07.999Z</time></trkpt><trkpt lat="45.287725925294225" lon="11.799051748453012"><ele>3.0</ele><time>2026-05-02T12:37:08.999Z</time></trkpt><trkpt lat="45.28793992666639" lon="11.799249744971288"><ele>3.0</ele><time>2026-05-02T12:37:09.999Z</time></trkpt><trkpt lat="45.28815264906472" lon="11.799446924387961"><ele>3.5</ele><time>2026-05-02T12:37:10.999Z</time></trkpt><trkpt lat="45.28836445891698" lon="11.799647358102886"><ele>4.0</ele><time>2026-05-02T12:37:11.999Z</time></trkpt><trkpt lat="45.28857843856029" lon="11.799846697038696"><ele>4.0</ele><time>2026-05-02T12:37:12.999Z</time></trkpt><trkpt lat="45.28879048210995" lon="11.800045568838646"><ele>4.0</ele><time>2026-05-02T12:37:13.999Z</time></trkpt><trkpt lat="45.289001113170194" lon="11.800241625548223"><ele>5.0</ele><time>2026-05-02T12:37:14.999Z</time></trkpt><trkpt lat="45.28920999423612" lon="11.800440345434087"><ele>6.0</ele><time>2026-05-02T12:37:15.999Z</time></trkpt><trkpt lat="45.289418048217975" lon="11.800642840004185"><ele>6.0</ele><time>2026-05-02T12:37:16.999Z</time></trkpt><trkpt lat="45.289621958962655" lon="11.80085164441963"><ele>6.0</ele><time>2026-05-02T12:37:17.999Z</time></trkpt><trkpt lat="45.28981605477503" lon="11.801066971625989"><ele>5.5</ele><time>2026-05-02T12:37:18.999Z</time></trkpt><trkpt lat="45.29000197051919" lon="11.801278408346857"><ele>5.0</ele><time>2026-05-02T12:37:19.999Z</time></trkpt><trkpt lat="45.29017948436223" lon="11.801475573340454"><ele>5.0</ele><time>2026-05-02T12:37:20.999Z</time></trkpt><trkpt lat="45.29035377488155" lon="11.801668150895994"><ele>5.0</ele><time>2026-05-02T12:37:21.999Z</time></trkpt><trkpt lat="45.29052642493497" lon="11.801861436096045"><ele>5.0</ele><time>2026-05-02T12:37:22.999Z</time></trkpt><trkpt lat="45.29070082187727" lon="11.802057060677019"><ele>5.0</ele><time>2026-05-02T12:37:23.999Z</time></trkpt><trkpt lat="45.29087758982095" lon="11.802262099415492"><ele>5.0</ele><time>2026-05-02T12:37:24.999Z</time></trkpt><trkpt lat="45.291057444819785" lon="11.802473005452176"><ele>4.5</ele><time>2026-05-02T12:37:25.999Z</time></trkpt><trkpt lat="45.29124389220399" lon="11.80268957229244"><ele>4.0</ele><time>2026-05-02T12:37:27Z</time></trkpt><trkpt lat="45.291426634047184" lon="11.802906695878727"><ele>4.0</ele><time>2026-05-02T12:37:28Z</time></trkpt><trkpt lat="45.291613225368394" lon="11.80312898546459"><ele>4.0</ele><time>2026-05-02T12:37:29Z</time></trkpt><trkpt lat="45.29179828177771" lon="11.803357187729114"><ele>4.5</ele><time>2026-05-02T12:37:30Z</time></trkpt><trkpt lat="45.29198301018918" lon="11.803587208362888"><ele>5.0</ele><time>2026-05-02T12:37:31Z</time></trkpt><trkpt lat="45.292170727907134" lon="11.803816897501306"><ele>4.0</ele><time>2026-05-02T12:37:32Z</time></trkpt><trkpt lat="45.29236100020717" lon="11.804054053558806"><ele>3.0</ele><time>2026-05-02T12:37:33Z</time></trkpt><trkpt lat="45.29254386016123" lon="11.804289969810583"><ele>3.0</ele><time>2026-05-02T12:37:34Z</time></trkpt><trkpt lat="45.29272389509015" lon="11.804513045487418"><ele>3.0</ele><time>2026-05-02T12:37:35Z</time></trkpt><trkpt lat="45.292905180650244" lon="11.804724954053562"><ele>3.0</ele><time>2026-05-02T12:37:36Z</time></trkpt><trkpt lat="45.29309572820333" lon="11.804935628844772"><ele>3.0</ele><time>2026-05-02T12:37:37Z</time></trkpt><trkpt lat="45.29328757932157" lon="11.805155353268157"><ele>3.5</ele><time>2026-05-02T12:37:38Z</time></trkpt><trkpt lat="45.293479487220296" lon="11.805382107525398"><ele>4.0</ele><time>2026-05-02T12:37:39Z</time></trkpt><trkpt lat="45.29366945138058" lon="11.80561037131999"><ele>4.0</ele><time>2026-05-02T12:37:40Z</time></trkpt><trkpt lat="45.293857998995875" lon="11.80583712910388"><ele>4.0</ele><time>2026-05-02T12:37:41Z</time></trkpt><trkpt lat="45.29404609822685" lon="11.806062557855817"><ele>4.5</ele><time>2026-05-02T12:37:42Z</time></trkpt><trkpt lat="45.29423435255182" lon="11.806288833962142"><ele>5.0</ele><time>2026-05-02T12:37:43Z</time></trkpt><trkpt lat="45.29442212404628" lon="11.806516044261254"><ele>5.0</ele><time>2026-05-02T12:37:44Z</time></trkpt><trkpt lat="45.29460643957739" lon="11.806734203423803"><ele>5.0</ele><time>2026-05-02T12:37:45Z</time></trkpt><trkpt lat="45.294792420630145" lon="11.80694776663744"><ele>4.5</ele><time>2026-05-02T12:37:46Z</time></trkpt><trkpt lat="45.29498312489978" lon="11.807166972549528"><ele>4.0</ele><time>2026-05-02T12:37:47Z</time></trkpt><trkpt lat="45.29516778976654" lon="11.80740331142361"><ele>4.0</ele><time>2026-05-02T12:37:48Z</time></trkpt><trkpt lat="45.295347434046754" lon="11.807635411660469"><ele>4.0</ele><time>2026-05-02T12:37:49Z</time></trkpt><trkpt lat="45.2955322935406" lon="11.807861568929237"><ele>4.0</ele><time>2026-05-02T12:37:50Z</time></trkpt><trkpt lat="45.29572104877915" lon="11.80809120683872"><ele>4.0</ele><time>2026-05-02T12:37:51Z</time></trkpt><trkpt lat="45.29590872715636" lon="11.808323703779013"><ele>3.0</ele><time>2026-05-02T12:37:52Z</time></trkpt><trkpt lat="45.29609955128528" lon="11.808553469344604"><ele>2.0</ele><time>2026-05-02T12:37:53Z</time></trkpt><trkpt lat="45.296297326294976" lon="11.808780811329823"><ele>2.5</ele><time>2026-05-02T12:37:54Z</time></trkpt><trkpt lat="45.296487972934386" lon="11.809016105156644"><ele>3.0</ele><time>2026-05-02T12:37:55Z</time></trkpt><trkpt lat="45.296682128892535" lon="11.809249647565537"><ele>4.5</ele><time>2026-05-02T12:37:56Z</time></trkpt><trkpt lat="45.29687549602029" lon="11.809480325539537"><ele>6.0</ele><time>2026-05-02T12:37:57Z</time></trkpt><trkpt lat="45.297070620707814" lon="11.809712723940036"><ele>6.0</ele><time>2026-05-02T12:37:58Z</time></trkpt><trkpt lat="45.297267030912614" lon="11.809943077620995"><ele>6.0</ele><time>2026-05-02T12:37:59Z</time></trkpt><trkpt lat="45.29746010812705" lon="11.810178183695808"><ele>5.5</ele><time>2026-05-02T12:38:00Z</time></trkpt><trkpt lat="45.297655237636164" lon="11.810410973473285"><ele>5.0</ele><time>2026-05-02T12:38:01Z</time></trkpt><trkpt lat="45.29785576293335" lon="11.81064798709614"><ele>5.0</ele><time>2026-05-02T12:38:02Z</time></trkpt><trkpt lat="45.298053991433335" lon="11.810890757766277"><ele>5.0</ele><time>2026-05-02T12:38:03Z</time></trkpt><trkpt lat="45.298252842318625" lon="11.81113855596152"><ele>4.5</ele><time>2026-05-02T12:38:04Z</time></trkpt><trkpt lat="45.29845345464935" lon="11.811387034583715"><ele>4.0</ele><time>2026-05-02T12:38:05Z</time></trkpt><trkpt lat="45.29865276745924" lon="11.811633171963523"><ele>4.0</ele><time>2026-05-02T12:38:06Z</time></trkpt><trkpt lat="45.29885684879167" lon="11.811880146484002"><ele>4.0</ele><time>2026-05-02T12:38:07Z</time></trkpt><trkpt lat="45.29905636924771" lon="11.812119000939152"><ele>4.0</ele><time>2026-05-02T12:38:07.999Z</time></trkpt><trkpt lat="45.29925292711516" lon="11.812359538226012"><ele>4.0</ele><time>2026-05-02T12:38:08.999Z</time></trkpt><trkpt lat="45.299451599478566" lon="11.812596926332555"><ele>4.0</ele><time>2026-05-02T12:38:09.999Z</time></trkpt><trkpt lat="45.29965134485993" lon="11.812830432496055"><ele>4.0</ele><time>2026-05-02T12:38:10.999Z</time></trkpt><trkpt lat="45.29984788023328" lon="11.813065322611628"><ele>4.0</ele><time>2026-05-02T12:38:11.999Z</time></trkpt><trkpt lat="45.30004559843545" lon="11.813299439320547"><ele>4.0</ele><time>2026-05-02T12:38:12.999Z</time></trkpt><trkpt lat="45.30024514980813" lon="11.813535617957239"><ele>4.5</ele><time>2026-05-02T12:38:13.999Z</time></trkpt><trkpt lat="45.300442441185105" lon="11.813773684031178"><ele>5.0</ele><time>2026-05-02T12:38:14.999Z</time></trkpt><trkpt lat="45.30063925435755" lon="11.814012866747099"><ele>5.5</ele><time>2026-05-02T12:38:15.999Z</time></trkpt><trkpt lat="45.30083290665222" lon="11.814247372504354"><ele>6.0</ele><time>2026-05-02T12:38:16.999Z</time></trkpt><trkpt lat="45.30102748283961" lon="11.81448564676701"><ele>6.5</ele><time>2026-05-02T12:38:17.999Z</time></trkpt><trkpt lat="45.30122092297155" lon="11.814722575020726"><ele>7.0</ele><time>2026-05-02T12:38:18.999Z</time></trkpt><trkpt lat="45.30141760529183" lon="11.81495483677554"><ele>7.0</ele><time>2026-05-02T12:38:19.999Z</time></trkpt><trkpt lat="45.30161804342053" lon="11.815187647883782"><ele>7.0</ele><time>2026-05-02T12:38:20.999Z</time></trkpt><trkpt lat="45.3018169949728" lon="11.815422829106943"><ele>7.0</ele><time>2026-05-02T12:38:21.999Z</time></trkpt><trkpt lat="45.30201345074286" lon="11.81566189475057"><ele>7.0</ele><time>2026-05-02T12:38:22.999Z</time></trkpt><trkpt lat="45.3022092362668" lon="11.815900361357784"><ele>6.5</ele><time>2026-05-02T12:38:23.999Z</time></trkpt><trkpt lat="45.30240557198246" lon="11.816138032232546"><ele>6.0</ele><time>2026-05-02T12:38:24.999Z</time></trkpt><trkpt lat="45.30260181921777" lon="11.81637647091593"><ele>6.0</ele><time>2026-05-02T12:38:25.999Z</time></trkpt><trkpt lat="45.30279588198499" lon="11.816615127016812"><ele>6.0</ele><time>2026-05-02T12:38:26.999Z</time></trkpt><trkpt lat="45.302992338968295" lon="11.816852587402618"><ele>7.0</ele><time>2026-05-02T12:38:27.999Z</time></trkpt><trkpt lat="45.30318589755488" lon="11.81708274715151"><ele>8.0</ele><time>2026-05-02T12:38:28.999Z</time></trkpt><trkpt lat="45.303384185415155" lon="11.817304591359878"><ele>8.0</ele><time>2026-05-02T12:38:29.999Z</time></trkpt><trkpt lat="45.303589988431355" lon="11.817521396044656"><ele>8.0</ele><time>2026-05-02T12:38:30.999Z</time></trkpt><trkpt lat="45.30379842235964" lon="11.817736315023488"><ele>8.0</ele><time>2026-05-02T12:38:31.999Z</time></trkpt><trkpt lat="45.304012474236906" lon="11.81794837353463"><ele>8.0</ele><time>2026-05-02T12:38:32.999Z</time></trkpt><trkpt lat="45.30423193754704" lon="11.818160771155364"><ele>8.0</ele><time>2026-05-02T12:38:33.999Z</time></trkpt><trkpt lat="45.30445055410211" lon="11.818375171380948"><ele>8.0</ele><time>2026-05-02T12:38:34.999Z</time></trkpt><trkpt lat="45.304668499861" lon="11.818580057077817"><ele>6.5</ele><time>2026-05-02T12:38:35.999Z</time></trkpt><trkpt lat="45.30488968419515" lon="11.81878065222853"><ele>5.0</ele><time>2026-05-02T12:38:36.999Z</time></trkpt><trkpt lat="45.30511271867413" lon="11.81897503036952"><ele>5.0</ele><time>2026-05-02T12:38:37.999Z</time></trkpt><trkpt lat="45.305334647302146" lon="11.819163561123803"><ele>5.0</ele><time>2026-05-02T12:38:38.999Z</time></trkpt><trkpt lat="45.30556007552423" lon="11.819349312671799"><ele>6.0</ele><time>2026-05-02T12:38:39.999Z</time></trkpt><trkpt lat="45.30578900973067" lon="11.81953047348977"><ele>7.0</ele><time>2026-05-02T12:38:40.999Z</time></trkpt><trkpt lat="45.30601655718958" lon="11.8197062454089"><ele>7.0</ele><time>2026-05-02T12:38:41.999Z</time></trkpt><trkpt lat="45.306243772820444" lon="11.819878499354637"><ele>7.0</ele><time>2026-05-02T12:38:42.999Z</time></trkpt><trkpt lat="45.30647136301974" lon="11.820045666705877"><ele>6.5</ele><time>2026-05-02T12:38:43.999Z</time></trkpt><trkpt lat="45.30670196066595" lon="11.820209963529424"><ele>6.0</ele><time>2026-05-02T12:38:44.999Z</time></trkpt><trkpt lat="45.306935915158185" lon="11.820371602441755"><ele>6.0</ele><time>2026-05-02T12:38:45.999Z</time></trkpt><trkpt lat="45.307169160830526" lon="11.82053187455671"><ele>6.0</ele><time>2026-05-02T12:38:46.999Z</time></trkpt><trkpt lat="45.307401890881515" lon="11.820689997757858"><ele>6.0</ele><time>2026-05-02T12:38:47.999Z</time></trkpt><trkpt lat="45.30763525698193" lon="11.820846592407344"><ele>6.0</ele><time>2026-05-02T12:38:48.999Z</time></trkpt><trkpt lat="45.307871592935726" lon="11.82100717277452"><ele>5.5</ele><time>2026-05-02T12:38:49.999Z</time></trkpt><trkpt lat="45.30810596462525" lon="11.8211670847698"><ele>5.0</ele><time>2026-05-02T12:38:50.999Z</time></trkpt><trkpt lat="45.30834173247573" lon="11.821327593470462"><ele>5.0</ele><time>2026-05-02T12:38:51.999Z</time></trkpt><trkpt lat="45.30857643830768" lon="11.821489576386092"><ele>5.0</ele><time>2026-05-02T12:38:52.999Z</time></trkpt><trkpt lat="45.30881385860264" lon="11.82165088965315"><ele>5.0</ele><time>2026-05-02T12:38:53.999Z</time></trkpt><trkpt lat="45.309049335731906" lon="11.821811587625925"><ele>5.0</ele><time>2026-05-02T12:38:54.999Z</time></trkpt><trkpt lat="45.309283488163146" lon="11.821971671895692"><ele>4.5</ele><time>2026-05-02T12:38:55.999Z</time></trkpt><trkpt lat="45.3095152004374" lon="11.822132137361159"><ele>4.0</ele><time>2026-05-02T12:38:56.999Z</time></trkpt><trkpt lat="45.309748609831445" lon="11.822291976961676"><ele>5.0</ele><time>2026-05-02T12:38:57.999Z</time></trkpt><trkpt lat="45.30998339517537" lon="11.822449576983544"><ele>6.0</ele><time>2026-05-02T12:38:58.999Z</time></trkpt><trkpt lat="45.310218131419276" lon="11.822606749906129"><ele>6.0</ele><time>2026-05-02T12:38:59.999Z</time></trkpt><trkpt lat="45.310450698820475" lon="11.822763594765176"><ele>6.0</ele><time>2026-05-02T12:39:00.999Z</time></trkpt><trkpt lat="45.310680506795435" lon="11.822918665642142"><ele>7.5</ele><time>2026-05-02T12:39:01.999Z</time></trkpt><trkpt lat="45.31091071126727" lon="11.823074644865798"><ele>9.0</ele><time>2026-05-02T12:39:02.999Z</time></trkpt><trkpt lat="45.31114216974466" lon="11.823230712665778"><ele>9.0</ele><time>2026-05-02T12:39:03.999Z</time></trkpt><trkpt lat="45.311378077449426" lon="11.823384634438415"><ele>9.0</ele><time>2026-05-02T12:39:04.999Z</time></trkpt><trkpt lat="45.31161056660477" lon="11.823539267940522"><ele>7.5</ele><time>2026-05-02T12:39:05.999Z</time></trkpt><trkpt lat="45.31184355124307" lon="11.823701761938498"><ele>6.0</ele><time>2026-05-02T12:39:06.999Z</time></trkpt><trkpt lat="45.31207439147978" lon="11.823861629031423"><ele>5.5</ele><time>2026-05-02T12:39:07.999Z</time></trkpt><trkpt lat="45.312304872415154" lon="11.82401817180244"><ele>5.0</ele><time>2026-05-02T12:39:08.999Z</time></trkpt><trkpt lat="45.31253940397464" lon="11.824175688751382"><ele>5.5</ele><time>2026-05-02T12:39:09.999Z</time></trkpt><trkpt lat="45.31277735921524" lon="11.824336091413235"><ele>6.0</ele><time>2026-05-02T12:39:10.999Z</time></trkpt><trkpt lat="45.31301610404972" lon="11.824495732306135"><ele>5.5</ele><time>2026-05-02T12:39:11.999Z</time></trkpt><trkpt lat="45.31325672402012" lon="11.824656763412055"><ele>5.0</ele><time>2026-05-02T12:39:12.999Z</time></trkpt><trkpt lat="45.31349773364093" lon="11.824820561024591"><ele>5.0</ele><time>2026-05-02T12:39:13.999Z</time></trkpt><trkpt lat="45.31373727829396" lon="11.8249851232206"><ele>5.0</ele><time>2026-05-02T12:39:14.999Z</time></trkpt><trkpt lat="45.31397567893483" lon="11.825152423845543"><ele>5.5</ele><time>2026-05-02T12:39:15.999Z</time></trkpt><trkpt lat="45.314216079588235" lon="11.825319853205372"><ele>6.0</ele><time>2026-05-02T12:39:16.999Z</time></trkpt><trkpt lat="45.31445706927363" lon="11.825485985296822"><ele>6.0</ele><time>2026-05-02T12:39:17.999Z</time></trkpt><trkpt lat="45.314696909913124" lon="11.825646635538826"><ele>6.0</ele><time>2026-05-02T12:39:18.999Z</time></trkpt><trkpt lat="45.31494159174778" lon="11.825811187164843"><ele>7.5</ele><time>2026-05-02T12:39:19.999Z</time></trkpt><trkpt lat="45.315187773166805" lon="11.82597971429807"><ele>9.0</ele><time>2026-05-02T12:39:20.999Z</time></trkpt><trkpt lat="45.31543100561423" lon="11.82614718820225"><ele>9.0</ele><time>2026-05-02T12:39:21.999Z</time></trkpt><trkpt lat="45.31567881000281" lon="11.82631392088324"><ele>9.0</ele><time>2026-05-02T12:39:22.999Z</time></trkpt><trkpt lat="45.31592928654184" lon="11.826483292787655"><ele>9.0</ele><time>2026-05-02T12:39:23.999Z</time></trkpt><trkpt lat="45.31618006198649" lon="11.826656489738632"><ele>9.0</ele><time>2026-05-02T12:39:24.999Z</time></trkpt><trkpt lat="45.316426801050284" lon="11.826824195864825"><ele>8.0</ele><time>2026-05-02T12:39:25.999Z</time></trkpt><trkpt lat="45.316670849628174" lon="11.826988634333489"><ele>7.0</ele><time>2026-05-02T12:39:26.999Z</time></trkpt><trkpt lat="45.316923609104386" lon="11.827156816968213"><ele>7.0</ele><time>2026-05-02T12:39:27.999Z</time></trkpt><trkpt lat="45.317171093980235" lon="11.82732473346124"><ele>7.0</ele><time>2026-05-02T12:39:28.999Z</time></trkpt><trkpt lat="45.31741712655398" lon="11.827491203556143"><ele>6.5</ele><time>2026-05-02T12:39:29.999Z</time></trkpt><trkpt lat="45.317665163574944" lon="11.8276587587519"><ele>6.0</ele><time>2026-05-02T12:39:30.999Z</time></trkpt><trkpt lat="45.31791206955033" lon="11.827828291017365"><ele>6.0</ele><time>2026-05-02T12:39:31.999Z</time></trkpt><trkpt lat="45.318160059896044" lon="11.827996653088807"><ele>6.0</ele><time>2026-05-02T12:39:33Z</time></trkpt><trkpt lat="45.318406732314266" lon="11.828161533497795"><ele>6.0</ele><time>2026-05-02T12:39:34Z</time></trkpt><trkpt lat="45.318652437902884" lon="11.828328976473909"><ele>6.0</ele><time>2026-05-02T12:39:35Z</time></trkpt><trkpt lat="45.31889897368333" lon="11.828495825689938"><ele>6.5</ele><time>2026-05-02T12:39:36Z</time></trkpt><trkpt lat="45.3191417810248" lon="11.828659920878648"><ele>7.0</ele><time>2026-05-02T12:39:37Z</time></trkpt><trkpt lat="45.319387373574905" lon="11.82882280943485"><ele>7.0</ele><time>2026-05-02T12:39:38Z</time></trkpt><trkpt lat="45.319633678686685" lon="11.828985900463909"><ele>7.0</ele><time>2026-05-02T12:39:39Z</time></trkpt><trkpt lat="45.319881681723444" lon="11.829148809447489"><ele>6.5</ele><time>2026-05-02T12:39:40Z</time></trkpt><trkpt lat="45.32012660140919" lon="11.829314984384027"><ele>6.0</ele><time>2026-05-02T12:39:41Z</time></trkpt><trkpt lat="45.32037003140976" lon="11.82948059348479"><ele>7.5</ele><time>2026-05-02T12:39:42Z</time></trkpt><trkpt lat="45.32061536398445" lon="11.829647083662724"><ele>9.0</ele><time>2026-05-02T12:39:43Z</time></trkpt><trkpt lat="45.320861866913674" lon="11.829815373178503"><ele>9.0</ele><time>2026-05-02T12:39:44Z</time></trkpt><trkpt lat="45.32110523287038" lon="11.82998023320719"><ele>9.0</ele><time>2026-05-02T12:39:45Z</time></trkpt><trkpt lat="45.32135009392895" lon="11.83014619704797"><ele>8.0</ele><time>2026-05-02T12:39:46Z</time></trkpt><trkpt lat="45.32159182985934" lon="11.83031359014139"><ele>7.0</ele><time>2026-05-02T12:39:47Z</time></trkpt><trkpt lat="45.32183259828068" lon="11.830475887511158"><ele>7.0</ele><time>2026-05-02T12:39:48Z</time></trkpt><trkpt lat="45.32207016185647" lon="11.830639682231723"><ele>7.0</ele><time>2026-05-02T12:39:49Z</time></trkpt><trkpt lat="45.32230609648497" lon="11.830805607586896"><ele>7.0</ele><time>2026-05-02T12:39:50Z</time></trkpt><trkpt lat="45.32254207781412" lon="11.830970538536903"><ele>7.0</ele><time>2026-05-02T12:39:51Z</time></trkpt><trkpt lat="45.32277821341194" lon="11.831137623458783"><ele>7.0</ele><time>2026-05-02T12:39:52Z</time></trkpt><trkpt lat="45.32301689025171" lon="11.83131024286958"><ele>7.0</ele><time>2026-05-02T12:39:53Z</time></trkpt><trkpt lat="45.323253187094174" lon="11.831484560649189"><ele>8.0</ele><time>2026-05-02T12:39:54Z</time></trkpt><trkpt lat="45.32349142202375" lon="11.831661990974908"><ele>9.0</ele><time>2026-05-02T12:39:55Z</time></trkpt><trkpt lat="45.32372493136361" lon="11.83183554305058"><ele>8.5</ele><time>2026-05-02T12:39:56Z</time></trkpt><trkpt lat="45.32395713425633" lon="11.832013189610606"><ele>8.0</ele><time>2026-05-02T12:39:57Z</time></trkpt><trkpt lat="45.324186008570116" lon="11.832190552202174"><ele>8.0</ele><time>2026-05-02T12:39:58Z</time></trkpt><trkpt lat="45.324417601654424" lon="11.832366132418793"><ele>8.0</ele><time>2026-05-02T12:39:59Z</time></trkpt><trkpt lat="45.32464241653475" lon="11.832538595440854"><ele>8.0</ele><time>2026-05-02T12:40:00Z</time></trkpt><trkpt lat="45.32486953051964" lon="11.832709124907531"><ele>8.0</ele><time>2026-05-02T12:40:01Z</time></trkpt><trkpt lat="45.325094312744255" lon="11.83288286261725"><ele>8.0</ele><time>2026-05-02T12:40:02Z</time></trkpt><trkpt lat="45.32531960888768" lon="11.833055393244422"><ele>8.0</ele><time>2026-05-02T12:40:03Z</time></trkpt><trkpt lat="45.32554524665201" lon="11.833224197513271"><ele>8.0</ele><time>2026-05-02T12:40:04Z</time></trkpt><trkpt lat="45.325771638205325" lon="11.833390666516047"><ele>8.0</ele><time>2026-05-02T12:40:05Z</time></trkpt><trkpt lat="45.32599709525664" lon="11.833566020910293"><ele>8.5</ele><time>2026-05-02T12:40:06Z</time></trkpt><trkpt lat="45.32622066292753" lon="11.8337507172727"><ele>9.0</ele><time>2026-05-02T12:40:07Z</time></trkpt><trkpt lat="45.32644424146956" lon="11.833939816900882"><ele>8.0</ele><time>2026-05-02T12:40:08Z</time></trkpt><trkpt lat="45.326662894069756" lon="11.834130578675763"><ele>7.0</ele><time>2026-05-02T12:40:09Z</time></trkpt><trkpt lat="45.3268828862665" lon="11.834314061654293"><ele>6.5</ele><time>2026-05-02T12:40:10Z</time></trkpt><trkpt lat="45.32710251681348" lon="11.834491007206607"><ele>6.0</ele><time>2026-05-02T12:40:11Z</time></trkpt><trkpt lat="45.32732502735929" lon="11.83466450796831"><ele>7.0</ele><time>2026-05-02T12:40:12Z</time></trkpt><trkpt lat="45.327548066946406" lon="11.834837372260317"><ele>8.0</ele><time>2026-05-02T12:40:13Z</time></trkpt><trkpt lat="45.32776541503891" lon="11.835011006029669"><ele>8.0</ele><time>2026-05-02T12:40:14Z</time></trkpt><trkpt lat="45.32798120336027" lon="11.835184027181874"><ele>8.0</ele><time>2026-05-02T12:40:15Z</time></trkpt><trkpt lat="45.328197273120054" lon="11.835355839658677"><ele>8.0</ele><time>2026-05-02T12:40:16Z</time></trkpt><trkpt lat="45.32841068662897" lon="11.835527248168793"><ele>8.0</ele><time>2026-05-02T12:40:17Z</time></trkpt><trkpt lat="45.32862689043003" lon="11.835696969413235"><ele>8.0</ele><time>2026-05-02T12:40:18Z</time></trkpt><trkpt lat="45.328840424049" lon="11.835864817277615"><ele>8.0</ele><time>2026-05-02T12:40:19Z</time></trkpt><trkpt lat="45.329053464657115" lon="11.836035946166303"><ele>8.5</ele><time>2026-05-02T12:40:19.999Z</time></trkpt><trkpt lat="45.32926871416146" lon="11.836206470536322"><ele>9.0</ele><time>2026-05-02T12:40:20.999Z</time></trkpt><trkpt lat="45.329486446382894" lon="11.836376284064873"><ele>9.0</ele><time>2026-05-02T12:40:21.999Z</time></trkpt><trkpt lat="45.32970376651349" lon="11.836548525513189"><ele>9.0</ele><time>2026-05-02T12:40:22.999Z</time></trkpt><trkpt lat="45.32991867922456" lon="11.83671979615047"><ele>8.0</ele><time>2026-05-02T12:40:23.999Z</time></trkpt><trkpt lat="45.33013595282152" lon="11.836890707503258"><ele>7.0</ele><time>2026-05-02T12:40:24.999Z</time></trkpt><trkpt lat="45.33035259833854" lon="11.837061696357626"><ele>7.5</ele><time>2026-05-02T12:40:25.999Z</time></trkpt><trkpt lat="45.33056981317667" lon="11.837236345147126"><ele>8.0</ele><time>2026-05-02T12:40:26.999Z</time></trkpt><trkpt lat="45.33078411351194" lon="11.837409124451437"><ele>8.0</ele><time>2026-05-02T12:40:27.999Z</time></trkpt><trkpt lat="45.33099552642619" lon="11.83758124503055"><ele>8.0</ele><time>2026-05-02T12:40:28.999Z</time></trkpt><trkpt lat="45.33120885839603" lon="11.83775239195155"><ele>6.5</ele><time>2026-05-02T12:40:29.999Z</time></trkpt><trkpt lat="45.33142701659541" lon="11.837926148878223"><ele>5.0</ele><time>2026-05-02T12:40:30.999Z</time></trkpt><trkpt lat="45.331647464487794" lon="11.83809791830753"><ele>5.0</ele><time>2026-05-02T12:40:31.999Z</time></trkpt><trkpt lat="45.33187205988759" lon="11.838273315153087"><ele>5.0</ele><time>2026-05-02T12:40:32.999Z</time></trkpt><trkpt lat="45.33209837754947" lon="11.838450913996914"><ele>5.5</ele><time>2026-05-02T12:40:33.999Z</time></trkpt><trkpt lat="45.33231921682362" lon="11.83862567494474"><ele>6.0</ele><time>2026-05-02T12:40:34.999Z</time></trkpt><trkpt lat="45.33254021891213" lon="11.838803585797649"><ele>6.0</ele><time>2026-05-02T12:40:35.999Z</time></trkpt><trkpt lat="45.332764029725354" lon="11.838984658413164"><ele>6.0</ele><time>2026-05-02T12:40:36.999Z</time></trkpt><trkpt lat="45.33298720849172" lon="11.839163277008616"><ele>7.0</ele><time>2026-05-02T12:40:37.999Z</time></trkpt><trkpt lat="45.33320897223079" lon="11.839342314702387"><ele>8.0</ele><time>2026-05-02T12:40:38.999Z</time></trkpt><trkpt lat="45.33343099099158" lon="11.839520037204556"><ele>8.0</ele><time>2026-05-02T12:40:39.999Z</time></trkpt><trkpt lat="45.333654165387664" lon="11.839700938197291"><ele>8.0</ele><time>2026-05-02T12:40:40.999Z</time></trkpt><trkpt lat="45.33387978845899" lon="11.839881835101938"><ele>7.5</ele><time>2026-05-02T12:40:41.999Z</time></trkpt><trkpt lat="45.33410803080471" lon="11.840064406406722"><ele>7.0</ele><time>2026-05-02T12:40:42.999Z</time></trkpt><trkpt lat="45.33433546590478" lon="11.840251997190194"><ele>7.0</ele><time>2026-05-02T12:40:43.999Z</time></trkpt><trkpt lat="45.33456342856237" lon="11.840446814152449"><ele>7.0</ele><time>2026-05-02T12:40:44.999Z</time></trkpt><trkpt lat="45.334790392910975" lon="11.840645639622542"><ele>8.0</ele><time>2026-05-02T12:40:45.999Z</time></trkpt><trkpt lat="45.33501967700262" lon="11.840841680112836"><ele>9.0</ele><time>2026-05-02T12:40:46.999Z</time></trkpt><trkpt lat="45.3352449584939" lon="11.841034716142872"><ele>9.0</ele><time>2026-05-02T12:40:47.999Z</time></trkpt><trkpt lat="45.33546708363936" lon="11.841230086762979"><ele>9.0</ele><time>2026-05-02T12:40:48.999Z</time></trkpt><trkpt lat="45.33568398426531" lon="11.841434107917157"><ele>8.0</ele><time>2026-05-02T12:40:49.999Z</time></trkpt><trkpt lat="45.33589652267936" lon="11.841641839617447"><ele>7.0</ele><time>2026-05-02T12:40:50.999Z</time></trkpt><trkpt lat="45.336099437689484" lon="11.841855959566663"><ele>7.0</ele><time>2026-05-02T12:40:51.999Z</time></trkpt><trkpt lat="45.33628739984609" lon="11.842085323848673"><ele>7.0</ele><time>2026-05-02T12:40:52.999Z</time></trkpt><trkpt lat="45.33645749308776" lon="11.842332042535459"><ele>7.0</ele><time>2026-05-02T12:40:53.999Z</time></trkpt><trkpt lat="45.33660941078997" lon="11.842597737135694"><ele>7.0</ele><time>2026-05-02T12:40:54.999Z</time></trkpt><trkpt lat="45.33674685234803" lon="11.842889832079464"><ele>5.5</ele><time>2026-05-02T12:40:55.999Z</time></trkpt><trkpt lat="45.33686493369251" lon="11.843201220758901"><ele>4.0</ele><time>2026-05-02T12:40:56.999Z</time></trkpt><trkpt lat="45.336954122677604" lon="11.843534657707577"><ele>3.5</ele><time>2026-05-02T12:40:57.999Z</time></trkpt><trkpt lat="45.33702147747088" lon="11.843877699571367"><ele>3.0</ele><time>2026-05-02T12:40:58.999Z</time></trkpt><trkpt lat="45.33708259997026" lon="11.84421802193492"><ele>3.0</ele><time>2026-05-02T12:40:59.999Z</time></trkpt><trkpt lat="45.337150475159895" lon="11.844542451919278"><ele>3.0</ele><time>2026-05-02T12:41:00.999Z</time></trkpt><trkpt lat="45.337237007166806" lon="11.844849067295966"><ele>3.333333333333333</ele><time>2026-05-02T12:41:01.999Z</time></trkpt><trkpt lat="45.33735514048214" lon="11.845114634263627"><ele>3.6666666666666665</ele><time>2026-05-02T12:41:02.999Z</time></trkpt><trkpt lat="45.33750635329492" lon="11.845313197349983"><ele>4.0</ele><time>2026-05-02T12:41:03.999Z</time></trkpt><trkpt lat="45.33769416992335" lon="11.845475753438878"><ele>4.0</ele><time>2026-05-02T12:41:04.999Z</time></trkpt><trkpt lat="45.337902372128426" lon="11.845562634535803"><ele>4.0</ele><time>2026-05-02T12:41:05.999Z</time></trkpt><trkpt lat="45.33812428032316" lon="11.845574514652242"><ele>4.0</ele><time>2026-05-02T12:41:06.999Z</time></trkpt><trkpt lat="45.33834452694182" lon="11.845509108360725"><ele>4.5</ele><time>2026-05-02T12:41:07.999Z</time></trkpt><trkpt lat="45.33856111440292" lon="11.845368393004948"><ele>5.0</ele><time>2026-05-02T12:41:08.999Z</time></trkpt><trkpt lat="45.33877369096526" lon="11.845195767249793"><ele>6.5</ele><time>2026-05-02T12:41:09.999Z</time></trkpt><trkpt lat="45.338973164890575" lon="11.845025410462451"><ele>8.0</ele><time>2026-05-02T12:41:10.999Z</time></trkpt><trkpt lat="45.33916616971883" lon="11.844860628396724"><ele>8.0</ele><time>2026-05-02T12:41:11.999Z</time></trkpt><trkpt lat="45.33936993047551" lon="11.84474476151587"><ele>8.0</ele><time>2026-05-02T12:41:12.999Z</time></trkpt><trkpt lat="45.33957213948725" lon="11.844672523505364"><ele>8.0</ele><time>2026-05-02T12:41:13.999Z</time></trkpt><trkpt lat="45.339778254456334" lon="11.844656684921125"><ele>7.666666666666666</ele><time>2026-05-02T12:41:14.999Z</time></trkpt><trkpt lat="45.339982130968444" lon="11.844706627272696"><ele>7.333333333333334</ele><time>2026-05-02T12:41:15.999Z</time></trkpt><trkpt lat="45.34018131248572" lon="11.844809707228555"><ele>7.0</ele><time>2026-05-02T12:41:16.999Z</time></trkpt><trkpt lat="45.340371862348704" lon="11.844960648999693"><ele>7.0</ele><time>2026-05-02T12:41:17.999Z</time></trkpt><trkpt lat="45.340565100934434" lon="11.845127142378818"><ele>7.0</ele><time>2026-05-02T12:41:18.999Z</time></trkpt><trkpt lat="45.34076742402766" lon="11.845276280673236"><ele>8.0</ele><time>2026-05-02T12:41:19.999Z</time></trkpt><trkpt lat="45.340975240339326" lon="11.845420632121431"><ele>9.0</ele><time>2026-05-02T12:41:20.999Z</time></trkpt><trkpt lat="45.34117738868638" lon="11.845573923844407"><ele>9.0</ele><time>2026-05-02T12:41:21.999Z</time></trkpt><trkpt lat="45.341372545375926" lon="11.845724731306777"><ele>9.0</ele><time>2026-05-02T12:41:22.999Z</time></trkpt><trkpt lat="45.341573603734695" lon="11.845878721598972"><ele>8.0</ele><time>2026-05-02T12:41:23.999Z</time></trkpt><trkpt lat="45.341776500381286" lon="11.84603475329848"><ele>7.0</ele><time>2026-05-02T12:41:24.999Z</time></trkpt><trkpt lat="45.34197823071808" lon="11.846195664046771"><ele>7.0</ele><time>2026-05-02T12:41:25.999Z</time></trkpt><trkpt lat="45.342186339575356" lon="11.846359186494597"><ele>7.0</ele><time>2026-05-02T12:41:26.999Z</time></trkpt><trkpt lat="45.34239117054743" lon="11.846524525098868"><ele>6.5</ele><time>2026-05-02T12:41:27.999Z</time></trkpt><trkpt lat="45.34259844305873" lon="11.846692938912346"><ele>6.0</ele><time>2026-05-02T12:41:28.999Z</time></trkpt><trkpt lat="45.34280106000925" lon="11.846852013456413"><ele>6.0</ele><time>2026-05-02T12:41:29.999Z</time></trkpt><trkpt lat="45.343003298136395" lon="11.847015538603328"><ele>6.0</ele><time>2026-05-02T12:41:30.999Z</time></trkpt><trkpt lat="45.343202256203135" lon="11.847178867537844"><ele>6.333333333333334</ele><time>2026-05-02T12:41:31.999Z</time></trkpt><trkpt lat="45.3433928132179" lon="11.84734337199727"><ele>6.666666666666667</ele><time>2026-05-02T12:41:32.999Z</time></trkpt><trkpt lat="45.343566779023114" lon="11.847500160889854"><ele>7.0</ele><time>2026-05-02T12:41:33.999Z</time></trkpt><trkpt lat="45.34373532943323" lon="11.847643776434245"><ele>7.666666666666667</ele><time>2026-05-02T12:41:34.999Z</time></trkpt><trkpt lat="45.34388941956673" lon="11.847771400046234"><ele>8.333333333333334</ele><time>2026-05-02T12:41:35.999Z</time></trkpt><trkpt lat="45.344025774346335" lon="11.847882681627834"><ele>9.0</ele><time>2026-05-02T12:41:36.999Z</time></trkpt><trkpt lat="45.344146134792204" lon="11.847986904043914"><ele>9.0</ele><time>2026-05-02T12:41:37.999Z</time></trkpt><trkpt lat="45.344250636914715" lon="11.84808052274274"><ele>9.0</ele><time>2026-05-02T12:41:39Z</time></trkpt><trkpt lat="45.344339231056225" lon="11.848161178333504"><ele>9.0</ele><time>2026-05-02T12:41:40Z</time></trkpt><trkpt lat="45.3444174173004" lon="11.848224948678647"><ele>9.0</ele><time>2026-05-02T12:41:41Z</time></trkpt><trkpt lat="45.34448429913338" lon="11.848277556887197"><ele>9.0</ele><time>2026-05-02T12:41:42Z</time></trkpt><trkpt lat="45.34454160737837" lon="11.848322329944443"><ele>9.0</ele><time>2026-05-02T12:41:43Z</time></trkpt><trkpt lat="45.344630080556556" lon="11.848392681456035"><ele>9.0</ele><time>2026-05-02T12:41:45Z</time></trkpt><trkpt lat="45.34471358383907" lon="11.848478859215682"><ele>9.0</ele><time>2026-05-02T12:42:21Z</time></trkpt><trkpt lat="45.344844900516485" lon="11.848586806844006"><ele>9.0</ele><time>2026-05-02T12:42:23Z</time></trkpt><trkpt lat="45.3449502285799" lon="11.848658906920827"><ele>8.75</ele><time>2026-05-02T12:42:24Z</time></trkpt><trkpt lat="45.34506052065977" lon="11.848729478440392"><ele>8.5</ele><time>2026-05-02T12:42:25Z</time></trkpt><trkpt lat="45.345188392926126" lon="11.84881246292188"><ele>8.25</ele><time>2026-05-02T12:42:26Z</time></trkpt><trkpt lat="45.34532866276829" lon="11.848908394254632"><ele>8.0</ele><time>2026-05-02T12:42:26.999Z</time></trkpt><trkpt lat="45.34547513943634" lon="11.849020141861608"><ele>8.0</ele><time>2026-05-02T12:42:27.999Z</time></trkpt><trkpt lat="45.345629106173455" lon="11.849144308695044"><ele>8.0</ele><time>2026-05-02T12:42:28.999Z</time></trkpt><trkpt lat="45.34579032480329" lon="11.849279466187676"><ele>8.0</ele><time>2026-05-02T12:42:29.999Z</time></trkpt><trkpt lat="45.34596356017833" lon="11.849418304664216"><ele>8.0</ele><time>2026-05-02T12:42:30.999Z</time></trkpt><trkpt lat="45.34614310972238" lon="11.849559597595178"><ele>8.0</ele><time>2026-05-02T12:42:31.999Z</time></trkpt><trkpt lat="45.34633059337533" lon="11.849707023152622"><ele>8.0</ele><time>2026-05-02T12:42:32.999Z</time></trkpt><trkpt lat="45.34653100283963" lon="11.849862237893436"><ele>8.0</ele><time>2026-05-02T12:42:33.999Z</time></trkpt><trkpt lat="45.34673651539639" lon="11.850022544499335"><ele>8.0</ele><time>2026-05-02T12:42:34.999Z</time></trkpt><trkpt lat="45.34695401919173" lon="11.850182044150499"><ele>8.5</ele><time>2026-05-02T12:42:35.999Z</time></trkpt><trkpt lat="45.34718269617563" lon="11.85033966600069"><ele>9.0</ele><time>2026-05-02T12:42:36.999Z</time></trkpt><trkpt lat="45.347415959029554" lon="11.850502321269877"><ele>10.5</ele><time>2026-05-02T12:42:37.999Z</time></trkpt><trkpt lat="45.347652074022015" lon="11.850664723502964"><ele>12.0</ele><time>2026-05-02T12:42:38.999Z</time></trkpt><trkpt lat="45.347893096926626" lon="11.850831626236133"><ele>11.5</ele><time>2026-05-02T12:42:39.999Z</time></trkpt><trkpt lat="45.3481302616307" lon="11.850995331206326"><ele>11.0</ele><time>2026-05-02T12:42:40.999Z</time></trkpt><trkpt lat="45.34836904821066" lon="11.85115557675606"><ele>11.0</ele><time>2026-05-02T12:42:41.999Z</time></trkpt><trkpt lat="45.34860891381731" lon="11.85131797066646"><ele>11.0</ele><time>2026-05-02T12:42:42.999Z</time></trkpt><trkpt lat="45.34884616106401" lon="11.851471135309898"><ele>10.5</ele><time>2026-05-02T12:42:43.999Z</time></trkpt><trkpt lat="45.349086428872106" lon="11.851628203676235"><ele>10.0</ele><time>2026-05-02T12:42:44.999Z</time></trkpt><trkpt lat="45.349328631120585" lon="11.851781813638954"><ele>9.5</ele><time>2026-05-02T12:42:45.999Z</time></trkpt><trkpt lat="45.34957180980934" lon="11.851927595960513"><ele>9.0</ele><time>2026-05-02T12:42:46.999Z</time></trkpt><trkpt lat="45.349819130260144" lon="11.852067165483861"><ele>8.5</ele><time>2026-05-02T12:42:47.999Z</time></trkpt><trkpt lat="45.35006971851955" lon="11.852205161490485"><ele>8.0</ele><time>2026-05-02T12:42:48.999Z</time></trkpt><trkpt lat="45.35032204409658" lon="11.852341463952035"><ele>8.5</ele><time>2026-05-02T12:42:49.999Z</time></trkpt><trkpt lat="45.35057449251491" lon="11.852474679013115"><ele>9.0</ele><time>2026-05-02T12:42:50.999Z</time></trkpt><trkpt lat="45.350825754255325" lon="11.852610883536837"><ele>8.5</ele><time>2026-05-02T12:42:51.999Z</time></trkpt><trkpt lat="45.35107684823599" lon="11.852741585662406"><ele>8.0</ele><time>2026-05-02T12:42:52.999Z</time></trkpt><trkpt lat="45.351336599182254" lon="11.852877618777674"><ele>8.5</ele><time>2026-05-02T12:42:53.999Z</time></trkpt><trkpt lat="45.35159788673288" lon="11.853010691494045"><ele>9.0</ele><time>2026-05-02T12:42:54.999Z</time></trkpt><trkpt lat="45.35185554344855" lon="11.853142639889397"><ele>9.0</ele><time>2026-05-02T12:42:55.999Z</time></trkpt><trkpt lat="45.35211240723815" lon="11.85327430637859"><ele>9.0</ele><time>2026-05-02T12:42:56.999Z</time></trkpt><trkpt lat="45.35237047349906" lon="11.853406364565942"><ele>9.0</ele><time>2026-05-02T12:42:57.999Z</time></trkpt><trkpt lat="45.35262564126592" lon="11.853538214117757"><ele>9.0</ele><time>2026-05-02T12:42:58.999Z</time></trkpt><trkpt lat="45.35288123136968" lon="11.853670478575767"><ele>8.5</ele><time>2026-05-02T12:42:59.999Z</time></trkpt><trkpt lat="45.353138461341565" lon="11.853799378367913"><ele>8.0</ele><time>2026-05-02T12:43:00.999Z</time></trkpt><trkpt lat="45.35339620649339" lon="11.853925688723455"><ele>8.0</ele><time>2026-05-02T12:43:01.999Z</time></trkpt><trkpt lat="45.353649518050084" lon="11.854053580692256"><ele>8.0</ele><time>2026-05-02T12:43:02.999Z</time></trkpt><trkpt lat="45.35390144252361" lon="11.854182508818578"><ele>8.0</ele><time>2026-05-02T12:43:03.999Z</time></trkpt><trkpt lat="45.35414781977017" lon="11.854305415907843"><ele>8.0</ele><time>2026-05-02T12:43:04.999Z</time></trkpt><trkpt lat="45.35439543466509" lon="11.854425898669863"><ele>8.0</ele><time>2026-05-02T12:43:05.999Z</time></trkpt><trkpt lat="45.35463996463005" lon="11.854537145858432"><ele>8.0</ele><time>2026-05-02T12:43:06.999Z</time></trkpt><trkpt lat="45.35488472901628" lon="11.854638343853427"><ele>7.5</ele><time>2026-05-02T12:43:07.999Z</time></trkpt><trkpt lat="45.355131826196185" lon="11.854732701837694"><ele>7.0</ele><time>2026-05-02T12:43:08.999Z</time></trkpt><trkpt lat="45.3553764105057" lon="11.85481964568153"><ele>7.5</ele><time>2026-05-02T12:43:09.999Z</time></trkpt><trkpt lat="45.355625115814775" lon="11.854901682193788"><ele>8.0</ele><time>2026-05-02T12:43:10.999Z</time></trkpt><trkpt lat="45.35587678386831" lon="11.85498014382142"><ele>8.0</ele><time>2026-05-02T12:43:11.999Z</time></trkpt><trkpt lat="45.356132054058065" lon="11.855053154155565"><ele>8.0</ele><time>2026-05-02T12:43:12.999Z</time></trkpt><trkpt lat="45.3563900781021" lon="11.85511686748221"><ele>8.5</ele><time>2026-05-02T12:43:13.999Z</time></trkpt><trkpt lat="45.35664853538555" lon="11.855172448990128"><ele>9.0</ele><time>2026-05-02T12:43:14.999Z</time></trkpt><trkpt lat="45.35690621328854" lon="11.855223789179272"><ele>9.0</ele><time>2026-05-02T12:43:15.999Z</time></trkpt><trkpt lat="45.357168322032024" lon="11.855274401144637"><ele>9.0</ele><time>2026-05-02T12:43:16.999Z</time></trkpt><trkpt lat="45.35742045936683" lon="11.855314046257236"><ele>8.5</ele><time>2026-05-02T12:43:17.999Z</time></trkpt><trkpt lat="45.35767794809648" lon="11.85533885755464"><ele>8.0</ele><time>2026-05-02T12:43:18.999Z</time></trkpt><trkpt lat="45.35793725845465" lon="11.855360314607086"><ele>8.5</ele><time>2026-05-02T12:43:19.999Z</time></trkpt><trkpt lat="45.35819637467818" lon="11.855378915916312"><ele>9.0</ele><time>2026-05-02T12:43:20.999Z</time></trkpt><trkpt lat="45.358457492474564" lon="11.855388796502293"><ele>9.0</ele><time>2026-05-02T12:43:21.999Z</time></trkpt><trkpt lat="45.35872185622824" lon="11.855389523164947"><ele>9.0</ele><time>2026-05-02T12:43:22.999Z</time></trkpt><trkpt lat="45.35898339786692" lon="11.855378518740936"><ele>9.0</ele><time>2026-05-02T12:43:23.999Z</time></trkpt><trkpt lat="45.359240646252836" lon="11.855362808762116"><ele>9.0</ele><time>2026-05-02T12:43:24.999Z</time></trkpt><trkpt lat="45.35950236004743" lon="11.855351223338115"><ele>10.0</ele><time>2026-05-02T12:43:25.999Z</time></trkpt><trkpt lat="45.35976354372549" lon="11.855340143121115"><ele>11.0</ele><time>2026-05-02T12:43:26.999Z</time></trkpt><trkpt lat="45.36002066865568" lon="11.855330776460146"><ele>11.0</ele><time>2026-05-02T12:43:27.999Z</time></trkpt><trkpt lat="45.360279702712035" lon="11.855323287741143"><ele>11.0</ele><time>2026-05-02T12:43:28.999Z</time></trkpt><trkpt lat="45.36054221971949" lon="11.855329361681687"><ele>10.0</ele><time>2026-05-02T12:43:29.999Z</time></trkpt><trkpt lat="45.360792488307084" lon="11.85532114261664"><ele>9.0</ele><time>2026-05-02T12:43:30.999Z</time></trkpt><trkpt lat="45.36104257744816" lon="11.855312030388554"><ele>9.0</ele><time>2026-05-02T12:43:31.999Z</time></trkpt><trkpt lat="45.361296837500895" lon="11.855308761034754"><ele>9.0</ele><time>2026-05-02T12:43:32.999Z</time></trkpt><trkpt lat="45.36154075001112" lon="11.855307140862788"><ele>8.5</ele><time>2026-05-02T12:43:33.999Z</time></trkpt><trkpt lat="45.36178994347418" lon="11.855313320090916"><ele>8.0</ele><time>2026-05-02T12:43:34.999Z</time></trkpt><trkpt lat="45.36202027930531" lon="11.855323508026622"><ele>8.0</ele><time>2026-05-02T12:43:35.999Z</time></trkpt><trkpt lat="45.36223753485927" lon="11.855344258051002"><ele>8.0</ele><time>2026-05-02T12:43:36.999Z</time></trkpt><trkpt lat="45.36245287666735" lon="11.855419789975477"><ele>8.0</ele><time>2026-05-02T12:43:37.999Z</time></trkpt><trkpt lat="45.362648875158285" lon="11.855554416684367"><ele>8.0</ele><time>2026-05-02T12:43:38.999Z</time></trkpt><trkpt lat="45.362823773443296" lon="11.855748972606953"><ele>8.0</ele><time>2026-05-02T12:43:39.999Z</time></trkpt><trkpt lat="45.36296597116799" lon="11.855993291177178"><ele>8.0</ele><time>2026-05-02T12:43:40.999Z</time></trkpt><trkpt lat="45.36307385170781" lon="11.856272753140157"><ele>8.5</ele><time>2026-05-02T12:43:41.999Z</time></trkpt><trkpt lat="45.363137606575506" lon="11.856585864876958"><ele>9.0</ele><time>2026-05-02T12:43:42.999Z</time></trkpt><trkpt lat="45.36317563870249" lon="11.856903773551663"><ele>9.0</ele><time>2026-05-02T12:43:43.999Z</time></trkpt><trkpt lat="45.363187189027656" lon="11.857234546479697"><ele>9.0</ele><time>2026-05-02T12:43:45Z</time></trkpt><trkpt lat="45.36320724581104" lon="11.857554103122784"><ele>8.5</ele><time>2026-05-02T12:43:46Z</time></trkpt><trkpt lat="45.3632289608283" lon="11.85787660276092"><ele>8.0</ele><time>2026-05-02T12:43:47Z</time></trkpt><trkpt lat="45.363251789108105" lon="11.858196344496918"><ele>8.0</ele><time>2026-05-02T12:43:48Z</time></trkpt><trkpt lat="45.36327920591271" lon="11.858515180297674"><ele>8.0</ele><time>2026-05-02T12:43:49Z</time></trkpt><trkpt lat="45.36330090975025" lon="11.858830654239341"><ele>8.0</ele><time>2026-05-02T12:43:50Z</time></trkpt><trkpt lat="45.36331960956931" lon="11.859145957614347"><ele>7.666666666666666</ele><time>2026-05-02T12:43:51Z</time></trkpt><trkpt lat="45.363337546966605" lon="11.859462189836783"><ele>7.333333333333334</ele><time>2026-05-02T12:43:52Z</time></trkpt><trkpt lat="45.36335493387311" lon="11.85977491143054"><ele>7.0</ele><time>2026-05-02T12:43:53Z</time></trkpt><trkpt lat="45.363366538946416" lon="11.860093426479446"><ele>7.0</ele><time>2026-05-02T12:43:54Z</time></trkpt><trkpt lat="45.36337877158853" lon="11.8604041519777"><ele>7.0</ele><time>2026-05-02T12:43:55Z</time></trkpt><trkpt lat="45.36339632986249" lon="11.860715146852652"><ele>7.0</ele><time>2026-05-02T12:43:56Z</time></trkpt><trkpt lat="45.36341295345025" lon="11.861028095545523"><ele>7.333333333333334</ele><time>2026-05-02T12:43:57Z</time></trkpt><trkpt lat="45.36343005771077" lon="11.86134150935259"><ele>7.666666666666666</ele><time>2026-05-02T12:43:58Z</time></trkpt><trkpt lat="45.36345248323944" lon="11.861656296919762"><ele>8.0</ele><time>2026-05-02T12:43:59Z</time></trkpt><trkpt lat="45.36347999527437" lon="11.861977348712411"><ele>8.0</ele><time>2026-05-02T12:44:00Z</time></trkpt><trkpt lat="45.36350884804134" lon="11.86230146469595"><ele>8.0</ele><time>2026-05-02T12:44:01Z</time></trkpt><trkpt lat="45.363537886529336" lon="11.862611516918303"><ele>8.0</ele><time>2026-05-02T12:44:02Z</time></trkpt><trkpt lat="45.36355943134572" lon="11.862923586699104"><ele>7.5</ele><time>2026-05-02T12:44:03Z</time></trkpt><trkpt lat="45.363571453850355" lon="11.863249289306792"><ele>7.0</ele><time>2026-05-02T12:44:04Z</time></trkpt><trkpt lat="45.36359658994272" lon="11.863605550627328"><ele>7.0</ele><time>2026-05-02T12:44:05Z</time></trkpt><trkpt lat="45.36363827444847" lon="11.863950755767092"><ele>7.0</ele><time>2026-05-02T12:44:06Z</time></trkpt><trkpt lat="45.363673510081206" lon="11.864280760943867"><ele>7.5</ele><time>2026-05-02T12:44:07Z</time></trkpt><trkpt lat="45.36370053190872" lon="11.864611315191397"><ele>8.0</ele><time>2026-05-02T12:44:08Z</time></trkpt><trkpt lat="45.36371899687193" lon="11.864951413347454"><ele>8.5</ele><time>2026-05-02T12:44:09Z</time></trkpt><trkpt lat="45.36373752316327" lon="11.865298171523621"><ele>9.0</ele><time>2026-05-02T12:44:10Z</time></trkpt><trkpt lat="45.36375767574162" lon="11.865642877464587"><ele>8.5</ele><time>2026-05-02T12:44:11Z</time></trkpt><trkpt lat="45.363779357621496" lon="11.865987890936447"><ele>8.0</ele><time>2026-05-02T12:44:12Z</time></trkpt><trkpt lat="45.363797964959325" lon="11.866338358060197"><ele>8.0</ele><time>2026-05-02T12:44:13Z</time></trkpt><trkpt lat="45.3638246319138" lon="11.86669228863924"><ele>8.0</ele><time>2026-05-02T12:44:14Z</time></trkpt><trkpt lat="45.36385337975519" lon="11.867041931488002"><ele>8.0</ele><time>2026-05-02T12:44:15Z</time></trkpt><trkpt lat="45.363886421906734" lon="11.867388699029556"><ele>8.0</ele><time>2026-05-02T12:44:16Z</time></trkpt><trkpt lat="45.36391494203245" lon="11.867727406131749"><ele>8.0</ele><time>2026-05-02T12:44:17Z</time></trkpt><trkpt lat="45.36394988296953" lon="11.868075208916684"><ele>8.0</ele><time>2026-05-02T12:44:18Z</time></trkpt><trkpt lat="45.36398966067623" lon="11.86841987319044"><ele>8.0</ele><time>2026-05-02T12:44:19Z</time></trkpt><trkpt lat="45.36403439104413" lon="11.868764027127279"><ele>8.0</ele><time>2026-05-02T12:44:20Z</time></trkpt><trkpt lat="45.36408134940215" lon="11.869103267827015"><ele>8.0</ele><time>2026-05-02T12:44:21Z</time></trkpt><trkpt lat="45.36413028014751" lon="11.869444645679865"><ele>8.0</ele><time>2026-05-02T12:44:22Z</time></trkpt><trkpt lat="45.364179186061826" lon="11.86978625902279"><ele>9.5</ele><time>2026-05-02T12:44:23Z</time></trkpt><trkpt lat="45.36423266981182" lon="11.870128946917331"><ele>11.0</ele><time>2026-05-02T12:44:24Z</time></trkpt><trkpt lat="45.36428182341711" lon="11.870468710147081"><ele>11.0</ele><time>2026-05-02T12:44:25Z</time></trkpt><trkpt lat="45.364337085823706" lon="11.870804283476497"><ele>11.0</ele><time>2026-05-02T12:44:26Z</time></trkpt><trkpt lat="45.36439433893278" lon="11.8711398402545"><ele>11.5</ele><time>2026-05-02T12:44:27Z</time></trkpt><trkpt lat="45.364451820248036" lon="11.87146960529242"><ele>12.0</ele><time>2026-05-02T12:44:28Z</time></trkpt><trkpt lat="45.364509615423295" lon="11.871795010001476"><ele>10.5</ele><time>2026-05-02T12:44:29Z</time></trkpt><trkpt lat="45.364572240170425" lon="11.872122330717321"><ele>9.0</ele><time>2026-05-02T12:44:30Z</time></trkpt><trkpt lat="45.364624838384415" lon="11.872456634977288"><ele>9.0</ele><time>2026-05-02T12:44:31Z</time></trkpt><trkpt lat="45.36468999479704" lon="11.872790326922155"><ele>9.0</ele><time>2026-05-02T12:44:32Z</time></trkpt><trkpt lat="45.36475154366652" lon="11.873125717168774"><ele>9.0</ele><time>2026-05-02T12:44:33Z</time></trkpt><trkpt lat="45.364812818974016" lon="11.87346283222507"><ele>9.0</ele><time>2026-05-02T12:44:34Z</time></trkpt><trkpt lat="45.364877332471146" lon="11.873805509754849"><ele>9.0</ele><time>2026-05-02T12:44:34.999Z</time></trkpt><trkpt lat="45.364941373990966" lon="11.8741461328096"><ele>9.0</ele><time>2026-05-02T12:44:35.999Z</time></trkpt><trkpt lat="45.36500571499782" lon="11.87448680543944"><ele>9.0</ele><time>2026-05-02T12:44:36.999Z</time></trkpt><trkpt lat="45.365070580047615" lon="11.874826868526613"><ele>9.0</ele><time>2026-05-02T12:44:37.999Z</time></trkpt><trkpt lat="45.36513398246492" lon="11.8751619139288"><ele>8.5</ele><time>2026-05-02T12:44:38.999Z</time></trkpt><trkpt lat="45.36519138013603" lon="11.875503282660489"><ele>8.0</ele><time>2026-05-02T12:44:39.999Z</time></trkpt><trkpt lat="45.36524931933812" lon="11.875843192995646"><ele>7.5</ele><time>2026-05-02T12:44:40.999Z</time></trkpt><trkpt lat="45.36531186517368" lon="11.876186465634186"><ele>7.0</ele><time>2026-05-02T12:44:41.999Z</time></trkpt><trkpt lat="45.36537824388991" lon="11.87652965597756"><ele>7.0</ele><time>2026-05-02T12:44:42.999Z</time></trkpt><trkpt lat="45.36544235798035" lon="11.876871100843701"><ele>7.0</ele><time>2026-05-02T12:44:43.999Z</time></trkpt><trkpt lat="45.365504151399804" lon="11.877216787487814"><ele>7.0</ele><time>2026-05-02T12:44:44.999Z</time></trkpt><trkpt lat="45.36556268687284" lon="11.877563396928883"><ele>7.0</ele><time>2026-05-02T12:44:45.999Z</time></trkpt><trkpt lat="45.36562082223698" lon="11.87790790786759"><ele>7.0</ele><time>2026-05-02T12:44:46.999Z</time></trkpt><trkpt lat="45.36568103493883" lon="11.878252525644063"><ele>7.0</ele><time>2026-05-02T12:44:47.999Z</time></trkpt><trkpt lat="45.36573979630791" lon="11.878604185521288"><ele>7.5</ele><time>2026-05-02T12:44:48.999Z</time></trkpt><trkpt lat="45.36579927693987" lon="11.878944489971705"><ele>8.0</ele><time>2026-05-02T12:44:49.999Z</time></trkpt><trkpt lat="45.36586446959678" lon="11.879287933620972"><ele>8.0</ele><time>2026-05-02T12:44:50.999Z</time></trkpt><trkpt lat="45.365925156577106" lon="11.879631160921862"><ele>8.0</ele><time>2026-05-02T12:44:51.999Z</time></trkpt><trkpt lat="45.365989315776304" lon="11.87996735139979"><ele>8.0</ele><time>2026-05-02T12:44:52.999Z</time></trkpt><trkpt lat="45.366051948586225" lon="11.880303589860599"><ele>8.0</ele><time>2026-05-02T12:44:53.999Z</time></trkpt><trkpt lat="45.36612137419922" lon="11.88064271858936"><ele>8.0</ele><time>2026-05-02T12:44:54.999Z</time></trkpt><trkpt lat="45.366188823370685" lon="11.880980368596658"><ele>8.0</ele><time>2026-05-02T12:44:55.999Z</time></trkpt><trkpt lat="45.36625299551011" lon="11.881320775097972"><ele>8.0</ele><time>2026-05-02T12:44:56.999Z</time></trkpt><trkpt lat="45.36631655729196" lon="11.881660628130938"><ele>8.0</ele><time>2026-05-02T12:44:57.999Z</time></trkpt><trkpt lat="45.36637747058155" lon="11.88200184956692"><ele>8.5</ele><time>2026-05-02T12:44:58.999Z</time></trkpt><trkpt lat="45.366438646596634" lon="11.882338639211927"><ele>9.0</ele><time>2026-05-02T12:44:59.999Z</time></trkpt><trkpt lat="45.36650479412686" lon="11.882673051197957"><ele>9.0</ele><time>2026-05-02T12:45:00.999Z</time></trkpt><trkpt lat="45.36656840230538" lon="11.883010384606724"><ele>9.0</ele><time>2026-05-02T12:45:01.999Z</time></trkpt><trkpt lat="45.366634110651276" lon="11.883345752311055"><ele>8.0</ele><time>2026-05-02T12:45:02.999Z</time></trkpt><trkpt lat="45.366692573475355" lon="11.883681679777887"><ele>7.0</ele><time>2026-05-02T12:45:03.999Z</time></trkpt><trkpt lat="45.36674847187105" lon="11.884016895394716"><ele>7.5</ele><time>2026-05-02T12:45:04.999Z</time></trkpt><trkpt lat="45.36681505036382" lon="11.884351142496971"><ele>8.0</ele><time>2026-05-02T12:45:05.999Z</time></trkpt><trkpt lat="45.366878652276654" lon="11.884685075843658"><ele>8.0</ele><time>2026-05-02T12:45:06.999Z</time></trkpt><trkpt lat="45.366943966853874" lon="11.885020603494423"><ele>8.0</ele><time>2026-05-02T12:45:07.999Z</time></trkpt><trkpt lat="45.367006794337904" lon="11.885355782089565"><ele>7.5</ele><time>2026-05-02T12:45:08.999Z</time></trkpt><trkpt lat="45.36706434526835" lon="11.885678367595949"><ele>7.0</ele><time>2026-05-02T12:45:09.999Z</time></trkpt><trkpt lat="45.36712408171294" lon="11.885988769264227"><ele>7.0</ele><time>2026-05-02T12:45:10.999Z</time></trkpt><trkpt lat="45.367183096566265" lon="11.886297692130585"><ele>7.0</ele><time>2026-05-02T12:45:11.999Z</time></trkpt><trkpt lat="45.36723896479532" lon="11.88659637352666"><ele>7.0</ele><time>2026-05-02T12:45:12.999Z</time></trkpt><trkpt lat="45.36729511249687" lon="11.886890951705047"><ele>7.333333333333334</ele><time>2026-05-02T12:45:13.999Z</time></trkpt><trkpt lat="45.36735011037214" lon="11.88718853560496"><ele>7.666666666666666</ele><time>2026-05-02T12:45:14.999Z</time></trkpt><trkpt lat="45.367405566697826" lon="11.887487991268488"><ele>8.0</ele><time>2026-05-02T12:45:15.999Z</time></trkpt><trkpt lat="45.3674645391815" lon="11.887793560810088"><ele>8.0</ele><time>2026-05-02T12:45:16.999Z</time></trkpt><trkpt lat="45.36752649863004" lon="11.888096944674718"><ele>8.0</ele><time>2026-05-02T12:45:17.999Z</time></trkpt><trkpt lat="45.36758610804433" lon="11.888407611004828"><ele>8.0</ele><time>2026-05-02T12:45:18.999Z</time></trkpt><trkpt lat="45.36764419249088" lon="11.888725305610421"><ele>8.0</ele><time>2026-05-02T12:45:19.999Z</time></trkpt><trkpt lat="45.36769982323277" lon="11.889045498948107"><ele>8.0</ele><time>2026-05-02T12:45:20.999Z</time></trkpt><trkpt lat="45.3677533295456" lon="11.889368409442152"><ele>8.0</ele><time>2026-05-02T12:45:21.999Z</time></trkpt><trkpt lat="45.367809185095716" lon="11.889693142622672"><ele>8.0</ele><time>2026-05-02T12:45:22.999Z</time></trkpt><trkpt lat="45.367862997128334" lon="11.890020395670671"><ele>7.5</ele><time>2026-05-02T12:45:23.999Z</time></trkpt><trkpt lat="45.36792133013059" lon="11.89034238149751"><ele>7.0</ele><time>2026-05-02T12:45:24.999Z</time></trkpt><trkpt lat="45.367979416256105" lon="11.89066959283091"><ele>7.0</ele><time>2026-05-02T12:45:25.999Z</time></trkpt><trkpt lat="45.3680363106389" lon="11.890990121230903"><ele>7.0</ele><time>2026-05-02T12:45:26.999Z</time></trkpt><trkpt lat="45.36809804211427" lon="11.891308385865495"><ele>7.0</ele><time>2026-05-02T12:45:27.999Z</time></trkpt><trkpt lat="45.36815910626728" lon="11.891628826408136"><ele>7.0</ele><time>2026-05-02T12:45:28.999Z</time></trkpt><trkpt lat="45.368211785193544" lon="11.891954490180526"><ele>7.333333333333334</ele><time>2026-05-02T12:45:29.999Z</time></trkpt><trkpt lat="45.36827636889757" lon="11.892261903160376"><ele>7.666666666666666</ele><time>2026-05-02T12:45:30.999Z</time></trkpt><trkpt lat="45.36833088536998" lon="11.892556072450164"><ele>8.0</ele><time>2026-05-02T12:45:31.999Z</time></trkpt><trkpt lat="45.36839297210605" lon="11.892843161716062"><ele>8.0</ele><time>2026-05-02T12:45:32.999Z</time></trkpt><trkpt lat="45.36845278315122" lon="11.893122209740483"><ele>8.0</ele><time>2026-05-02T12:45:33.999Z</time></trkpt><trkpt lat="45.36851103338119" lon="11.893404285716747"><ele>8.0</ele><time>2026-05-02T12:45:34.999Z</time></trkpt><trkpt lat="45.36857822370465" lon="11.893682523251059"><ele>8.0</ele><time>2026-05-02T12:45:35.999Z</time></trkpt><trkpt lat="45.36864698049682" lon="11.893962777989968"><ele>8.0</ele><time>2026-05-02T12:45:36.999Z</time></trkpt><trkpt lat="45.368715985118136" lon="11.894240371526264"><ele>8.0</ele><time>2026-05-02T12:45:37.999Z</time></trkpt><trkpt lat="45.368787418346095" lon="11.894521239137049"><ele>8.0</ele><time>2026-05-02T12:45:38.999Z</time></trkpt><trkpt lat="45.368860973338656" lon="11.89479705808714"><ele>8.0</ele><time>2026-05-02T12:45:39.999Z</time></trkpt><trkpt lat="45.368936313059834" lon="11.895074792333881"><ele>8.0</ele><time>2026-05-02T12:45:40.999Z</time></trkpt><trkpt lat="45.36901209408903" lon="11.895350709035103"><ele>7.0</ele><time>2026-05-02T12:45:41.999Z</time></trkpt><trkpt lat="45.369088803611284" lon="11.895628359982831"><ele>6.0</ele><time>2026-05-02T12:45:42.999Z</time></trkpt><trkpt lat="45.36916490508547" lon="11.895900639409074"><ele>5.0</ele><time>2026-05-02T12:45:43.999Z</time></trkpt><trkpt lat="45.36924405816402" lon="11.896181579528221"><ele>5.0</ele><time>2026-05-02T12:45:44.999Z</time></trkpt><trkpt lat="45.36932593208586" lon="11.896475420151564"><ele>5.0</ele><time>2026-05-02T12:45:45.999Z</time></trkpt><trkpt lat="45.36941135930873" lon="11.89677130239374"><ele>5.0</ele><time>2026-05-02T12:45:46.999Z</time></trkpt><trkpt lat="45.369490700621576" lon="11.89707555714191"><ele>6.0</ele><time>2026-05-02T12:45:47.999Z</time></trkpt><trkpt lat="45.369584507257294" lon="11.897387876680307"><ele>7.0</ele><time>2026-05-02T12:45:48.999Z</time></trkpt><trkpt lat="45.369677039699035" lon="11.897708893029618"><ele>7.0</ele><time>2026-05-02T12:45:49.999Z</time></trkpt><trkpt lat="45.369777347640856" lon="11.89803120668838"><ele>7.0</ele><time>2026-05-02T12:45:51Z</time></trkpt><trkpt lat="45.36987394887585" lon="11.898349216648658"><ele>7.0</ele><time>2026-05-02T12:45:52Z</time></trkpt><trkpt lat="45.36997008917208" lon="11.898674587550005"><ele>7.0</ele><time>2026-05-02T12:45:53Z</time></trkpt><trkpt lat="45.370066912068296" lon="11.899000260649665"><ele>7.0</ele><time>2026-05-02T12:45:54Z</time></trkpt><trkpt lat="45.37016126512455" lon="11.899325293112309"><ele>7.0</ele><time>2026-05-02T12:45:55Z</time></trkpt><trkpt lat="45.370257065621615" lon="11.899650657905818"><ele>7.0</ele><time>2026-05-02T12:45:56Z</time></trkpt><trkpt lat="45.37035369427599" lon="11.899977122664987"><ele>7.0</ele><time>2026-05-02T12:45:57Z</time></trkpt><trkpt lat="45.370443211910946" lon="11.90030414654652"><ele>7.5</ele><time>2026-05-02T12:45:58Z</time></trkpt><trkpt lat="45.370535381062616" lon="11.900618319717406"><ele>8.0</ele><time>2026-05-02T12:45:59Z</time></trkpt><trkpt lat="45.37062839456272" lon="11.900941590812126"><ele>8.0</ele><time>2026-05-02T12:46:00Z</time></trkpt><trkpt lat="45.370719279102964" lon="11.901269093480028"><ele>8.0</ele><time>2026-05-02T12:46:01Z</time></trkpt><trkpt lat="45.37080787485055" lon="11.901589631279684"><ele>7.5</ele><time>2026-05-02T12:46:02Z</time></trkpt><trkpt lat="45.370897711668604" lon="11.901905498243417"><ele>7.0</ele><time>2026-05-02T12:46:03Z</time></trkpt><trkpt lat="45.37099165284295" lon="11.902220539094428"><ele>7.0</ele><time>2026-05-02T12:46:04Z</time></trkpt><trkpt lat="45.37109624607713" lon="11.90255276853143"><ele>7.0</ele><time>2026-05-02T12:46:05Z</time></trkpt><trkpt lat="45.37119145372531" lon="11.902873835184616"><ele>7.0</ele><time>2026-05-02T12:46:06Z</time></trkpt><trkpt lat="45.37128881779761" lon="11.903192727292119"><ele>7.0</ele><time>2026-05-02T12:46:07Z</time></trkpt><trkpt lat="45.371394473754805" lon="11.9035066460351"><ele>7.0</ele><time>2026-05-02T12:46:08Z</time></trkpt><trkpt lat="45.371504873745465" lon="11.903819864909615"><ele>7.0</ele><time>2026-05-02T12:46:09Z</time></trkpt><trkpt lat="45.37162215213358" lon="11.904131886205144"><ele>7.0</ele><time>2026-05-02T12:46:10Z</time></trkpt><trkpt lat="45.37174524445597" lon="11.90443884554172"><ele>7.0</ele><time>2026-05-02T12:46:11Z</time></trkpt><trkpt lat="45.37187391327903" lon="11.904733128864189"><ele>7.0</ele><time>2026-05-02T12:46:12Z</time></trkpt><trkpt lat="45.37201063410906" lon="11.905023375339853"><ele>7.0</ele><time>2026-05-02T12:46:13Z</time></trkpt><trkpt lat="45.37214721455106" lon="11.905304740600364"><ele>7.5</ele><time>2026-05-02T12:46:14Z</time></trkpt><trkpt lat="45.37228491042276" lon="11.905569688836511"><ele>8.0</ele><time>2026-05-02T12:46:15Z</time></trkpt><trkpt lat="45.37242304157978" lon="11.905833682814688"><ele>7.5</ele><time>2026-05-02T12:46:16Z</time></trkpt><trkpt lat="45.37257143164324" lon="11.906095434530467"><ele>7.0</ele><time>2026-05-02T12:46:17Z</time></trkpt><trkpt lat="45.372720112114024" lon="11.906351004651784"><ele>7.0</ele><time>2026-05-02T12:46:18Z</time></trkpt><trkpt lat="45.37287377860507" lon="11.906606926476675"><ele>7.0</ele><time>2026-05-02T12:46:19Z</time></trkpt><trkpt lat="45.373028586301174" lon="11.906861073776051"><ele>7.5</ele><time>2026-05-02T12:46:20Z</time></trkpt><trkpt lat="45.373191418701566" lon="11.907110281092091"><ele>8.0</ele><time>2026-05-02T12:46:21Z</time></trkpt><trkpt lat="45.37335914910394" lon="11.907357715789868"><ele>7.5</ele><time>2026-05-02T12:46:22Z</time></trkpt><trkpt lat="45.37352838041508" lon="11.90759371723091"><ele>7.0</ele><time>2026-05-02T12:46:23Z</time></trkpt><trkpt lat="45.37369702705471" lon="11.907818854806003"><ele>8.0</ele><time>2026-05-02T12:46:24Z</time></trkpt><trkpt lat="45.3738699434458" lon="11.908035585794549"><ele>9.0</ele><time>2026-05-02T12:46:25Z</time></trkpt><trkpt lat="45.37404135104946" lon="11.908246491912093"><ele>9.333333333333334</ele><time>2026-05-02T12:46:26Z</time></trkpt><trkpt lat="45.374204283384074" lon="11.908443180705088"><ele>9.666666666666668</ele><time>2026-05-02T12:46:27Z</time></trkpt><trkpt lat="45.37436509581177" lon="11.908602101027338"><ele>10.0</ele><time>2026-05-02T12:46:28Z</time></trkpt><trkpt lat="45.374516043935394" lon="11.908782632196473"><ele>10.0</ele><time>2026-05-02T12:46:29Z</time></trkpt><trkpt lat="45.37467981692866" lon="11.908958570860644"><ele>10.0</ele><time>2026-05-02T12:46:30Z</time></trkpt><trkpt lat="45.37485630285879" lon="11.909133002447462"><ele>10.0</ele><time>2026-05-02T12:46:31Z</time></trkpt><trkpt lat="45.375039779967295" lon="11.909325933533097"><ele>10.0</ele><time>2026-05-02T12:46:32Z</time></trkpt><trkpt lat="45.37521415917888" lon="11.909534462102789"><ele>10.0</ele><time>2026-05-02T12:46:33Z</time></trkpt><trkpt lat="45.37539323501124" lon="11.909752016977006"><ele>9.5</ele><time>2026-05-02T12:46:34Z</time></trkpt><trkpt lat="45.37557986813108" lon="11.909967333542737"><ele>9.0</ele><time>2026-05-02T12:46:35Z</time></trkpt><trkpt lat="45.37576950491684" lon="11.91018474340373"><ele>9.0</ele><time>2026-05-02T12:46:36Z</time></trkpt><trkpt lat="45.37596035740259" lon="11.910402741481036"><ele>9.0</ele><time>2026-05-02T12:46:37Z</time></trkpt><trkpt lat="45.37614912695393" lon="11.910632796271413"><ele>9.0</ele><time>2026-05-02T12:46:38Z</time></trkpt><trkpt lat="45.37633530657795" lon="11.91085880748946"><ele>9.0</ele><time>2026-05-02T12:46:39Z</time></trkpt><trkpt lat="45.37652021869641" lon="11.911085489379186"><ele>8.5</ele><time>2026-05-02T12:46:40Z</time></trkpt><trkpt lat="45.376713811539936" lon="11.911294893026945"><ele>8.0</ele><time>2026-05-02T12:46:41Z</time></trkpt><trkpt lat="45.37691003581319" lon="11.911509610279108"><ele>8.0</ele><time>2026-05-02T12:46:42Z</time></trkpt><trkpt lat="45.377108728564984" lon="11.91172875746856"><ele>8.0</ele><time>2026-05-02T12:46:43Z</time></trkpt><trkpt lat="45.377304353281275" lon="11.91194569802515"><ele>7.5</ele><time>2026-05-02T12:46:44Z</time></trkpt><trkpt lat="45.377490534203595" lon="11.912167050602267"><ele>7.0</ele><time>2026-05-02T12:46:45Z</time></trkpt><trkpt lat="45.377681138595754" lon="11.912389032851223"><ele>7.0</ele><time>2026-05-02T12:46:46Z</time></trkpt><trkpt lat="45.37787257687093" lon="11.912599337427457"><ele>7.0</ele><time>2026-05-02T12:46:46.999Z</time></trkpt><trkpt lat="45.378064036782256" lon="11.912809787552568"><ele>7.5</ele><time>2026-05-02T12:46:47.999Z</time></trkpt><trkpt lat="45.37825674406893" lon="11.913026171020167"><ele>8.0</ele><time>2026-05-02T12:46:48.999Z</time></trkpt><trkpt lat="45.37845122247484" lon="11.913245355266477"><ele>7.5</ele><time>2026-05-02T12:46:49.999Z</time></trkpt><trkpt lat="45.378645589283984" lon="11.913460247215243"><ele>7.0</ele><time>2026-05-02T12:46:50.999Z</time></trkpt><trkpt lat="45.37883912689515" lon="11.913680478369136"><ele>7.5</ele><time>2026-05-02T12:46:51.999Z</time></trkpt><trkpt lat="45.37903604018234" lon="11.91390290926641"><ele>8.0</ele><time>2026-05-02T12:46:52.999Z</time></trkpt><trkpt lat="45.37923386479398" lon="11.914125939716742"><ele>9.0</ele><time>2026-05-02T12:46:53.999Z</time></trkpt><trkpt lat="45.37942586909507" lon="11.914352670272137"><ele>10.0</ele><time>2026-05-02T12:46:54.999Z</time></trkpt><trkpt lat="45.37962288672394" lon="11.91458142112762"><ele>9.5</ele><time>2026-05-02T12:46:55.999Z</time></trkpt><trkpt lat="45.37982331776746" lon="11.914801726950408"><ele>9.0</ele><time>2026-05-02T12:46:56.999Z</time></trkpt><trkpt lat="45.380027494469395" lon="11.915024760660353"><ele>9.0</ele><time>2026-05-02T12:46:57.999Z</time></trkpt><trkpt lat="45.38022373471911" lon="11.915247635781045"><ele>9.0</ele><time>2026-05-02T12:46:58.999Z</time></trkpt><trkpt lat="45.38041714306679" lon="11.915468679417737"><ele>8.0</ele><time>2026-05-02T12:46:59.999Z</time></trkpt><trkpt lat="45.38060812311441" lon="11.915685876993525"><ele>7.0</ele><time>2026-05-02T12:47:00.999Z</time></trkpt><trkpt lat="45.38079070037032" lon="11.915902870155364"><ele>7.0</ele><time>2026-05-02T12:47:01.999Z</time></trkpt><trkpt lat="45.38098026766265" lon="11.916119640148757"><ele>7.0</ele><time>2026-05-02T12:47:02.999Z</time></trkpt><trkpt lat="45.38117204324903" lon="11.916325841575707"><ele>7.0</ele><time>2026-05-02T12:47:03.999Z</time></trkpt><trkpt lat="45.38136228181835" lon="11.916537507789895"><ele>7.0</ele><time>2026-05-02T12:47:04.999Z</time></trkpt><trkpt lat="45.38155644796759" lon="11.91673822753545"><ele>7.5</ele><time>2026-05-02T12:47:05.999Z</time></trkpt><trkpt lat="45.381751191955814" lon="11.916940833037332"><ele>8.0</ele><time>2026-05-02T12:47:06.999Z</time></trkpt><trkpt lat="45.38194235609015" lon="11.917141553184077"><ele>8.0</ele><time>2026-05-02T12:47:07.999Z</time></trkpt><trkpt lat="45.38212081476161" lon="11.917365564177913"><ele>8.0</ele><time>2026-05-02T12:47:08.999Z</time></trkpt><trkpt lat="45.38228108543008" lon="11.91759830811961"><ele>7.0</ele><time>2026-05-02T12:47:09.999Z</time></trkpt><trkpt lat="45.38246385660509" lon="11.917818215374586"><ele>6.0</ele><time>2026-05-02T12:47:10.999Z</time></trkpt><trkpt lat="45.3826475600469" lon="11.918031280191075"><ele>6.0</ele><time>2026-05-02T12:47:11.999Z</time></trkpt><trkpt lat="45.3828378965703" lon="11.918240774095898"><ele>6.0</ele><time>2026-05-02T12:47:12.999Z</time></trkpt><trkpt lat="45.383018105278545" lon="11.918450674844689"><ele>5.5</ele><time>2026-05-02T12:47:13.999Z</time></trkpt><trkpt lat="45.38320069734986" lon="11.918664964681485"><ele>5.0</ele><time>2026-05-02T12:47:14.999Z</time></trkpt><trkpt lat="45.383385473570954" lon="11.918878210001154"><ele>5.0</ele><time>2026-05-02T12:47:15.999Z</time></trkpt><trkpt lat="45.383570981233994" lon="11.919084253002339"><ele>5.0</ele><time>2026-05-02T12:47:16.999Z</time></trkpt><trkpt lat="45.38375414102135" lon="11.919291557283323"><ele>6.5</ele><time>2026-05-02T12:47:17.999Z</time></trkpt><trkpt lat="45.383935998908434" lon="11.919499563330863"><ele>8.0</ele><time>2026-05-02T12:47:18.999Z</time></trkpt><trkpt lat="45.384121105368884" lon="11.919707048196106"><ele>8.0</ele><time>2026-05-02T12:47:19.999Z</time></trkpt><trkpt lat="45.384307761069124" lon="11.919915881533685"><ele>8.0</ele><time>2026-05-02T12:47:20.999Z</time></trkpt><trkpt lat="45.384494007828245" lon="11.920128218067532"><ele>8.5</ele><time>2026-05-02T12:47:21.999Z</time></trkpt><trkpt lat="45.384682745184215" lon="11.920339997290217"><ele>9.0</ele><time>2026-05-02T12:47:22.999Z</time></trkpt><trkpt lat="45.38487006069344" lon="11.920552071337438"><ele>9.0</ele><time>2026-05-02T12:47:23.999Z</time></trkpt><trkpt lat="45.38505766309628" lon="11.920766097540362"><ele>9.0</ele><time>2026-05-02T12:47:24.999Z</time></trkpt><trkpt lat="45.38524931666" lon="11.920986738010642"><ele>8.5</ele><time>2026-05-02T12:47:25.999Z</time></trkpt><trkpt lat="45.385434711426655" lon="11.921188002850078"><ele>8.0</ele><time>2026-05-02T12:47:26.999Z</time></trkpt><trkpt lat="45.38561864024561" lon="11.92139460679989"><ele>8.0</ele><time>2026-05-02T12:47:27.999Z</time></trkpt><trkpt lat="45.385803626019054" lon="11.921602206095699"><ele>8.0</ele><time>2026-05-02T12:47:28.999Z</time></trkpt><trkpt lat="45.38598830828811" lon="11.921811874248329"><ele>8.0</ele><time>2026-05-02T12:47:29.999Z</time></trkpt><trkpt lat="45.38617226847045" lon="11.922025448827688"><ele>8.0</ele><time>2026-05-02T12:47:30.999Z</time></trkpt><trkpt lat="45.3863599023507" lon="11.922239406897763"><ele>8.0</ele><time>2026-05-02T12:47:31.999Z</time></trkpt><trkpt lat="45.386547364976494" lon="11.922454090646276"><ele>8.0</ele><time>2026-05-02T12:47:32.999Z</time></trkpt><trkpt lat="45.38673522161166" lon="11.922668963340085"><ele>7.0</ele><time>2026-05-02T12:47:33.999Z</time></trkpt><trkpt lat="45.38692148052955" lon="11.922880939652046"><ele>6.0</ele><time>2026-05-02T12:47:34.999Z</time></trkpt><trkpt lat="45.387109322556164" lon="11.92309063175078"><ele>6.5</ele><time>2026-05-02T12:47:35.999Z</time></trkpt><trkpt lat="45.38729571651699" lon="11.923294189145405"><ele>7.0</ele><time>2026-05-02T12:47:36.999Z</time></trkpt><trkpt lat="45.3874795617886" lon="11.923505401860083"><ele>7.5</ele><time>2026-05-02T12:47:37.999Z</time></trkpt><trkpt lat="45.38766184301359" lon="11.923700826165108"><ele>8.0</ele><time>2026-05-02T12:47:38.999Z</time></trkpt><trkpt lat="45.38785113607536" lon="11.923890597366285"><ele>7.5</ele><time>2026-05-02T12:47:39.999Z</time></trkpt><trkpt lat="45.38804598813343" lon="11.924075921066597"><ele>7.0</ele><time>2026-05-02T12:47:40.999Z</time></trkpt><trkpt lat="45.388244250455045" lon="11.924244808953011"><ele>7.0</ele><time>2026-05-02T12:47:41.999Z</time></trkpt><trkpt lat="45.38844849125551" lon="11.92441201377178"><ele>7.0</ele><time>2026-05-02T12:47:42.999Z</time></trkpt><trkpt lat="45.388656693522165" lon="11.924573093803392"><ele>8.0</ele><time>2026-05-02T12:47:43.999Z</time></trkpt><trkpt lat="45.388867067331596" lon="11.924739117613111"><ele>9.0</ele><time>2026-05-02T12:47:44.999Z</time></trkpt><trkpt lat="45.38908258199137" lon="11.924891291935209"><ele>9.0</ele><time>2026-05-02T12:47:45.999Z</time></trkpt><trkpt lat="45.38930841305434" lon="11.925027683075298"><ele>9.0</ele><time>2026-05-02T12:47:46.999Z</time></trkpt><trkpt lat="45.389541471361206" lon="11.925173042138619"><ele>8.5</ele><time>2026-05-02T12:47:47.999Z</time></trkpt><trkpt lat="45.3897673869676" lon="11.925299093908787"><ele>8.0</ele><time>2026-05-02T12:47:48.999Z</time></trkpt><trkpt lat="45.389974061195424" lon="11.925413552049031"><ele>8.0</ele><time>2026-05-02T12:47:49.999Z</time></trkpt><trkpt lat="45.3901731728607" lon="11.925525874598598"><ele>8.0</ele><time>2026-05-02T12:47:50.999Z</time></trkpt><trkpt lat="45.390370843921765" lon="11.925636567437634"><ele>8.0</ele><time>2026-05-02T12:47:51.999Z</time></trkpt><trkpt lat="45.3905585159367" lon="11.925738058208424"><ele>8.0</ele><time>2026-05-02T12:47:52.999Z</time></trkpt><trkpt lat="45.390749075805125" lon="11.925839277289242"><ele>8.0</ele><time>2026-05-02T12:47:53.999Z</time></trkpt><trkpt lat="45.390941061902446" lon="11.92593403788352"><ele>8.0</ele><time>2026-05-02T12:47:54.999Z</time></trkpt><trkpt lat="45.39112261477318" lon="11.926039773864215"><ele>7.666666666666666</ele><time>2026-05-02T12:47:55.999Z</time></trkpt><trkpt lat="45.391311758765845" lon="11.926139646469267"><ele>7.333333333333334</ele><time>2026-05-02T12:47:57Z</time></trkpt><trkpt lat="45.39150012800657" lon="11.926243613559846"><ele>7.0</ele><time>2026-05-02T12:47:58Z</time></trkpt><trkpt lat="45.39168757218843" lon="11.926349709318764"><ele>7.666666666666667</ele><time>2026-05-02T12:47:59Z</time></trkpt><trkpt lat="45.39187064309236" lon="11.926457149127176"><ele>8.333333333333334</ele><time>2026-05-02T12:48:00Z</time></trkpt><trkpt lat="45.39204926586379" lon="11.926560868895825"><ele>9.0</ele><time>2026-05-02T12:48:01Z</time></trkpt><trkpt lat="45.3922272801139" lon="11.92666037518972"><ele>7.333333333333333</ele><time>2026-05-02T12:48:02Z</time></trkpt><trkpt lat="45.39240726071526" lon="11.926761896686244"><ele>5.666666666666666</ele><time>2026-05-02T12:48:03Z</time></trkpt><trkpt lat="45.392584313332804" lon="11.926880821992649"><ele>4.0</ele><time>2026-05-02T12:48:04Z</time></trkpt><trkpt lat="45.39276840014228" lon="11.927014841204828"><ele>4.0</ele><time>2026-05-02T12:48:05Z</time></trkpt><trkpt lat="45.39296009619048" lon="11.927141065597946"><ele>4.0</ele><time>2026-05-02T12:48:06Z</time></trkpt><trkpt lat="45.39316707043526" lon="11.927262829160693"><ele>4.0</ele><time>2026-05-02T12:48:07Z</time></trkpt><trkpt lat="45.39337749564605" lon="11.927384036283868"><ele>6.5</ele><time>2026-05-02T12:48:08Z</time></trkpt><trkpt lat="45.39358762217304" lon="11.92751325112125"><ele>9.0</ele><time>2026-05-02T12:48:09Z</time></trkpt><trkpt lat="45.39380125345294" lon="11.927638935940442"><ele>10.0</ele><time>2026-05-02T12:48:10Z</time></trkpt><trkpt lat="45.394022813627636" lon="11.927764745838239"><ele>11.0</ele><time>2026-05-02T12:48:11Z</time></trkpt><trkpt lat="45.394243902097244" lon="11.92788963506157"><ele>11.0</ele><time>2026-05-02T12:48:12Z</time></trkpt><trkpt lat="45.394459650291694" lon="11.928016775785103"><ele>11.0</ele><time>2026-05-02T12:48:13Z</time></trkpt><trkpt lat="45.39467191117482" lon="11.92814112845935"><ele>10.666666666666666</ele><time>2026-05-02T12:48:14Z</time></trkpt><trkpt lat="45.394866564526964" lon="11.928264660573893"><ele>10.333333333333334</ele><time>2026-05-02T12:48:15Z</time></trkpt><trkpt lat="45.39504638934705" lon="11.928373137749091"><ele>10.0</ele><time>2026-05-02T12:48:16Z</time></trkpt><trkpt lat="45.395196929784866" lon="11.928457206609025"><ele>10.2</ele><time>2026-05-02T12:48:17Z</time></trkpt><trkpt lat="45.39532915674323" lon="11.928527745844585"><ele>10.4</ele><time>2026-05-02T12:48:18Z</time></trkpt><trkpt lat="45.395432893684614" lon="11.928581156036584"><ele>10.600000000000001</ele><time>2026-05-02T12:48:19Z</time></trkpt><trkpt lat="45.395512701611906" lon="11.928626758036307"><ele>10.8</ele><time>2026-05-02T12:48:20Z</time></trkpt><trkpt lat="45.3955750203402" lon="11.928700650578495"><ele>11.0</ele><time>2026-05-02T12:48:22Z</time></trkpt><trkpt lat="45.39560339778009" lon="11.92880664421005"><ele>11.0</ele><time>2026-05-02T12:48:24Z</time></trkpt><trkpt lat="45.395640624871824" lon="11.928884215686454"><ele>11.0</ele><time>2026-05-02T12:48:25Z</time></trkpt><trkpt lat="45.39577542819347" lon="11.928868468553079"><ele>11.0</ele><time>2026-05-02T12:48:27Z</time></trkpt><trkpt lat="45.39582673985704" lon="11.928762373767729"><ele>11.0</ele><time>2026-05-02T12:48:28Z</time></trkpt><trkpt lat="45.39585644959696" lon="11.928613162883801"><ele>11.0</ele><time>2026-05-02T12:48:29Z</time></trkpt><trkpt lat="45.39587358359132" lon="11.92845968409601"><ele>11.333333333333332</ele><time>2026-05-02T12:48:30Z</time></trkpt><trkpt lat="45.39590952282493" lon="11.928304559523763"><ele>11.666666666666666</ele><time>2026-05-02T12:48:31Z</time></trkpt><trkpt lat="45.39595435106767" lon="11.928111950040797"><ele>12.0</ele><time>2026-05-02T12:48:32Z</time></trkpt><trkpt lat="45.3960340673355" lon="11.927861913370917"><ele>12.0</ele><time>2026-05-02T12:48:33Z</time></trkpt><trkpt lat="45.396090356721594" lon="11.927693824178695"><ele>12.0</ele><time>2026-05-02T12:48:34Z</time></trkpt><trkpt lat="45.396149334656" lon="11.927521647360567"><ele>12.0</ele><time>2026-05-02T12:48:34.999Z</time></trkpt><trkpt lat="45.39619748517441" lon="11.927337455830408"><ele>12.0</ele><time>2026-05-02T12:48:35.999Z</time></trkpt><trkpt lat="45.39624578116962" lon="11.92715554181175"><ele>11.8</ele><time>2026-05-02T12:48:36.999Z</time></trkpt><trkpt lat="45.396293111212664" lon="11.92700318770316"><ele>11.6</ele><time>2026-05-02T12:48:37.999Z</time></trkpt><trkpt lat="45.39634137490614" lon="11.92687500629679"><ele>11.4</ele><time>2026-05-02T12:48:38.999Z</time></trkpt><trkpt lat="45.39640855615282" lon="11.926790946225651"><ele>11.200000000000001</ele><time>2026-05-02T12:48:39.999Z</time></trkpt><trkpt lat="45.39649387841737" lon="11.926768598577759"><ele>11.0</ele><time>2026-05-02T12:48:40.999Z</time></trkpt><trkpt lat="45.396581843218826" lon="11.926793132744846"><ele>11.0</ele><time>2026-05-02T12:48:41.999Z</time></trkpt><trkpt lat="45.39667650934319" lon="11.926841660311453"><ele>11.0</ele><time>2026-05-02T12:48:42.999Z</time></trkpt><trkpt lat="45.39678520815324" lon="11.926897795337307"><ele>11.0</ele><time>2026-05-02T12:48:43.999Z</time></trkpt><trkpt lat="45.39691749864175" lon="11.92698053663895"><ele>11.0</ele><time>2026-05-02T12:48:44.999Z</time></trkpt><trkpt lat="45.397074090735074" lon="11.927073253893846"><ele>10.333333333333332</ele><time>2026-05-02T12:48:45.999Z</time></trkpt><trkpt lat="45.39723436292535" lon="11.927172151127285"><ele>9.666666666666666</ele><time>2026-05-02T12:48:46.999Z</time></trkpt><trkpt lat="45.397403832495506" lon="11.927269923406596"><ele>9.0</ele><time>2026-05-02T12:48:47.999Z</time></trkpt><trkpt lat="45.39758899893416" lon="11.927382199620986"><ele>9.0</ele><time>2026-05-02T12:48:48.999Z</time></trkpt><trkpt lat="45.39778069023915" lon="11.927485811985076"><ele>9.0</ele><time>2026-05-02T12:48:49.999Z</time></trkpt><trkpt lat="45.39798683392611" lon="11.927607646327328"><ele>9.0</ele><time>2026-05-02T12:48:50.999Z</time></trkpt><trkpt lat="45.3981992850278" lon="11.92772856679969"><ele>9.5</ele><time>2026-05-02T12:48:51.999Z</time></trkpt><trkpt lat="45.398420582149754" lon="11.927846098422604"><ele>10.0</ele><time>2026-05-02T12:48:52.999Z</time></trkpt><trkpt lat="45.39863335892084" lon="11.927965851899984"><ele>10.0</ele><time>2026-05-02T12:48:53.999Z</time></trkpt><trkpt lat="45.39884206164818" lon="11.928091377364309"><ele>10.0</ele><time>2026-05-02T12:48:54.999Z</time></trkpt><trkpt lat="45.39906147818073" lon="11.928225206167172"><ele>10.0</ele><time>2026-05-02T12:48:55.999Z</time></trkpt><trkpt lat="45.399273019481655" lon="11.928341405401577"><ele>10.0</ele><time>2026-05-02T12:48:56.999Z</time></trkpt><trkpt lat="45.39948234461706" lon="11.928460856934487"><ele>10.0</ele><time>2026-05-02T12:48:57.999Z</time></trkpt><trkpt lat="45.39968601143044" lon="11.928572233821475"><ele>10.0</ele><time>2026-05-02T12:48:58.999Z</time></trkpt><trkpt lat="45.39987832674138" lon="11.928668621859968"><ele>10.0</ele><time>2026-05-02T12:48:59.999Z</time></trkpt><trkpt lat="45.4000644423873" lon="11.928743980011"><ele>10.0</ele><time>2026-05-02T12:49:00.999Z</time></trkpt><trkpt lat="45.40024059279905" lon="11.928815315707915"><ele>10.0</ele><time>2026-05-02T12:49:01.999Z</time></trkpt><trkpt lat="45.40040851972596" lon="11.928880401377793"><ele>10.0</ele><time>2026-05-02T12:49:02.999Z</time></trkpt><trkpt lat="45.40056519299987" lon="11.92894362367454"><ele>10.0</ele><time>2026-05-02T12:49:03.999Z</time></trkpt><trkpt lat="45.400714433850624" lon="11.929003893053867"><ele>10.0</ele><time>2026-05-02T12:49:04.999Z</time></trkpt><trkpt lat="45.400887437977545" lon="11.929066156481447"><ele>10.0</ele><time>2026-05-02T12:49:05.999Z</time></trkpt><trkpt lat="45.40106750443218" lon="11.929125402582542"><ele>10.0</ele><time>2026-05-02T12:49:06.999Z</time></trkpt><trkpt lat="45.40125297351294" lon="11.92917991577351"><ele>10.0</ele><time>2026-05-02T12:49:07.999Z</time></trkpt><trkpt lat="45.401449124155654" lon="11.929246412874571"><ele>10.0</ele><time>2026-05-02T12:49:08.999Z</time></trkpt><trkpt lat="45.40164518193464" lon="11.929313128703239"><ele>10.0</ele><time>2026-05-02T12:49:09.999Z</time></trkpt><trkpt lat="45.40184267880901" lon="11.929384396318591"><ele>10.0</ele><time>2026-05-02T12:49:10.999Z</time></trkpt><trkpt lat="45.402032876135515" lon="11.929461314574088"><ele>10.0</ele><time>2026-05-02T12:49:11.999Z</time></trkpt><trkpt lat="45.40220871371272" lon="11.929530219813815"><ele>10.0</ele><time>2026-05-02T12:49:12.999Z</time></trkpt><trkpt lat="45.402367923180506" lon="11.929589381154651"><ele>10.0</ele><time>2026-05-02T12:49:13.999Z</time></trkpt><trkpt lat="45.40251607304899" lon="11.929633357513449"><ele>10.0</ele><time>2026-05-02T12:49:14.999Z</time></trkpt><trkpt lat="45.402641301805026" lon="11.929671043576871"><ele>10.0</ele><time>2026-05-02T12:49:15.999Z</time></trkpt><trkpt lat="45.40273634034651" lon="11.929701292620239"><ele>10.0</ele><time>2026-05-02T12:49:16.999Z</time></trkpt><trkpt lat="45.40279872517356" lon="11.929732610201661"><ele>10.0</ele><time>2026-05-02T12:49:17.999Z</time></trkpt><trkpt lat="45.402886088488145" lon="11.929813451932755"><ele>10.0</ele><time>2026-05-02T12:49:19.999Z</time></trkpt><trkpt lat="45.40290692990786" lon="11.929914942863098"><ele>10.0</ele><time>2026-05-02T12:49:20.999Z</time></trkpt><trkpt lat="45.40288497344456" lon="11.930047860053454"><ele>10.0</ele><time>2026-05-02T12:49:21.999Z</time></trkpt><trkpt lat="45.40284739109551" lon="11.930198194683337"><ele>10.0</ele><time>2026-05-02T12:49:22.999Z</time></trkpt><trkpt lat="45.40281023832615" lon="11.930376785230834"><ele>10.0</ele><time>2026-05-02T12:49:23.999Z</time></trkpt><trkpt lat="45.40278291977806" lon="11.93056183474157"><ele>10.0</ele><time>2026-05-02T12:49:24.999Z</time></trkpt><trkpt lat="45.40276633502944" lon="11.930775052771983"><ele>10.0</ele><time>2026-05-02T12:49:25.999Z</time></trkpt><trkpt lat="45.40274097384933" lon="11.930996946586372"><ele>9.666666666666668</ele><time>2026-05-02T12:49:26.999Z</time></trkpt><trkpt lat="45.40271087323368" lon="11.931224245831203"><ele>9.333333333333334</ele><time>2026-05-02T12:49:27.999Z</time></trkpt><trkpt lat="45.40267526613942" lon="11.931464321972365"><ele>9.0</ele><time>2026-05-02T12:49:28.999Z</time></trkpt><trkpt lat="45.40264357513163" lon="11.931696113127924"><ele>9.0</ele><time>2026-05-02T12:49:29.999Z</time></trkpt><trkpt lat="45.402618713021575" lon="11.931924640689592"><ele>9.0</ele><time>2026-05-02T12:49:30.999Z</time></trkpt><trkpt lat="45.40258553742052" lon="11.932160946116742"><ele>9.0</ele><time>2026-05-02T12:49:31.999Z</time></trkpt><trkpt lat="45.40254135320985" lon="11.932403893480522"><ele>9.333333333333334</ele><time>2026-05-02T12:49:32.999Z</time></trkpt><trkpt lat="45.402502628138755" lon="11.932666365886107"><ele>9.666666666666668</ele><time>2026-05-02T12:49:33.999Z</time></trkpt><trkpt lat="45.402458600193576" lon="11.932921551796895"><ele>10.0</ele><time>2026-05-02T12:49:34.999Z</time></trkpt><trkpt lat="45.402421315705176" lon="11.933160417380305"><ele>10.0</ele><time>2026-05-02T12:49:35.999Z</time></trkpt><trkpt lat="45.402399633307425" lon="11.933405510432765"><ele>10.0</ele><time>2026-05-02T12:49:36.999Z</time></trkpt><trkpt lat="45.402377751802675" lon="11.93367387504675"><ele>10.0</ele><time>2026-05-02T12:49:37.999Z</time></trkpt><trkpt lat="45.402351039367865" lon="11.933958482778383"><ele>10.0</ele><time>2026-05-02T12:49:38.999Z</time></trkpt><trkpt lat="45.402330830325354" lon="11.93424602109298"><ele>10.0</ele><time>2026-05-02T12:49:39.999Z</time></trkpt><trkpt lat="45.402304815312675" lon="11.934547620315898"><ele>10.0</ele><time>2026-05-02T12:49:40.999Z</time></trkpt><trkpt lat="45.40228446443255" lon="11.934842336848284"><ele>9.666666666666668</ele><time>2026-05-02T12:49:41.999Z</time></trkpt><trkpt lat="45.40225783932103" lon="11.935125040967732"><ele>9.333333333333334</ele><time>2026-05-02T12:49:42.999Z</time></trkpt><trkpt lat="45.40224326324827" lon="11.935381205209268"><ele>9.0</ele><time>2026-05-02T12:49:43.999Z</time></trkpt><trkpt lat="45.4022099320662" lon="11.935613873968183"><ele>9.0</ele><time>2026-05-02T12:49:44.999Z</time></trkpt><trkpt lat="45.40218285864085" lon="11.935818496252075"><ele>9.0</ele><time>2026-05-02T12:49:45.999Z</time></trkpt><trkpt lat="45.40215310178822" lon="11.935993090796012"><ele>9.0</ele><time>2026-05-02T12:49:46.999Z</time></trkpt><trkpt lat="45.40214491250537" lon="11.93613453757854"><ele>9.0</ele><time>2026-05-02T12:49:47.999Z</time></trkpt><trkpt lat="45.40215875543113" lon="11.936256439278978"><ele>8.75</ele><time>2026-05-02T12:49:48.999Z</time></trkpt><trkpt lat="45.402223444053774" lon="11.936355612445196"><ele>8.5</ele><time>2026-05-02T12:49:49.999Z</time></trkpt><trkpt lat="45.402307592780716" lon="11.936443242311071"><ele>8.25</ele><time>2026-05-02T12:49:50.999Z</time></trkpt><trkpt lat="45.40241212750307" lon="11.93654832783951"><ele>8.0</ele><time>2026-05-02T12:49:51.999Z</time></trkpt><trkpt lat="45.40252450474275" lon="11.93668983459254"><ele>8.0</ele><time>2026-05-02T12:49:52.999Z</time></trkpt><trkpt lat="45.40266019546997" lon="11.936791968737444"><ele>8.0</ele><time>2026-05-02T12:49:53.999Z</time></trkpt><trkpt lat="45.40283336624177" lon="11.936862266752962"><ele>8.0</ele><time>2026-05-02T12:49:54.999Z</time></trkpt><trkpt lat="45.403011650461664" lon="11.936934959180375"><ele>8.25</ele><time>2026-05-02T12:49:55.999Z</time></trkpt><trkpt lat="45.4031792644025" lon="11.937005529292662"><ele>8.5</ele><time>2026-05-02T12:49:56.999Z</time></trkpt><trkpt lat="45.40332219437547" lon="11.937071251142072"><ele>8.75</ele><time>2026-05-02T12:49:57.999Z</time></trkpt><trkpt lat="45.403429964836455" lon="11.937156456599995"><ele>9.0</ele><time>2026-05-02T12:49:58.999Z</time></trkpt><trkpt lat="45.40349647739334" lon="11.937292870423963"><ele>9.0</ele><time>2026-05-02T12:49:59.999Z</time></trkpt><trkpt lat="45.403509059035684" lon="11.937461348980326"><ele>9.0</ele><time>2026-05-02T12:50:00.999Z</time></trkpt><trkpt lat="45.403480097778925" lon="11.937661659185613"><ele>9.0</ele><time>2026-05-02T12:50:01.999Z</time></trkpt><trkpt lat="45.40342602139031" lon="11.937881772298434"><ele>9.0</ele><time>2026-05-02T12:50:03Z</time></trkpt><trkpt lat="45.403391982461585" lon="11.93810839600506"><ele>9.5</ele><time>2026-05-02T12:50:04Z</time></trkpt><trkpt lat="45.40337575347523" lon="11.938318562009673"><ele>10.0</ele><time>2026-05-02T12:50:05Z</time></trkpt><trkpt lat="45.40339226691445" lon="11.93850399726503"><ele>10.5</ele><time>2026-05-02T12:50:06Z</time></trkpt><trkpt lat="45.40344610323981" lon="11.938671272126838"><ele>11.0</ele><time>2026-05-02T12:50:07Z</time></trkpt><trkpt lat="45.40350977050731" lon="11.938828897095556"><ele>11.25</ele><time>2026-05-02T12:50:08Z</time></trkpt><trkpt lat="45.40360166127466" lon="11.938958855582536"><ele>11.5</ele><time>2026-05-02T12:50:09Z</time></trkpt><trkpt lat="45.403711510844644" lon="11.939077515095416"><ele>11.75</ele><time>2026-05-02T12:50:10Z</time></trkpt><trkpt lat="45.40384309081093" lon="11.939171533714871"><ele>12.0</ele><time>2026-05-02T12:50:11Z</time></trkpt><trkpt lat="45.40398463142587" lon="11.939266148152281"><ele>11.333333333333334</ele><time>2026-05-02T12:50:12Z</time></trkpt><trkpt lat="45.40411366559537" lon="11.93937321322658"><ele>10.666666666666668</ele><time>2026-05-02T12:50:13Z</time></trkpt><trkpt lat="45.40423329135534" lon="11.939518569659455"><ele>10.0</ele><time>2026-05-02T12:50:14Z</time></trkpt><trkpt lat="45.404330266091755" lon="11.939690260809636"><ele>10.0</ele><time>2026-05-02T12:50:15Z</time></trkpt><trkpt lat="45.40439852681558" lon="11.939895269205248"><ele>10.0</ele><time>2026-05-02T12:50:16Z</time></trkpt><trkpt lat="45.40448685144792" lon="11.94008510126934"><ele>10.0</ele><time>2026-05-02T12:50:17Z</time></trkpt><trkpt lat="45.404587228776705" lon="11.940272012674928"><ele>10.0</ele><time>2026-05-02T12:50:18Z</time></trkpt><trkpt lat="45.40469967350475" lon="11.940437123214124"><ele>10.0</ele><time>2026-05-02T12:50:19Z</time></trkpt><trkpt lat="45.40483137492391" lon="11.940559910337482"><ele>10.0</ele><time>2026-05-02T12:50:20Z</time></trkpt><trkpt lat="45.404981213856026" lon="11.940682274082567"><ele>10.0</ele><time>2026-05-02T12:50:21Z</time></trkpt><trkpt lat="45.40512012247705" lon="11.940826204057442"><ele>10.0</ele><time>2026-05-02T12:50:22Z</time></trkpt><trkpt lat="45.40527841421273" lon="11.940938475846478"><ele>10.0</ele><time>2026-05-02T12:50:23Z</time></trkpt><trkpt lat="45.405456666552524" lon="11.941020593665268"><ele>9.666666666666668</ele><time>2026-05-02T12:50:24Z</time></trkpt><trkpt lat="45.405652052142315" lon="11.941115231565364"><ele>9.333333333333334</ele><time>2026-05-02T12:50:25Z</time></trkpt><trkpt lat="45.40585099130336" lon="11.941225276660088"><ele>9.0</ele><time>2026-05-02T12:50:26Z</time></trkpt><trkpt lat="45.40606829873489" lon="11.94133932349163"><ele>9.0</ele><time>2026-05-02T12:50:27Z</time></trkpt><trkpt lat="45.406286573939376" lon="11.941449351295589"><ele>9.0</ele><time>2026-05-02T12:50:28Z</time></trkpt><trkpt lat="45.40646967549259" lon="11.941549515466027"><ele>9.0</ele><time>2026-05-02T12:50:29Z</time></trkpt><trkpt lat="45.40662885300603" lon="11.941637749819884"><ele>9.0</ele><time>2026-05-02T12:50:30Z</time></trkpt><trkpt lat="45.40675610779952" lon="11.941700941869174"><ele>9.0</ele><time>2026-05-02T12:50:31Z</time></trkpt><trkpt lat="45.40684094469622" lon="11.941775788750533"><ele>9.0</ele><time>2026-05-02T12:50:32Z</time></trkpt><trkpt lat="45.40688605411126" lon="11.94190147947078"><ele>9.0</ele><time>2026-05-02T12:50:33Z</time></trkpt><trkpt lat="45.40689425727654" lon="11.942087002970261"><ele>9.0</ele><time>2026-05-02T12:50:34Z</time></trkpt><trkpt lat="45.40687941576309" lon="11.942329248492735"><ele>9.0</ele><time>2026-05-02T12:50:35Z</time></trkpt><trkpt lat="45.40686542729317" lon="11.942618824187802"><ele>9.0</ele><time>2026-05-02T12:50:36Z</time></trkpt><trkpt lat="45.40686395699973" lon="11.942951657116959"><ele>10.0</ele><time>2026-05-02T12:50:36.999Z</time></trkpt><trkpt lat="45.40687534374268" lon="11.943303024157288"><ele>11.0</ele><time>2026-05-02T12:50:37.999Z</time></trkpt><trkpt lat="45.40688564790021" lon="11.943669002430697"><ele>11.5</ele><time>2026-05-02T12:50:38.999Z</time></trkpt><trkpt lat="45.40689285492774" lon="11.944023507235354"><ele>12.0</ele><time>2026-05-02T12:50:39.999Z</time></trkpt><trkpt lat="45.4068986510183" lon="11.944342716763398"><ele>12.0</ele><time>2026-05-02T12:50:40.999Z</time></trkpt><trkpt lat="45.40690136912645" lon="11.944641308858499"><ele>12.0</ele><time>2026-05-02T12:50:41.999Z</time></trkpt><trkpt lat="45.40690350229018" lon="11.944922265723838"><ele>12.0</ele><time>2026-05-02T12:50:42.999Z</time></trkpt><trkpt lat="45.40690522942811" lon="11.945182090319019"><ele>11.666666666666666</ele><time>2026-05-02T12:50:43.999Z</time></trkpt><trkpt lat="45.406909074240446" lon="11.94542973481827"><ele>11.333333333333332</ele><time>2026-05-02T12:50:44.999Z</time></trkpt><trkpt lat="45.406902605125076" lon="11.945654564122455"><ele>11.0</ele><time>2026-05-02T12:50:45.999Z</time></trkpt><trkpt lat="45.406897073850594" lon="11.945849087151737"><ele>11.0</ele><time>2026-05-02T12:50:46.999Z</time></trkpt><trkpt lat="45.40690308078599" lon="11.946007534606668"><ele>11.0</ele><time>2026-05-02T12:50:47.999Z</time></trkpt><trkpt lat="45.406906551197736" lon="11.946116884612042"><ele>11.0</ele><time>2026-05-02T12:50:48.999Z</time></trkpt><trkpt lat="45.40687311604903" lon="11.946204518123848"><ele>11.0</ele><time>2026-05-02T12:50:50.999Z</time></trkpt><trkpt lat="45.4068116130197" lon="11.946159320975825"><ele>11.0</ele><time>2026-05-02T12:51:09.999Z</time></trkpt><trkpt lat="45.406746309175105" lon="11.946126911814682"><ele>11.0</ele><time>2026-05-02T12:51:12.999Z</time></trkpt><trkpt lat="45.40681067895614" lon="11.946084744654144"><ele>11.0</ele><time>2026-05-02T12:52:20Z</time></trkpt><trkpt lat="45.406836289892844" lon="11.945948998186044"><ele>11.0</ele><time>2026-05-02T12:52:39Z</time></trkpt></trkseg></trk></gpx>